Date time  Uvelocity_cm/s Vvelocity_cm/s W_velocity_cm/s horizontalSpeedCareful_cm/s TotalSpeedCareful_cm/s HorizontalWindDirection_deg WindElevation_deg SpeedOfSound_cm/sec Temperature_Kelvin pressure_mb2009/04/23 12:59:59.9     -63     45      2     78     79 306.0   1.8  34210  290.41 0854.45
2009/04/23 13:00:00.0       0     86     22     87     90 359.6  14.3  34212  290.45 0854.45
2009/04/23 13:00:00.1      41    121     54    128    138  18.7  24.1  34208  290.40 0854.45
2009/04/23 13:00:00.2      14    187     15    188    189   4.4   4.6  34214  290.48 0854.45
2009/04/23 13:00:00.3      10    170     77    171    187   3.6  26.2  34210  290.41 0854.45
2009/04/23 13:00:00.4      61    110     55    126    137  29.0  25.1  34210  290.41 0854.45
2009/04/23 13:00:00.5      35    107     29    113    117  18.3  14.7  34208  290.40 0854.45
2009/04/23 13:00:00.6      55     90     46    106    115  31.6  25.1  34208  290.40 0854.45
2009/04/23 13:00:00.7      63     77     53    100    113  39.6  29.8  34206  290.36 0854.45
2009/04/23 13:00:00.8      86    104     26    136    139  39.7  11.1  34214  290.48 0854.45
2009/04/23 13:00:00.9      83    131     57    156    166  32.5  20.4  34222  290.64 0854.45
2009/04/23 13:00:01.0     106    133      8    171    172  38.7   2.8  34230  290.75 0854.45
2009/04/23 13:00:01.1     100     48     98    112    148  64.2  45.8  34220  290.58 0854.45
2009/04/23 13:00:01.2      84    101     74    132    151  39.6  31.4  34244  290.99 0854.45
2009/04/23 13:00:01.3     112    162    107    198    225  34.7  30.8  34260  291.26 0854.45
2009/04/23 13:00:01.4     101    143     83    176    194  35.2  27.1  34260  291.28 0854.45
2009/04/23 13:00:01.5      98    124    120    159    199  38.3  40.9  34260  291.26 0854.45
2009/04/23 13:00:01.6     185     98     96    210    230  62.0  26.6  34282  291.64 0854.45
2009/04/23 13:00:01.7     219    139     70    260    270  57.5  15.2  34286  291.72 0854.45
2009/04/23 13:00:01.8     215    102    111    238    262  64.6  26.6  34256  291.21 0854.45
2009/04/23 13:00:01.9     211    120    127    243    274  60.3  29.5  34286  291.72 0854.45
2009/04/23 13:00:02.0     185     98    142    210    253  62.0  37.4  34292  291.82 0854.45
2009/04/23 13:00:02.1     164     90    112    188    218  61.1  33.5  34272  291.47 0854.45
2009/04/23 13:00:02.2     171     80     65    190    201  64.8  18.9  34260  291.28 0854.45
2009/04/23 13:00:02.3     180     46     98    186    210  75.6  29.8  34244  291.01 0854.45
2009/04/23 13:00:02.4     170     44    143    176    226  75.4  43.7  34230  290.77 0854.43
2009/04/23 13:00:02.5     137     54    149    148    210  68.2  50.1  34236  290.86 0854.43
2009/04/23 13:00:02.6     112     65    168    130    212  59.8  58.5  34250  291.09 0854.43
2009/04/23 13:00:02.7     203     70    210    215    300  70.9  49.8  34234  290.83 0854.43
2009/04/23 13:00:02.8     134    102    180    169    246  52.7  52.1  34232  290.79 0854.43
2009/04/23 13:00:02.9     144    316     94    348    361  24.6  15.1  34220  290.59 0854.43
2009/04/23 13:00:03.0     238    307    108    389    404  37.9  15.6  34210  290.43 0854.43
2009/04/23 13:00:03.1     268    285     84    392    402  43.3  12.1  34232  290.79 0854.43
2009/04/23 13:00:03.2     206    278     91    347    359  36.6  14.7  34218  290.57 0854.43
2009/04/23 13:00:03.3     175    248    101    304    321  35.2  18.4  34238  290.88 0854.43
2009/04/23 13:00:03.4     130    233      7    267    268  29.2   1.6  34222  290.63 0854.43
2009/04/23 13:00:03.5     126    101    -44    162    167  51.4 -20.0  34220  290.58 0854.43
2009/04/23 13:00:03.6      75    194    -81    209    224  21.2 -26.7  34240  290.92 0854.43
2009/04/23 13:00:03.7     155    157    -94    221    240  44.5 -28.7  34214  290.48 0854.43
2009/04/23 13:00:03.8     183    128   -108    224    248  55.1 -31.8  34216  290.53 0854.43
2009/04/23 13:00:03.9     172    194    -74    260    270  41.4 -20.7  34238  290.90 0854.43
2009/04/23 13:00:04.0     143    217    -74    260    270  33.4 -20.7  34244  290.99 0854.43
2009/04/23 13:00:04.1      50    187    -23    194    196  15.1  -6.9  34240  290.92 0854.43
2009/04/23 13:00:04.2     167    142     19    220    221  49.6   5.2  34248  291.08 0854.43
2009/04/23 13:00:04.3     175    107     71    206    219  58.5  19.2  34252  291.15 0854.43
2009/04/23 13:00:04.4     204    138     73    247    258  55.9  16.6  34264  291.34 0854.40
2009/04/23 13:00:04.5     244    210     38    323    326  49.3   6.7  34248  291.07 0854.40
2009/04/23 13:00:04.6     237    237     60    336    342  45.1  10.1  34228  290.71 0854.40
2009/04/23 13:00:04.7     237    231    120    332    353  45.7  20.9  34238  290.88 0854.40
2009/04/23 13:00:04.8     272    206     64    342    349  52.9  10.7  34238  290.91 0854.40
2009/04/23 13:00:04.9     208    232     90    312    325  41.9  16.1  34204  290.32 0854.40
2009/04/23 13:00:05.0     282    192    110    342    360  55.8  17.9  34208  290.37 0854.40
2009/04/23 13:00:05.1     197    203    112    284    305  44.1  23.0  34212  290.46 0854.40
2009/04/23 13:00:05.2     207    243     72    320    329  40.5  12.8  34176  289.85 0854.40
2009/04/23 13:00:05.3     266    211    187    340    388  51.5  31.3  34278  291.59 0854.40
2009/04/23 13:00:05.4     197    120    181    231    293  58.7  42.0  34268  291.41 0854.40
2009/04/23 13:00:05.5     241    191    150    308    342  51.6  27.8  34226  290.69 0854.40
2009/04/23 13:00:05.6     242    241    155    342    375  45.1  26.0  34194  290.16 0854.40
2009/04/23 13:00:05.7     282    198    157    345    379  54.9  26.2  34232  290.79 0854.40
2009/04/23 13:00:05.8     265    169    164    315    355  57.4  29.6  34234  290.83 0854.40
2009/04/23 13:00:05.9     237    207    109    315    334  48.9  19.1  34208  290.37 0854.40
2009/04/23 13:00:06.0     304    167    111    348    366  61.2  17.8  34272  291.49 0854.40
2009/04/23 13:00:06.1     293    112    132    314    340  68.9  24.1  34266  291.37 0854.40
2009/04/23 13:00:06.2     299    117    114    322    341  68.6  20.1  34278  291.56 0854.40
2009/04/23 13:00:06.3     377    164     66    412    418  66.5   9.2  34296  291.87 0854.40
2009/04/23 13:00:06.4     358    141     36    385    387  68.5   5.4  34292  291.83 0854.34
2009/04/23 13:00:06.5     320    202     70    379    386  57.8  10.6  34296  291.88 0854.34
2009/04/23 13:00:06.6     293    112     80    314    325  69.1  14.3  34292  291.80 0854.34
2009/04/23 13:00:06.7     296    159     14    337    338  61.8   2.5  34308  292.08 0854.34
2009/04/23 13:00:06.8     282    204     14    349    350  54.0   2.3  34262  291.32 0854.34
2009/04/23 13:00:06.9     278    157    -28    320    322  60.5  -5.1  34258  291.24 0854.34
2009/04/23 13:00:07.0     342    158      1    377    378  65.2   0.2  34254  291.18 0854.34
2009/04/23 13:00:07.1     336     93     26    349    350  74.4   4.4  34232  290.79 0854.34
2009/04/23 13:00:07.2     310     14    110    311    331  87.4  19.6  34222  290.61 0854.34
2009/04/23 13:00:07.3     282    -12     68    283    292  92.6  13.5  34212  290.46 0854.34
2009/04/23 13:00:07.4     312      6    113    313    332  88.7  20.7  34226  290.70 0854.34
2009/04/23 13:00:07.5     252      0     89    253    269  90.0  19.4  34220  290.59 0854.34
2009/04/23 13:00:07.6     253    -16     59    254    261  93.7  13.2  34210  290.42 0854.34
2009/04/23 13:00:07.7     278    -25     55    280    286  95.2  11.1  34212  290.44 0854.34
2009/04/23 13:00:07.8     263     11     53    264    270  87.4  11.4  34204  290.31 0854.34
2009/04/23 13:00:07.9     233    -89    105    250    271 110.9  24.1  34210  290.42 0854.34
2009/04/23 13:00:08.0     219    -71     77    231    244 107.9  18.4  34206  290.34 0854.34
2009/04/23 13:00:08.1     190    -86     62    209    219 114.4  16.6  34200  290.26 0854.34
2009/04/23 13:00:08.2     171   -104     63    201    211 121.3  17.4  34202  290.28 0854.34
2009/04/23 13:00:08.3     142   -141     76    201    214 134.9  21.3  34220  290.58 0854.34
2009/04/23 13:00:08.4     155   -118     97    196    218 127.3  28.2  34200  290.26 0854.28
2009/04/23 13:00:08.5     127   -120    102    175    202 133.3  33.1  34200  290.26 0854.28
2009/04/23 13:00:08.6     142   -126    116    191    223 131.6  34.2  34200  290.26 0854.28
2009/04/23 13:00:08.7     131   -149    102    199    223 138.6  29.3  34202  290.28 0854.28
2009/04/23 13:00:08.8     142   -126    109    191    219 131.6  32.1  34202  290.30 0854.28
2009/04/23 13:00:08.9     144   -129     86    194    212 132.0  25.3  34200  290.26 0854.28
2009/04/23 13:00:09.0     146   -105     83    180    198 125.7  26.4  34204  290.31 0854.28
2009/04/23 13:00:09.1     119    -83     86    146    169 125.1  33.5  34206  290.36 0854.28
2009/04/23 13:00:09.2      74   -125    113    146    184 149.2  41.7  34204  290.33 0854.28
2009/04/23 13:00:09.3     145    -92    116    172    207 122.5  37.3  34210  290.41 0854.28
2009/04/23 13:00:09.4      94    -96    109    135    173 135.5  43.3  34210  290.41 0854.28
2009/04/23 13:00:09.5      52   -123    140    134    193 156.8  51.2  34202  290.30 0854.28
2009/04/23 13:00:09.6     -16   -148    133    149    199 186.3  46.4  34202  290.30 0854.28
2009/04/23 13:00:09.7       9   -127    132    128    183 175.6  50.7  34206  290.36 0854.28
2009/04/23 13:00:09.8      87   -119     87    148    171 143.9  33.1  34210  290.43 0854.28
2009/04/23 13:00:09.9     139   -108     95    177    200 128.0  30.6  34208  290.40 0854.28
2009/04/23 13:00:10.0     113   -109    109    158    191 134.0  37.8  34212  290.45 0854.28
2009/04/23 13:00:10.1     109   -102     98    150    179 133.1  36.3  34212  290.47 0854.28
2009/04/23 13:00:10.2      54   -111    107    124    163 154.1  45.6  34214  290.48 0854.28
2009/04/23 13:00:10.3      41   -105     94    113    146 158.6  43.8  34214  290.48 0854.28
2009/04/23 13:00:10.4      26    -82     86     87    122 162.2  50.0  34218  290.57 0854.28
2009/04/23 13:00:10.5      19    -44     74     49     88 156.4  63.6  34218  290.57 0854.28
2009/04/23 13:00:10.6     -16    -47     75     50     90 199.2  63.6  34212  290.47 0854.28
2009/04/23 13:00:10.7      29     -2     63     30     69  94.4  72.9  34216  290.52 0854.28
2009/04/23 13:00:10.8      82    -92    109    124    165 138.6  45.8  34222  290.62 0854.28
2009/04/23 13:00:10.9     103   -129     85    166    186 141.3  29.1  34214  290.48 0854.28
2009/04/23 13:00:11.0      55   -151     83    161    181 159.9  29.5  34212  290.45 0854.28
2009/04/23 13:00:11.1       0   -145    112    146    184 180.0  41.4  34220  290.58 0854.28
2009/04/23 13:00:11.2     -16   -125    146    127    193 187.6  54.6  34220  290.60 0854.28
2009/04/23 13:00:11.3     -28   -137    143    140    200 191.6  50.4  34218  290.55 0854.28
2009/04/23 13:00:11.4     -14   -160    122    161    202 185.3  41.2  34214  290.48 0854.28
2009/04/23 13:00:11.5      22   -107    146    110    182 168.0  59.4  34218  290.57 0854.28
2009/04/23 13:00:11.6       0    -88    126     89    154 180.4  61.5  34224  290.67 0854.28
2009/04/23 13:00:11.7      68   -134    121    151    193 152.8  43.3  34216  290.52 0854.28
2009/04/23 13:00:11.8      62   -167     74    179    193 159.5  23.4  34216  290.52 0854.28
2009/04/23 13:00:11.9      56   -197     59    205    214 164.0  16.0  34210  290.43 0854.28
2009/04/23 13:00:12.0      67   -248     55    257    263 164.9  12.1  34200  290.26 0854.28
2009/04/23 13:00:12.1      74   -236     87    248    263 162.6  19.4  34204  290.31 0854.28
2009/04/23 13:00:12.2      39   -276     95    279    296 171.8  18.9  34202  290.27 0854.28
2009/04/23 13:00:12.3     111   -317     61    337    343 160.6  10.4  34198  290.20 0854.28
2009/04/23 13:00:12.4      41   -326     89    329    341 172.8  15.2  34200  290.25 0854.29
2009/04/23 13:00:12.5      65   -344    108    351    368 169.2  17.2  34200  290.25 0854.29
2009/04/23 13:00:12.6      73   -327    139    336    363 167.4  23.7  34198  290.20 0854.29
2009/04/23 13:00:12.7      58   -283    112    290    310 168.4  22.3  34200  290.26 0854.29
2009/04/23 13:00:12.8      17   -274    139    275    308 176.4  29.1  34202  290.27 0854.29
2009/04/23 13:00:12.9      -7   -209    115    210    239 182.0  31.0  34204  290.31 0854.29
2009/04/23 13:00:13.0    -122   -185     10    222    223 213.4   2.8  34202  290.30 0854.29
2009/04/23 13:00:13.1      25   -182    155    184    240 172.0  44.5  34204  290.31 0854.29
2009/04/23 13:00:13.2     123   -123    123    174    213 135.0  38.6  34202  290.28 0854.29
2009/04/23 13:00:13.3     117   -117     97    166    192 135.0  33.1  34202  290.28 0854.29
2009/04/23 13:00:13.4      85   -149     64    172    183 150.1  21.3  34200  290.26 0854.29
2009/04/23 13:00:13.5      60   -167     89    178    199 160.2  28.7  34202  290.28 0854.29
2009/04/23 13:00:13.6      35   -158     56    162    172 167.5  19.2  34196  290.19 0854.29
2009/04/23 13:00:13.7      42   -179     37    185    189 166.6  11.4  34202  290.28 0854.29
2009/04/23 13:00:13.8      39   -223    -63    227    236 170.0 -15.5  34202  290.27 0854.29
2009/04/23 13:00:13.9      66   -221    -17    231    232 163.3  -4.4  34202  290.28 0854.29
2009/04/23 13:00:14.0     104   -202     -8    228    229 152.8  -2.2  34202  290.30 0854.29
2009/04/23 13:00:14.1      96   -151     10    180    181 147.5   3.3  34200  290.26 0854.29
2009/04/23 13:00:14.2     125   -128     40    180    185 135.7  12.6  34200  290.25 0854.29
2009/04/23 13:00:14.3     149   -154     26    215    217 136.1   7.1  34202  290.30 0854.29
2009/04/23 13:00:14.4     137   -162    -56    213    221 139.9 -14.7  34204  290.31 0854.32
2009/04/23 13:00:14.5      77   -158    -35    176    180 153.9 -11.3  34206  290.35 0854.32
2009/04/23 13:00:14.6      87   -183     15    203    204 154.6   4.4  34208  290.38 0854.32
2009/04/23 13:00:14.7      33   -224    -15    227    228 171.5  -3.9  34210  290.43 0854.32
2009/04/23 13:00:14.8      36   -210    -61    214    222 170.3 -20.4  34214  290.48 0854.32
2009/04/23 13:00:14.9      16   -211     25    212    214 175.6   6.9  34216  290.52 0854.32
2009/04/23 13:00:15.0      -5   -163     -5    164    165 181.8  -1.8  34212  290.45 0854.32
2009/04/23 13:00:15.1      68    -96    -27    118    122 144.8 -12.9  34208  290.40 0854.32
2009/04/23 13:00:15.2     102    -40     30    110    115 111.7  15.3  34204  290.31 0854.32
2009/04/23 13:00:15.3      82    -50     -3     97     98 121.5  -2.2  34204  290.31 0854.32
2009/04/23 13:00:15.4      88    -56    -31    105    109 122.5 -21.7  34208  290.38 0854.35
2009/04/23 13:00:15.5     113   -141    -84    181    199 141.3 -31.0  34212  290.45 0854.35
2009/04/23 13:00:15.6      32   -178    -27    181    184 169.8  -8.6  34212  290.45 0854.35
2009/04/23 13:00:15.7      80   -168    -66    187    199 154.5 -19.6  34212  290.45 0854.35
2009/04/23 13:00:15.8      77   -178    -50    194    201 156.6 -14.5  34206  290.36 0854.35
2009/04/23 13:00:15.9      85   -171     21    192    194 153.5   6.5  34210  290.43 0854.35
2009/04/23 13:00:16.0      80   -154     40    174    179 152.6  13.2  34210  290.41 0854.35
2009/04/23 13:00:16.1       1   -155     83    156    176 179.5  30.3  34210  290.43 0854.35
2009/04/23 13:00:16.2      57   -142    104    154    185 158.1  37.3  34210  290.43 0854.35
2009/04/23 13:00:16.3      73   -109      7    132    133 146.2   3.3  34210  290.43 0854.35
2009/04/23 13:00:16.4     103    -76    -16    129    131 126.4  -7.2  34212  290.45 0854.35
2009/04/23 13:00:16.5     110   -120    -36    164    169 137.5 -12.6  34210  290.41 0854.35
2009/04/23 13:00:16.6     111   -153    -56    190    198 143.9 -21.5  34212  290.45 0854.35
2009/04/23 13:00:16.7     100   -243    -57    264    271 157.5 -12.2  34208  290.39 0854.35
2009/04/23 13:00:16.8      88   -265     -6    280    281 161.5  -1.3  34196  290.19 0854.35
2009/04/23 13:00:16.9     116   -230     38    258    261 153.3   8.5  34190  290.09 0854.35
2009/04/23 13:00:17.0      24   -258     72    260    270 174.7  15.6  34192  290.10 0854.35
2009/04/23 13:00:17.1     -40   -198     60    203    212 191.6  16.6  34190  290.08 0854.35
2009/04/23 13:00:17.2     -37   -172     64    177    188 192.3  20.4  34200  290.26 0854.35
2009/04/23 13:00:17.3     -71   -145    -10    162    163 206.3  -3.7  34194  290.16 0854.35
2009/04/23 13:00:17.4     -66   -160    -87    174    194 202.3 -32.6  34202  290.28 0854.39
2009/04/23 13:00:17.5      60   -244   -111    252    275 166.2 -29.6  34196  290.19 0854.39
2009/04/23 13:00:17.6     -55   -217    -57    224    232 194.3 -14.3  34204  290.31 0854.39
2009/04/23 13:00:17.7     -53   -205    -50    212    218 194.5 -13.4  34202  290.30 0854.39
2009/04/23 13:00:17.8     -45   -292    -37    296    299 188.9  -7.2  34198  290.20 0854.39
2009/04/23 13:00:17.9      -4   -289    -63    290    297 180.9 -12.4  34190  290.09 0854.39
2009/04/23 13:00:18.0     -91   -329    -93    342    355 195.6 -15.2  34200  290.25 0854.39
2009/04/23 13:00:18.1     -89   -320    -75    333    342 195.6 -12.7  34202  290.27 0854.39
2009/04/23 13:00:18.2     -80   -304    -52    315    320 194.9  -9.5  34194  290.15 0854.39
2009/04/23 13:00:18.3     -55   -334    -39    339    342 189.4  -6.7  34198  290.23 0854.39
2009/04/23 13:00:18.4       5   -330    -42    331    334 179.0  -7.4  34198  290.23 0854.39
2009/04/23 13:00:18.5      33   -307    -12    309    310 173.8  -2.2  34198  290.22 0854.39
2009/04/23 13:00:18.6      -3   -216    -48    217    223 181.0 -12.6  34198  290.23 0854.39
2009/04/23 13:00:18.7     -35   -197    -55    201    209 190.2 -15.4  34198  290.21 0854.39
2009/04/23 13:00:18.8     -37   -141    -46    146    153 195.1 -23.3  34200  290.26 0854.39
2009/04/23 13:00:18.9    -140   -228    -93    268    283 211.6 -24.0  34196  290.17 0854.39
2009/04/23 13:00:19.0    -109   -249   -121    273    298 203.7 -29.7  34190  290.09 0854.39
2009/04/23 13:00:19.1    -164   -153    -74    225    236 226.9 -23.3  34200  290.26 0854.39
2009/04/23 13:00:19.2    -113   -137    -96    178    202 219.6 -35.4  34196  290.19 0854.39
2009/04/23 13:00:19.3     -80   -119      1    144    145 214.2   0.7  34198  290.23 0854.39
2009/04/23 13:00:19.4     -94   -130     10    161    162 215.8   3.8  34200  290.26 0854.41
2009/04/23 13:00:19.5     -72   -143    -63    161    172 206.7 -26.7  34198  290.21 0854.41
2009/04/23 13:00:19.6    -108   -199    -80    227    240 208.5 -24.4  34198  290.22 0854.41
2009/04/23 13:00:19.7    -112   -195    -89    225    241 209.9 -27.2  34196  290.17 0854.41
2009/04/23 13:00:19.8    -134   -186    -77    230    243 215.8 -18.6  34196  290.17 0854.41
2009/04/23 13:00:19.9    -137   -168    -82    218    232 219.2 -25.7  34196  290.19 0854.41
2009/04/23 13:00:20.0     -96   -185    -51    209    216 207.6 -13.9  34196  290.19 0854.41
2009/04/23 13:00:20.1    -156   -188    -31    245    248 219.6  -7.3  34192  290.12 0854.41
2009/04/23 13:00:20.2    -202   -172    -52    266    272 229.6 -11.1  34196  290.19 0854.41
2009/04/23 13:00:20.3    -138   -127     49    188    195 227.3  14.7  34198  290.21 0854.41
2009/04/23 13:00:20.4    -126   -120     11    175    176 226.4   3.6  34198  290.23 0854.41
2009/04/23 13:00:20.5    -108    -97     48    146    154 228.2  18.4  34200  290.25 0854.41
2009/04/23 13:00:20.6     -88   -106     30    138    142 219.7  12.6  34196  290.19 0854.41
2009/04/23 13:00:20.7     -85   -106     -1    137    138 218.7  -0.7  34198  290.21 0854.41
2009/04/23 13:00:20.8     -58   -106      1    122    123 208.9   0.8  34198  290.21 0854.41
2009/04/23 13:00:20.9     -59    -76    -31     97    103 217.8 -18.1  34198  290.23 0854.41
2009/04/23 13:00:21.0     -60    -73    -53     95    108 219.6 -35.8  34198  290.23 0854.41
2009/04/23 13:00:21.1     -37    -68    -85     78    115 209.0 -56.6  34200  290.25 0854.41
2009/04/23 13:00:21.2       1   -126    -52    127    137 179.1 -27.5  34196  290.19 0854.41
2009/04/23 13:00:21.3       0   -142     -5    143    144 180.0  -2.2  34194  290.14 0854.41
2009/04/23 13:00:21.4       1   -127     10    128    129 179.5   4.9  34196  290.19 0854.42
2009/04/23 13:00:21.5     -12   -108    -27    109    113 186.7 -13.9  34200  290.25 0854.42
2009/04/23 13:00:21.6     -51    -85    -33    100    105 211.2 -23.8  34198  290.21 0854.42
2009/04/23 13:00:21.7     -23    -46    -17     52     54 207.2 -23.8  34200  290.25 0854.42
2009/04/23 13:00:21.8     -40    -33    -18     52     55 230.4 -23.3  34200  290.26 0854.42
2009/04/23 13:00:21.9     -39    -12    -48     41     63 252.3 -59.8  34206  290.36 0854.42
2009/04/23 13:00:22.0     -50    -13    -47     52     70 254.9 -51.3  34208  290.38 0854.42
2009/04/23 13:00:22.1     -67    -32     -9     75     76 244.6  -7.2  34208  290.40 0854.42
2009/04/23 13:00:22.2     -81    -30    -53     87    101 249.6 -38.8  34210  290.41 0854.42
2009/04/23 13:00:22.3     -40    -68    -32     80     86 210.7 -26.9  34206  290.36 0854.42
2009/04/23 13:00:22.4     -59    -84     -1    104    105 215.2  -0.7  34204  290.31 0854.42
2009/04/23 13:00:22.5     -70    -98     22    121    124 215.6  10.6  34200  290.25 0854.42
2009/04/23 13:00:22.6     -73   -102     22    126    129 215.6  10.1  34202  290.28 0854.42
2009/04/23 13:00:22.7    -101   -107     58    148    158 223.2  22.5  34204  290.31 0854.42
2009/04/23 13:00:22.8     -76   -108     -5    133    134 215.2  -2.2  34210  290.41 0854.42
2009/04/23 13:00:22.9    -114   -153    -25    192    194 216.7  -7.5  34196  290.19 0854.42
2009/04/23 13:00:23.0     -93   -112    -14    146    147 219.7  -5.6  34198  290.21 0854.42
2009/04/23 13:00:23.1     -79    -68    -17    105    107 229.6  -9.3  34204  290.33 0854.42
2009/04/23 13:00:23.2    -120    -28     -8    124    125 256.8  -4.1  34204  290.31 0854.42
2009/04/23 13:00:23.3    -116    -43      6    124    125 249.6   2.9  34200  290.25 0854.45
2009/04/23 13:00:23.4    -106    -87     37    138    144 230.5  15.3  34196  290.18 0854.45
2009/04/23 13:00:23.6     -95   -144     29    173    176 213.6   9.5  34194  290.16 0854.45
2009/04/23 13:00:23.7     -91    -40    -51    100    112 246.0 -33.1  34196  290.18 0854.45
2009/04/23 13:00:23.8     -43    -24    -20     50     53 240.2 -26.4  34196  290.19 0854.45
2009/04/23 13:00:23.9     -15    -82      1     84     85 190.7   0.8  34198  290.21 0854.45
2009/04/23 13:00:24.0     -53    -92     -2    107    108 210.3  -1.3  34196  290.18 0854.45
2009/04/23 13:00:24.1     -66    -59    -44     89     99 228.2 -32.6  34194  290.16 0854.45
2009/04/23 13:00:24.2     -65    -66    -46     93    103 224.5 -32.2  34196  290.18 0854.45
2009/04/23 13:00:24.3     -56    -83    -35    101    106 213.8 -23.3  34198  290.21 0854.45
2009/04/23 13:00:24.4     -63    -96    -42    116    123 213.4 -25.3  34196  290.18 0854.45
2009/04/23 13:00:24.5     -44   -114     -4    123    124 201.4  -2.2  34194  290.16 0854.45
2009/04/23 13:00:24.6      24   -129      7    132    133 169.3   3.3  34200  290.26 0854.45
2009/04/23 13:00:24.7      73   -116     18    138    140 147.9   7.5  34200  290.25 0854.45
2009/04/23 13:00:24.8      77   -122     21    145    147 147.5   8.5  34196  290.18 0854.45
2009/04/23 13:00:24.9      97   -125     21    159    161 142.1   7.8  34196  290.18 0854.45
2009/04/23 13:00:25.0      87   -119     36    148    153 143.9  13.7  34196  290.19 0854.45
2009/04/23 13:00:25.1      79   -110     34    136    141 144.0  14.3  34196  290.18 0854.45
2009/04/23 13:00:25.2      60   -115     30    130    134 152.4  13.2  34198  290.21 0854.45
2009/04/23 13:00:25.3      61   -107     41    124    131 150.1  18.4  34200  290.25 0854.45
2009/04/23 13:00:25.4      61   -113     39    129    135 151.5  16.8  34198  290.23 0854.47
2009/04/23 13:00:25.5      59   -106     50    122    131 151.0  23.1  34200  290.26 0854.47
2009/04/23 13:00:25.6      85   -135     67    160    173 147.9  23.8  34198  290.21 0854.47
2009/04/23 13:00:25.7     122   -178     57    216    224 145.5  15.0  34196  290.19 0854.47
2009/04/23 13:00:25.8     136   -110     66    176    187 128.9  21.5  34200  290.25 0854.47
2009/04/23 13:00:25.9      91    -97     46    134    142 136.8  19.2  34200  290.26 0854.47
2009/04/23 13:00:26.0      38   -112     54    119    130 161.3  26.2  34204  290.31 0854.47
2009/04/23 13:00:26.1      51   -139     70    149    164 159.9  27.0  34198  290.23 0854.47
2009/04/23 13:00:26.2      12   -158     32    159    163 175.5  11.4  34196  290.18 0854.47
2009/04/23 13:00:26.3      17   -224     85    225    240 175.6  21.5  34194  290.14 0854.47
2009/04/23 13:00:26.4      -3   -226     80    227    241 180.9  19.6  34196  290.19 0854.47
2009/04/23 13:00:26.5       9   -209    117    210    240 177.5  31.4  34194  290.16 0854.47
2009/04/23 13:00:26.6     112   -294     32    315    317 159.1   5.9  34194  290.15 0854.47
2009/04/23 13:00:26.7      42   -269     97    273    289 171.1  20.2  34196  290.19 0854.47
2009/04/23 13:00:26.8      43   -253    129    257    287 170.3  28.7  34198  290.20 0854.47
2009/04/23 13:00:26.9      70   -236     67    247    256 163.5  15.2  34198  290.20 0854.47
2009/04/23 13:00:27.0     114   -192     81    224    238 149.3  20.7  34194  290.15 0854.47
2009/04/23 13:00:27.1     166   -128     35    210    213 127.8   9.5  34194  290.14 0854.47
2009/04/23 13:00:27.2     167   -121      3    207    208 125.9   1.0  34196  290.19 0854.47
2009/04/23 13:00:27.3     208    -63     38    218    222 106.8  10.1  34200  290.25 0854.47
2009/04/23 13:00:27.4     178    -94     80    202    217 117.8  23.0  34200  290.26 0854.48
2009/04/23 13:00:27.5      88   -117     82    147    168 143.0  31.6  34200  290.26 0854.48
2009/04/23 13:00:27.6     120    -45     73    129    148 110.8  31.9  34202  290.28 0854.48
2009/04/23 13:00:27.7      92    -92     60    131    144 134.9  26.6  34202  290.28 0854.48
2009/04/23 13:00:27.8      86   -104     57    136    147 140.3  23.6  34204  290.31 0854.48
2009/04/23 13:00:27.9      77    -83     46    114    122 137.2  23.0  34202  290.30 0854.48
2009/04/23 13:00:28.0      26   -120     40    123    130 167.5  17.9  34198  290.23 0854.48
2009/04/23 13:00:28.1      34   -104     64    110    127 161.7  32.9  34200  290.26 0854.48
2009/04/23 13:00:28.2      11   -106     67    107    126 173.8  35.5  34202  290.30 0854.48
2009/04/23 13:00:28.3      43    -84     62     95    113 152.8  35.6  34200  290.26 0854.48
2009/04/23 13:00:28.4      37    -44     51     58     77 140.4  45.8  34204  290.33 0854.48
2009/04/23 13:00:28.5      54    -25     50     60     78 115.4  44.8  34210  290.41 0854.48
2009/04/23 13:00:28.6      18    -17     48     25     54 133.3  71.9  34214  290.50 0854.48
2009/04/23 13:00:28.7     -33    -12     49     36     60 250.0  60.5  34214  290.50 0854.48
2009/04/23 13:00:28.8      13    -13     54     19     57 133.3  81.2  34210  290.43 0854.48
2009/04/23 13:00:28.9      34     35     59     50     77  44.2  56.3  34212  290.45 0854.48
2009/04/23 13:00:29.0     -22    -47     87     52    101 205.3  66.8  34212  290.45 0854.48
2009/04/23 13:00:29.1      15    -68     93     70    116 167.5  59.4  34208  290.40 0854.48
2009/04/23 13:00:29.2      -8     -3     80      9     80 244.7  90.0  34214  290.48 0854.48
2009/04/23 13:00:29.3      -7      0     66      8     66 270.0  90.0  34214  290.48 0854.48
2009/04/23 13:00:29.4      -7    -21     80     23     83 200.0  83.9  34216  290.52 0854.49
2009/04/23 13:00:29.5       3     10     75     11     75  18.5  90.0  34218  290.55 0854.49
2009/04/23 13:00:29.6      20    -20     64     29     70 135.0  73.1  34218  290.57 0854.49
2009/04/23 13:00:29.7     -14    -40     53     43     68 199.2  56.4  34212  290.47 0854.49
2009/04/23 13:00:29.8     -46    -83     78     95    122 209.0  43.7  34202  290.28 0854.49
2009/04/23 13:00:29.9     -47    -38    107     61    123 231.4  67.2  34214  290.50 0854.49
2009/04/23 13:00:30.0     -73   -120     88    141    166 211.6  35.2  34206  290.35 0854.49
2009/04/23 13:00:30.1     -88   -141     65    167    179 212.1  22.5  34206  290.35 0854.49
2009/04/23 13:00:30.2     -82   -129     84    154    175 212.5  31.3  34206  290.35 0854.49
2009/04/23 13:00:30.3     -93   -158      9    184    185 210.5   2.9  34202  290.30 0854.49
2009/04/23 13:00:30.4     -70   -123    -39    142    148 209.9 -15.4  34200  290.25 0854.49
2009/04/23 13:00:30.5     -35   -106     26    112    116 198.7  13.2  34202  290.28 0854.49
2009/04/23 13:00:30.6     -13   -132     40    133    139 185.8  16.8  34200  290.26 0854.49
2009/04/23 13:00:30.7       2   -143     37    144    149 179.0  14.7  34202  290.28 0854.49
2009/04/23 13:00:30.8     -17   -212     33    213    216 184.7   8.8  34204  290.31 0854.49
2009/04/23 13:00:30.9      -4   -278      3    279    280 181.0   0.8  34206  290.34 0854.49
2009/04/23 13:00:31.0     -59   -232     23    240    242 194.3   5.7  34206  290.34 0854.49
2009/04/23 13:00:31.1     -55   -236    -35    243    246 193.3  -8.2  34202  290.29 0854.49
2009/04/23 13:00:31.2     -68   -255    -31    265    267 195.1  -6.7  34204  290.31 0854.49
2009/04/23 13:00:31.3     -54   -226    -64    233    242 193.6 -15.4  34200  290.26 0854.49
2009/04/23 13:00:31.4     -51   -188    -46    195    201 195.2 -13.4  34202  290.30 0854.51
2009/04/23 13:00:31.5      18   -119      1    121    122 171.1   0.8  34208  290.38 0854.51
2009/04/23 13:00:31.6     -28    -18     86     34     92 237.6  77.6  34216  290.52 0854.51
2009/04/23 13:00:31.7     -83     -5     71     84    109 266.1  43.8  34222  290.64 0854.51
2009/04/23 13:00:31.8    -114    -19     57    116    129 260.3  27.8  34212  290.45 0854.51
2009/04/23 13:00:31.9    -190     43     45    195    201 283.0  13.2  34210  290.43 0854.51
2009/04/23 13:00:32.0    -100    -60     86    117    145 238.9  39.7  34210  290.43 0854.51
2009/04/23 13:00:32.1     -22    -78     77     82    112 195.6  48.0  34210  290.41 0854.51
2009/04/23 13:00:32.2     -41    -65     90     78    119 212.5  54.3  34214  290.48 0854.51
2009/04/23 13:00:32.3      -1    -14     94     15     95 184.4  90.0  34230  290.75 0854.51
2009/04/23 13:00:32.4     -31    -32     84     45     95 224.2  69.8  34228  290.72 0854.51
2009/04/23 13:00:32.5     -24     20     90     32     95 309.5  80.7  34240  290.94 0854.51
2009/04/23 13:00:32.6     -24      0    106     25    108 270.0  87.5  34236  290.86 0854.51
2009/04/23 13:00:32.7     -13     17    109     22    111 322.2  89.1  34232  290.81 0854.51
2009/04/23 13:00:32.8     -41      0     96     42    104 269.2  75.0  34222  290.62 0854.51
2009/04/23 13:00:32.9     -20    -20     88     29     92 225.1  80.7  34224  290.67 0854.51
2009/04/23 13:00:33.0     -17     26     92     32     97 327.4  81.2  34222  290.62 0854.51
2009/04/23 13:00:33.1     -19     -4     97     20     99 256.7  89.0  34226  290.70 0854.51
2009/04/23 13:00:33.2     -38    -13     97     41    105 251.4  76.1  34224  290.65 0854.51
2009/04/23 13:00:33.3      17     12     69     22     72  54.0  80.7  34222  290.64 0854.51
2009/04/23 13:00:33.4      27    -34     62     44     76 141.3  60.6  34224  290.67 0854.52
2009/04/23 13:00:33.5      89    -17     75     91    117 101.4  43.8  34218  290.57 0854.52
2009/04/23 13:00:33.6      71    -19     45     74     86 105.1  34.4  34214  290.50 0854.52
2009/04/23 13:00:33.7     -27    -64     40     70     80 202.7  32.4  34214  290.48 0854.52
2009/04/23 13:00:33.8     -66   -104    105    124    162 212.5  44.8  34214  290.48 0854.52
2009/04/23 13:00:33.9     -49   -130    105    140    175 200.9  40.7  34214  290.50 0854.52
2009/04/23 13:00:34.0     -58    -95     -3    112    113 211.6  -1.8  34210  290.41 0854.52
2009/04/23 13:00:34.1     -72   -159    -17    175    176 204.5  -5.6  34206  290.35 0854.52
2009/04/23 13:00:34.2     -82   -195    -27    212    214 202.9  -7.3  34208  290.38 0854.52
2009/04/23 13:00:34.3    -110   -140     -9    179    180 218.3  -3.2  34208  290.38 0854.52
2009/04/23 13:00:34.4    -101   -152    -10    183    184 213.6  -3.3  34206  290.36 0854.52
2009/04/23 13:00:34.5     -50   -167     38    175    180 196.7  12.4  34206  290.36 0854.52
2009/04/23 13:00:34.6     -50   -188     51    195    202 194.9  14.7  34210  290.41 0854.52
2009/04/23 13:00:34.7     -49   -159      3    167    168 197.4   1.2  34210  290.41 0854.52
2009/04/23 13:00:34.8     -25   -131      4    134    135 191.1   1.8  34210  290.43 0854.52
2009/04/23 13:00:34.9     -31    -82     23     88     91 200.9  14.7  34206  290.35 0854.52
2009/04/23 13:00:35.0     -27    -83     98     88    131 198.5  53.3  34212  290.45 0854.52
2009/04/23 13:00:35.1     -71   -120     67    140    155 210.8  27.3  34210  290.43 0854.52
2009/04/23 13:00:35.2     -78   -153     15    172    173 207.2   5.2  34208  290.40 0854.52
2009/04/23 13:00:35.3     -59   -179     28    189    192 198.5   8.5  34216  290.53 0854.52
2009/04/23 13:00:35.4    -143   -109     -7    181    182 232.7  -2.3  34226  290.69 0854.53
2009/04/23 13:00:35.5    -175   -118     38    212    216 236.0  10.3  34222  290.62 0854.53
2009/04/23 13:00:35.6    -212   -107     19    238    239 243.1   4.6  34228  290.71 0854.53
2009/04/23 13:00:35.7    -171    -80    -24    190    192 244.8  -7.3  34222  290.64 0854.53
2009/04/23 13:00:35.8    -125   -111      6    168    169 228.2   2.3  34216  290.52 0854.53
2009/04/23 13:00:35.9    -131    -82    -10    155    156 238.0  -3.9  34214  290.48 0854.53
2009/04/23 13:00:36.0    -134    -48    -18    143    145 250.1  -7.3  34218  290.57 0854.53
2009/04/23 13:00:36.1    -134    -56    -18    146    148 247.4  -7.2  34222  290.62 0854.53
2009/04/23 13:00:36.2    -113    -77      7    137    138 235.8   3.3  34222  290.62 0854.53
2009/04/23 13:00:36.3     -71    -59     41     93    101 230.0  25.1  34218  290.57 0854.53
2009/04/23 13:00:36.4     -18    -68     23     71     75 195.1  18.4  34220  290.60 0854.53
2009/04/23 13:00:36.5      -5    -52    -11     53     55 186.2 -12.4  34216  290.52 0854.53
2009/04/23 13:00:36.6      29    -66     14     73     75 156.4  11.1  34220  290.60 0854.53
2009/04/23 13:00:36.7     101    -96     38    140    146 133.6  15.3  34210  290.43 0854.53
2009/04/23 13:00:36.8     243    -55     54    250    256 102.8  12.4  34206  290.36 0854.53
2009/04/23 13:00:36.9     216    -89     78    234    247 112.4  18.5  34208  290.39 0854.53
2009/04/23 13:00:37.0     195    -95     91    218    236 116.0  24.1  34206  290.36 0854.53
2009/04/23 13:00:37.1      90    -48    107    103    148 118.0  51.2  34214  290.48 0854.53
2009/04/23 13:00:37.2      81    -39     86     90    124 115.8  49.4  34218  290.55 0854.53
2009/04/23 13:00:37.3      -8    -95    126     96    158 185.3  59.0  34212  290.47 0854.53
2009/04/23 13:00:37.4      34   -103    108    109    153 161.5  50.0  34220  290.58 0854.53
2009/04/23 13:00:37.5      42   -114     93    122    153 159.5  41.2  34216  290.53 0854.53
2009/04/23 13:00:37.6      35   -106     49    112    122 161.3  25.1  34210  290.41 0854.53
2009/04/23 13:00:37.7     110   -110     19    156    158 135.0   7.2  34212  290.45 0854.53
2009/04/23 13:00:37.8      61   -103     -6    121    122 149.3  -3.1  34208  290.40 0854.53
2009/04/23 13:00:37.9      52    -94    -32    108    113 151.1 -16.6  34210  290.41 0854.53
2009/04/23 13:00:38.0     101   -100    -42    143    150 134.9 -16.6  34210  290.43 0854.53
2009/04/23 13:00:38.1      84    -95    -12    127    128 138.6  -5.6  34208  290.40 0854.53
2009/04/23 13:00:38.2     106    -59      6    122    123 119.3   2.9  34210  290.43 0854.53
2009/04/23 13:00:38.3      87    -16     13     89     90 101.0   8.5  34212  290.45 0854.53
2009/04/23 13:00:38.4      52    -26     34     59     68 116.2  32.4  34216  290.52 0854.54
2009/04/23 13:00:38.5      33    -35     32     49     58 136.8  35.6  34218  290.55 0854.54
2009/04/23 13:00:38.6      39    -51     31     65     72 142.2  27.2  34220  290.58 0854.54
2009/04/23 13:00:38.7      42    -41     -4     59     60 134.1  -4.1  34216  290.52 0854.54
2009/04/23 13:00:38.8      54    -58    -43     80     90 136.8 -34.7  34212  290.45 0854.54
2009/04/23 13:00:38.9      55    -60    -55     82     98 137.2 -41.4  34212  290.45 0854.54
2009/04/23 13:00:39.0      56    -90    -54    107    119 147.9 -33.6  34212  290.45 0854.54
2009/04/23 13:00:39.1      70   -111     -5    132    133 147.5  -2.2  34212  290.45 0854.54
2009/04/23 13:00:39.2      87   -105     16    137    138 140.4   6.9  34212  290.47 0854.54
2009/04/23 13:00:39.3      69    -96     50    119    129 144.0  24.1  34210  290.41 0854.54
2009/04/23 13:00:39.4     103   -113    123    154    197 137.7  42.7  34214  290.50 0854.54
2009/04/23 13:00:39.5       4   -103    104    104    147 177.3  50.1  34214  290.50 0854.54
2009/04/23 13:00:39.6     -95   -107    130    144    194 221.4  47.1  34222  290.62 0854.54
2009/04/23 13:00:39.7    -114   -189     43    222    227 211.2  11.0  34214  290.50 0854.54
2009/04/23 13:00:39.8    -113   -111    -31    159    163 225.6 -11.1  34222  290.62 0854.54
2009/04/23 13:00:39.9     -86   -104    -39    136    142 219.7 -16.0  34210  290.43 0854.54
2009/04/23 13:00:40.0     -55    -74    -39     93    100 216.5 -28.5  34212  290.47 0854.54
2009/04/23 13:00:40.1     -38    -59    -70     71     99 212.5 -54.4  34218  290.57 0854.54
2009/04/23 13:00:40.2      13   -101   -119    102    156 172.4 -59.4  34220  290.58 0854.54
2009/04/23 13:00:40.3      35    -81    -98     89    132 156.4 -57.1  34222  290.62 0854.54
2009/04/23 13:00:40.4      44    -43    -92     62    110 134.0 -67.6  34218  290.57 0854.55
2009/04/23 13:00:40.5      98    -36    -36    105    111 110.4 -23.3  34216  290.53 0854.55
2009/04/23 13:00:40.6     125    -21    -30    127    131  99.7 -13.4  34214  290.48 0854.55
2009/04/23 13:00:40.7     122    -57    -22    135    137 115.3  -9.4  34216  290.52 0854.55
2009/04/23 13:00:40.8      99    -70     13    122    123 125.5   6.5  34216  290.53 0854.55
2009/04/23 13:00:40.9     110    -67     25    130    133 121.5  11.0  34216  290.52 0854.55
2009/04/23 13:00:41.0     102      0     51    103    114  90.0  27.8  34216  290.52 0854.55
2009/04/23 13:00:41.1      97     -7     87     98    131  94.3  45.9  34214  290.50 0854.55
2009/04/23 13:00:41.2      81    -17     72     83    109 101.9  44.8  34220  290.58 0854.55
2009/04/23 13:00:41.3      53    -13     56     55     78 104.2  48.2  34216  290.53 0854.55
2009/04/23 13:00:41.4      48      0     61     49     78  90.0  56.4  34220  290.60 0854.55
2009/04/23 13:00:41.5      82    -10     58     83    101  97.5  38.6  34218  290.57 0854.55
2009/04/23 13:00:41.6      43    -31     62     54     82 126.0  54.3  34218  290.55 0854.55
2009/04/23 13:00:41.7     -36    -32     24     49     54 228.7  27.2  34224  290.65 0854.55
2009/04/23 13:00:41.8     -39     32    -14     51     53 309.5 -15.5  34220  290.60 0854.55
2009/04/23 13:00:41.9     -27     34      3     44     45 321.3   4.9  34218  290.57 0854.55
2009/04/23 13:00:42.0       9    -98     71     99    121 174.7  39.5  34216  290.52 0854.55
2009/04/23 13:00:42.1     -26    -98     62    102    119 195.1  34.0  34214  290.50 0854.55
2009/04/23 13:00:42.2      19    -70    115     73    136 164.9  64.7  34224  290.65 0854.55
2009/04/23 13:00:42.3       4    -84     69     85    109 176.9  43.7  34218  290.57 0854.55
2009/04/23 13:00:42.4       1    -66     28     67     72 179.1  23.1  34216  290.52 0854.56
2009/04/23 13:00:42.5      40    -49     59     64     87 140.4  47.9  34220  290.58 0854.56
2009/04/23 13:00:42.6       3    -78    106     79    132 177.3  59.4  34212  290.47 0854.56
2009/04/23 13:00:42.7     138     21     92    140    167  81.2  36.3  34220  290.58 0854.56
2009/04/23 13:00:42.8     169    -17     63    170    181  96.1  21.3  34208  290.38 0854.56
2009/04/23 13:00:42.9     159    -71     21    175    177 114.0   6.9  34212  290.47 0854.56
2009/04/23 13:00:43.0     119   -168     56    207    215 144.6  15.3  34206  290.36 0854.56
2009/04/23 13:00:43.1     173   -207     97    270    286 140.1  20.4  34206  290.34 0854.56
2009/04/23 13:00:43.2     178   -142    152    228    274 128.6  37.0  34204  290.32 0854.56
2009/04/23 13:00:43.3     150   -164    180    223    286 137.7  43.3  34208  290.37 0854.56
2009/04/23 13:00:43.4      79   -101    145    129    194 141.7  53.7  34216  290.52 0854.56
2009/04/23 13:00:43.5      16    -29     77     34     84 151.0  75.5  34216  290.52 0854.56
2009/04/23 13:00:43.6     117     -2    110    118    161  91.3  47.9  34210  290.43 0854.56
2009/04/23 13:00:43.7     -16     69    120     71    139 346.6  66.8  34220  290.58 0854.56
2009/04/23 13:00:43.8    -171     12     55    172    181 274.1  17.9  34210  290.41 0854.56
2009/04/23 13:00:43.9     -85     13     42     87     96 278.8  27.3  34212  290.45 0854.56
2009/04/23 13:00:44.0      -1     70     80     71    106 359.1  53.3  34216  290.52 0854.56
2009/04/23 13:00:44.1      -7    -35     61     36     70 191.6  66.8  34218  290.57 0854.56
2009/04/23 13:00:44.2      -1    -90    106     91    139 180.9  55.4  34212  290.47 0854.56
2009/04/23 13:00:44.3       0    -49     87     50    100 180.9  67.7  34216  290.53 0854.56
2009/04/23 13:00:44.4      84     28    110     89    141  71.4  56.4  34220  290.60 0854.57
2009/04/23 13:00:44.5      92    -15    117     94    150  99.7  56.4  34216  290.53 0854.57
2009/04/23 13:00:44.6      83    -57     83    101    130 124.6  43.7  34218  290.55 0854.57
2009/04/23 13:00:44.7      41    -83     53     93    107 153.3  32.4  34214  290.50 0854.57
2009/04/23 13:00:44.8       0   -108     89    109    140 180.0  43.7  34208  290.40 0854.57
2009/04/23 13:00:44.9      52   -134    105    145    179 158.6  39.7  34212  290.45 0854.57
2009/04/23 13:00:45.0      28    -68    103     74    126 157.3  60.6  34216  290.53 0854.57
2009/04/23 13:00:45.1      -5    -70     91     71    115 184.5  57.9  34222  290.64 0854.57
2009/04/23 13:00:45.2       0    -44     72     45     84 180.9  64.7  34224  290.67 0854.57
2009/04/23 13:00:45.3     -17    -82    112     84    140 192.0  59.4  34226  290.69 0854.57
2009/04/23 13:00:45.4      39     40     27     56     62  44.2  27.2  34228  290.74 0854.57
2009/04/23 13:00:45.5      30     75     27     81     86  21.8  18.4  34234  290.82 0854.57
2009/04/23 13:00:45.6     -26     87      3     91     92 343.1   2.3  34228  290.72 0854.57
2009/04/23 13:00:45.7     -48    108      1    119    120 335.9   0.8  34228  290.72 0854.57
2009/04/23 13:00:45.8     -40     64      3     76     77 327.5   2.9  34226  290.69 0854.57
2009/04/23 13:00:45.9     -69     89     35    113    119 322.2  17.4  34228  290.74 0854.57
2009/04/23 13:00:46.0     -75    120     -3    142    143 327.9  -1.3  34236  290.87 0854.57
2009/04/23 13:00:46.1     -34     62     14     72     74 331.0  11.1  34232  290.79 0854.57
2009/04/23 13:00:46.2      13     14     60     20     63  41.4  81.0  34228  290.72 0854.57
2009/04/23 13:00:46.3      15    -31     79     35     86 152.8  75.0  34230  290.77 0854.57
2009/04/23 13:00:46.4     -21    -15     68     27     73 234.0  77.1  34232  290.81 0854.58
2009/04/23 13:00:46.5      59     35     82     69    107  59.3  55.8  34240  290.92 0854.58
2009/04/23 13:00:46.6      68     78     53    104    116  41.0  28.7  34240  290.92 0854.58
2009/04/23 13:00:46.7      69     77     23    104    107  41.9  12.6  34234  290.84 0854.58
2009/04/23 13:00:46.8      59     38     16     71     73  57.5  13.2  34236  290.86 0854.58
2009/04/23 13:00:46.9      27     44      8     52     53  31.6   9.0  34238  290.91 0854.58
2009/04/23 13:00:47.0      34     11     46     36     58  71.4  56.4  34234  290.82 0854.58
2009/04/23 13:00:47.1      70     14     49     72     87  78.5  37.0  34226  290.69 0854.58
2009/04/23 13:00:47.2      66     42     -3     79     80  57.6  -2.2  34234  290.84 0854.58
2009/04/23 13:00:47.3      75     43    -15     87     89  60.2 -10.3  34228  290.74 0854.58
2009/04/23 13:00:47.4      64     35     -4     74     75  61.1  -3.2  34220  290.58 0854.58
2009/04/23 13:00:47.5      79     35     31     87     92  66.0  20.0  34230  290.75 0854.58
2009/04/23 13:00:47.6      90     54     48    106    116  58.9  26.6  34238  290.91 0854.58
2009/04/23 13:00:47.7     117     47     40    127    134  68.2  17.4  34240  290.92 0854.58
2009/04/23 13:00:47.8      90     29     27     95     99  71.8  16.3  34246  291.03 0854.58
2009/04/23 13:00:47.9      55     40     23     69     73  54.1  18.9  34248  291.06 0854.58
2009/04/23 13:00:48.0      73     38      1     83     84  62.0   1.2  34248  291.08 0854.58
2009/04/23 13:00:48.1      35     47     27     59     64  37.0  27.1  34260  291.28 0854.58
2009/04/23 13:00:48.2      16     63     14     66     68  14.3  12.2  34264  291.33 0854.58
2009/04/23 13:00:48.3      29     52    -12     60     62  29.9 -11.5  34312  292.17 0854.58
2009/04/23 13:00:48.4      29     60    -18     67     70  26.3 -15.4  34316  292.22 0854.58
2009/04/23 13:00:48.5      25     59      3     65     66  22.7   2.8  34290  291.77 0854.58
2009/04/23 13:00:48.6      14     56     -2     58     59  14.3  -2.2  34284  291.67 0854.58
2009/04/23 13:00:48.7      17     51      0     54     55  18.7  -0.3  34282  291.64 0854.58
2009/04/23 13:00:48.8      22     42      3     48     49  28.1   3.8  34298  291.91 0854.58
2009/04/23 13:00:48.9      18     42     -8     46     47  23.6 -10.3  34304  292.03 0854.58
2009/04/23 13:00:49.0      27     31     26     42     49  40.5  35.5  34300  291.95 0854.58
2009/04/23 13:00:49.1       4     58     45     59     74   4.4  41.7  34280  291.60 0854.58
2009/04/23 13:00:49.2      -2     48     58     49     75 357.3  56.3  34280  291.62 0854.58
2009/04/23 13:00:49.3      -6    -18     81     20     83 200.0  86.4  34280  291.60 0854.58
2009/04/23 13:00:49.4     -27      0     66     28     71 270.0  76.1  34260  291.28 0854.58
2009/04/23 13:00:49.5     -35     35     60     50     78 315.0  55.4  34254  291.16 0854.58
2009/04/23 13:00:49.6     -21     43     40     48     62 333.7  43.8  34248  291.06 0854.58
2009/04/23 13:00:49.7     -38     53     22     66     70 324.0  18.9  34244  290.99 0854.58
2009/04/23 13:00:49.8     -46     30     -2     56     57 303.3  -2.2  34250  291.09 0854.58
2009/04/23 13:00:49.9     -61     -2     -8     62     63 267.4  -7.3  34256  291.21 0854.58
2009/04/23 13:00:50.0     -31    -24      0     40     41 232.2  -0.3  34272  291.47 0854.58
2009/04/23 13:00:50.1     -20     21    -16     30     34 316.8 -33.7  34266  291.37 0854.58
2009/04/23 13:00:50.2     -40     17    -37     44     57 293.5 -48.2  34256  291.21 0854.58
2009/04/23 13:00:50.3     -45     30    -58     55     79 304.2 -55.6  34252  291.15 0854.58
2009/04/23 13:00:50.4     -18     34    -53     39     65 331.0 -64.9  34240  290.92 0854.56
2009/04/23 13:00:50.5      56     30     -2     64     65  61.1  -2.2  34236  290.86 0854.56
2009/04/23 13:00:50.6       0     98    -30     99    103 359.6 -21.7  34244  291.01 0854.56
2009/04/23 13:00:50.7     -29     88    -25     93     96 341.7 -20.2  34246  291.04 0854.56
2009/04/23 13:00:50.8     -13     89    -40     90     98 351.5 -30.1  34250  291.09 0854.56
2009/04/23 13:00:50.9     -59     38    -52     71     88 302.4 -44.1  34246  291.04 0854.56
2009/04/23 13:00:51.0     -58     18    -42     61     74 287.7 -40.9  34240  290.92 0854.56
2009/04/23 13:00:51.1     -67    -13    -19     69     72 258.6 -15.4  34250  291.09 0854.56
2009/04/23 13:00:51.2     -69    -26     35     74     81 249.2  26.6  34252  291.13 0854.56
2009/04/23 13:00:51.3     -37    -63     59     74     94 210.7  42.7  34248  291.08 0854.56
2009/04/23 13:00:51.5     -46    -34     42     58     71 234.0  39.7  34252  291.15 0854.56
2009/04/23 13:00:51.6       8     26     65     28     70  18.3  75.0  34252  291.15 0854.56
2009/04/23 13:00:51.7      45    -35     60     58     83 127.8  50.1  34254  291.16 0854.56
2009/04/23 13:00:51.8       8    -30     35     32     47 164.9  52.2  34256  291.21 0854.56
2009/04/23 13:00:51.9     -29    -34     18     46     49 220.5  22.0  34248  291.08 0854.56
2009/04/23 13:00:52.0      16    -47     35     50     61 161.3  38.6  34242  290.98 0854.56
2009/04/23 13:00:52.1     -42    -76    115     88    144 209.0  59.0  34264  291.33 0854.56
2009/04/23 13:00:52.2      -2   -132     64    133    147 181.0  27.3  34276  291.55 0854.56
2009/04/23 13:00:52.3     -12   -127     54    128    138 185.8  24.1  34288  291.74 0854.56
2009/04/23 13:00:52.4     -24    -64     86     69    110 200.9  56.4  34292  291.83 0854.56
2009/04/23 13:00:52.5     -32    -39     93     51    106 219.6  68.8  34282  291.66 0854.56
2009/04/23 13:00:52.6     -32    -57    131     66    146 209.9  71.9  34284  291.67 0854.56
2009/04/23 13:00:52.7     -77   -120     77    143    162 212.6  30.8  34312  292.17 0854.56
2009/04/23 13:00:52.8     -64   -117     54    134    144 208.9  23.0  34312  292.17 0854.56
2009/04/23 13:00:52.9     -53   -116     68    128    144 204.9  30.8  34314  292.20 0854.56
2009/04/23 13:00:53.0      38    -56     75     68    101 145.7  52.7  34260  291.28 0854.56
2009/04/23 13:00:53.1      11    -73     88     74    114 171.1  56.3  34260  291.26 0854.56
2009/04/23 13:00:53.2      68    -58     62     90    109 130.9  38.0  34264  291.33 0854.56
2009/04/23 13:00:53.3      90      4     47     91    102  87.4  29.3  34288  291.74 0854.56
2009/04/23 13:00:53.4      45     37     23     59     63  50.4  22.0  34302  292.00 0854.56
2009/04/23 13:00:53.5      37     28     68     47     82  53.1  62.1  34300  291.96 0854.56
2009/04/23 13:00:53.6      48    -33    100     59    116 124.2  66.2  34312  292.17 0854.56
2009/04/23 13:00:53.7      50    -42     75     66     99 130.4  54.3  34314  292.18 0854.56
2009/04/23 13:00:53.8      90    -32     83     96    126 110.0  45.8  34320  292.29 0854.56
2009/04/23 13:00:53.9     128     -9     69    129    146  94.4  30.8  34308  292.08 0854.56
2009/04/23 13:00:54.0     176      0    104    177    205  90.0  33.4  34284  291.67 0854.56
2009/04/23 13:00:54.1     150    -40     97    156    183 105.1  35.2  34282  291.66 0854.56
2009/04/23 13:00:54.2     153    -31    133    157    205 101.5  44.5  34286  291.72 0854.56
2009/04/23 13:00:54.3      98    -32    128    104    164 108.2  56.9  34298  291.91 0854.56
2009/04/23 13:00:54.4      97    -25     70    101    122 104.6  38.0  34328  292.42 0854.54
2009/04/23 13:00:54.5     126    -31     81    130    153 104.2  35.5  34346  292.73 0854.54
2009/04/23 13:00:54.6     101    -10     81    102    130  95.7  42.7  34358  292.93 0854.54
2009/04/23 13:00:54.7      91     10     67     92    113  83.4  39.7  34358  292.93 0854.54
2009/04/23 13:00:54.8      35    -35     54     50     73 135.0  52.1  34360  292.98 0854.54
2009/04/23 13:00:54.9      39    -55     57     68     88 144.0  44.3  34342  292.66 0854.54
2009/04/23 13:00:55.0     -24    -71     -4     75     76 198.7  -3.2  34318  292.25 0854.54
2009/04/23 13:00:55.1     -68    -71     -5     99    100 224.1  -3.2  34286  291.71 0854.54
2009/04/23 13:00:55.2     -74    -51    -94     90    130 235.4 -55.6  34294  291.86 0854.54
2009/04/23 13:00:55.3     -40    -34    -80     53     95 229.6 -68.5  34300  291.96 0854.54
2009/04/23 13:00:55.4     -22    -38    -33     45     55 210.7 -44.1  34296  291.88 0854.54
2009/04/23 13:00:55.5     -82      7     59     83    101 275.2  39.5  34292  291.83 0854.54
2009/04/23 13:00:55.6     -95     17     64     97    116 280.6  35.6  34294  291.84 0854.54
2009/04/23 13:00:55.7     -81     26     70     86    110 288.2  43.7  34292  291.83 0854.54
2009/04/23 13:00:55.8      -8      6     62     11     62 309.5  90.0  34288  291.76 0854.54
2009/04/23 13:00:55.9       9     18     24     21     31  27.2  54.3  34296  291.89 0854.54
2009/04/23 13:00:56.0     -14     43     43     46     62 341.5  48.0  34294  291.86 0854.54
2009/04/23 13:00:56.1     -59     59     78     84    114 314.9  48.0  34288  291.76 0854.54
2009/04/23 13:00:56.2     -72     79     89    108    139 317.7  43.7  34284  291.67 0854.54
2009/04/23 13:00:56.3    -106     63     65    124    140 300.6  29.8  34284  291.67 0854.54
2009/04/23 13:00:56.4     -86     39     28     95    100 294.4  16.8  34284  291.67 0854.54
2009/04/23 13:00:56.5    -105     -3     47    106    115 268.3  25.7  34300  291.96 0854.54
2009/04/23 13:00:56.6    -183     72     17    197    198 291.7   5.2  34344  292.69 0854.54
2009/04/23 13:00:56.7    -155     26     24    158    160 279.7   8.8  34356  292.92 0854.54
2009/04/23 13:00:56.8    -129    -27     65    132    147 258.1  27.3  34358  292.93 0854.54
2009/04/23 13:00:56.9    -129    -56     90    141    167 246.4  35.5  34352  292.83 0854.54
2009/04/23 13:00:57.0    -117     50     24    128    131 293.1  10.6  34350  292.80 0854.54
2009/04/23 13:00:57.1    -124    -36     51    130    139 253.6  22.5  34326  292.40 0854.54
2009/04/23 13:00:57.2     -57    -69     -2     90     91 219.7  -1.3  34322  292.32 0854.54
2009/04/23 13:00:57.3     -22    -51     -2     56     57 203.6  -2.2  34322  292.32 0854.54
2009/04/23 13:00:57.4     -21    -63      6     67     68 198.7   5.9  34324  292.37 0854.55
2009/04/23 13:00:57.5     -10    -42      6     44     45 193.4   8.0  34328  292.44 0854.55
2009/04/23 13:00:57.6      14    -25     34     29     44 151.0  54.3  34334  292.52 0854.55
2009/04/23 13:00:57.7      38    -36     45     53     69 133.1  43.8  34310  292.12 0854.55
2009/04/23 13:00:57.8      48    -45     61     66     89 133.1  47.9  34292  291.83 0854.55
2009/04/23 13:00:57.9      67    -53     52     86    100 128.2  34.4  34296  291.89 0854.55
2009/04/23 13:00:58.0      26    -52    -16     59     62 153.7 -15.5  34310  292.12 0854.55
2009/04/23 13:00:58.1      48    -25     31     55     63 117.1  31.4  34312  292.17 0854.55
2009/04/23 13:00:58.2       7    -33     39     34     51 166.6  54.3  34312  292.15 0854.55
2009/04/23 13:00:58.3      -1    -24     26     25     36 184.5  48.2  34320  292.29 0854.55
2009/04/23 13:00:58.4     -22     -6      2     23     24 254.9   4.9  34316  292.22 0854.55
2009/04/23 13:00:58.5      -4     26     14     27     30 350.2  29.3  34314  292.20 0854.55
2009/04/23 13:00:58.6      30     44     22     54     58  34.3  22.0  34316  292.23 0854.55
2009/04/23 13:00:58.7      27     54     16     61     64  26.3  15.3  34314  292.20 0854.55
2009/04/23 13:00:58.8      63     34     21     72     76  61.2  16.3  34296  291.89 0854.55
2009/04/23 13:00:58.9      65     13     18     67     70  78.5  15.3  34286  291.72 0854.55
2009/04/23 13:00:59.0      55     12     25     57     62  77.6  25.1  34290  291.77 0854.55
2009/04/23 13:00:59.1      52      3     24     53     58  86.5  26.2  34308  292.08 0854.55
2009/04/23 13:00:59.2      35     13     35     38     51  70.0  47.9  34328  292.44 0854.55
2009/04/23 13:00:59.3      19     21     46     29     54  41.4  64.7  34350  292.81 0854.55
2009/04/23 13:00:59.4       9     35     49     37     61  15.1  59.4  34358  292.93 0854.55
2009/04/23 13:00:59.5      13     44     34     47     58  16.9  39.7  34348  292.76 0854.55
2009/04/23 13:00:59.6      36     23     36     43     56  57.6  43.8  34350  292.80 0854.55
2009/04/23 13:00:59.7      47    -16     59     50     77 109.1  56.3  34354  292.86 0854.55
2009/04/23 13:00:59.8      37     12     38     40     55  71.4  50.0  34350  292.80 0854.55
2009/04/23 13:00:59.9      15      0     59     16     61  90.0  84.9  34354  292.88 0854.55
2009/04/23 13:01:00.0     -30    -24     38     39     54 230.4  51.1  34362  293.00 0854.55
2009/04/23 13:01:00.1    -100      4     55    101    115 272.6  31.4  34352  292.83 0854.55
2009/04/23 13:01:00.2    -116    -66     68    134    150 240.2  29.2  34280  291.60 0854.55
2009/04/23 13:01:00.3    -113    -82     87    140    164 234.1  35.0  34244  290.99 0854.55
2009/04/23 13:01:00.4     -72    -19     48     75     89 255.0  35.5  34310  292.12 0854.55
2009/04/23 13:01:00.5     -59    -29     44     66     79 243.8  37.0  34300  291.96 0854.55
2009/04/23 13:01:00.6     -79    -14    -10     81     82 259.4  -7.7  34262  291.32 0854.55
2009/04/23 13:01:00.7    -133      0    -42    134    141 270.4 -17.5  34312  292.17 0854.55
2009/04/23 13:01:00.8     -91    -62     70    111    131 235.8  35.5  34274  291.52 0854.55
2009/04/23 13:01:00.9     -33    -40     77     52     92 219.6  63.2  34310  292.13 0854.55
2009/04/23 13:01:01.0     -40     25     46     48     66 302.5  50.0  34316  292.22 0854.55
2009/04/23 13:01:01.1    -100     57     -2    116    117 299.8  -1.3  34332  292.49 0854.55
2009/04/23 13:01:01.2    -123     41      8    130    131 288.4   3.8  34340  292.64 0854.55
2009/04/23 13:01:01.3    -127     38     10    133    134 286.9   4.4  34346  292.75 0854.55
2009/04/23 13:01:01.4    -116     -3     46    117    125 268.3  22.5  34354  292.88 0854.55
2009/04/23 13:01:01.5    -148    -48     29    156    159 251.8  10.8  34358  292.93 0854.55
2009/04/23 13:01:01.6    -181    -11     17    182    183 266.3   5.4  34360  292.97 0854.55
2009/04/23 13:01:01.7    -178      0     19    179    181 270.0   6.1  34352  292.83 0854.55
2009/04/23 13:01:01.8    -156    -16     51    157    166 263.8  17.9  34344  292.71 0854.55
2009/04/23 13:01:01.9    -193    -36     38    197    201 259.2  11.1  34346  292.73 0854.55
2009/04/23 13:01:02.0    -216     -9     -4    217    218 267.6  -1.3  34368  293.10 0854.55
2009/04/23 13:01:02.1    -142   -123     41    189    194 229.1  12.4  34270  291.45 0854.55
2009/04/23 13:01:02.2    -168    -12    -56    169    179 265.9 -18.3  34322  292.32 0854.55
2009/04/23 13:01:02.3    -132      0    -65    133    148 270.4 -31.7  34346  292.75 0854.55
2009/04/23 13:01:02.4    -124     17    -57    126    138 277.9 -30.1  34342  292.66 0854.55
2009/04/23 13:01:02.5     -94    -25    -36     98    104 254.9 -24.8  34362  293.00 0854.55
2009/04/23 13:01:02.6    -116    -20    -10    118    119 259.9  -5.2  34366  293.07 0854.55
2009/04/23 13:01:02.7    -155   -155     59    220    228 224.9  15.0  34270  291.43 0854.55
2009/04/23 13:01:02.8    -183   -100     47    209    215 241.2  12.9  34248  291.08 0854.55
2009/04/23 13:01:02.9    -150    -21     29    152    155 262.0  11.0  34290  291.77 0854.55
2009/04/23 13:01:03.0    -136    -80     -4    158    159 239.4  -1.8  34340  292.64 0854.55
2009/04/23 13:01:03.1    -141    -72     78    159    177 242.9  27.8  34274  291.52 0854.55
2009/04/23 13:01:03.2    -175    -30    102    178    205 260.3  32.7  34258  291.25 0854.55
2009/04/23 13:01:03.3    -124   -101     30    161    164 230.9  10.8  34278  291.59 0854.55
2009/04/23 13:01:03.4    -269    -77    -36    280    283 254.0  -7.3  34276  291.55 0854.55
2009/04/23 13:01:03.5    -317     -2    -25    318    320 269.6  -4.6  34310  292.11 0854.55
2009/04/23 13:01:03.6    -332     22    -17    333    334 273.9  -3.0  34358  292.94 0854.55
2009/04/23 13:01:03.7    -377    -44    123    380    400 263.3  18.0  34260  291.27 0854.55
2009/04/23 13:01:03.8    -262   -104    109    282    302 248.3  22.1  34268  291.41 0854.55
2009/04/23 13:01:03.9    -272   -112     46    295    299 247.6   8.9  34276  291.55 0854.55
2009/04/23 13:01:04.0    -277    -92     30    292    294 251.6   5.9  34250  291.10 0854.55
2009/04/23 13:01:04.1    -391     22    -49    392    396 273.3  -7.2  34244  291.01 0854.55
2009/04/23 13:01:04.2    -242     13     58    243    250 273.3  13.5  34252  291.12 0854.55
2009/04/23 13:01:04.3     -87     44    120     98    154 297.1  56.4  34312  292.17 0854.55
2009/04/23 13:01:04.4     -74    -34    180     82    197 244.8  74.0  34276  291.54 0854.55
2009/04/23 13:01:04.5     -68   -133     52    150    159 207.1  19.2  34288  291.74 0854.55
2009/04/23 13:01:04.6    -191   -223    -64    294    302 220.6 -12.4  34226  290.68 0854.55
2009/04/23 13:01:04.7    -429   -217   -181    481    513 243.2 -25.9  34232  290.81 0854.55
2009/04/23 13:01:04.8    -318   -202    -48    377    381 237.6  -7.3  34244  291.00 0854.55
2009/04/23 13:01:04.9    -188   -285    123    342    363 213.4  20.7  34238  290.89 0854.55
2009/04/23 13:01:05.0    -155   -236    156    283    323 213.4  31.3  34232  290.78 0854.55
2009/04/23 13:01:05.1    -224   -256    121    341    363 221.2  19.6  34228  290.72 0854.55
2009/04/23 13:01:05.2    -335   -182    -30    382    384 241.5  -4.6  34202  290.27 0854.55
2009/04/23 13:01:05.3    -400    -81   -105    409    423 258.6 -14.4  34226  290.68 0854.55
2009/04/23 13:01:05.4    -375    -21   -134    376    400 266.8 -19.6  34204  290.32 0854.55
2009/04/23 13:01:05.5    -365     -5    -94    366    379 269.2 -14.5  34194  290.16 0854.55
2009/04/23 13:01:05.6    -288     22    -36    289    292 274.4  -7.2  34226  290.68 0854.55
2009/04/23 13:01:05.7    -257     56    -47    264    269 282.4 -10.1  34198  290.22 0854.55
2009/04/23 13:01:05.8    -233     80    -77    247    259 289.0 -17.3  34196  290.17 0854.55
2009/04/23 13:01:05.9    -228     53    -48    235    240 283.2 -11.6  34196  290.17 0854.55
2009/04/23 13:01:06.0    -208     54    -29    215    217 284.6  -7.7  34196  290.18 0854.55
2009/04/23 13:01:06.1    -196     74    -76    210    223 290.8 -25.1  34194  290.16 0854.55
2009/04/23 13:01:06.2    -159    126    -36    203    207 308.4 -10.1  34196  290.19 0854.55
2009/04/23 13:01:06.3     -57      8    -56     58     80 278.8 -53.8  34200  290.26 0854.55
2009/04/23 13:01:06.4     -40     14    -98     43    107 289.1 -79.9  34206  290.35 0854.55
2009/04/23 13:01:06.5     -18     38    -14     43     45 334.6 -23.8  34206  290.35 0854.55
2009/04/23 13:01:06.6     -23     35    -23     43     48 326.6 -34.7  34208  290.38 0854.55
2009/04/23 13:01:06.7     -17     22    -51     29     58 322.2 -71.2  34212  290.45 0854.55
2009/04/23 13:01:06.8      48     19     -7     52     53  67.4  -8.2  34220  290.58 0854.55
2009/04/23 13:01:06.9      29     -3    -11     30     31  96.1 -23.3  34222  290.62 0854.55
2009/04/23 13:01:07.0      48    -25    -29     55     62 117.1 -34.7  34230  290.75 0854.55
2009/04/23 13:01:07.1      55    -50    -41     75     85 132.2 -35.8  34224  290.67 0854.55
2009/04/23 13:01:07.2      77    -72    -31    106    110 133.1 -21.2  34220  290.58 0854.55
2009/04/23 13:01:07.3     109    -88    -23    141    143 129.1  -9.3  34218  290.55 0854.55
2009/04/23 13:01:07.4     140    -81    -31    162    165 120.2 -10.9  34214  290.50 0854.58
2009/04/23 13:01:07.5     158   -123     -7    201    202 128.0  -2.2  34204  290.33 0854.58
2009/04/23 13:01:07.6     186   -114     43    219    224 121.5  11.1  34202  290.30 0854.58
2009/04/23 13:01:07.7     170   -135     78    218    231 128.4  20.4  34206  290.35 0854.58
2009/04/23 13:01:07.8     143   -133    103    196    221 133.1  29.8  34208  290.38 0854.58
2009/04/23 13:01:07.9     129   -120     90    177    198 133.1  29.2  34210  290.41 0854.58
2009/04/23 13:01:08.0      31    -94     90    100    134 161.7  46.9  34232  290.79 0854.58
2009/04/23 13:01:08.1      57    -21    114     61    129 110.8  69.8  34242  290.98 0854.58
2009/04/23 13:01:08.2      83     14    124     85    150  80.3  62.6  34232  290.81 0854.58
2009/04/23 13:01:08.3      65     37    156     75    173  60.2  72.8  34260  291.28 0854.58
2009/04/23 13:01:08.4      87     37    172     95    196  66.5  68.9  34254  291.16 0854.58
2009/04/23 13:01:08.5     110     36    145    116    185  71.8  56.9  34230  290.77 0854.58
2009/04/23 13:01:08.6     111     -8    100    112    150  94.3  46.4  34224  290.67 0854.58
2009/04/23 13:01:08.7      94     13     70     95    118  82.1  40.1  34228  290.72 0854.58
2009/04/23 13:01:08.8      94     44    114    104    154  64.7  52.2  34232  290.81 0854.58
2009/04/23 13:01:08.9      30      0    112     31    116  90.0  84.8  34250  291.09 0854.58
2009/04/23 13:01:09.0     -22   -108     94    111    145 191.6  44.3  34252  291.13 0854.58
2009/04/23 13:01:09.1      43   -107     52    116    127 158.1  25.7  34232  290.81 0854.58
2009/04/23 13:01:09.2     -20   -146     89    148    172 188.0  34.2  34230  290.75 0854.58
2009/04/23 13:01:09.3     -21   -154     47    156    163 188.0  16.8  34232  290.81 0854.58
2009/04/23 13:01:09.4     -71   -199     72    212    225 199.8  18.9  34236  290.86 0854.59
2009/04/23 13:01:09.5     -39   -242     93    246    262 189.3  21.7  34234  290.82 0854.59
2009/04/23 13:01:09.6     -64   -316    136    323    350 191.5  24.1  34204  290.32 0854.59
2009/04/23 13:01:09.7     -90   -282    164    297    339 197.8  31.4  34210  290.41 0854.59
2009/04/23 13:01:09.8     -55   -324    252    329    414 189.8  41.3  34208  290.38 0854.59
2009/04/23 13:01:09.9      29   -248    193    250    315 173.3  41.5  34216  290.53 0854.59
2009/04/23 13:01:10.0      60   -393    154    398    426 171.2  22.3  34216  290.53 0854.59
2009/04/23 13:01:10.1      44   -574    268    576    635 175.6  26.9  34214  290.48 0854.59
2009/04/23 13:01:10.2     136   -482    243    501    556 164.2  27.8  34214  290.50 0854.59
2009/04/23 13:01:10.3     285   -323     45    432    435 138.6   6.0  34218  290.55 0854.59
2009/04/23 13:01:10.4     144   -455     91    478    487 162.4  10.8  34214  290.49 0854.59
2009/04/23 13:01:10.5     -13   -442     40    443    445 181.8   5.2  34214  290.48 0854.59
2009/04/23 13:01:10.6     -60   -435    152    440    466 187.9  19.1  34220  290.58 0854.59
2009/04/23 13:01:10.7     -92   -418    167    429    460 192.5  22.7  34216  290.53 0854.59
2009/04/23 13:01:10.8    -227   -480     45    532    535 205.3   4.9  34208  290.40 0854.59
2009/04/23 13:01:10.9     -65   -450     98    455    466 188.3  12.2  34216  290.53 0854.59
2009/04/23 13:01:11.0      63   -504     39    509    511 172.8   4.5  34216  290.51 0854.59
2009/04/23 13:01:11.1      70   -417    -19    423    424 170.4  -2.7  34218  290.56 0854.59
2009/04/23 13:01:11.2     124   -324    -23    348    349 159.0  -3.8  34210  290.43 0854.59
2009/04/23 13:01:11.3     214   -339    196    402    447 147.7  27.9  34200  290.26 0854.59
2009/04/23 13:01:11.4      36   -431    232    433    491 175.1  30.5  34206  290.35 0854.59
2009/04/23 13:01:11.5     174   -447    167    480    509 158.7  19.2  34208  290.39 0854.59
2009/04/23 13:01:11.6     240   -458     91    518    527 152.4  10.0  34206  290.36 0854.59
2009/04/23 13:01:11.7     221   -325     11    394    395 145.8   1.6  34214  290.49 0854.59
2009/04/23 13:01:11.8     274   -304     38    410    412 137.9   5.4  34214  290.50 0854.59
2009/04/23 13:01:11.9     248   -434    209    501    542 150.2  23.9  34208  290.40 0854.59
2009/04/23 13:01:12.0      42   -556    319    558    642 175.6  32.3  34200  290.25 0854.59
2009/04/23 13:01:12.1       6   -452    343    453    568 179.2  40.9  34206  290.35 0854.59
2009/04/23 13:01:12.2     348   -278     86    446    455 128.6  11.0  34198  290.21 0854.59
2009/04/23 13:01:12.3     193   -317    -69    372    379 148.7 -10.5  34214  290.49 0854.59
2009/04/23 13:01:12.4     208   -321    -91    383    394 147.0 -13.4  34212  290.45 0854.59
2009/04/23 13:01:12.5     146   -317   -140    350    376 155.3 -27.4  34210  290.42 0854.59
2009/04/23 13:01:12.6     152   -186   -148    241    282 140.8 -38.9  34206  290.34 0854.59
2009/04/23 13:01:12.7    -134   -282     -9    313    314 205.5  -1.8  34204  290.31 0854.59
2009/04/23 13:01:12.8    -135   -455    192    475    512 196.5  23.1  34206  290.34 0854.59
2009/04/23 13:01:12.9    -260   -300    105    398    412 220.9  14.9  34210  290.41 0854.59
2009/04/23 13:01:13.0    -237   -149    -66    281    289 237.8 -13.3  34206  290.34 0854.59
2009/04/23 13:01:13.1    -202   -123    -67    237    247 238.7 -15.8  34192  290.10 0854.59
2009/04/23 13:01:13.2    -127    -69    190    145    239 241.2  59.0  34192  290.13 0854.59
2009/04/23 13:01:13.3     -82    -18    134     85    158 257.2  64.7  34190  290.09 0854.59
2009/04/23 13:01:13.4      -5     51    145     52    154 353.8  80.2  34206  290.36 0854.58
2009/04/23 13:01:13.5      49    104    130    116    174  25.5  53.7  34198  290.23 0854.58
2009/04/23 13:01:13.6     -15    196    155    197    250 355.6  42.4  34202  290.27 0854.58
2009/04/23 13:01:13.7     -73    104    180    128    220 324.8  60.8  34200  290.25 0854.58
2009/04/23 13:01:13.8     -77    105    189    131    229 323.5  62.1  34204  290.33 0854.58
2009/04/23 13:01:13.9      25   -260    224    262    344 174.4  44.8  34188  290.05 0854.58
2009/04/23 13:01:14.0      72   -193    148    207    254 159.5  39.1  34188  290.05 0854.58
2009/04/23 13:01:14.1     325   -280    160    430    458 130.8  21.3  34188  290.05 0854.58
2009/04/23 13:01:14.2     263   -497    160    563    586 152.1  15.9  34186  290.02 0854.58
2009/04/23 13:01:14.3     312   -558    332    640    720 150.8  29.6  34174  289.80 0854.58
2009/04/23 13:01:14.4     194   -283    206    344    400 145.5  33.8  34186  290.01 0854.58
2009/04/23 13:01:14.5     169   -442    175    474    505 159.1  21.1  34180  289.91 0854.58
2009/04/23 13:01:14.6      30   -538    258    539    597 176.8  27.3  34180  289.91 0854.58
2009/04/23 13:01:14.7     249   -472     11    534    535 152.1   1.2  34172  289.77 0854.58
2009/04/23 13:01:14.8     295   -168    207    340    398 119.7  34.3  34182  289.94 0854.58
2009/04/23 13:01:14.9     361   -295    205    467    510 129.3  25.2  34192  290.10 0854.58
2009/04/23 13:01:15.0     241   -316    342    398    524 142.7  45.1  34174  289.81 0854.58
2009/04/23 13:01:15.1     366   -136    237    391    457 110.4  34.2  34180  289.92 0854.58
2009/04/23 13:01:15.2      91   -151    234    177    293 149.0  59.2  34186  290.02 0854.58
2009/04/23 13:01:15.3      48   -417     -8    420    421 173.3  -1.2  34186  290.02 0854.58
2009/04/23 13:01:15.4    -298   -538     25    616    617 209.0   2.4  34180  289.92 0854.58
2009/04/23 13:01:15.5    -176   -440    115    475    489 201.8  13.7  34192  290.12 0854.58
2009/04/23 13:01:15.6    -297   -488     17    572    573 211.3   1.8  34192  290.10 0854.58
2009/04/23 13:01:15.7    -480   -480   -176    680    703 225.0 -14.5  34184  289.97 0854.58
2009/04/23 13:01:15.8    -377   -377    -34    534    536 225.0  -3.7  34194  290.14 0854.58
2009/04/23 13:01:15.9    -122   -466    139    482    502 194.7  16.1  34188  290.05 0854.58
2009/04/23 13:01:16.0    -150   -398     59    426    431 200.7   8.0  34188  290.05 0854.58
2009/04/23 13:01:16.1    -113   -387    -66    404    410 196.3  -9.3  34194  290.14 0854.58
2009/04/23 13:01:16.2     -68   -221   -186    232    297 197.2 -47.2  34206  290.36 0854.58
2009/04/23 13:01:16.3       1   -107   -202    108    229 179.1 -74.0  34188  290.06 0854.58
2009/04/23 13:01:16.4    -264     44    112    268    290 279.6  24.1  34196  290.17 0854.58
2009/04/23 13:01:16.5    -540     30   -112    541    553 273.3 -11.8  34206  290.36 0854.58
2009/04/23 13:01:16.6    -306     43   -153    310    345 278.0 -32.4  34218  290.54 0854.58
2009/04/23 13:01:16.7    -303    183    -98    355    369 301.1 -15.5  34202  290.30 0854.58
2009/04/23 13:01:16.8    -295    162    -57    337    342 298.8  -9.6  34210  290.43 0854.58
2009/04/23 13:01:16.9    -391    112      5    407    408 286.0   0.8  34214  290.50 0854.58
2009/04/23 13:01:17.0    -300    137   -114    330    350 294.6 -19.1  34208  290.37 0854.58
2009/04/23 13:01:17.1    -516    183    190    548    581 289.5  19.2  34202  290.27 0854.58
2009/04/23 13:01:17.2    -301    320     23    440    441 316.8   3.0  34206  290.34 0854.58
2009/04/23 13:01:17.3     -91    398     13    409    410 347.1   1.9  34202  290.29 0854.59
2009/04/23 13:01:17.4    -101    254    -81    274    286 338.2 -16.6  34212  290.46 0854.59
2009/04/23 13:01:17.5      12    228     79    229    243   3.1  19.2  34200  290.26 0854.59
2009/04/23 13:01:17.6     179     13     -5    180    181  85.7  -1.6  34194  290.14 0854.59
2009/04/23 13:01:17.7     376    -54    104    380    395  98.3  15.4  34188  290.03 0854.59
2009/04/23 13:01:17.8     443   -141    130    465    484 107.7  15.7  34186  290.00 0854.59
2009/04/23 13:01:17.9     170    -49    117    178    213 106.2  36.0  34182  289.94 0854.59
2009/04/23 13:01:18.0      23   -335    -46    336    340 176.0  -7.9  34182  289.94 0854.59
2009/04/23 13:01:18.2     -37   -200    -90    204    222 190.7 -29.6  34174  289.82 0854.59
2009/04/23 13:01:18.2    -162   -145    -37    218    222 228.2  -9.8  34186  290.01 0854.59
2009/04/23 13:01:18.3     -41   -122   -133    129    185 198.7 -55.1  34190  290.08 0854.59
2009/04/23 13:01:18.5      40    -10    -51     42     66 105.1 -60.8  34190  290.09 0854.59
2009/04/23 13:01:18.5     225    278     63    358    364  39.0  10.0  34176  289.84 0854.59
2009/04/23 13:01:18.7     346    325     54    475    479  46.8   6.6  34166  289.67 0854.59
2009/04/23 13:01:18.8     508    325     -9    604    605  57.4  -0.9  34192  290.12 0854.59
2009/04/23 13:01:18.9     457    196    -19    498    499  66.8  -2.3  34198  290.22 0854.59
2009/04/23 13:01:19.0     405    198     87    452    461  63.9  11.0  34188  290.05 0854.59
2009/04/23 13:01:19.1     359     82    188    369    414  77.1  29.2  34188  290.04 0854.59
2009/04/23 13:01:19.2     207    -45    187    212    282 102.4  45.9  34192  290.12 0854.59
2009/04/23 13:01:19.3      61   -111    164    127    207 151.0  58.5  34198  290.21 0854.59
2009/04/23 13:01:19.4     131   -104    135    168    215 128.6  43.3  34194  290.16 0854.59
2009/04/23 13:01:19.5       7   -188     82    189    206 177.8  25.1  34192  290.13 0854.59
2009/04/23 13:01:19.6     -28   -301    -38    303    306 185.3  -7.2  34186  290.00 0854.59
2009/04/23 13:01:19.7     -59   -269     53    276    282 192.5  11.0  34190  290.09 0854.59
2009/04/23 13:01:19.8    -112   -364     73    382    389 197.2  10.8  34188  290.03 0854.59
2009/04/23 13:01:19.9    -126   -362     58    384    389 199.3   8.7  34188  290.03 0854.59
2009/04/23 13:01:20.0    -151   -337     11    370    371 204.1   1.7  34182  289.96 0854.59
2009/04/23 13:01:20.1    -126   -226     -5    260    261 209.2  -1.3  34186  290.00 0854.59
2009/04/23 13:01:20.2    -122   -219     16    252    253 209.2   3.8  34188  290.05 0854.59
2009/04/23 13:01:20.3    -185   -112     64    217    227 238.7  16.6  34194  290.14 0854.59
2009/04/23 13:01:20.4    -125   -125    122    178    215 225.0  37.8  34194  290.16 0854.60
2009/04/23 13:01:20.5    -149   -106    163    183    245 234.5  46.2  34202  290.30 0854.60
2009/04/23 13:01:20.6    -170   -114    138    205    247 236.0  37.0  34200  290.24 0854.60
2009/04/23 13:01:20.7    -155    -54    125    165    207 250.7  41.2  34198  290.23 0854.60
2009/04/23 13:01:20.8    -249   -104    148    270    307 247.3  31.3  34196  290.19 0854.60
2009/04/23 13:01:20.9    -124   -104     87    162    183 230.0  30.8  34198  290.21 0854.60
2009/04/23 13:01:21.0     -61    -44     38     76     84 234.0  28.7  34204  290.33 0854.60
2009/04/23 13:01:21.1      94    -21     16     97     99 102.8   9.5  34202  290.30 0854.60
2009/04/23 13:01:21.2     227     24    102    229    250  83.8  25.7  34196  290.19 0854.60
2009/04/23 13:01:21.3     158   -120    128    199    236 127.3  35.7  34202  290.30 0854.60
2009/04/23 13:01:21.4      32    -95      6    101    102 161.3   3.8  34200  290.25 0854.60
2009/04/23 13:01:21.5     -30    -48      2     57     58 212.5   2.8  34196  290.19 0854.60
2009/04/23 13:01:21.6      10    -16    -41     19     45 147.5 -77.3  34200  290.26 0854.60
2009/04/23 13:01:21.7     -59     48     39     77     86 309.5  29.3  34204  290.33 0854.60
2009/04/23 13:01:21.8     -60     -3    140     61    152 266.5  75.0  34220  290.58 0854.60
2009/04/23 13:01:21.9    -105     87    115    137    178 309.5  44.3  34202  290.30 0854.60
2009/04/23 13:01:22.0      28     40    127     50    136  35.2  77.6  34208  290.40 0854.60
2009/04/23 13:01:22.1     -54    -13    123     56    135 255.8  74.0  34210  290.43 0854.60
2009/04/23 13:01:22.2      16     50    126     53    136  18.7  76.1  34212  290.45 0854.60
2009/04/23 13:01:22.3     -49     18    152     53    160 290.8  80.5  34220  290.60 0854.60
2009/04/23 13:01:22.4      68     56    182     89    202  50.5  72.4  34210  290.41 0854.58
2009/04/23 13:01:22.5     195    110    143    225    266  60.5  35.5  34204  290.32 0854.58
2009/04/23 13:01:22.6     211    185    132    281    310  48.7  27.1  34206  290.36 0854.58
2009/04/23 13:01:22.7     176    250     59    306    312  35.2  11.0  34208  290.39 0854.58
2009/04/23 13:01:22.8     177    264    -67    318    326  33.9 -12.0  34218  290.56 0854.58
2009/04/23 13:01:22.9      66    177     49    189    196  20.5  14.7  34222  290.62 0854.58
2009/04/23 13:01:23.0     152    242     56    286    292  32.1  11.1  34232  290.78 0854.58
2009/04/23 13:01:23.1     129    241      7    274    275  28.1   1.6  34232  290.78 0854.58
2009/04/23 13:01:23.2      66    241     93    250    266  15.4  21.3  34218  290.54 0854.58
2009/04/23 13:01:23.3      58    256     71    263    273  12.9  15.2  34228  290.73 0854.58
2009/04/23 13:01:23.4     -51    202     -4    209    210 345.7  -1.2  34232  290.79 0854.58
2009/04/23 13:01:23.5     -80    237    -50    251    256 341.3 -11.3  34220  290.58 0854.58
2009/04/23 13:01:23.6    -118    250   -123    277    303 334.6 -30.1  34222  290.63 0854.58
2009/04/23 13:01:23.7      -7    172   -126    173    214 357.5 -44.1  34210  290.43 0854.58
2009/04/23 13:01:23.8     -54    201    -75    209    223 344.8 -19.7  34208  290.40 0854.58
2009/04/23 13:01:23.9     -36    -10    130     38    135 253.2  82.8  34226  290.69 0854.58
2009/04/23 13:01:24.0     -26     -8     62     28     68 251.4  74.0  34226  290.69 0854.58
2009/04/23 13:01:24.1     122     45     49    131    139  69.6  21.0  34218  290.57 0854.58
2009/04/23 13:01:24.2      84     69     54    110    122  50.5  27.8  34218  290.55 0854.58
2009/04/23 13:01:24.3     -20    -38    116     44    124 208.1  79.1  34232  290.79 0854.58
2009/04/23 13:01:24.4     -23    -43    152     49    159 208.1  81.6  34226  290.70 0854.58
2009/04/23 13:01:24.5       4      9    138     11    138  25.4  90.0  34226  290.69 0854.58
2009/04/23 13:01:24.6      42     15    137     45    144  70.0  80.7  34216  290.53 0854.58
2009/04/23 13:01:24.7     -96   -136     54    167    176 215.2  17.9  34208  290.40 0854.58
2009/04/23 13:01:24.8     -90   -176      8    198    199 207.2   2.3  34200  290.26 0854.58
2009/04/23 13:01:24.9     -90   -245     78    262    274 200.3  16.6  34200  290.24 0854.58
2009/04/23 13:01:25.0    -177   -250     52    307    312 215.4   9.7  34198  290.22 0854.58
2009/04/23 13:01:25.1    -213   -295     15    364    365 215.8   2.5  34196  290.18 0854.58
2009/04/23 13:01:25.2    -167   -353    -36    391    393 205.4  -5.4  34192  290.11 0854.58
2009/04/23 13:01:25.3    -208   -317    -39    380    382 213.3  -5.9  34194  290.15 0854.58
2009/04/23 13:01:25.4    -136   -356      4    382    383 200.9   0.7  34196  290.18 0854.58
2009/04/23 13:01:25.5    -159   -328     -3    365    366 206.0  -0.5  34192  290.13 0854.58
2009/04/23 13:01:25.6    -259   -411    -61    486    490 212.2  -7.2  34188  290.06 0854.58
2009/04/23 13:01:25.7    -163   -359   -139    395    419 204.5 -19.4  34186  290.00 0854.58
2009/04/23 13:01:25.8     -95   -361    -75    374    382 194.8 -11.3  34198  290.20 0854.58
2009/04/23 13:01:25.9     -23   -231    -82    233    247 185.8 -24.4  34194  290.14 0854.58
2009/04/23 13:01:26.0     -77   -253      3    265    266 197.0   0.8  34196  290.17 0854.58
2009/04/23 13:01:26.1    -170   -267      3    317    318 212.6   0.7  34194  290.15 0854.58
2009/04/23 13:01:26.2    -204   -220    -67    301    309 222.8 -12.6  34196  290.17 0854.58
2009/04/23 13:01:26.3     -84   -263    -21    277    278 197.8  -4.4  34196  290.17 0854.58
2009/04/23 13:01:26.4    -114   -266    -26    290    292 203.2  -5.2  34198  290.20 0854.58
2009/04/23 13:01:26.5    -239   -224   -189    328    378 226.9 -37.0  34204  290.33 0854.58
2009/04/23 13:01:26.6      20   -288    -60    289    296 176.0 -11.9  34194  290.15 0854.58
2009/04/23 13:01:26.7     -73   -287    -44    297    301 194.3  -8.6  34198  290.20 0854.58
2009/04/23 13:01:26.8     -70   -302    -91    311    325 193.1 -16.4  34194  290.14 0854.58
2009/04/23 13:01:26.9       3   -213    -11    214    215 179.1  -3.1  34196  290.18 0854.58
2009/04/23 13:01:27.0     -74   -145    -50    164    172 207.2 -17.0  34198  290.23 0854.58
2009/04/23 13:01:27.1    -109   -126   -117    167    203 220.8 -42.8  34204  290.31 0854.58
2009/04/23 13:01:27.2    -134   -295   -140    325    353 204.5 -29.3  34202  290.27 0854.58
2009/04/23 13:01:27.3    -160   -279   -161    322    360 209.9 -33.0  34198  290.23 0854.58
2009/04/23 13:01:27.4     -32   -328   -134    330    356 185.6 -27.8  34202  290.30 0854.58
2009/04/23 13:01:27.5     -85   -266   -139    280    312 197.8 -32.8  34198  290.20 0854.58
2009/04/23 13:01:27.6     -53   -266   -170    272    320 191.3 -39.5  34200  290.26 0854.58
2009/04/23 13:01:27.7     -23   -216   -136    218    256 186.2 -39.6  34204  290.32 0854.58
2009/04/23 13:01:27.8      16   -206   -165    207    264 175.3 -47.2  34206  290.34 0854.58
2009/04/23 13:01:27.9      28   -204   -193    207    283 172.0 -52.4  34204  290.31 0854.58
2009/04/23 13:01:28.0     105   -143    -63    178    190 143.5 -19.6  34206  290.35 0854.58
2009/04/23 13:01:28.1      30   -167     59    170    181 169.8  19.2  34202  290.28 0854.58
2009/04/23 13:01:28.2     -37   -138     64    144    157 195.2  25.3  34200  290.25 0854.58
2009/04/23 13:01:28.3     -65   -184     68    196    208 199.6  19.2  34200  290.26 0854.58
2009/04/23 13:01:28.4      -1   -124     40    125    132 180.5  17.9  34202  290.30 0854.59
2009/04/23 13:01:28.5      -9   -124     38    125    131 184.4  17.3  34202  290.30 0854.59
2009/04/23 13:01:28.6     -65   -198    119    209    240 198.3  32.3  34204  290.31 0854.59
2009/04/23 13:01:28.7     -53   -177    160    185    244 196.7  45.1  34206  290.35 0854.59
2009/04/23 13:01:28.8      44   -130    108    138    175 161.3  42.2  34206  290.36 0854.59
2009/04/23 13:01:28.9      -2   -210    119    211    242 180.7  32.1  34204  290.33 0854.59
2009/04/23 13:01:29.0    -128   -184    -15    225    226 214.7  -3.9  34206  290.36 0854.59
2009/04/23 13:01:29.1     -25   -274      3    276    277 185.3   0.8  34208  290.37 0854.59
2009/04/23 13:01:29.2     -19   -271     23    272    274 184.0   4.9  34210  290.42 0854.59
2009/04/23 13:01:29.3      40   -120     50    127    136 161.3  22.5  34210  290.43 0854.59
2009/04/23 13:01:29.4      31   -135     49    139    147 166.7  20.0  34204  290.31 0854.59
2009/04/23 13:01:29.5      58   -133      0    146    147 156.3  -0.3  34206  290.35 0854.59
2009/04/23 13:01:29.6       0   -184     21    185    187 180.2   6.5  34212  290.45 0854.59
2009/04/23 13:01:29.7     -30   -126     20    130    132 193.4   8.9  34214  290.48 0854.59
2009/04/23 13:01:29.8     -79   -209     26    224    226 200.9   6.7  34214  290.48 0854.59
2009/04/23 13:01:29.9       0   -173    -31    174    177 180.0 -10.3  34212  290.47 0854.59
2009/04/23 13:01:30.0      23   -134      7    137    138 170.2   3.3  34208  290.38 0854.59
2009/04/23 13:01:30.1      32    -92     60     98    114 160.4  35.5  34208  290.38 0854.59
2009/04/23 13:01:30.2       1   -143     76    144    162 179.5  30.3  34208  290.38 0854.59
2009/04/23 13:01:30.3     -51    -75     96     91    132 214.3  51.6  34216  290.53 0854.59
2009/04/23 13:01:30.4     -28     35    105     46    114 321.3  75.0  34228  290.72 0854.59
2009/04/23 13:01:30.5      -2      9    102     10    102 344.9  90.0  34226  290.70 0854.59
2009/04/23 13:01:30.6      -1    -32    157     33    160 182.6  88.5  34230  290.77 0854.59
2009/04/23 13:01:30.7      19    -57    117     61    131 161.3  70.8  34226  290.70 0854.59
2009/04/23 13:01:30.8      16    -49     88     52    102 161.5  66.8  34230  290.75 0854.59
2009/04/23 13:01:30.9      18    -89     93     91    130 168.4  50.1  34220  290.58 0854.59
2009/04/23 13:01:31.0     -47    -77     61     91    109 211.6  37.0  34224  290.65 0854.59
2009/04/23 13:01:31.1     -55    -59     22     81     84 222.8  15.3  34220  290.58 0854.59
2009/04/23 13:01:31.2     -40    -32     -2     52     53 231.4  -2.2  34224  290.65 0854.59
2009/04/23 13:01:31.3     -42    -28    -17     51     53 236.7 -23.6  34222  290.64 0854.59
2009/04/23 13:01:31.4       1    -12    -32     13     34 175.5 -83.6  34222  290.62 0854.59
2009/04/23 13:01:31.5      33    -11      5     35     36 108.6   9.0  34222  290.62 0854.59
2009/04/23 13:01:31.6      40    -13     18     43     46 107.7  23.0  34230  290.77 0854.59
2009/04/23 13:01:31.7      25    -25     24     36     43 135.0  37.6  34228  290.72 0854.59
2009/04/23 13:01:31.8      10     -2     45     11     46 105.1  85.9  34232  290.81 0854.59
2009/04/23 13:01:31.9      29     18     36     35     50  57.5  49.1  34226  290.70 0854.59
2009/04/23 13:01:32.0      35      7     49     36     60  78.5  60.5  34226  290.70 0854.59
2009/04/23 13:01:32.1      38     12     72     40     82  72.3  68.8  34232  290.79 0854.59
2009/04/23 13:01:32.2      62     29     75     69    101  64.6  52.2  34230  290.75 0854.59
2009/04/23 13:01:32.3      60      7     78     61     99  83.0  57.9  34228  290.72 0854.59
2009/04/23 13:01:32.4      -4     45     69     46     82 353.8  63.2  34230  290.75 0854.59
2009/04/23 13:01:32.5     -41     87     89     97    131 334.6  47.9  34224  290.67 0854.59
2009/04/23 13:01:32.6     -51    109     54    121    132 334.7  25.2  34216  290.52 0854.59
2009/04/23 13:01:32.7     -87    133     41    159    165 326.8  14.7  34216  290.52 0854.59
2009/04/23 13:01:32.8    -110    175     39    207    211 327.9  10.8  34220  290.58 0854.59
2009/04/23 13:01:32.9    -136     99     97    169    194 306.0  32.7  34226  290.70 0854.59
2009/04/23 13:01:33.0    -169    122     91    209    227 306.0  25.1  34226  290.69 0854.59
2009/04/23 13:01:33.1    -194    113     28    225    227 300.2   7.2  34224  290.65 0854.59
2009/04/23 13:01:33.2    -297      4     53    298    303 270.8  10.1  34236  290.87 0854.59
2009/04/23 13:01:33.3    -312     23    -22    313    314 274.4  -4.1  34234  290.83 0854.59
2009/04/23 13:01:33.4    -305     85    -12    317    318 285.7  -2.2  34234  290.82 0854.59
2009/04/23 13:01:33.5    -254    108     15    277    278 293.1   3.1  34238  290.88 0854.59
2009/04/23 13:01:33.6    -225    135      8    263    264 300.9   1.8  34232  290.80 0854.59
2009/04/23 13:01:33.7    -122    184     60    222    231 326.4  15.3  34232  290.79 0854.59
2009/04/23 13:01:33.8    -102    207     82    231    245 333.7  20.0  34232  290.78 0854.59
2009/04/23 13:01:33.9     -74    203     63    217    227 340.0  16.3  34230  290.75 0854.59
2009/04/23 13:01:34.0     -70    212     19    224    225 341.5   4.9  34230  290.77 0854.59
2009/04/23 13:01:34.1     -52    256     31    262    264 348.5   6.9  34228  290.71 0854.59
2009/04/23 13:01:34.2     -27    198    116    201    232 352.0  32.9  34234  290.82 0854.59
2009/04/23 13:01:34.3     -96    178    119    203    235 331.5  32.9  34234  290.84 0854.59
2009/04/23 13:01:34.4     -94    174    122    198    232 331.5  35.2  34236  290.86 0854.59
2009/04/23 13:01:34.5       7    219     60    220    229   2.0  15.3  34232  290.79 0854.59
2009/04/23 13:01:34.6     -51    199    102    206    229 345.5  28.0  34236  290.87 0854.59
2009/04/23 13:01:34.7     -64    198    145    209    254 342.0  38.5  34256  291.19 0854.59
2009/04/23 13:01:34.8     -68    239    133    249    282 344.0  30.3  34334  292.52 0854.59
2009/04/23 13:01:34.9     -30    274     54    276    282 353.7  11.1  34336  292.55 0854.59
2009/04/23 13:01:35.0     -86    287    -24    300    301 343.3  -4.6  34320  292.28 0854.59
2009/04/23 13:01:35.1     -77    335    -19    344    345 347.0  -3.2  34294  291.85 0854.59
2009/04/23 13:01:35.2     -85    306    -13    318    319 344.4  -2.5  34290  291.77 0854.59
2009/04/23 13:01:35.3    -106    229     62    253    261 335.1  13.9  34308  292.07 0854.59
2009/04/23 13:01:35.4    -133    196    103    237    258 325.8  25.1  34338  292.60 0854.59
2009/04/23 13:01:35.5    -140    143    120    201    234 315.7  33.7  34346  292.73 0854.59
2009/04/23 13:01:35.6    -131    186    113    228    254 324.8  28.2  34332  292.48 0854.59
2009/04/23 13:01:35.7    -103     73     87    127    153 305.1  37.6  34358  292.95 0854.59
2009/04/23 13:01:35.8     -89     90    122    127    176 315.5  49.0  34350  292.80 0854.59
2009/04/23 13:01:35.9     -73    187     73    201    213 338.6  20.7  34332  292.49 0854.59
2009/04/23 13:01:36.0    -129    125     14    180    181 314.0   4.6  34322  292.32 0854.59
2009/04/23 13:01:36.1    -111    170     84    204    220 326.8  23.4  34318  292.25 0854.59
2009/04/23 13:01:36.2     -87    146    130    171    214 329.3  41.2  34322  292.34 0854.59
2009/04/23 13:01:36.3     -73    145    110    163    196 333.3  37.6  34328  292.42 0854.59
2009/04/23 13:01:36.4     -52     68    117     86    145 322.6  60.5  34326  292.40 0854.59
2009/04/23 13:01:36.5      -2     59    130     60    143 357.3  73.5  34326  292.40 0854.59
2009/04/23 13:01:36.6     -18     20     71     28     76 318.6  78.2  34332  292.49 0854.59
2009/04/23 13:01:36.7     -21      5    -11     22     24 285.1 -31.6  34326  292.39 0854.59
2009/04/23 13:01:36.8     -78    -72    115    107    157 227.3  52.2  34352  292.83 0854.59
2009/04/23 13:01:36.9     -31    -84     93     90    129 200.5  50.7  34356  292.92 0854.59
2009/04/23 13:01:37.0     -14     -6     74     16     75 244.7  89.0  34352  292.83 0854.59
2009/04/23 13:01:37.1     117     79     38    142    148  55.8  15.2  34328  292.44 0854.59
2009/04/23 13:01:37.2     150     71     55    167    176  64.5  18.4  34334  292.52 0854.59
2009/04/23 13:01:37.3     215     13    177    216    279  86.5  43.7  34358  292.93 0854.59
2009/04/23 13:01:37.4     277     56    122    283    308  78.5  24.9  34292  291.80 0854.59
2009/04/23 13:01:37.5     262    125     57    291    297  64.5  11.1  34294  291.85 0854.59
2009/04/23 13:01:37.6     222    201     81    300    311  47.8  15.2  34308  292.07 0854.59
2009/04/23 13:01:37.7     178    220     93    284    299  39.0  18.1  34314  292.18 0854.59
2009/04/23 13:01:37.8     149    182     82    236    250  39.4  19.2  34306  292.04 0854.59
2009/04/23 13:01:37.9     134    169     77    216    230  38.5  19.6  34288  291.76 0854.59
2009/04/23 13:01:38.0     -19    152     98    154    182 352.9  35.5  34302  292.00 0854.59
2009/04/23 13:01:38.1     -22    238    129    240    272 354.7  30.6  34302  291.99 0854.59
2009/04/23 13:01:38.2       5    226     99    227    247   1.4  25.1  34316  292.23 0854.59
2009/04/23 13:01:38.3      87    218     89    235    251  21.8  21.7  34286  291.72 0854.59
2009/04/23 13:01:38.4      52    396    245    400    469   7.6  34.4  34278  291.58 0854.59
2009/04/23 13:01:38.5     108    290    241    310    392  20.5  41.7  34288  291.76 0854.59
2009/04/23 13:01:38.6     195     89    167    215    272  65.4  41.7  34308  292.09 0854.59
2009/04/23 13:01:38.7     245    116    136    272    304  64.6  28.2  34278  291.58 0854.59
2009/04/23 13:01:38.8     254    173    111    308    327  55.8  20.6  34282  291.65 0854.59
2009/04/23 13:01:38.9     244     93    121    262    288  69.2  26.6  34336  292.57 0854.59
2009/04/23 13:01:39.0     120    120     59    170    181  44.9  19.2  34334  292.52 0854.59
2009/04/23 13:01:39.1      70    111     47    132    140  32.5  20.0  34322  292.34 0854.59
2009/04/23 13:01:39.2     130    178    111    221    247  36.1  28.7  34316  292.23 0854.59
2009/04/23 13:01:39.3     255    162     70    303    312  57.6  13.1  34292  291.80 0854.59
2009/04/23 13:01:39.4     211    192     73    286    296  47.6  14.3  34290  291.78 0854.58
2009/04/23 13:01:39.5     208    230    109    311    329  42.1  20.0  34282  291.63 0854.58
2009/04/23 13:01:39.6     190    257     58    320    326  36.5  10.4  34296  291.89 0854.58
2009/04/23 13:01:39.7      79    352     94    361    374  12.8  14.7  34340  292.63 0854.58
2009/04/23 13:01:39.8     181    233     96    296    312  37.9  17.9  34336  292.57 0854.58
2009/04/23 13:01:39.9     207    272    101    343    358  37.3  16.5  34284  291.69 0854.58
2009/04/23 13:01:40.0      56    275    105    281    299  11.6  21.3  34324  292.35 0854.58
2009/04/23 13:01:40.1      42    253     75    257    268   9.6  16.4  34260  291.27 0854.58
2009/04/23 13:01:40.2       0    242     47    243    248   0.0  11.1  34288  291.75 0854.58
2009/04/23 13:01:40.3      47    170     27    177    180  15.4   8.8  34310  292.12 0854.58
2009/04/23 13:01:40.4     142    101    105    175    204  54.7  34.0  34282  291.66 0854.58
2009/04/23 13:01:40.5      80    140     96    162    188  29.9  33.7  34266  291.38 0854.58
2009/04/23 13:01:40.6      66    151     58    166    176  23.7  19.4  34260  291.28 0854.58
2009/04/23 13:01:40.7      45    191     70    197    209  13.4  20.2  34256  291.21 0854.58
2009/04/23 13:01:40.8      92    274    121    290    314  18.7  24.1  34298  291.92 0854.58
2009/04/23 13:01:40.9     160    242     70    291    300  33.4  13.5  34310  292.13 0854.58
2009/04/23 13:01:41.0     244     97    102    263    282  68.3  22.1  34282  291.65 0854.58
2009/04/23 13:01:41.1     244    133     57    279    285  61.4  11.6  34334  292.52 0854.58
2009/04/23 13:01:41.2     227    102     88    249    264  65.8  20.0  34334  292.52 0854.58
2009/04/23 13:01:41.3     187    102    107    214    239  61.4  28.5  34342  292.66 0854.58
2009/04/23 13:01:41.4     192     61    186    202    274  72.3  47.5  34338  292.59 0854.58
2009/04/23 13:01:41.5     206    103     92    231    248  63.4  22.8  34328  292.41 0854.58
2009/04/23 13:01:41.6     258     53    123    264    291  78.3  27.0  34316  292.23 0854.58
2009/04/23 13:01:41.7     228    147     84    272    285  57.1  17.3  34302  291.99 0854.58
2009/04/23 13:01:41.8     190    138     67    235    245  54.0  16.0  34312  292.14 0854.58
2009/04/23 13:01:42.0     187    143     83    236    250  52.5  20.0  34356  292.91 0854.58
2009/04/23 13:01:42.0     121    149     83    193    210  39.0  25.1  34342  292.68 0854.58
2009/04/23 13:01:42.1     141    164     57    217    225  40.5  14.7  34348  292.78 0854.58
2009/04/23 13:01:42.2     168     73     27    184    187  66.5   8.5  34338  292.59 0854.58
2009/04/23 13:01:42.3     147    108     43    183    188  53.6  13.2  34286  291.71 0854.58
2009/04/23 13:01:42.4     131     85     61    157    168  57.1  22.3  34304  292.01 0854.58
2009/04/23 13:01:42.5     127    205     81    242    256  31.9  18.5  34260  291.26 0854.58
2009/04/23 13:01:42.6     117    165     39    203    207  35.4  11.0  34326  292.39 0854.58
2009/04/23 13:01:42.7      68    152    168    167    236  24.3  50.1  34326  292.40 0854.58
2009/04/23 13:01:42.8      90     84    111    124    166  46.9  46.4  34316  292.23 0854.58
2009/04/23 13:01:42.9     -76    180     47    196    202 337.1  13.7  34284  291.69 0854.58
2009/04/23 13:01:43.0    -164    154     17    226    227 313.1   4.4  34282  291.66 0854.58
2009/04/23 13:01:43.2    -155    139     11    209    210 311.8   3.1  34284  291.69 0854.58
2009/04/23 13:01:43.2    -159    147     18    217    218 312.7   5.0  34296  291.88 0854.58
2009/04/23 13:01:43.3    -103    128     58    165    175 321.3  19.4  34306  292.05 0854.58
2009/04/23 13:01:43.4     -81    155     25    176    178 332.4   8.2  34322  292.32 0854.57
2009/04/23 13:01:43.5     -77    134     -8    155    156 330.1  -3.1  34336  292.56 0854.57
2009/04/23 13:01:43.6     -44    150     -6    157    158 343.5  -2.3  34326  292.40 0854.57
2009/04/23 13:01:43.7     -29    172     69    175    188 350.4  22.8  34320  292.29 0854.57
2009/04/23 13:01:43.8     -93    239     50    257    262 338.6  11.1  34300  291.94 0854.57
2009/04/23 13:01:43.9    -160    187     53    247    253 319.5  12.2  34302  291.99 0854.57
2009/04/23 13:01:44.0    -199      8    -91    200    219 272.4 -30.6  34288  291.76 0854.57
2009/04/23 13:01:44.1    -323    -44    -26    327    329 262.1  -4.6  34244  291.00 0854.57
2009/04/23 13:01:44.2    -248    -44     34    252    255 259.9   7.8  34246  291.04 0854.57
2009/04/23 13:01:44.4    -181     48     67    188    199 285.1  20.4  34314  292.20 0854.57
2009/04/23 13:01:44.5    -133     68    107    150    184 297.1  39.1  34332  292.51 0854.57
2009/04/23 13:01:44.5    -183    102     37    210    214 299.3  10.1  34322  292.32 0854.57
2009/04/23 13:01:44.7    -178    106    -13    208    209 300.7  -3.7  34312  292.17 0854.57
2009/04/23 13:01:44.7    -254    198     21    323    324 307.9   3.7  34288  291.73 0854.57
2009/04/23 13:01:44.9    -269    232     -3    356    357 310.7  -0.5  34258  291.25 0854.57
2009/04/23 13:01:45.0    -250    119    -98    277    295 295.5 -19.6  34240  290.92 0854.57
2009/04/23 13:01:45.1    -244    197    -11    314    315 308.9  -2.1  34290  291.78 0854.57
2009/04/23 13:01:45.2    -223    122     21    255    256 298.6   4.9  34302  291.99 0854.57
2009/04/23 13:01:45.3    -209    118     20    241    242 299.5   4.9  34306  292.04 0854.57
2009/04/23 13:01:45.4    -152     41     41    158    164 285.1  14.7  34296  291.88 0854.57
2009/04/23 13:01:45.5    -161     21      7    163    164 277.5   2.8  34298  291.93 0854.56
2009/04/23 13:01:45.6    -100    -12    -29    101    106 263.0 -16.0  34292  291.83 0854.56
2009/04/23 13:01:45.7     -63    -77     48    100    110 219.6  27.3  34294  291.86 0854.56
2009/04/23 13:01:45.8     -83   -108     64    137    151 217.8  27.1  34300  291.96 0854.56
2009/04/23 13:01:45.9     -82   -120     87    146    169 214.3  33.7  34292  291.81 0854.56
2009/04/23 13:01:46.0    -100    -94    125    138    186 226.9  46.9  34320  292.30 0854.56
2009/04/23 13:01:46.1    -114   -118    138    165    215 224.1  43.8  34328  292.42 0854.56
2009/04/23 13:01:46.2    -141    -90    154    168    227 237.6  47.7  34336  292.58 0854.56
2009/04/23 13:01:46.3     -93   -113    140    147    203 219.6  48.7  34332  292.49 0854.56
2009/04/23 13:01:46.4     -76   -106    139    131    191 216.0  52.0  34334  292.52 0854.56
2009/04/23 13:01:46.5     -69     -1    130     70    147 269.1  68.9  34338  292.59 0854.56
2009/04/23 13:01:46.6    -162    -16    100    163    191 264.1  34.8  34346  292.73 0854.56
2009/04/23 13:01:46.7    -124    -57     52    137    146 245.2  21.5  34308  292.10 0854.56
2009/04/23 13:01:46.8    -178     14     72    179    192 274.8  23.0  34294  291.86 0854.56
2009/04/23 13:01:46.9    -174     59     43    184    190 288.8  13.2  34314  292.20 0854.56
2009/04/23 13:01:47.0      76    -10    126     77    147  97.9  65.1  34306  292.05 0854.56
2009/04/23 13:01:47.1     118     84     88    145    169  54.5  34.2  34306  292.06 0854.56
2009/04/23 13:01:47.2     132     58      0    145    146  66.4  -0.3  34314  292.18 0854.56
2009/04/23 13:01:47.3     152     43    -24    159    161  74.1  -8.6  34332  292.51 0854.56
2009/04/23 13:01:47.4      92     80     71    123    142  49.1  32.4  34322  292.32 0854.56
2009/04/23 13:01:47.5      92    126     74    157    173  36.1  27.1  34296  291.88 0854.56
2009/04/23 13:01:47.6     -21    186    179    188    259 353.3  48.7  34288  291.75 0854.56
2009/04/23 13:01:47.7     145    389    333    416    532  20.4  42.8  34306  292.05 0854.56
2009/04/23 13:01:47.8     132    240    176    275    326  28.9  35.6  34306  292.04 0854.56
2009/04/23 13:01:47.9      79    238     20    252    253  18.5   4.6  34306  292.06 0854.56
2009/04/23 13:01:48.0     181    300    -76    351    360  31.1 -12.3  34302  292.00 0854.56
2009/04/23 13:01:48.1     360    544     69    653    657  33.5   6.1  34238  290.91 0854.56
2009/04/23 13:01:48.2     209    488     66    532    537  23.2   7.1  34200  290.26 0854.56
2009/04/23 13:01:48.3     252    442    186    509    541  29.7  20.9  34204  290.33 0854.56
2009/04/23 13:01:48.4      19    591    108    592    602   1.9  10.4  34184  289.97 0854.56
2009/04/23 13:01:48.5     187    676    160    702    721  15.5  12.9  34182  289.94 0854.56
2009/04/23 13:01:48.6     245    614    154    662    680  21.8  13.1  34192  290.12 0854.56
2009/04/23 13:01:48.7     269    613    154    670    688  23.7  13.0  34176  289.83 0854.56
2009/04/23 13:01:48.8     252    668    225    715    750  20.7  17.5  34168  289.72 0854.56
2009/04/23 13:01:48.9     183    665    244    690    733  15.4  19.5  34170  289.74 0854.56
2009/04/23 13:01:49.0      87    611    131    618    632   8.1  12.0  34174  289.82 0854.56
2009/04/23 13:01:49.1       4    573    250    574    626   0.5  25.1  34190  290.08 0854.56
2009/04/23 13:01:49.2      47    437    234    440    498   6.2  30.3  34202  290.30 0854.56
2009/04/23 13:01:49.3     302    188     41    356    359  58.1   6.6  34192  290.11 0854.56
2009/04/23 13:01:49.4     506     90     76    515    521  79.9   8.5  34202  290.30 0854.56
2009/04/23 13:01:49.5     345    172     43    386    389  63.5   6.4  34190  290.08 0854.56
2009/04/23 13:01:49.6     376    330    117    501    515  48.7  13.2  34170  289.73 0854.56
2009/04/23 13:01:49.7     119    322    181    344    388  20.3  30.0  34172  289.77 0854.56
2009/04/23 13:01:49.8    -138    357    139    383    407 338.8  20.8  34180  289.91 0854.56
2009/04/23 13:01:49.9     -64    493     74    498    504 352.6   8.5  34178  289.88 0854.56
2009/04/23 13:01:50.0      92    483     69    492    497  10.9   8.0  34166  289.66 0854.56
2009/04/23 13:01:50.1      44    481     50    484    487   5.3   6.0  34170  289.73 0854.56
2009/04/23 13:01:50.2     179    316     94    364    376  29.6  14.5  34168  289.71 0854.56
2009/04/23 13:01:50.3     102    275     55    294    300  20.5  10.6  34164  289.63 0854.56
2009/04/23 13:01:50.4     121    320      7    343    344  20.8   1.2  34162  289.59 0854.56
2009/04/23 13:01:50.5     270    227     94    353    366  49.9  15.0  34152  289.45 0854.56
2009/04/23 13:01:50.6     259    287     79    387    396  42.0  11.6  34156  289.52 0854.56
2009/04/23 13:01:50.7     300    325    103    443    455  42.8  13.1  34170  289.73 0854.56
2009/04/23 13:01:50.8     325    454     38    559    561  35.6   3.9  34164  289.65 0854.56
2009/04/23 13:01:50.9     273    458   -148    534    555  30.8 -15.5  34176  289.84 0854.56
2009/04/23 13:01:51.0     325    420   -191    532    566  37.8 -19.8  34180  289.92 0854.56
2009/04/23 13:01:51.1     185    425   -141    464    484  23.6 -21.8  34180  289.91 0854.56
2009/04/23 13:01:51.2     206    402   -264    453    524  27.2 -37.3  34180  289.91 0854.56
2009/04/23 13:01:51.3      51    368   -156    372    403   8.0 -28.6  34186  290.01 0854.56
2009/04/23 13:01:51.4      24    347    -59    348    354   4.0  -9.7  34182  289.94 0854.55
2009/04/23 13:01:51.5     -34    245    -92    248    264 351.9 -25.7  34192  290.12 0854.55
2009/04/23 13:01:51.6      43    397      4    400    401   6.3   0.7  34184  289.98 0854.55
2009/04/23 13:01:51.7      62    533    -10    537    538   6.7  -1.2  34174  289.80 0854.55
2009/04/23 13:01:51.8     -96    501    -54    511    514 349.1  -6.1  34178  289.88 0854.55
2009/04/23 13:01:51.9      49    462    -10    465    466   6.1  -1.3  34172  289.78 0854.55
2009/04/23 13:01:52.0      64    605     29    609    610   6.1   2.8  34168  289.71 0854.55
2009/04/23 13:01:52.1    -126    559     89    574    582 347.2   8.9  34196  290.17 0854.55
2009/04/23 13:01:52.2     200    420    103    466    478  25.5  12.5  34288  291.73 0854.55
2009/04/23 13:01:52.3     256    395    123    472    488  33.0  14.7  34232  290.81 0854.55
2009/04/23 13:01:52.4     322    334    115    465    479  43.9  13.9  34292  291.80 0854.55
2009/04/23 13:01:52.5     323    492    139    589    606  33.3  13.3  34156  289.51 0854.55
2009/04/23 13:01:52.6     248    533    207    588    624  25.0  19.4  34174  289.81 0854.55
2009/04/23 13:01:52.7      45    451     -9    454    455   5.8  -1.2  34180  289.92 0854.55
2009/04/23 13:01:52.8    -310    371     14    484    485 320.1   1.7  34178  289.86 0854.55
2009/04/23 13:01:52.9    -203    317     45    377    380 327.4   6.9  34178  289.89 0854.55
2009/04/23 13:01:53.0    -132    351    -41    376    379 339.3  -6.3  34174  289.82 0854.55
2009/04/23 13:01:53.1     -27    415    -64    416    421 356.2  -8.8  34174  289.80 0854.55
2009/04/23 13:01:53.2      -6    376    -72    377    384 359.0 -10.9  34172  289.77 0854.55
2009/04/23 13:01:53.3       0    304   -115    305    325   0.1 -26.1  34184  289.97 0854.55
2009/04/23 13:01:53.4       8    264    -88    265    279   1.8 -23.8  34184  289.97 0854.56
2009/04/23 13:01:53.5      12    253    -70    254    264   2.9 -15.5  34170  289.73 0854.56
2009/04/23 13:01:53.6       7    250    -69    251    261   1.6 -15.5  34170  289.73 0854.56
2009/04/23 13:01:53.7      19    253    -85    254    269   4.4 -18.6  34156  289.51 0854.56
2009/04/23 13:01:53.8     -51    312     47    317    321 350.7   8.5  34162  289.59 0854.56
2009/04/23 13:01:53.9       2    326     15    327    328   0.5   2.8  34152  289.42 0854.56
2009/04/23 13:01:54.0      38    317     28    320    322   6.9   5.1  34148  289.36 0854.56
2009/04/23 13:01:54.1      -4    332     41    333    336 359.3   7.1  34152  289.43 0854.56
2009/04/23 13:01:54.2      -3    298    -35    299    302 359.3  -6.7  34152  289.42 0854.56
2009/04/23 13:01:54.3      23    308    -57    309    315   4.4 -10.5  34146  289.34 0854.56
2009/04/23 13:01:54.4      38    289    -48    292    296   7.6  -9.3  34148  289.36 0854.56
2009/04/23 13:01:54.5      42    287    -24    291    293   8.5  -4.9  34150  289.39 0854.56
2009/04/23 13:01:54.6      75    279    -36    289    292  15.1  -7.2  34138  289.20 0854.56
2009/04/23 13:01:54.7      73    272    -26    282    284  15.2  -5.4  34140  289.24 0854.56
2009/04/23 13:01:54.8     144    266    -96    303    318  28.5 -17.6  34146  289.34 0854.56
2009/04/23 13:01:54.9     189    299   -112    354    372  32.3 -17.6  34168  289.72 0854.56
2009/04/23 13:01:55.0     255    267    -46    370    373  43.7  -7.2  34144  289.30 0854.56
2009/04/23 13:01:55.1     200    213     57    293    299  43.3  11.1  34146  289.34 0854.56
2009/04/23 13:01:55.2     270    250     72    369    377  47.2  11.1  34152  289.45 0854.56
2009/04/23 13:01:55.3     325    260    -16    417    418  51.4  -2.2  34166  289.66 0854.56
2009/04/23 13:01:55.4     326    154    -99    361    375  64.6 -15.4  34164  289.65 0854.56
2009/04/23 13:01:55.5     379    171      5    416    417  65.7   0.8  34170  289.73 0854.56
2009/04/23 13:01:55.6     376    186     75    420    427  63.6  10.2  34184  289.97 0854.56
2009/04/23 13:01:55.7     383    127    146    404    429  71.5  20.9  34184  289.99 0854.56
2009/04/23 13:01:55.8     360     64    130    366    388  79.9  20.3  34180  289.91 0854.56
2009/04/23 13:01:55.9     295     50    116    300    321  80.4  22.2  34194  290.15 0854.56
2009/04/23 13:01:56.0     226     75    150    239    282  71.6  35.5  34202  290.27 0854.56
2009/04/23 13:01:56.1     184      2    167    185    249  89.2  46.9  34192  290.11 0854.56
2009/04/23 13:01:56.2     139   -184    -63    231    240 143.0 -15.4  34212  290.44 0854.56
2009/04/23 13:01:56.3     285      0   -137    286    317  90.0 -31.8  34208  290.39 0854.56
2009/04/23 13:01:56.4     372      5   -125    373    394  89.2 -18.6  34188  290.06 0854.56
2009/04/23 13:01:56.5     290     35    -97    293    309  83.0 -18.3  34194  290.14 0854.56
2009/04/23 13:01:56.6     348    -48    -40    352    355  97.9  -6.6  34240  290.94 0854.56
2009/04/23 13:01:56.7     411    -24      0    412    413  93.4   0.1  34246  291.02 0854.56
2009/04/23 13:01:56.8     335   -111      9    354    355 108.4   1.6  34238  290.88 0854.56
2009/04/23 13:01:56.9     301    -37     61    304    311  97.1  11.4  34250  291.09 0854.56
2009/04/23 13:01:57.0     368    -28    -29    369    371  94.4  -4.6  34236  290.86 0854.56
2009/04/23 13:01:57.1     312    -75    -79    321    331 103.5 -13.9  34222  290.61 0854.56
2009/04/23 13:01:57.2     289     -6    -30    290    292  91.3  -6.1  34232  290.78 0854.56
2009/04/23 13:01:57.3     230    -63    -98    239    258 105.5 -27.8  34218  290.54 0854.56
2009/04/23 13:01:57.4     118   -270    -95    295    309 156.4 -23.3  34208  290.37 0854.56
2009/04/23 13:01:57.5     185   -129    -69    226    236 124.9 -21.8  34196  290.19 0854.56
2009/04/23 13:01:57.6     208   -151   -178    258    313 126.0 -42.4  34190  290.09 0854.56
2009/04/23 13:01:57.7     158   -247    -77    294    305 147.4 -14.8  34194  290.14 0854.56
2009/04/23 13:01:57.8     187   -300   -124    354    375 148.0 -24.5  34218  290.55 0854.56
2009/04/23 13:01:57.9     241   -291   -120    379    398 140.4 -17.6  34204  290.32 0854.56
2009/04/23 13:01:58.0     252   -301    -46    393    396 140.1  -6.7  34208  290.40 0854.56
2009/04/23 13:01:58.1     161   -279    -49    323    327 150.1  -8.7  34202  290.29 0854.56
2009/04/23 13:01:58.2     105   -238    -35    261    264 156.2  -7.7  34190  290.09 0854.56
2009/04/23 13:01:58.3     152   -207     10    257    258 143.7   2.3  34192  290.10 0854.56
2009/04/23 13:01:58.4     173   -184    -30    253    255 136.8  -6.9  34204  290.32 0854.56
2009/04/23 13:01:58.5     107   -128      2    168    169 140.1   0.8  34208  290.38 0854.56
2009/04/23 13:01:58.6      85   -158     -3    180    181 151.5  -1.3  34180  289.91 0854.56
2009/04/23 13:01:58.7      97   -142    -34    173    177 145.5 -11.1  34166  289.69 0854.56
2009/04/23 13:01:58.8      66   -132      7    148    149 153.3   2.8  34170  289.74 0854.56
2009/04/23 13:01:58.9       1   -143     33    144    148 179.5  13.2  34168  289.72 0854.56
2009/04/23 13:01:59.0     -52   -244     16    250    251 192.0   3.8  34170  289.75 0854.56
2009/04/23 13:01:59.1     -79   -227    -50    241    247 199.2 -11.9  34174  289.81 0854.56
2009/04/23 13:01:59.2     -28   -218    -28    220    222 187.3  -7.5  34166  289.67 0854.56
2009/04/23 13:01:59.3      14   -229    -41    230    234 176.4 -10.3  34170  289.75 0854.56
2009/04/23 13:01:59.4      15   -195    -10    196    197 175.5  -3.1  34172  289.77 0854.57
2009/04/23 13:01:59.5       0   -236    -39    237    241 179.9  -9.3  34178  289.88 0854.57
2009/04/23 13:01:59.6     -39   -196    -29    200    203 191.3  -8.2  34170  289.74 0854.57
2009/04/23 13:01:59.7     -64   -205     58    215    223 197.4  15.2  34198  290.21 0854.57
2009/04/23 13:01:59.8     -14   -222     17    223    224 183.8   4.6  34184  289.99 0854.57
2009/04/23 13:01:59.9     -16   -233     32    234    237 184.0   8.0  34186  290.02 0854.57
2009/04/23 13:02:00.0      38   -248     44    252    256 171.1  10.0  34202  290.29 0854.57
2009/04/23 13:02:00.1      74   -236     45    248    253 162.4  10.3  34196  290.19 0854.57
2009/04/23 13:02:00.2      45   -174     84    180    198 165.3  27.0  34198  290.23 0854.57
2009/04/23 13:02:00.3       2   -145     93    146    173 179.0  35.5  34194  290.14 0854.57
2009/04/23 13:02:00.4      29   -143    118    147    188 168.4  43.3  34186  290.01 0854.57
2009/04/23 13:02:00.5      96   -205    127    227    260 154.8  31.4  34172  289.78 0854.57
2009/04/23 13:02:00.6     137   -272     83    305    317 153.3  15.2  34166  289.68 0854.57
2009/04/23 13:02:00.7     110   -279      9    301    302 158.4   1.8  34172  289.78 0854.57
2009/04/23 13:02:00.8     172   -270     87    321    333 147.5  15.3  34164  289.64 0854.57
2009/04/23 13:02:00.9     115   -287     49    310    314 158.2   9.0  34168  289.71 0854.57
2009/04/23 13:02:01.0     154   -206     54    258    264 143.3  12.0  34170  289.73 0854.57
2009/04/23 13:02:01.1     106   -194      0    222    223 151.3   0.0  34180  289.91 0854.57
2009/04/23 13:02:01.2      81   -148     -6    169    170 151.3  -2.2  34188  290.06 0854.57
2009/04/23 13:02:01.3      25   -113    -59    116    130 167.1 -33.6  34212  290.47 0854.57
2009/04/23 13:02:01.4     -37   -142    -52    147    155 194.7 -23.3  34212  290.47 0854.57
2009/04/23 13:02:01.5     -50   -134    -49    144    153 200.5 -19.1  34200  290.26 0854.57
2009/04/23 13:02:01.6      63    -78     81    101    129 140.8  43.3  34200  290.25 0854.57
2009/04/23 13:02:01.7      95    -78     98    124    158 129.5  42.4  34178  289.89 0854.57
2009/04/23 13:02:01.8      -1    -94    126     95    157 180.9  59.2  34166  289.69 0854.57
2009/04/23 13:02:01.9     -55   -100    103    115    154 208.9  46.4  34172  289.79 0854.57
2009/04/23 13:02:02.0      26     12    119     29    122  64.6  86.4  34182  289.96 0854.57
2009/04/23 13:02:02.1      10     33    104     35    109  16.9  81.0  34196  290.18 0854.57
2009/04/23 13:02:02.2     -32     57     98     66    118 331.0  62.7  34192  290.13 0854.57
2009/04/23 13:02:02.3     -73     12     78     75    108 279.7  51.2  34192  290.11 0854.57
2009/04/23 13:02:02.4     -33     45     63     56     84 323.9  53.3  34180  289.92 0854.59
2009/04/23 13:02:02.5    -107     50     77    119    141 295.2  35.6  34194  290.14 0854.59
2009/04/23 13:02:02.6     -62    -23     63     67     91 249.2  48.5  34200  290.25 0854.59
2009/04/23 13:02:02.7     -66     26     34     72     79 291.7  27.2  34196  290.19 0854.59
2009/04/23 13:02:02.8     -31      9     74     33     81 286.8  74.5  34206  290.35 0854.59
2009/04/23 13:02:02.9      -6     -6     64      9     64 223.4  90.0  34208  290.38 0854.59
2009/04/23 13:02:03.0     -12     20     69     24     73 329.3  81.2  34212  290.45 0854.59
2009/04/23 13:02:03.1     -16     12     51     21     55 307.8  76.1  34202  290.28 0854.59
2009/04/23 13:02:03.2     -10    -25     71     27     75 201.8  79.2  34202  290.30 0854.59
2009/04/23 13:02:03.3       0    -25     83     26     86 179.1  81.8  34206  290.35 0854.59
2009/04/23 13:02:03.4     -17    -52    108     55    121 198.5  71.0  34194  290.16 0854.59
2009/04/23 13:02:03.5     -72    -75     88    105    137 223.7  43.8  34210  290.41 0854.59
2009/04/23 13:02:03.6     -70    -66     53     97    110 226.9  31.3  34204  290.31 0854.59
2009/04/23 13:02:03.7     -30    -67     58     74     94 204.5  42.2  34202  290.30 0854.59
2009/04/23 13:02:03.8     -25    -53     98     59    114 205.3  65.7  34204  290.33 0854.59
2009/04/23 13:02:03.9     -10    -45     85     47     97 192.5  68.3  34214  290.48 0854.59
2009/04/23 13:02:04.0      14     12     72     19     74  48.7  84.9  34228  290.72 0854.59
2009/04/23 13:02:04.1       0     39     76     40     85 359.1  69.8  34236  290.87 0854.59
2009/04/23 13:02:04.2     -28     72     74     78    107 338.2  48.5  34218  290.55 0854.59
2009/04/23 13:02:04.3     -10     31     92     33     97 341.3  80.7  34214  290.50 0854.59
2009/04/23 13:02:04.4      14     46    120     49    129  17.8  77.1  34218  290.55 0854.60
2009/04/23 13:02:04.5      73     53     67     91    113  54.0  40.1  34206  290.35 0854.60
2009/04/23 13:02:04.6      76     25     85     81    117  71.4  51.2  34214  290.48 0854.60
2009/04/23 13:02:04.7      34     35     41     49     63  44.2  44.8  34218  290.57 0854.60
2009/04/23 13:02:04.8     -17     33     50     38     62 332.8  58.5  34226  290.69 0854.60
2009/04/23 13:02:04.9     -12     16     21     21     29 323.9  50.1  34218  290.55 0854.60
2009/04/23 13:02:05.0     -27     17     11     33     35 302.5  19.4  34228  290.72 0854.60
2009/04/23 13:02:05.1     -22     27     24     36     43 320.3  37.6  34234  290.84 0854.60
2009/04/23 13:02:05.2      14     26     35     30     46  29.0  54.3  34238  290.91 0854.60
2009/04/23 13:02:05.3       0    -10     22     11     24 182.7  72.9  34236  290.86 0854.60
2009/04/23 13:02:05.4       1    -14     -7     15     16 175.5 -31.6  34238  290.91 0854.60
2009/04/23 13:02:05.5     -25    -30    -42     40     58 219.6 -53.5  34220  290.60 0854.60
2009/04/23 13:02:05.6     -52    -43    -20     68     70 230.5 -21.7  34216  290.52 0854.60
2009/04/23 13:02:05.7     -85   -133     13    158    159 212.6   4.9  34208  290.38 0854.60
2009/04/23 13:02:05.8     -71   -120    -16    140    141 210.7  -6.7  34228  290.74 0854.60
2009/04/23 13:02:05.9      -8   -115     68    116    134 184.4  33.5  34266  291.38 0854.60
2009/04/23 13:02:06.0     -57    -79     67     98    118 215.6  37.6  34272  291.49 0854.60
2009/04/23 13:02:06.1     -64    -76    122    100    157 220.1  56.4  34280  291.62 0854.60
2009/04/23 13:02:06.2     -79   -116    115    141    181 214.2  43.7  34276  291.54 0854.60
2009/04/23 13:02:06.3     -73   -119     53    140    149 211.6  21.0  34256  291.20 0854.60
2009/04/23 13:02:06.4     -45    -88     -9     99    100 207.2  -5.6  34244  291.01 0854.59
2009/04/23 13:02:06.5      -2     27     71     28     76 355.5  78.2  34274  291.50 0854.59
2009/04/23 13:02:06.6      21     64     43     68     80  18.3  35.5  34276  291.54 0854.59
2009/04/23 13:02:06.7      63     68     74     93    118  42.8  42.2  34276  291.54 0854.59
2009/04/23 13:02:06.8      93      9     73     94    119  83.9  41.7  34244  290.99 0854.59
2009/04/23 13:02:06.9      11    -17     73     21     75 145.7  82.8  34250  291.09 0854.59
2009/04/23 13:02:07.0      16     18     48     25     54  41.4  71.9  34244  291.01 0854.59
2009/04/23 13:02:07.1     110     28     53    114    125  75.4  26.6  34288  291.76 0854.59
2009/04/23 13:02:07.2     101     40     23    109    112  68.3  12.2  34264  291.35 0854.59
2009/04/23 13:02:07.3      77     72     43    106    114  46.9  23.0  34284  291.67 0854.59
2009/04/23 13:02:07.4      96     93     79    134    155  46.0  33.5  34292  291.83 0854.59
2009/04/23 13:02:07.5      96     59    108    113    156  58.5  49.0  34322  292.34 0854.59
2009/04/23 13:02:07.6      92     58    108    109    153  57.6  50.0  34340  292.63 0854.59
2009/04/23 13:02:07.7      95     89     99    131    164  46.8  40.9  34346  292.73 0854.59
2009/04/23 13:02:07.8     218    137     97    258    275  57.8  21.5  34364  293.03 0854.59
2009/04/23 13:02:07.9     186    162    123    247    275  48.9  28.2  34328  292.43 0854.59
2009/04/23 13:02:08.0     212    167    112    270    292  51.8  23.6  34336  292.55 0854.59
2009/04/23 13:02:08.1     168    177    132    245    278  43.4  30.6  34350  292.81 0854.59
2009/04/23 13:02:08.2     232     41     85    236    252  79.9  19.9  34368  293.11 0854.59
2009/04/23 13:02:08.3     246     82    113    260    283  71.6  25.1  34372  293.18 0854.59
2009/04/23 13:02:08.4     302    101    157    319    355  71.4  28.2  34362  292.99 0854.59
2009/04/23 13:02:08.5     258    112    154    282    321  66.4  31.0  34366  293.08 0854.59
2009/04/23 13:02:08.6     294    110    179    315    362  69.4  32.1  34336  292.56 0854.59
2009/04/23 13:02:08.7     168     98    115    195    226  59.8  33.5  34298  291.91 0854.59
2009/04/23 13:02:08.8     130    147    117    197    229  41.4  33.5  34274  291.52 0854.59
2009/04/23 13:02:08.9     190     88    130    210    246  65.2  34.8  34270  291.44 0854.59
2009/04/23 13:02:09.0     160    208     77    263    275  37.6  16.3  34268  291.39 0854.59
2009/04/23 13:02:09.1     208    171     28    270    272  50.5   6.1  34254  291.16 0854.59
2009/04/23 13:02:09.2     195    138     28    239    241  54.7   6.7  34250  291.09 0854.59
2009/04/23 13:02:09.3     175    127     48    217    223  54.0  12.6  34248  291.08 0854.59
2009/04/23 13:02:09.4     209    128     85    246    261  58.5  19.2  34250  291.09 0854.59
2009/04/23 13:02:09.5     147    217     13    263    264  34.1   2.9  34248  291.05 0854.59
2009/04/23 13:02:09.6     120    214      7    246    247  29.4   1.8  34242  290.97 0854.59
2009/04/23 13:02:09.7     142    167     45    220    225  40.3  11.6  34242  290.98 0854.59
2009/04/23 13:02:09.8     104    184     38    212    216  29.4  10.3  34242  290.96 0854.59
2009/04/23 13:02:09.9      59    121     11    135    136  26.3   4.9  34258  291.23 0854.59
2009/04/23 13:02:10.0      24     99    -28    102    106  13.8 -15.5  34264  291.35 0854.59
2009/04/23 13:02:10.1     120    100     -6    157    158  50.4  -2.2  34224  290.65 0854.59
2009/04/23 13:02:10.2     138     99     -3    170    171  54.3  -1.1  34220  290.58 0854.59
2009/04/23 13:02:10.3     146    105     -3    180    181  54.3  -1.2  34222  290.64 0854.59
2009/04/23 13:02:10.4     148     84     -4    171    172  60.5  -1.6  34238  290.91 0854.59
2009/04/23 13:02:10.5     145     60     18    158    160  67.4   6.7  34290  291.79 0854.59
2009/04/23 13:02:10.6     128     56     80    140    161  66.4  32.4  34294  291.86 0854.59
2009/04/23 13:02:10.7     158     74    -12    175    176  64.7  -4.1  34298  291.91 0854.59
2009/04/23 13:02:10.8     189     94     25    212    214  63.6   6.9  34270  291.43 0854.59
2009/04/23 13:02:11.0     173    109     18    205    206  57.8   5.2  34244  290.99 0854.59
2009/04/23 13:02:11.1     152    110      6    188    189  54.1   2.1  34232  290.81 0854.59
2009/04/23 13:02:11.1     141    123     29    188    191  48.9   9.0  34218  290.55 0854.59
2009/04/23 13:02:11.3     121    147    -36    191    195  39.6 -10.9  34198  290.21 0854.59
2009/04/23 13:02:11.4     119    134    -57    180    188  41.4 -22.8  34178  289.87 0854.59
2009/04/23 13:02:11.4      94    130    -59    161    171  36.1 -25.4  34210  290.43 0854.59
2009/04/23 13:02:11.6     104      3    -49    105    115  87.9 -31.5  34220  290.58 0854.59
2009/04/23 13:02:11.7     107     32     -3    112    113  73.2  -1.8  34214  290.48 0854.59
2009/04/23 13:02:11.8     137     62     -6    151    152  65.6  -2.6  34218  290.57 0854.59
2009/04/23 13:02:11.9     182     43     50    188    195  76.5  15.0  34206  290.35 0854.59
2009/04/23 13:02:12.0     183     58     37    193    197  72.3  11.1  34208  290.40 0854.59
2009/04/23 13:02:12.1     164     69     68    179    191  67.2  21.7  34288  291.74 0854.59
2009/04/23 13:02:12.2     136     66     34    152    156  64.2  12.6  34268  291.40 0854.59
2009/04/23 13:02:12.3     150     26      3    153    154  79.9   1.2  34222  290.62 0854.59
2009/04/23 13:02:12.4     178     13      1    179    180  85.6   0.5  34220  290.58 0854.59
2009/04/23 13:02:12.5     172     55    -21    181    183  72.3  -6.7  34188  290.06 0854.59
2009/04/23 13:02:12.6     165     66    -33    178    182  68.0 -10.5  34176  289.84 0854.59
2009/04/23 13:02:12.7     174     67    -23    187    189  68.9  -7.2  34186  290.01 0854.59
2009/04/23 13:02:12.8     171     63     10    183    184  69.8   3.1  34216  290.53 0854.59
2009/04/23 13:02:12.9     114     46     29    124    128  67.8  13.2  34232  290.81 0854.59
2009/04/23 13:02:13.0     122     62     48    138    147  62.9  19.2  34220  290.60 0854.59
2009/04/23 13:02:13.1      89     67     20    112    114  52.7  10.6  34202  290.28 0854.59
2009/04/23 13:02:13.2      48    154     17    162    163  17.4   6.1  34194  290.16 0854.59
2009/04/23 13:02:13.3      40    157     22    163    165  14.3   7.8  34196  290.19 0854.59
2009/04/23 13:02:13.4       2    174      0    175    176   0.9  -0.3  34202  290.28 0854.59
2009/04/23 13:02:13.5       5    171      5    172    173   1.8   1.8  34200  290.25 0854.59
2009/04/23 13:02:13.6      35    154     -9    158    159  12.9  -3.3  34194  290.14 0854.59
2009/04/23 13:02:13.7      35    168     -6    172    173  11.8  -2.2  34190  290.09 0854.59
2009/04/23 13:02:13.8      55    165      0    174    175  18.5   0.0  34190  290.08 0854.59
2009/04/23 13:02:13.9      54    182     -8    190    191  16.7  -2.6  34206  290.35 0854.59
2009/04/23 13:02:14.0      46    166    -31    173    176  15.6 -10.3  34214  290.48 0854.59
2009/04/23 13:02:14.1      34    167    -34    171    175  11.6 -11.3  34208  290.40 0854.59
2009/04/23 13:02:14.2      31    151    -30    155    158  11.6 -11.1  34206  290.36 0854.59
2009/04/23 13:02:14.3      43    142    -13    149    150  16.9  -5.2  34210  290.41 0854.59
2009/04/23 13:02:14.4      44    138    -25    145    148  17.8  -9.8  34208  290.38 0854.59
2009/04/23 13:02:14.5      38    125    -23    131    134  16.9 -10.3  34208  290.38 0854.60
2009/04/23 13:02:14.6      35    113    -19    119    121  17.4  -9.3  34210  290.41 0854.60
2009/04/23 13:02:14.7      32    120     -6    125    126  15.1  -3.1  34212  290.45 0854.60
2009/04/23 13:02:14.8      17    123    -15    125    127   8.0  -7.2  34214  290.48 0854.60
2009/04/23 13:02:14.9      27    102    -12    106    107  15.1  -6.7  34218  290.57 0854.60
2009/04/23 13:02:15.0      36    103     -7    110    111  19.2  -4.1  34224  290.65 0854.60
2009/04/23 13:02:15.1      42    126    -12    134    135  18.7  -5.2  34228  290.74 0854.60
2009/04/23 13:02:15.2      95    130    -37    162    167  36.1 -12.9  34212  290.45 0854.60
2009/04/23 13:02:15.3     122    133    -16    181    182  42.5  -5.4  34228  290.74 0854.60
2009/04/23 13:02:15.4      70    136     -8    154    155  27.2  -3.1  34228  290.74 0854.60
2009/04/23 13:02:15.5      78    109    -31    135    139  35.6 -13.3  34246  291.03 0854.60
2009/04/23 13:02:15.6     118     75     -5    141    142  57.5  -2.2  34270  291.45 0854.60
2009/04/23 13:02:15.7     126     58     36    139    144  65.2  14.7  34262  291.30 0854.60
2009/04/23 13:02:15.8     106     76     33    131    136  54.0  14.3  34262  291.30 0854.60
2009/04/23 13:02:15.9     118    104     11    158    159  48.7   4.2  34220  290.58 0854.60
2009/04/23 13:02:16.0     146     94      0    174    175  57.1   0.0  34208  290.38 0854.60
2009/04/23 13:02:16.1     139     94      8    169    170  55.8   2.8  34200  290.26 0854.60
2009/04/23 13:02:16.2     126    105     -6    165    166  50.2  -2.2  34204  290.31 0854.60
2009/04/23 13:02:16.3     103     82     39    132    138  51.4  16.8  34218  290.55 0854.60
2009/04/23 13:02:16.4     118     23     -2    121    122  79.0  -1.3  34250  291.09 0854.61
2009/04/23 13:02:16.5     110     36     13    116    117  71.8   6.9  34258  291.23 0854.61
2009/04/23 13:02:16.6     114     39     31    121    126  70.9  14.7  34270  291.45 0854.61
2009/04/23 13:02:16.7     120     35     34    126    131  73.6  15.2  34246  291.03 0854.61
2009/04/23 13:02:16.8     108     67     22    128    131  58.0  10.1  34232  290.79 0854.61
2009/04/23 13:02:16.9     100     63      0    119    120  58.0  -0.3  34244  291.01 0854.61
2009/04/23 13:02:17.0      86     41     33     96    102  64.2  19.4  34256  291.20 0854.61
2009/04/23 13:02:17.1      75     34     40     83     92  65.6  27.2  34264  291.35 0854.61
2009/04/23 13:02:17.2      89      6      6     90     91  85.6   4.4  34264  291.33 0854.61
2009/04/23 13:02:17.3      75     -5      6     76     77  94.4   4.9  34266  291.37 0854.61
2009/04/23 13:02:17.4      44    -20     17     49     52 115.3  19.4  34254  291.16 0854.61
2009/04/23 13:02:17.5      38    -14     11     41     43 110.8  15.3  34248  291.08 0854.61
2009/04/23 13:02:17.6      39     13     19     42     46  71.6  25.1  34246  291.03 0854.61
2009/04/23 13:02:17.7      27     43     17     52     55  32.5  18.9  34260  291.26 0854.61
2009/04/23 13:02:17.8      15     63     -8     65     66  13.4  -7.3  34276  291.54 0854.61
2009/04/23 13:02:17.9      13     28     -9     32     34  25.4 -15.5  34266  291.37 0854.61
2009/04/23 13:02:18.0      27    -22     19     35     39 129.5  31.4  34268  291.42 0854.61
2009/04/23 13:02:18.1      36    -39     18     54     57 137.7  18.4  34266  291.38 0854.61
2009/04/23 13:02:18.2      18    -69     25     72     77 164.9  19.4  34266  291.38 0854.61
2009/04/23 13:02:18.3      88    -70     22    113    116 128.6  11.0  34304  292.01 0854.61
2009/04/23 13:02:18.4     129    -32     67    134    149 104.2  28.2  34314  292.18 0854.62
2009/04/23 13:02:18.5     160    -16     10    161    162  95.9   3.6  34260  291.28 0854.62
2009/04/23 13:02:18.6     146     -4     76    147    165  91.7  29.5  34324  292.35 0854.62
2009/04/23 13:02:18.7     137    -15     88    138    163  96.6  35.6  34304  292.03 0854.62
2009/04/23 13:02:18.8     126    -30     66    130    145 103.7  29.2  34322  292.32 0854.62
2009/04/23 13:02:18.9      69      3     65     70     95  87.4  47.9  34322  292.32 0854.62
2009/04/23 13:02:19.0      42     43     49     61     78  44.2  43.7  34306  292.05 0854.62
2009/04/23 13:02:19.1      41     11    -36     43     56  74.1 -48.2  34290  291.77 0854.62
2009/04/23 13:02:19.2      54    -17    -43     57     71 108.2 -46.1  34278  291.59 0854.62
2009/04/23 13:02:19.3      70    -40     -3     81     82 119.8  -2.2  34280  291.60 0854.62
2009/04/23 13:02:19.4      68    -32      3     76     77 115.4   2.9  34278  291.57 0854.62
2009/04/23 13:02:19.5      53    -25     -9     59     60 115.4  -9.3  34270  291.43 0854.62
2009/04/23 13:02:19.6      66    -42    -22     79     83 122.4 -15.5  34248  291.08 0854.62
2009/04/23 13:02:19.7     110    -53     -2    123    124 115.8  -1.2  34280  291.62 0854.62
2009/04/23 13:02:19.8     108    -42     -4    116    117 111.3  -2.2  34292  291.81 0854.62
2009/04/23 13:02:19.9     118    -36    -20    124    126 106.9  -9.3  34288  291.74 0854.62
2009/04/23 13:02:20.0      69    -48    -21     85     88 125.1 -13.9  34280  291.60 0854.62
2009/04/23 13:02:20.1     100    -40     10    108    109 111.8   5.4  34274  291.52 0854.62
2009/04/23 13:02:20.2      84    -31      2     90     91 110.4   1.8  34276  291.54 0854.62
2009/04/23 13:02:20.3      65    -33     14     73     75 117.1  11.1  34284  291.67 0854.62
2009/04/23 13:02:20.4      53      6     26     54     59  83.0  27.3  34286  291.71 0854.63
2009/04/23 13:02:20.5      57      3     42     58     71  86.5  39.7  34282  291.66 0854.63
2009/04/23 13:02:20.6      74     25     58     79     98  71.4  40.1  34284  291.67 0854.63
2009/04/23 13:02:20.7      65     36     71     75    103  61.1  48.5  34290  291.79 0854.63
2009/04/23 13:02:20.8      62     35     40     72     82  60.2  31.4  34298  291.93 0854.63
2009/04/23 13:02:20.9      41     36     41     55     68  48.7  41.7  34300  291.95 0854.63
2009/04/23 13:02:21.0      77     35     60     85    104  65.6  38.6  34334  292.52 0854.63
2009/04/23 13:02:21.1      88     29     71     93    117  71.6  41.7  34328  292.42 0854.63
2009/04/23 13:02:21.2      99     39     74    107    130  68.2  37.6  34314  292.18 0854.63
2009/04/23 13:02:21.3     138     32    105    142    176  76.7  40.1  34298  291.93 0854.63
2009/04/23 13:02:21.4     119     48     56    129    140  67.8  25.1  34280  291.62 0854.63
2009/04/23 13:02:21.5      94     30     64     99    117  71.8  35.6  34294  291.86 0854.63
2009/04/23 13:02:21.6     106     14    110    108    154  82.1  50.1  34280  291.60 0854.63
2009/04/23 13:02:21.7     167     18     84    169    188  83.6  28.2  34246  291.04 0854.63
2009/04/23 13:02:21.8     177     30     81    180    197  80.3  25.7  34240  290.92 0854.63
2009/04/23 13:02:21.9     153     62     99    166    193  68.0  34.0  34282  291.64 0854.63
2009/04/23 13:02:22.0     152     50     99    161    189  71.8  35.0  34284  291.67 0854.63
2009/04/23 13:02:22.1     123     29    112    127    169  76.8  45.8  34272  291.47 0854.63
2009/04/23 13:02:22.2     163     22     78    165    182  82.3  27.1  34260  291.28 0854.63
2009/04/23 13:02:22.3     164     16     47    165    172  84.3  16.0  34252  291.13 0854.63
2009/04/23 13:02:22.4     202     28    105    204    229  82.1  29.3  34268  291.42 0854.65
2009/04/23 13:02:22.5     149     13     89    150    174  84.8  33.7  34242  290.98 0854.65
2009/04/23 13:02:22.6     114     12     47    115    124  83.9  23.0  34226  290.70 0854.65
2009/04/23 13:02:22.7     107     11     90    108    140  83.9  43.8  34230  290.75 0854.65
2009/04/23 13:02:22.8     162     63    144    174    225  68.7  43.8  34262  291.30 0854.65
2009/04/23 13:02:22.9     185     80     96    202    223  66.5  27.3  34258  291.23 0854.65
2009/04/23 13:02:23.0     152     88    148    176    229  59.8  44.1  34268  291.42 0854.65
2009/04/23 13:02:23.1     132     89    114    160    196  55.8  39.3  34262  291.30 0854.65
2009/04/23 13:02:23.2     117     96    113    152    189  50.5  40.1  34270  291.45 0854.65
2009/04/23 13:02:23.3     113    104    109    154    188  47.3  38.8  34250  291.11 0854.65
2009/04/23 13:02:23.4     173    141     14    224    225  50.9   3.6  34240  290.92 0854.68
2009/04/23 13:02:23.5     176    112     46    209    215  57.4  12.6  34244  291.01 0854.68
2009/04/23 13:02:23.6     193     39     94    197    218  78.5  27.3  34250  291.09 0854.68
2009/04/23 13:02:23.7     141     89    149    167    223  57.6  46.4  34242  290.98 0854.68
2009/04/23 13:02:23.8     230     96    118    250    276  67.4  27.1  34262  291.31 0854.68
2009/04/23 13:02:23.9     206     82    129    223    257  68.2  32.7  34270  291.44 0854.68
2009/04/23 13:02:24.0     159    114    119    197    230  54.3  34.2  34230  290.77 0854.68
2009/04/23 13:02:24.1     179    163    110    243    266  47.6  26.2  34250  291.10 0854.68
2009/04/23 13:02:24.2     168     90     78    191    206  61.8  23.4  34274  291.50 0854.68
2009/04/23 13:02:24.3     157     83     85    178    197  62.0  27.2  34280  291.62 0854.68
2009/04/23 13:02:24.4     160     87    116    183    216  61.4  35.5  34270  291.45 0854.68
2009/04/23 13:02:24.5     167    106     87    198    216  57.6  25.1  34268  291.42 0854.68
2009/04/23 13:02:24.6     123     78     65    146    159  57.6  25.7  34266  291.37 0854.68
2009/04/23 13:02:24.7      86     48     51     99    111  60.7  29.3  34276  291.55 0854.68
2009/04/23 13:02:24.8     108     36     14    114    115  71.4   7.1  34278  291.57 0854.68
2009/04/23 13:02:24.9     110      8     37    111    118  85.6  18.4  34286  291.71 0854.68
2009/04/23 13:02:25.0      98    -46     39    109    115 115.2  20.0  34292  291.81 0854.68
2009/04/23 13:02:25.1     110    -15     75    112    134  98.0  36.5  34284  291.67 0854.68
2009/04/23 13:02:25.2     119    -36     88    125    152 106.9  38.6  34264  291.33 0854.68
2009/04/23 13:02:25.3     123    -53     94    135    164 113.5  38.0  34278  291.57 0854.68
2009/04/23 13:02:25.4      84    -82    107    118    159 134.0  47.1  34280  291.62 0854.66
2009/04/23 13:02:25.5      -6    -21    105     23    107 196.9  88.5  34264  291.33 0854.66
2009/04/23 13:02:25.6     144     86     65    168    180  59.1  22.0  34258  291.23 0854.66
2009/04/23 13:02:25.7     141     19    -18    143    145  82.1  -7.2  34260  291.26 0854.66
2009/04/23 13:02:25.8     107     21    -29    110    114  78.6 -15.0  34256  291.20 0854.66
2009/04/23 13:02:25.9      23     85      3     89     90  15.1   2.3  34256  291.20 0854.66
2009/04/23 13:02:26.0      84    155     68    177    189  28.5  22.0  34286  291.72 0854.66
2009/04/23 13:02:26.1     107    169     74    201    214  32.5  20.9  34312  292.15 0854.66
2009/04/23 13:02:26.2     -12    232     84    233    248 356.9  19.9  34296  291.87 0854.66
2009/04/23 13:02:26.3     -51    194     91    201    220 345.1  26.2  34294  291.86 0854.66
2009/04/23 13:02:26.4     -69    171     48    185    192 337.9  14.5  34294  291.86 0854.66
2009/04/23 13:02:26.5      16    154     16    155    156   6.2   5.9  34296  291.88 0854.66
2009/04/23 13:02:26.6     -55    171     11    180    181 342.0   3.8  34306  292.05 0854.66
2009/04/23 13:02:26.7     -39    194     -5    199    200 348.4  -1.6  34302  291.98 0854.66
2009/04/23 13:02:26.8     -38    157    -49    162    170 346.2 -17.0  34302  291.98 0854.66
2009/04/23 13:02:26.9      45     78    -38     91     98  30.3 -28.0  34306  292.05 0854.66
2009/04/23 13:02:27.0      97     76     60    124    137  51.8  27.3  34316  292.23 0854.66
2009/04/23 13:02:27.1      58     77     77     97    123  37.0  42.2  34310  292.12 0854.66
2009/04/23 13:02:27.2      73     19     68     76    101  74.9  46.9  34308  292.08 0854.66
2009/04/23 13:02:27.3     -19     64     77     67    102 343.1  54.3  34320  292.30 0854.66
2009/04/23 13:02:27.4     -31     92     93     98    135 341.3  49.0  34320  292.30 0854.65
2009/04/23 13:02:27.5     -84    108    160    138    211 322.1  54.8  34318  292.27 0854.65
2009/04/23 13:02:27.6    -128    127    164    181    244 314.6  47.0  34314  292.20 0854.65
2009/04/23 13:02:27.7    -165    199     94    259    275 320.4  20.9  34288  291.73 0854.65
2009/04/23 13:02:27.8    -209    175     18    273    274 310.0   3.9  34284  291.67 0854.65
2009/04/23 13:02:27.9    -196    142      8    243    244 305.9   2.1  34302  291.97 0854.65
2009/04/23 13:02:28.0    -193     82     -9    210    211 293.1  -2.6  34316  292.22 0854.65
2009/04/23 13:02:28.1    -161    117     18    200    201 306.0   5.4  34326  292.39 0854.65
2009/04/23 13:02:28.2    -202    111     34    231    234 298.8   8.5  34340  292.62 0854.65
2009/04/23 13:02:28.3    -216    102     25    240    242 295.3   6.0  34336  292.55 0854.65
2009/04/23 13:02:28.4    -183     74     81    198    213 292.2  23.1  34352  292.85 0854.65
2009/04/23 13:02:28.5    -160     75    101    177    203 295.3  32.4  34342  292.66 0854.65
2009/04/23 13:02:28.6    -111     86    155    141    209 307.8  53.0  34298  291.91 0854.65
2009/04/23 13:02:28.7    -104    118     67    158    171 318.5  24.3  34282  291.66 0854.65
2009/04/23 13:02:28.8      51     99    196    112    225  27.6  68.1  34286  291.71 0854.65
2009/04/23 13:02:28.9     101     78    198    128    235  52.3  64.1  34284  291.69 0854.65
2009/04/23 13:02:29.0      79    149    130    169    213  27.9  41.6  34264  291.33 0854.65
2009/04/23 13:02:29.1      34    108    166    114    201  17.4  62.6  34272  291.49 0854.65
2009/04/23 13:02:29.2     152     97    236    181    297  57.4  58.7  34290  291.78 0854.65
2009/04/23 13:02:29.3     217    -18    250    218    331  94.8  54.6  34278  291.56 0854.65
2009/04/23 13:02:29.4     201    -40    211    205    294 101.4  50.9  34292  291.80 0854.63
2009/04/23 13:02:29.5     197     40    243    201    315  78.5  56.2  34276  291.53 0854.63
2009/04/23 13:02:29.6     180     61    184    191    265  71.2  49.0  34250  291.09 0854.63
2009/04/23 13:02:29.7     174     14    173    175    246  85.2  49.9  34258  291.23 0854.63
2009/04/23 13:02:29.8     126     38    156    132    204  73.1  55.6  34268  291.40 0854.63
2009/04/23 13:02:29.9      82     56    110    100    148  55.4  52.2  34270  291.45 0854.63
2009/04/23 13:02:30.0       5    -17    113     18    114 161.7  90.0  34282  291.66 0854.63
2009/04/23 13:02:30.1      45     45     88     64    108  45.0  60.5  34280  291.60 0854.63
2009/04/23 13:02:30.2     -42     80     71     91    115 331.9  42.2  34272  291.49 0854.63
2009/04/23 13:02:30.3       5     68     24     69     74   4.5  19.2  34272  291.49 0854.63
2009/04/23 13:02:30.4      -1     15     35     16     38 355.5  75.0  34280  291.62 0854.63
2009/04/23 13:02:30.5      -5     -5      2      8      9 226.7  19.2  34278  291.59 0854.63
2009/04/23 13:02:30.6      -1     24     -7     25     25 357.3 -21.7  34276  291.54 0854.63
2009/04/23 13:02:30.7      21     69     41     73     83  16.9  32.4  34276  291.54 0854.63
2009/04/23 13:02:30.8      45    215    148    220    265  12.0  37.0  34322  292.31 0854.63
2009/04/23 13:02:30.9      85    178    133    198    238  25.5  37.3  34314  292.18 0854.63
2009/04/23 13:02:31.0      42    226    150    231    275  10.7  36.0  34340  292.62 0854.63
2009/04/23 13:02:31.1      58    181    157    191    247  17.8  43.7  34338  292.59 0854.63
2009/04/23 13:02:31.2      70    199     72    211    224  19.4  18.9  34306  292.06 0854.63
2009/04/23 13:02:31.3     249    199    110    319    338  51.4  19.1  34290  291.78 0854.63
2009/04/23 13:02:31.4     199    145     99    247    266  54.0  23.0  34294  291.85 0854.58
2009/04/23 13:02:31.5     227    189     58    296    302  50.2  11.1  34294  291.84 0854.58
2009/04/23 13:02:31.6     277    210    -35    348    350  52.8  -5.9  34260  291.28 0854.58
2009/04/23 13:02:31.7     219    214     60    307    313  45.6  11.1  34300  291.94 0854.58
2009/04/23 13:02:31.8     484    235     96    539    548  64.1  10.1  34288  291.74 0854.58
2009/04/23 13:02:31.9     416    195    157    460    487  64.8  18.9  34276  291.53 0854.58
2009/04/23 13:02:32.0     434    251     96    502    512  59.9  10.8  34258  291.24 0854.58
2009/04/23 13:02:32.1     384    292     45    483    486  52.7   5.3  34260  291.27 0854.58
2009/04/23 13:02:32.2     498    268    197    566    600  61.7  19.2  34250  291.10 0854.58
2009/04/23 13:02:32.3     642    287    122    704    715  65.9   9.9  34244  291.00 0854.58
2009/04/23 13:02:32.4     554    191    263    587    643  70.9  25.8  34288  291.73 0854.58
2009/04/23 13:02:32.5     635    241    241    680    722  69.2  19.5  34266  291.37 0854.58
2009/04/23 13:02:32.6     858    315     67    915    918  69.8   4.2  34238  290.89 0854.58
2009/04/23 13:02:32.7     778    353     26    855    856  65.6   1.8  34230  290.75 0854.58
2009/04/23 13:02:32.8     609    186     -9    638    639  73.0  -0.9  34242  290.96 0854.58
2009/04/23 13:02:32.9     663    184     13    689    690  74.5   1.1  34230  290.75 0854.58
2009/04/23 13:02:33.0     696    140   -144    711    726  78.6 -11.5  34238  290.88 0854.58
2009/04/23 13:02:33.1     749    295    -63    806    809  68.5  -4.5  34224  290.65 0854.58
2009/04/23 13:02:33.2     570    120     67    583    587  78.1   6.6  34228  290.73 0854.58
2009/04/23 13:02:33.3     500    -62    210    504    546  97.1  24.1  34234  290.82 0854.58
2009/04/23 13:02:33.4     364     -3    121    365    385  90.6  18.5  34230  290.76 0854.56
2009/04/23 13:02:33.5     400   -203    -53    449    453 117.0  -6.8  34240  290.92 0854.56
2009/04/23 13:02:33.6     196   -214    148    291    326 137.6  29.1  34238  290.88 0854.56
2009/04/23 13:02:33.7     436   -220     39    489    491 116.8   4.6  34236  290.85 0854.56
2009/04/23 13:02:33.8     491   -255     43    554    556 117.5   4.5  34244  290.99 0854.56
2009/04/23 13:02:33.9     400   -170     21    435    436 113.1   2.8  34246  291.02 0854.56
2009/04/23 13:02:34.0     501   -101    120    512    526 101.5  13.2  34264  291.33 0854.56
2009/04/23 13:02:34.1     294   -274     53    403    407 133.0   7.6  34250  291.09 0854.56
2009/04/23 13:02:34.2     186   -191    120    267    292 135.7  25.7  34268  291.39 0854.56
2009/04/23 13:02:34.3     208   -281    -20    350    351 143.5  -3.3  34266  291.37 0854.56
2009/04/23 13:02:34.4     396   -195    -47    442    445 116.3  -6.1  34270  291.43 0854.56
2009/04/23 13:02:34.5     384   -155    -11    415    416 112.0  -1.6  34270  291.43 0854.56
2009/04/23 13:02:34.6     209   -225    -57    308    314 137.2 -10.5  34260  291.27 0854.56
2009/04/23 13:02:34.7     201   -223    116    301    322 137.9  22.0  34256  291.19 0854.56
2009/04/23 13:02:34.8     116   -287    142    310    340 157.9  26.3  34248  291.08 0854.56
2009/04/23 13:02:34.9     308     32    163    310    350  83.9  30.1  34258  291.23 0854.56
2009/04/23 13:02:35.0     130   -113    194    173    259 131.1  53.7  34264  291.33 0854.56
2009/04/23 13:02:35.1      11    -73    184     74    198 171.1  77.1  34264  291.35 0854.56
2009/04/23 13:02:35.2      24   -120    171    123    210 168.5  60.6  34262  291.32 0854.56
2009/04/23 13:02:35.3      14   -328    169    329    369 177.5  29.3  34268  291.40 0854.56
2009/04/23 13:02:35.4      -5   -264    165    265    312 181.1  35.5  34282  291.63 0854.51
2009/04/23 13:02:35.5      50   -243    174    249    303 168.2  38.5  34260  291.26 0854.51
2009/04/23 13:02:35.6      31   -173    136    176    222 169.8  41.6  34252  291.13 0854.51
2009/04/23 13:02:35.7     -27   -132    124    135    183 191.6  47.7  34254  291.16 0854.51
2009/04/23 13:02:35.8     -57   -143    140    155    208 201.9  46.9  34250  291.11 0854.51
2009/04/23 13:02:35.9     -16    -40     69     44     81 201.8  64.7  34248  291.06 0854.51
2009/04/23 13:02:36.0      11     96    129     97    161   7.1  59.2  34242  290.96 0854.51
2009/04/23 13:02:36.1     -55     45    137     72    154 309.5  70.4  34246  291.03 0854.51
2009/04/23 13:02:36.2    -130     12    113    131    173 275.7  45.4  34248  291.06 0854.51
2009/04/23 13:02:36.3    -192     48     90    199    218 284.2  25.9  34242  290.98 0854.51
2009/04/23 13:02:36.4    -239     16     28    240    242 273.9   6.9  34238  290.90 0854.51
2009/04/23 13:02:36.5    -222    132     50    259    264 300.7  11.1  34232  290.80 0854.51
2009/04/23 13:02:36.7    -281    -16     13    282    283 266.7   2.8  34220  290.58 0854.51
2009/04/23 13:02:36.7    -185   -117    118    220    249 237.6  30.3  34232  290.80 0854.51
2009/04/23 13:02:36.8    -142     -2     27    143    146 269.2  11.0  34240  290.92 0854.51
2009/04/23 13:02:36.9    -233    -85     88    249    265 250.0  19.6  34244  290.99 0854.51
2009/04/23 13:02:37.0    -123    -78     -5    147    148 237.5  -2.2  34242  290.98 0854.51
2009/04/23 13:02:37.2     -88    -94     54    130    140 223.2  23.6  34246  291.04 0854.51
2009/04/23 13:02:37.2    -137    -91     -2    165    166 236.3  -0.7  34246  291.04 0854.51
2009/04/23 13:02:37.3    -122   -121    -28    173    176 225.3  -9.3  34234  290.84 0854.51
2009/04/23 13:02:37.4    -136   -172    -19    220    221 218.3  -5.2  34248  291.06 0854.51
2009/04/23 13:02:37.6    -159   -186     18    246    247 220.5   4.2  34268  291.41 0854.51
2009/04/23 13:02:37.7    -194   -215     14    290    291 222.1   2.8  34268  291.39 0854.51
2009/04/23 13:02:37.8    -227   -149     11    272    273 236.7   2.3  34252  291.12 0854.51
2009/04/23 13:02:37.9    -325   -193     64    379    385 239.3   9.7  34264  291.35 0854.51
2009/04/23 13:02:38.0    -249   -177    110    306    326 234.5  19.9  34268  291.39 0854.51
2009/04/23 13:02:38.1    -281   -199    124    345    367 234.7  19.9  34258  291.22 0854.51
2009/04/23 13:02:38.2    -195   -144    129    243    275 233.6  30.2  34254  291.16 0854.51
2009/04/23 13:02:38.3    -168    -65     73    181    195 248.9  23.0  34254  291.18 0854.51
2009/04/23 13:02:38.4     -90   -109     78    142    162 219.7  31.0  34270  291.45 0854.51
2009/04/23 13:02:38.5    -121    -88     46    150    158 234.1  17.3  34262  291.32 0854.53
2009/04/23 13:02:38.6     -76    -84     -4    114    115 221.9  -2.2  34274  291.52 0854.53
2009/04/23 13:02:38.7     -68    -18      6     71     72 255.0   4.9  34268  291.40 0854.53
2009/04/23 13:02:38.8      13    118    102    119    156   6.7  45.1  34266  291.37 0854.53
2009/04/23 13:02:38.9      -9    121    113    122    166 355.5  47.7  34256  291.20 0854.53
2009/04/23 13:02:39.0     -10    141    143    142    201 355.6  50.1  34244  290.99 0854.53
2009/04/23 13:02:39.1      26    153    147    156    214   9.7  48.5  34246  291.04 0854.53
2009/04/23 13:02:39.2     -72    150    149    167    223 334.4  46.4  34248  291.08 0854.53
2009/04/23 13:02:39.3     -85    129     68    155    169 326.6  25.3  34250  291.11 0854.53
2009/04/23 13:02:39.4    -126    131     36    183    187 316.1  11.1  34246  291.03 0854.53
2009/04/23 13:02:39.5    -137    128     75    188    202 313.1  23.0  34240  290.92 0854.53
2009/04/23 13:02:39.6    -140     67    101    156    185 295.8  35.6  34246  291.03 0854.53
2009/04/23 13:02:39.7    -215   -117    127    245    275 241.4  29.5  34246  291.04 0854.53
2009/04/23 13:02:39.8    -176   -132     52    221    228 233.1  13.2  34238  290.91 0854.53
2009/04/23 13:02:39.9    -133   -148     77    200    214 221.9  21.7  34236  290.87 0854.53
2009/04/23 13:02:40.0    -100   -108     41    148    154 222.8  15.6  34234  290.84 0854.53
2009/04/23 13:02:40.1      41    -50    -39     65     75 140.3 -39.9  34240  290.92 0854.53
2009/04/23 13:02:40.2      58      6    -65     59     87  83.9 -57.1  34240  290.92 0854.53
2009/04/23 13:02:40.3      77     91    -42    120    127  40.5 -23.8  34244  290.99 0854.53
2009/04/23 13:02:40.4     106    112    -21    155    157  43.2  -7.7  34240  290.92 0854.53
2009/04/23 13:02:40.5     164    159     24    229    231  46.0   6.1  34232  290.81 0854.54
2009/04/23 13:02:40.6     232     47     24    237    239  78.5   5.9  34242  290.95 0854.54
2009/04/23 13:02:40.7     270    171     87    320    332  57.6  15.3  34206  290.34 0854.54
2009/04/23 13:02:40.8     257     97    138    275    307  69.2  28.5  34226  290.70 0854.54
2009/04/23 13:02:40.9     225     45     44    230    235  78.6  11.0  34236  290.85 0854.54
2009/04/23 13:02:41.0     190     63    -72    201    214  71.6 -19.7  34230  290.75 0854.54
2009/04/23 13:02:41.1     361    115     96    379    392  72.3  14.3  34230  290.76 0854.54
2009/04/23 13:02:41.2     185     14    -23    186    188  85.6  -7.3  34224  290.67 0854.54
2009/04/23 13:02:41.3     224    106    -73    249    260  64.6 -16.4  34224  290.65 0854.54
2009/04/23 13:02:41.4     212    163    -61    268    275  52.3 -12.9  34222  290.63 0854.54
2009/04/23 13:02:41.5     372     91    -15    384    385  76.2  -2.2  34220  290.60 0854.54
2009/04/23 13:02:41.6     221    -42    -63    226    235 100.8 -15.8  34234  290.82 0854.54
2009/04/23 13:02:41.7     249    -68     14    259    260 105.3   3.1  34222  290.63 0854.54
2009/04/23 13:02:41.8     115     49     74    125    145  66.9  33.5  34224  290.65 0854.54
2009/04/23 13:02:41.9     110    122    129    165    209  42.1  42.0  34228  290.72 0854.54
2009/04/23 13:02:42.0     150    105     77    184    199  54.9  23.8  34222  290.64 0854.54
2009/04/23 13:02:42.1     189    160     29    248    250  49.8   6.7  34228  290.73 0854.54
2009/04/23 13:02:42.2     225    121     23    256    258  61.8   5.2  34226  290.70 0854.54
2009/04/23 13:02:42.3     186    163     12    248    249  48.9   2.8  34246  291.02 0854.54
2009/04/23 13:02:42.4     104    202     86    228    243  27.2  21.5  34252  291.14 0854.54
2009/04/23 13:02:42.5      13    213    -11    214    215   3.6  -3.1  34262  291.32 0854.54
2009/04/23 13:02:42.6     153    109     36    188    192  54.5  10.8  34252  291.15 0854.54
2009/04/23 13:02:42.7     155    136      0    207    208  48.9  -0.3  34246  291.03 0854.54
2009/04/23 13:02:42.8     237    127     76    269    280  61.8  15.8  34238  290.88 0854.54
2009/04/23 13:02:42.9     249    127    154    280    319  62.9  31.3  34228  290.73 0854.54
2009/04/23 13:02:43.0     288     70    133    297    325  76.3  25.8  34226  290.68 0854.54
2009/04/23 13:02:43.1     236     15    165    237    288  86.3  38.4  34236  290.85 0854.54
2009/04/23 13:02:43.2     162     56     46    172    179  70.9  15.2  34234  290.84 0854.54
2009/04/23 13:02:43.3     162    207     92    264    280  38.1  19.2  34242  290.95 0854.54
2009/04/23 13:02:43.4     208     35     25    211    213  80.3   6.9  34236  290.86 0854.54
2009/04/23 13:02:43.5     220     47     40    226    230  77.8  10.1  34234  290.82 0854.54
2009/04/23 13:02:43.6     271    114    133    295    323  67.2  26.0  34242  290.97 0854.54
2009/04/23 13:02:43.7     148    179    112    233    258  39.6  27.3  34280  291.60 0854.54
2009/04/23 13:02:43.8     147    125    148    194    244  49.6  41.4  34250  291.09 0854.54
2009/04/23 13:02:43.9     206    170    142    268    303  50.4  30.2  34306  292.06 0854.54
2009/04/23 13:02:44.0       5    242      2    243    244   1.4   0.5  34292  291.80 0854.54
2009/04/23 13:02:44.1    -121    191     98    227    247 327.5  24.9  34284  291.67 0854.54
2009/04/23 13:02:44.2     -11    186    160    187    246 356.6  44.8  34298  291.91 0854.54
2009/04/23 13:02:44.3      97    117    207    153    257  39.6  60.0  34274  291.50 0854.54
2009/04/23 13:02:44.4     278    139     66    311    319  63.4  12.0  34278  291.58 0854.56
2009/04/23 13:02:44.5     152    126    -86    198    215  50.4 -29.5  34276  291.55 0854.56
2009/04/23 13:02:44.6     156     93     24    182    184  59.1   7.8  34268  291.40 0854.56
2009/04/23 13:02:44.7     275     -8    -25    276    278  91.7  -5.2  34274  291.51 0854.56
2009/04/23 13:02:44.8     188     26     85    190    208  82.1  25.7  34278  291.57 0854.56
2009/04/23 13:02:44.9     -14    187     51    188    195 355.6  15.2  34290  291.79 0854.56
2009/04/23 13:02:45.0      24    143     38    146    151   9.7  14.7  34314  292.20 0854.56
2009/04/23 13:02:45.1      60    125     22    139    141  25.9   9.0  34338  292.61 0854.56
2009/04/23 13:02:45.2     165     43    -58    171    181  75.4 -18.7  34332  292.51 0854.56
2009/04/23 13:02:45.3     254     85     13    269    270  71.4   2.8  34310  292.11 0854.56
2009/04/23 13:02:45.4     151    111     77    188    203  53.6  23.1  34322  292.34 0854.56
2009/04/23 13:02:45.5     156     91    115    181    214  59.8  35.5  34324  292.35 0854.56
2009/04/23 13:02:45.6     177    151    122    233    263  49.6  30.1  34306  292.06 0854.56
2009/04/23 13:02:45.7     295    133    114    324    344  65.6  19.4  34308  292.10 0854.56
2009/04/23 13:02:45.8     309    164     70    351    359  62.0  11.3  34310  292.12 0854.56
2009/04/23 13:02:45.9     314    257    110    406    421  50.7  15.2  34304  292.03 0854.56
2009/04/23 13:02:46.0     529    230    113    577    589  66.5  11.1  34316  292.23 0854.56
2009/04/23 13:02:46.1     522    185     57    555    558  70.4   5.9  34298  291.91 0854.56
2009/04/23 13:02:46.2     456    289    283    540    609  57.6  29.9  34324  292.36 0854.56
2009/04/23 13:02:46.3     426    141    239    449    508  71.6  30.3  34308  292.09 0854.56
2009/04/23 13:02:46.4     552     71    126    557    572  82.6  12.8  34300  291.94 0854.58
2009/04/23 13:02:46.5     542     99    118    551    564  79.6  12.2  34266  291.38 0854.58
2009/04/23 13:02:46.6     426    261     89    500    508  58.5  10.1  34272  291.49 0854.58
2009/04/23 13:02:46.7     384    147     -9    412    413  69.0  -1.3  34266  291.36 0854.58
2009/04/23 13:02:46.8     402    131     23    423    424  71.9   3.1  34284  291.69 0854.58
2009/04/23 13:02:46.9     437    145    113    461    475  71.6  13.8  34306  292.04 0854.58
2009/04/23 13:02:47.0     420    155     96    448    459  69.7  12.2  34312  292.16 0854.58
2009/04/23 13:02:47.1     408    169      6    442    443  67.4   0.8  34290  291.77 0854.58
2009/04/23 13:02:47.2     435    222    199    489    527  62.9  23.4  34326  292.38 0854.58
2009/04/23 13:02:47.3     354    198    191    406    448  60.8  27.1  34306  292.06 0854.58
2009/04/23 13:02:47.4     207    265    132    337    361  38.0  22.7  34292  291.81 0854.58
2009/04/23 13:02:47.5     371    259     89    453    462  55.1  11.1  34246  291.02 0854.58
2009/04/23 13:02:47.6     451    163     71    480    486  70.1   8.5  34260  291.27 0854.58
2009/04/23 13:02:47.7     355    218    174    417    451  58.5  23.9  34268  291.41 0854.58
2009/04/23 13:02:47.8     450     77    259    457    525  80.2  32.1  34278  291.56 0854.58
2009/04/23 13:02:47.9     430     94    147    441    466  77.6  18.5  34270  291.43 0854.58
2009/04/23 13:02:48.0     294     29    114    296    317  84.3  22.2  34274  291.51 0854.58
2009/04/23 13:02:48.1     320    -39    140    323    352  97.0  25.0  34278  291.59 0854.58
2009/04/23 13:02:48.2     383    -89    140    394    418 103.2  20.3  34284  291.67 0854.58
2009/04/23 13:02:48.3     313    -62    119    320    341 101.2  21.3  34268  291.40 0854.58
2009/04/23 13:02:48.4     352    -75    103    361    376 102.1  16.0  34268  291.39 0854.57
2009/04/23 13:02:48.5     334    -24     67    335    342  94.3  11.3  34288  291.74 0854.57
2009/04/23 13:02:48.6     299   -156    -23    338    339 117.5  -3.9  34290  291.79 0854.57
2009/04/23 13:02:48.7     319    -16    113    320    340  93.0  19.5  34294  291.85 0854.57
2009/04/23 13:02:48.8     213   -135     12    253    254 122.4   2.8  34298  291.92 0854.57
2009/04/23 13:02:48.9     264    126     31    293    295  64.5   6.1  34254  291.16 0854.57
2009/04/23 13:02:49.0     421    315     80    527    534  53.2   8.7  34240  290.92 0854.57
2009/04/23 13:02:49.1     411    279     61    497    501  55.8   7.1  34238  290.88 0854.57
2009/04/23 13:02:49.2     347    182    -27    392    393  62.3  -4.0  34250  291.10 0854.57
2009/04/23 13:02:49.3     329    137    -50    357    361  67.4  -8.0  34240  290.94 0854.57
2009/04/23 13:02:49.4     278    201   -116    344    364  54.1 -18.7  34244  291.00 0854.57
2009/04/23 13:02:49.5     279    212      6    351    352  52.7   1.1  34260  291.27 0854.57
2009/04/23 13:02:49.6     294    152     16    332    333  62.6   2.9  34244  291.00 0854.57
2009/04/23 13:02:49.7     313    134     -8    341    342  66.8  -1.4  34272  291.47 0854.57
2009/04/23 13:02:49.8     242    163     -1    292    293  56.0  -0.3  34286  291.72 0854.57
2009/04/23 13:02:49.9     168    107     18    200    201  57.6   5.4  34292  291.81 0854.57
2009/04/23 13:02:50.0     248     93     48    266    271  69.4  10.3  34294  291.85 0854.57
2009/04/23 13:02:50.1     238    125    106    270    290  62.2  22.8  34286  291.72 0854.57
2009/04/23 13:02:50.2     150     88    108    175    205  59.6  34.8  34280  291.60 0854.57
2009/04/23 13:02:50.3     104     67     87    124    151  57.1  38.6  34272  291.49 0854.57
2009/04/23 13:02:50.4     158     68     78    173    189  66.7  26.2  34272  291.47 0854.54
2009/04/23 13:02:50.5     100     48    126    112    168  64.2  53.7  34286  291.71 0854.54
2009/04/23 13:02:50.6     114     30    179    119    214  75.0  63.4  34298  291.93 0854.54
2009/04/23 13:02:50.7     230     70    117    241    267  72.9  27.4  34264  291.33 0854.54
2009/04/23 13:02:50.8     298     60    131    304    331  78.6  24.8  34262  291.29 0854.54
2009/04/23 13:02:50.9     339    165    172    378    415  64.0  26.2  34272  291.48 0854.54
2009/04/23 13:02:51.0     249    226    245    337    416  47.7  39.7  34296  291.88 0854.54
2009/04/23 13:02:51.1     340    270    251    435    502  51.5  32.7  34268  291.42 0854.54
2009/04/23 13:02:51.2     251    160    139    298    328  57.4  26.9  34274  291.50 0854.54
2009/04/23 13:02:51.3     386    133    195    409    453  71.0  27.3  34320  292.30 0854.54
2009/04/23 13:02:51.4     436    159    168    465    495  70.0  19.9  34292  291.81 0854.54
2009/04/23 13:02:51.5     422    110    127    437    456  75.3  16.3  34280  291.62 0854.54
2009/04/23 13:02:51.6     367    151     78    398    406  67.6  11.1  34250  291.11 0854.54
2009/04/23 13:02:51.7     323    322    178    457    490  45.1  22.4  34258  291.25 0854.54
2009/04/23 13:02:51.8     367    350    113    508    521  46.4  12.6  34264  291.34 0854.54
2009/04/23 13:02:51.9     314    227     81    388    397  54.1  11.8  34258  291.23 0854.54
2009/04/23 13:02:52.0     349    163    134    386    409  65.0  19.2  34250  291.11 0854.54
2009/04/23 13:02:52.1     286    312     86    424    433  42.5  11.6  34244  291.01 0854.54
2009/04/23 13:02:52.2     180    257     67    314    322  35.0  12.2  34266  291.36 0854.54
2009/04/23 13:02:52.3     288    306    164    421    451  43.2  22.5  34260  291.28 0854.54
2009/04/23 13:02:52.4     323    322    222    457    508  45.1  27.8  34248  291.08 0854.55
2009/04/23 13:02:52.5     336    282    153    439    466  50.0  19.3  34260  291.26 0854.55
2009/04/23 13:02:52.6     348    228     75    417    424  56.7  10.2  34256  291.21 0854.55
2009/04/23 13:02:52.7     254    161     47    301    305  57.6   9.0  34266  291.36 0854.55
2009/04/23 13:02:52.8     149    156    -28    217    219  43.7  -7.5  34266  291.37 0854.55
2009/04/23 13:02:52.9     126    130    -50    182    189  44.1 -15.5  34270  291.43 0854.55
2009/04/23 13:02:53.0      31     91    -90     97    132  19.2 -52.3  34272  291.49 0854.55
2009/04/23 13:02:53.1     -24     50    -80     56     97 333.7 -66.5  34282  291.64 0854.55
2009/04/23 13:02:53.2       8     12    -72     15     73  32.6 -90.0  34282  291.64 0854.55
2009/04/23 13:02:53.3      76     35    -26     84     89  65.2 -17.6  34270  291.43 0854.55
2009/04/23 13:02:53.4     199     28    -23    202    204  82.0  -6.5  34258  291.25 0854.55
2009/04/23 13:02:53.5     163    -44    -60    170    181 105.3 -19.7  34260  291.28 0854.55
2009/04/23 13:02:53.6     208    -74     10    221    222 109.7   2.8  34266  291.37 0854.55
2009/04/23 13:02:53.7     120    -49     19    130    132 112.2   8.5  34262  291.30 0854.55
2009/04/23 13:02:53.8     196    -60     98    206    228 107.1  27.3  34264  291.33 0854.55
2009/04/23 13:02:53.9     274     -3    119    275    299  90.8  25.1  34268  291.41 0854.55
2009/04/23 13:02:54.0     262     53     68    268    277  78.6  14.3  34274  291.51 0854.55
2009/04/23 13:02:54.1     273    144    161    309    348  62.2  29.6  34262  291.30 0854.55
2009/04/23 13:02:54.2     328     53    108    333    351  80.8  18.0  34262  291.30 0854.55
2009/04/23 13:02:54.3     254    130     98    286    303  62.9  18.9  34268  291.41 0854.55
2009/04/23 13:02:54.4     232    128     57    266    273  61.1  12.2  34270  291.43 0854.54
2009/04/23 13:02:54.5     205     37     10    209    210  79.6   2.9  34268  291.42 0854.54
2009/04/23 13:02:54.6     213     77      0    227    228  70.1   0.2  34268  291.40 0854.54
2009/04/23 13:02:54.7     153     67     56    168    178  66.3  18.4  34268  291.40 0854.54
2009/04/23 13:02:54.8     145     84    -55    168    177  59.8 -18.3  34270  291.43 0854.54
2009/04/23 13:02:54.9     142     75     39    161    166  62.0  13.7  34276  291.54 0854.54
2009/04/23 13:02:55.0      70      1     32     71     77  89.2  26.2  34278  291.59 0854.54
2009/04/23 13:02:55.1     138    -44     85    145    168 107.7  33.1  34282  291.66 0854.54
2009/04/23 13:02:55.2     157     74    211    174    273  64.5  56.4  34280  291.61 0854.54
2009/04/23 13:02:55.3     124     90    188    154    243  54.0  56.4  34274  291.50 0854.54
2009/04/23 13:02:55.4     145    144    183    205    274  45.3  46.4  34278  291.56 0854.54
2009/04/23 13:02:55.5     133      0    206    134    245  90.0  64.1  34292  291.81 0854.54
2009/04/23 13:02:55.6      55     47    142     73    159  49.6  70.8  34298  291.91 0854.54
2009/04/23 13:02:55.7       2    -25    109     26    112 175.5  86.9  34300  291.95 0854.54
2009/04/23 13:02:55.8      42    -36    119     56    131 131.3  73.1  34310  292.12 0854.54
2009/04/23 13:02:55.9     102    -33    153    108    187 108.2  61.3  34294  291.86 0854.54
2009/04/23 13:02:56.0     114   -212    183    241    302 151.7  41.2  34288  291.75 0854.54
2009/04/23 13:02:56.1     122   -246    197    275    338 153.5  39.3  34284  291.68 0854.54
2009/04/23 13:02:56.2      57   -207    220    215    307 164.6  50.7  34294  291.84 0854.54
2009/04/23 13:02:56.3     -59   -258    230    265    350 192.9  45.4  34310  292.11 0854.54
2009/04/23 13:02:56.4     -90   -189     84    210    226 205.4  23.0  34304  292.01 0854.55
2009/04/23 13:02:56.5       0    -54    169     55    177 180.0  81.2  34330  292.47 0854.55
2009/04/23 13:02:56.6     -90   -137    214    165    270 213.4  58.5  34332  292.48 0854.55
2009/04/23 13:02:56.7     -42   -170    214    176    277 194.0  56.4  34324  292.36 0854.55
2009/04/23 13:02:56.8    -119   -179    267    216    343 213.6  56.9  34324  292.36 0854.55
2009/04/23 13:02:56.9    -159   -206    218    261    340 217.8  44.1  34326  292.38 0854.55
2009/04/23 13:02:57.0    -112   -235    191    261    323 205.5  40.0  34320  292.28 0854.55
2009/04/23 13:02:57.1    -100   -238    229    259    345 202.7  46.2  34302  291.99 0854.55
2009/04/23 13:02:57.2     -34   -243    233    246    338 188.0  48.4  34284  291.67 0854.55
2009/04/23 13:02:57.3     -24   -229    191    231    299 186.2  43.8  34286  291.72 0854.55
2009/04/23 13:02:57.4     -68   -238    116    248    273 196.0  27.1  34310  292.11 0854.55
2009/04/23 13:02:57.5     -81   -235    152    249    291 199.2  34.4  34306  292.04 0854.55
2009/04/23 13:02:57.6     -42   -246    188    250    312 189.8  40.8  34304  292.02 0854.55
2009/04/23 13:02:57.7     -33   -234    123    237    267 188.2  29.5  34292  291.82 0854.55
2009/04/23 13:02:57.8     -89   -270    173    285    333 198.3  34.1  34296  291.87 0854.55
2009/04/23 13:02:57.9    -101   -245    122    266    292 202.5  26.4  34292  291.82 0854.55
2009/04/23 13:02:58.0     -92   -213    133    233    268 203.4  32.3  34282  291.65 0854.55
2009/04/23 13:02:58.1     -68   -157    208    172    269 203.4  56.3  34274  291.51 0854.55
2009/04/23 13:02:58.2    -111   -251    160    275    318 203.8  32.8  34286  291.72 0854.55
2009/04/23 13:02:58.3    -186   -265     94    324    338 215.1  16.3  34290  291.78 0854.55
2009/04/23 13:02:58.4     -63   -229     32    238    241 195.6   7.8  34276  291.53 0854.55
2009/04/23 13:02:58.5     -15   -207     59    208    217 184.4  15.8  34276  291.54 0854.55
2009/04/23 13:02:58.6       0   -164    183    165    246 180.2  53.3  34292  291.81 0854.55
2009/04/23 13:02:58.7     -45   -201    191    207    281 192.7  47.9  34284  291.68 0854.55
2009/04/23 13:02:58.8     -15   -195    195    196    276 184.5  50.0  34262  291.31 0854.55
2009/04/23 13:02:58.9     -57   -152    118    163    201 200.5  39.7  34262  291.32 0854.55
2009/04/23 13:02:59.0      10   -151    137    152    204 176.0  46.6  34262  291.32 0854.55
2009/04/23 13:02:59.1     -38   -268    142    271    305 188.1  29.8  34254  291.17 0854.55
2009/04/23 13:02:59.2      -5   -217     94    218    237 181.4  24.9  34248  291.06 0854.55
2009/04/23 13:02:59.3     -77   -235     82    248    262 198.3  18.4  34258  291.22 0854.55
2009/04/23 13:02:59.4     -29   -249     90    251    267 186.7  19.9  34250  291.10 0854.55
2009/04/23 13:02:59.5     -73   -289     83    299    311 194.3  15.6  34246  291.04 0854.55
2009/04/23 13:02:59.6    -146   -235     59    277    284 211.9  12.2  34244  291.00 0854.55
2009/04/23 13:02:59.7    -123   -106     78    163    180 229.1  27.3  34246  291.04 0854.55
2009/04/23 13:02:59.8     -50    -72     51     88    101 214.7  32.4  34254  291.16 0854.55
2009/04/23 13:02:59.9     -60   -102     81    119    143 210.7  37.6  34250  291.11 0854.55
2009/04/23 13:03:00.0      16   -100    129    102    164 170.7  57.9  34248  291.06 0854.55
2009/04/23 13:03:00.1     -13   -163    115    164    200 184.9  38.6  34242  290.98 0854.55
2009/04/23 13:03:00.2       0   -190     81    191    207 180.2  24.6  34246  291.03 0854.55
2009/04/23 13:03:00.3       9   -103    157    104    188 174.7  63.6  34244  291.01 0854.55
2009/04/23 13:03:00.4     -19   -126    150    128    197 188.9  55.0  34242  290.98 0854.55
2009/04/23 13:03:00.5     -16    -80    137     82    159 191.6  66.4  34248  291.06 0854.55
2009/04/23 13:03:00.6     -23     67     57     71     91 340.8  43.7  34266  291.37 0854.55
2009/04/23 13:03:00.7     -17     67     82     70    107 345.7  55.4  34258  291.23 0854.55
2009/04/23 13:03:00.8      15    -56    114     59    128 164.9  71.0  34248  291.06 0854.55
2009/04/23 13:03:00.9     -37     -5    112     38    118 262.1  80.7  34244  290.99 0854.55
2009/04/23 13:03:01.0       7    -89    119     90    149 175.5  59.0  34234  290.82 0854.55
2009/04/23 13:03:01.1      -1     38     94     39    101 357.3  77.0  34242  290.96 0854.55
2009/04/23 13:03:01.2     -93     14     73     95    119 278.8  41.7  34246  291.04 0854.55
2009/04/23 13:03:01.3     -24     11    118     27    121 295.3  87.5  34248  291.06 0854.55
2009/04/23 13:03:01.4      21     64    104     68    124  18.3  64.1  34252  291.13 0854.55
2009/04/23 13:03:01.5      38    -98    129    106    166 158.6  56.4  34258  291.23 0854.55
2009/04/23 13:03:01.6      48   -144    114    152    190 161.5  40.7  34246  291.04 0854.55
2009/04/23 13:03:01.7      51   -195    130    202    240 165.3  35.7  34244  291.01 0854.55
2009/04/23 13:03:01.8     175   -155     85    235    249 131.6  20.7  34234  290.82 0854.55
2009/04/23 13:03:01.9     187   -212     45    284    288 138.6   9.0  34232  290.80 0854.55
2009/04/23 13:03:02.0     155   -278     47    319    323 150.8   8.5  34228  290.71 0854.55
2009/04/23 13:03:02.1     107   -268     43    289    293 158.2   8.5  34232  290.78 0854.55
2009/04/23 13:03:02.2     148   -266     15    305    306 150.8   2.9  34230  290.76 0854.55
2009/04/23 13:03:02.3     115   -233      7    260    261 153.7   1.7  34232  290.80 0854.55
2009/04/23 13:03:02.4      84   -229    -20    245    246 159.7  -4.9  34232  290.78 0854.55
2009/04/23 13:03:02.5      98   -235      3    255    256 157.3   0.8  34224  290.66 0854.55
2009/04/23 13:03:02.6      66   -196     56    208    216 161.3  15.2  34224  290.67 0854.55
2009/04/23 13:03:02.7     102   -275    146    294    328 159.5  28.4  34224  290.66 0854.55
2009/04/23 13:03:02.8      33   -235    154    238    283 172.0  35.7  34224  290.66 0854.55
2009/04/23 13:03:02.9      68   -257    174    266    317 165.1  36.4  34224  290.66 0854.55
2009/04/23 13:03:03.0      53   -259    148    265    303 168.4  31.4  34228  290.71 0854.55
2009/04/23 13:03:03.1      -4   -281    173    282    330 180.9  34.6  34228  290.73 0854.55
2009/04/23 13:03:03.2     -14   -200    142    201    246 184.0  38.6  34230  290.77 0854.55
2009/04/23 13:03:03.3       1   -155     90    156    180 179.5  32.7  34230  290.75 0854.55
2009/04/23 13:03:03.4      43   -157     96    163    189 164.6  33.1  34228  290.74 0854.57
2009/04/23 13:03:03.5     -39   -147     78    153    171 195.1  28.7  34230  290.75 0854.57
2009/04/23 13:03:03.7      29   -174     66    177    188 170.4  21.3  34230  290.75 0854.57
2009/04/23 13:03:03.7      98   -205     51    228    234 154.5  12.6  34230  290.75 0854.57
2009/04/23 13:03:03.9      78   -218     45    232    237 160.2  11.0  34232  290.80 0854.57
2009/04/23 13:03:04.0      92   -183     32    205    208 153.3   9.0  34228  290.74 0854.57
2009/04/23 13:03:04.1     125   -172     83    213    228 144.0  22.5  34230  290.77 0854.57
2009/04/23 13:03:04.2     163   -265     60    312    318 148.4  11.0  34224  290.66 0854.57
2009/04/23 13:03:04.3      81   -229     71    244    255 160.4  16.3  34230  290.75 0854.57
2009/04/23 13:03:04.4      45   -183     67    189    201 166.2  19.6  34228  290.74 0854.57
2009/04/23 13:03:04.5     102   -215     88    239    254 154.5  21.0  34222  290.61 0854.57
2009/04/23 13:03:04.6      48   -190    111    197    226 165.7  31.9  34224  290.65 0854.57
2009/04/23 13:03:04.7      60   -232    147    240    281 165.3  34.4  34228  290.73 0854.57
2009/04/23 13:03:04.8      35   -207    148    210    256 170.4  38.6  34234  290.82 0854.57
2009/04/23 13:03:04.9      59   -268    167    275    321 167.5  34.2  34230  290.75 0854.57
2009/04/23 13:03:05.0      79   -273    206    285    351 163.7  39.5  34226  290.69 0854.57
2009/04/23 13:03:05.1     109   -254    182    277    331 156.8  36.3  34228  290.73 0854.57
2009/04/23 13:03:05.2     144   -204    149    250    291 144.8  33.5  34224  290.66 0854.57
2009/04/23 13:03:05.3     180   -232    137    294    324 142.2  26.9  34222  290.63 0854.57
2009/04/23 13:03:05.4     141   -199    136    245    280 144.6  31.4  34226  290.68 0854.57
2009/04/23 13:03:05.5      73   -311     64    320    327 166.7  11.3  34224  290.65 0854.58
2009/04/23 13:03:05.6     149   -428    -10    454    455 160.8  -1.3  34220  290.58 0854.58
2009/04/23 13:03:05.7     166   -411     -2    444    445 157.9  -0.3  34218  290.55 0854.58
2009/04/23 13:03:05.8     190   -354     14    402    403 151.8   2.1  34218  290.55 0854.58
2009/04/23 13:03:05.9     210   -420     42    470    472 153.4   5.2  34218  290.57 0854.58
2009/04/23 13:03:06.0     153   -357     29    389    391 156.7   4.3  34218  290.55 0854.58
2009/04/23 13:03:06.1     215   -281    144    354    382 142.6  23.4  34220  290.59 0854.58
2009/04/23 13:03:06.2      39   -274    209    277    347 171.9  40.8  34220  290.59 0854.58
2009/04/23 13:03:06.3       0   -253    142    254    290 179.9  31.6  34220  290.59 0854.58
2009/04/23 13:03:06.4     121   -210     85    243    258 150.1  19.4  34222  290.63 0854.58
2009/04/23 13:03:06.5     140   -112     23    180    182 128.6   7.5  34218  290.57 0854.58
2009/04/23 13:03:06.6      53   -132     25    143    146 158.2  10.1  34220  290.60 0854.58
2009/04/23 13:03:06.7     -20   -170     39    172    177 186.7  12.9  34222  290.62 0854.58
2009/04/23 13:03:06.8     -38   -130     44    136    143 196.5  17.9  34226  290.69 0854.58
2009/04/23 13:03:06.9     -57   -135     71    147    163 203.2  27.8  34228  290.74 0854.58
2009/04/23 13:03:07.0     -52   -110     73    122    142 205.3  33.5  34218  290.57 0854.58
2009/04/23 13:03:07.1      24      8     27     26     37  71.6  48.2  34226  290.69 0854.58
2009/04/23 13:03:07.2      95     15     88     97    130  80.8  46.9  34226  290.70 0854.58
2009/04/23 13:03:07.3      95    -39    110    103    150 112.6  52.2  34226  290.70 0854.58
2009/04/23 13:03:07.4     201   -253    -43    324    327 141.5  -7.7  34226  290.70 0854.58
2009/04/23 13:03:07.5     155   -267    -85    309    321 149.9 -15.5  34218  290.54 0854.57
2009/04/23 13:03:07.6     199   -253    -51    323    328 141.8  -9.1  34218  290.54 0854.57
2009/04/23 13:03:07.7     127   -155    -68    201    213 140.8 -18.7  34218  290.57 0854.57
2009/04/23 13:03:07.8      73   -101    -39    125    130 144.0 -22.3  34220  290.60 0854.57
2009/04/23 13:03:07.9      50    -90     -4    104    105 151.0  -2.2  34220  290.58 0854.57
2009/04/23 13:03:08.0      67   -138    -16    154    155 154.1  -6.0  34220  290.58 0854.57
2009/04/23 13:03:08.1      62   -132     11    147    148 154.7   4.4  34216  290.52 0854.57
2009/04/23 13:03:08.2       1   -150     42    151    157 179.5  15.8  34220  290.60 0854.57
2009/04/23 13:03:08.3     -37   -109     58    116    129 198.7  28.7  34222  290.62 0854.57
2009/04/23 13:03:08.4     -56   -161    121    171    209 199.4  38.8  34228  290.72 0854.57
2009/04/23 13:03:08.5     -16   -173     78    174    190 185.6  25.9  34222  290.64 0854.57
2009/04/23 13:03:08.6      51   -149     22    158    160 160.8   8.2  34224  290.65 0854.57
2009/04/23 13:03:08.7      96   -145     35    175    179 146.4  11.6  34224  290.67 0854.57
2009/04/23 13:03:08.8      72   -171     52    186    194 157.1  15.6  34220  290.58 0854.57
2009/04/23 13:03:08.9     -14   -206     88    207    224 184.0  24.6  34214  290.48 0854.57
2009/04/23 13:03:09.0     -18   -291    162    292    333 183.6  31.4  34222  290.61 0854.57
2009/04/23 13:03:09.1     -39   -317    159    320    357 187.1  28.5  34222  290.62 0854.57
2009/04/23 13:03:09.2       9   -351    129    352    374 178.4  21.0  34214  290.49 0854.57
2009/04/23 13:03:09.3      14   -260    187    261    321 176.9  39.1  34216  290.51 0854.57
2009/04/23 13:03:09.4      47     -3    179     48    185  94.4  84.9  34224  290.65 0854.57
2009/04/23 13:03:09.5     -23   -500    153    501    525 182.7  17.0  34218  290.57 0854.57
2009/04/23 13:03:09.6     160   -339    -39    375    378 154.7  -6.0  34210  290.42 0854.57
2009/04/23 13:03:09.7      60   -201   -117    210    240 163.3 -35.8  34216  290.52 0854.57
2009/04/23 13:03:09.8      80   -248    -22    261    263 162.0  -4.9  34222  290.61 0854.57
2009/04/23 13:03:09.9     177   -113    153    211    260 122.5  39.5  34220  290.58 0854.57
2009/04/23 13:03:10.0     158   -164    118    229    257 136.1  29.3  34220  290.59 0854.57
2009/04/23 13:03:10.1     192   -226    -16    297    298 139.7  -3.1  34220  290.59 0854.57
2009/04/23 13:03:10.2     174   -272     34    323    325 147.4   6.1  34218  290.56 0854.57
2009/04/23 13:03:10.3     164   -242     25    293    295 145.7   5.0  34216  290.53 0854.57
2009/04/23 13:03:10.4      46   -229     -4    234    235 168.4  -1.1  34216  290.53 0854.57
2009/04/23 13:03:10.5      33   -247      3    250    251 172.2   0.8  34220  290.59 0854.57
2009/04/23 13:03:10.6     174   -154    105    233    255 131.6  26.2  34216  290.53 0854.57
2009/04/23 13:03:10.7     184   -224     90    291    305 140.6  17.3  34212  290.46 0854.57
2009/04/23 13:03:10.8     228   -354     83    422    431 147.2  11.1  34212  290.44 0854.57
2009/04/23 13:03:10.9     317   -452     41    553    555 144.9   4.3  34210  290.41 0854.57
2009/04/23 13:03:11.0     303   -332     84    450    458 137.6  10.6  34208  290.38 0854.57
2009/04/23 13:03:11.1     217   -372    -54    431    435 149.7  -7.2  34208  290.39 0854.57
2009/04/23 13:03:11.2     212   -275    -68    348    355 142.4 -11.1  34214  290.49 0854.57
2009/04/23 13:03:11.3     158   -192   -124    249    278 140.6 -32.9  34218  290.54 0854.57
2009/04/23 13:03:11.4     131   -220    -67    257    266 149.3 -14.7  34214  290.48 0854.56
2009/04/23 13:03:11.5       8   -196    -52    197    204 177.5 -15.0  34216  290.53 0854.56
2009/04/23 13:03:11.6     182   -309     84    359    369 149.5  13.2  34218  290.54 0854.56
2009/04/23 13:03:11.7     126   -212    104    247    268 149.2  24.1  34222  290.63 0854.56
2009/04/23 13:03:11.8      43   -140    138    147    201 163.0  48.0  34224  290.65 0854.56
2009/04/23 13:03:11.9       2   -149    135    150    201 179.1  46.6  34224  290.65 0854.56
2009/04/23 13:03:12.0     -85   -277     56    291    297 197.2  11.0  34218  290.54 0854.56
2009/04/23 13:03:12.1     -67   -143    -24    159    161 205.3  -8.6  34214  290.48 0854.56
2009/04/23 13:03:12.2     -79   -237     47    250    255 198.5  10.8  34212  290.46 0854.56
2009/04/23 13:03:12.3     -64   -368    -29    374    376 189.9  -4.5  34212  290.45 0854.56
2009/04/23 13:03:12.4    -179   -361     -8    403    404 206.4  -1.2  34220  290.58 0854.56
2009/04/23 13:03:12.5    -256   -350    -24    435    436 216.2  -3.2  34216  290.51 0854.56
2009/04/23 13:03:12.6    -226   -423     -2    480    481 208.1  -0.3  34212  290.44 0854.56
2009/04/23 13:03:12.7     -99   -375     59    388    393 194.8   8.7  34220  290.60 0854.56
2009/04/23 13:03:12.8      11   -288    143    289    322 177.8  28.2  34222  290.61 0854.56
2009/04/23 13:03:12.9      79   -399    206    407    456 168.7  29.1  34220  290.60 0854.56
2009/04/23 13:03:13.0     190   -294    210    351    409 147.2  33.8  34224  290.66 0854.56
2009/04/23 13:03:13.1     161   -314    189    353    400 152.8  30.3  34218  290.57 0854.56
2009/04/23 13:03:13.2     127   -436    224    455    507 163.7  28.2  34224  290.66 0854.56
2009/04/23 13:03:13.3     104   -514    171    525    553 168.6  18.0  34214  290.50 0854.56
2009/04/23 13:03:13.4     153   -490    116    514    528 162.6  12.8  34214  290.50 0854.56
2009/04/23 13:03:13.5      97   -458     91    469    478 168.0  11.0  34212  290.47 0854.56
2009/04/23 13:03:13.6      67   -388     16    394    395 170.1   2.3  34214  290.49 0854.56
2009/04/23 13:03:13.7      71   -432     97    438    449 170.7  12.6  34222  290.61 0854.56
2009/04/23 13:03:13.8      66   -464      0    469    470 171.9   0.0  34218  290.54 0854.56
2009/04/23 13:03:13.9     119   -531    -21    545    546 167.3  -2.2  34220  290.60 0854.56
2009/04/23 13:03:14.0     174   -533    -11    561    562 161.9  -1.2  34212  290.46 0854.56
2009/04/23 13:03:14.1     168   -503    -44    531    533 161.5  -4.8  34218  290.55 0854.56
2009/04/23 13:03:14.2     189   -518    -21    552    553 159.9  -2.2  34214  290.48 0854.56
2009/04/23 13:03:14.3     247   -583     55    634    637 157.1   5.0  34202  290.30 0854.56
2009/04/23 13:03:14.4     237   -501    157    555    577 154.6  15.8  34208  290.39 0854.56
2009/04/23 13:03:14.5     296   -471    196    557    591 147.9  19.4  34210  290.42 0854.56
2009/04/23 13:03:14.6     309   -378    118    489    503 140.8  13.6  34212  290.44 0854.56
2009/04/23 13:03:14.7     316   -335     58    461    465 136.7   7.2  34206  290.36 0854.56
2009/04/23 13:03:14.8     301   -214    111    370    387 125.4  16.8  34208  290.38 0854.56
2009/04/23 13:03:14.9     263   -295     -1    396    397 138.3  -0.3  34216  290.52 0854.56
2009/04/23 13:03:15.0     285   -337      5    442    443 139.7   0.7  34208  290.39 0854.56
2009/04/23 13:03:15.1     260   -324     25    416    417 141.2   3.5  34210  290.41 0854.56
2009/04/23 13:03:15.2     312   -376     56    489    493 140.3   6.6  34218  290.54 0854.56
2009/04/23 13:03:15.3     288   -302    113    418    434 136.3  15.2  34210  290.41 0854.56
2009/04/23 13:03:15.4     253   -209    229    329    400 129.5  38.3  34212  290.45 0854.56
2009/04/23 13:03:15.5      80   -128    210    152    259 147.9  60.5  34218  290.55 0854.56
2009/04/23 13:03:15.6      29   -166    156    169    229 169.8  47.9  34220  290.60 0854.56
2009/04/23 13:03:15.7      69   -209    232    221    320 161.7  51.4  34222  290.63 0854.56
2009/04/23 13:03:15.8      15   -175    173    176    246 174.9  49.8  34222  290.62 0854.56
2009/04/23 13:03:15.9      24   -168    165    170    236 171.8  49.0  34218  290.55 0854.56
2009/04/23 13:03:16.0     -56   -238     93    245    262 193.4  22.0  34214  290.49 0854.56
2009/04/23 13:03:16.1     -10   -218    115    219    247 182.7  30.1  34212  290.44 0854.56
2009/04/23 13:03:16.2     -59   -309    152    315    349 190.9  27.3  34204  290.33 0854.56
2009/04/23 13:03:16.3    -120   -321    177    344    386 200.6  29.3  34208  290.37 0854.56
2009/04/23 13:03:16.4    -100   -225    171    247    300 204.1  37.8  34212  290.44 0854.56
2009/04/23 13:03:16.5     -93   -147    142    175    225 212.5  43.7  34214  290.48 0854.56
2009/04/23 13:03:16.6    -167   -121    119    207    238 234.0  32.4  34212  290.45 0854.56
2009/04/23 13:03:16.7    -184   -143     92    234    251 232.2  22.5  34210  290.41 0854.56
2009/04/23 13:03:16.8    -182   -135     65    228    238 233.4  16.0  34212  290.46 0854.56
2009/04/23 13:03:16.9     -92    -69    104    116    155 233.1  46.9  34212  290.47 0854.56
2009/04/23 13:03:17.0     -59    -42    164     73    179 234.0  74.5  34218  290.57 0854.56
2009/04/23 13:03:17.1     -23    -69    154     73    170 198.7  72.9  34214  290.50 0854.56
2009/04/23 13:03:17.2     -57    -83    172    101    199 214.7  67.0  34216  290.52 0854.56
2009/04/23 13:03:17.3     -62    -62    158     89    181 225.0  68.5  34212  290.47 0854.56
2009/04/23 13:03:17.4    -107     23     89    110    141 282.4  43.7  34220  290.60 0854.56
2009/04/23 13:03:17.5    -104     88    117    137    180 310.0  44.8  34218  290.55 0854.56
2009/04/23 13:03:17.6    -103     20     59    105    120 281.0  31.9  34216  290.52 0854.56
2009/04/23 13:03:17.7    -118    118    -12    167    168 315.0  -4.1  34214  290.50 0854.56
2009/04/23 13:03:17.8     -10     48     92     50    104 348.4  68.8  34224  290.67 0854.56
2009/04/23 13:03:17.9     -62    138     62    152    164 335.9  23.4  34224  290.65 0854.56
2009/04/23 13:03:18.0     -62    104     56    122    134 329.3  27.1  34218  290.57 0854.56
2009/04/23 13:03:18.1    -122     58    130    136    188 295.4  48.7  34222  290.62 0854.56
2009/04/23 13:03:18.2    -121     96     96    155    182 308.6  35.0  34220  290.58 0854.56
2009/04/23 13:03:18.3     -46    124    142    133    194 339.5  52.0  34220  290.60 0854.56
2009/04/23 13:03:18.4     -93    127     97    158    185 323.9  34.8  34220  290.58 0854.56
2009/04/23 13:03:18.5     -49    232    156    238    284 348.0  36.5  34214  290.48 0854.56
2009/04/23 13:03:18.6     -43    253    171    257    308 350.3  36.7  34214  290.48 0854.56
2009/04/23 13:03:18.7      -1    221    168    222    278 359.5  40.9  34218  290.54 0854.56
2009/04/23 13:03:18.8       0    217    103    218    241   0.0  27.1  34218  290.56 0854.56
2009/04/23 13:03:18.9     -25    168    108    170    201 351.5  35.5  34216  290.52 0854.56
2009/04/23 13:03:19.0     -89    138    136    165    213 327.3  43.7  34218  290.55 0854.56
2009/04/23 13:03:19.1    -128    133    156    185    241 316.1  44.8  34228  290.74 0854.56
2009/04/23 13:03:19.2    -156    139    125    210    244 311.8  33.5  34246  291.02 0854.56
2009/04/23 13:03:19.3     -89    123    133    153    202 324.0  45.8  34282  291.64 0854.56
2009/04/23 13:03:19.4     -71    104    140    127    189 325.7  53.0  34282  291.66 0854.54
2009/04/23 13:03:19.5     -71     97    112    121    164 323.9  47.9  34276  291.54 0854.54
2009/04/23 13:03:19.6      -7    129     99    130    163 356.9  40.9  34302  291.98 0854.54
2009/04/23 13:03:19.7       9    123     30    124    128   4.5  13.7  34320  292.29 0854.54
2009/04/23 13:03:19.8      64    109     -4    127    128  30.3  -2.2  34306  292.05 0854.54
2009/04/23 13:03:19.9      28     60    117     67    134  25.5  67.2  34286  291.71 0854.54
2009/04/23 13:03:20.0      87     41    152     97    180  64.7  64.7  34324  292.37 0854.54
2009/04/23 13:03:20.1      45     45    109     64    126  45.1  66.8  34306  292.05 0854.54
2009/04/23 13:03:20.2      86     55    113    103    152  57.1  52.2  34284  291.69 0854.54
2009/04/23 13:03:20.3      55     59     92     81    122  43.2  54.2  34282  291.64 0854.54
2009/04/23 13:03:20.4      69     73     72    101    124  43.2  39.1  34278  291.57 0854.54
2009/04/23 13:03:20.5      32     87     85     93    125  20.5  47.9  34278  291.57 0854.54
2009/04/23 13:03:20.6      35     32     70     48     84  47.8  62.6  34282  291.66 0854.54
2009/04/23 13:03:20.7      34     72     81     80    113  25.4  49.7  34282  291.66 0854.54
2009/04/23 13:03:20.8      56    176     21    185    187  17.8   6.7  34282  291.66 0854.54
2009/04/23 13:03:20.9     101    102     33    144    148  44.5  13.2  34268  291.40 0854.54
2009/04/23 13:03:21.0     405    207    -73    455    461  62.9  -9.1  34230  290.77 0854.54
2009/04/23 13:03:21.1     456    185    -94    493    502  67.9 -10.8  34228  290.74 0854.54
2009/04/23 13:03:21.2     193    251     52    317    322  37.6   9.4  34262  291.31 0854.54
2009/04/23 13:03:21.3     301    271    192    406    449  48.0  27.1  34244  291.01 0854.54
2009/04/23 13:03:21.4     369    251    188    447    484  55.7  24.2  34250  291.10 0854.53
2009/04/23 13:03:21.5     128    311    273    337    433  22.4  43.3  34272  291.46 0854.53
2009/04/23 13:03:21.6     381    124     89    401    411  71.9  12.6  34226  290.68 0854.53
2009/04/23 13:03:21.7     219    225    -95    315    329  44.2 -16.8  34238  290.88 0854.53
2009/04/23 13:03:21.8     254    287    -53    384    388  41.4  -7.9  34238  290.91 0854.53
2009/04/23 13:03:21.9     151    261    101    302    319  30.1  18.6  34244  290.99 0854.53
2009/04/23 13:03:22.0     264    245    -96    361    374  47.1 -15.0  34238  290.91 0854.53
2009/04/23 13:03:22.1     430    191     85    471    479  66.0  10.3  34238  290.88 0854.53
2009/04/23 13:03:22.2     368    127      0    390    391  71.0   0.0  34234  290.83 0854.53
2009/04/23 13:03:22.3     367     93    133    379    402  75.7  19.4  34258  291.22 0854.53
2009/04/23 13:03:22.4     301     56    118    307    328  79.4  22.0  34260  291.27 0854.53
2009/04/23 13:03:22.5     287    -43    153    291    328  98.6  30.0  34262  291.31 0854.53
2009/04/23 13:03:22.6     314   -103    127    331    354 108.3  22.0  34254  291.17 0854.53
2009/04/23 13:03:22.7     130   -107     89    169    191 129.5  30.1  34252  291.15 0854.53
2009/04/23 13:03:22.8     146     53     13    156    157  70.0   4.9  34256  291.21 0854.53
2009/04/23 13:03:22.9      76     27    -75     81    110  70.0 -52.3  34256  291.20 0854.53
2009/04/23 13:03:23.0      78    -24     14     82     84 107.7  10.1  34258  291.23 0854.53
2009/04/23 13:03:23.1      43    -59     29     74     79 143.9  22.0  34260  291.26 0854.53
2009/04/23 13:03:23.2      53    -65     -6     84     85 140.8  -4.6  34262  291.32 0854.53
2009/04/23 13:03:23.3      78    -87    -32    118    123 138.1 -15.4  34262  291.32 0854.53
2009/04/23 13:03:23.4      45   -129     64    137    151 160.8  27.1  34266  291.38 0854.53
2009/04/23 13:03:23.5      98   -119     30    155    159 140.4  11.1  34256  291.20 0854.53
2009/04/23 13:03:23.6      32    -34    103     48    113 136.8  73.1  34262  291.32 0854.53
2009/04/23 13:03:23.7      33    -47    119     58    132 144.8  72.8  34264  291.35 0854.53
2009/04/23 13:03:23.8       0    -62     74     63     97 179.1  55.4  34268  291.40 0854.53
2009/04/23 13:03:23.9      31   -162    174    165    239 169.1  51.4  34274  291.50 0854.53
2009/04/23 13:03:24.0      29   -174    236    177    295 170.4  59.4  34270  291.43 0854.53
2009/04/23 13:03:24.1      40   -159    145    165    219 165.7  45.8  34266  291.38 0854.53
2009/04/23 13:03:24.2      25   -234    197    236    307 173.8  43.8  34258  291.22 0854.53
2009/04/23 13:03:24.3     -27   -240    169    242    295 186.5  38.5  34260  291.26 0854.53
2009/04/23 13:03:24.4     -42   -170    223    176    284 194.0  57.7  34262  291.29 0854.54
2009/04/23 13:03:24.5      19    -92    209     95    229 168.0  73.8  34268  291.40 0854.54
2009/04/23 13:03:24.6     141    -77    232    161    282 118.9  62.4  34264  291.33 0854.54
2009/04/23 13:03:24.7      -3     49    161     50    168 355.5  82.3  34264  291.35 0854.54
2009/04/23 13:03:24.8      48     12    156     50    163  75.8  81.6  34264  291.33 0854.54
2009/04/23 13:03:24.9     100    -24    220    103    242 103.7  73.2  34264  291.33 0854.54
2009/04/23 13:03:25.0     -11     49    183     51    189 347.5  84.1  34274  291.50 0854.54
2009/04/23 13:03:25.1     -41    -38    233     57    239 226.9  86.4  34260  291.26 0854.54
2009/04/23 13:03:25.2     138    -70    183    155    239 117.1  55.4  34246  291.03 0854.54
2009/04/23 13:03:25.3     227    -79    219    241    325 109.3  47.0  34240  290.93 0854.54
2009/04/23 13:03:25.4     226   -175    205    287    352 127.8  39.2  34252  291.15 0854.54
2009/04/23 13:03:25.5     127    -75    221    148    265 120.7  63.4  34248  291.05 0854.54
2009/04/23 13:03:25.6     171     21    202    173    265  83.0  55.4  34246  291.02 0854.54
2009/04/23 13:03:25.7     149     45     69    156    170  73.2  25.3  34246  291.04 0854.54
2009/04/23 13:03:25.8      76   -174    149    191    242 156.4  41.7  34252  291.13 0854.54
2009/04/23 13:03:25.9     -22     27    109     36    114 320.3  80.7  34258  291.23 0854.54
2009/04/23 13:03:26.0      11    109     55    110    122   6.2  28.2  34254  291.18 0854.54
2009/04/23 13:03:26.1      18    150     75    152    169   7.1  28.0  34248  291.08 0854.54
2009/04/23 13:03:26.2      70     33    -15     78     80  64.7 -10.9  34256  291.20 0854.54
2009/04/23 13:03:26.3      47     30    -15     56     59  57.6 -15.5  34256  291.20 0854.54
2009/04/23 13:03:26.4     -19     96      0     98     99 348.5  -0.3  34254  291.16 0854.54
2009/04/23 13:03:26.5      22    109      6    112    113  11.5   3.3  34254  291.16 0854.54
2009/04/23 13:03:26.6      56    118     58    131    143  25.3  25.1  34256  291.20 0854.54
2009/04/23 13:03:26.7     122    111     84    166    186  47.6  28.7  34250  291.09 0854.54
2009/04/23 13:03:26.8     137    103     89    172    193  53.1  29.5  34256  291.21 0854.54
2009/04/23 13:03:26.9      51     74    118     91    149  34.7  58.5  34258  291.23 0854.54
2009/04/23 13:03:27.0     127     81     99    151    180  57.5  36.3  34258  291.23 0854.54
2009/04/23 13:03:27.1     118    102    148    157    215  49.1  48.0  34262  291.30 0854.54
2009/04/23 13:03:27.2     177    104    147    206    253  59.4  38.8  34284  291.68 0854.54
2009/04/23 13:03:27.3     241    127    106    273    292  62.2  22.3  34284  291.67 0854.54
2009/04/23 13:03:27.4     158    223    196    274    336  35.4  39.2  34310  292.11 0854.54
2009/04/23 13:03:27.5      82    190    167    208    266  23.4  43.3  34314  292.19 0854.54
2009/04/23 13:03:27.6     133     76    123    154    197  60.2  42.7  34304  292.03 0854.54
2009/04/23 13:03:27.7      48     53     77     72    105  42.3  52.1  34296  291.88 0854.54
2009/04/23 13:03:27.8      15    110    124    112    167   8.1  53.3  34328  292.42 0854.54
2009/04/23 13:03:27.9      24     71    124     76    145  19.2  65.1  34336  292.56 0854.54
2009/04/23 13:03:28.0      76      0    105     77    130  90.0  60.5  34294  291.84 0854.54
2009/04/23 13:03:28.1     141     44    192    148    242  72.3  58.5  34278  291.59 0854.54
2009/04/23 13:03:28.2     214    -16    181    215    281  94.3  44.5  34280  291.61 0854.54
2009/04/23 13:03:28.3     357    -52    183    361    404  98.4  29.1  34292  291.81 0854.54
2009/04/23 13:03:28.4     256    -58    210    263    336 102.8  42.7  34266  291.38 0854.54
2009/04/23 13:03:28.5     268    -52    220    273    350 101.0  43.3  34280  291.61 0854.54
2009/04/23 13:03:28.6     281     58    212    288    357  78.3  40.0  34334  292.54 0854.54
2009/04/23 13:03:28.7     302    110    188    322    372  70.0  32.9  34314  292.20 0854.54
2009/04/23 13:03:28.8     239     65    193    248    314  74.7  41.9  34312  292.14 0854.54
2009/04/23 13:03:28.9     246     49    212    251    328  78.5  44.4  34310  292.13 0854.54
2009/04/23 13:03:29.0     363    120    187    383    426  71.6  27.9  34304  292.03 0854.54
2009/04/23 13:03:29.1     424     18    158    425    453  87.5  21.3  34310  292.11 0854.54
2009/04/23 13:03:29.2     429    -64    226    434    489  98.5  29.8  34258  291.24 0854.54
2009/04/23 13:03:29.3     331      3    182    332    378  89.4  31.3  34282  291.64 0854.54
2009/04/23 13:03:29.4     301     17    192    302    357  86.7  35.5  34300  291.95 0854.54
2009/04/23 13:03:29.5     346    -21    192    347    396  93.6  31.4  34248  291.05 0854.54
2009/04/23 13:03:29.6     376    -10    159    377    409  91.6  24.2  34238  290.88 0854.54
2009/04/23 13:03:29.7     325    -30    264    327    420  95.4  43.1  34250  291.11 0854.54
2009/04/23 13:03:29.8     355    -33    204    357    411  95.5  32.3  34248  291.05 0854.54
2009/04/23 13:03:29.9     231    -83    217    246    328 109.9  46.1  34246  291.02 0854.54
2009/04/23 13:03:30.0     253    -57    179    260    315 102.8  37.9  34238  290.90 0854.54
2009/04/23 13:03:30.1     283   -100    174    301    347 109.5  32.7  34234  290.83 0854.54
2009/04/23 13:03:30.2     345    -25    119    346    367  94.3  19.1  34224  290.67 0854.54
2009/04/23 13:03:30.3     338      2    138    339    366  89.5  23.4  34228  290.74 0854.54
2009/04/23 13:03:30.4     321     69    152    329    362  77.9  26.6  34240  290.93 0854.53
2009/04/23 13:03:30.5     387     56    152    392    420  81.7  22.4  34226  290.70 0854.53
2009/04/23 13:03:30.6     405     39    176    407    443  84.4  25.1  34234  290.82 0854.53
2009/04/23 13:03:30.7     230     25    225    232    323  83.8  49.1  34232  290.78 0854.53
2009/04/23 13:03:30.8     219     98    120    241    269  65.8  28.2  34222  290.61 0854.53
2009/04/23 13:03:30.9     116     69    159    136    209  59.3  55.4  34228  290.72 0854.53
2009/04/23 13:03:31.0       6    -21    139     23    140 163.1  90.0  34244  290.99 0854.53
2009/04/23 13:03:31.1     -19     31    100     37    106 327.5  79.7  34248  291.08 0854.53
2009/04/23 13:03:31.2      -1    -40    134     41    140 182.7  82.7  34256  291.20 0854.53
2009/04/23 13:03:31.4      17    -46    156     50    163 160.0  81.6  34262  291.30 0854.53
2009/04/23 13:03:31.5     -11   -119    147    120    189 185.3  56.4  34266  291.38 0854.53
2009/04/23 13:03:31.6      24   -107    148    110    184 167.1  60.0  34276  291.54 0854.53
2009/04/23 13:03:31.7     -40   -132    110    139    177 196.9  42.7  34272  291.49 0854.53
2009/04/23 13:03:31.8     -11    -91    117     92    148 187.1  57.9  34268  291.40 0854.53
2009/04/23 13:03:31.9      50     10     86     52    100  78.5  65.7  34266  291.38 0854.53
2009/04/23 13:03:32.0      73     28    124     79    147  69.2  64.7  34242  290.98 0854.53
2009/04/23 13:03:32.1      85      1    109     86    138  88.7  57.9  34256  291.21 0854.53
2009/04/23 13:03:32.2      12     79     57     80     98   8.9  39.5  34254  291.16 0854.53
2009/04/23 13:03:32.3     -24    -73    103     78    129 198.7  59.0  34266  291.37 0854.53
2009/04/23 13:03:32.4      30     15     98     34    103  62.9  81.2  34276  291.55 0854.53
2009/04/23 13:03:32.5      89      0     89     90    126  90.0  50.0  34270  291.45 0854.53
2009/04/23 13:03:32.6      88    -42     81     98    127 115.4  43.8  34274  291.52 0854.53
2009/04/23 13:03:32.7      27   -103     46    107    116 165.3  24.6  34276  291.55 0854.53
2009/04/23 13:03:32.8       0   -194     -8    195    196 180.2  -2.6  34270  291.43 0854.53
2009/04/23 13:03:32.9       8   -114      1    115    116 175.5   0.8  34260  291.26 0854.53
2009/04/23 13:03:33.0     -27   -181    -52    184    192 188.5 -15.8  34246  291.03 0854.53
2009/04/23 13:03:33.1      10   -140    -42    141    147 175.5 -21.7  34236  290.86 0854.53
2009/04/23 13:03:33.2     -64   -136     63    151    163 205.4  23.8  34260  291.28 0854.53
2009/04/23 13:03:33.3    -151   -151    135    214    253 225.0  35.5  34260  291.26 0854.53
2009/04/23 13:03:33.4    -133   -182    199    226    301 216.3  45.9  34266  291.36 0854.53
2009/04/23 13:03:33.5    -146   -116    123    187    223 231.6  36.3  34266  291.37 0854.53
2009/04/23 13:03:33.6    -173    -72     75    188    202 247.4  23.0  34274  291.52 0854.53
2009/04/23 13:03:33.7    -151   -133     39    202    206 228.7  11.1  34266  291.38 0854.53
2009/04/23 13:03:33.8    -116   -121     42    168    174 223.7  14.3  34270  291.45 0854.53
2009/04/23 13:03:33.9    -113   -105     -1    155    156 226.9  -0.5  34268  291.42 0854.53
2009/04/23 13:03:34.0     -63    -99     46    118    126 212.5  22.0  34262  291.32 0854.53
2009/04/23 13:03:34.1      16   -150    112    151    188 173.8  40.1  34248  291.08 0854.53
2009/04/23 13:03:34.2      46   -156     13    163    164 163.3   4.6  34254  291.18 0854.53
2009/04/23 13:03:34.3      63    -85    -61    107    123 143.5 -37.3  34246  291.04 0854.53
2009/04/23 13:03:34.4     131    -95    -42    163    169 126.0 -14.7  34238  290.91 0854.53
2009/04/23 13:03:34.5     147    -92      4    174    175 122.2   1.6  34230  290.77 0854.52
2009/04/23 13:03:34.6     168    -81     10    187    188 116.0   3.1  34224  290.67 0854.52
2009/04/23 13:03:34.7     133    -68    -67    150    164 117.0 -30.1  34232  290.81 0854.52
2009/04/23 13:03:34.8     106    -16    -60    108    123  98.8 -35.8  34228  290.74 0854.52
2009/04/23 13:03:34.9      96      6     30     97    102  86.1  17.3  34222  290.64 0854.52
2009/04/23 13:03:35.0      54     -6     74     55     92  97.0  59.4  34228  290.72 0854.52
2009/04/23 13:03:35.1      56    -17    103     59    118 106.8  67.7  34234  290.84 0854.52
2009/04/23 13:03:35.2      43    -45     93     63    112 135.9  62.6  34236  290.86 0854.52
2009/04/23 13:03:35.3      74     15     91     76    118  78.5  55.8  34240  290.92 0854.52
2009/04/23 13:03:35.4      51    -42     83     67    106 129.5  56.4  34240  290.92 0854.52
2009/04/23 13:03:35.5      12    -30     74     33     81 158.2  74.5  34244  290.99 0854.52
2009/04/23 13:03:35.6      66    -17     80     69    105 105.1  54.8  34242  290.98 0854.52
2009/04/23 13:03:35.7      35    -44     95     57    110 141.3  65.7  34240  290.94 0854.52
2009/04/23 13:03:35.8      21     12     87     25     90  59.3  83.9  34244  290.99 0854.52
2009/04/23 13:03:35.9      32      7     98     33    103  76.7  81.0  34242  290.98 0854.52
2009/04/23 13:03:36.0     -13    -40     75     43     86 197.8  67.2  34236  290.87 0854.52
2009/04/23 13:03:36.1      48    -78     99     92    135 148.4  52.2  34236  290.86 0854.52
2009/04/23 13:03:36.2      14      9     75     17     76  57.6  88.0  34238  290.91 0854.52
2009/04/23 13:03:36.3     -40     14     66     43     78 289.1  64.6  34240  290.94 0854.52
2009/04/23 13:03:36.4       2    -31     92     32     97 175.5  81.2  34236  290.87 0854.50
2009/04/23 13:03:36.5      49     50     81     71    107  44.1  54.3  34242  290.98 0854.50
2009/04/23 13:03:36.6      -7     22     96     24     98 341.3  85.4  34240  290.94 0854.50
2009/04/23 13:03:36.7       1    -84    149     85    171 179.1  67.7  34230  290.77 0854.50
2009/04/23 13:03:36.8       7    -99    106    100    145 175.5  52.1  34232  290.79 0854.50
2009/04/23 13:03:36.9      29   -109    110    113    157 164.9  49.2  34234  290.82 0854.50
2009/04/23 13:03:37.0     -37   -165    173    170    242 192.7  50.4  34240  290.94 0854.50
2009/04/23 13:03:37.1    -112   -229    147    255    294 206.1  32.4  34248  291.07 0854.50
2009/04/23 13:03:37.2     -23   -138    191    140    236 189.7  60.5  34252  291.13 0854.50
2009/04/23 13:03:37.3      52   -158    132    167    212 161.7  42.2  34250  291.09 0854.50
2009/04/23 13:03:37.4      38   -142    119    148    189 164.8  43.3  34248  291.06 0854.50
2009/04/23 13:03:37.5      62   -141    121    155    196 156.3  42.0  34242  290.98 0854.50
2009/04/23 13:03:37.6      57   -142    123    154    197 158.1  42.7  34230  290.75 0854.50
2009/04/23 13:03:37.7      17   -133    136    135    191 172.4  49.9  34248  291.08 0854.50
2009/04/23 13:03:37.8      29   -131    125    135    183 167.5  47.9  34242  290.96 0854.50
2009/04/23 13:03:37.9      27   -135    106    138    174 168.4  41.4  34234  290.82 0854.50
2009/04/23 13:03:38.0      20   -143    109    145    181 171.9  40.7  34230  290.77 0854.50
2009/04/23 13:03:38.1      14   -191    139    192    237 175.5  39.5  34226  290.70 0854.50
2009/04/23 13:03:38.2      36   -177    124    181    219 168.4  37.6  34240  290.92 0854.50
2009/04/23 13:03:38.3      13   -163    143    164    217 175.3  45.8  34238  290.91 0854.50
2009/04/23 13:03:38.4      47   -197    153    203    254 166.4  40.7  34236  290.85 0854.50
2009/04/23 13:03:38.5       2   -190    153    191    244 179.1  43.0  34234  290.82 0854.50
2009/04/23 13:03:38.6      16   -172     92    173    195 174.4  30.1  34236  290.87 0854.50
2009/04/23 13:03:38.7     120    -93     96    153    180 127.8  35.2  34242  290.96 0854.50
2009/04/23 13:03:38.8     108   -182     71    212    224 149.3  18.6  34238  290.91 0854.50
2009/04/23 13:03:38.9      55   -197     95    205    225 164.2  27.1  34232  290.79 0854.50
2009/04/23 13:03:39.0      52   -208     86    215    231 166.0  23.0  34230  290.77 0854.50
2009/04/23 13:03:39.1     115   -157    117    195    227 143.7  34.0  34230  290.75 0854.50
2009/04/23 13:03:39.2     109    -93     93    144    171 130.4  35.7  34230  290.75 0854.50
2009/04/23 13:03:39.3      58   -164     85    175    194 160.4  27.4  34230  290.77 0854.50
2009/04/23 13:03:39.4     152   -195     87    248    263 142.1  19.4  34238  290.88 0854.50
2009/04/23 13:03:39.5      42   -234     66    238    248 169.8  15.6  34232  290.78 0854.50
2009/04/23 13:03:39.6      37   -181     78    185    200 168.2  24.1  34228  290.72 0854.50
2009/04/23 13:03:39.7     101    -81     74    130    149 128.6  31.9  34240  290.92 0854.50
2009/04/23 13:03:39.8     157    -78     82    176    194 116.4  27.1  34238  290.89 0854.50
2009/04/23 13:03:39.9      99   -152    -36    182    186 147.0 -11.3  34234  290.84 0854.50
2009/04/23 13:03:40.0     176    -78     63    193    204 114.0  18.1  34242  290.96 0854.50
2009/04/23 13:03:40.1     197    -64     63    208    218 108.2  16.8  34244  291.01 0854.50
2009/04/23 13:03:40.2     178    -92     47    201    207 117.5  13.2  34236  290.87 0854.50
2009/04/23 13:03:40.3     187    -73     72    201    213 111.5  20.2  34228  290.72 0854.50
2009/04/23 13:03:40.4     176    -97     77    201    215 118.9  21.7  34230  290.77 0854.50
2009/04/23 13:03:40.5     111   -120     62    164    175 137.2  21.3  34232  290.81 0854.50
2009/04/23 13:03:40.6     103   -185     33    212    215 150.8   9.0  34228  290.74 0854.50
2009/04/23 13:03:40.7     114   -179     58    213    221 147.5  15.3  34232  290.81 0854.50
2009/04/23 13:03:40.8      87   -160     35    183    187 151.5  11.0  34230  290.75 0854.50
2009/04/23 13:03:40.9      46   -129     12    138    139 160.4   5.0  34236  290.86 0854.50
2009/04/23 13:03:41.0      -6   -102    -34    103    108 183.6 -23.8  34234  290.82 0854.50
2009/04/23 13:03:41.1     -46   -110    -28    120    124 202.7 -13.3  34230  290.75 0854.50
2009/04/23 13:03:41.2     -10   -132      2    133    134 184.5   1.2  34234  290.82 0854.50
2009/04/23 13:03:41.3      -7   -156     29    157    160 182.6  10.6  34232  290.79 0854.50
2009/04/23 13:03:41.4       0   -169     33    170    174 180.0  11.1  34228  290.74 0854.50
2009/04/23 13:03:41.5       0   -169     93    170    193 179.8  31.3  34226  290.69 0854.50
2009/04/23 13:03:41.6     -15   -178    105    179    207 184.9  33.4  34230  290.77 0854.50
2009/04/23 13:03:41.7     -17   -219    109    220    245 184.5  28.2  34230  290.76 0854.50
2009/04/23 13:03:41.8      42   -191     27    196    198 167.5   8.0  34226  290.70 0854.50
2009/04/23 13:03:41.9      46   -162    105    169    198 164.2  35.0  34232  290.79 0854.50
2009/04/23 13:03:42.0      92   -166     83    190    207 151.0  25.1  34226  290.70 0854.50
2009/04/23 13:03:42.1      43   -179    108    185    214 166.4  33.4  34228  290.72 0854.50
2009/04/23 13:03:42.2      35   -175     70    179    192 168.4  22.5  34230  290.75 0854.50
2009/04/23 13:03:42.3      43   -123     78    131    152 160.8  33.5  34228  290.72 0854.50
2009/04/23 13:03:42.4      60   -127     53    141    150 154.7  21.5  34224  290.65 0854.49
2009/04/23 13:03:42.5     162   -221     -3    275    276 143.7  -0.7  34224  290.65 0854.49
2009/04/23 13:03:42.6     253   -360    103    441    453 144.9  13.2  34220  290.60 0854.49
2009/04/23 13:03:42.7     244   -344    -66    422    428 144.6  -8.9  34220  290.60 0854.49
2009/04/23 13:03:42.8     209   -267     11    340    341 141.9   1.9  34224  290.67 0854.49
2009/04/23 13:03:42.9     154   -279     23    319    320 151.1   4.2  34222  290.63 0854.49
2009/04/23 13:03:43.0     111   -359    147    376    403 162.7  22.4  34218  290.55 0854.49
2009/04/23 13:03:43.1     132   -327    160    353    387 157.9  26.2  34226  290.69 0854.49
2009/04/23 13:03:43.2      24   -350    136    351    376 176.0  22.4  34228  290.71 0854.49
2009/04/23 13:03:43.3      41   -301    159    304    343 172.2  29.8  34224  290.66 0854.49
2009/04/23 13:03:43.4      -3   -303    115    304    325 180.7  21.6  34226  290.68 0854.49
2009/04/23 13:03:43.5     -74   -338     61    347    353 192.4  10.0  34226  290.69 0854.49
2009/04/23 13:03:43.6     -78   -296     -6    307    308 194.9  -1.2  34226  290.68 0854.49
2009/04/23 13:03:43.7     -66   -330     66    337    344 191.4  11.1  34224  290.67 0854.49
2009/04/23 13:03:43.8     -68   -322     87    330    342 192.0  14.9  34224  290.67 0854.49
2009/04/23 13:03:43.9     -82   -313    115    324    344 194.8  19.6  34228  290.71 0854.49
2009/04/23 13:03:44.0    -149   -299     90    335    348 206.5  15.1  34222  290.62 0854.49
2009/04/23 13:03:44.1    -121   -212    -18    245    246 209.6  -4.4  34226  290.70 0854.49
2009/04/23 13:03:44.2      22   -215    -27    217    219 174.0  -7.2  34224  290.67 0854.49
2009/04/23 13:03:44.3      57   -159     80    170    187 160.2  27.1  34226  290.69 0854.49
2009/04/23 13:03:44.4      97   -144     22    174    176 145.9   7.2  34228  290.72 0854.49
2009/04/23 13:03:44.5     139    -99     38    171    176 125.5  12.6  34228  290.74 0854.49
2009/04/23 13:03:44.6      43   -120     49    128    137 160.0  21.5  34228  290.72 0854.49
2009/04/23 13:03:44.7     -76   -129     69    150    165 210.7  26.4  34230  290.77 0854.49
2009/04/23 13:03:44.8     -83    -90     43    123    131 222.8  19.4  34228  290.74 0854.49
2009/04/23 13:03:44.9     -61   -139     97    152    180 203.7  35.5  34230  290.77 0854.49
2009/04/23 13:03:45.0     -33   -126    132    131    185 194.7  49.7  34232  290.81 0854.49
2009/04/23 13:03:45.1     -23   -114    115    117    164 191.6  50.0  34236  290.86 0854.49
2009/04/23 13:03:45.2     -48    -45     73     67     99 226.9  52.2  34232  290.79 0854.49
2009/04/23 13:03:45.3      30      2     95     31     99  85.6  80.7  34242  290.96 0854.49
2009/04/23 13:03:45.4      40    -20    119     45    127 117.1  78.6  34246  291.04 0854.50
2009/04/23 13:03:45.5     -23   -106    138    109    175 192.5  57.7  34236  290.86 0854.50
2009/04/23 13:03:45.6     -31   -173     99    176    201 190.2  31.9  34230  290.77 0854.50
2009/04/23 13:03:45.7     -49   -148     87    157    179 198.5  31.4  34230  290.77 0854.50
2009/04/23 13:03:45.8     -54    -72     82     91    122 217.0  46.9  34230  290.77 0854.50
2009/04/23 13:03:45.9     -53    -55     73     77    106 224.1  48.5  34234  290.82 0854.50
2009/04/23 13:03:46.0     -31    -35     58     47     74 221.4  56.4  34236  290.86 0854.50
2009/04/23 13:03:46.1     -23    -23     44     33     55 225.0  59.4  34240  290.92 0854.50
2009/04/23 13:03:46.2     -23     16     23     29     37 304.2  43.7  34238  290.91 0854.50
2009/04/23 13:03:46.3      -4     14      8     15     17 341.5  31.4  34242  290.98 0854.50
2009/04/23 13:03:46.4       0     15     13     16     20 357.3  43.7  34240  290.92 0854.50
2009/04/23 13:03:46.5     -21     31      1     38     39 325.7   2.9  34238  290.89 0854.50
2009/04/23 13:03:46.6     -51     86      0    101    102 329.3  -0.3  34232  290.81 0854.50
2009/04/23 13:03:46.7     -25     96     21    100    103 345.3  12.2  34238  290.91 0854.50
2009/04/23 13:03:46.8      13    100     41    101    109   7.6  23.0  34232  290.81 0854.50
2009/04/23 13:03:46.9      -4    123     76    124    145 357.8  35.0  34232  290.81 0854.50
2009/04/23 13:03:47.0      37    122     76    128    148  16.9  33.5  34232  290.81 0854.50
2009/04/23 13:03:47.1      56    111     68    125    142  27.1  31.3  34232  290.81 0854.50
2009/04/23 13:03:47.2      69    102     66    124    140  34.2  30.8  34234  290.82 0854.50
2009/04/23 13:03:47.3     111     93     65    145    158  50.0  25.9  34234  290.84 0854.50
2009/04/23 13:03:47.4     154     21     79    156    174  82.0  28.7  34260  291.28 0854.50
2009/04/23 13:03:47.5     162     26     66    165    177  80.8  23.0  34264  291.35 0854.50
2009/04/23 13:03:47.6     221     55     28    228    230  75.8   7.1  34290  291.77 0854.50
2009/04/23 13:03:47.7     232     58    130    240    272  75.8  31.0  34322  292.33 0854.50
2009/04/23 13:03:47.8     253     17     69    254    264  86.1  15.3  34292  291.80 0854.50
2009/04/23 13:03:47.9     170     67    123    184    221  68.3  36.7  34318  292.25 0854.50
2009/04/23 13:03:48.0     206     67    140    217    258  71.8  35.7  34316  292.23 0854.50
2009/04/23 13:03:48.1     198     40    108    202    229  78.5  30.6  34272  291.47 0854.50
2009/04/23 13:03:48.2      96     10     57     97    112  83.9  33.5  34282  291.66 0854.50
2009/04/23 13:03:48.3       0    -40    119     41    125 180.0  81.2  34266  291.37 0854.50
2009/04/23 13:03:48.4      22    -72     76     76    107 163.1  50.1  34264  291.35 0854.50
2009/04/23 13:03:48.5      -7    -35     41     36     54 191.6  53.3  34270  291.43 0854.50
2009/04/23 13:03:48.6       7    -50     34     51     61 171.1  36.5  34272  291.49 0854.50
2009/04/23 13:03:48.7     -35   -108     67    114    132 198.3  33.4  34266  291.38 0854.50
2009/04/23 13:03:48.8     -10   -134    109    135    173 184.4  43.3  34238  290.91 0854.50
2009/04/23 13:03:48.9     -25   -147    171    150    227 189.8  54.3  34230  290.77 0854.50
2009/04/23 13:03:49.0     -39   -184    188    189    266 192.0  50.0  34230  290.75 0854.50
2009/04/23 13:03:49.1    -111   -217    167    245    296 207.2  37.6  34244  290.99 0854.50
2009/04/23 13:03:49.2     -63   -187    173    198    262 198.7  45.8  34228  290.71 0854.50
2009/04/23 13:03:49.3     -74   -274    191    284    342 195.2  37.0  34228  290.71 0854.50
2009/04/23 13:03:49.4     -99   -273    199    291    352 200.1  37.7  34228  290.72 0854.50
2009/04/23 13:03:49.5     -83   -250    195    264    328 198.5  40.1  34226  290.68 0854.50
2009/04/23 13:03:49.6     -62   -234    218    243    326 194.9  46.5  34230  290.75 0854.50
2009/04/23 13:03:49.7     -37   -248    187    251    313 188.5  40.6  34226  290.70 0854.50
2009/04/23 13:03:49.8     -58   -253    242    260    355 192.9  47.9  34232  290.78 0854.50
2009/04/23 13:03:49.9     -57   -171    164    181    244 198.5  47.0  34230  290.77 0854.50
2009/04/23 13:03:50.0    -110   -214    110    241    264 207.4  26.2  34228  290.71 0854.50
2009/04/23 13:03:50.1    -147   -103     91    180    201 234.9  29.1  34232  290.81 0854.50
2009/04/23 13:03:50.2      -9     41    154     43    159 347.5  84.1  34252  291.15 0854.50
2009/04/23 13:03:50.3     -14     30     47     34     58 334.7  60.5  34240  290.92 0854.50
2009/04/23 13:03:50.4      21     13     36     26     44  57.5  60.5  34238  290.89 0854.50
2009/04/23 13:03:50.5      85     80     46    118    126  46.8  22.0  34232  290.79 0854.50
2009/04/23 13:03:50.6     101    126     28    162    165  38.7  10.1  34236  290.86 0854.50
2009/04/23 13:03:50.7      61     96     64    114    130  32.5  31.9  34238  290.91 0854.50
2009/04/23 13:03:50.8     194     61      4    204    205  72.5   1.2  34230  290.77 0854.50
2009/04/23 13:03:50.9     139     27     22    142    144  79.0   9.0  34234  290.82 0854.50
2009/04/23 13:03:51.0     122      0     67    123    140  90.0  31.3  34240  290.92 0854.50
2009/04/23 13:03:51.1      81    -24     92     85    125 106.4  52.2  34248  291.06 0854.50
2009/04/23 13:03:51.2      45    -45     60     65     88 135.0  47.9  34250  291.11 0854.50
2009/04/23 13:03:51.3     101    -13     98    102    141  97.5  49.0  34252  291.15 0854.50
2009/04/23 13:03:51.4     112     30     47    117    126  74.9  23.0  34256  291.20 0854.48
2009/04/23 13:03:51.5      77     39     21     87     90  62.9  13.7  34264  291.33 0854.48
2009/04/23 13:03:51.6      92      5     65     93    113  86.5  38.0  34272  291.47 0854.48
2009/04/23 13:03:51.7     151     82     -9    172    173  61.4  -3.3  34300  291.95 0854.48
2009/04/23 13:03:51.8      63     44     61     77     98  54.9  43.3  34298  291.91 0854.48
2009/04/23 13:03:51.9      93    -18     39     95    102 101.5  23.1  34298  291.93 0854.48
2009/04/23 13:03:52.0      15     44      8     47     48  19.2  10.1  34300  291.95 0854.48
2009/04/23 13:03:52.1      11    108     20    109    111   6.2  10.6  34308  292.08 0854.48
2009/04/23 13:03:52.2      -8    106     63    107    124 355.5  33.5  34324  292.37 0854.48
2009/04/23 13:03:52.3      61     93     26    112    116  33.4  13.2  34288  291.74 0854.48
2009/04/23 13:03:52.4     131     54     55    142    152  67.4  22.0  34300  291.95 0854.48
2009/04/23 13:03:52.5     107     63     62    125    139  59.3  28.2  34344  292.71 0854.48
2009/04/23 13:03:52.6      19     83     80     86    117  12.9  47.9  34346  292.75 0854.48
2009/04/23 13:03:52.7      95    115    109    150    185  39.6  39.7  34344  292.69 0854.48
2009/04/23 13:03:52.8     203    208     76    291    301  44.3  14.7  34340  292.64 0854.48
2009/04/23 13:03:52.9     171    175     92    245    261  44.3  21.5  34320  292.28 0854.48
2009/04/23 13:03:53.0     125     78    123    148    192  58.0  43.8  34352  292.85 0854.48
2009/04/23 13:03:53.1      32    106    160    111    194  16.9  62.1  34338  292.59 0854.48
2009/04/23 13:03:53.2      84     27    124     89    152  71.8  60.6  34374  293.22 0854.48
2009/04/23 13:03:53.3     103     34    141    109    178  71.4  58.5  34380  293.31 0854.48
2009/04/23 13:03:53.4     256     84    223    270    350  71.8  43.7  34350  292.79 0854.45
2009/04/23 13:03:53.5     179    122    220    217    309  55.6  50.2  34336  292.55 0854.45
2009/04/23 13:03:53.6     129     82    126    153    198  57.6  43.7  34300  291.95 0854.45
2009/04/23 13:03:53.7      61     92    122    111    164  33.8  53.0  34298  291.91 0854.45
2009/04/23 13:03:53.8     128    201     86    239    254  32.5  20.4  34298  291.90 0854.45
2009/04/23 13:03:53.9      53    118     80    130    152  24.1  35.5  34296  291.89 0854.45
2009/04/23 13:03:54.0      43     59     83     74    111  36.1  53.7  34302  291.98 0854.45
2009/04/23 13:03:54.1      35     32     90     48    102  47.8  69.3  34308  292.08 0854.45
2009/04/23 13:03:54.2      84     82     74    118    139  46.0  35.5  34300  291.96 0854.45
2009/04/23 13:03:54.3      63    144     44    158    165  23.7  15.8  34308  292.10 0854.45
2009/04/23 13:03:54.4      56    146     55    157    167  20.9  19.6  34324  292.35 0854.45
2009/04/23 13:03:54.5      78    107     91    133    161  36.1  37.8  34346  292.75 0854.45
2009/04/23 13:03:54.6     162    110     99    196    219  55.8  29.1  34342  292.68 0854.45
2009/04/23 13:03:54.7     173    119     72    211    224  55.4  18.9  34338  292.61 0854.45
2009/04/23 13:03:54.8     195    117     38    228    232  59.1   9.5  34338  292.59 0854.45
2009/04/23 13:03:54.9     333     62    163    339    376  79.4  27.4  34352  292.85 0854.45
2009/04/23 13:03:55.0     170     80    206    188    278  64.8  52.7  34352  292.82 0854.45
2009/04/23 13:03:55.1     141     53    199    151    249  69.2  59.0  34348  292.78 0854.45
2009/04/23 13:03:55.2      27    -37    137     47    144 143.9  81.2  34340  292.64 0854.45
2009/04/23 13:03:55.3      49     -3     89     50    102  94.4  68.8  34334  292.54 0854.45
2009/04/23 13:03:55.4     135     73    103    154    185  61.6  36.7  34334  292.54 0854.44
2009/04/23 13:03:55.5     147    -48    138    155    207 108.2  46.2  34328  292.42 0854.44
2009/04/23 13:03:55.6      64   -120    130    137    188 151.9  48.5  34304  292.01 0854.44
2009/04/23 13:03:55.8     -32   -134    187    138    232 193.8  60.5  34266  291.37 0854.44
2009/04/23 13:03:55.8     -45   -124    208    132    246 200.0  64.7  34246  291.03 0854.44
2009/04/23 13:03:55.9    -140    -47    157    148    215 251.4  52.1  34292  291.83 0854.44
2009/04/23 13:03:56.0     -51   -111    138    123    184 204.5  53.7  34298  291.91 0854.44
2009/04/23 13:03:56.1     -11    -72    153     73    169 188.9  72.8  34264  291.35 0854.44
2009/04/23 13:03:56.2    -132     -8    143    133    195 266.5  52.2  34260  291.28 0854.44
2009/04/23 13:03:56.3     -81    -39     56     90    106 244.2  35.5  34278  291.59 0854.44
2009/04/23 13:03:56.4     -53    -83    130     99    163 212.5  59.2  34262  291.30 0854.44
2009/04/23 13:03:56.5     -84   -128    136    154    205 213.4  45.9  34242  290.98 0854.44
2009/04/23 13:03:56.6     -82    -97    112    128    170 220.1  45.6  34252  291.13 0854.44
2009/04/23 13:03:56.7     -60   -138     97    151    179 203.7  35.7  34254  291.18 0854.44
2009/04/23 13:03:56.8     -72   -131     80    150    170 208.9  30.3  34256  291.21 0854.44
2009/04/23 13:03:56.9     -84   -128     95    154    180 213.4  34.8  34260  291.28 0854.44
2009/04/23 13:03:57.1     -74   -174    140    190    236 202.9  40.4  34252  291.13 0854.44
2009/04/23 13:03:57.1     -76   -162    165    180    244 205.3  47.5  34248  291.06 0854.44
2009/04/23 13:03:57.2     -51   -179    147    187    237 196.0  42.2  34256  291.20 0854.44
2009/04/23 13:03:57.3    -109   -196    130    225    259 209.2  32.4  34248  291.07 0854.44
2009/04/23 13:03:57.4    -128   -201    102    239    259 212.5  24.3  34242  290.97 0854.44
2009/04/23 13:03:57.5     -45   -131    180    139    227 199.2  58.5  34260  291.26 0854.44
2009/04/23 13:03:57.6     -94   -166    155    191    245 209.6  43.5  34266  291.37 0854.44
2009/04/23 13:03:57.7     -96   -188    121    212    244 207.2  32.4  34270  291.44 0854.44
2009/04/23 13:03:57.8    -118   -148    161    190    249 218.7  44.5  34282  291.66 0854.44
2009/04/23 13:03:57.9    -154   -182    175    239    296 220.3  39.7  34284  291.68 0854.44
2009/04/23 13:03:58.0    -104   -258     54    279    285 202.1  11.0  34282  291.63 0854.44
2009/04/23 13:03:58.2     -65   -241     26    250    252 195.2   6.0  34300  291.94 0854.44
2009/04/23 13:03:58.2    -170   -268    121    318    340 212.5  21.7  34290  291.78 0854.44
2009/04/23 13:03:58.3    -193   -140    123    239    268 234.0  29.3  34284  291.67 0854.44
2009/04/23 13:03:58.4     -26   -186    197    188    272 188.2  51.4  34304  292.02 0854.44
2009/04/23 13:03:58.5      29   -200    118    203    234 171.5  32.9  34292  291.83 0854.44
2009/04/23 13:03:58.6      49   -163    108    171    202 163.1  35.5  34288  291.76 0854.44
2009/04/23 13:03:58.7      28   -179     82    182    199 171.1  25.9  34270  291.45 0854.44
2009/04/23 13:03:58.8      47   -204     93    210    229 166.9  25.3  34254  291.18 0854.44
2009/04/23 13:03:58.9      34   -203     91    206    225 170.3  25.3  34254  291.18 0854.44
2009/04/23 13:03:59.0     277    -55    270    283    391 101.4  48.7  34322  292.32 0854.44
2009/04/23 13:03:59.2      86    -12    245     87    259  98.4  79.9  34314  292.20 0854.44
2009/04/23 13:03:59.3     -15   -182    241    183    302 184.9  59.0  34260  291.26 0854.44
2009/04/23 13:03:59.4      -3   -188    227    189    295 181.1  56.3  34246  291.04 0854.44
2009/04/23 13:03:59.5     -59   -214    263    223    344 195.4  55.6  34242  290.97 0854.45
2009/04/23 13:03:59.6     -15   -244    226    245    333 183.6  47.6  34238  290.90 0854.45
2009/04/23 13:03:59.7     -16   -154    301    155    338 186.2  70.7  34244  290.99 0854.45
2009/04/23 13:03:59.8     -34   -144    118    149    190 193.4  42.7  34232  290.81 0854.45
2009/04/23 13:03:59.9     -51   -224      4    230    231 192.9   1.0  34238  290.89 0854.45
2009/04/23 13:04:00.0     -49   -245     26    250    252 191.5   6.1  34236  290.85 0854.45
2009/04/23 13:04:00.1     -83   -262     33    275    277 197.6   6.9  34238  290.90 0854.45
2009/04/23 13:04:00.2    -235   -377     96    445    456 211.9  12.3  34244  290.99 0854.45
2009/04/23 13:04:00.3    -284   -358     39    458    460 218.4   4.9  34242  290.97 0854.45
2009/04/23 13:04:00.4    -224   -392    287    452    535 209.8  35.5  34232  290.78 0854.45
2009/04/23 13:04:00.5    -204   -339    147    396    422 211.1  21.4  34222  290.63 0854.45
2009/04/23 13:04:00.6    -132   -257    164    289    332 207.2  32.1  34230  290.76 0854.45
2009/04/23 13:04:00.7     -65   -176    182    188    261 200.3  49.0  34232  290.80 0854.45
2009/04/23 13:04:00.8      99   -229     67    250    259 156.6  15.0  34224  290.66 0854.45
2009/04/23 13:04:00.9      43   -401     53    404    408 173.8   7.6  34228  290.72 0854.45
2009/04/23 13:04:01.0     101   -191    133    217    254 152.1  34.4  34232  290.78 0854.45
2009/04/23 13:04:01.1      54    -94    204    109    231 150.1  69.8  34240  290.94 0854.45
2009/04/23 13:04:01.2     228   -249    217    338    401 137.6  35.6  34230  290.76 0854.45
2009/04/23 13:04:01.3     282   -119    293    307    424 112.8  48.7  34234  290.83 0854.45
2009/04/23 13:04:01.4     378   -237    100    447    459 122.1  12.6  34230  290.75 0854.45
2009/04/23 13:04:01.5     116   -278    261    302    399 157.3  45.4  34220  290.60 0854.44
2009/04/23 13:04:01.6      32   -294    313    296    430 173.8  52.1  34228  290.74 0854.44
2009/04/23 13:04:01.7     285   -270    296    393    492 133.5  40.7  34218  290.56 0854.44
2009/04/23 13:04:01.8     362   -314    168    480    508 130.9  20.0  34230  290.76 0854.44
2009/04/23 13:04:01.9     336   -354    -71    489    495 136.5  -8.3  34224  290.66 0854.44
2009/04/23 13:04:02.0     208   -348     19    406    407 149.1   2.8  34226  290.68 0854.44
2009/04/23 13:04:02.1     217   -389     69    446    452 150.9   8.9  34226  290.68 0854.44
2009/04/23 13:04:02.2      68   -485    193    490    526 172.0  22.8  34222  290.61 0854.44
2009/04/23 13:04:02.3     -43   -203     73    208    221 192.0  19.4  34190  290.08 0854.44
2009/04/23 13:04:02.4      -5   -267    -88    268    282 181.1 -23.8  34202  290.29 0854.44
2009/04/23 13:04:02.5    -164   -578     72    601    606 195.9   6.9  34216  290.51 0854.44
2009/04/23 13:04:02.6      93   -597     98    605    613 171.1   9.2  34212  290.46 0854.44
2009/04/23 13:04:02.7     170   -568    206    594    628 163.3  20.0  34210  290.43 0854.44
2009/04/23 13:04:02.8      -2   -556     78    557    563 180.3   8.0  34208  290.40 0854.44
2009/04/23 13:04:02.9     140   -565     28    583    584 166.1   2.8  34202  290.29 0854.44
2009/04/23 13:04:03.0      69   -517     -2    522    523 172.3  -0.3  34210  290.43 0854.44
2009/04/23 13:04:03.1     216   -540    239    582    629 158.2  23.6  34208  290.37 0854.44
2009/04/23 13:04:03.2     207   -594    365    630    728 160.8  32.7  34212  290.44 0854.44
2009/04/23 13:04:03.3     226   -423    233    480    533 151.9  27.7  34202  290.27 0854.44
2009/04/23 13:04:03.4     417   -657    183    779    801 147.6  13.2  34208  290.39 0854.46
2009/04/23 13:04:03.5     623   -590    179    859    878 133.5  11.8  34202  290.30 0854.46
2009/04/23 13:04:03.6     542   -367    228    655    694 124.1  19.2  34200  290.24 0854.46
2009/04/23 13:04:03.7     443   -535    289    695    752 140.4  24.1  34222  290.62 0854.46
2009/04/23 13:04:03.8     370   -470    265    599    655 141.8  25.6  34208  290.38 0854.46
2009/04/23 13:04:03.9     266   -544    238    606    651 153.9  22.7  34208  290.37 0854.46
2009/04/23 13:04:04.0     371   -413    245    556    607 138.1  25.2  34202  290.29 0854.46
2009/04/23 13:04:04.1     331   -332    270    469    541 135.1  32.6  34196  290.17 0854.46
2009/04/23 13:04:04.2     211   -378    325    434    542 150.8  40.6  34202  290.27 0854.46
2009/04/23 13:04:04.3     186   -338    305    386    491 151.1  42.3  34194  290.14 0854.46
2009/04/23 13:04:04.4      58   -288    311    294    427 168.5  52.0  34196  290.18 0854.47
2009/04/23 13:04:04.5      42    -60    199     74    212 144.8  79.1  34204  290.31 0854.47
2009/04/23 13:04:04.6     -31     49    138     59    150 327.4  75.5  34204  290.33 0854.47
2009/04/23 13:04:04.7      65     79    169    103    197  39.7  66.0  34206  290.35 0854.47
2009/04/23 13:04:04.8     -48    142    115    150    189 341.3  41.4  34204  290.33 0854.47
2009/04/23 13:04:04.9     -37    162     93    167    191 346.9  31.4  34188  290.06 0854.47
2009/04/23 13:04:05.0    -198    210     14    289    290 316.7   2.8  34180  289.90 0854.47
2009/04/23 13:04:05.1      56    257     14    264    265  12.3   3.1  34180  289.90 0854.47
2009/04/23 13:04:05.2      13    366     72    367    375   2.1  11.1  34188  290.03 0854.47
2009/04/23 13:04:05.3     -71    323   -153    331    364 347.5 -31.0  34198  290.20 0854.47
2009/04/23 13:04:05.4     -33    506   -116    508    522 356.2 -12.9  34178  289.89 0854.47
2009/04/23 13:04:05.5      85    572      4    579    580   8.5   0.5  34190  290.07 0854.47
2009/04/23 13:04:05.6     -90    578     92    586    594 351.1   9.0  34188  290.03 0854.47
2009/04/23 13:04:05.7     -95    565     17    574    575 350.4   1.8  34174  289.81 0854.47
2009/04/23 13:04:05.8    -174    523    283    552    620 341.5  29.2  34176  289.83 0854.47
2009/04/23 13:04:05.9    -315    200     47    374    377 302.5   7.2  34156  289.50 0854.47
2009/04/23 13:04:06.0    -421    221     65    476    481 297.7   7.8  34156  289.52 0854.47
2009/04/23 13:04:06.1    -559    248     73    612    617 294.0   6.9  34154  289.48 0854.47
2009/04/23 13:04:06.2    -698    179    245    721    762 284.4  18.8  34156  289.51 0854.47
2009/04/23 13:04:06.3    -710    204     95    739    746 286.0   7.3  34156  289.50 0854.47
2009/04/23 13:04:06.4    -839    118   -206    848    873 278.0 -13.7  34168  289.71 0854.47
2009/04/23 13:04:06.5    -850     79   -113    855    863 275.4  -7.6  34168  289.71 0854.47
2009/04/23 13:04:06.6    -500    275    -12    571    572 298.9  -1.3  34162  289.59 0854.47
2009/04/23 13:04:06.7    -457    401    -63    609    613 311.3  -6.0  34162  289.59 0854.47
2009/04/23 13:04:06.8    -601    356   -112    699    709 300.6  -9.1  34154  289.47 0854.47
2009/04/23 13:04:06.9    -703    179    142    726    740 284.3  11.1  34174  289.80 0854.47
2009/04/23 13:04:07.0    -202     40    218    207    300 281.4  52.0  34160  289.56 0854.47
2009/04/23 13:04:07.1    -150    107    153    185    240 305.7  43.8  34156  289.50 0854.47
2009/04/23 13:04:07.2    -254   -142    -64    292    300 240.7 -12.4  34172  289.78 0854.47
2009/04/23 13:04:07.3     -43   -441    204    444    488 185.6  26.4  34174  289.81 0854.47
2009/04/23 13:04:07.4    -190   -463    189    501    535 202.3  21.6  34168  289.72 0854.47
2009/04/23 13:04:07.5    -135   -424    236    445    503 197.7  30.2  34172  289.79 0854.47
2009/04/23 13:04:07.6    -139   -640    254    656    703 192.3  22.3  34176  289.83 0854.47
2009/04/23 13:04:07.7    -500   -445     79    670    675 228.3   6.8  34168  289.70 0854.47
2009/04/23 13:04:07.8    -536   -364    200    648    679 235.8  17.2  34170  289.73 0854.47
2009/04/23 13:04:07.9    -514   -154    206    537    575 253.3  22.0  34178  289.89 0854.47
2009/04/23 13:04:08.0    -364   -200    218    416    469 241.1  29.9  34188  290.05 0854.47
2009/04/23 13:04:08.1    -331   -339    167    474    503 224.3  19.4  34188  290.05 0854.47
2009/04/23 13:04:08.2    -368   -379     40    529    531 224.1   4.4  34188  290.04 0854.47
2009/04/23 13:04:08.3    -202   -513    -79    552    558 201.6  -8.2  34182  289.94 0854.47
2009/04/23 13:04:08.4    -351   -474     45    590    592 216.5   4.4  34188  290.05 0854.48
2009/04/23 13:04:08.5     228   -414    182    473    506 151.1  22.1  34158  289.54 0854.48
2009/04/23 13:04:08.6     182   -376     75    419    426 154.1  10.2  34166  289.68 0854.48
2009/04/23 13:04:08.7     -33   -323    318    325    454 185.9  49.4  34178  289.88 0854.48
2009/04/23 13:04:08.8     -64   -232    231    241    333 195.4  48.7  34182  289.93 0854.48
2009/04/23 13:04:08.9     -61   -333    244    339    417 190.5  39.5  34174  289.82 0854.48
2009/04/23 13:04:09.0    -116   -763     80    772    777 188.7   6.0  34186  290.00 0854.48
2009/04/23 13:04:09.1      54   -662    266    665    716 175.3  23.0  34180  289.91 0854.48
2009/04/23 13:04:09.2     -34   -705    299    706    766 182.8  24.3  34188  290.04 0854.48
2009/04/23 13:04:09.3     -67   -666    301    670    734 185.8  25.9  34188  290.06 0854.48
2009/04/23 13:04:09.4      47   -664    204    666    697 175.9  17.0  34166  289.68 0854.48
2009/04/23 13:04:09.5      33   -599    345    600    692 176.8  32.4  34198  290.21 0854.48
2009/04/23 13:04:09.6     -10   -714     54    715    717 180.8   4.4  34178  289.89 0854.48
2009/04/23 13:04:09.7      24   -658    268    659    711 177.9  23.4  34158  289.54 0854.48
2009/04/23 13:04:09.8     161   -518    189    543    574 162.7  20.0  34170  289.75 0854.48
2009/04/23 13:04:09.9     -44   -703    110    705    714 183.6   8.9  34172  289.79 0854.48
2009/04/23 13:04:10.0     -51   -667    290    669    729 184.4  24.9  34166  289.67 0854.48
2009/04/23 13:04:10.1    -151   -755    297    771    826 191.3  22.2  34170  289.74 0854.48
2009/04/23 13:04:10.2    -193  -1069    319   1087   1133 190.3  16.4  34162  289.59 0854.48
2009/04/23 13:04:10.3    -326   -853    175    914    931 201.0  10.9  34180  289.90 0854.48
2009/04/23 13:04:10.4    -257   -842    448    881    988 197.0  29.1  34162  289.59 0854.49
2009/04/23 13:04:10.5    -269   -688    339    739    813 201.4  26.5  34178  289.88 0854.49
2009/04/23 13:04:10.6    -219   -652    249    688    732 198.6  19.9  34160  289.57 0854.49
2009/04/23 13:04:10.7    -204   -428     67    475    480 205.5   8.1  34160  289.56 0854.49
2009/04/23 13:04:10.8    -295   -473    383    558    676 212.0  37.8  34180  289.91 0854.49
2009/04/23 13:04:10.9    -269   -501    353    569    669 208.2  34.8  34174  289.81 0854.49
2009/04/23 13:04:11.0    -114   -344    453    363    580 198.5  57.3  34182  289.96 0854.49
2009/04/23 13:04:11.1    -421   -244    -19    487    488 239.9  -2.2  34172  289.79 0854.49
2009/04/23 13:04:11.2    -362     59   -137    367    391 279.4 -26.0  34178  289.89 0854.49
2009/04/23 13:04:11.3    -455    135      9    475    476 286.5   1.1  34178  289.88 0854.49
2009/04/23 13:04:11.4    -225   -164     85    279    292 233.8  17.1  34180  289.92 0854.49
2009/04/23 13:04:11.5    -402     30    -24    404    405 274.4  -3.5  34184  289.97 0854.49
2009/04/23 13:04:11.6    -184     -7     15    185    186 267.6   4.9  34178  289.87 0854.49
2009/04/23 13:04:11.7    -280     44    110    284    304 279.0  22.3  34184  289.97 0854.49
2009/04/23 13:04:11.8    -150    181    127    236    268 320.3  30.6  34170  289.75 0854.49
2009/04/23 13:04:11.9    -390   -199    -79    439    447 242.9 -10.3  34194  290.16 0854.49
2009/04/23 13:04:12.0    -264   -227   -222    349    413 229.3 -39.9  34184  289.99 0854.49
2009/04/23 13:04:12.1    -267   -333   -100    428    440 218.7 -13.2  34188  290.04 0854.49
2009/04/23 13:04:12.2    -161   -339     11    376    377 205.5   1.7  34182  289.94 0854.49
2009/04/23 13:04:12.3     -46   -334     14    338    339 187.9   2.5  34192  290.10 0854.49
2009/04/23 13:04:12.4      11   -429    -13    430    431 178.5  -1.8  34190  290.07 0854.49
2009/04/23 13:04:12.5     -39     -8      0     40     41 257.6  -1.3  34190  290.09 0854.49
2009/04/23 13:04:12.6     -52     26   -105     59    120 297.1 -72.7  34186  290.01 0854.49
2009/04/23 13:04:12.7    -169   -393    -51    428    432 203.3  -6.9  34186  290.00 0854.49
2009/04/23 13:04:12.8    -184   -502    105    535    546 200.2  11.1  34188  290.04 0854.49
2009/04/23 13:04:12.9    -101   -670     33    678    679 188.6   2.8  34190  290.07 0854.49
2009/04/23 13:04:13.0       1   -577    209    578    615 179.9  19.9  34186  290.02 0854.49
2009/04/23 13:04:13.1    -314   -464    119    561    574 214.1  12.0  34198  290.20 0854.49
2009/04/23 13:04:13.2    -303   -677    231    742    778 204.1  17.3  34204  290.31 0854.49
2009/04/23 13:04:13.3      79   -717     76    722    727 173.7   6.1  34178  289.88 0854.49
2009/04/23 13:04:13.4      55   -638    206    641    674 175.0  17.8  34184  289.97 0854.49
2009/04/23 13:04:13.5      58   -765    193    767    791 175.6  14.2  34188  290.03 0854.49
2009/04/23 13:04:13.6      14   -643    174    644    668 178.7  15.1  34180  289.90 0854.49
2009/04/23 13:04:13.7      -7   -625    220    626    664 180.7  19.4  34172  289.79 0854.49
2009/04/23 13:04:13.8      40   -697    116    699    709 176.7   9.4  34180  289.91 0854.49
2009/04/23 13:04:13.9     -50   -659    235    661    701 184.4  20.4  34178  289.87 0854.49
2009/04/23 13:04:14.0      18   -969    341    970   1029 178.9  19.4  34180  289.90 0854.49
2009/04/23 13:04:14.1      -1  -1098    213   1099   1120 180.1  11.0  34182  289.94 0854.49
2009/04/23 13:04:14.2     -15  -1060    162   1061   1074 180.8   8.7  34182  289.93 0854.49
2009/04/23 13:04:14.3      10   -738      4    739    740 179.2   0.4  34184  289.99 0854.49
2009/04/23 13:04:14.4     123   -752     81    763    768 170.7   6.1  34186  290.01 0854.50
2009/04/23 13:04:14.5      48   -639     17    641    642 175.6   1.6  34182  289.96 0854.50
2009/04/23 13:04:14.6      -1   -667     33    668    669 180.1   2.9  34188  290.05 0854.50
2009/04/23 13:04:14.7     -31   -754    -36    755    756 182.4  -2.8  34190  290.09 0854.50
2009/04/23 13:04:14.8    -193   -828    -79    851    856 193.2  -5.4  34194  290.15 0854.50
2009/04/23 13:04:14.9      96   -788    -66    794    797 173.0  -4.8  34158  289.54 0854.50
2009/04/23 13:04:15.0     237   -557    180    606    633 156.9  16.5  34174  289.82 0854.50
2009/04/23 13:04:15.1     245   -404     89    473    482 148.8  10.7  34182  289.93 0854.50
2009/04/23 13:04:15.2      18   -526    209    527    566 178.0  23.0  34174  289.82 0854.50
2009/04/23 13:04:15.3      -3   -618    -91    619    626 180.4  -8.4  34182  289.96 0854.50
2009/04/23 13:04:15.4     160   -621      1    642    643 165.5   0.1  34198  290.20 0854.50
2009/04/23 13:04:15.5      81   -878    115    883    891 174.7   7.4  34192  290.13 0854.50
2009/04/23 13:04:15.6      95   -694   -127    701    713 172.2 -10.3  34162  289.59 0854.50
2009/04/23 13:04:15.7    -218   -468    383    517    643 204.9  40.2  34190  290.08 0854.50
2009/04/23 13:04:15.8    -195   -655    369    684    777 196.6  30.7  34168  289.72 0854.50
2009/04/23 13:04:15.9    -140  -1165    339   1174   1223 186.9  16.1  34172  289.79 0854.50
2009/04/23 13:04:16.0    -151   -682   -224    699    734 192.5 -22.9  34172  289.76 0854.50
2009/04/23 13:04:16.1      34   -766    -55    767    769 177.4  -4.1  34186  290.01 0854.50
2009/04/23 13:04:16.2     -35   -849   -145    850    863 182.4  -9.7  34182  289.93 0854.50
2009/04/23 13:04:16.3    -459   -887   -204    999   1021 207.4 -11.6  34136  289.15 0854.50
2009/04/23 13:04:16.4     -27   -522    488    523    715 183.0  47.8  34154  289.46 0854.52
2009/04/23 13:04:16.5     -72    106    350    129    373 325.8  79.0  34190  290.09 0854.52
2009/04/23 13:04:16.6    -124   -488    249    504    562 194.3  28.2  34184  289.99 0854.52
2009/04/23 13:04:16.7     -85   -642   -187    648    674 187.6 -20.9  34154  289.48 0854.52
2009/04/23 13:04:16.8    -319   -956     -8   1009   1010 198.5  -0.5  34168  289.71 0854.52
2009/04/23 13:04:16.9     193   -555    331    588    674 160.8  31.9  34176  289.84 0854.52
2009/04/23 13:04:17.0    -252   -277      4    375    376 222.3   0.7  34182  289.94 0854.52
2009/04/23 13:04:17.1    -384   -647    131    753    765 210.7   9.9  34186  290.02 0854.52
2009/04/23 13:04:17.2    -222   -507    219    554    595 203.7  22.8  34182  289.95 0854.52
2009/04/23 13:04:17.3     -57   -282     78    288    299 191.6  15.3  34180  289.90 0854.52
2009/04/23 13:04:17.4      62   -133    -80    147    167 155.1 -35.0  34182  289.96 0854.52
2009/04/23 13:04:17.5     221   -242     57    329    335 137.6   9.9  34182  289.94 0854.52
2009/04/23 13:04:17.6     272    -79    292    284    407 106.2  50.9  34188  290.03 0854.52
2009/04/23 13:04:17.7      34   -245    160    248    295 171.9  35.6  34172  289.78 0854.52
2009/04/23 13:04:17.8    -111   -207    130    236    269 208.3  31.4  34180  289.90 0854.52
2009/04/23 13:04:17.9    -344   -299     55    457    461 229.0   6.9  34174  289.80 0854.52
2009/04/23 13:04:18.0    -216   -326     84    392    401 213.5  12.1  34172  289.76 0854.52
2009/04/23 13:04:18.1    -147   -275      5    312    313 208.1   1.0  34162  289.59 0854.52
2009/04/23 13:04:18.2      33   -132    282    137    313 165.7  72.2  34180  289.90 0854.52
2009/04/23 13:04:18.3    -211     97     57    233    241 294.8  13.9  34172  289.78 0854.52
2009/04/23 13:04:18.4    -598     34   -450    599    749 273.3 -45.1  34172  289.79 0854.52
2009/04/23 13:04:18.5    -346    212   -236    406    469 301.5 -37.3  34178  289.88 0854.52
2009/04/23 13:04:18.6     -98   -119   -403    155    431 219.7 -82.5  34172  289.76 0854.52
2009/04/23 13:04:18.7    -417   -397   -275    577    639 226.4 -31.7  34172  289.77 0854.52
2009/04/23 13:04:18.8    -114   -399   -188    416    456 196.0 -30.6  34168  289.72 0854.52
2009/04/23 13:04:18.9    -315    -79   -130    325    350 255.9 -27.4  34172  289.76 0854.52
2009/04/23 13:04:19.0    -109   -585    -41    595    597 190.6  -4.0  34166  289.66 0854.52
2009/04/23 13:04:19.1     144   -312    236    344    417 155.2  37.8  34172  289.77 0854.52
2009/04/23 13:04:19.2     269   -332    288    428    515 141.0  37.2  34168  289.71 0854.52
2009/04/23 13:04:19.3     364   -380    221    527    571 136.2  24.1  34168  289.72 0854.52
2009/04/23 13:04:19.4     479   -367    182    604    631 127.5  16.8  34172  289.79 0854.52
2009/04/23 13:04:19.5     386   -298    251    488    548 127.7  29.3  34176  289.84 0854.52
2009/04/23 13:04:19.6     374   -456    367    590    694 140.6  34.9  34170  289.73 0854.52
2009/04/23 13:04:19.7     466   -526    219    703    737 138.5  17.3  34172  289.76 0854.52
2009/04/23 13:04:19.8     439   -738    473    859    980 149.3  31.3  34154  289.46 0854.52
2009/04/23 13:04:19.9     490   -558    398    743    842 138.7  30.5  34162  289.62 0854.52
2009/04/23 13:04:20.0     364   -478    504    602    785 142.7  44.3  34164  289.64 0854.52
2009/04/23 13:04:20.1     277   -259    524    380    647 133.1  60.6  34186  290.00 0854.52
2009/04/23 13:04:20.2     217   -406    227    461    513 151.9  28.2  34172  289.76 0854.52
2009/04/23 13:04:20.3      -4   -206    271    207    341 181.1  59.0  34178  289.88 0854.52
2009/04/23 13:04:20.4     -54   -395    169    399    433 187.9  24.5  34172  289.77 0854.52
2009/04/23 13:04:20.5    -388   -614     21    727    728 212.3   1.7  34166  289.66 0854.52
2009/04/23 13:04:20.6    -672   -649    333    935    992 226.0  20.6  34196  290.18 0854.52
2009/04/23 13:04:20.7    -487   -257    482    551    732 242.1  45.7  34196  290.19 0854.52
2009/04/23 13:04:20.8    -796    159    118    812    821 281.3   8.3  34178  289.89 0854.52
2009/04/23 13:04:20.9    -539    210   -197    579    612 291.3 -18.8  34182  289.95 0854.52
2009/04/23 13:04:21.0    -500    362   -167    618    641 306.0 -15.2  34184  289.98 0854.52
2009/04/23 13:04:21.1    -455    178     46    489    492 291.4   5.4  34188  290.03 0854.52
2009/04/23 13:04:21.2    -104    378     73    393    400 344.6  10.6  34184  289.98 0854.52
2009/04/23 13:04:21.3     -41    159    318    165    358 345.3  70.6  34194  290.15 0854.52
2009/04/23 13:04:21.4    -178    270    235    324    400 326.6  39.5  34184  289.99 0854.52
2009/04/23 13:04:21.5    -367    331    183    495    527 312.1  21.3  34178  289.86 0854.52
2009/04/23 13:04:21.6     -20    223    164    225    278 354.7  39.7  34184  289.98 0854.52
2009/04/23 13:04:21.7     103     57    183    118    217  61.1  64.6  34192  290.11 0854.52
2009/04/23 13:04:21.8     -16    188     66    189    201 354.9  19.2  34186  290.02 0854.52
2009/04/23 13:04:21.9    -154    178    161    236    285 319.0  37.6  34194  290.14 0854.52
2009/04/23 13:04:22.0     -52    202    181    209    276 345.3  45.6  34202  290.29 0854.52
2009/04/23 13:04:22.1     114     37    174    121    211  71.8  62.4  34202  290.28 0854.52
2009/04/23 13:04:22.2      82    121    145    147    206  34.3  49.9  34198  290.21 0854.52
2009/04/23 13:04:22.3     131     87    196    158    251  56.3  56.9  34194  290.14 0854.52
2009/04/23 13:04:22.4     214    -50    263    220    342 103.3  56.2  34184  289.98 0854.52
2009/04/23 13:04:22.5     212    -17    207    213    297  94.8  49.2  34184  289.97 0854.52
2009/04/23 13:04:22.6     -68   -131    234    148    276 207.6  64.7  34190  290.07 0854.52
2009/04/23 13:04:22.7       2     48    245     49    249   2.7  89.1  34196  290.18 0854.52
2009/04/23 13:04:22.8       9   -121    181    122    218 175.5  62.8  34176  289.85 0854.52
2009/04/23 13:04:22.9     -12     36    134     38    139 341.5  83.9  34188  290.04 0854.52
2009/04/23 13:04:23.0    -179    187    124    260    288 316.3  27.3  34196  290.19 0854.52
2009/04/23 13:04:23.1    -265    124    120    293    316 295.2  23.6  34184  289.97 0854.52
2009/04/23 13:04:23.2    -324     14     92    325    338 272.5  15.9  34178  289.86 0854.52
2009/04/23 13:04:23.3    -304    -14    106    305    323 267.2  19.2  34178  289.88 0854.52
2009/04/23 13:04:23.4    -354     24     39    355    358 273.9   6.4  34178  289.89 0854.52
2009/04/23 13:04:23.5    -279   -211    164    350    386 232.9  27.1  34166  289.67 0854.52
2009/04/23 13:04:23.6    -322   -155    101    358    373 244.3  15.8  34174  289.82 0854.52
2009/04/23 13:04:23.7    -165   -172    134    239    274 223.7  31.4  34178  289.88 0854.52
2009/04/23 13:04:23.8    -264    115    -15    289    290 293.6  -3.1  34180  289.90 0854.52
2009/04/23 13:04:23.9    -376     28     44    377    380 274.3   6.8  34176  289.84 0854.52
2009/04/23 13:04:24.0    -393   -129     96    414    426 251.8  13.1  34180  289.92 0854.52
2009/04/23 13:04:24.1    -392    -60    -36    397    399 261.2  -5.2  34178  289.86 0854.52
2009/04/23 13:04:24.2    -503   -159      8    528    529 252.4   0.9  34160  289.58 0854.52
2009/04/23 13:04:24.3    -519    -49   -209    522    562 264.5 -27.4  34180  289.90 0854.52
2009/04/23 13:04:24.4    -305    190    181    360    402 302.0  28.6  34174  289.82 0854.52
2009/04/23 13:04:24.5    -280    208    140    349    376 306.6  23.0  34174  289.82 0854.52
2009/04/23 13:04:24.6    -251    258    120    360    380 315.8  18.4  34182  289.94 0854.52
2009/04/23 13:04:24.7    -180    158    112    240    264 311.3  27.1  34182  289.95 0854.52
2009/04/23 13:04:24.8    -223     73    208    235    313 288.2  46.1  34180  289.92 0854.52
2009/04/23 13:04:24.9    -177    -88    158    198    253 243.4  42.7  34178  289.88 0854.52
2009/04/23 13:04:25.0    -242   -198    159    314    351 230.7  29.1  34182  289.93 0854.52
2009/04/23 13:04:25.1    -182   -182     97    258    275 225.0  21.5  34180  289.90 0854.52
2009/04/23 13:04:25.2    -100   -162     63    191    202 211.9  18.4  34174  289.82 0854.52
2009/04/23 13:04:25.3    -119   -151    192    193    272 218.3  50.0  34182  289.95 0854.52
2009/04/23 13:04:25.4    -238   -237    119    337    357 225.1  20.2  34188  290.04 0854.51
2009/04/23 13:04:25.5    -251   -170    126    304    329 235.8  23.9  34194  290.15 0854.51
2009/04/23 13:04:25.6    -306   -141    140    338    365 245.2  23.8  34182  289.94 0854.51
2009/04/23 13:04:25.7    -378     34     91    380    391 275.2  13.6  34198  290.20 0854.51
2009/04/23 13:04:25.8    -371     39    150    374    402 276.1  23.0  34192  290.13 0854.51
2009/04/23 13:04:25.9    -518     82    -96    525    534 279.0 -10.4  34160  289.58 0854.51
2009/04/23 13:04:26.0    -554     22     51    555    558 272.3   5.3  34188  290.06 0854.51
2009/04/23 13:04:26.1    -414      5     86    415    425 270.8  11.8  34164  289.65 0854.51
2009/04/23 13:04:26.2    -474     35     -7    476    477 274.3  -0.9  34162  289.59 0854.51
2009/04/23 13:04:26.3    -257   -102    105    277    296 248.3  22.0  34184  289.98 0854.51
2009/04/23 13:04:26.4    -260    -85     47    274    279 251.8   9.9  34182  289.93 0854.51
2009/04/23 13:04:26.5    -274   -100     46    292    296 250.0   9.0  34176  289.85 0854.51
2009/04/23 13:04:26.6    -178   -164     18    243    244 227.3   4.2  34210  290.42 0854.51
2009/04/23 13:04:26.7     -59   -202    158    211    263 196.3  40.6  34196  290.19 0854.51
2009/04/23 13:04:26.8    -177   -245    112    303    323 216.0  21.1  34182  289.93 0854.51
2009/04/23 13:04:27.0     -66   -672    151    676    693 185.7  12.6  34162  289.61 0854.51
2009/04/23 13:04:27.1     -10   -575    258    576    631 181.0  25.8  34174  289.80 0854.51
2009/04/23 13:04:27.2     -94   -371    233    383    448 194.3  34.4  34154  289.48 0854.51
2009/04/23 13:04:27.3    -103   -396     42    410    413 194.6   6.0  34162  289.60 0854.51
2009/04/23 13:04:27.4    -101   -372    277    386    475 195.2  39.2  34176  289.83 0854.51
2009/04/23 13:04:27.5    -157   -304    -44    343    346 207.4  -7.5  34164  289.65 0854.49
2009/04/23 13:04:27.6     -60   -277     77    284    295 192.3  15.2  34168  289.70 0854.49
2009/04/23 13:04:27.7      -4   -305    162    306    346 180.9  30.2  34168  289.72 0854.49
2009/04/23 13:04:27.8     -40   -511    353    513    622 184.5  37.8  34174  289.81 0854.49
2009/04/23 13:04:27.9    -152   -430    378    457    593 199.5  43.8  34170  289.74 0854.49
2009/04/23 13:04:28.0      29   -345    288    347    450 175.1  43.8  34162  289.61 0854.49
2009/04/23 13:04:28.1    -102   -411    200    424    468 194.0  27.1  34160  289.58 0854.49
2009/04/23 13:04:28.2    -199   -404     24    451    452 206.3   3.1  34164  289.63 0854.49
2009/04/23 13:04:28.3     -58   -284    124    291    316 191.6  24.5  34166  289.66 0854.49
2009/04/23 13:04:28.4     202   -526    187    564    595 159.0  18.4  34166  289.68 0854.49
2009/04/23 13:04:28.5     181   -485    -33    518    520 159.5  -3.7  34172  289.77 0854.49
2009/04/23 13:04:28.6     238   -464    -37    522    524 152.8  -4.1  34170  289.74 0854.49
2009/04/23 13:04:28.7     358   -460     76    584    589 142.1   7.4  34156  289.51 0854.49
2009/04/23 13:04:28.8     377   -207    -33    431    433 118.8  -4.4  34152  289.43 0854.49
2009/04/23 13:04:28.9     190   -135    -82    234    247 125.5 -24.4  34162  289.61 0854.49
2009/04/23 13:04:29.0     230   -187   -156    297    335 129.1 -34.5  34166  289.66 0854.49
2009/04/23 13:04:29.1     169   -170     -1    240    241 135.2  -0.3  34166  289.66 0854.49
2009/04/23 13:04:29.2     122   -369    262    389    469 161.6  37.2  34152  289.43 0854.49
2009/04/23 13:04:29.3     -85   -309    210    321    383 195.4  36.2  34158  289.54 0854.49
2009/04/23 13:04:29.4       5   -291    183    292    344 179.0  35.2  34158  289.54 0854.49
2009/04/23 13:04:29.5      99   -162     87    190    208 148.6  26.4  34160  289.57 0854.49
2009/04/23 13:04:29.6     143   -181    108    231    255 141.7  27.0  34164  289.64 0854.49
2009/04/23 13:04:29.7     163   -224    -10    278    279 143.9  -2.2  34158  289.54 0854.49
2009/04/23 13:04:29.8     166   -207    110    266    287 141.3  23.8  34162  289.61 0854.49
2009/04/23 13:04:29.9     203   -203     93    288    303 134.9  17.9  34166  289.66 0854.49
2009/04/23 13:04:30.0     336   -431     97    547    556 142.1  10.1  34168  289.70 0854.49
2009/04/23 13:04:30.1     436   -664    152    795    810 146.7  10.8  34158  289.55 0854.49
2009/04/23 13:04:30.2     274   -536     93    603    611 152.9   8.8  34152  289.42 0854.49
2009/04/23 13:04:30.3      41   -326   -196    329    382 172.7 -37.9  34164  289.64 0854.49
2009/04/23 13:04:30.4      21   -436    -41    437    440 177.2  -5.4  34166  289.68 0854.49
2009/04/23 13:04:30.5     118   -577   -101    590    599 168.4  -9.8  34164  289.63 0854.49
2009/04/23 13:04:30.6     107   -536     -2    547    548 168.7  -0.3  34162  289.62 0854.49
2009/04/23 13:04:30.7     127   -519     51    535    538 166.2   5.5  34164  289.63 0854.49
2009/04/23 13:04:30.8     352   -640      1    731    732 151.2   0.1  34150  289.39 0854.49
2009/04/23 13:04:30.9     397   -709    -10    813    814 150.7  -0.7  34142  289.25 0854.49
2009/04/23 13:04:31.0     312   -696    173    763    783 155.8  12.8  34144  289.29 0854.49
2009/04/23 13:04:31.1     116   -534    241    547    597 167.7  25.2  34140  289.24 0854.49
2009/04/23 13:04:31.2     348   -627    266    718    765 151.0  21.3  34140  289.24 0854.49
2009/04/23 13:04:31.3     163   -635     19    656    657 165.6   1.7  34144  289.29 0854.49
2009/04/23 13:04:31.4     354   -521     10    630    631 145.8   1.0  34142  289.26 0854.49
2009/04/23 13:04:31.5     268   -566    -28    627    628 154.7  -2.6  34152  289.43 0854.49
2009/04/23 13:04:31.6     351   -443     -7    566    567 141.6  -0.7  34152  289.45 0854.49
2009/04/23 13:04:31.7     375   -522    126    644    657 144.3  11.1  34138  289.20 0854.49
2009/04/23 13:04:31.8     462   -422      5    626    627 132.4   0.5  34142  289.26 0854.49
2009/04/23 13:04:31.9     405   -438    120    597    609 137.2  11.4  34140  289.24 0854.49
2009/04/23 13:04:32.0     313   -596    155    674    692 152.3  13.0  34140  289.22 0854.49
2009/04/23 13:04:32.1     165   -631    167    653    675 165.3  14.4  34126  288.99 0854.49
2009/04/23 13:04:32.2    -120   -503    181    518    549 193.4  19.3  34136  289.18 0854.49
2009/04/23 13:04:32.3     -88   -337     53    349    354 194.7   8.7  34142  289.28 0854.49
2009/04/23 13:04:32.4     -63   -322    114    329    349 191.2  19.1  34130  289.08 0854.49
2009/04/23 13:04:32.5    -198   -239    123    311    334 219.6  22.8  34136  289.17 0854.49
2009/04/23 13:04:32.6     -99   -209    149    232    275 205.5  35.6  34138  289.19 0854.49
2009/04/23 13:04:32.7    -130   -273    152    303    338 205.5  28.6  34146  289.32 0854.49
2009/04/23 13:04:32.8    -178   -249    -50    307    312 215.6  -9.3  34136  289.17 0854.49
2009/04/23 13:04:32.9    -463   -247   -172    525    552 241.9 -23.2  34132  289.11 0854.49
2009/04/23 13:04:33.0    -452    -25    122    453    470 266.8  15.1  34146  289.33 0854.49
2009/04/23 13:04:33.1    -349     -7    182    350    394 268.7  29.6  34138  289.20 0854.49
2009/04/23 13:04:33.2    -460    -27     82    461    469 266.6  10.1  34148  289.37 0854.49
2009/04/23 13:04:33.3    -470    -95    -27    480    481 258.5  -3.3  34150  289.39 0854.49
2009/04/23 13:04:33.4    -306     -4     59    307    313 269.1  11.0  34136  289.17 0854.50
2009/04/23 13:04:33.5    -379    137   -158    404    433 289.9 -26.9  34138  289.19 0854.50
2009/04/23 13:04:33.6    -281    -26   -153    283    321 264.7 -35.2  34140  289.22 0854.50
2009/04/23 13:04:33.7    -211   -164   -219    268    346 232.2 -48.1  34142  289.27 0854.50
2009/04/23 13:04:33.8    -225   -171   -190    283    340 232.7 -41.4  34134  289.12 0854.50
2009/04/23 13:04:33.9    -250   -127   -148    281    317 243.1 -34.5  34146  289.34 0854.50
2009/04/23 13:04:34.0    -293     31   -124    295    320 276.1 -28.5  34144  289.29 0854.50
2009/04/23 13:04:34.1    -343    -73   -115    351    370 257.9 -18.2  34136  289.18 0854.50
2009/04/23 13:04:34.2    -407   -140    -82    431    439 251.0 -10.8  34138  289.19 0854.50
2009/04/23 13:04:34.3    -139   -111    -90    179    200 231.4 -33.1  34134  289.14 0854.50
2009/04/23 13:04:34.4     154   -287   -107    327    344 151.7 -23.5  34136  289.18 0854.50
2009/04/23 13:04:34.5     147   -223    -46    268    273 146.6  -9.8  34132  289.10 0854.50
2009/04/23 13:04:34.6      97   -155     65    184    195 147.9  20.0  34128  289.04 0854.50
2009/04/23 13:04:34.7     -52   -110    140    122    185 205.4  54.6  34144  289.30 0854.50
2009/04/23 13:04:34.8    -172   -130    116    216    245 232.9  30.3  34146  289.34 0854.50
2009/04/23 13:04:34.9    -129   -176     85    219    234 216.1  22.3  34140  289.24 0854.50
2009/04/23 13:04:35.0      96   -155    193    183    265 148.1  52.0  34140  289.22 0854.50
2009/04/23 13:04:35.1     102   -154    234    186    298 146.4  57.5  34136  289.15 0854.50
2009/04/23 13:04:35.2      46   -326    321    330    460 171.9  49.2  34142  289.27 0854.50
2009/04/23 13:04:35.3     -34   -330    308    332    452 185.9  47.9  34130  289.05 0854.50
2009/04/23 13:04:35.4      76   -339    272    348    441 167.3  42.0  34140  289.24 0854.50
2009/04/23 13:04:35.5     138   -299    304    330    448 155.2  47.8  34134  289.14 0854.50
2009/04/23 13:04:35.6     281   -317    265    424    500 138.5  35.0  34134  289.12 0854.50
2009/04/23 13:04:35.7      32   -406    386    408    561 175.4  48.4  34134  289.13 0854.50
2009/04/23 13:04:35.8     120   -608    431    620    755 168.8  38.3  34122  288.93 0854.50
2009/04/23 13:04:35.9     177   -640    345    665    749 164.5  29.6  34120  288.91 0854.50
2009/04/23 13:04:36.0     104   -629    256    638    687 170.6  23.1  34128  289.02 0854.50
2009/04/23 13:04:36.1     -46   -504    129    507    524 185.3  14.3  34124  288.96 0854.50
2009/04/23 13:04:36.2    -121   -446     70    463    469 195.2   8.6  34124  288.95 0854.50
2009/04/23 13:04:36.3    -130   -365      5    388    389 199.7   0.8  34122  288.93 0854.50
2009/04/23 13:04:36.4      75   -328    -69    337    345 167.1 -11.6  34132  289.10 0854.50
2009/04/23 13:04:36.5      39   -215   -176    219    280 169.5 -47.2  34130  289.05 0854.50
2009/04/23 13:04:36.6     177    -81    -20    195    197 114.6  -6.0  34120  288.89 0854.50
2009/04/23 13:04:36.7      -1    -14     28     15     31 184.4  70.8  34132  289.09 0854.50
2009/04/23 13:04:36.8      83   -103    120    133    179 141.3  47.1  34132  289.11 0854.50
2009/04/23 13:04:36.9      49   -193    144    200    246 165.7  39.3  34134  289.13 0854.50
2009/04/23 13:04:37.0     -33   -119     69    124    141 195.6  31.4  34130  289.06 0854.50
2009/04/23 13:04:37.1     -28    -85     55     90    105 198.3  35.0  34134  289.13 0854.50
2009/04/23 13:04:37.2     -39    -72     60     82    101 208.5  39.7  34138  289.19 0854.50
2009/04/23 13:04:37.3    -226    -59    -40    234    238 255.4  -9.8  34132  289.09 0854.50
2009/04/23 13:04:37.4      52   -211   -106    218    242 166.0 -32.4  34132  289.10 0854.51
2009/04/23 13:04:37.5      66     18    208     69    219  74.9  80.7  34106  288.65 0854.51
2009/04/23 13:04:37.6     -30      2    296     31    297 274.3  90.0  34150  289.39 0854.51
2009/04/23 13:04:37.7      26    166    222    169    279   8.9  59.0  34146  289.32 0854.51
2009/04/23 13:04:37.8     -27    136    173    139    221 348.5  56.9  34144  289.30 0854.51
2009/04/23 13:04:37.9      42    151    120    157    197  15.6  41.4  34140  289.23 0854.51
2009/04/23 13:04:38.0      -1    123     92    124    154 359.5  39.7  34140  289.23 0854.51
2009/04/23 13:04:38.1      29     49    102     57    116  30.7  68.8  34150  289.40 0854.51
2009/04/23 13:04:38.2       2      0     48      3     48  90.0  90.0  34152  289.43 0854.51
2009/04/23 13:04:38.3     -41    -10     61     43     74 255.8  61.5  34146  289.33 0854.51
2009/04/23 13:04:38.4     106     13    120    107    160  82.5  53.7  34144  289.31 0854.51
2009/04/23 13:04:38.5     141     51    166    151    224  70.0  52.7  34136  289.16 0854.51
2009/04/23 13:04:38.6     196     29    206    199    286  81.4  51.2  34136  289.15 0854.51
2009/04/23 13:04:38.7     272    -54    279    278    393 101.2  50.1  34134  289.13 0854.51
2009/04/23 13:04:38.8     283    -69    260    292    390 103.7  46.3  34126  288.99 0854.51
2009/04/23 13:04:38.9      22    -70    205     74    217 162.2  79.5  34136  289.18 0854.51
2009/04/23 13:04:39.0      -4   -150     33    151    155 181.8  12.6  34132  289.09 0854.51
2009/04/23 13:04:39.1     -54    -37     69     66     95 235.8  51.2  34132  289.09 0854.51
2009/04/23 13:04:39.2    -130     -1    -16    131    133 269.2  -7.2  34136  289.16 0854.51
2009/04/23 13:04:39.3      16    180    105    181    209   5.1  32.9  34128  289.04 0854.51
2009/04/23 13:04:39.4     -63     68    204     93    224 317.2  74.0  34152  289.43 0854.53
2009/04/23 13:04:39.5     -26    -59    197     65    207 204.5  80.7  34142  289.28 0854.53
2009/04/23 13:04:39.6     -58      0    242     59    249 270.8  86.7  34140  289.24 0854.53
2009/04/23 13:04:39.7     -50   -153    193    162    251 198.3  55.8  34136  289.18 0854.53
2009/04/23 13:04:39.8      10    -47     49     49     69 167.5  50.1  34144  289.31 0854.53
2009/04/23 13:04:39.9     -49    146     17    155    157 341.5   6.5  34138  289.19 0854.53
2009/04/23 13:04:40.0      13    253     71    254    264   3.1  15.8  34144  289.31 0854.53
2009/04/23 13:04:40.1      68    -88    188    112    218 142.6  66.7  34148  289.36 0854.53
2009/04/23 13:04:40.2     -16    -50    226     53    232 197.8  87.0  34144  289.30 0854.53
2009/04/23 13:04:40.3     -15   -196    211    197    288 184.5  52.1  34142  289.27 0854.53
2009/04/23 13:04:40.4     -18   -325    199    326    381 183.2  34.3  34138  289.21 0854.53
2009/04/23 13:04:40.5    -135   -296     44    326    329 204.5   7.8  34134  289.12 0854.53
2009/04/23 13:04:40.6    -415   -270   -143    496    517 236.9 -16.1  34126  289.01 0854.53
2009/04/23 13:04:40.7    -385    -41     -4    388    389 263.8  -0.6  34132  289.10 0854.53
2009/04/23 13:04:40.8     -21   -125     97    127    159 189.8  41.4  34132  289.11 0854.53
2009/04/23 13:04:40.9      86     27    126     91    155  72.7  60.6  34134  289.13 0854.53
2009/04/23 13:04:41.0     118     19    155    120    196  80.8  58.5  34140  289.24 0854.53
2009/04/23 13:04:41.1       3    -95    154     96    181 177.8  64.9  34138  289.19 0854.53
2009/04/23 13:04:41.2     -76   -175    199    192    276 203.6  51.2  34138  289.19 0854.53
2009/04/23 13:04:41.3      19    -99    127    101    162 168.9  57.5  34136  289.16 0854.53
2009/04/23 13:04:41.4       8      8    170     12    170  46.9  90.0  34154  289.46 0854.53
2009/04/23 13:04:41.5      10    -32    147     34    150 161.3  87.5  34146  289.35 0854.53
2009/04/23 13:04:41.6     -64   -194    217    205    298 198.3  52.1  34136  289.17 0854.53
2009/04/23 13:04:41.7    -138   -197    116    241    267 215.0  27.3  34136  289.17 0854.53
2009/04/23 13:04:41.8     -96   -169    126    195    232 209.6  35.6  34138  289.19 0854.53
2009/04/23 13:04:41.9     -15   -206    117    207    237 184.4  32.1  34138  289.19 0854.53
2009/04/23 13:04:42.0      53   -131     99    142    173 158.1  38.0  34146  289.35 0854.53
2009/04/23 13:04:42.1      64   -130      8    146    147 153.7   3.3  34140  289.23 0854.53
2009/04/23 13:04:42.2       4   -160    -41    161    167 178.4 -14.5  34138  289.21 0854.53
2009/04/23 13:04:42.3      42    -55    -27     70     75 143.0 -25.4  34138  289.21 0854.53
2009/04/23 13:04:42.4      -1     33     73     34     80 357.4  73.5  34146  289.33 0854.53
2009/04/23 13:04:42.5       2     27     97     28    100   4.5  84.4  34154  289.46 0854.53
2009/04/23 13:04:42.6     -48    -73    115     88    144 213.4  59.0  34148  289.36 0854.53
2009/04/23 13:04:42.7     -41    -84    112     94    146 205.9  56.3  34140  289.24 0854.53
2009/04/23 13:04:42.8     -22    -11    101     25    104 242.9  85.4  34152  289.43 0854.53
2009/04/23 13:04:42.9     -50    -63    138     81    160 218.3  67.0  34142  289.26 0854.53
2009/04/23 13:04:43.0      -3   -222    220    223    313 180.9  49.8  34140  289.24 0854.53
2009/04/23 13:04:43.1     -40   -258    156    262    304 188.9  33.5  34142  289.25 0854.53
2009/04/23 13:04:43.2      47    -68    158     83    178 145.3  70.0  34152  289.43 0854.53
2009/04/23 13:04:43.3      -5     45     75     46     87 352.9  65.1  34144  289.30 0854.53
2009/04/23 13:04:43.4    -155     13     47    156    163 274.8  16.8  34148  289.36 0854.52
2009/04/23 13:04:43.5    -212     57     84    220    235 285.1  22.0  34146  289.35 0854.52
2009/04/23 13:04:43.6    -145      7     28    146    149 273.0  11.0  34146  289.35 0854.52
2009/04/23 13:04:43.7    -183     53    -18    191    192 286.4  -5.6  34146  289.33 0854.52
2009/04/23 13:04:43.8    -111     64     45    129    137 300.2  19.4  34150  289.40 0854.52
2009/04/23 13:04:43.9     -29    -63     80     70    106 204.5  53.7  34152  289.45 0854.52
2009/04/23 13:04:44.0     -66    -42     83     79    114 237.5  51.2  34146  289.35 0854.52
2009/04/23 13:04:44.1     -41     -3      4     42     43 265.6   5.9  34138  289.21 0854.52
2009/04/23 13:04:44.2     -42     62     12     76     78 325.7   9.5  34142  289.26 0854.52
2009/04/23 13:04:44.3     -27      0     64     28     69 270.0  74.0  34152  289.45 0854.52
2009/04/23 13:04:44.4     -37      0     78     38     86 270.0  72.4  34162  289.60 0854.52
2009/04/23 13:04:44.5    -101    -22    113    104    153 257.6  52.2  34156  289.52 0854.52
2009/04/23 13:04:44.6    -184    -40    115    189    221 257.6  34.4  34148  289.36 0854.52
2009/04/23 13:04:44.7    -169     18    178    171    246 276.4  51.2  34150  289.41 0854.52
2009/04/23 13:04:44.8    -205     29      4    208    209 278.1   1.2  34144  289.30 0854.52
2009/04/23 13:04:44.9    -108    -22    -66    111    129 258.6 -37.9  34142  289.28 0854.52
2009/04/23 13:04:45.0    -137    -75   -103    157    187 241.1 -40.7  34130  289.06 0854.52
2009/04/23 13:04:45.1     -79    -81     50    114    124 224.5  25.1  34132  289.09 0854.52
2009/04/23 13:04:45.2    -217   -129     37    253    256 239.3   8.5  34136  289.15 0854.52
2009/04/23 13:04:45.3    -275   -136    124    307    331 243.6  23.1  34140  289.22 0854.52
2009/04/23 13:04:45.4    -401     44     79    404    412 276.3  11.1  34140  289.22 0854.53
2009/04/23 13:04:45.5    -307   -138     66    337    344 245.8  11.1  34146  289.32 0854.53
2009/04/23 13:04:45.6    -281   -204     70    348    356 234.1  11.4  34140  289.23 0854.53
2009/04/23 13:04:45.7    -287   -236    118    372    391 230.5  17.7  34138  289.21 0854.53
2009/04/23 13:04:45.8    -347   -256     38    432    434 233.6   5.1  34134  289.14 0854.53
2009/04/23 13:04:45.9    -316   -285     91    426    436 228.0  12.2  34134  289.12 0854.53
2009/04/23 13:04:46.0    -394   -217    -30    450    451 241.2  -3.9  34152  289.44 0854.53
2009/04/23 13:04:46.1    -416   -124   -142    435    458 253.4 -18.2  34154  289.46 0854.53
2009/04/23 13:04:46.2    -459   -124   -151    476    500 254.9 -17.6  34156  289.49 0854.53
2009/04/23 13:04:46.3    -350   -114    -54    369    373 251.9  -8.4  34146  289.33 0854.53
2009/04/23 13:04:46.4    -358     36    -16    360    361 275.8  -2.6  34146  289.33 0854.55
2009/04/23 13:04:46.5    -441    -62    -90    446    455 262.0 -11.5  34150  289.39 0854.55
2009/04/23 13:04:46.6    -481   -143   -165    502    528 253.4 -23.3  34142  289.28 0854.55
2009/04/23 13:04:46.7    -489   -264   -172    556    583 241.6 -17.2  34142  289.25 0854.55
2009/04/23 13:04:46.8    -316   -227     -9    390    391 234.3  -1.4  34136  289.16 0854.55
2009/04/23 13:04:46.9    -613    -34    -40    614    616 266.8  -3.7  34152  289.42 0854.55
2009/04/23 13:04:47.0    -325   -449   -144    555    574 215.9 -14.6  34144  289.31 0854.55
2009/04/23 13:04:47.1    -486    -36     41    488    490 265.7   4.9  34140  289.23 0854.55
2009/04/23 13:04:47.2    -360   -106   -112    376    392 253.6 -21.5  34152  289.42 0854.55
2009/04/23 13:04:47.3    -284   -125   -106    311    329 246.3 -19.0  34160  289.58 0854.55
2009/04/23 13:04:47.4    -199   -404    -57    451    455 206.3  -7.3  34152  289.43 0854.55
2009/04/23 13:04:47.5    -103   -517     43    528    530 191.3   4.7  34136  289.16 0854.55
2009/04/23 13:04:47.6    -169   -308     97    352    366 208.8  15.4  34154  289.47 0854.55
2009/04/23 13:04:47.7    -102   -503    106    514    525 191.5  11.7  34134  289.14 0854.55
2009/04/23 13:04:47.8     -22   -645    -20    646    647 182.0  -1.8  34130  289.08 0854.55
2009/04/23 13:04:47.9      89   -616     -5    623    624 171.8  -0.5  34130  289.08 0854.55
2009/04/23 13:04:48.0       9   -628     58    629    632 179.1   5.3  34136  289.16 0854.55
2009/04/23 13:04:48.1     181   -671    -25    696    697 164.9  -2.1  34140  289.24 0854.55
2009/04/23 13:04:48.2     405   -565     81    696    701 144.4   6.7  34134  289.13 0854.55
2009/04/23 13:04:48.3      77   -837    202    841    865 174.7  13.5  34140  289.22 0854.55
2009/04/23 13:04:48.4     179   -718    256    740    784 166.0  19.1  34128  289.03 0854.55
2009/04/23 13:04:48.5     199   -717    313    745    808 164.5  24.2  34132  289.10 0854.55
2009/04/23 13:04:48.6     249   -723    281    765    814 161.0  21.1  34130  289.05 0854.55
2009/04/23 13:04:48.7      51   -676    165    678    698 175.6  13.7  34138  289.21 0854.55
2009/04/23 13:04:48.8      62   -626    322    630    707 174.3  29.2  34146  289.32 0854.55
2009/04/23 13:04:48.9      21   -753    255    754    797 178.4  18.7  34140  289.24 0854.55
2009/04/23 13:04:49.0    -234   -669    298    709    769 199.3  24.2  34144  289.31 0854.55
2009/04/23 13:04:49.1     -69   -713    333    717    790 185.6  26.7  34134  289.14 0854.55
2009/04/23 13:04:49.2    -150   -555    205    576    612 195.2  19.6  34142  289.25 0854.55
2009/04/23 13:04:49.3    -206   -564     62    601    605 200.1   5.9  34134  289.14 0854.55
2009/04/23 13:04:49.4    -243   -593    104    642    651 202.3   9.2  34142  289.26 0854.55
2009/04/23 13:04:49.5     -72   -465     50    471    474 188.8   6.1  34138  289.20 0854.55
2009/04/23 13:04:49.6     -70   -495     78    501    508 188.1   8.9  34142  289.25 0854.55
2009/04/23 13:04:49.7    -109   -537     71    548    553 191.5   7.4  34140  289.23 0854.55
2009/04/23 13:04:49.8    -127   -525    -21    541    542 193.7  -2.2  34140  289.23 0854.55
2009/04/23 13:04:49.9     -84   -599   -119    606    618 188.0 -11.1  34134  289.14 0854.55
2009/04/23 13:04:50.0     -58   -467   -175    471    502 187.1 -25.9  34140  289.23 0854.55
2009/04/23 13:04:50.1     -19   -500   -167    501    528 182.3 -23.6  34150  289.41 0854.55
2009/04/23 13:04:50.2     -52   -363   -146    367    394 188.2 -27.3  34142  289.28 0854.55
2009/04/23 13:04:50.3      94   -395   -120    407    424 166.6 -21.2  34142  289.26 0854.55
2009/04/23 13:04:50.4     124   -376    -71    396    403 161.7 -10.2  34142  289.26 0854.55
2009/04/23 13:04:50.5      -3   -295     15    296    297 180.7   2.9  34144  289.31 0854.55
2009/04/23 13:04:50.6    -100   -181      3    208    209 209.0   1.0  34146  289.33 0854.55
2009/04/23 13:04:50.7     -14   -207    -15    208    209 184.0  -4.4  34146  289.35 0854.55
2009/04/23 13:04:50.8     -55   -209    -37    217    221 194.9  -9.8  34146  289.35 0854.55
2009/04/23 13:04:50.9     -19   -235    -29    236    238 184.7  -7.2  34146  289.34 0854.55
2009/04/23 13:04:51.0       2   -426      5    427    428 179.7   0.7  34146  289.33 0854.55
2009/04/23 13:04:51.1    -128   -305    -80    331    341 202.8 -13.6  34146  289.32 0854.55
2009/04/23 13:04:51.2    -136   -286     39    317    320 205.5   7.1  34142  289.25 0854.55
2009/04/23 13:04:51.3     -16   -251     11    252    253 183.8   2.5  34146  289.32 0854.55
2009/04/23 13:04:51.4     124   -285     -9    312    313 156.4  -1.8  34148  289.36 0854.55
2009/04/23 13:04:51.5     296   -162    -39    338    341 118.8  -6.7  34150  289.40 0854.55
2009/04/23 13:04:51.6     111   -235     12    261    262 154.7   2.8  34150  289.39 0854.55
2009/04/23 13:04:51.7      70   -234     -1    245    246 163.3  -0.3  34152  289.42 0854.55
2009/04/23 13:04:51.8    -108   -209     64    236    245 207.4  15.3  34148  289.37 0854.55
2009/04/23 13:04:51.9    -166   -312     96    354    367 208.0  15.3  34146  289.33 0854.55
2009/04/23 13:04:52.0    -239   -388     65    456    461 211.7   8.2  34150  289.41 0854.55
2009/04/23 13:04:52.1    -204   -341     76    398    406 210.9  10.8  34148  289.38 0854.55
2009/04/23 13:04:52.2    -216   -203    134    297    325 226.9  25.9  34152  289.44 0854.55
2009/04/23 13:04:52.3    -188    -60    115    198    228 252.3  32.9  34156  289.50 0854.55
2009/04/23 13:04:52.4    -136   -135    169    192    255 225.2  45.8  34156  289.51 0854.54
2009/04/23 13:04:52.5      32    -88    172     94    196 159.5  69.1  34156  289.52 0854.54
2009/04/23 13:04:52.6      99   -180    241    206    317 151.0  55.3  34154  289.47 0854.54
2009/04/23 13:04:52.7     258    -84    319    272    419 108.2  55.4  34152  289.42 0854.54
2009/04/23 13:04:52.8     315   -105    247    333    414 108.5  40.2  34156  289.50 0854.54
2009/04/23 13:04:52.9      53   -116    156    128    201 155.5  56.4  34136  289.16 0854.54
2009/04/23 13:04:53.0      19    -10    -17     22     27 117.1 -46.1  34156  289.52 0854.54
2009/04/23 13:04:53.1     -83     23     12     87     88 285.9   8.5  34154  289.46 0854.54
2009/04/23 13:04:53.2    -185     -2    -51    186    194 269.2 -15.5  34152  289.45 0854.54
2009/04/23 13:04:53.3    -192    -98    -92    216    234 243.0 -29.0  34146  289.35 0854.54
2009/04/23 13:04:53.4     -47   -203     57    209    217 193.1  15.3  34152  289.43 0854.54
2009/04/23 13:04:53.5    -105   -176    -60    205    213 210.8 -21.5  34154  289.46 0854.54
2009/04/23 13:04:53.6     -18   -203    -26    204    206 185.3  -7.3  34158  289.55 0854.54
2009/04/23 13:04:53.8     -21   -164    -65    166    178 187.3 -26.9  34152  289.45 0854.54
2009/04/23 13:04:53.8     -27   -139    -74    142    160 191.1 -34.2  34154  289.46 0854.54
2009/04/23 13:04:53.9      43   -130    -32    137    141 161.7 -13.4  34154  289.48 0854.54
2009/04/23 13:04:54.1       0     -7     23      8     24 175.5  81.0  34160  289.57 0854.54
2009/04/23 13:04:54.2     -72     77     15    106    108 316.8   8.5  34146  289.35 0854.54
2009/04/23 13:04:54.3    -259     19    -14    260    261 274.3  -3.2  34152  289.44 0854.54
2009/04/23 13:04:54.4    -167     84    100    188    212 296.9  30.3  34156  289.50 0854.54
2009/04/23 13:04:54.5    -166     98    115    194    225 300.7  33.5  34156  289.52 0854.54
2009/04/23 13:04:54.6    -259     51     16    265    266 281.2   3.6  34154  289.47 0854.54
2009/04/23 13:04:54.7    -252    206     29    326    328 309.3   5.1  34160  289.56 0854.54
2009/04/23 13:04:54.8    -158    166    -20    230    231 316.3  -5.1  34158  289.53 0854.54
2009/04/23 13:04:54.9     -74    109     45    132    140 325.8  18.9  34146  289.35 0854.54
2009/04/23 13:04:55.0     -73    176     53    191    199 337.3  15.6  34158  289.53 0854.54
2009/04/23 13:04:55.1     -48    196     56    202    210 346.0  15.6  34158  289.53 0854.54
2009/04/23 13:04:55.2     -90     65    130    112    171 305.9  54.8  34160  289.58 0854.54
2009/04/23 13:04:55.3      13    157    110    158    192   4.9  38.0  34164  289.65 0854.54
2009/04/23 13:04:55.4     168    114    156    204    256  55.8  41.2  34160  289.58 0854.54
2009/04/23 13:04:55.5     -35    -22    124     42    130 237.5  81.2  34168  289.72 0854.54
2009/04/23 13:04:55.6      11   -145    219    146    263 175.6  63.6  34160  289.58 0854.54
2009/04/23 13:04:55.7     -46   -173    279    179    331 194.9  64.6  34162  289.59 0854.54
2009/04/23 13:04:55.8     -57   -103    182    118    216 208.9  64.4  34158  289.53 0854.54
2009/04/23 13:04:55.9     -32     75     82     82    115 336.8  50.1  34166  289.69 0854.54
2009/04/23 13:04:56.0    -139     49     95    148    175 289.5  35.6  34158  289.53 0854.54
2009/04/23 13:04:56.1    -187    103    139    214    255 298.8  36.0  34180  289.90 0854.54
2009/04/23 13:04:56.2    -170     85    127    191    229 296.6  36.7  34190  290.09 0854.54
2009/04/23 13:04:56.3     -45     25    111     52    122 299.8  73.5  34196  290.19 0854.54
2009/04/23 13:04:56.4       1   -122    135    123    182 179.1  52.7  34174  289.82 0854.54
2009/04/23 13:04:56.5      28   -104    167    108    198 164.9  64.4  34158  289.55 0854.55
2009/04/23 13:04:56.6       1   -199    178    200    267 179.5  46.4  34152  289.42 0854.55
2009/04/23 13:04:56.7      22   -173    242    175    298 172.7  60.6  34162  289.59 0854.55
2009/04/23 13:04:56.8     313   -146    221    346    410 115.0  35.6  34162  289.60 0854.55
2009/04/23 13:04:56.9     282    -81    186    294    347 106.0  35.5  34152  289.43 0854.55
2009/04/23 13:04:57.0      45    -48    143     67    157 136.8  73.5  34164  289.65 0854.55
2009/04/23 13:04:57.1      76    -24    194     80    209 108.2  76.3  34166  289.67 0854.55
2009/04/23 13:04:57.2      58     -7    154     59    164  97.0  78.6  34160  289.57 0854.55
2009/04/23 13:04:57.3     -31     52    175     61    185 329.3  80.7  34166  289.69 0854.55
2009/04/23 13:04:57.4     -62    -34    205     71    216 241.1  80.2  34164  289.63 0854.55
2009/04/23 13:04:57.5     -28    -13    197     31    199 244.6  90.0  34168  289.72 0854.55
2009/04/23 13:04:57.6    -129   -176    210    219    303 216.1  48.7  34156  289.51 0854.55
2009/04/23 13:04:57.7    -110   -195    132    225    260 209.4  33.4  34148  289.36 0854.55
2009/04/23 13:04:57.8    -373   -205     20    426    427 241.1   2.8  34156  289.51 0854.55
2009/04/23 13:04:57.9    -222   -384     37    444    446 210.0   4.9  34154  289.46 0854.55
2009/04/23 13:04:58.0    -171   -293     66    340    347 210.2  11.1  34152  289.45 0854.55
2009/04/23 13:04:58.1     -14   -316    -12    317    318 182.7  -2.2  34152  289.44 0854.55
2009/04/23 13:04:58.2      49   -291    -37    296    299 170.3  -7.2  34154  289.47 0854.55
2009/04/23 13:04:58.3       8   -323    -18    324    325 178.5  -3.2  34154  289.46 0854.55
2009/04/23 13:04:58.4      70   -196     58    209    217 160.4  15.6  34154  289.46 0854.56
2009/04/23 13:04:58.5     -25   -231    144    233    273 186.2  34.5  34154  289.47 0854.56
2009/04/23 13:04:58.6    -186   -257    127    318    342 216.0  23.0  34162  289.60 0854.56
2009/04/23 13:04:58.7     -90   -205    161    225    276 203.8  39.3  34156  289.49 0854.56
2009/04/23 13:04:58.8     -27   -367    143    368    394 184.2  22.3  34150  289.40 0854.56
2009/04/23 13:04:58.9       6   -329     60    330    336 178.9  10.4  34146  289.35 0854.56
2009/04/23 13:04:59.0      -3   -231     87    232    247 180.9  21.5  34148  289.37 0854.56
2009/04/23 13:04:59.1      15   -169     51    170    178 174.7  16.8  34150  289.41 0854.56
2009/04/23 13:04:59.2      56   -212     88    220    236 165.1  23.0  34148  289.36 0854.56
2009/04/23 13:04:59.3       9   -291    140    292    323 178.2  27.3  34152  289.42 0854.56
2009/04/23 13:04:59.4    -107   -236    136    260    293 204.5  29.8  34150  289.39 0854.56
2009/04/23 13:04:59.5    -188    -75      7    203    204 248.2   2.1  34150  289.40 0854.56
2009/04/23 13:04:59.6    -157     10    -83    158    178 273.9 -34.5  34154  289.46 0854.56
2009/04/23 13:04:59.7    -165     -8      9    166    167 267.0   3.1  34150  289.40 0854.56
2009/04/23 13:04:59.8    -123    -27     -9    126    127 257.6  -4.1  34148  289.38 0854.56
2009/04/23 13:04:59.9     -67    -20    -23     71     74 253.2 -23.8  34150  289.41 0854.56
2009/04/23 13:05:00.0    -117     -1    -48    118    127 269.2 -27.5  34152  289.43 0854.56
2009/04/23 13:05:00.1     -50     14    -49     52     71 285.9 -52.4  34152  289.45 0854.56
2009/04/23 13:05:00.2     -14     43    -30     46     54 342.2 -40.0  34154  289.46 0854.56
2009/04/23 13:05:00.3      -9     27     21     29     35 341.5  39.7  34156  289.52 0854.56
2009/04/23 13:05:00.4      26     26     32     37     48  45.0  46.9  34156  289.50 0854.57
2009/04/23 13:05:00.5      27     64     54     70     88  22.7  42.2  34154  289.46 0854.57
2009/04/23 13:05:00.6     -25    146     55    149    158 350.2  21.3  34150  289.40 0854.57
2009/04/23 13:05:00.7      19    256     26    257    259   4.4   5.9  34158  289.53 0854.57
2009/04/23 13:05:00.8      19    291    -37    292    295   3.8  -7.3  34160  289.56 0854.57
2009/04/23 13:05:00.9      24    319    -59    320    326   4.4 -10.5  34164  289.64 0854.57
2009/04/23 13:05:01.0      94    234    -67    253    262  21.8 -15.0  34166  289.66 0854.57
2009/04/23 13:05:01.1     120    209    -66    242    250  29.9 -20.0  34166  289.68 0854.57
2009/04/23 13:05:01.2      62    186    -61    197    206  18.5 -22.3  34164  289.63 0854.57
2009/04/23 13:05:01.3      22    288    -69    289    298   4.5 -13.4  34162  289.61 0854.57
2009/04/23 13:05:01.4      79    287    -58    298    304  15.4 -11.1  34168  289.70 0854.57
2009/04/23 13:05:01.5     199    237     38    310    313  40.1   7.1  34190  290.07 0854.57
2009/04/23 13:05:01.6     280    171    109    329    347  58.6  18.4  34202  290.30 0854.57
2009/04/23 13:05:01.7     209    104    136    234    270  63.4  33.1  34248  291.07 0854.57
2009/04/23 13:05:01.8     203    145    175    250    305  54.5  38.5  34240  290.92 0854.57
2009/04/23 13:05:01.9     222    127    175    256    310  60.2  37.6  34242  290.95 0854.57
2009/04/23 13:05:02.0     195    124    164    232    284  57.6  38.8  34248  291.07 0854.57
2009/04/23 13:05:02.1     188     49    212    195    288  75.4  52.5  34224  290.65 0854.57
2009/04/23 13:05:02.2      87    -87    194    124    230 134.9  64.6  34192  290.13 0854.57
2009/04/23 13:05:02.3     117    -91    154    149    214 127.7  50.7  34162  289.60 0854.57
2009/04/23 13:05:02.4    -120   -191    181    226    289 212.3  42.8  34196  290.19 0854.59
2009/04/23 13:05:02.5    -109   -269    125    291    316 202.1  24.8  34176  289.85 0854.59
2009/04/23 13:05:02.6      -9   -391    165    392    425 181.4  24.2  34148  289.38 0854.59
2009/04/23 13:05:02.7      64   -266    231    274    358 166.4  44.4  34162  289.59 0854.59
2009/04/23 13:05:02.8     -24   -317    178    318    364 184.4  31.7  34160  289.57 0854.59
2009/04/23 13:05:02.9      23   -490    358    491    607 177.2  39.7  34164  289.63 0854.59
2009/04/23 13:05:03.0      30   -460    370    462    591 176.2  42.8  34164  289.63 0854.59
2009/04/23 13:05:03.1     -42   -396    395    399    561 186.1  49.9  34158  289.54 0854.59
2009/04/23 13:05:03.2     -63   -423    402    428    587 188.5  48.0  34154  289.48 0854.59
2009/04/23 13:05:03.3     -51   -386    366    390    534 187.6  48.0  34164  289.64 0854.59
2009/04/23 13:05:03.4    -148   -407    123    434    452 200.1  15.9  34158  289.55 0854.59
2009/04/23 13:05:03.5     -56   -485     58    489    493 186.6   6.9  34158  289.54 0854.59
2009/04/23 13:05:03.6    -154   -364     35    396    398 202.9   5.1  34158  289.54 0854.59
2009/04/23 13:05:03.7     -70   -277     14    286    287 194.3   2.9  34164  289.64 0854.59
2009/04/23 13:05:03.8      81   -246     52    260    266 161.7  11.4  34158  289.53 0854.59
2009/04/23 13:05:03.9      87   -164     17    186    187 152.1   5.4  34158  289.53 0854.59
2009/04/23 13:05:04.0     -11   -175    -74    176    190 183.8 -28.5  34160  289.57 0854.59
2009/04/23 13:05:04.1     -94   -271   -230    287    367 199.2 -47.3  34162  289.62 0854.59
2009/04/23 13:05:04.2     153   -294     37    332    335 152.5   6.4  34156  289.50 0854.59
2009/04/23 13:05:04.3      37   -388   -129    390    410 174.4 -23.6  34168  289.70 0854.59
2009/04/23 13:05:04.4      -5   -405   -128    406    426 180.8 -17.5  34166  289.66 0854.59
2009/04/23 13:05:04.5      65   -322    -66    329    336 168.4 -11.3  34160  289.57 0854.59
2009/04/23 13:05:04.6       9   -290   -144    291    324 178.2 -32.5  34168  289.71 0854.59
2009/04/23 13:05:04.7      99   -249    -49    269    274 158.2 -10.5  34160  289.58 0854.59
2009/04/23 13:05:04.8     217   -334     19    399    400 147.0   2.8  34156  289.50 0854.59
2009/04/23 13:05:04.9     343   -339     82    483    490 134.7   9.7  34160  289.57 0854.59
2009/04/23 13:05:05.0     363   -354    140    508    528 134.3  15.4  34154  289.46 0854.59
2009/04/23 13:05:05.1     322   -336    222    466    516 136.2  27.3  34150  289.39 0854.59
2009/04/23 13:05:05.2     294   -393    271    492    561 143.2  31.3  34146  289.35 0854.59
2009/04/23 13:05:05.3     126   -447    214    465    511 164.2  26.4  34152  289.45 0854.59
2009/04/23 13:05:05.4     206   -272   -111    342    360 142.8 -18.0  34154  289.47 0854.59
2009/04/23 13:05:05.5     210   -322     59    385    390 146.9   8.7  34152  289.45 0854.59
2009/04/23 13:05:05.6     338   -281     39    440    442 129.8   5.2  34156  289.51 0854.59
2009/04/23 13:05:05.7     307   -309    151    436    462 135.2  19.2  34148  289.38 0854.59
2009/04/23 13:05:05.8     123   -214    213    247    326 150.1  45.2  34150  289.39 0854.59
2009/04/23 13:05:05.9     -11   -167    254    168    304 184.0  63.6  34156  289.49 0854.59
2009/04/23 13:05:06.0     -22   -105    280    108    300 192.0  78.1  34154  289.46 0854.59
2009/04/23 13:05:06.1     -41   -312    345    315    467 187.6  52.9  34160  289.56 0854.59
2009/04/23 13:05:06.2     140   -246    208    284    352 150.4  39.9  34146  289.33 0854.59
2009/04/23 13:05:06.3     -12   -231    171    232    288 183.1  39.9  34152  289.44 0854.59
2009/04/23 13:05:06.4     -77   -336    156    345    378 192.9  26.0  34154  289.48 0854.60
2009/04/23 13:05:06.5      92   -298     55    312    317 162.8  10.0  34146  289.32 0854.60
2009/04/23 13:05:06.6     -88   -204    271    223    350 203.4  56.4  34156  289.51 0854.60
2009/04/23 13:05:06.7     -90   -333    226    346    413 195.2  36.3  34156  289.52 0854.60
2009/04/23 13:05:06.8      54   -158    213    168    271 161.1  57.5  34152  289.42 0854.60
2009/04/23 13:05:06.9     140    -66    251    156    295 115.4  65.1  34164  289.63 0854.60
2009/04/23 13:05:07.0      98    -53    192    112    222 118.4  67.0  34166  289.67 0854.60
2009/04/23 13:05:07.1      24   -134    202    137    244 169.8  62.7  34162  289.60 0854.60
2009/04/23 13:05:07.2       3   -236    335    237    410 179.1  61.3  34162  289.59 0854.60
2009/04/23 13:05:07.3      31    -92    209     98    230 161.3  73.1  34164  289.63 0854.60
2009/04/23 13:05:07.4     205   -401    197    451    492 152.9  25.2  34146  289.35 0854.61
2009/04/23 13:05:07.5     337   -395     17    520    521 139.6   1.9  34152  289.45 0854.61
2009/04/23 13:05:07.6     393   -227     -9    454    455 120.0  -1.2  34142  289.27 0854.61
2009/04/23 13:05:07.7     375   -376     79    532    538 135.1   8.5  34152  289.45 0854.61
2009/04/23 13:05:07.8     379   -395    139    548    566 136.2  14.3  34146  289.33 0854.61
2009/04/23 13:05:07.9     327   -496    205    595    630 146.6  19.1  34144  289.30 0854.61
2009/04/23 13:05:08.0     346   -430     72    552    557 141.2   7.5  34144  289.29 0854.61
2009/04/23 13:05:08.1     315   -569    174    651    674 151.0  15.0  34144  289.29 0854.61
2009/04/23 13:05:08.2     431   -389    172    581    607 132.1  16.5  34146  289.34 0854.61
2009/04/23 13:05:08.3     300   -418    179    515    546 144.3  19.2  34148  289.36 0854.61
2009/04/23 13:05:08.4     344   -302    199    458    499 131.3  25.1  34150  289.40 0854.61
2009/04/23 13:05:08.5     269   -234    201    357    409 131.0  31.9  34148  289.37 0854.61
2009/04/23 13:05:08.6     238   -108    214    262    338 114.4  43.5  34152  289.42 0854.61
2009/04/23 13:05:08.7      98   -222    214    243    323 156.2  45.8  34156  289.51 0854.61
2009/04/23 13:05:08.8      86   -257    -73    272    282 161.5 -15.0  34150  289.41 0854.61
2009/04/23 13:05:08.9     106   -241    -57    264    271 156.2 -12.2  34148  289.37 0854.61
2009/04/23 13:05:09.0     146   -183    -48    235    240 141.5 -11.6  34156  289.49 0854.61
2009/04/23 13:05:09.1     297   -188    140    352    378 122.4  23.0  34140  289.23 0854.61
2009/04/23 13:05:09.2     384   -173    236    422    483 114.3  31.9  34152  289.43 0854.61
2009/04/23 13:05:09.3     310    -41    218    313    381  97.7  38.3  34152  289.42 0854.61
2009/04/23 13:05:09.4      82    -80    195    115    226 134.4  66.8  34160  289.57 0854.61
2009/04/23 13:05:09.5     198    -25    123    200    234  97.2  34.4  34154  289.48 0854.61
2009/04/23 13:05:09.6     111   -106    153    154    217 133.6  50.0  34154  289.46 0854.61
2009/04/23 13:05:09.7     134    -97    151    166    224 125.9  47.5  34156  289.52 0854.61
2009/04/23 13:05:09.8      74   -155    200    172    263 154.4  55.3  34158  289.53 0854.61
2009/04/23 13:05:09.9      45    -36    141     58    152 128.6  77.0  34160  289.57 0854.61
2009/04/23 13:05:10.0     202    -38    180    206    273 100.8  45.8  34160  289.56 0854.61
2009/04/23 13:05:10.1     191    -43    188    196    271 102.8  49.0  34156  289.51 0854.61
2009/04/23 13:05:10.2     195   -141    129    241    273 125.9  30.3  34156  289.49 0854.61
2009/04/23 13:05:10.3      54   -162    156    171    231 161.5  47.5  34150  289.40 0854.61
2009/04/23 13:05:10.4      14   -312    334    313    457 177.4  52.1  34158  289.53 0854.61
2009/04/23 13:05:10.5      18   -285    334    286    439 176.4  55.3  34148  289.37 0854.61
2009/04/23 13:05:10.6      48   -341    329    345    476 172.0  48.6  34156  289.49 0854.61
2009/04/23 13:05:10.7      40     -3    245     41    248  95.2  90.0  34160  289.57 0854.61
2009/04/23 13:05:10.8     -31     32    120     45    128 315.8  79.1  34158  289.55 0854.61
2009/04/23 13:05:10.9      93     67    207    115    236  54.1  68.8  34160  289.57 0854.61
2009/04/23 13:05:11.0     112     26    137    116    179  76.7  55.6  34160  289.57 0854.61
2009/04/23 13:05:11.1     246    -31    257    248    357  97.2  51.2  34150  289.41 0854.61
2009/04/23 13:05:11.2     178   -229    133    291    319 142.1  26.3  34154  289.46 0854.61
2009/04/23 13:05:11.3      56   -274    164    280    324 168.4  33.1  34150  289.39 0854.61
2009/04/23 13:05:11.4      43   -327    114    330    350 172.4  19.1  34152  289.43 0854.62
2009/04/23 13:05:11.5    -102   -248    106    269    289 202.3  22.5  34148  289.37 0854.62
2009/04/23 13:05:11.6     -24   -170     55    172    181 188.2  17.7  34150  289.40 0854.62
2009/04/23 13:05:11.7      90   -175     93    197    217 152.8  27.2  34152  289.45 0854.62
2009/04/23 13:05:11.8     338   -217    160    402    432 122.8  23.0  34148  289.38 0854.62
2009/04/23 13:05:11.9     296   -142    288    329    437 115.8  45.8  34150  289.41 0854.62
2009/04/23 13:05:12.0      96   -273     -1    290    291 160.6  -0.3  34152  289.44 0854.62
2009/04/23 13:05:12.1      -7   -490    -44    491    494 180.9  -5.2  34150  289.40 0854.62
2009/04/23 13:05:12.2      29   -480   -133    481    500 176.5 -15.5  34156  289.50 0854.62
2009/04/23 13:05:12.3     175   -256    -61    311    317 145.7 -11.1  34152  289.42 0854.62
2009/04/23 13:05:12.4     280   -337     29    439    440 140.3   3.8  34152  289.43 0854.62
2009/04/23 13:05:12.5     380   -238     64    449    454 122.1   8.1  34150  289.41 0854.62
2009/04/23 13:05:12.6     414   -215    187    467    503 117.5  23.0  34152  289.42 0854.62
2009/04/23 13:05:12.7     361   -199    230    413    472 118.9  31.6  34146  289.34 0854.62
2009/04/23 13:05:12.8     144   -320    272    352    444 155.7  41.6  34152  289.44 0854.62
2009/04/23 13:05:12.9     -21   -399    149    400    426 183.0  21.3  34152  289.44 0854.62
2009/04/23 13:05:13.0    -167   -322    140    363    389 207.4  22.2  34152  289.45 0854.62
2009/04/23 13:05:13.1     -92   -244    140    261    296 200.7  30.6  34156  289.51 0854.62
2009/04/23 13:05:13.2       0   -197     27    198    200 180.0   7.8  34152  289.45 0854.62
2009/04/23 13:05:13.3      43   -123    -77    131    151 160.8 -37.9  34146  289.35 0854.62
2009/04/23 13:05:13.4      52    -95    -44    109    117 151.0 -27.4  34156  289.50 0854.60
2009/04/23 13:05:13.5      40   -122    -68    129    145 161.7 -34.7  34154  289.48 0854.60
2009/04/23 13:05:13.6     -58    -72    -86     93    126 218.7 -52.3  34158  289.53 0854.60
2009/04/23 13:05:13.7    -119    137     -3    182    183 319.0  -1.1  34154  289.48 0854.60
2009/04/23 13:05:13.8    -136    196    -85    239    254 325.3 -19.6  34164  289.63 0854.60
2009/04/23 13:05:13.9     -44    216    -74    221    233 348.5 -23.6  34162  289.60 0854.60
2009/04/23 13:05:14.0     -43    119    -64    127    142 340.0 -33.1  34168  289.72 0854.60
2009/04/23 13:05:14.1     -12     61   -112     63    128 348.4 -72.7  34172  289.79 0854.60
2009/04/23 13:05:14.2     -15      8    -47     18     50 298.9 -83.6  34176  289.85 0854.60
2009/04/23 13:05:14.3     -23    -57    -22     62     66 202.7 -19.7  34176  289.85 0854.60
2009/04/23 13:05:14.4     -14    -99     74    101    125 188.1  39.7  34174  289.82 0854.60
2009/04/23 13:05:14.5     -96   -100    131    139    191 223.7  48.2  34168  289.72 0854.60
2009/04/23 13:05:14.6     -75    -14    131     77    151 259.4  66.8  34172  289.79 0854.60
2009/04/23 13:05:14.7    -130     10    119    131    176 274.4  47.1  34164  289.65 0854.60
2009/04/23 13:05:14.8     -94      1    152     95    179 270.8  64.9  34166  289.67 0854.60
2009/04/23 13:05:14.9       3    -86    139     87    163 177.8  64.9  34162  289.62 0854.60
2009/04/23 13:05:15.0     -12   -280    222    281    358 182.5  42.2  34142  289.25 0854.60
2009/04/23 13:05:15.1     -13   -453    279    454    532 181.7  34.4  34156  289.49 0854.60
2009/04/23 13:05:15.2     -86   -504    224    512    558 189.8  25.2  34156  289.51 0854.60
2009/04/23 13:05:15.3     -32   -480    210    482    525 183.9  25.1  34154  289.47 0854.60
2009/04/23 13:05:15.4     -88   -492    149    500    522 190.2  16.7  34162  289.59 0854.61
2009/04/23 13:05:15.5     -52   -431    187    435    473 187.0  24.8  34162  289.60 0854.61
2009/04/23 13:05:15.6     -36   -352    125    354    376 185.9  19.6  34158  289.54 0854.61
2009/04/23 13:05:15.7    -138   -347     34    374    376 201.8   5.3  34158  289.55 0854.61
2009/04/23 13:05:15.8     -77   -314    -60    324    330 193.8 -10.5  34160  289.58 0854.61
2009/04/23 13:05:15.9      93   -292    -91    307    320 162.2 -21.5  34158  289.54 0854.61
2009/04/23 13:05:16.0     113   -249   -116    274    297 155.5 -28.6  34160  289.58 0854.61
2009/04/23 13:05:16.1     215   -122      7    248    249 119.5   1.8  34162  289.61 0854.61
2009/04/23 13:05:16.2      61    -96     57    115    128 147.5  28.2  34158  289.55 0854.61
2009/04/23 13:05:16.3     -22   -120     20    123    125 190.7   9.5  34158  289.55 0854.61
2009/04/23 13:05:16.4     133   -250    -55    284    290 151.9 -11.1  34158  289.53 0854.61
2009/04/23 13:05:16.5      46   -255    -64    260    268 169.8 -13.9  34158  289.54 0854.61
2009/04/23 13:05:16.6     -36   -130     26    136    139 195.6  11.0  34158  289.55 0854.61
2009/04/23 13:05:16.7    -228   -129    -14    263    264 240.5  -3.1  34158  289.54 0854.61
2009/04/23 13:05:16.8    -206   -131     -9    245    246 237.6  -2.2  34160  289.58 0854.61
2009/04/23 13:05:16.9    -264   -145    -50    302    307 241.1  -9.4  34162  289.61 0854.61
2009/04/23 13:05:17.0    -195    -46    -25    201    203 256.7  -7.3  34160  289.57 0854.61
2009/04/23 13:05:17.1     -39   -159    162    164    230 194.0  50.0  34158  289.55 0854.61
2009/04/23 13:05:17.2      19   -253    136    254    288 175.5  30.3  34158  289.53 0854.61
2009/04/23 13:05:17.3     -60   -336    -16    342    343 190.1  -2.8  34162  289.60 0854.61
2009/04/23 13:05:17.4    -137   -215    -47    256    261 212.6 -10.4  34156  289.49 0854.62
2009/04/23 13:05:17.5     -69     27    -82     75    111 291.7 -57.1  34154  289.48 0854.62
2009/04/23 13:05:17.6      53    109     31    122    126  25.9  14.3  34164  289.63 0854.62
2009/04/23 13:05:17.7     125    -51    146    136    199 112.2  52.1  34164  289.63 0854.62
2009/04/23 13:05:17.8     -58      4     99     59    115 274.4  65.7  34166  289.69 0854.62
2009/04/23 13:05:17.9     -93    -18    -19     95     97 258.5 -11.3  34166  289.67 0854.62
2009/04/23 13:05:18.0    -145    -87    -50    170    178 238.9 -16.6  34162  289.62 0854.62
2009/04/23 13:05:18.1    -270   -150    -26    310    312 240.9  -4.8  34156  289.49 0854.62
2009/04/23 13:05:18.2    -399   -289   -154    493    516 234.0 -22.3  34156  289.50 0854.62
2009/04/23 13:05:18.3    -427   -311   -141    529    548 233.9 -15.0  34156  289.50 0854.62
2009/04/23 13:05:18.4    -214   -160    -80    268    280 233.1 -16.6  34162  289.61 0854.62
2009/04/23 13:05:18.5    -392   -195    155    439    466 243.5  19.5  34156  289.51 0854.62
2009/04/23 13:05:18.6    -518    -71    102    523    534 262.1  11.1  34162  289.60 0854.62
2009/04/23 13:05:18.7    -431   -108    132    445    465 255.8  16.5  34156  289.49 0854.62
2009/04/23 13:05:18.8    -331   -159    297    368    472 244.3  43.0  34168  289.70 0854.62
2009/04/23 13:05:18.9    -249   -444    311    510    597 209.3  34.3  34166  289.68 0854.62
2009/04/23 13:05:19.0    -302   -219    155    374    404 234.1  23.9  34164  289.65 0854.62
2009/04/23 13:05:19.1    -347   -225   -161    414    444 237.0 -26.7  34170  289.73 0854.62
2009/04/23 13:05:19.2    -162   -297    181    339    384 208.6  30.6  34162  289.60 0854.62
2009/04/23 13:05:19.3     -26   -611    376    612    718 182.5  34.5  34156  289.51 0854.62
2009/04/23 13:05:19.4     161   -587    284    609    671 164.6  26.9  34154  289.47 0854.62
2009/04/23 13:05:19.5     382   -454     50    594    597 139.9   4.9  34160  289.58 0854.62
2009/04/23 13:05:19.6     456   -436   -117    632    643 133.7 -10.5  34158  289.53 0854.62
2009/04/23 13:05:19.8     296   -515   -151    595    615 150.1 -14.3  34142  289.25 0854.62
2009/04/23 13:05:19.9     443   -675    -19    808    809 146.7  -1.4  34152  289.43 0854.62
2009/04/23 13:05:19.9     460   -760     37    889    890 148.8   2.4  34156  289.50 0854.62
2009/04/23 13:05:20.1     388   -636     49    746    748 148.6   3.8  34166  289.68 0854.62
2009/04/23 13:05:20.2     380   -581    108    695    704 146.8   8.9  34162  289.59 0854.62
2009/04/23 13:05:20.3     404   -389    315    562    644 133.9  31.7  34166  289.69 0854.62
2009/04/23 13:05:20.4     369   -381    145    531    551 135.9  15.3  34174  289.82 0854.62
2009/04/23 13:05:20.5     404   -540   -121    675    686 143.2 -10.2  34160  289.58 0854.62
2009/04/23 13:05:20.6     376   -808    173    892    909 155.1  11.0  34172  289.78 0854.62
2009/04/23 13:05:20.7     499   -769    216    917    943 147.0  13.3  34172  289.78 0854.62
2009/04/23 13:05:20.8     601   -647    133    884    895 137.1   8.6  34172  289.79 0854.62
2009/04/23 13:05:20.9     315   -720    130    787    798 156.4   9.4  34168  289.71 0854.62
2009/04/23 13:05:21.0      38  -1050     64   1051   1053 177.9   3.5  34166  289.68 0854.62
2009/04/23 13:05:21.1    -218   -933     55    959    961 193.2   3.3  34156  289.52 0854.62
2009/04/23 13:05:21.2    -507   -747   -108    903    910 214.2  -6.9  34174  289.80 0854.62
2009/04/23 13:05:21.3    -486   -808    -80    943    947 211.0  -4.9  34162  289.59 0854.62
2009/04/23 13:05:21.4    -554   -517     10    759    760 227.0   0.8  34182  289.95 0854.62
2009/04/23 13:05:21.5    -554   -491   -114    741    750 228.5  -8.8  34172  289.79 0854.62
2009/04/23 13:05:21.6    -287   -428   -102    516    527 213.8 -11.2  34174  289.80 0854.62
2009/04/23 13:05:21.7    -162   -210   -170    266    315 217.8 -40.0  34170  289.75 0854.62
2009/04/23 13:05:21.8     -65    111   -136    129    187 329.7 -56.4  34176  289.85 0854.62
2009/04/23 13:05:21.9     -85    174    -56    194    201 333.9 -21.0  34174  289.82 0854.62
2009/04/23 13:05:22.0       5    297     42    298    302   1.0   8.0  34182  289.95 0854.62
2009/04/23 13:05:22.1     223    107    -48    248    253  64.2 -11.1  34176  289.85 0854.62
2009/04/23 13:05:22.2     333     15     18    334    335  87.4   3.1  34174  289.82 0854.62
2009/04/23 13:05:22.3     282     12      4    283    284  87.5   0.8  34172  289.78 0854.62
2009/04/23 13:05:22.4     452    -63     12    457    458  98.0   1.6  34166  289.68 0854.62
2009/04/23 13:05:22.5     420   -214     70    472    478 117.1   8.5  34176  289.84 0854.62
2009/04/23 13:05:22.6     456   -224     82    509    516 116.2   9.2  34172  289.79 0854.62
2009/04/23 13:05:22.7     352    -22     15    353    354  93.6   2.5  34166  289.67 0854.62
2009/04/23 13:05:22.8     294     -4    166    295    338  90.8  31.7  34170  289.73 0854.62
2009/04/23 13:05:22.9     417   -222    229    473    525 118.0  27.7  34168  289.71 0854.62
2009/04/23 13:05:23.0     337   -209    102    397    411 121.9  14.5  34168  289.72 0854.62
2009/04/23 13:05:23.1     377   -208     70    431    437 118.9   9.2  34170  289.73 0854.62
2009/04/23 13:05:23.2     324   -128    165    349    386 111.7  27.2  34172  289.77 0854.62
2009/04/23 13:05:23.3     349    -52    148    353    382  98.6  24.1  34168  289.71 0854.62
2009/04/23 13:05:23.4     212   -154     67    263    272 126.0  14.3  34174  289.81 0854.63
2009/04/23 13:05:23.5      60   -198    158    208    261 163.1  40.9  34168  289.71 0854.63
2009/04/23 13:05:23.6    -118   -231    171    260    311 207.0  36.3  34170  289.75 0854.63
2009/04/23 13:05:23.7    -325    -97   -137    340    366 253.3 -27.5  34172  289.79 0854.63
2009/04/23 13:05:23.8    -235   -172   -159    292    332 233.8 -35.3  34166  289.68 0854.63
2009/04/23 13:05:23.9      91   -150   -171    176    245 148.6 -53.6  34176  289.85 0854.63
2009/04/23 13:05:24.0     125   -310   -287    335    441 157.9 -49.4  34176  289.85 0854.63
2009/04/23 13:05:24.1       7   -137   -176    138    223 176.9 -62.6  34160  289.57 0854.63
2009/04/23 13:05:24.2    -294     84   -310    306    435 286.0 -54.6  34178  289.87 0854.63
2009/04/23 13:05:24.3    -386    208   -131    439    458 298.3 -21.7  34178  289.88 0854.63
2009/04/23 13:05:24.4    -373    126   -205    394    444 288.7 -33.9  34182  289.94 0854.63
2009/04/23 13:05:24.5    -126     27   -265    130    295 282.4 -76.5  34184  289.97 0854.63
2009/04/23 13:05:24.6      42    183   -154    188    243  13.1 -48.1  34176  289.85 0854.63
2009/04/23 13:05:24.7     129    201     62    240    248  32.7  14.5  34178  289.86 0854.63
2009/04/23 13:05:24.8      93     -7    294     94    308  94.8  81.6  34184  289.97 0854.63
2009/04/23 13:05:24.9       8     94    205     95    225   5.3  73.1  34184  289.99 0854.63
2009/04/23 13:05:25.0     106    -12    185    107    213  97.0  67.0  34180  289.92 0854.63
2009/04/23 13:05:25.1      15     45    190     48    195  18.5  85.9  34178  289.89 0854.63
2009/04/23 13:05:25.2     -94     35    171    101    198 290.4  66.8  34178  289.87 0854.63
2009/04/23 13:05:25.3     110    -32    150    115    189 106.4  58.7  34178  289.89 0854.63
2009/04/23 13:05:25.4      37     10    160     39    164  74.9  86.7  34182  289.94 0854.57
2009/04/23 13:05:25.5      42     88     82     98    127  25.5  43.8  34182  289.96 0854.57
2009/04/23 13:05:25.6     126    -12    136    127    186  95.7  52.2  34178  289.89 0854.57
2009/04/23 13:05:25.7     -26     43     97     51    109 329.3  69.8  34180  289.92 0854.57
2009/04/23 13:05:25.8     -67    -91     90    114    145 216.5  42.2  34178  289.89 0854.57
2009/04/23 13:05:25.9    -142     33     40    146    152 283.3  15.3  34176  289.85 0854.57
2009/04/23 13:05:26.0    -150     67    -23    165    167 294.0  -8.0  34176  289.85 0854.57
2009/04/23 13:05:26.1    -256    118     55    283    289 294.8  11.1  34174  289.80 0854.57
2009/04/23 13:05:26.2    -364    125     60    385    390 289.0   9.0  34180  289.91 0854.57
2009/04/23 13:05:26.3    -427     26    -34    428    430 273.5  -4.6  34174  289.82 0854.57
2009/04/23 13:05:26.4    -239    122   -131    269    299 297.1 -32.2  34176  289.83 0854.57
2009/04/23 13:05:26.5    -389    306     25    496    497 308.2   2.9  34172  289.78 0854.57
2009/04/23 13:05:26.6    -451    165    122    481    497 290.2  14.3  34170  289.73 0854.57
2009/04/23 13:05:26.7    -345   -207    225    403    461 239.0  31.4  34182  289.94 0854.57
2009/04/23 13:05:26.8    -376    -15    174    377    415 267.7  26.4  34182  289.95 0854.57
2009/04/23 13:05:26.9    -363    -35     94    365    377 264.4  14.5  34178  289.87 0854.57
2009/04/23 13:05:27.0    -369     87    145    380    406 283.3  22.0  34170  289.74 0854.57
2009/04/23 13:05:27.1    -303    -55    218    308    377 259.6  39.0  34178  289.89 0854.57
2009/04/23 13:05:27.2    -229    -75    184    242    304 251.8  41.4  34176  289.85 0854.57
2009/04/23 13:05:27.3    -117     96     52    152    161 309.6  18.9  34182  289.96 0854.57
2009/04/23 13:05:27.4      -4     57     16     58     61 355.5  15.3  34178  289.89 0854.56
2009/04/23 13:05:27.5      36    -34     60     50     78 133.1  55.4  34178  289.89 0854.56
2009/04/23 13:05:27.6      37     20     58     43     72  62.0  60.5  34176  289.84 0854.56
2009/04/23 13:05:27.7      44     -6     54     45     70  97.9  56.3  34174  289.82 0854.56
2009/04/23 13:05:27.8      17     92     84     94    126  10.7  46.9  34170  289.75 0854.56
2009/04/23 13:05:27.9     -47    104     46    115    123 335.5  23.0  34176  289.85 0854.56
2009/04/23 13:05:28.0     -80     70     60    107    122 310.9  31.4  34176  289.84 0854.56
2009/04/23 13:05:28.1    -118     36     34    124    129 286.9  15.3  34172  289.77 0854.56
2009/04/23 13:05:28.2    -122     67     66    140    154 298.8  27.2  34172  289.77 0854.56
2009/04/23 13:05:28.3     -57     99    108    115    157 330.1  48.2  34174  289.80 0854.56
2009/04/23 13:05:28.4    -143    -53    106    153    186 249.6  38.0  34170  289.75 0854.60
2009/04/23 13:05:28.5    -372   -126     15    394    395 251.2   2.2  34184  289.98 0854.60
2009/04/23 13:05:28.6    -174    -87    130    195    234 243.4  36.7  34176  289.85 0854.60
2009/04/23 13:05:28.7    -161    -87     85    184    202 241.6  26.4  34184  289.99 0854.60
2009/04/23 13:05:28.8    -114    -12     97    115    150 263.9  43.8  34178  289.87 0854.60
2009/04/23 13:05:28.9     -12    -46     62     48     78 195.1  57.9  34186  290.01 0854.60
2009/04/23 13:05:29.0       0    -36    121     37    126 179.1  82.3  34184  289.97 0854.60
2009/04/23 13:05:29.1      -6     76    145     77    164 355.5  69.8  34188  290.06 0854.60
2009/04/23 13:05:29.2      -1     48    120     49    129 358.2  77.1  34184  289.99 0854.60
2009/04/23 13:05:29.3      -2    -48     93     49    105 182.7  69.8  34180  289.91 0854.60
2009/04/23 13:05:29.4      70    -82     74    108    130 139.5  37.6  34176  289.85 0854.60
2009/04/23 13:05:29.5      45    -25    114     52    125 119.8  74.0  34178  289.89 0854.60
2009/04/23 13:05:29.6      21    -13     89     26     92 122.4  83.3  34178  289.89 0854.60
2009/04/23 13:05:29.7       7    -32     83     33     89 166.6  77.6  34180  289.91 0854.60
2009/04/23 13:05:29.8     -23    -72    140     76    159 198.3  69.3  34174  289.80 0854.60
2009/04/23 13:05:29.9     -23   -119    151    122    194 191.1  56.6  34174  289.82 0854.60
2009/04/23 13:05:30.0      -5   -146    168    147    223 182.2  54.3  34174  289.80 0854.60
2009/04/23 13:05:30.1      12    -58    111     60    126 168.4  69.3  34182  289.96 0854.60
2009/04/23 13:05:30.2      69   -171     95    185    207 158.1  29.3  34174  289.82 0854.60
2009/04/23 13:05:30.3     121   -173     37    212    216 145.0  10.1  34174  289.80 0854.60
2009/04/23 13:05:30.4     143   -211    137    256    290 145.8  30.3  34174  289.81 0854.52
2009/04/23 13:05:30.5     129   -197    110    236    260 146.8  27.0  34174  289.81 0854.52
2009/04/23 13:05:30.6     151    -63    113    164    199 112.6  37.8  34174  289.82 0854.52
2009/04/23 13:05:30.7     111   -113    127    159    203 135.5  42.7  34174  289.80 0854.52
2009/04/23 13:05:30.8     103    -57    120    118    168 118.9  50.1  34178  289.87 0854.52
2009/04/23 13:05:30.9     102    -89    166    136    214 130.9  56.4  34176  289.85 0854.52
2009/04/23 13:05:31.0     122   -123    124    174    213 135.2  39.1  34176  289.84 0854.52
2009/04/23 13:05:31.1      83   -262     94    275    291 162.4  18.9  34174  289.80 0854.52
2009/04/23 13:05:31.2      74   -310     -7    319    320 166.4  -1.3  34176  289.85 0854.52
2009/04/23 13:05:31.3      61   -294    -35    301    304 168.2  -6.7  34174  289.80 0854.52
2009/04/23 13:05:31.4      83   -244    -49    258    263 161.1 -10.9  34176  289.85 0854.52
2009/04/23 13:05:31.5      97   -190     17    214    215 153.0   4.6  34176  289.85 0854.52
2009/04/23 13:05:31.6      85   -195    113    213    241 156.4  30.2  34168  289.70 0854.52
2009/04/23 13:05:31.7      44   -349    200    352    404 172.7  32.3  34164  289.64 0854.52
2009/04/23 13:05:31.8      81   -252    227    265    348 162.1  45.0  34174  289.81 0854.52
2009/04/23 13:05:31.9     140   -232    223    272    351 148.8  43.6  34172  289.76 0854.52
2009/04/23 13:05:32.0     -32   -302    213    304    371 186.2  38.5  34172  289.76 0854.52
2009/04/23 13:05:32.1     -41   -292    193    296    353 188.1  36.2  34170  289.74 0854.52
2009/04/23 13:05:32.2      -8   -259    102    260    279 181.8  22.5  34172  289.78 0854.52
2009/04/23 13:05:32.3     -53   -392     -8    396    397 187.8  -1.2  34170  289.74 0854.52
2009/04/23 13:05:32.4     -23   -303    -71    304    313 184.4 -13.2  34174  289.80 0854.49
2009/04/23 13:05:32.5      94   -205    -76    226    239 155.3 -18.7  34178  289.86 0854.49
2009/04/23 13:05:32.6      85   -263    -59    277    284 162.1 -12.2  34176  289.85 0854.49
2009/04/23 13:05:32.7     173   -216     18    277    278 141.3   3.8  34176  289.85 0854.49
2009/04/23 13:05:32.8     202   -172    102    266    284 130.4  22.0  34176  289.83 0854.49
2009/04/23 13:05:32.9     297   -145    180    331    376 116.0  31.0  34162  289.62 0854.49
2009/04/23 13:05:33.0     233    -21    298    234    378  95.2  58.0  34170  289.74 0854.49
2009/04/23 13:05:33.1     217    -78    144    231    272 110.0  35.5  34172  289.76 0854.49
2009/04/23 13:05:33.2      91     11      9     92     93  82.5   5.9  34168  289.70 0854.49
2009/04/23 13:05:33.3      80     -6     42     81     91  94.4  29.3  34170  289.74 0854.49
2009/04/23 13:05:33.4      92    -64     96    113    148 125.1  44.3  34170  289.74 0854.49
2009/04/23 13:05:33.5      92   -168    123    192    228 151.3  35.6  34164  289.63 0854.49
2009/04/23 13:05:33.6      49   -193     88    200    218 165.7  25.2  34168  289.70 0854.49
2009/04/23 13:05:33.7     147   -183    121    235    264 141.3  29.3  34176  289.83 0854.49
2009/04/23 13:05:33.8     183   -134     66    227    237 126.2  16.3  34176  289.83 0854.49
2009/04/23 13:05:33.9     141   -170    -50    221    227 140.3 -12.9  34174  289.82 0854.49
2009/04/23 13:05:34.0     231   -244   -131    337    361 136.6 -26.9  34172  289.79 0854.49
2009/04/23 13:05:34.1     204   -224   -118    304    326 137.7 -26.8  34170  289.75 0854.49
2009/04/23 13:05:34.2     144   -161    -44    217    222 138.1 -11.5  34170  289.75 0854.49
2009/04/23 13:05:34.3     130   -157     79    205    219 140.3  22.3  34170  289.75 0854.49
2009/04/23 13:05:34.4      23   -156     78    158    176 171.5  28.0  34174  289.80 0854.48
2009/04/23 13:05:34.5     -91    -85    -24    125    128 226.8 -10.9  34176  289.84 0854.48
2009/04/23 13:05:34.6    -112    -81     22    139    141 234.0   9.0  34174  289.82 0854.48
2009/04/23 13:05:34.7    -104    -91     62    139    152 228.7  25.7  34174  289.82 0854.48
2009/04/23 13:05:34.8    -190   -189     83    269    282 225.1  17.3  34172  289.76 0854.48
2009/04/23 13:05:34.9    -195   -208    -13    286    287 223.2  -2.6  34170  289.73 0854.48
2009/04/23 13:05:35.0    -170   -192   -139    257    292 221.5 -35.7  34174  289.80 0854.48
2009/04/23 13:05:35.1     -62   -217     29    226    228 196.0   7.5  34170  289.75 0854.48
2009/04/23 13:05:35.2     -27   -264    136    266    298 186.0  29.3  34172  289.78 0854.48
2009/04/23 13:05:35.3      34    -88    208     95    228 158.6  73.5  34176  289.84 0854.48
2009/04/23 13:05:35.4     -24   -150    166    153    225 189.3  52.5  34174  289.80 0854.48
2009/04/23 13:05:35.5      36   -291      3    294    295 172.9   0.7  34174  289.81 0854.48
2009/04/23 13:05:35.6     132   -183    -37    226    230 144.2  -9.3  34174  289.82 0854.48
2009/04/23 13:05:35.7     229   -168     72    285    295 126.2  14.3  34174  289.80 0854.48
2009/04/23 13:05:35.8     199   -154    -75    252    263 127.7 -16.6  34172  289.76 0854.48
2009/04/23 13:05:35.9     200   -171     47    264    269 130.5  10.1  34176  289.83 0854.48
2009/04/23 13:05:36.0     163   -123     82    205    220 127.1  23.0  34170  289.75 0854.48
2009/04/23 13:05:36.1     153   -134      2    204    205 131.3   0.8  34174  289.80 0854.48
2009/04/23 13:05:36.2     145   -131     53    196    204 132.0  15.3  34172  289.77 0854.48
2009/04/23 13:05:36.3     179   -173     83    249    263 134.0  18.4  34178  289.86 0854.48
2009/04/23 13:05:36.4     197   -185    108    271    291 133.1  23.0  34174  289.81 0854.29
2009/04/23 13:05:36.5     238   -188    135    304    332 128.2  25.6  34170  289.75 0854.29
2009/04/23 13:05:36.6     189   -214    167    286    331 138.5  33.0  34166  289.66 0854.29
2009/04/23 13:05:36.7     214   -164    124    270    297 127.5  26.4  34174  289.80 0854.29
2009/04/23 13:05:36.8     155   -142    149    211    258 132.4  38.8  34174  289.80 0854.29
2009/04/23 13:05:36.9     142   -206    143    251    288 145.3  32.3  34170  289.75 0854.29
2009/04/23 13:05:37.0     176   -193    110    262    284 137.7  24.2  34172  289.76 0854.29
2009/04/23 13:05:37.1     177   -149    122    232    262 130.2  30.2  34176  289.83 0854.29
2009/04/23 13:05:37.2     133   -153    110    203    230 139.0  31.0  34172  289.79 0854.29
2009/04/23 13:05:37.3     160   -179     -1    241    242 138.3  -0.3  34176  289.83 0854.29
2009/04/23 13:05:37.4     223   -202     64    301    308 132.2  12.0  34174  289.81 0854.29
2009/04/23 13:05:37.5     233   -176    100    293    310 127.1  18.9  34172  289.78 0854.29
2009/04/23 13:05:37.6     198   -224     63    300    307 138.6  12.0  34174  289.81 0854.29
2009/04/23 13:05:37.7     131   -286    109    315    334 155.3  19.1  34174  289.81 0854.29
2009/04/23 13:05:37.8     159   -313    113    352    370 153.0  17.9  34170  289.74 0854.29
2009/04/23 13:05:37.9     238   -321     55    400    404 143.4   7.9  34174  289.82 0854.29
2009/04/23 13:05:38.0     276   -367     39    460    462 143.0   4.9  34170  289.73 0854.29
2009/04/23 13:05:38.1     246   -471    144    532    552 152.4  15.2  34164  289.65 0854.29
2009/04/23 13:05:38.2     281   -431    112    515    528 146.9  12.3  34166  289.68 0854.29
2009/04/23 13:05:38.3     149   -456    191    480    516 161.9  23.0  34168  289.71 0854.29
2009/04/23 13:05:38.4     146   -388    219    415    469 159.3  30.1  34172  289.77 0854.27
2009/04/23 13:05:38.5     118   -325    184    347    392 160.0  30.2  34170  289.74 0854.27
2009/04/23 13:05:38.6      65   -232    159    242    289 164.2  36.5  34170  289.73 0854.27
2009/04/23 13:05:38.7      30   -276     96    278    295 173.7  19.2  34170  289.75 0854.27
2009/04/23 13:05:38.8     201   -213     12    294    295 136.7   2.5  34168  289.70 0854.27
2009/04/23 13:05:38.9     231   -239    110    333    351 135.9  18.4  34168  289.72 0854.27
2009/04/23 13:05:39.0     225   -287    190    365    411 141.9  29.6  34166  289.69 0854.27
2009/04/23 13:05:39.1     220   -243    149    328    360 137.8  26.0  34168  289.71 0854.27
2009/04/23 13:05:39.2     200    -94    162    222    274 115.3  39.7  34166  289.68 0854.27
2009/04/23 13:05:39.3      72    -87     66    114    131 140.4  32.9  34170  289.75 0854.27
2009/04/23 13:05:39.4      17    -36     -2     40     41 154.5  -4.1  34172  289.79 0854.27
2009/04/23 13:05:39.5     120    -12     12    121    122  96.1   5.9  34168  289.72 0854.27
2009/04/23 13:05:39.6      -4    -54     49     55     73 184.5  47.9  34176  289.84 0854.27
2009/04/23 13:05:39.7     -11    -11     66     16     67 225.0  85.9  34180  289.91 0854.27
2009/04/23 13:05:39.8      66     17     23     69     74  75.0  18.9  34172  289.79 0854.27
2009/04/23 13:05:39.9      78     40     70     88    112  62.5  43.7  34178  289.89 0854.27
2009/04/23 13:05:40.0      59     58    -58     83    101  45.6 -43.0  34176  289.85 0854.27
2009/04/23 13:05:40.1      72    112    -53    134    144  32.6 -27.4  34180  289.91 0854.27
2009/04/23 13:05:40.2     -17     94    -81     96    125 349.8 -48.7  34180  289.92 0854.27
2009/04/23 13:05:40.3     -19    138   -110    140    178 352.0 -46.6  34184  289.97 0854.27
2009/04/23 13:05:40.4       4    215    -18    216    217   1.1  -4.9  34232  290.81 0854.30
2009/04/23 13:05:40.5      93    142     55    170    179  33.2  17.9  34226  290.69 0854.30
2009/04/23 13:05:40.6     185    168    -81    251    264  47.7 -17.9  34216  290.53 0854.30
2009/04/23 13:05:40.7     105    222     15    246    247  25.5   3.6  34216  290.51 0854.30
2009/04/23 13:05:40.8     237    221    -63    325    332  47.0 -11.0  34208  290.40 0854.30
2009/04/23 13:05:40.9      98    208     -2    231    232  25.3  -0.7  34200  290.26 0854.30
2009/04/23 13:05:41.0     -83    150     52    172    180 331.0  16.8  34200  290.26 0854.30
2009/04/23 13:05:41.1     -50    191     37    198    202 345.3  10.6  34196  290.18 0854.30
2009/04/23 13:05:41.2       6    211     81    212    226   1.8  22.0  34188  290.04 0854.30
2009/04/23 13:05:41.3     -11    146    -41    147    152 355.5 -20.2  34182  289.94 0854.30
2009/04/23 13:05:41.4      -9    249     58    250    257 357.8  13.2  34198  290.22 0854.30
2009/04/23 13:05:41.5       0    242     57    243    250   0.0  13.2  34210  290.41 0854.30
2009/04/23 13:05:41.6      65    243     89    252    268  15.1  19.4  34212  290.46 0854.30
2009/04/23 13:05:41.7       0    304    101    305    322   0.0  18.5  34220  290.59 0854.30
2009/04/23 13:05:41.8     -49    346     55    350    355 351.9   9.0  34204  290.32 0854.30
2009/04/23 13:05:41.9     -93    330     67    343    350 344.2  11.1  34194  290.15 0854.30
2009/04/23 13:05:42.0    -100    311    114    327    347 342.1  19.3  34184  289.99 0854.30
2009/04/23 13:05:42.1      41     65    154     78    172  32.5  71.1  34178  289.87 0854.30
2009/04/23 13:05:42.2     123    123    140    175    224  45.1  42.7  34180  289.91 0854.30
2009/04/23 13:05:42.3     141    148    132    205    243  43.7  35.6  34180  289.91 0854.30
2009/04/23 13:05:42.4     220    200     40    298    301  47.8   7.8  34200  290.26 0854.35
2009/04/23 13:05:42.5     185    242    127    305    330  37.4  23.9  34200  290.26 0854.35
2009/04/23 13:05:42.6     116    215     90    245    261  28.5  20.9  34194  290.15 0854.35
2009/04/23 13:05:42.7     146     98     97    177    201  56.0  31.4  34178  289.89 0854.35
2009/04/23 13:05:42.8      88    106    117    138    180  39.6  44.5  34178  289.89 0854.35
2009/04/23 13:05:42.9      -4    -85    121     86    148 183.1  61.1  34178  289.89 0854.35
2009/04/23 13:05:43.0      71    -33    132     79    153 115.3  66.2  34182  289.96 0854.35
2009/04/23 13:05:43.1     -45     37     71     59     92 309.6  56.3  34184  289.99 0854.35
2009/04/23 13:05:43.2      52    -82    147     98    176 147.4  63.4  34174  289.82 0854.35
2009/04/23 13:05:43.3      10   -135    163    136    212 175.6  56.3  34178  289.89 0854.35
2009/04/23 13:05:43.4      47   -120    173    129    215 158.6  59.8  34180  289.91 0854.35
2009/04/23 13:05:43.6      43     58    135     73    153  36.1  68.9  34184  289.99 0854.35
2009/04/23 13:05:43.6     -21      3    101     22    103 277.9  88.5  34184  289.97 0854.35
2009/04/23 13:05:43.7      34     35    105     50    116  44.1  72.9  34188  290.06 0854.35
2009/04/23 13:05:43.8     113     42    161    121    201  69.2  59.2  34230  290.77 0854.35
2009/04/23 13:05:43.9      36    -37    111     52    122 135.8  73.5  34218  290.57 0854.35
2009/04/23 13:05:44.0       7   -101    179    102    206 175.5  68.1  34196  290.18 0854.35
2009/04/23 13:05:44.1      96    -43    183    106    211 114.0  67.2  34194  290.16 0854.35
2009/04/23 13:05:44.2      84      8    152     85    174  84.3  68.3  34190  290.08 0854.35
2009/04/23 13:05:44.3     194     29    232    197    304  81.4  55.6  34258  291.24 0854.35
2009/04/23 13:05:44.4     238    -22    259    240    353  95.5  52.5  34336  292.57 0854.39
2009/04/23 13:05:44.5     244    -22    279    246    371  95.2  54.2  34352  292.83 0854.39
2009/04/23 13:05:44.6     254     81    204    267    336  72.2  41.2  34320  292.28 0854.39
2009/04/23 13:05:44.7     213     78    251    227    338  69.8  53.2  34328  292.43 0854.39
2009/04/23 13:05:44.8     208    186    277    280    393  48.2  49.9  34302  291.98 0854.39
2009/04/23 13:05:44.9     681    448    395    816    906  56.7  27.7  34216  290.52 0854.39
2009/04/23 13:05:45.0     646    462    390    795    885  54.4  28.1  34240  290.94 0854.39
2009/04/23 13:05:45.1     719    396    291    821    872  61.1  19.5  34238  290.90 0854.39
2009/04/23 13:05:45.2     652    177    210    676    708  74.8  17.3  34222  290.61 0854.39
2009/04/23 13:05:45.3     815    201    149    840    854  76.1  10.1  34206  290.36 0854.39
2009/04/23 13:05:45.4     831    179    239    851    884  77.8  15.7  34198  290.20 0854.39
2009/04/23 13:05:45.5     811    245    217    848    876  73.2  14.4  34232  290.78 0854.39
2009/04/23 13:05:45.6     712    305    213    775    804  66.8  15.4  34284  291.68 0854.39
2009/04/23 13:05:45.8     770    430    246    883    917  60.8  15.6  34246  291.02 0854.39
2009/04/23 13:05:45.8     583    325    335    668    747  60.8  28.7  34238  290.91 0854.39
2009/04/23 13:05:45.9     611    347    124    703    715  60.4  10.0  34230  290.76 0854.39
2009/04/23 13:05:46.1     640    254    281    689    744  68.3  23.5  34264  291.35 0854.39
2009/04/23 13:05:46.1     499    186    303    533    613  69.5  32.3  34252  291.12 0854.39
2009/04/23 13:05:46.2     594    147    243    612    658  76.1  22.9  34276  291.54 0854.39
2009/04/23 13:05:46.4     619    281    150    680    697  65.6  12.5  34252  291.14 0854.39
2009/04/23 13:05:46.5     464    336    134    573    589  54.1  13.2  34212  290.46 0854.44
2009/04/23 13:05:46.6     423    447      2    616    617  43.4   0.2  34210  290.42 0854.44
2009/04/23 13:05:46.7     252    395     14    469    470  32.6   1.8  34194  290.15 0854.44
2009/04/23 13:05:46.8     431    137    308    453    547  72.3  37.4  34236  290.86 0854.44
2009/04/23 13:05:46.9     459    215    266    507    572  64.9  30.0  34290  291.77 0854.44
2009/04/23 13:05:47.0     527    107    105    538    549  78.5  11.1  34280  291.60 0854.44
2009/04/23 13:05:47.1     544     62    143    548    567  83.4  14.7  34286  291.71 0854.44
2009/04/23 13:05:47.2     626     92    143    633    650  81.6  12.8  34264  291.33 0854.44
2009/04/23 13:05:47.3     578     54     60    581    585  84.6   6.0  34230  290.75 0854.44
2009/04/23 13:05:47.4     495      0    188    496    530  89.9  21.8  34258  291.24 0854.44
2009/04/23 13:05:47.5     581     72    113    586    597  82.9  11.0  34266  291.38 0854.44
2009/04/23 13:05:47.6     490     52    204    493    533  83.9  23.6  34256  291.20 0854.44
2009/04/23 13:05:47.7     366    132    163    390    422  70.2  24.1  34204  290.33 0854.44
2009/04/23 13:05:47.8     259     78    248    271    367  73.2  47.3  34244  291.01 0854.44
2009/04/23 13:05:47.9     193     14    247    194    314  85.6  57.9  34250  291.09 0854.44
2009/04/23 13:05:48.0     162    -19    111    164    198  96.8  37.4  34238  290.89 0854.44
2009/04/23 13:05:48.1     128    145     81    194    210  41.4  24.1  34198  290.23 0854.44
2009/04/23 13:05:48.2     212    121     98    245    263  60.3  23.0  34200  290.26 0854.44
2009/04/23 13:05:48.3     193     88    114    213    241  65.6  30.3  34230  290.75 0854.44
2009/04/23 13:05:48.4      93    -76     67    121    138 129.5  31.4  34216  290.53 0854.44
2009/04/23 13:05:48.5      97     -7     -3     98     99  94.3  -2.2  34216  290.53 0854.47
2009/04/23 13:05:48.6      53     17     45     56     71  71.4  43.7  34214  290.50 0854.47
2009/04/23 13:05:48.7      71    -24     83     76    112 109.1  52.2  34210  290.43 0854.47
2009/04/23 13:05:48.8      80    -25    113     85    141 107.7  59.4  34216  290.53 0854.47
2009/04/23 13:05:48.9       2   -103    139    104    173 178.6  59.8  34230  290.75 0854.47
2009/04/23 13:05:49.0      20   -115    111    117    161 169.8  48.7  34202  290.30 0854.47
2009/04/23 13:05:49.1      24   -123    133    126    183 168.9  51.6  34174  289.82 0854.47
2009/04/23 13:05:49.2     -49   -130    114    140    180 200.9  43.7  34194  290.16 0854.47
2009/04/23 13:05:49.3     -69   -138     96    155    182 206.7  35.0  34194  290.16 0854.47
2009/04/23 13:05:49.4     -64   -230    142    239    278 195.6  33.5  34174  289.81 0854.47
2009/04/23 13:05:49.5     -72   -251    173    262    313 196.0  36.7  34168  289.70 0854.48
2009/04/23 13:05:49.6    -137   -360    204    386    436 200.9  30.2  34176  289.85 0854.48
2009/04/23 13:05:49.7    -154   -374    239    405    470 202.5  33.3  34180  289.92 0854.48
2009/04/23 13:05:49.8     -84   -379    290    389    485 192.5  40.4  34182  289.94 0854.48
2009/04/23 13:05:49.9     -25   -269    261    271    376 185.3  48.8  34182  289.94 0854.48
2009/04/23 13:05:50.0     -46   -227    175    232    290 191.5  40.9  34184  289.98 0854.48
2009/04/23 13:05:50.1     -96   -277     25    294    296 199.2   4.9  34184  289.98 0854.48
2009/04/23 13:05:50.2      -4   -307    103    308    325 180.9  18.6  34182  289.95 0854.48
2009/04/23 13:05:50.3      42   -394    108    397    412 173.8  15.3  34176  289.85 0854.48
2009/04/23 13:05:50.4      15   -488    105    489    501 178.2  12.1  34174  289.81 0854.48
2009/04/23 13:05:50.5      -2   -301     32    302    304 180.5   6.1  34182  289.93 0854.48
2009/04/23 13:05:50.6      80   -284     36    296    299 164.2   7.1  34182  289.93 0854.48
2009/04/23 13:05:50.7      75   -187    -24    202    204 157.9  -6.9  34186  290.01 0854.48
2009/04/23 13:05:50.8     148   -269   -135    308    336 151.1 -29.5  34184  289.98 0854.48
2009/04/23 13:05:50.9     216   -214    -16    305    306 134.8  -3.1  34184  289.98 0854.48
2009/04/23 13:05:51.0      32   -302   -107    304    322 173.8 -24.4  34180  289.90 0854.48
2009/04/23 13:05:51.1     212   -146    -23    258    260 124.6  -5.2  34186  290.00 0854.48
2009/04/23 13:05:51.2     177   -210     23    275    277 139.9   5.0  34192  290.10 0854.48
2009/04/23 13:05:51.3     179   -217      4    282    283 140.4   0.8  34184  289.97 0854.48
2009/04/23 13:05:51.4     302   -249    -47    392    395 129.5  -6.9  34188  290.06 0854.46
2009/04/23 13:05:51.5     278   -172    -42    328    331 121.8  -7.3  34190  290.08 0854.46
2009/04/23 13:05:51.6     110   -199     -1    228    229 151.0  -0.3  34182  289.96 0854.46
2009/04/23 13:05:51.7     -45   -425    -16    428    429 186.1  -2.2  34182  289.94 0854.46
2009/04/23 13:05:51.8      43   -395    -72    398    405 173.8 -10.4  34184  289.97 0854.46
2009/04/23 13:05:51.9     190   -345     66    395    401 151.1   9.5  34168  289.71 0854.46
2009/04/23 13:05:52.0      73   -258    152    269    308 164.2  31.9  34174  289.80 0854.46
2009/04/23 13:05:52.1     -63   -435    179    440    475 188.3  23.5  34180  289.90 0854.46
2009/04/23 13:05:52.2     -24   -263    156    265    307 185.3  33.4  34176  289.83 0854.46
2009/04/23 13:05:52.3    -182   -306     83    357    367 210.8  13.1  34178  289.86 0854.46
2009/04/23 13:05:52.4    -151   -250     14    293    294 211.2   2.9  34176  289.85 0854.46
2009/04/23 13:05:52.5     -19   -265    145    266    302 184.2  31.3  34176  289.85 0854.46
2009/04/23 13:05:52.6      -6   -200    101    201    224 181.8  28.5  34178  289.89 0854.46
2009/04/23 13:05:52.7     -78   -243    106    256    277 197.9  23.8  34174  289.80 0854.46
2009/04/23 13:05:52.8     -92   -262    114    278    300 199.4  23.4  34174  289.81 0854.46
2009/04/23 13:05:52.9    -103   -310    114    327    347 198.5  19.2  34174  289.81 0854.46
2009/04/23 13:05:53.0     -60   -297     44    304    308 191.6   8.2  34174  289.80 0854.46
2009/04/23 13:05:53.1     -51   -378     -7    382    383 187.8  -1.2  34172  289.79 0854.46
2009/04/23 13:05:53.2      28   -324     12    326    327 175.0   2.1  34178  289.88 0854.46
2009/04/23 13:05:53.3       0   -289    -28    290    292 180.0  -5.6  34174  289.80 0854.46
2009/04/23 13:05:53.4      17   -229    -53    230    237 175.5 -13.2  34176  289.85 0854.42
2009/04/23 13:05:53.5      91   -282    -65    297    305 162.0 -12.4  34174  289.81 0854.42
2009/04/23 13:05:53.6     161   -231     35    282    285 145.0   7.1  34178  289.88 0854.42
2009/04/23 13:05:53.7     225   -245     42    333    336 137.5   7.2  34180  289.91 0854.42
2009/04/23 13:05:53.8     188   -227     -1    296    297 140.4  -0.3  34178  289.86 0854.42
2009/04/23 13:05:53.9     193   -212     19    288    289 137.7   3.8  34178  289.86 0854.42
2009/04/23 13:05:54.0     172   -207     76    270    281 140.3  15.8  34180  289.92 0854.42
2009/04/23 13:05:54.1     102   -271    131    290    318 159.3  25.9  34178  289.88 0854.42
2009/04/23 13:05:54.2     223   -399    144    458    481 150.8  17.5  34160  289.56 0854.42
2009/04/23 13:05:54.3     285   -292    152    409    436 135.7  21.1  34162  289.61 0854.42
2009/04/23 13:05:54.4     311   -320    211    447    494 135.9  27.1  34158  289.54 0854.42
2009/04/23 13:05:54.5     217   -260    279    339    439 140.1  43.7  34168  289.70 0854.42
2009/04/23 13:05:54.6     307   -193    154    363    394 122.2  24.3  34166  289.69 0854.42
2009/04/23 13:05:54.7     243   -235    119    339    360 134.1  19.4  34172  289.76 0854.42
2009/04/23 13:05:54.8     215   -346    147    408    433 148.1  20.8  34174  289.80 0854.42
2009/04/23 13:05:54.9     126   -413    153    432    459 163.0  19.5  34172  289.78 0854.42
2009/04/23 13:05:55.0      73   -363    145    371    398 168.6  22.4  34172  289.79 0854.42
2009/04/23 13:05:55.1     192   -374     99    421    433 152.8  13.3  34174  289.80 0854.42
2009/04/23 13:05:55.2     162   -253    222    301    374 147.4  40.0  34172  289.77 0854.42
2009/04/23 13:05:55.3     203   -145    163    250    298 125.7  36.0  34174  289.81 0854.42
2009/04/23 13:05:55.4     187   -148     74    239    251 128.4  17.3  34174  289.81 0854.45
2009/04/23 13:05:55.5     156   -148     16    216    217 133.6   4.2  34172  289.79 0854.45
2009/04/23 13:05:55.6     110   -214    -30    241    243 152.8  -7.3  34178  289.86 0854.45
2009/04/23 13:05:55.7     100   -248    -40    268    272 157.9  -8.6  34176  289.85 0854.45
2009/04/23 13:05:55.8      52   -277    -27    282    284 169.3  -5.6  34174  289.80 0854.45
2009/04/23 13:05:55.9      53   -239    -75    245    257 167.3 -17.0  34172  289.78 0854.45
2009/04/23 13:05:56.0     110   -185      2    216    217 149.2   0.7  34172  289.79 0854.45
2009/04/23 13:05:56.1     125   -126     97    178    202 135.1  31.3  34174  289.82 0854.45
2009/04/23 13:05:56.2     138    -66    150    154    214 115.8  49.4  34178  289.87 0854.45
2009/04/23 13:05:56.3      91     43    196    101    220  64.8  70.8  34176  289.84 0854.45
2009/04/23 13:05:56.4     -52     40    -30     66     72 307.8 -31.5  34172  289.77 0854.45
2009/04/23 13:05:56.5     133     44    -41    141    146  71.4 -21.2  34176  289.84 0854.45
2009/04/23 13:05:56.6      78    -26     79     83    114 108.6  49.0  34180  289.91 0854.45
2009/04/23 13:05:56.7     167    113    -36    202    206  55.8 -10.3  34180  289.92 0854.45
2009/04/23 13:05:56.8     144    106     16    180    181  53.6   5.2  34176  289.85 0854.45
2009/04/23 13:05:56.9     132    132     18    187    188  45.1   5.7  34180  289.91 0854.45
2009/04/23 13:05:57.0     119    171    -20    209    211  35.0  -5.6  34176  289.84 0854.45
2009/04/23 13:05:57.1     145     91    -35    172    176  58.0 -11.5  34178  289.89 0854.45
2009/04/23 13:05:57.2     305     31     25    307    309  84.1   4.7  34174  289.81 0854.45
2009/04/23 13:05:57.3     352     42     96    355    368  83.1  15.1  34172  289.79 0854.45
2009/04/23 13:05:57.4     366     17    172    367    405  87.2  27.0  34176  289.84 0854.44
2009/04/23 13:05:57.5     278     61    151    285    322  77.6  30.2  34176  289.85 0854.44
2009/04/23 13:05:57.6     271      8    184    272    328  88.3  37.3  34178  289.88 0854.44
2009/04/23 13:05:57.7     221     24    154    223    271  83.8  37.8  34178  289.88 0854.44
2009/04/23 13:05:57.8     198     19    104    199    224  84.3  29.8  34176  289.85 0854.44
2009/04/23 13:05:57.9     143     36    138    148    202  75.8  48.0  34180  289.92 0854.44
2009/04/23 13:05:58.0      84     19    164     87    185  76.7  70.0  34182  289.96 0854.44
2009/04/23 13:05:58.1     147     -2    166    148    222  90.9  53.5  34178  289.89 0854.44
2009/04/23 13:05:58.2     -36     47    159     60    169 323.0  78.9  34186  290.02 0854.44
2009/04/23 13:05:58.3      37     41    132     56    143  42.3  76.1  34236  290.86 0854.44
2009/04/23 13:05:58.4      71     48    152     87    175  55.8  67.5  34242  290.96 0854.44
2009/04/23 13:05:58.5     249    103    224    270    350  67.4  44.0  34246  291.02 0854.44
2009/04/23 13:05:58.6     374    177    241    415    479  64.6  32.9  34256  291.19 0854.44
2009/04/23 13:05:58.7     346     33    301    348    460  84.5  45.2  34258  291.24 0854.44
2009/04/23 13:05:58.8     303     32    243    305    389  83.9  42.7  34258  291.23 0854.44
2009/04/23 13:05:58.9     257     82    261    270    375  72.3  49.1  34282  291.66 0854.44
2009/04/23 13:05:59.0     318    -44    252    321    408  97.9  42.2  34288  291.76 0854.44
2009/04/23 13:05:59.1     236    -59    280    244    371 104.1  54.4  34222  290.62 0854.44
2009/04/23 13:05:59.2     253    -35    265    256    368  97.9  51.1  34210  290.42 0854.44
2009/04/23 13:05:59.3     282      8    273    283    393  88.3  49.0  34318  292.25 0854.44
2009/04/23 13:05:59.4     361     -7    291    362    464  91.2  43.0  34336  292.55 0854.46
2009/04/23 13:05:59.5     371    174    343    410    534  64.8  44.2  34332  292.51 0854.46
2009/04/23 13:05:59.6     213    204    185    296    349  46.2  35.2  34344  292.70 0854.46
2009/04/23 13:05:59.7     353    205    166    409    441  59.9  23.2  34290  291.77 0854.46
2009/04/23 13:05:59.8     389    185    239    432    493  64.5  31.4  34262  291.32 0854.46
2009/04/23 13:05:59.9     359    316    293    479    561  48.7  34.4  34268  291.42 0854.46
2009/04/23 13:06:00.0     190    111    278    221    355  59.6  57.6  34238  290.90 0854.46
2009/04/23 13:06:00.1      56      6    301     57    306  83.9  89.8  34260  291.26 0854.46
2009/04/23 13:06:00.2     160   -219    283    272    392 143.9  51.3  34198  290.23 0854.46
2009/04/23 13:06:00.3     557    -21    260    558    615  92.2  27.1  34210  290.41 0854.46
2009/04/23 13:06:00.4     599    217     63    638    642  70.1   5.7  34244  290.99 0854.46
2009/04/23 13:06:00.5     338     28     -5    340    341  85.1  -0.9  34234  290.83 0854.46
2009/04/23 13:06:00.6     -14   -133    154    134    204 186.2  54.3  34254  291.16 0854.46
2009/04/23 13:06:00.7     349     33    134    351    375  84.5  21.8  34238  290.89 0854.46
2009/04/23 13:06:00.8     233   -102     83    255    269 113.6  18.1  34222  290.63 0854.46
2009/04/23 13:06:00.9     351   -235     92    423    433 123.9  12.3  34198  290.21 0854.46
2009/04/23 13:06:01.0     234   -421    160    482    508 150.9  18.4  34186  290.00 0854.46
2009/04/23 13:06:01.1     357     24    192    358    406  86.1  30.5  34208  290.37 0854.46
2009/04/23 13:06:01.2     371    124    302    392    494  71.5  41.5  34206  290.34 0854.46
2009/04/23 13:06:01.3     305     80    184    316    365  75.2  33.0  34214  290.49 0854.46
2009/04/23 13:06:01.4     557    158    141    580    597  74.1  13.7  34200  290.25 0854.47
2009/04/23 13:06:01.5     638     90    256    645    693  81.9  23.0  34200  290.26 0854.47
2009/04/23 13:06:01.6     561    -90    305    569    645  99.1  30.6  34198  290.21 0854.47
2009/04/23 13:06:01.7     470    214    200    517    554  65.5  22.2  34198  290.23 0854.47
2009/04/23 13:06:01.8      59   -292    140    299    330 168.4  27.0  34216  290.53 0854.47
2009/04/23 13:06:01.9     114   -342    154    361    392 161.6  24.5  34222  290.64 0854.47
2009/04/23 13:06:02.0     139   -374    127    400    420 159.6  17.7  34214  290.48 0854.47
2009/04/23 13:06:02.1     296   -157     30    336    338 118.0   5.2  34208  290.37 0854.47
2009/04/23 13:06:02.2     223   -183    133    289    318 129.5  26.4  34204  290.31 0854.47
2009/04/23 13:06:02.3     -39     55    275     68    283 324.0  86.4  34200  290.26 0854.47
2009/04/23 13:06:02.4     292    153    208    330    390  62.3  35.5  34198  290.23 0854.47
2009/04/23 13:06:02.5     277    350    204    447    491  38.4  26.2  34198  290.22 0854.47
2009/04/23 13:06:02.6      91    299    116    313    333  17.0  21.4  34196  290.17 0854.47
2009/04/23 13:06:02.7     182    226    -98    291    308  38.8 -18.7  34202  290.27 0854.47
2009/04/23 13:06:02.8     121    309     79    332    342  21.4  13.5  34192  290.11 0854.47
2009/04/23 13:06:02.9      79    260    137    272    304  16.9  28.5  34190  290.07 0854.47
2009/04/23 13:06:03.0      77    171    114    188    219  24.3  34.2  34196  290.18 0854.47
2009/04/23 13:06:03.1     127     37    -12    133    134  73.6  -5.2  34196  290.18 0854.47
2009/04/23 13:06:03.2     252      5     21    253    254  88.7   4.9  34198  290.22 0854.47
2009/04/23 13:06:03.3      61   -165    -15    177    178 159.5  -4.9  34196  290.18 0854.47
2009/04/23 13:06:03.4     -36   -240    -76    243    254 188.7 -22.5  34196  290.17 0854.47
2009/04/23 13:06:03.5     -40   -231   -173    235    291 190.0 -44.3  34200  290.24 0854.47
2009/04/23 13:06:03.6    -280   -185   -118    336    357 236.5 -19.4  34194  290.15 0854.47
2009/04/23 13:06:03.7    -463   -360   -171    587    611 232.2 -21.1  34198  290.20 0854.47
2009/04/23 13:06:03.8    -456   -376   -330    592    677 230.5 -35.9  34184  289.99 0854.47
2009/04/23 13:06:03.9    -258   -228   -421    345    544 228.5 -60.8  34178  289.86 0854.47
2009/04/23 13:06:04.0      32    -83   -158     90    181 158.6 -72.1  34178  289.89 0854.47
2009/04/23 13:06:04.1      82   -250   -172    264    315 161.7 -40.7  34188  290.03 0854.47
2009/04/23 13:06:04.2       6   -315   -108    316    333 178.9 -23.9  34194  290.15 0854.47
2009/04/23 13:06:04.3      -8    -24   -142     26    144 198.3 -90.0  34194  290.14 0854.47
2009/04/23 13:06:04.4      82   -205     23    222    224 158.1   5.9  34186  290.01 0854.47
2009/04/23 13:06:04.5     175   -118    -73    212    225 124.1 -19.1  34190  290.09 0854.47
2009/04/23 13:06:04.6     153   -257     93    300    315 149.2  17.3  34192  290.12 0854.47
2009/04/23 13:06:04.7     393   -275     99    480    491 125.0  11.7  34188  290.05 0854.47
2009/04/23 13:06:04.8     264   -452    103    524    535 149.7  11.1  34192  290.11 0854.47
2009/04/23 13:06:04.9     372   -186    139    416    439 116.6  18.5  34194  290.16 0854.47
2009/04/23 13:06:05.0     215   -290    197    362    412 143.4  30.9  34194  290.15 0854.47
2009/04/23 13:06:05.1     149   -271    159    310    348 151.1  29.2  34198  290.21 0854.47
2009/04/23 13:06:05.2      76   -281    181    292    343 164.9  34.9  34200  290.24 0854.47
2009/04/23 13:06:05.3     -70   -124    159    143    213 209.4  53.3  34192  290.11 0854.47
2009/04/23 13:06:05.4    -291   -473     44    556    558 211.6   4.6  34172  289.77 0854.43
2009/04/23 13:06:05.5    -384   -427    -62    575    579 222.0  -6.2  34172  289.76 0854.43
2009/04/23 13:06:05.6    -313   -459    -34    556    558 214.3  -3.5  34170  289.74 0854.43
2009/04/23 13:06:05.7    -188   -251     23    314    315 216.9   4.2  34190  290.07 0854.43
2009/04/23 13:06:05.8    -395   -434     -5    587    588 222.3  -0.5  34202  290.27 0854.43
2009/04/23 13:06:05.9    -408   -400    -11    572    573 225.6  -1.2  34168  289.71 0854.43
2009/04/23 13:06:06.0    -415   -370    119    557    570 228.3  12.1  34172  289.77 0854.43
2009/04/23 13:06:06.1    -104   -427     21    440    441 193.8   2.8  34186  290.02 0854.43
2009/04/23 13:06:06.2     256   -445    110    514    526 150.1  12.2  34186  290.02 0854.43
2009/04/23 13:06:06.3     118   -455    198    471    510 165.4  24.2  34184  289.98 0854.43
2009/04/23 13:06:06.4     -69   -670    233    674    714 185.9  19.1  34188  290.03 0854.43
2009/04/23 13:06:06.5    -129   -391    426    412    592 198.3  51.2  34192  290.13 0854.43
2009/04/23 13:06:06.6    -149   -297    248    333    415 206.6  40.4  34182  289.94 0854.43
2009/04/23 13:06:06.7    -395   -155    235    425    485 248.5  31.4  34190  290.08 0854.43
2009/04/23 13:06:06.8    -137   -304    273    334    431 204.3  43.5  34192  290.10 0854.43
2009/04/23 13:06:06.9    -232   -242    200    336    391 223.7  33.5  34188  290.03 0854.43
2009/04/23 13:06:07.0    -363   -195    215    413    465 241.7  29.6  34168  289.72 0854.43
2009/04/23 13:06:07.1    -408   -270    221    490    537 236.5  26.0  34166  289.67 0854.43
2009/04/23 13:06:07.2    -378    -81     72    387    394 257.9  10.6  34174  289.82 0854.43
2009/04/23 13:06:07.3    -192    -77     84    208    224 248.0  23.0  34180  289.92 0854.43
2009/04/23 13:06:07.4      12    -72    222     74    234 170.2  81.0  34184  289.97 0854.43
2009/04/23 13:06:07.5      48    172    188    179    259  15.6  51.4  34186  290.02 0854.43
2009/04/23 13:06:07.6      87    128    241    156    287  34.3  64.4  34184  289.98 0854.43
2009/04/23 13:06:07.7      44    313    175    317    362   8.1  31.4  34192  290.10 0854.43
2009/04/23 13:06:07.8     160    464    239    492    546  19.1  27.8  34184  289.99 0854.43
2009/04/23 13:06:07.9       5    515    178    516    546   0.6  19.1  34190  290.09 0854.43
2009/04/23 13:06:08.0      73    334    125    343    365  12.4  20.9  34186  290.01 0854.43
2009/04/23 13:06:08.1      68    343     86    350    361  11.3  13.8  34184  289.99 0854.43
2009/04/23 13:06:08.2     155    357    129    390    411  23.4  18.4  34180  289.92 0854.43
2009/04/23 13:06:08.3     188    213    172    285    332  41.5  34.0  34190  290.09 0854.43
2009/04/23 13:06:08.4     227    220    232    317    392  46.0  39.9  34186  290.01 0854.43
2009/04/23 13:06:08.5     195    142     84    242    257  54.0  19.2  34182  289.95 0854.43
2009/04/23 13:06:08.6      77     63      8    100    101  50.9   4.9  34186  290.01 0854.43
2009/04/23 13:06:08.7     181    170     85    249    264  46.9  18.9  34182  289.93 0854.43
2009/04/23 13:06:08.8     282    112     94    304    319  68.3  17.3  34186  290.02 0854.43
2009/04/23 13:06:08.9     222    118     93    252    268  62.0  21.0  34190  290.07 0854.43
2009/04/23 13:06:09.0     207    117    196    239    309  60.5  43.7  34184  289.98 0854.43
2009/04/23 13:06:09.1     229     32    174    232    290  82.0  40.7  34182  289.93 0854.43
2009/04/23 13:06:09.2     238     64     86    247    262  74.9  19.2  34190  290.09 0854.43
2009/04/23 13:06:09.3     261     53     70    267    277  78.5  14.7  34196  290.17 0854.43
2009/04/23 13:06:09.5     158     67    -46    172    179  66.9 -15.2  34200  290.25 0854.40
2009/04/23 13:06:09.5     133     63    -58    148    158  64.7 -26.9  34202  290.28 0854.40
2009/04/23 13:06:09.6     186     59    -46    196    202  72.3 -13.3  34198  290.23 0854.40
2009/04/23 13:06:09.7     191    130    161    232    282  55.8  37.8  34210  290.42 0854.40
2009/04/23 13:06:09.8     104    119    113    159    195  41.0  39.1  34208  290.40 0854.40
2009/04/23 13:06:09.9     143     80     36    165    169  60.7  12.4  34212  290.47 0854.40
2009/04/23 13:06:10.0      36    -29     79     47     91 128.6  66.2  34208  290.40 0854.40
2009/04/23 13:06:10.1     -87    -31     95     93    132 250.0  50.1  34206  290.36 0854.40
2009/04/23 13:06:10.2     -59    -38     92     71    116 236.7  58.5  34204  290.31 0854.40
2009/04/23 13:06:10.3     -92    -16     81     94    124 259.9  45.8  34196  290.19 0854.40
2009/04/23 13:06:10.4    -119    -71      2    139    140 239.3   1.2  34202  290.28 0854.41
2009/04/23 13:06:10.5    -108   -159     80    193    208 214.1  23.6  34184  289.99 0854.41
2009/04/23 13:06:10.7    -261    -70     54    271    277 254.9  11.4  34186  290.00 0854.41
2009/04/23 13:06:10.7    -231     -2   -126    232    264 269.4 -35.4  34198  290.20 0854.41
2009/04/23 13:06:10.8    -329     23    -91    330    343 274.1 -15.5  34174  289.82 0854.41
2009/04/23 13:06:10.9    -414     84   -126    423    441 281.5 -21.6  34170  289.75 0854.41
2009/04/23 13:06:11.0    -363     73     -7    371    372 281.5  -1.2  34188  290.04 0854.41
2009/04/23 13:06:11.1    -407     77    -15    415    416 280.7  -2.1  34176  289.83 0854.41
2009/04/23 13:06:11.2    -367   -134    -41    391    394 249.9  -6.1  34188  290.03 0854.41
2009/04/23 13:06:11.3    -396    -98    -80    408    416 256.1 -11.1  34182  289.94 0854.41
2009/04/23 13:06:11.4    -343    -55    -78    348    357 260.8 -12.7  34182  289.94 0854.41
2009/04/23 13:06:11.5    -344   -242   -144    421    446 234.9 -19.0  34188  290.04 0854.41
2009/04/23 13:06:11.6    -398   -254   -131    473    491 237.5 -15.5  34184  289.98 0854.41
2009/04/23 13:06:11.7    -470   -124     -9    486    487 255.2  -1.2  34186  290.00 0854.41
2009/04/23 13:06:11.9    -461   -183     91    497    506 248.3  10.4  34186  290.01 0854.41
2009/04/23 13:06:12.0    -414   -161    -16    445    446 248.7  -2.1  34174  289.82 0854.41
2009/04/23 13:06:12.0    -408    -43     -9    411    412 263.9  -1.4  34190  290.07 0854.41
2009/04/23 13:06:12.1    -487   -146    -58    509    513 253.3  -6.6  34172  289.79 0854.41
2009/04/23 13:06:12.2    -629   -116   -130    640    653 259.5 -11.5  34170  289.74 0854.41
2009/04/23 13:06:12.4    -466     40    -78    468    475 275.0  -9.5  34196  290.18 0854.41
2009/04/23 13:06:12.4    -424    154    -95    452    462 290.0 -11.9  34198  290.22 0854.46
2009/04/23 13:06:12.6    -298    227    -82    375    384 307.3 -12.4  34188  290.06 0854.46
2009/04/23 13:06:12.7    -345    308    230    463    516 311.8  28.2  34182  289.93 0854.46
2009/04/23 13:06:12.8    -286    315    214    426    476 317.8  28.7  34196  290.17 0854.46
2009/04/23 13:06:12.8    -267    193    119    330    352 305.9  19.9  34192  290.10 0854.46
2009/04/23 13:06:13.0    -228    163     23    281    283 305.5   4.9  34190  290.09 0854.46
2009/04/23 13:06:13.1    -443    116    -48    458    461 284.7  -6.1  34198  290.22 0854.46
2009/04/23 13:06:13.2    -504    199    303    543    621 291.6  31.5  34186  290.02 0854.46
2009/04/23 13:06:13.3    -377     23    199    378    427 273.5  30.1  34192  290.11 0854.46
2009/04/23 13:06:13.4    -144    -47    156    152    217 251.8  50.7  34182  289.96 0854.46
2009/04/23 13:06:13.5     -72    -75    193    105    219 223.7  68.9  34198  290.21 0854.46
2009/04/23 13:06:13.6    -106    -86    189    137    233 230.9  60.6  34194  290.14 0854.46
2009/04/23 13:06:13.7    -188   -211    254    283    380 221.7  46.6  34182  289.96 0854.46
2009/04/23 13:06:13.8    -111   -242    185    267    324 204.7  38.0  34190  290.09 0854.46
2009/04/23 13:06:13.9    -153   -274    186    315    365 209.2  33.4  34180  289.91 0854.46
2009/04/23 13:06:14.0    -228   -200    176    304    351 228.7  32.8  34198  290.23 0854.46
2009/04/23 13:06:14.1    -324   -144     86    355    366 245.9  13.7  34212  290.47 0854.46
2009/04/23 13:06:14.2    -271   -130     42    301    305 244.2   8.0  34194  290.15 0854.46
2009/04/23 13:06:14.3    -355   -155     40    388    391 246.4   6.0  34200  290.25 0854.46
2009/04/23 13:06:14.4    -300   -366      1    474    475 219.4   0.2  34184  289.98 0854.46
2009/04/23 13:06:14.5    -343   -187     -3    391    392 241.4  -0.5  34214  290.49 0854.49
2009/04/23 13:06:14.6    -288   -206   -104    355    371 234.4 -16.4  34188  290.06 0854.49
2009/04/23 13:06:14.7    -165   -179    -83    244    257 222.8 -23.6  34180  289.92 0854.49
2009/04/23 13:06:14.8    -184   -280    -90    336    348 213.3 -15.1  34176  289.84 0854.49
2009/04/23 13:06:14.9    -142   -327    -11    357    358 203.5  -1.9  34174  289.82 0854.49
2009/04/23 13:06:15.0    -189   -317     31    370    372 210.8   4.9  34174  289.82 0854.49
2009/04/23 13:06:15.1    -299   -212     22    367    368 234.6   3.5  34176  289.84 0854.49
2009/04/23 13:06:15.2    -319   -178      5    366    367 240.9   0.8  34178  289.89 0854.49
2009/04/23 13:06:15.3    -256   -105    -18    277    278 247.6  -3.7  34192  290.12 0854.49
2009/04/23 13:06:15.4    -285     31      8    287    288 276.2   1.8  34218  290.54 0854.49
2009/04/23 13:06:15.5    -265    -89     14    280    281 251.4   2.9  34214  290.48 0854.49
2009/04/23 13:06:15.6    -174   -210     74    273    284 219.7  15.3  34180  289.90 0854.49
2009/04/23 13:06:15.7    -154   -245     35    290    293 212.1   6.9  34176  289.85 0854.49
2009/04/23 13:06:15.8    -170   -192    -10    257    258 221.4  -2.2  34182  289.93 0854.49
2009/04/23 13:06:15.9    -158   -131    -58    206    214 230.4 -20.7  34186  290.01 0854.49
2009/04/23 13:06:16.0    -203   -157    -56    257    264 232.3 -12.4  34182  289.95 0854.49
2009/04/23 13:06:16.1    -170   -162    -92    235    252 226.4 -26.7  34182  289.93 0854.49
2009/04/23 13:06:16.2    -255   -184   -108    315    334 234.1 -19.0  34178  289.86 0854.49
2009/04/23 13:06:16.3    -255   -141    -48    292    296 241.1  -9.4  34174  289.81 0854.49
2009/04/23 13:06:16.4    -262    -91    -24    278    280 250.7  -5.1  34176  289.85 0854.49
2009/04/23 13:06:16.5    -254    -79     23    266    268 252.7   5.0  34178  289.86 0854.50
2009/04/23 13:06:16.6    -318   -153     22    353    354 244.3   3.6  34176  289.84 0854.50
2009/04/23 13:06:16.7    -132   -281     23    311    312 205.2   4.3  34180  289.90 0854.50
2009/04/23 13:06:16.8    -194   -188     18    271    272 226.0   3.9  34178  289.86 0854.50
2009/04/23 13:06:16.9    -220   -237     32    324    326 222.8   5.8  34178  289.86 0854.50
2009/04/23 13:06:17.0    -242   -252      5    350    351 223.8   0.9  34176  289.84 0854.50
2009/04/23 13:06:17.1    -170   -250     32    303    305 214.2   6.1  34172  289.78 0854.50
2009/04/23 13:06:17.2    -195   -200      7    280    281 224.3   1.6  34172  289.78 0854.50
2009/04/23 13:06:17.3    -202   -146    -27    250    252 234.0  -6.2  34176  289.83 0854.50
2009/04/23 13:06:17.4    -264    -91    -36    280    283 250.9  -7.3  34174  289.81 0854.50
2009/04/23 13:06:17.5    -356   -116   -122    375    395 251.9 -18.0  34178  289.86 0854.50
2009/04/23 13:06:17.6    -314    -96    -92    329    341 252.9 -20.2  34178  289.87 0854.50
2009/04/23 13:06:17.7    -302    -89   -106    316    334 253.5 -18.6  34190  290.09 0854.50
2009/04/23 13:06:17.8    -258    -24    -64    260    268 264.5 -13.9  34186  290.02 0854.50
2009/04/23 13:06:17.9    -207    -25   -117    209    239 263.0 -36.0  34188  290.06 0854.50
2009/04/23 13:06:18.0    -188    -44    -61    194    203 256.7 -22.5  34192  290.13 0854.50
2009/04/23 13:06:18.1    -196    -98    -44    220    225 243.4 -11.3  34192  290.13 0854.50
2009/04/23 13:06:18.2    -185    -27    -24    187    189 261.6  -7.3  34200  290.25 0854.50
2009/04/23 13:06:18.3    -125    -12     34    126    131 264.3  15.2  34208  290.38 0854.50
2009/04/23 13:06:18.4    -154      3     70    155    170 271.3  26.2  34232  290.79 0854.50
2009/04/23 13:06:18.5    -182     78    -71    199    212 293.3 -19.7  34234  290.82 0854.52
2009/04/23 13:06:18.6    -179     13    -54    180    187 274.3 -21.7  34218  290.57 0854.52
2009/04/23 13:06:18.7    -188    -14    -52    189    197 265.7 -15.4  34212  290.45 0854.52
2009/04/23 13:06:18.8    -207    -22    -69    209    220 263.9 -23.8  34196  290.18 0854.52
2009/04/23 13:06:18.9    -171    -18    -75    172    187 263.9 -29.5  34228  290.74 0854.52
2009/04/23 13:06:19.0    -189    -90      0    210    211 244.6   0.0  34216  290.52 0854.52
2009/04/23 13:06:19.1    -272   -174    -98    324    339 237.4 -16.9  34204  290.33 0854.52
2009/04/23 13:06:19.2    -286   -211    -98    356    369 233.5 -20.1  34184  289.98 0854.52
2009/04/23 13:06:19.3    -295   -225   -107    372    387 232.7 -20.7  34210  290.43 0854.52
2009/04/23 13:06:19.4    -303   -150   -104    339    354 243.6 -21.9  34228  290.74 0854.52
2009/04/23 13:06:19.5    -263    -92    -99    279    297 250.7 -19.6  34242  290.95 0854.52
2009/04/23 13:06:19.6    -311   -139      5    341    342 245.8   0.9  34248  291.05 0854.52
2009/04/23 13:06:19.7    -297   -179    -53    348    353 238.9  -8.7  34204  290.32 0854.52
2009/04/23 13:06:19.8    -254   -215     24    334    335 229.7   4.2  34192  290.13 0854.52
2009/04/23 13:06:19.9    -197   -215     25    292    294 222.5   5.0  34192  290.12 0854.52
2009/04/23 13:06:20.0    -235   -205    -42    312    315 228.9  -7.7  34192  290.10 0854.52
2009/04/23 13:06:20.1    -215   -189    -20    287    288 228.7  -4.1  34206  290.36 0854.52
2009/04/23 13:06:20.2    -176   -170    -72    246    256 226.0 -21.0  34210  290.41 0854.52
2009/04/23 13:06:20.3     -42   -253    -42    257    261 189.6  -9.3  34196  290.17 0854.52
2009/04/23 13:06:20.4     -39   -250   -113    254    278 188.9 -29.6  34190  290.07 0854.51
2009/04/23 13:06:20.5       4   -286   -151    287    324 179.0 -34.4  34186  290.02 0854.51
2009/04/23 13:06:20.6      38   -320     72    323    332 173.1  12.6  34208  290.39 0854.51
2009/04/23 13:06:20.7     -46   -233    163    238    288 191.3  37.6  34206  290.36 0854.51
2009/04/23 13:06:20.8     -80   -160    220    180    284 206.7  56.4  34210  290.42 0854.51
2009/04/23 13:06:20.9      51   -226    240    232    333 167.1  51.2  34202  290.27 0854.51
2009/04/23 13:06:21.0     164   -188    249    250    352 138.8  50.0  34196  290.17 0854.51
2009/04/23 13:06:21.1     145   -246    246    286    377 149.5  45.1  34188  290.03 0854.51
2009/04/23 13:06:21.2      83   -204    173    221    280 157.9  42.0  34186  290.00 0854.51
2009/04/23 13:06:21.3     -49   -231    121    237    266 192.0  29.1  34182  289.95 0854.51
2009/04/23 13:06:21.4      44   -102     94    112    146 156.8  43.8  34186  290.02 0854.51
2009/04/23 13:06:21.5     146   -222     59    267    274 146.6  12.6  34186  290.02 0854.51
2009/04/23 13:06:21.6     171   -407    182    442    478 157.2  23.7  34186  290.01 0854.51
2009/04/23 13:06:21.7      76   -280     78    291    302 164.8  15.0  34184  289.98 0854.51
2009/04/23 13:06:21.8     131   -315     62    342    348 157.4  10.4  34182  289.93 0854.51
2009/04/23 13:06:21.9     222   -209     15    306    307 133.3   2.9  34182  289.93 0854.51
2009/04/23 13:06:22.0     212   -279      4    351    352 142.7   0.8  34180  289.91 0854.51
2009/04/23 13:06:22.1     246   -228     46    336    340 132.9   7.9  34178  289.87 0854.51
2009/04/23 13:06:22.2     101   -302     -2    319    320 161.5  -0.5  34180  289.92 0854.51
2009/04/23 13:06:22.3     126   -304    -18    330    331 157.5  -3.1  34178  289.87 0854.51
2009/04/23 13:06:22.4     128   -284      9    312    313 155.7   1.7  34178  289.88 0854.53
2009/04/23 13:06:22.5     110   -247     53    271    277 155.9  11.1  34174  289.80 0854.53
2009/04/23 13:06:22.6      62   -222     88    231    247 164.2  22.0  34174  289.81 0854.53
2009/04/23 13:06:22.7     -31   -288     -1    290    291 186.2  -0.3  34174  289.80 0854.53
2009/04/23 13:06:22.8      32   -272     23    274    276 173.1   5.0  34174  289.80 0854.53
2009/04/23 13:06:22.9       4   -278     65    279    287 179.1  13.2  34176  289.83 0854.53
2009/04/23 13:06:23.0     -60   -297     62    304    311 191.6  11.6  34182  289.93 0854.53
2009/04/23 13:06:23.1     -49   -346    108    350    367 188.1  17.2  34178  289.89 0854.53
2009/04/23 13:06:23.2    -169   -201     -1    264    265 220.1  -0.3  34164  289.64 0854.53
2009/04/23 13:06:23.3    -179   -226    -85    289    302 218.5 -16.5  34170  289.75 0854.53
2009/04/23 13:06:23.4    -166   -254    -92    304    317 213.2 -21.7  34170  289.75 0854.53
2009/04/23 13:06:23.5     -84   -245   -110    260    282 199.1 -28.6  34172  289.76 0854.53
2009/04/23 13:06:23.6     -54   -375    -79    379    388 188.2 -11.8  34168  289.71 0854.53
2009/04/23 13:06:23.7      38   -303     -1    306    307 172.7  -0.3  34176  289.85 0854.53
2009/04/23 13:06:23.8      69   -299    -49    308    313 166.9  -9.1  34174  289.81 0854.53
2009/04/23 13:06:23.9       0   -251     87    252    267 180.0  19.2  34180  289.90 0854.53
2009/04/23 13:06:24.0     -47   -265     42    270    274 190.2   9.0  34184  289.98 0854.53
2009/04/23 13:06:24.1     -92   -321     32    335    337 196.1   5.5  34180  289.91 0854.53
2009/04/23 13:06:24.2     -87   -285     43    299    303 196.9   8.2  34182  289.95 0854.53
2009/04/23 13:06:24.3     -71   -298    -17    307    308 193.4  -3.2  34184  289.97 0854.53
2009/04/23 13:06:24.4    -106   -293    -40    312    315 200.0  -7.3  34180  289.90 0854.52
2009/04/23 13:06:24.5     -70   -329    -13    337    338 192.1  -2.2  34176  289.84 0854.52
2009/04/23 13:06:24.6     -14   -313     68    314    322 182.7  12.3  34170  289.73 0854.52
2009/04/23 13:06:24.7      17   -352     51    353    357 177.2   8.3  34172  289.77 0854.52
2009/04/23 13:06:24.8      26   -400    138    401    425 176.3  19.1  34170  289.73 0854.52
2009/04/23 13:06:24.9       9   -349    188    350    397 178.5  30.6  34172  289.76 0854.52
2009/04/23 13:06:25.0      49   -339    171    343    383 171.8  28.4  34170  289.74 0854.52
2009/04/23 13:06:25.1      18   -343    134    344    369 177.0  22.4  34168  289.72 0854.52
2009/04/23 13:06:25.2      -4   -382    152    383    412 180.7  23.0  34164  289.65 0854.52
2009/04/23 13:06:25.3      -5   -338    178    339    382 180.9  29.8  34172  289.79 0854.52
2009/04/23 13:06:25.4      34   -313    170    315    357 173.8  30.7  34174  289.82 0854.52
2009/04/23 13:06:25.5       9   -339    111    340    358 178.4  18.2  34174  289.82 0854.52
2009/04/23 13:06:25.6     176   -416     63    452    457 157.1   8.0  34166  289.68 0854.52
2009/04/23 13:06:25.7     181   -316    213    365    422 150.3  33.0  34172  289.78 0854.52
2009/04/23 13:06:25.8     203   -344    234    400    463 149.4  33.1  34174  289.82 0854.52
2009/04/23 13:06:25.9     213   -306    135    373    396 145.2  20.8  34166  289.67 0854.52
2009/04/23 13:06:26.0     193   -273    167    335    374 144.7  28.5  34170  289.74 0854.52
2009/04/23 13:06:26.1     111   -334    168    353    390 161.6  27.2  34168  289.72 0854.52
2009/04/23 13:06:26.2     154   -317    117    353    373 154.1  18.4  34162  289.60 0854.52
2009/04/23 13:06:26.3     117   -370    140    389    413 162.4  20.7  34166  289.66 0854.52
2009/04/23 13:06:26.4      51   -356    159    360    393 171.8  25.3  34166  289.69 0854.51
2009/04/23 13:06:26.5     -14   -437    114    438    453 181.9  14.7  34170  289.75 0854.51
2009/04/23 13:06:26.6    -128   -420    -17    440    441 197.0  -2.2  34166  289.66 0854.51
2009/04/23 13:06:26.7     -65   -393      5    399    400 189.4   0.8  34164  289.65 0854.51
2009/04/23 13:06:26.8     -32   -295      5    297    298 186.2   1.0  34158  289.54 0854.51
2009/04/23 13:06:26.9     -31   -407    -52    409    413 184.5  -7.3  34156  289.51 0854.51
2009/04/23 13:06:27.0     -61   -374    -48    380    384 189.3  -7.2  34158  289.55 0854.51
2009/04/23 13:06:27.1    -140   -360    -49    387    391 201.3  -7.2  34162  289.59 0854.51
2009/04/23 13:06:27.2     -91   -408    -74    419    426 192.6 -10.1  34168  289.70 0854.51
2009/04/23 13:06:27.3     -48   -459    -85    462    470 186.0 -10.5  34166  289.66 0854.51
2009/04/23 13:06:27.4     -40   -431   -101    434    446 185.4 -13.1  34160  289.56 0854.51
2009/04/23 13:06:27.5      28   -391   -134    392    415 175.9 -18.9  34156  289.49 0854.51
2009/04/23 13:06:27.6      60   -393   -131    398    419 171.2 -23.6  34148  289.38 0854.51
2009/04/23 13:06:27.7      49   -366   -122    370    389 172.3 -23.6  34152  289.43 0854.51
2009/04/23 13:06:27.8     160   -354    -62    389    395 155.7  -9.1  34142  289.25 0854.51
2009/04/23 13:06:27.9      99   -307    -63    323    330 162.1 -11.1  34138  289.19 0854.51
2009/04/23 13:06:28.0     234   -311     25    390    391 143.0   3.7  34142  289.28 0854.51
2009/04/23 13:06:28.1      98   -382    124    395    415 165.6  17.5  34152  289.44 0854.51
2009/04/23 13:06:28.2       0   -471    119    472    487 179.9  14.2  34162  289.62 0854.51
2009/04/23 13:06:28.3     109   -464     89    477    486 166.7  10.6  34160  289.57 0854.51
2009/04/23 13:06:28.4      32   -415     90    417    427 175.5  12.3  34154  289.46 0854.49
2009/04/23 13:06:28.5      24   -324     66    325    332 175.7  11.6  34156  289.50 0854.49
2009/04/23 13:06:28.6     -57   -334     42    339    342 189.7   7.1  34162  289.59 0854.49
2009/04/23 13:06:28.7    -184   -344     27    391    392 208.1   4.0  34158  289.55 0854.49
2009/04/23 13:06:28.8     -92   -303      1    317    318 196.9   0.2  34158  289.54 0854.49
2009/04/23 13:06:28.9     -40   -347    -12    350    351 186.6  -2.1  34158  289.55 0854.49
2009/04/23 13:06:29.0     -31   -414    -52    416    420 184.3  -7.2  34156  289.49 0854.49
2009/04/23 13:06:29.1      39   -564    -61    566    570 176.0  -6.2  34158  289.55 0854.49
2009/04/23 13:06:29.2      61   -595    -45    599    601 174.1  -4.4  34156  289.52 0854.49
2009/04/23 13:06:29.3     -29   -544   -119    545    559 183.1 -12.4  34154  289.48 0854.49
2009/04/23 13:06:29.4      -2   -520   -180    521    552 180.3 -19.1  34160  289.57 0854.49
2009/04/23 13:06:29.5      21   -550    -63    551    555 177.8  -6.6  34158  289.53 0854.49
2009/04/23 13:06:29.6     -27   -496    -46    497    500 183.1  -5.3  34156  289.49 0854.49
2009/04/23 13:06:29.7    -153   -532    -85    554    561 196.0  -8.8  34156  289.50 0854.49
2009/04/23 13:06:29.8     -72   -426    -74    433    440 189.6  -9.8  34160  289.56 0854.49
2009/04/23 13:06:29.9      41   -541     63    543    547 175.6   6.7  34152  289.43 0854.49
2009/04/23 13:06:30.0     227   -549     91    595    602 157.5   8.7  34148  289.37 0854.49
2009/04/23 13:06:30.1      19   -700    193    701    728 178.4  15.4  34150  289.40 0854.49
2009/04/23 13:06:30.2     -36   -583    203    585    620 183.6  19.2  34152  289.42 0854.49
2009/04/23 13:06:30.3     -56   -542     41    545    547 185.9   4.3  34158  289.55 0854.49
2009/04/23 13:06:30.4      43   -498     52    500    503 175.0   6.0  34152  289.44 0854.48
2009/04/23 13:06:30.5      22   -460     23    461    462 177.2   2.9  34154  289.46 0854.48
2009/04/23 13:06:30.6      90   -531    152    539    561 170.3  15.8  34144  289.29 0854.48
2009/04/23 13:06:30.7      55   -323     40    328    331 170.3   7.1  34148  289.38 0854.48
2009/04/23 13:06:30.8     100   -221    -25    243    245 155.5  -6.0  34150  289.39 0854.48
2009/04/23 13:06:30.9     231   -253   -136    343    368 137.6 -27.2  34154  289.47 0854.48
2009/04/23 13:06:31.0     237   -279    -98    367    380 139.7 -15.1  34152  289.45 0854.48
2009/04/23 13:06:31.1     320   -186    -63    371    377 120.1  -9.7  34154  289.48 0854.48
2009/04/23 13:06:31.2     259   -177     -1    315    316 124.4  -0.3  34156  289.51 0854.48
2009/04/23 13:06:31.3     144   -203     73    250    261 144.6  16.4  34152  289.42 0854.48
2009/04/23 13:06:31.4    -174   -527     86    556    563 198.3   8.8  34144  289.31 0854.48
2009/04/23 13:06:31.5    -114   -644     25    655    656 190.1   2.2  34146  289.35 0854.48
2009/04/23 13:06:31.6      52   -473    156    476    501 173.7  18.2  34150  289.40 0854.48
2009/04/23 13:06:31.7      27   -523     68    524    529 177.0   7.4  34152  289.43 0854.48
2009/04/23 13:06:31.8      52   -352     44    356    359 171.5   7.1  34142  289.28 0854.48
2009/04/23 13:06:31.9     -29   -321    -69    323    331 185.2 -12.2  34154  289.47 0854.48
2009/04/23 13:06:32.0     -20   -273   -123    274    300 184.2 -30.1  34156  289.51 0854.48
2009/04/23 13:06:32.1      56   -245    -45    252    257 167.1 -10.3  34154  289.46 0854.48
2009/04/23 13:06:32.2      85   -210    -67    227    236 157.9 -21.2  34150  289.39 0854.48
2009/04/23 13:06:32.3      77   -253    -80    265    277 163.1 -16.8  34154  289.46 0854.48
2009/04/23 13:06:32.4     153   -240     54    285    291 147.4  10.8  34148  289.37 0854.48
2009/04/23 13:06:32.5     118   -226     37    256    259 152.4   8.2  34154  289.47 0854.48
2009/04/23 13:06:32.6      85   -187     71    206    219 155.5  19.2  34154  289.48 0854.48
2009/04/23 13:06:32.7     132   -156    -59    205    213 139.7 -21.2  34154  289.48 0854.48
2009/04/23 13:06:32.8      71   -213     -6    225    226 161.5  -1.6  34152  289.45 0854.48
2009/04/23 13:06:32.9      74   -200     24    214    216 159.5   6.5  34152  289.45 0854.48
2009/04/23 13:06:33.0      96   -188     33    212    215 152.8   9.0  34152  289.43 0854.48
2009/04/23 13:06:33.1     142    -66     54    157    167 115.2  19.2  34154  289.46 0854.48
2009/04/23 13:06:33.2     122    -10     82    123    147  94.8  36.5  34150  289.41 0854.48
2009/04/23 13:06:33.3     171    159     66    234    244  47.1  15.8  34148  289.37 0854.48
2009/04/23 13:06:33.4      92     86     58    127    139  46.8  26.6  34150  289.41 0854.47
2009/04/23 13:06:33.5     217    173    125    278    304  51.4  26.2  34150  289.41 0854.47
2009/04/23 13:06:33.6      64     30    189     71    201  64.6  78.6  34160  289.57 0854.47
2009/04/23 13:06:33.7     -23     25    150     35    154 316.8  87.0  34168  289.70 0854.47
2009/04/23 13:06:33.8      86     81    190    119    224  46.8  64.7  34170  289.74 0854.47
2009/04/23 13:06:33.9      -7    -50    141     51    149 188.9  79.7  34180  289.92 0854.47
2009/04/23 13:06:34.0     -64    -25    143     69    158 248.3  72.4  34176  289.85 0854.47
2009/04/23 13:06:34.1      17     26    189     32    191  32.5  90.0  34170  289.74 0854.47
2009/04/23 13:06:34.2     -31    -44    118     55    130 215.2  73.1  34164  289.65 0854.47
2009/04/23 13:06:34.3      11     -7    115     14    115 122.4  90.0  34162  289.60 0854.47
2009/04/23 13:06:34.4     173     90    241    196    310  62.5  56.4  34182  289.93 0854.47
2009/04/23 13:06:34.5     207      8    227    208    307  87.6  52.7  34182  289.95 0854.47
2009/04/23 13:06:34.6      80     44    188     92    209  61.1  72.4  34196  290.18 0854.47
2009/04/23 13:06:34.7    -138     23     28    140    143 279.7  11.6  34204  290.33 0854.47
2009/04/23 13:06:34.8      25     -2    124     26    126  96.1  89.0  34176  289.85 0854.47
2009/04/23 13:06:34.9     -32     26    195     42    199 309.5  88.5  34176  289.85 0854.47
2009/04/23 13:06:35.0     -43    -19    137     48    145 245.6  81.2  34182  289.96 0854.47
2009/04/23 13:06:35.1    -209    -70    175    221    281 251.4  42.4  34188  290.05 0854.47
2009/04/23 13:06:35.2    -250   -105     55    272    278 247.2  11.4  34182  289.95 0854.47
2009/04/23 13:06:35.3    -325   -131    -37    351    354 248.0  -6.1  34192  290.10 0854.47
2009/04/23 13:06:35.4    -227   -278    -23    360    361 219.2  -3.8  34182  289.96 0854.47
2009/04/23 13:06:35.5    -250   -244     70    350    358 225.6  11.4  34192  290.11 0854.47
2009/04/23 13:06:35.6    -344   -167     96    383    395 244.0  14.2  34202  290.27 0854.47
2009/04/23 13:06:35.7    -220   -183    161    287    329 230.2  31.9  34192  290.10 0854.47
2009/04/23 13:06:35.8    -169   -175    127    244    275 224.1  29.3  34178  289.88 0854.47
2009/04/23 13:06:35.9    -187   -138     68    233    243 233.6  16.3  34178  289.86 0854.47
2009/04/23 13:06:36.0    -336   -154     87    370    381 245.3  13.3  34162  289.62 0854.47
2009/04/23 13:06:36.1    -348   -184     91    394    405 242.1  13.1  34162  289.62 0854.47
2009/04/23 13:06:36.2    -306   -188    -24    360    361 238.5  -3.9  34188  290.03 0854.47
2009/04/23 13:06:36.3    -166   -216    153    273    312 217.6  31.7  34160  289.56 0854.47
2009/04/23 13:06:36.4    -154   -346    166    379    413 204.1  25.2  34168  289.72 0854.47
2009/04/23 13:06:36.5    -135   -329    128    356    378 202.3  20.7  34170  289.74 0854.47
2009/04/23 13:06:36.6    -138   -305    130    335    359 204.4  22.3  34166  289.69 0854.47
2009/04/23 13:06:36.7    -244   -325    144    407    431 216.9  20.3  34160  289.56 0854.47
2009/04/23 13:06:36.8    -386   -374     95    538    547 225.9  10.0  34172  289.77 0854.47
2009/04/23 13:06:36.9    -297   -251     54    389    393 229.8   7.9  34166  289.67 0854.47
2009/04/23 13:06:37.0    -116   -227    -10    256    257 207.2  -2.2  34168  289.70 0854.47
2009/04/23 13:06:37.1     -12   -155     48    156    164 184.5  17.1  34162  289.62 0854.47
2009/04/23 13:06:37.2     -50   -295     19    300    301 189.8   3.6  34166  289.68 0854.47
2009/04/23 13:06:37.3    -110   -250    -86    274    287 203.7 -22.5  34164  289.64 0854.47
2009/04/23 13:06:37.4    -137   -247    -46    283    287 209.0  -9.3  34162  289.61 0854.43
2009/04/23 13:06:37.5    -185   -473     67    509    514 201.4   7.6  34158  289.54 0854.43
2009/04/23 13:06:37.6    -282   -511    -83    584    591 208.9  -8.1  34162  289.61 0854.43
2009/04/23 13:06:37.7    -240   -422   -104    486    498 209.7 -12.2  34156  289.52 0854.43
2009/04/23 13:06:37.8    -154   -192     62    247    255 218.7  14.2  34152  289.44 0854.43
2009/04/23 13:06:37.9     -18   -482    217    483    529 182.2  25.8  34154  289.47 0854.43
2009/04/23 13:06:38.0     -22   -487    169    488    517 182.6  19.2  34156  289.49 0854.43
2009/04/23 13:06:38.1     -61   -489     70    493    499 187.2   8.1  34152  289.44 0854.43
2009/04/23 13:06:38.2     158   -368    -15    401    402 156.7  -2.2  34154  289.48 0854.43
2009/04/23 13:06:38.3     167   -349     41    387    390 154.4   6.1  34158  289.54 0854.43
2009/04/23 13:06:38.4     216   -453    104    502    513 154.5  11.8  34158  289.54 0854.43
2009/04/23 13:06:38.5    -128   -502   -169    519    546 194.3 -18.1  34142  289.28 0854.43
2009/04/23 13:06:38.6     -70   -453   -149    459    482 188.9 -23.2  34150  289.39 0854.43
2009/04/23 13:06:38.7    -120   -301    -29    325    327 201.8  -5.2  34144  289.29 0854.43
2009/04/23 13:06:38.8     -29   -151      3    154    155 191.1   1.2  34156  289.50 0854.43
2009/04/23 13:06:38.9     -24   -211     66    213    224 186.7  17.3  34154  289.48 0854.43
2009/04/23 13:06:39.0     -41   -238    109    242    265 189.8  26.2  34156  289.49 0854.43
2009/04/23 13:06:39.1     -71   -267    183    277    331 194.9  36.6  34158  289.53 0854.43
2009/04/23 13:06:39.3     -40   -217    155    221    269 190.5  38.6  34156  289.49 0854.43
2009/04/23 13:06:39.4      -8   -169    121    170    208 182.9  39.1  34156  289.50 0854.43
2009/04/23 13:06:39.5     -14   -139    -12    140    141 185.8  -5.2  34154  289.46 0854.44
2009/04/23 13:06:39.6      13   -238    -96    239    257 176.9 -27.4  34158  289.53 0854.44
2009/04/23 13:06:39.7      32   -294   -130    296    323 173.7 -29.7  34154  289.47 0854.44
2009/04/23 13:06:39.8     116   -227    -81    256    269 152.8 -17.6  34148  289.37 0854.44
2009/04/23 13:06:39.9      38   -187    -24    191    193 168.4  -7.2  34154  289.46 0854.44
2009/04/23 13:06:40.0      32   -214     64    217    227 171.5  16.6  34154  289.48 0854.44
2009/04/23 13:06:40.1     203   -112    -82    232    247 118.9 -19.4  34158  289.53 0854.44
2009/04/23 13:06:40.2     289   -126    -43    316    319 113.5  -7.9  34156  289.51 0854.44
2009/04/23 13:06:40.3     277   -182     93    332    345 123.3  15.7  34150  289.40 0854.44
2009/04/23 13:06:40.4     270   -158     43    314    317 120.4   7.9  34158  289.54 0854.44
2009/04/23 13:06:40.5     209   -222    -75    306    316 136.7 -13.9  34160  289.58 0854.44
2009/04/23 13:06:40.6      99   -179    -55    205    213 151.0 -15.2  34156  289.52 0854.44
2009/04/23 13:06:40.7     -79    -80     55    113    125 224.7  27.8  34150  289.40 0854.44
2009/04/23 13:06:40.8    -307      8     38    308    311 271.5   7.1  34156  289.49 0854.44
2009/04/23 13:06:40.9    -277    -65     -5    285    286 256.7  -1.1  34154  289.47 0854.44
2009/04/23 13:06:41.0    -332    -72    -88    340    352 257.6 -14.6  34158  289.55 0854.44
2009/04/23 13:06:41.1    -546    -63   -162    550    573 263.4 -21.2  34154  289.46 0854.44
2009/04/23 13:06:41.2    -732     43   -288    734    788 273.4 -26.9  34156  289.49 0854.44
2009/04/23 13:06:41.3    -644     29   -221    645    682 272.6 -18.9  34148  289.36 0854.44
2009/04/23 13:06:41.4    -375     16    -45    376    379 272.5  -6.9  34152  289.45 0854.44
2009/04/23 13:06:41.5    -271    -64   -165    279    324 256.7 -37.9  34146  289.34 0854.46
2009/04/23 13:06:41.6    -104   -159   -149    191    242 213.2 -46.1  34148  289.38 0854.46
2009/04/23 13:06:41.7    -350   -137   -116    376    393 248.6 -22.1  34154  289.48 0854.46
2009/04/23 13:06:41.8    -403   -237      6    468    469 239.5   0.8  34152  289.42 0854.46
2009/04/23 13:06:41.9    -406   -284   -136    496    515 235.0 -15.4  34150  289.40 0854.46
2009/04/23 13:06:42.0    -417   -125   -207    436    482 253.3 -31.6  34142  289.28 0854.46
2009/04/23 13:06:42.1    -662   -110   -207    672    703 260.5 -22.1  34152  289.44 0854.46
2009/04/23 13:06:42.2    -417   -219   -156    472    497 242.3 -23.6  34156  289.52 0854.46
2009/04/23 13:06:42.3    -340   -348     32    487    489 224.3   3.8  34152  289.44 0854.46
2009/04/23 13:06:42.4    -469   -292    -79    553    559 238.1  -8.2  34150  289.40 0854.46
2009/04/23 13:06:42.5    -369   -444     -2    578    579 219.7  -0.3  34150  289.41 0854.46
2009/04/23 13:06:42.6    -233   -391    -98    456    467 210.8 -12.2  34156  289.49 0854.46
2009/04/23 13:06:42.7    -498   -274   -179    569    597 241.1 -17.5  34142  289.25 0854.46
2009/04/23 13:06:42.8    -218   -426    -44    479    482 207.2  -5.3  34150  289.40 0854.46
2009/04/23 13:06:42.9    -411   -131    -33    432    434 252.3  -4.5  34158  289.53 0854.46
2009/04/23 13:06:43.0    -383   -182   -277    425    507 244.6 -40.6  34160  289.56 0854.46
2009/04/23 13:06:43.1    -197   -182   -160    269    312 227.3 -38.0  34152  289.44 0854.46
2009/04/23 13:06:43.2    -165   -259    -84    308    319 212.6 -20.1  34146  289.34 0854.46
2009/04/23 13:06:43.3     -77   -429    -62    436    441 190.2  -8.1  34150  289.41 0854.46
2009/04/23 13:06:43.4    -399   -303   -154    502    525 232.8 -22.1  34160  289.56 0854.46
2009/04/23 13:06:43.5    -174   -412    -82    448    456 202.9 -10.4  34150  289.41 0854.43
2009/04/23 13:06:43.6    -223   -355    -82    420    429 212.1 -11.1  34154  289.46 0854.43
2009/04/23 13:06:43.7    -190   -160   -202    249    320 229.8 -47.7  34158  289.53 0854.43
2009/04/23 13:06:43.8     -17   -321   -104    322    339 183.1 -17.9  34146  289.35 0854.43
2009/04/23 13:06:43.9     227   -334     -1    404    405 145.8  -0.3  34148  289.38 0854.43
2009/04/23 13:06:44.0     176   -329    167    374    409 151.9  25.6  34148  289.37 0854.43
2009/04/23 13:06:44.1     215   -297    203    367    419 144.0  31.4  34146  289.34 0854.43
2009/04/23 13:06:44.2     264   -187    219    324    391 125.3  37.4  34154  289.48 0854.43
2009/04/23 13:06:44.3       3   -389    130    390    412 179.5  18.5  34152  289.43 0854.43
2009/04/23 13:06:44.4      32   -423     99    425    437 175.7  13.2  34152  289.43 0854.43
2009/04/23 13:06:44.5      25   -492     96    493    503 177.0  11.1  34148  289.37 0854.43
2009/04/23 13:06:44.6     -13   -502     77    503    509 181.5   8.8  34146  289.35 0854.43
2009/04/23 13:06:44.7      92   -495     99    504    514 169.4  11.1  34146  289.35 0854.43
2009/04/23 13:06:44.8      51   -486    173    489    519 173.9  19.5  34152  289.42 0854.43
2009/04/23 13:06:44.9       3   -447    116    448    463 179.5  14.6  34150  289.41 0854.43
2009/04/23 13:06:45.0     -50   -218    140    224    264 193.1  35.5  34154  289.46 0854.43
2009/04/23 13:06:45.1       5   -319    166    320    360 179.0  29.6  34154  289.47 0854.43
2009/04/23 13:06:45.2     107   -388    108    403    418 164.5  15.0  34152  289.43 0854.43
2009/04/23 13:06:45.3      60   -371    -12    376    377 170.8  -1.9  34148  289.38 0854.43
2009/04/23 13:06:45.4      16   -518    161    519    544 178.2  17.3  34138  289.21 0854.43
2009/04/23 13:06:45.5     -76   -512    110    518    530 188.5  12.0  34146  289.33 0854.42
2009/04/23 13:06:45.6     -63   -483     45    488    491 187.5   5.3  34150  289.39 0854.42
2009/04/23 13:06:45.7      93   -423     32    434    436 167.5   4.2  34152  289.44 0854.42
2009/04/23 13:06:45.8     102   -399   -135    412    434 165.6 -18.2  34152  289.43 0854.42
2009/04/23 13:06:45.9     -14   -457   -164    458    486 181.8 -24.8  34152  289.42 0854.42
2009/04/23 13:06:46.0      40   -317   -144    320    350 172.8 -30.2  34154  289.47 0854.42
2009/04/23 13:06:46.1     -10   -230   -175    231    289 182.6 -45.6  34152  289.44 0854.42
2009/04/23 13:06:46.2     -61   -140   -182    153    237 203.6 -60.0  34156  289.52 0854.42
2009/04/23 13:06:46.3    -118   -251   -216    278    352 205.3 -46.1  34156  289.52 0854.42
2009/04/23 13:06:46.4    -162   -184   -248    246    349 221.4 -54.4  34154  289.47 0854.42
2009/04/23 13:06:46.5    -421   -292   -241    513    566 235.2 -31.5  34152  289.45 0854.42
2009/04/23 13:06:46.6    -399   -400   -206    566    602 224.9 -25.3  34146  289.34 0854.42
2009/04/23 13:06:46.7    -477   -281   -179    554    582 239.5 -23.0  34156  289.49 0854.42
2009/04/23 13:06:46.8    -621   -341   -208    709    739 241.2 -16.4  34160  289.57 0854.42
2009/04/23 13:06:46.9    -433   -382   -263    578    635 228.6 -30.7  34142  289.26 0854.42
2009/04/23 13:06:47.0    -214   -265   -328    341    473 219.0 -53.4  34134  289.12 0854.42
2009/04/23 13:06:47.1    -321   -354   -332    479    582 222.2 -42.4  34156  289.50 0854.42
2009/04/23 13:06:47.2    -197   -440   -230    483    534 204.1 -31.7  34156  289.49 0854.42
2009/04/23 13:06:47.3    -378   -237   -214    447    495 237.9 -31.7  34128  289.03 0854.42
2009/04/23 13:06:47.4    -328   -330   -272    466    539 224.9 -37.3  34154  289.47 0854.43
2009/04/23 13:06:47.5    -182   -500   -309    533    616 200.1 -37.2  34150  289.39 0854.43
2009/04/23 13:06:47.6      31   -259   -118    261    286 173.1 -30.6  34142  289.25 0854.43
2009/04/23 13:06:47.7    -262     79     34    274    277 286.8   7.1  34162  289.61 0854.43
2009/04/23 13:06:47.8     -79   -142   -182    163    244 209.0 -58.1  34170  289.75 0854.43
2009/04/23 13:06:47.9      -8   -348   -293    349    455 181.4 -48.6  34142  289.27 0854.43
2009/04/23 13:06:48.0    -266   -454   -339    527    626 210.4 -40.2  34148  289.37 0854.43
2009/04/23 13:06:48.1    -361   -467   -370    591    697 217.7 -39.5  34164  289.63 0854.43
2009/04/23 13:06:48.2    -468   -405   -219    620    657 229.1 -24.6  34146  289.33 0854.43
2009/04/23 13:06:48.3    -315   -636    -17    710    711 206.4  -1.4  34156  289.52 0854.43
2009/04/23 13:06:48.4      39   -644     21    646    647 176.5   1.9  34152  289.43 0854.43
2009/04/23 13:06:48.5    -279   -496    -27    570    571 209.4  -2.8  34150  289.41 0854.43
2009/04/23 13:06:48.6    -272   -666   -241    720    759 202.2 -23.5  34144  289.29 0854.43
2009/04/23 13:06:48.7    -166   -825   -101    842    849 191.4  -6.9  34148  289.37 0854.43
2009/04/23 13:06:48.8     -36   -783   -154    785    801 182.7 -11.1  34146  289.34 0854.43
2009/04/23 13:06:48.9    -115   -730   -209    740    770 189.0 -15.8  34152  289.43 0854.43
2009/04/23 13:06:49.0      -8   -440   -125    441    458 181.2 -20.7  34148  289.38 0854.43
2009/04/23 13:06:49.1      67   -595     16    599    600 173.5   1.6  34148  289.36 0854.43
2009/04/23 13:06:49.2     -34   -647     26    648    649 183.0   2.3  34142  289.28 0854.43
2009/04/23 13:06:49.3    -138   -562   -130    579    594 193.8 -12.7  34142  289.27 0854.43
2009/04/23 13:06:49.4      44   -475     47    478    481 174.7   5.7  34144  289.30 0854.47
2009/04/23 13:06:49.5     -50   -410     -9    414    415 187.0  -1.3  34152  289.44 0854.47
2009/04/23 13:06:49.6     -57   -698    125    701    713 184.7  10.1  34156  289.49 0854.47
2009/04/23 13:06:49.7    -234   -527    187    577    607 204.0  18.0  34146  289.32 0854.47
2009/04/23 13:06:49.8    -368   -437     74    572    577 220.1   7.4  34150  289.41 0854.47
2009/04/23 13:06:49.9      -9   -550    134    551    568 181.0  13.7  34154  289.46 0854.47
2009/04/23 13:06:50.0     302   -593      2    666    667 153.0   0.2  34144  289.29 0854.47
2009/04/23 13:06:50.1     -24   -617    270    618    674 182.2  25.2  34154  289.48 0854.47
2009/04/23 13:06:50.2    -106   -502    253    514    572 192.0  28.2  34156  289.51 0854.47
2009/04/23 13:06:50.3       8   -366    219    367    427 178.6  33.7  34156  289.49 0854.47
2009/04/23 13:06:50.4      15   -426    244    427    491 177.9  32.3  34158  289.54 0854.47
2009/04/23 13:06:50.5     -27   -456    262    457    526 183.5  32.4  34152  289.44 0854.47
2009/04/23 13:06:50.6    -158   -374    275    407    491 203.0  37.3  34152  289.42 0854.47
2009/04/23 13:06:50.7       8   -173    208    174    271 177.3  56.1  34152  289.42 0854.47
2009/04/23 13:06:50.8     -23   -209    222    211    306 186.5  52.0  34152  289.44 0854.47
2009/04/23 13:06:50.9    -226   -238    119    329    349 223.4  20.6  34146  289.35 0854.47
2009/04/23 13:06:51.0    -112   -190     94    221    240 210.7  24.3  34152  289.44 0854.47
2009/04/23 13:06:51.1    -161   -158    109    226    250 225.6  27.3  34148  289.37 0854.47
2009/04/23 13:06:51.2    -292   -291     99    413    425 225.1  13.6  34148  289.38 0854.47
2009/04/23 13:06:51.3    -183   -252     76    312    322 216.1  13.7  34152  289.42 0854.47
2009/04/23 13:06:51.4    -181   -270     12    326    327 213.9   2.2  34142  289.27 0854.48
2009/04/23 13:06:51.5    -233   -101    -18    255    256 246.5  -4.1  34156  289.51 0854.48
2009/04/23 13:06:51.6     -67   -170    -30    183    186 201.6  -9.3  34150  289.41 0854.48
2009/04/23 13:06:51.7    -161   -165    -46    231    236 224.3 -11.3  34150  289.39 0854.48
2009/04/23 13:06:51.8     -33   -244    -11    247    248 187.8  -2.6  34152  289.42 0854.48
2009/04/23 13:06:51.9     -11   -325    -47    326    330 182.0  -8.2  34156  289.49 0854.48
2009/04/23 13:06:52.0      21   -384    -52    385    389 176.9  -7.7  34152  289.43 0854.48
2009/04/23 13:06:52.1     -35   -284    -57    287    293 187.1 -11.3  34154  289.47 0854.48
2009/04/23 13:06:52.2    -115   -374   -101    392    405 197.2 -14.5  34150  289.40 0854.48
2009/04/23 13:06:52.3     -52   -392   -101    396    409 187.6 -14.4  34154  289.46 0854.48
2009/04/23 13:06:52.4    -233   -221   -125    322    345 226.4 -26.7  34154  289.48 0854.49
2009/04/23 13:06:52.5    -263   -125   -154    292    330 244.6 -34.6  34154  289.46 0854.49
2009/04/23 13:06:52.6    -240   -228     16    332    333 226.5   2.9  34152  289.42 0854.49
2009/04/23 13:06:52.7    -380   -405   -184    556    585 223.2 -23.6  34152  289.44 0854.49
2009/04/23 13:06:52.8    -278   -384   -131    475    493 216.0 -15.5  34152  289.45 0854.49
2009/04/23 13:06:52.9    -335   -334    -67    474    479 225.1  -8.1  34152  289.44 0854.49
2009/04/23 13:06:53.0    -496   -284   -121    572    585 240.2 -12.0  34156  289.49 0854.49
2009/04/23 13:06:53.1    -444   -198   -145    487    509 245.9 -16.6  34156  289.52 0854.49
2009/04/23 13:06:53.2    -439   -151     65    465    470 251.0   8.0  34150  289.39 0854.49
2009/04/23 13:06:53.3    -482    -80   -159    489    514 260.6 -23.2  34140  289.23 0854.49
2009/04/23 13:06:53.4    -327    -80   -253    337    421 256.1 -45.1  34142  289.28 0854.49
2009/04/23 13:06:53.5    -376   -120   -266    395    476 252.3 -41.6  34144  289.29 0854.49
2009/04/23 13:06:53.6    -418   -121   -262    436    508 253.9 -38.2  34152  289.45 0854.49
2009/04/23 13:06:53.7    -433    -83   -321    442    546 259.1 -43.9  34152  289.45 0854.49
2009/04/23 13:06:53.8    -398    -98   -314    411    517 256.1 -45.7  34154  289.47 0854.49
2009/04/23 13:06:53.9    -604    -47   -356    607    703 265.5 -37.5  34152  289.43 0854.49
2009/04/23 13:06:54.0    -437    -33   -285    439    523 265.6 -40.4  34150  289.40 0854.49
2009/04/23 13:06:54.1    -459    -39   -297    461    548 265.1 -40.3  34152  289.43 0854.49
2009/04/23 13:06:54.2    -536    -58   -274    540    605 263.8 -33.6  34156  289.49 0854.49
2009/04/23 13:06:54.3    -492   -195   -258    530    589 248.3 -32.3  34154  289.46 0854.49
2009/04/23 13:06:54.4    -345   -101   -238    360    431 253.7 -41.1  34152  289.43 0854.50
2009/04/23 13:06:54.5    -337    -22   -299    338    451 266.2 -50.3  34154  289.48 0854.50
2009/04/23 13:06:54.6    -101     51   -232    114    258 297.1 -76.3  34158  289.53 0854.50
2009/04/23 13:06:54.7    -282    177   -194    334    386 302.1 -37.3  34160  289.57 0854.50
2009/04/23 13:06:54.8    -409    -37   -353    411    541 264.8 -49.4  34152  289.44 0854.50
2009/04/23 13:06:54.9    -396   -297   -173    496    526 233.1 -19.3  34162  289.61 0854.50
2009/04/23 13:06:55.0    -310   -409   -182    514    546 217.1 -19.6  34156  289.51 0854.50
2009/04/23 13:06:55.1    -375   -457    -95    592    600 219.3  -9.1  34160  289.58 0854.50
2009/04/23 13:06:55.2    -448   -407    -23    606    607 227.7  -2.2  34156  289.49 0854.50
2009/04/23 13:06:55.3    -486   -343   -121    596    608 234.8 -11.5  34156  289.51 0854.50
2009/04/23 13:06:55.4    -311   -522     69    608    612 210.8   6.5  34152  289.42 0854.50
2009/04/23 13:06:55.5    -305   -554     71    633    638 208.9   6.5  34156  289.50 0854.50
2009/04/23 13:06:55.6    -356   -439     88    566    573 219.1   8.9  34156  289.51 0854.50
2009/04/23 13:06:55.7    -464   -525     62    701    704 221.5   5.1  34150  289.40 0854.50
2009/04/23 13:06:55.8    -406   -483    224    632    670 220.1  20.3  34152  289.44 0854.50
2009/04/23 13:06:55.9    -506   -501    112    713    722 225.3   9.0  34146  289.32 0854.50
2009/04/23 13:06:56.0    -587   -361    172    690    712 238.4  14.0  34156  289.52 0854.50
2009/04/23 13:06:56.1    -498   -217    -68    544    549 246.4  -7.2  34150  289.41 0854.50
2009/04/23 13:06:56.2    -505   -256    -38    567    569 243.1  -3.9  34162  289.60 0854.50
2009/04/23 13:06:56.3    -427   -212     75    477    484 243.6   9.0  34166  289.69 0854.50
2009/04/23 13:06:56.4    -370   -274    -88    461    470 233.5 -10.8  34166  289.69 0854.51
2009/04/23 13:06:56.5    -455   -283   -196    536    570 238.1 -25.4  34160  289.57 0854.51
2009/04/23 13:06:56.6    -472   -252   -186    536    567 241.9 -24.3  34162  289.62 0854.51
2009/04/23 13:06:56.7    -385   -463   -180    603    630 219.8 -16.7  34152  289.42 0854.51
2009/04/23 13:06:56.8    -538    -41   -197    540    574 265.6 -25.3  34170  289.75 0854.51
2009/04/23 13:06:56.9    -810   -238   -293    845    894 253.6 -24.3  34152  289.44 0854.51
2009/04/23 13:06:57.0    -687   -378   -308    785    843 241.2 -27.1  34148  289.38 0854.51
2009/04/23 13:06:57.1    -464   -475   -212    665    698 224.3 -17.7  34166  289.66 0854.51
2009/04/23 13:06:57.2    -610   -336   -230    697    735 241.1 -18.3  34150  289.40 0854.51
2009/04/23 13:06:57.3    -707   -432   -272    829    873 238.6 -18.2  34152  289.43 0854.51
2009/04/23 13:06:57.4    -579    -57   -185    582    610 264.3 -22.8  34156  289.49 0854.51
2009/04/23 13:06:57.5    -468    -74   -278    474    549 261.0 -37.4  34162  289.62 0854.51
2009/04/23 13:06:57.6    -485   -131    -70    503    509 254.8  -8.0  34170  289.74 0854.51
2009/04/23 13:06:57.7    -435     39    -37    437    439 275.2  -4.9  34174  289.82 0854.51
2009/04/23 13:06:57.8    -665     94    -53    672    675 278.1  -4.6  34176  289.83 0854.51
2009/04/23 13:06:57.9    -620     86   -124    626    639 277.9 -11.2  34166  289.69 0854.51
2009/04/23 13:06:58.0    -524   -172   -196    552    586 251.8 -19.6  34166  289.68 0854.51
2009/04/23 13:06:58.1    -350   -405   -148    536    556 220.8 -20.2  34170  289.75 0854.51
2009/04/23 13:06:58.2     -75   -692    -20    697    698 186.3  -1.7  34156  289.50 0854.51
2009/04/23 13:06:58.3     -77   -481    -10    488    489 189.1  -1.3  34148  289.37 0854.51
2009/04/23 13:06:58.4    -161   -268    -40    313    316 211.0  -7.3  34160  289.56 0854.51
2009/04/23 13:06:58.5     -87   -393     38    403    405 192.5   5.4  34158  289.55 0854.51
2009/04/23 13:06:58.6    -143   -337    -32    367    369 202.9  -5.1  34158  289.54 0854.51
2009/04/23 13:06:58.7    -179   -524    -21    554    555 198.9  -2.2  34162  289.60 0854.51
2009/04/23 13:06:58.8    -180   -537    -62    567    571 198.6  -6.3  34162  289.59 0854.51
2009/04/23 13:06:58.9    -135   -396   -182    419    456 198.9 -29.5  34164  289.65 0854.51
2009/04/23 13:06:59.0     -50   -173   -116    181    214 196.3 -40.0  34160  289.57 0854.51
2009/04/23 13:06:59.1    -270   -206    -87    340    352 232.7 -14.4  34158  289.55 0854.51
2009/04/23 13:06:59.2    -312   -224   -115    385    401 234.3 -21.5  34164  289.64 0854.51
2009/04/23 13:06:59.3    -375   -367    -81    525    532 225.6  -8.8  34162  289.62 0854.51
2009/04/23 13:06:59.4    -256   -409     41    483    485 212.1   4.9  34154  289.47 0854.51
2009/04/23 13:06:59.5    -225   -376    -17    439    440 210.9  -2.2  34162  289.61 0854.51
2009/04/23 13:06:59.6    -518   -124   -222    533    577 256.5 -28.5  34154  289.48 0854.51
2009/04/23 13:06:59.7    -519    -55   -209    522    562 263.9 -27.4  34156  289.50 0854.51
2009/04/23 13:06:59.8    -344   -273    -56    440    444 231.5  -7.3  34158  289.53 0854.51
2009/04/23 13:06:59.9    -254   -352     84    435    444 215.9  11.0  34160  289.56 0854.51
2009/04/23 13:07:00.0    -450   -385     37    593    595 229.5   3.6  34164  289.64 0854.51
2009/04/23 13:07:00.1    -387   -325     64    506    511 230.0   7.2  34160  289.57 0854.51
2009/04/23 13:07:00.2    -462   -205    -11    506    507 246.0  -1.3  34164  289.64 0854.51
2009/04/23 13:07:00.3    -708   -281   -240    762    800 248.3 -17.5  34148  289.37 0854.51
2009/04/23 13:07:00.4    -656   -105   -187    665    690 260.9 -20.3  34154  289.48 0854.56
2009/04/23 13:07:00.5    -740   -126   -270    751    799 260.3 -19.8  34154  289.47 0854.56
2009/04/23 13:07:00.6    -617   -281    -94    678    685 245.5  -7.9  34158  289.53 0854.56
2009/04/23 13:07:00.7    -641    -14   -196    642    672 268.7 -17.0  34156  289.51 0854.56
2009/04/23 13:07:00.8    -779     67   -223    783    814 275.0 -20.7  34156  289.52 0854.56
2009/04/23 13:07:00.9    -797    117   -245    806    842 278.4 -21.7  34150  289.40 0854.56
2009/04/23 13:07:01.0    -866      0   -284    867    912 270.0 -23.2  34152  289.44 0854.56
2009/04/23 13:07:01.1    -912    -64   -374    915    988 266.0 -28.0  34160  289.57 0854.56
2009/04/23 13:07:01.2    -909   -114   -326    917    973 262.8 -24.8  34160  289.56 0854.56
2009/04/23 13:07:01.3    -693   -178   -302    716    777 255.6 -28.7  34152  289.43 0854.56
2009/04/23 13:07:01.4    -690   -127   -322    702    772 259.5 -30.8  34154  289.48 0854.56
2009/04/23 13:07:01.5    -649     70   -336    653    734 276.2 -33.7  34158  289.55 0854.56
2009/04/23 13:07:01.6    -604     68   -295    608    675 276.5 -32.2  34162  289.59 0854.56
2009/04/23 13:07:01.7    -647    110   -235    657    698 279.7 -19.7  34166  289.66 0854.56
2009/04/23 13:07:01.8    -516   -355   -182    627    652 235.5 -20.9  34168  289.70 0854.56
2009/04/23 13:07:01.9    -539   -444   -165    699    719 230.5 -13.3  34162  289.61 0854.56
2009/04/23 13:07:02.0    -474   -232   -227    528    574 243.9 -29.0  34162  289.60 0854.56
2009/04/23 13:07:02.1    -498   -385    -81    630    636 232.3  -7.4  34168  289.70 0854.56
2009/04/23 13:07:02.2    -433   -368    -54    569    572 229.6  -5.5  34166  289.66 0854.56
2009/04/23 13:07:02.3    -274   -261   -106    379    394 226.5 -15.7  34164  289.64 0854.56
2009/04/23 13:07:02.4    -498     47   -119    501    516 275.5 -13.4  34172  289.76 0854.59
2009/04/23 13:07:02.5    -224   -353   -141    419    443 212.4 -18.6  34162  289.61 0854.59
2009/04/23 13:07:02.6    -259   -465    -68    533    538 209.1  -7.4  34160  289.57 0854.59
2009/04/23 13:07:02.7    -216   -451     47    501    504 205.7   5.4  34162  289.62 0854.59
2009/04/23 13:07:02.8    -158   -413     -8    443    444 201.0  -1.2  34160  289.56 0854.59
2009/04/23 13:07:02.9    -219   -179    -24    284    286 230.7  -4.9  34168  289.70 0854.59
2009/04/23 13:07:03.0    -169   -104     -4    199    200 238.5  -1.3  34172  289.77 0854.59
2009/04/23 13:07:03.1     -15   -198     61    199    209 184.4  17.1  34162  289.62 0854.59
2009/04/23 13:07:03.2     -90   -296    -51    310    315 196.9  -9.4  34164  289.64 0854.59
2009/04/23 13:07:03.3     -43   -308     42    312    315 188.0   7.8  34162  289.59 0854.59
2009/04/23 13:07:03.4      18   -266      5    267    268 176.0   1.2  34164  289.63 0854.59
2009/04/23 13:07:03.5      50   -282     19    287    288 169.8   3.9  34174  289.80 0854.59
2009/04/23 13:07:03.6     138   -254    176    290    339 151.5  34.3  34164  289.64 0854.59
2009/04/23 13:07:03.7     -27   -255     69    257    267 186.2  15.2  34160  289.56 0854.59
2009/04/23 13:07:03.8      17   -394    -22    395    396 177.5  -3.3  34174  289.81 0854.59
2009/04/23 13:07:03.9     -61   -256     27    264    266 193.4   5.9  34170  289.75 0854.59
2009/04/23 13:07:04.0     -79   -372     66    381    387 192.0   9.9  34162  289.59 0854.59
2009/04/23 13:07:04.1    -169   -342      2    382    383 206.3   0.4  34168  289.72 0854.59
2009/04/23 13:07:04.2     -61   -291     60    298    305 192.0  11.4  34156  289.51 0854.59
2009/04/23 13:07:04.3      34   -193    183    197    268 169.8  47.9  34166  289.68 0854.59
2009/04/23 13:07:04.4     276   -216    191    351    399 128.0  31.0  34166  289.67 0854.58
2009/04/23 13:07:04.5     211   -304    102    371    385 145.3  15.4  34158  289.55 0854.58
2009/04/23 13:07:04.6      20   -441     30    442    443 177.4   3.9  34164  289.65 0854.58
2009/04/23 13:07:04.7      72   -548    112    553    565 172.4  11.4  34166  289.68 0854.58
2009/04/23 13:07:04.8     242   -515    111    570    581 154.8  11.1  34168  289.71 0854.58
2009/04/23 13:07:04.9     165   -508     96    535    544 162.0  10.2  34166  289.67 0854.58
2009/04/23 13:07:05.0     226   -459    -16    512    513 153.8  -1.8  34162  289.59 0854.58
2009/04/23 13:07:05.1      73   -521    -81    527    534 172.0  -8.8  34162  289.60 0854.58
2009/04/23 13:07:05.2     -12   -638    -48    639    641 181.1  -4.4  34162  289.60 0854.58
2009/04/23 13:07:05.3      -6   -614      3    615    616 180.6   0.3  34160  289.57 0854.58
2009/04/23 13:07:05.4      47   -515     81    518    525 174.7   8.9  34170  289.74 0854.58
2009/04/23 13:07:05.5       2   -446     -2    447    448 179.7  -0.4  34154  289.48 0854.58
2009/04/23 13:07:05.6      59   -242    -21    250    251 166.2  -4.9  34164  289.64 0854.58
2009/04/23 13:07:05.7     130   -391     64    413    418 161.5   8.8  34162  289.60 0854.58
2009/04/23 13:07:05.8      90   -348    316    360    479 165.4  45.8  34164  289.65 0854.58
2009/04/23 13:07:05.9     405   -311    -23    511    512 127.5  -2.6  34156  289.52 0854.58
2009/04/23 13:07:06.0     423   -404    -38    586    588 133.7  -3.7  34158  289.54 0854.58
2009/04/23 13:07:06.1     324   -600     99    682    690 151.6   8.3  34164  289.65 0854.58
2009/04/23 13:07:06.2     130   -653      1    666    667 168.7   0.1  34168  289.70 0854.58
2009/04/23 13:07:06.3      66   -523    -23    528    529 172.8  -2.5  34162  289.62 0854.58
2009/04/23 13:07:06.4     178   -451    103    486    497 158.4  12.0  34150  289.39 0854.55
2009/04/23 13:07:06.5      97   -325    121    340    360 163.4  20.3  34160  289.57 0854.55
2009/04/23 13:07:06.6      10   -291     46    292    296 178.0   9.0  34166  289.66 0854.55
2009/04/23 13:07:06.7     -48   -321    111    325    344 188.6  18.9  34164  289.65 0854.55
2009/04/23 13:07:06.8      -2   -207     48    208    214 180.7  13.2  34168  289.72 0854.55
2009/04/23 13:07:07.0     -41    -32    -12     53     55 232.2 -13.4  34166  289.69 0854.55
2009/04/23 13:07:07.1     -90   -215   -193    234    303 202.7 -48.1  34162  289.59 0854.55
2009/04/23 13:07:07.2       7   -315   -158    316    353 178.6 -33.0  34162  289.62 0854.55
2009/04/23 13:07:07.3       0   -231   -132    232    266 180.2 -36.7  34162  289.59 0854.55
2009/04/23 13:07:07.4     -44   -314      6    318    319 188.0   1.2  34168  289.70 0854.55
2009/04/23 13:07:07.5     -29   -567    -51    568    571 183.0  -5.2  34162  289.59 0854.55
2009/04/23 13:07:07.6    -178   -342   -234    386    451 207.5 -38.4  34168  289.70 0854.55
2009/04/23 13:07:07.7      40   -214   -244    218    327 169.3 -58.0  34158  289.54 0854.55
2009/04/23 13:07:07.8     -88   -204   -262    223    344 203.4 -60.0  34168  289.70 0854.55
2009/04/23 13:07:07.9     -62   -285   -202    292    355 192.3 -42.4  34156  289.52 0854.55
2009/04/23 13:07:08.0    -174   -163   -200    239    311 226.8 -48.2  34170  289.73 0854.55
2009/04/23 13:07:08.1     -27   -255   -252    257    359 186.2 -54.2  34168  289.72 0854.55
2009/04/23 13:07:08.2      24   -119   -107    122    162 168.4 -50.2  34170  289.74 0854.55
2009/04/23 13:07:08.3     -12   -127    -66    128    144 185.8 -33.7  34172  289.79 0854.55
2009/04/23 13:07:08.4      42   -158   -204    164    261 164.9 -61.7  34172  289.76 0854.55
2009/04/23 13:07:08.5      73   -181    -29    196    199 157.9  -8.6  34160  289.57 0854.55
2009/04/23 13:07:08.6      62   -133   -126    147    193 155.1 -49.5  34156  289.50 0854.55
2009/04/23 13:07:08.7    -296    -98   -263    312    408 251.6 -48.8  34168  289.72 0854.55
2009/04/23 13:07:08.8     -57    -90   -152    107    185 212.6 -65.9  34168  289.72 0854.55
2009/04/23 13:07:08.9     -30   -177   -151    180    234 189.6 -48.7  34172  289.77 0854.55
2009/04/23 13:07:09.0     -84   -243   -126    258    287 199.2 -32.4  34172  289.76 0854.55
2009/04/23 13:07:09.1    -156   -197   -116    252    277 218.3 -30.8  34168  289.71 0854.55
2009/04/23 13:07:09.2    -289   -146   -184    324    372 243.1 -36.4  34166  289.67 0854.55
2009/04/23 13:07:09.3    -247   -138   -213    284    355 240.7 -45.0  34172  289.77 0854.55
2009/04/23 13:07:09.4    -105   -165   -143    196    242 212.6 -44.1  34168  289.72 0854.55
2009/04/23 13:07:09.5      42   -115   -119    123    171 160.0 -53.6  34172  289.79 0854.55
2009/04/23 13:07:09.6     134    -52    -49    144    153 111.3 -18.7  34170  289.75 0854.55
2009/04/23 13:07:09.7      71      0    -54     72     90  90.0 -45.6  34172  289.77 0854.55
2009/04/23 13:07:09.8     170    -69    -19    184    186 112.2  -6.0  34164  289.65 0854.55
2009/04/23 13:07:09.9     105    -19    -95    107    143 100.6 -50.8  34170  289.75 0854.55
2009/04/23 13:07:10.0     -47    -77   -137     91    164 211.6 -67.8  34172  289.77 0854.55
2009/04/23 13:07:10.1     -51    -98    -31    111    116 207.6 -15.5  34172  289.79 0854.55
2009/04/23 13:07:10.2     -77    -99     30    126    130 217.9  13.7  34174  289.80 0854.55
2009/04/23 13:07:10.3     -51   -114     54    125    136 204.1  25.1  34170  289.75 0854.55
2009/04/23 13:07:10.4       0   -101     24    102    105 180.0  13.7  34172  289.77 0854.55
2009/04/23 13:07:10.5      16   -139     -5    140    141 173.3  -2.2  34172  289.79 0854.57
2009/04/23 13:07:10.6     -12   -172    -35    173    177 184.0 -11.6  34170  289.75 0854.57
2009/04/23 13:07:10.7     -21   -230    -42    232    236 185.3 -10.3  34168  289.70 0854.57
2009/04/23 13:07:10.8      -6   -198    125    199    235 182.0  35.2  34172  289.77 0854.57
2009/04/23 13:07:10.9      -5   -205    104    206    230 181.6  28.7  34172  289.77 0854.57
2009/04/23 13:07:11.0     -20   -217     46    219    224 185.3  12.0  34172  289.79 0854.57
2009/04/23 13:07:11.1      62   -185     -8    196    197 161.3  -2.6  34170  289.74 0854.57
2009/04/23 13:07:11.2      25   -210    -62    212    221 173.1 -16.4  34168  289.72 0854.57
2009/04/23 13:07:11.3     -51   -175    -50    183    190 196.3 -15.5  34170  289.75 0854.57
2009/04/23 13:07:11.4      15   -199    -13    200    201 175.5  -3.7  34168  289.70 0854.57
2009/04/23 13:07:11.5     -11   -214     76    215    228 183.1  20.0  34168  289.72 0854.57
2009/04/23 13:07:11.6      77   -279    118    290    313 164.6  23.5  34168  289.71 0854.57
2009/04/23 13:07:11.7      33   -245     76    248    260 172.2  17.1  34172  289.76 0854.57
2009/04/23 13:07:11.8     -56   -275     84    281    294 191.6  16.6  34172  289.76 0854.57
2009/04/23 13:07:11.9     101   -277     69    295    304 160.0  13.2  34160  289.58 0854.57
2009/04/23 13:07:12.0     110   -251     13    275    276 156.3   2.8  34172  289.76 0854.57
2009/04/23 13:07:12.1      98   -257    102    276    294 159.1  21.0  34170  289.73 0854.57
2009/04/23 13:07:12.2     187   -294    -11    349    350 147.5  -1.9  34152  289.45 0854.57
2009/04/23 13:07:12.3     229   -416    166    475    504 151.1  19.3  34164  289.64 0854.57
2009/04/23 13:07:12.4     322   -365     20    487    488 138.6   2.4  34174  289.81 0854.57
2009/04/23 13:07:12.5     304   -401      7    504    505 142.8   0.8  34166  289.67 0854.57
2009/04/23 13:07:12.6     222   -369     97    431    442 149.0  12.8  34160  289.58 0854.57
2009/04/23 13:07:12.7     247   -387    179    460    493 147.4  22.4  34164  289.64 0854.57
2009/04/23 13:07:12.8     199   -329    230    385    448 148.9  33.5  34164  289.65 0854.57
2009/04/23 13:07:12.9     171   -308    258    353    437 151.0  39.7  34164  289.65 0854.57
2009/04/23 13:07:13.0      99   -321    138    337    364 162.8  23.5  34166  289.67 0854.57
2009/04/23 13:07:13.1     148   -348     32    379    381 157.0   4.9  34164  289.65 0854.57
2009/04/23 13:07:13.2     142   -426     35    450    452 161.5   4.5  34166  289.68 0854.57
2009/04/23 13:07:13.3      42   -410    128    413    433 174.1  17.3  34162  289.60 0854.57
2009/04/23 13:07:13.4     110   -275    128    297    323 158.1  24.8  34162  289.59 0854.59
2009/04/23 13:07:13.5      66   -369     19    375    376 169.8   2.9  34158  289.55 0854.59
2009/04/23 13:07:13.6     134   -304     97    333    347 156.2  16.3  34166  289.67 0854.59
2009/04/23 13:07:13.7     103   -264    123    284    309 158.6  25.1  34166  289.68 0854.59
2009/04/23 13:07:13.8      46   -231    133    236    270 168.5  31.9  34170  289.73 0854.59
2009/04/23 13:07:13.9      21   -156    167    158    229 172.0  52.0  34168  289.70 0854.59
2009/04/23 13:07:14.0     -95   -181    178    205    271 207.6  45.4  34170  289.73 0854.59
2009/04/23 13:07:14.1     225   -184    171    291    337 129.3  33.1  34166  289.66 0854.59
2009/04/23 13:07:14.2     145   -109    152    182    237 127.1  44.3  34168  289.72 0854.59
2009/04/23 13:07:14.3     110      8    160    111    194  85.6  62.1  34166  289.69 0854.59
2009/04/23 13:07:14.4     222    -36    104    225    247  99.2  26.4  34170  289.75 0854.59
2009/04/23 13:07:14.5     145    -92      7    172    173 122.4   2.3  34166  289.69 0854.59
2009/04/23 13:07:14.6       7    -11     21     14     25 147.5  64.6  34166  289.69 0854.59
2009/04/23 13:07:14.7    -160    -77     71    178    191 244.2  23.0  34170  289.74 0854.59
2009/04/23 13:07:14.8    -235   -220     19    323    324 226.9   3.5  34168  289.71 0854.59
2009/04/23 13:07:14.9    -184   -142   -132    233    267 232.3 -36.5  34168  289.71 0854.59
2009/04/23 13:07:15.0    -111    -28   -182    115    215 255.8 -69.1  34168  289.70 0854.59
2009/04/23 13:07:15.1    -242    -77   -228    254    341 252.3 -51.2  34170  289.75 0854.59
2009/04/23 13:07:15.2    -260   -218    -69    340    347 230.1 -11.5  34164  289.64 0854.59
2009/04/23 13:07:15.3    -387   -267    -44    471    474 235.4  -5.4  34156  289.52 0854.59
2009/04/23 13:07:15.4    -330   -243   -114    410    425 233.6 -20.2  34160  289.58 0854.60
2009/04/23 13:07:15.5    -304   -226   -120    379    398 233.4 -17.6  34154  289.48 0854.60
2009/04/23 13:07:15.6    -323   -122   -119    346    367 249.2 -19.1  34166  289.67 0854.60
2009/04/23 13:07:15.7    -200   -226   -178    302    350 221.5 -37.8  34156  289.50 0854.60
2009/04/23 13:07:15.8    -193   -142   -218    240    324 233.6 -51.3  34162  289.61 0854.60
2009/04/23 13:07:15.9     -76   -105   -177    130    219 216.1 -64.9  34164  289.63 0854.60
2009/04/23 13:07:16.0       1   -113   -144    114    183 179.1 -62.1  34154  289.46 0854.60
2009/04/23 13:07:16.1     -76    -82   -141    113    180 222.8 -61.5  34158  289.53 0854.60
2009/04/23 13:07:16.2     -73   -175   -160    190    248 202.7 -48.7  34156  289.52 0854.60
2009/04/23 13:07:16.3     -91   -167    -24    191    193 208.5  -7.2  34154  289.46 0854.60
2009/04/23 13:07:16.4    -120   -117    -79    168    185 225.6 -31.5  34158  289.53 0854.60
2009/04/23 13:07:16.5    -211    -99    -55    234    241 244.8 -13.3  34162  289.61 0854.60
2009/04/23 13:07:16.6    -199    -77    -72    214    226 248.7 -18.7  34164  289.63 0854.60
2009/04/23 13:07:16.7    -209    -32    -78    212    225 261.2 -25.4  34162  289.62 0854.60
2009/04/23 13:07:16.8    -146     16    -52    147    157 276.6 -19.7  34170  289.74 0854.60
2009/04/23 13:07:16.9    -101     49    -34    113    118 295.8 -21.7  34168  289.72 0854.60
2009/04/23 13:07:17.0     -65    134    -24    150    153 334.1  -9.3  34166  289.67 0854.60
2009/04/23 13:07:17.1     -24      4     79     25     82 279.7  81.8  34168  289.70 0854.60
2009/04/23 13:07:17.2     -30    -55    -23     63     67 209.0 -24.4  34170  289.74 0854.60
2009/04/23 13:07:17.3     -90    -62    -45    110    118 235.4 -27.5  34170  289.75 0854.60
2009/04/23 13:07:17.4     -93      0    -17     94     96 270.0 -10.3  34172  289.77 0854.62
2009/04/23 13:07:17.5     -94     -4     43     95    104 267.0  26.2  34172  289.77 0854.62
2009/04/23 13:07:17.6     -48     12      2     50     51 285.1   2.9  34172  289.77 0854.62
2009/04/23 13:07:17.7     108    -21      2    111    112 101.4   1.2  34166  289.67 0854.62
2009/04/23 13:07:17.8     171    -33    -10    175    176 101.0  -3.3  34158  289.55 0854.62
2009/04/23 13:07:17.9     205    -64    -41    215    219 107.5 -10.9  34160  289.57 0854.62
2009/04/23 13:07:18.0     246    -12     -9    247    248  93.0  -2.2  34154  289.47 0854.62
2009/04/23 13:07:18.1     127    -55     52    139    148 113.6  21.0  34162  289.60 0854.62
2009/04/23 13:07:18.2     106     49    -10    117    118  65.2  -5.2  34154  289.48 0854.62
2009/04/23 13:07:18.3     128     -8    -49    129    137  93.9 -26.4  34162  289.60 0854.62
2009/04/23 13:07:18.4      76    -48      2     90     91 122.4   1.8  34164  289.65 0854.62
2009/04/23 13:07:18.5      33    -99     42    105    113 161.5  23.0  34164  289.65 0854.62
2009/04/23 13:07:18.6      98    -62     52    117    128 122.4  25.2  34164  289.63 0854.62
2009/04/23 13:07:18.7      31   -130     29    134    138 166.6  12.2  34162  289.60 0854.62
2009/04/23 13:07:18.8      62   -230     73    239    251 164.9  17.1  34162  289.59 0854.62
2009/04/23 13:07:18.9      82   -242    -14    256    257 161.3  -3.3  34158  289.54 0854.62
2009/04/23 13:07:19.0     177   -340      0    384    385 152.5   0.0  34164  289.65 0854.62
2009/04/23 13:07:19.1     188   -353     -4    401    402 151.9  -0.6  34162  289.60 0854.62
2009/04/23 13:07:19.2     227   -335    -41    405    408 145.8  -5.9  34166  289.66 0854.62
2009/04/23 13:07:19.3     190   -323    135    375    398 149.5  20.7  34158  289.55 0854.62
2009/04/23 13:07:19.4     247   -323    130    407    428 142.6  17.7  34162  289.61 0854.63
2009/04/23 13:07:19.5     203   -364    159    417    446 150.8  22.0  34164  289.65 0854.63
2009/04/23 13:07:19.6     122   -361    159    382    413 161.3  23.8  34166  289.68 0854.63
2009/04/23 13:07:19.7      42   -459    139    462    483 174.7  16.8  34166  289.67 0854.63
2009/04/23 13:07:19.8      21   -484     76    485    492 177.5   8.9  34168  289.71 0854.63
2009/04/23 13:07:19.9      35   -500     42    502    504 176.0   4.9  34166  289.67 0854.63
2009/04/23 13:07:20.0      51   -496     10    499    500 174.0   1.2  34162  289.59 0854.63
2009/04/23 13:07:20.1     -41   -492     18    494    495 184.9   2.1  34170  289.73 0854.63
2009/04/23 13:07:20.2      28   -416    147    417    442 176.1  20.2  34166  289.66 0854.63
2009/04/23 13:07:20.3     113   -373    143    390    415 163.1  21.0  34170  289.75 0854.63
2009/04/23 13:07:20.4      82   -286    129    298    324 164.0  25.0  34164  289.63 0854.63
2009/04/23 13:07:20.5     -32   -297    166    299    341 186.2  31.5  34170  289.74 0854.63
2009/04/23 13:07:20.6     -29   -371     60    373    378 184.5   9.2  34170  289.74 0854.63
2009/04/23 13:07:20.7      41   -354    111    357    374 173.3  17.3  34168  289.72 0854.63
2009/04/23 13:07:20.8     132   -408    143    429    453 162.1  18.4  34164  289.63 0854.63
2009/04/23 13:07:20.9      66   -505    206    510    550 172.5  23.2  34166  289.67 0854.63
2009/04/23 13:07:21.0      61   -503     92    507    516 173.0  10.4  34166  289.67 0854.63
2009/04/23 13:07:21.1     -38   -496    103    498    509 184.4  11.8  34164  289.64 0854.63
2009/04/23 13:07:21.2     -21   -555    166    556    581 182.2  16.6  34174  289.80 0854.63
2009/04/23 13:07:21.3      29   -547     80    548    554 176.9   8.3  34168  289.72 0854.63
2009/04/23 13:07:21.4     -81   -582     22    588    589 188.0   2.2  34170  289.75 0854.59
2009/04/23 13:07:21.5     -50   -429   -120    432    449 186.7 -15.5  34170  289.73 0854.59
2009/04/23 13:07:21.6    -103   -489    -27    500    501 191.9  -3.2  34172  289.78 0854.59
2009/04/23 13:07:21.7    -136   -476   -151    496    518 196.0 -21.8  34172  289.76 0854.59
2009/04/23 13:07:21.8    -126   -505   -177    521    551 194.0 -18.8  34170  289.75 0854.59
2009/04/23 13:07:21.9     -99   -455   -180    466    499 192.3 -26.7  34172  289.76 0854.59
2009/04/23 13:07:22.0       9   -539   -202    540    576 179.0 -25.9  34172  289.77 0854.59
2009/04/23 13:07:22.1     -96   -402   -208    414    463 193.4 -33.0  34166  289.66 0854.59
2009/04/23 13:07:22.2     -23   -303   -107    305    324 184.5 -19.3  34172  289.78 0854.59
2009/04/23 13:07:22.3    -120   -448   -168    464    493 195.0 -25.2  34166  289.69 0854.59
2009/04/23 13:07:22.4    -144   -416   -139    441    462 199.1 -22.6  34168  289.70 0854.59
2009/04/23 13:07:22.5    -124   -350   -338    372    502 199.6 -51.4  34172  289.77 0854.59
2009/04/23 13:07:22.6     -49   -276   -296    281    408 190.2 -56.0  34166  289.69 0854.59
2009/04/23 13:07:22.7     126   -239   -250    271    368 152.1 -52.1  34168  289.71 0854.59
2009/04/23 13:07:22.8      88   -156   -188    180    260 150.6 -55.8  34174  289.80 0854.59
2009/04/23 13:07:22.9     143   -246   -106    285    304 149.9 -25.4  34174  289.80 0854.59
2009/04/23 13:07:23.0     135   -285   -132    316    342 154.7 -28.3  34174  289.81 0854.59
2009/04/23 13:07:23.1     173   -337   -107    379    393 152.8 -20.5  34166  289.69 0854.59
2009/04/23 13:07:23.2      95   -269    -36    286    289 160.4  -7.2  34170  289.75 0854.59
2009/04/23 13:07:23.3      29   -247    -80    249    261 173.1 -23.0  34164  289.64 0854.59
2009/04/23 13:07:23.4       0   -423    -83    424    433 180.1 -11.1  34170  289.73 0854.56
2009/04/23 13:07:23.5      78   -422   -146    430    454 169.5 -23.7  34160  289.58 0854.56
2009/04/23 13:07:23.6      50   -462   -131    465    483 173.8 -20.4  34166  289.67 0854.56
2009/04/23 13:07:23.7      88   -371   -109    382    398 166.6 -16.0  34166  289.69 0854.56
2009/04/23 13:07:23.8     107   -495     43    507    509 167.7   4.9  34168  289.71 0854.56
2009/04/23 13:07:23.9       7   -500    -48    501    504 179.1  -5.6  34170  289.73 0854.56
2009/04/23 13:07:24.0      61   -476   -110    480    493 172.7 -12.9  34170  289.74 0854.56
2009/04/23 13:07:24.1     -39   -525     -2    527    528 184.3  -0.3  34172  289.77 0854.56
2009/04/23 13:07:24.2    -196   -552    -12    587    588 199.6  -1.3  34172  289.76 0854.56
2009/04/23 13:07:24.3    -103   -518      0    529    530 191.3   0.0  34170  289.75 0854.56
2009/04/23 13:07:24.4    -207   -455   -159    501    526 204.5 -17.7  34160  289.57 0854.56
2009/04/23 13:07:24.5    -249   -331   -139    415    438 217.0 -18.6  34164  289.63 0854.56
2009/04/23 13:07:24.6    -178   -209    -58    275    282 220.5 -11.9  34168  289.71 0854.56
2009/04/23 13:07:24.7    -104   -421    -77    434    441 193.9 -10.1  34166  289.66 0854.56
2009/04/23 13:07:24.8     -14   -315   -111    316    334 182.7 -24.5  34166  289.69 0854.56
2009/04/23 13:07:24.9    -133   -412   -168    434    465 197.9 -26.7  34162  289.60 0854.56
2009/04/23 13:07:25.0    -172   -259   -145    312    344 213.6 -31.3  34168  289.71 0854.56
2009/04/23 13:07:25.1    -257   -235   -172    349    389 227.6 -32.4  34164  289.65 0854.56
2009/04/23 13:07:25.2    -207   -277   -114    347    365 216.8 -23.5  34166  289.67 0854.56
2009/04/23 13:07:25.3    -141   -222    -72    264    274 212.5 -15.4  34160  289.58 0854.56
2009/04/23 13:07:25.4      20   -100    -40    103    110 168.4 -26.9  34168  289.70 0854.53
2009/04/23 13:07:25.5      -3     -4    -59      6     59 219.6 -90.0  34164  289.63 0854.53
2009/04/23 13:07:25.6    -190    -30   -168    193    255 260.8 -50.0  34170  289.73 0854.53
2009/04/23 13:07:25.7    -130     12    -76    131    151 275.7 -37.3  34166  289.69 0854.53
2009/04/23 13:07:25.8    -260     -2   -160    261    306 269.4 -38.9  34158  289.54 0854.53
2009/04/23 13:07:25.9    -354   -118     33    374    376 251.6   5.2  34158  289.54 0854.53
2009/04/23 13:07:26.0    -205   -181     97    274    291 228.6  19.6  34164  289.64 0854.53
2009/04/23 13:07:26.1    -100   -188     19    214    215 208.1   5.2  34162  289.62 0854.53
2009/04/23 13:07:26.2    -166   -236    112    289    309 215.2  22.1  34160  289.58 0854.53
2009/04/23 13:07:26.3    -200   -136    147    242    283 235.8  34.2  34162  289.59 0854.53
2009/04/23 13:07:26.4    -421     39     90    423    433 275.4  12.1  34154  289.46 0854.53
2009/04/23 13:07:26.5    -227     46   -238    232    332 281.7 -55.2  34166  289.68 0854.53
2009/04/23 13:07:26.6    -177   -156    -74    237    248 228.6 -22.5  34164  289.64 0854.53
2009/04/23 13:07:26.7    -286    -21    -90    287    300 265.7 -22.5  34168  289.70 0854.53
2009/04/23 13:07:26.8    -205    165   -152    264    304 308.7 -36.8  34162  289.61 0854.53
2009/04/23 13:07:26.9     -60    110   -136    126    185 331.1 -56.6  34170  289.74 0854.53
2009/04/23 13:07:27.0     -91    103    -49    138    147 318.6 -19.6  34168  289.72 0854.53
2009/04/23 13:07:27.1     -69      3    -29     70     75 272.6 -27.5  34170  289.74 0854.53
2009/04/23 13:07:27.2     -70    -10     24     71     76 261.2  19.2  34170  289.75 0854.53
2009/04/23 13:07:27.3     -69    -33     24     77     81 244.6  17.9  34174  289.80 0854.53
2009/04/23 13:07:27.4      -5    -75     32     76     82 184.4  24.1  34172  289.77 0854.54
2009/04/23 13:07:27.5      -2    -95     61     96    113 181.8  35.5  34170  289.75 0854.54
2009/04/23 13:07:27.6     -50   -194     51    201    208 194.7  14.3  34166  289.69 0854.54
2009/04/23 13:07:27.7     -81   -197     51    214    221 202.5  13.5  34162  289.62 0854.54
2009/04/23 13:07:27.8     -67   -226     -5    236    237 196.5  -1.3  34166  289.66 0854.54
2009/04/23 13:07:27.9     -94   -168    -90    193    212 209.2 -31.4  34166  289.69 0854.54
2009/04/23 13:07:28.0     -52   -174    -85    182    200 196.9 -31.4  34166  289.67 0854.54
2009/04/23 13:07:28.1      -8   -174    -62    175    185 182.7 -24.0  34166  289.67 0854.54
2009/04/23 13:07:28.2     -66   -130    -73    146    163 207.1 -33.1  34166  289.67 0854.54
2009/04/23 13:07:28.3     -62    -21    -67     66     94 250.9 -54.1  34166  289.67 0854.54
2009/04/23 13:07:28.4      14    -82    -64     84    105 170.2 -45.6  34170  289.74 0854.54
2009/04/23 13:07:28.5     100   -105    -24    146    148 136.3  -9.3  34162  289.60 0854.54
2009/04/23 13:07:28.6      16    -92    117     94    150 169.8  56.4  34166  289.69 0854.54
2009/04/23 13:07:28.7     -46     -6     75     47     88 262.1  64.7  34172  289.77 0854.54
2009/04/23 13:07:28.8       2      0     97      3     97  90.0  90.0  34170  289.75 0854.54
2009/04/23 13:07:28.9     120     36    116    126    171  73.2  47.7  34168  289.70 0854.54
2009/04/23 13:07:29.0      -1   -133     62    134    147 180.5  27.1  34166  289.69 0854.54
2009/04/23 13:07:29.1      38   -143    107    149    183 164.9  39.3  34162  289.60 0854.54
2009/04/23 13:07:29.2      16   -148     95    149    176 173.7  35.6  34168  289.70 0854.54
2009/04/23 13:07:29.3     -31   -121    100    126    160 194.7  42.7  34164  289.65 0854.54
2009/04/23 13:07:29.4     -83     26    133     88    159 287.7  63.4  34170  289.74 0854.54
2009/04/23 13:07:29.5     -94     65     92    115    147 304.6  43.7  34164  289.65 0854.54
2009/04/23 13:07:29.6      17     94    106     96    143  10.2  52.2  34170  289.74 0854.54
2009/04/23 13:07:29.7      29   -137     -3    141    142 168.0  -1.3  34170  289.75 0854.54
2009/04/23 13:07:29.8      56    -62    -11     84     85 138.1  -7.7  34174  289.80 0854.54
2009/04/23 13:07:29.9      34    -66     -9     75     76 152.8  -7.2  34170  289.74 0854.54
2009/04/23 13:07:30.0     -15    -30      6     34     35 207.2  11.1  34168  289.72 0854.54
2009/04/23 13:07:30.1       0     43    -16     44     46   0.0 -24.4  34170  289.74 0854.54
2009/04/23 13:07:30.2      16    102    -22    104    107   9.3 -12.4  34168  289.72 0854.54
2009/04/23 13:07:30.3       9    119     -2    120    121   4.5  -1.3  34170  289.75 0854.54
2009/04/23 13:07:30.4    -137     80     21    159    161 300.4   7.8  34174  289.80 0854.54
2009/04/23 13:07:30.5    -101    118   -127    156    201 319.5 -47.9  34172  289.79 0854.54
2009/04/23 13:07:30.6     -79     26    -26     84     89 288.2 -17.6  34172  289.77 0854.54
2009/04/23 13:07:30.7     -13    -76      5     78     79 189.8   3.8  34178  289.87 0854.54
2009/04/23 13:07:30.8     166   -132     78    213    226 128.4  21.0  34172  289.77 0854.54
2009/04/23 13:07:30.9      14   -187    133    188    230 175.5  38.8  34170  289.75 0854.54
2009/04/23 13:07:31.0     -31   -154    113    158    194 191.5  39.1  34168  289.72 0854.54
2009/04/23 13:07:31.1      -8   -129     94    130    160 183.6  39.7  34170  289.74 0854.54
2009/04/23 13:07:31.2      21   -115     89    118    147 169.3  41.2  34172  289.79 0854.54
2009/04/23 13:07:31.3      50   -105     42    117    124 154.5  20.0  34170  289.74 0854.54
2009/04/23 13:07:31.4      52    -96     79    110    135 151.5  39.1  34166  289.69 0854.53
2009/04/23 13:07:31.5     141   -196    179    242    301 144.2  39.7  34166  289.66 0854.53
2009/04/23 13:07:31.6      88   -218    139    236    273 158.1  33.4  34166  289.68 0854.53
2009/04/23 13:07:31.7      10   -220    197    221    296 177.3  46.4  34170  289.73 0854.53
2009/04/23 13:07:31.8      20   -183    156    185    241 173.8  44.8  34166  289.67 0854.53
2009/04/23 13:07:31.9      76   -162    111    180    211 154.7  35.0  34166  289.69 0854.53
2009/04/23 13:07:32.0      65   -163    123    176    214 158.2  38.0  34168  289.70 0854.53
2009/04/23 13:07:32.1      38   -191     60    195    205 168.5  17.3  34168  289.70 0854.53
2009/04/23 13:07:32.2       9   -132     29    133    137 176.0  12.6  34166  289.69 0854.53
2009/04/23 13:07:32.3     -18    -78     29     81     86 192.9  20.0  34168  289.72 0854.53
2009/04/23 13:07:32.4     -25    -82     36     86     93 197.4  24.1  34168  289.72 0854.53
2009/04/23 13:07:32.5     -93   -135     18    165    167 214.7   6.5  34168  289.70 0854.53
2009/04/23 13:07:32.6    -125   -133     37    183    187 223.2  11.6  34168  289.70 0854.53
2009/04/23 13:07:32.7    -100   -134     28    168    171 216.7   9.5  34166  289.67 0854.53
2009/04/23 13:07:32.8     -99   -117     39    154    159 220.1  14.3  34166  289.67 0854.53
2009/04/23 13:07:32.9     -94      3     39     95    102 272.1  23.1  34164  289.65 0854.53
2009/04/23 13:07:33.0     -89     56     21    106    109 302.5  11.6  34168  289.72 0854.53
2009/04/23 13:07:33.1    -166     78     33    184    188 295.1  10.3  34170  289.75 0854.53
2009/04/23 13:07:33.2    -113     61     39    129    135 298.4  16.8  34172  289.77 0854.53
2009/04/23 13:07:33.3    -273     -3    -23    274    276 269.2  -4.9  34172  289.78 0854.53
2009/04/23 13:07:33.4    -348    -24    -32    349    351 266.0  -5.3  34178  289.86 0854.53
2009/04/23 13:07:33.5    -370   -155     52    402    406 247.2   7.4  34188  290.04 0854.53
2009/04/23 13:07:33.6    -335   -125     -5    358    359 249.5  -0.9  34184  289.99 0854.53
2009/04/23 13:07:33.7    -413   -138    -36    436    438 251.4  -4.8  34170  289.73 0854.53
2009/04/23 13:07:33.8    -403     30    116    405    422 274.4  16.0  34176  289.85 0854.53
2009/04/23 13:07:33.9    -263    123     45    291    295 295.2   8.8  34176  289.85 0854.53
2009/04/23 13:07:34.0    -173    115     45    209    214 303.7  12.2  34172  289.79 0854.53
2009/04/23 13:07:34.1    -187    314    -67    366    373 329.3 -10.5  34174  289.82 0854.53
2009/04/23 13:07:34.2    -322    236    -51    400    404 306.3  -7.4  34178  289.87 0854.53
2009/04/23 13:07:34.3    -372    220   -121    433    449 300.6 -20.3  34172  289.77 0854.53
2009/04/23 13:07:34.4    -326    125   -132    350    374 291.0 -26.1  34174  289.82 0854.54
2009/04/23 13:07:34.6    -193    106    -75    221    234 298.9 -18.9  34166  289.67 0854.54
2009/04/23 13:07:34.6    -355    156    -36    388    390 293.7  -5.4  34172  289.77 0854.54
2009/04/23 13:07:34.8    -305     90    -57    319    325 286.5 -10.2  34172  289.76 0854.54
2009/04/23 13:07:34.9    -480    174   -131    511    528 290.0 -14.4  34174  289.80 0854.54
2009/04/23 13:07:35.0    -482    174   -131    513    530 289.9 -14.4  34176  289.85 0854.54
2009/04/23 13:07:35.1    -531    203   -164    569    592 291.0 -20.8  34170  289.75 0854.54
2009/04/23 13:07:35.2    -509    122     21    524    525 283.6   2.3  34176  289.84 0854.54
2009/04/23 13:07:35.3    -206     61    174    215    276 286.6  43.3  34178  289.88 0854.54
2009/04/23 13:07:35.4    -179     -8    178    180    253 267.2  50.0  34178  289.89 0854.54
2009/04/23 13:07:35.5    -290    164    168    334    373 299.5  28.7  34180  289.91 0854.54
2009/04/23 13:07:35.6    -431    139    -32    453    455 287.9  -4.1  34174  289.80 0854.54
2009/04/23 13:07:35.7    -429    112   -111    444    458 284.7 -14.1  34162  289.61 0854.54
2009/04/23 13:07:35.8    -398    148    -99    426    438 290.5 -13.2  34160  289.56 0854.54
2009/04/23 13:07:35.9    -257     91    -65    273    281 289.7 -13.4  34170  289.75 0854.54
2009/04/23 13:07:36.0    -222     31    -93    225    243 278.0 -28.0  34152  289.42 0854.54
2009/04/23 13:07:36.1    -222     -3   -104    223    246 269.1 -31.4  34156  289.49 0854.54
2009/04/23 13:07:36.2    -213    100   -113    236    261 295.3 -31.7  34154  289.46 0854.54
2009/04/23 13:07:36.3    -228    149   -117    273    297 303.3 -29.0  34158  289.53 0854.54
2009/04/23 13:07:36.4    -251     72    -80    262    273 286.0 -21.8  34158  289.54 0854.54
2009/04/23 13:07:36.5    -218    131   -115    255    279 301.1 -30.3  34162  289.59 0854.54
2009/04/23 13:07:36.6    -154     60    -88    166    187 291.5 -34.7  34162  289.62 0854.54
2009/04/23 13:07:36.7    -101    149   -146    181    232 325.7 -47.7  34164  289.65 0854.54
2009/04/23 13:07:36.8      24    113   -132    116    175  12.0 -58.7  34162  289.62 0854.54
2009/04/23 13:07:36.9      63   -161   -172    174    244 158.4 -54.4  34164  289.63 0854.54
2009/04/23 13:07:37.0     -56     88    -66    105    124 327.5 -39.9  34152  289.45 0854.54
2009/04/23 13:07:37.1    -220     59   -146    228    270 285.1 -40.0  34160  289.58 0854.54
2009/04/23 13:07:37.2    -317    -92   -189    331    381 253.9 -36.8  34168  289.72 0854.54
2009/04/23 13:07:37.3    -222     10   -240    223    327 272.8 -56.7  34166  289.66 0854.54
2009/04/23 13:07:37.4    -237    261    121    353    374 317.7  18.9  34162  289.62 0854.54
2009/04/23 13:07:37.5    -267    234     90    356    368 311.3  14.3  34164  289.64 0854.54
2009/04/23 13:07:37.6    -255    140    131    292    320 298.8  25.8  34174  289.81 0854.54
2009/04/23 13:07:37.7    -243    104     92    265    281 293.3  19.2  34178  289.88 0854.54
2009/04/23 13:07:37.8    -253    195    126    320    343 307.8  22.8  34182  289.94 0854.54
2009/04/23 13:07:37.9    -157    116    136    196    238 306.6  38.4  34184  289.97 0854.54
2009/04/23 13:07:38.0    -297    134    -49    326    330 294.3  -8.6  34164  289.65 0854.54
2009/04/23 13:07:38.1    -284    123    129    310    335 293.5  23.8  34176  289.85 0854.54
2009/04/23 13:07:38.2    -236     98    123    256    284 292.6  27.3  34174  289.80 0854.54
2009/04/23 13:07:38.3    -242     75     59    254    261 287.3  13.2  34168  289.70 0854.54
2009/04/23 13:07:38.4    -204    144    138    250    285 305.3  31.4  34170  289.73 0854.54
2009/04/23 13:07:38.5    -377    100      6    391    392 284.9   0.9  34180  289.91 0854.53
2009/04/23 13:07:38.6    -328     43   -103    331    347 277.6 -17.3  34178  289.89 0854.53
2009/04/23 13:07:38.7    -270     12    -86    271    285 272.6 -17.6  34176  289.85 0854.53
2009/04/23 13:07:38.8    -304      0     24    305    307 269.9   4.6  34182  289.93 0854.53
2009/04/23 13:07:38.9    -251    -19      0    252    253 265.7   0.2  34176  289.85 0854.53
2009/04/23 13:07:39.0    -224     38     42    228    232 279.7  10.6  34180  289.92 0854.53
2009/04/23 13:07:39.1    -212     28    130    214    250 277.7  34.4  34186  290.00 0854.53
2009/04/23 13:07:39.2    -213      0    191    214    286 269.9  46.2  34186  290.00 0854.53
2009/04/23 13:07:39.3    -301    -82    147    313    345 254.7  27.1  34188  290.04 0854.53
2009/04/23 13:07:39.4    -214   -172    171    275    323 231.3  35.0  34192  290.12 0854.53
2009/04/23 13:07:39.5    -136   -176    213    223    308 217.8  48.7  34190  290.09 0854.53
2009/04/23 13:07:39.6    -108   -215    125    241    271 206.7  29.5  34192  290.12 0854.53
2009/04/23 13:07:39.7    -132   -156    241    205    316 220.3  55.4  34190  290.09 0854.53
2009/04/23 13:07:39.8    -144    -58    196    156    250 247.8  57.5  34196  290.19 0854.53
2009/04/23 13:07:39.9    -132   -116    179    176    251 228.7  50.2  34194  290.16 0854.53
2009/04/23 13:07:40.0    -126    -91    125    156    199 234.1  42.7  34200  290.26 0854.53
2009/04/23 13:07:40.1     -96    -39     68    104    124 247.4  36.0  34204  290.33 0854.53
2009/04/23 13:07:40.2     -29   -128    128    132    183 192.9  49.4  34190  290.08 0854.53
2009/04/23 13:07:40.3    -100   -319    184    335    382 197.5  31.3  34172  289.76 0854.53
2009/04/23 13:07:40.4    -104   -374    247    389    460 195.5  35.5  34174  289.82 0854.52
2009/04/23 13:07:40.5    -119   -468    177    484    515 194.3  21.0  34162  289.62 0854.52
2009/04/23 13:07:40.6     -67   -336    149    343    373 191.4  25.1  34168  289.71 0854.52
2009/04/23 13:07:40.7     -65   -299    117    307    328 192.4  21.8  34168  289.70 0854.52
2009/04/23 13:07:40.8      39   -284    106    287    305 172.0  21.0  34170  289.73 0854.52
2009/04/23 13:07:40.9      22   -172    135    174    220 172.4  41.7  34168  289.72 0854.52
2009/04/23 13:07:41.0       0   -204     28    205    207 180.2   7.8  34174  289.82 0854.52
2009/04/23 13:07:41.1     -59   -238      0    246    247 194.0   0.2  34164  289.63 0854.52
2009/04/23 13:07:41.2     -24   -182     35    184    188 187.8  10.8  34164  289.65 0854.52
2009/04/23 13:07:41.3    -172   -227     36    286    289 217.2   7.2  34162  289.59 0854.52
2009/04/23 13:07:41.4    -172   -296    -22    343    344 210.1  -3.8  34166  289.69 0854.52
2009/04/23 13:07:41.5    -149   -192     54    244    251 217.8  12.6  34162  289.59 0854.52
2009/04/23 13:07:41.6    -166   -297    101    341    356 209.2  16.5  34166  289.67 0854.52
2009/04/23 13:07:41.7     -91   -302     44    316    320 196.9   8.0  34166  289.66 0854.52
2009/04/23 13:07:41.8    -165   -412     91    445    455 201.9  11.6  34174  289.80 0854.52
2009/04/23 13:07:41.9    -298   -326     27    442    443 222.4   3.6  34160  289.58 0854.52
2009/04/23 13:07:42.0    -323   -119    -29    345    347 249.7  -4.8  34162  289.60 0854.52
2009/04/23 13:07:42.1    -407   -152    -55    435    439 249.4  -7.2  34158  289.53 0854.52
2009/04/23 13:07:42.2    -502    -98   -128    512    528 258.9 -14.1  34164  289.63 0854.52
2009/04/23 13:07:42.3    -510   -120   -166    524    550 256.7 -17.6  34158  289.53 0854.52
2009/04/23 13:07:42.4    -473     35    -72    475    481 274.3  -8.7  34166  289.67 0854.51
2009/04/23 13:07:42.5    -416     -3    -53    417    421 269.5  -7.4  34166  289.66 0854.51
2009/04/23 13:07:42.6    -246    102   -177    267    320 292.6 -41.0  34164  289.64 0854.51
2009/04/23 13:07:42.7    -235     99   -246    256    355 292.8 -53.4  34164  289.63 0854.51
2009/04/23 13:07:42.8    -303    -96   -272    318    418 252.3 -49.3  34146  289.35 0854.51
2009/04/23 13:07:42.9    -292   -214   -128    363    386 233.7 -19.5  34166  289.67 0854.51
2009/04/23 13:07:43.0    -293    232    -78    375    384 308.4 -11.8  34158  289.54 0854.51
2009/04/23 13:07:43.1    -245    197   -103    315    331 308.9 -23.6  34166  289.68 0854.51
2009/04/23 13:07:43.2    -216     23   -104    218    241 276.1 -31.7  34168  289.70 0854.51
2009/04/23 13:07:43.3    -101    -13     -4    102    103 262.5  -2.2  34168  289.70 0854.51
2009/04/23 13:07:43.4     -87    185     31    205    208 334.8   8.8  34164  289.65 0854.51
2009/04/23 13:07:43.5    -157    255    -99    300    316 328.4 -18.3  34162  289.59 0854.51
2009/04/23 13:07:43.6       8    188    -56    189    198   2.5 -16.6  34168  289.72 0854.51
2009/04/23 13:07:43.7     -83    251    -78    265    277 341.7 -16.4  34172  289.76 0854.51
2009/04/23 13:07:43.8       8    -40   -226     41    229 167.5 -90.0  34170  289.75 0854.51
2009/04/23 13:07:43.9      14    -40   -203     43    207 160.8 -90.0  34174  289.80 0854.51
2009/04/23 13:07:44.0      31    -91    -98     97    137 161.3 -54.5  34172  289.79 0854.51
2009/04/23 13:07:44.1       0    -29   -130     30    133 180.9 -90.0  34176  289.85 0854.51
2009/04/23 13:07:44.2      28    -37    -87     47     98 142.2 -73.3  34174  289.80 0854.51
2009/04/23 13:07:44.3      84    -17    -39     86     94 101.5 -30.1  34170  289.74 0854.51
2009/04/23 13:07:44.4     129   -140     50    191    198 137.5  14.7  34168  289.70 0854.51
2009/04/23 13:07:44.5     -91   -211     63    230    239 203.4  15.3  34168  289.70 0854.51
2009/04/23 13:07:44.6      39   -369    -74    372    380 173.9 -11.3  34164  289.64 0854.51
2009/04/23 13:07:44.7    -102   -401    -58    414    419 194.3  -8.0  34160  289.56 0854.51
2009/04/23 13:07:44.8     -97   -319    -36    334    337 197.0  -6.2  34164  289.65 0854.51
2009/04/23 13:07:44.9    -130   -214     15    251    252 211.2   3.6  34170  289.75 0854.51
2009/04/23 13:07:45.0      13   -187     84    188    205 176.0  25.7  34164  289.65 0854.51
2009/04/23 13:07:45.1     -37   -221    -94    225    243 189.6 -28.2  34166  289.66 0854.51
2009/04/23 13:07:45.2     -24   -266    -88    268    282 185.3 -23.8  34162  289.59 0854.51
2009/04/23 13:07:45.3    -107   -269     -6    290    291 201.9  -1.3  34168  289.70 0854.51
2009/04/23 13:07:45.4       0   -290    -19    291    292 180.0  -3.9  34166  289.68 0854.51
2009/04/23 13:07:45.5     107   -364    -29    380    381 163.6  -4.4  34164  289.64 0854.51
2009/04/23 13:07:45.6     116   -438   -102    454    466 165.1 -12.7  34160  289.58 0854.51
2009/04/23 13:07:45.7     189   -401   -142    444    466 154.8 -22.9  34160  289.58 0854.51
2009/04/23 13:07:45.8       5   -300   -119    301    323 179.0 -27.2  34158  289.53 0854.51
2009/04/23 13:07:45.9      86   -384     -2    394    395 167.3  -0.4  34166  289.67 0854.51
2009/04/23 13:07:46.0      80   -488   -109    495    508 170.7 -12.5  34162  289.61 0854.51
2009/04/23 13:07:46.1      10   -450      0    451    452 178.6   0.1  34162  289.61 0854.51
2009/04/23 13:07:46.2     -92   -415     66    426    431 192.6   8.8  34162  289.60 0854.51
2009/04/23 13:07:46.3    -154   -363     46    395    398 203.0   6.7  34160  289.57 0854.51
2009/04/23 13:07:46.4      31   -226    206    229    308 172.2  46.9  34166  289.68 0854.52
2009/04/23 13:07:46.5     206   -436    290    483    563 154.7  33.8  34164  289.65 0854.52
2009/04/23 13:07:46.6     103   -372    314    387    498 164.4  43.3  34172  289.78 0854.52
2009/04/23 13:07:46.7     -69   -251    301    261    398 195.4  54.7  34170  289.74 0854.52
2009/04/23 13:07:46.8     213   -139    169    255    305 123.1  36.5  34174  289.80 0854.52
2009/04/23 13:07:46.9     180   -184     59    258    265 135.7  12.9  34168  289.70 0854.52
2009/04/23 13:07:47.0     103   -141    128    175    216 143.7  39.7  34158  289.55 0854.52
2009/04/23 13:07:47.1     138   -105    176    174    247 127.3  50.1  34168  289.70 0854.52
2009/04/23 13:07:47.2     120   -326    197    348    399 159.7  32.1  34164  289.65 0854.52
2009/04/23 13:07:47.3     177   -364    266    406    485 154.0  36.4  34162  289.61 0854.52
2009/04/23 13:07:47.4      82   -309     85    320    332 165.1  14.9  34168  289.70 0854.52
2009/04/23 13:07:47.5      65   -347     81    354    364 169.3  12.9  34164  289.64 0854.52
2009/04/23 13:07:47.6      26   -316     39    318    321 175.3   7.1  34164  289.63 0854.52
2009/04/23 13:07:47.7      45   -233     53    238    244 168.9  12.6  34168  289.71 0854.52
2009/04/23 13:07:47.8     110   -173     50    206    213 147.4  13.7  34166  289.67 0854.52
2009/04/23 13:07:47.9     182   -116     77    216    230 122.5  19.6  34166  289.69 0854.52
2009/04/23 13:07:48.0     175   -171    151    245    287 134.4  34.8  34170  289.73 0854.52
2009/04/23 13:07:48.1     194   -128    148    233    276 123.5  35.5  34170  289.73 0854.52
2009/04/23 13:07:48.2      36   -185    106    189    216 168.9  31.4  34166  289.67 0854.52
2009/04/23 13:07:48.3     -20   -266    100    267    285 184.4  21.3  34170  289.75 0854.52
2009/04/23 13:07:48.4     289   -335    403    443    598 139.2  47.0  34180  289.90 0854.52
2009/04/23 13:07:48.5     144   -401    224    427    482 160.2  29.8  34166  289.66 0854.52
2009/04/23 13:07:48.6     261   -385    242    466    525 145.8  29.5  34172  289.78 0854.52
2009/04/23 13:07:48.7     266   -455    107    528    539 149.7  11.5  34170  289.74 0854.52
2009/04/23 13:07:48.8     426   -243     46    491    494 119.8   5.4  34166  289.69 0854.52
2009/04/23 13:07:48.9     371   -223     44    433    436 121.0   5.9  34164  289.63 0854.52
2009/04/23 13:07:49.0     162   -216     34    271    274 143.1   7.2  34168  289.70 0854.52
2009/04/23 13:07:49.1     177    -87    149    198    247 116.2  40.7  34164  289.63 0854.52
2009/04/23 13:07:49.2      -1   -212    168    213    271 180.5  42.7  34166  289.68 0854.52
2009/04/23 13:07:49.3    -178   -443    -42    478    480 201.9  -5.1  34166  289.69 0854.52
2009/04/23 13:07:49.4    -100   -501   -141    511    531 191.3 -15.5  34166  289.67 0854.52
2009/04/23 13:07:49.5     -21   -450    -98    451    462 182.7 -12.3  34168  289.72 0854.52
2009/04/23 13:07:49.6     222   -327    -59    396    401 145.7  -8.6  34172  289.77 0854.52
2009/04/23 13:07:49.7     275   -104    192    295    351 110.8  36.2  34164  289.65 0854.52
2009/04/23 13:07:49.8     223   -111     51    250    256 116.6  11.6  34170  289.75 0854.52
2009/04/23 13:07:49.9     301   -233      7    381    382 127.8   1.1  34172  289.76 0854.52
2009/04/23 13:07:50.0     238   -264     64    356    362 137.9  10.2  34172  289.77 0854.52
2009/04/23 13:07:50.1     206   -360     26    415    416 150.2   3.6  34170  289.73 0854.52
2009/04/23 13:07:50.2     178   -340     50    384    388 152.4   7.5  34170  289.74 0854.52
2009/04/23 13:07:50.3      85   -364     78    374    383 166.8  11.8  34166  289.69 0854.52
2009/04/23 13:07:50.4      44   -353    139    356    382 172.9  22.7  34166  289.67 0854.49
2009/04/23 13:07:50.5     120   -233    173    263    314 152.8  36.5  34174  289.81 0854.49
2009/04/23 13:07:50.6     165   -266    239    314    394 148.1  41.1  34166  289.69 0854.49
2009/04/23 13:07:50.7      93   -526    215    535    576 169.9  23.1  34172  289.77 0854.49
2009/04/23 13:07:50.8     168   -461     92    492    501 159.9  10.6  34172  289.76 0854.49
2009/04/23 13:07:50.9     293   -262    143    394    419 131.8  20.8  34172  289.77 0854.49
2009/04/23 13:07:51.0     366   -241     35    439    441 123.3   4.6  34170  289.75 0854.49
2009/04/23 13:07:51.1     395   -229     23    457    458 120.1   2.9  34168  289.70 0854.49
2009/04/23 13:07:51.2     320   -182     32    369    371 119.7   5.1  34172  289.77 0854.49
2009/04/23 13:07:51.3     303   -168     21    347    348 119.0   3.6  34176  289.84 0854.49
2009/04/23 13:07:51.4     322      4     50    323    327  89.3   8.8  34170  289.73 0854.49
2009/04/23 13:07:51.5     196    -16     87    197    215  94.8  25.3  34158  289.55 0854.49
2009/04/23 13:07:51.6     273   -214    249    347    427 128.1  39.3  34172  289.78 0854.49
2009/04/23 13:07:51.7     228   -200    251    304    394 131.3  43.7  34172  289.76 0854.49
2009/04/23 13:07:51.8     284   -124    188    311    363 113.6  33.8  34172  289.77 0854.49
2009/04/23 13:07:51.9     323    -60    164    329    367 100.6  28.5  34172  289.76 0854.49
2009/04/23 13:07:52.0     207    -97    155    229    276 115.2  37.4  34166  289.66 0854.49
2009/04/23 13:07:52.1     240   -143    238    280    367 120.9  44.7  34172  289.76 0854.49
2009/04/23 13:07:52.2      40   -160    241    166    292 165.7  62.6  34166  289.66 0854.49
2009/04/23 13:07:52.3      84    -82    235    118    262 134.0  71.4  34170  289.75 0854.49
2009/04/23 13:07:52.4     149     30     68    152    166  78.5  25.9  34166  289.69 0854.51
2009/04/23 13:07:52.5     114    107    205    157    258  46.9  58.7  34166  289.67 0854.51
2009/04/23 13:07:52.6     -73   -140    307    159    345 207.6  70.6  34174  289.81 0854.51
2009/04/23 13:07:52.7     -45    -35     62     58     84 232.2  51.6  34172  289.77 0854.51
2009/04/23 13:07:52.8      -4    210     59    211    220 358.9  15.6  34174  289.80 0854.51
2009/04/23 13:07:52.9      60    190    237    200    310  17.6  55.8  34168  289.71 0854.51
2009/04/23 13:07:53.0      36    211    162    215    269   9.7  40.7  34170  289.75 0854.51
2009/04/23 13:07:53.1     169    231    119    287    310  36.1  23.8  34172  289.76 0854.51
2009/04/23 13:07:53.2     110    224    154    250    293  26.3  34.5  34172  289.76 0854.51
2009/04/23 13:07:53.3       0     42    169     43    174 359.1  85.9  34172  289.79 0854.51
2009/04/23 13:07:53.4      -3    198    186    199    272 358.9  48.0  34176  289.83 0854.51
2009/04/23 13:07:53.5    -102     56    150    117    190 298.9  57.9  34174  289.80 0854.51
2009/04/23 13:07:53.6      86     16    176     88    196  79.4  71.7  34172  289.79 0854.51
2009/04/23 13:07:53.7     162     75    262    179    317  65.2  62.5  34172  289.76 0854.51
2009/04/23 13:07:53.8      11     36    204     38    207  16.9  90.0  34174  289.82 0854.51
2009/04/23 13:07:53.9     -28     40    100     50    111 324.8  71.9  34176  289.84 0854.51
2009/04/23 13:07:54.0      69    -60     97     92    133 131.3  51.2  34176  289.84 0854.51
2009/04/23 13:07:54.1       3   -255    153    256    298 179.3  33.5  34166  289.66 0854.51
2009/04/23 13:07:54.2     -79   -228    161    242    290 199.2  36.5  34170  289.73 0854.51
2009/04/23 13:07:54.3     -33   -201    158    204    258 189.3  41.7  34166  289.68 0854.51
2009/04/23 13:07:54.4     -50   -213    148    219    264 193.4  37.3  34160  289.56 0854.49
2009/04/23 13:07:54.5     -31   -172    153    175    232 190.2  45.8  34170  289.74 0854.49
2009/04/23 13:07:54.6    -164   -294    180    337    382 209.2  30.5  34162  289.62 0854.49
2009/04/23 13:07:54.7    -224   -210     72    308    317 226.8  13.2  34148  289.37 0854.49
2009/04/23 13:07:54.8    -383   -228     18    446    447 239.2   2.4  34170  289.73 0854.49
2009/04/23 13:07:54.9    -413    127     22    433    434 287.1   2.9  34174  289.82 0854.49
2009/04/23 13:07:55.0    -360    144    -49    388    392 291.9  -7.2  34164  289.64 0854.49
2009/04/23 13:07:55.1    -360     16    -20    361    362 272.7  -3.2  34166  289.69 0854.49
2009/04/23 13:07:55.2    -285    176   -140    335    363 301.7 -28.3  34152  289.42 0854.49
2009/04/23 13:07:55.3    -505    451   -133    678    692 311.8 -11.1  34170  289.75 0854.49
2009/04/23 13:07:55.4    -518    195   -155    554    575 290.7 -20.3  34174  289.80 0854.48
2009/04/23 13:07:55.5    -408    455      7    612    613 318.1   0.7  34168  289.71 0854.48
2009/04/23 13:07:55.6    -168    474     98    503    513 340.5  11.1  34162  289.62 0854.48
2009/04/23 13:07:55.7    -148    401    123    428    446 339.7  16.0  34170  289.75 0854.48
2009/04/23 13:07:55.8    -322    197    193    378    424 301.4  29.2  34170  289.75 0854.48
2009/04/23 13:07:55.9    -324    156   -138    360    385 295.8 -26.4  34168  289.72 0854.48
2009/04/23 13:07:56.0     -43    172    111    178    209 345.7  35.2  34162  289.60 0854.48
2009/04/23 13:07:56.1    -144    143    153    203    254 314.8  40.7  34182  289.93 0854.48
2009/04/23 13:07:56.2    -132     81     43    155    161 301.5  15.6  34182  289.94 0854.48
2009/04/23 13:07:56.3     -91    201     57    221    229 335.7  14.5  34184  289.97 0854.48
2009/04/23 13:07:56.4     -12    201     93    202    222 356.4  26.4  34194  290.16 0854.48
2009/04/23 13:07:56.5    -137    174     10    222    223 321.9   2.8  34192  290.11 0854.48
2009/04/23 13:07:56.6      53     83    126     99    160  32.5  57.9  34184  289.97 0854.48
2009/04/23 13:07:56.7    -128    155    133    202    241 320.4  36.5  34190  290.09 0854.48
2009/04/23 13:07:56.8    -263    -21    106    264    284 265.4  23.0  34186  290.00 0854.48
2009/04/23 13:07:56.9    -209    119     78    241    254 299.8  17.9  34188  290.05 0854.48
2009/04/23 13:07:57.0    -219    106    109    244    267 296.0  25.7  34184  289.98 0854.48
2009/04/23 13:07:57.1    -343    136    146    370    397 291.7  22.7  34204  290.33 0854.48
2009/04/23 13:07:57.2    -262     26    121    264    290 275.7  26.2  34212  290.44 0854.48
2009/04/23 13:07:57.3    -221   -166    -24    277    279 233.2  -5.1  34176  289.83 0854.48
2009/04/23 13:07:57.4    -247    -82     11    261    262 251.6   2.5  34190  290.09 0854.46
2009/04/23 13:07:57.5    -113     16     40    115    122 278.4  19.4  34204  290.33 0854.46
2009/04/23 13:07:57.6       1    -40    -56     41     69 177.3 -64.9  34198  290.21 0854.46
2009/04/23 13:07:57.7     -15     45     97     48    108 341.3  72.8  34196  290.19 0854.46
2009/04/23 13:07:57.8     -26    -80     24     85     89 198.3  15.8  34194  290.14 0854.46
2009/04/23 13:07:57.9    -110   -286     19    307    308 201.2   3.6  34186  290.02 0854.46
2009/04/23 13:07:58.0     -59   -361     10    366    367 189.4   1.6  34164  289.64 0854.46
2009/04/23 13:07:58.1     -19   -300      6    301    302 183.6   1.2  34168  289.70 0854.46
2009/04/23 13:07:58.2     -57   -258     94    265    281 192.5  20.0  34176  289.85 0854.46
2009/04/23 13:07:58.3     -50   -313    131    318    343 189.1  23.6  34168  289.72 0854.46
2009/04/23 13:07:58.4      61   -428     54    433    437 171.9   7.1  34172  289.77 0854.46
2009/04/23 13:07:58.5     131   -537     56    553    556 166.2   5.8  34170  289.75 0854.46
2009/04/23 13:07:58.6     164   -436     22    467    468 159.3   2.8  34168  289.71 0854.46
2009/04/23 13:07:58.7     146   -284    137    320    348 152.8  24.5  34158  289.55 0854.46
2009/04/23 13:07:58.8    -138   -389    168    414    446 199.6  23.2  34172  289.77 0854.46
2009/04/23 13:07:58.9    -143   -328    138    359    384 203.6  22.2  34166  289.67 0854.46
2009/04/23 13:07:59.0    -120   -315    136    338    364 200.8  23.1  34172  289.76 0854.46
2009/04/23 13:07:59.1     -77   -239    236    252    345 198.0  47.9  34174  289.81 0854.46
2009/04/23 13:07:59.2    -131   -158    230    206    308 219.7  53.7  34172  289.78 0854.46
2009/04/23 13:07:59.3     -92   -147     73    174    188 212.1  23.8  34172  289.79 0854.46
2009/04/23 13:07:59.4     -63   -238    102    247    267 194.9  23.6  34166  289.68 0854.42
2009/04/23 13:07:59.5     -67   -253      0    262    263 194.9   0.0  34168  289.71 0854.42
2009/04/23 13:07:59.6    -270   -270     73    382    389 225.0  10.8  34168  289.71 0854.42
2009/04/23 13:07:59.7    -199   -286     45    349    352 214.8   7.5  34166  289.69 0854.42
2009/04/23 13:07:59.8    -131   -246     98    279    295 208.1  20.0  34170  289.75 0854.42
2009/04/23 13:07:59.9    -303   -120    -42    327    330 248.3  -7.4  34168  289.70 0854.42
2009/04/23 13:08:00.0    -357    -78     42    366    369 257.6   6.6  34172  289.77 0854.42
2009/04/23 13:08:00.1    -338    -89    -44    350    353 255.1  -7.3  34174  289.81 0854.42
2009/04/23 13:08:00.2    -334     33    -40    336    339 275.8  -6.9  34174  289.82 0854.42
2009/04/23 13:08:00.3    -400     36   -111    402    418 275.2 -15.5  34180  289.92 0854.42
2009/04/23 13:08:00.4    -506    -32   -111    508    521 266.4 -12.4  34186  290.00 0854.42
2009/04/23 13:08:00.5    -576     60   -160    580    601 276.0 -20.1  34184  289.97 0854.42
2009/04/23 13:08:00.6    -553     85   -164    560    583 278.8 -21.1  34174  289.80 0854.42
2009/04/23 13:08:00.7    -619     86   -105    625    634 277.9  -9.6  34174  289.81 0854.42
2009/04/23 13:08:00.9    -445    -36    -91    447    457 265.3 -11.6  34178  289.88 0854.42
2009/04/23 13:08:00.9    -434    -95   -122    445    462 257.6 -15.4  34174  289.82 0854.42
2009/04/23 13:08:01.0    -529    -73   -154    534    555 262.1 -20.9  34172  289.77 0854.42
2009/04/23 13:08:01.1    -537   -290   -260    611    664 241.6 -28.9  34166  289.69 0854.42
2009/04/23 13:08:01.2    -438   -127    -49    457    460 253.8  -6.2  34168  289.70 0854.42
2009/04/23 13:08:01.3    -362   -217     82    423    431 239.1  11.0  34174  289.82 0854.42
2009/04/23 13:08:01.4    -348   -252     35    430    432 234.1   4.7  34174  289.80 0854.34
2009/04/23 13:08:01.5    -325   -227     75    397    405 235.1  10.7  34166  289.69 0854.34
2009/04/23 13:08:01.6    -206   -359      8    415    416 209.9   1.1  34176  289.83 0854.34
2009/04/23 13:08:01.7      23   -311   -146    312    344 175.6 -31.5  34172  289.79 0854.34
2009/04/23 13:08:01.8     -96   -316    -16    331    332 197.0  -2.8  34174  289.82 0854.34
2009/04/23 13:08:02.0    -113   -361     66    379    385 197.4  10.0  34172  289.79 0854.34
2009/04/23 13:08:02.1    -146   -331    109    362    379 203.9  16.8  34184  289.98 0854.34
2009/04/23 13:08:02.2    -131   -229    104    264    283 209.8  22.8  34178  289.88 0854.34
2009/04/23 13:08:02.3     -40    -81     90     91    127 206.3  50.0  34174  289.82 0854.34
2009/04/23 13:08:02.3      97   -112    131    149    198 139.0  45.9  34186  290.02 0854.34
2009/04/23 13:08:02.5      86   -116    122    145    189 143.5  44.1  34178  289.89 0854.34
2009/04/23 13:08:02.6      34   -192    130    196    235 170.0  37.0  34178  289.89 0854.34
2009/04/23 13:08:02.7      62   -152    111    165    198 157.7  37.4  34176  289.85 0854.34
2009/04/23 13:08:02.8      35   -192     61    196    206 169.5  17.4  34170  289.74 0854.34
2009/04/23 13:08:02.9      23   -128     57    131    142 169.8  25.1  34178  289.87 0854.34
2009/04/23 13:08:03.0     -23    -70     44     74     86 198.5  34.0  34178  289.89 0854.34
2009/04/23 13:08:03.1      22    -30     29     38     47 143.9  41.7  34176  289.85 0854.34
2009/04/23 13:08:03.2      16    -72     38     74     83 167.5  29.3  34176  289.85 0854.34
2009/04/23 13:08:03.3      10    -49      9     51     52 168.5  11.0  34174  289.80 0854.34
2009/04/23 13:08:03.4       7    -57     18     58     61 172.9  17.3  34174  289.80 0854.34
2009/04/23 13:08:03.5      -9    -83     -6     84     85 186.7  -4.6  34178  289.87 0854.35
2009/04/23 13:08:03.6      20    -48     -2     53     54 157.3  -2.2  34176  289.84 0854.35
2009/04/23 13:08:03.7      22    -46     -1     52     53 154.5  -1.3  34176  289.84 0854.35
2009/04/23 13:08:03.8      40   -121     -5    128    129 161.5  -2.6  34174  289.80 0854.35
2009/04/23 13:08:03.9      34   -184     38    188    192 169.3  11.4  34174  289.82 0854.35
2009/04/23 13:08:04.0      18    -90    195     92    215 168.5  73.1  34182  289.94 0854.35
2009/04/23 13:08:04.1      65   -386     30    392    394 170.4   4.4  34166  289.69 0854.35
2009/04/23 13:08:04.2     108   -425    102    439    451 165.7  13.1  34166  289.66 0854.35
2009/04/23 13:08:04.3     140   -363     47    390    393 158.8   6.9  34162  289.62 0854.35
2009/04/23 13:08:04.4     105   -276    197    296    355 159.1  36.9  34164  289.65 0854.35
2009/04/23 13:08:04.5     154   -198    225    251    337 142.2  46.6  34168  289.71 0854.35
2009/04/23 13:08:04.6      54   -188    227    196    299 163.7  54.8  34172  289.78 0854.35
2009/04/23 13:08:04.7     -20   -258    206    259    330 184.5  42.7  34172  289.76 0854.35
2009/04/23 13:08:04.8      40   -100    165    108    197 158.2  63.9  34176  289.85 0854.35
2009/04/23 13:08:04.9      19   -201    184    202    273 174.4  47.5  34170  289.73 0854.35
2009/04/23 13:08:05.0      32   -226     45    229    234 171.9  11.1  34166  289.69 0854.35
2009/04/23 13:08:05.1      73   -155      9    172    173 154.8   3.3  34170  289.74 0854.35
2009/04/23 13:08:05.2      50    -72     74     88    114 145.3  43.8  34168  289.72 0854.35
2009/04/23 13:08:05.3       7   -202    220    203    299 177.8  52.2  34172  289.78 0854.35
2009/04/23 13:08:05.4      62   -185    236    196    306 161.3  56.3  34164  289.64 0854.35
2009/04/23 13:08:05.5     -68   -167    250    181    308 202.3  60.6  34164  289.63 0854.34
2009/04/23 13:08:05.6     229   -140    257    269    372 121.5  48.5  34164  289.64 0854.34
2009/04/23 13:08:05.7      98   -276    268    293    397 160.4  47.1  34164  289.64 0854.34
2009/04/23 13:08:05.8      -6   -385    315    386    498 180.9  43.5  34166  289.66 0854.34
2009/04/23 13:08:05.9    -221   -404    176    461    493 208.7  22.0  34156  289.50 0854.34
2009/04/23 13:08:06.0     -36   -289    263    292    392 187.1  46.8  34160  289.57 0854.34
2009/04/23 13:08:06.1     -76   -362    277    370    462 191.9  40.6  34156  289.49 0854.34
2009/04/23 13:08:06.2    -118   -430     76    447    454 195.4   9.7  34168  289.72 0854.34
2009/04/23 13:08:06.3    -237   -459     -3    517    518 207.4  -0.4  34166  289.66 0854.34
2009/04/23 13:08:06.4    -231   -353    -30    422    424 213.2  -4.1  34168  289.72 0854.34
2009/04/23 13:08:06.5     -15   -279     29    280    282 183.1   6.0  34170  289.73 0854.34
2009/04/23 13:08:06.6      66   -420    138    426    449 171.0  18.0  34172  289.77 0854.34
2009/04/23 13:08:06.7     157   -470     -3    496    497 161.5  -0.4  34172  289.78 0854.34
2009/04/23 13:08:06.8     137   -440    -17    461    462 162.7  -2.1  34168  289.72 0854.34
2009/04/23 13:08:06.9     137   -373    -76    398    406 159.8 -10.8  34174  289.82 0854.34
2009/04/23 13:08:07.0     191   -298      4    355    356 147.3   0.7  34170  289.74 0854.34
2009/04/23 13:08:07.1     221   -237   -100    325    341 137.0 -17.2  34172  289.76 0854.34
2009/04/23 13:08:07.2     312   -182     10    362    363 120.3   1.7  34176  289.84 0854.34
2009/04/23 13:08:07.3     -26   -353      0    354    355 184.2   0.1  34170  289.74 0854.34
2009/04/23 13:08:07.4       6   -252     68    253    263 178.6  15.2  34176  289.83 0854.31
2009/04/23 13:08:07.5      63   -123     89    139    165 152.9  35.6  34172  289.77 0854.31
2009/04/23 13:08:07.6     -13    -97     22     98    101 188.0  12.6  34172  289.79 0854.31
2009/04/23 13:08:07.7      -9   -165    100    166    193 183.1  34.4  34172  289.77 0854.31
2009/04/23 13:08:07.8     -71    -40    105     82    133 240.2  57.9  34176  289.84 0854.31
2009/04/23 13:08:07.9     -24   -133     55    136    146 190.2  23.0  34172  289.79 0854.31
2009/04/23 13:08:08.0     127   -126     21    179    181 134.8   6.9  34172  289.77 0854.31
2009/04/23 13:08:08.1     225   -225    138    319    347 134.9  24.9  34172  289.79 0854.31
2009/04/23 13:08:08.2     243   -154    -20    288    289 122.4  -4.1  34170  289.75 0854.31
2009/04/23 13:08:08.3      70   -150      6    166    167 155.1   2.3  34174  289.82 0854.31
2009/04/23 13:08:08.4      15   -146    -46    147    154 173.8 -22.8  34174  289.80 0854.31
2009/04/23 13:08:08.5      76   -271     65    282    290 164.2  13.1  34168  289.70 0854.31
2009/04/23 13:08:08.6     -56   -424    105    428    441 187.6  13.9  34168  289.70 0854.31
2009/04/23 13:08:08.7    -129   -363     43    386    389 199.6   6.5  34172  289.77 0854.31
2009/04/23 13:08:08.8       0   -340     30    341    343 180.0   5.1  34172  289.76 0854.31
2009/04/23 13:08:08.9     119   -451     66    467    472 165.2   8.1  34168  289.71 0854.31
2009/04/23 13:08:09.0     100   -513    149    523    544 168.9  15.9  34170  289.74 0854.31
2009/04/23 13:08:09.1     263   -426    156    501    525 148.3  17.3  34162  289.59 0854.31
2009/04/23 13:08:09.2     142   -480    241    501    555 163.5  27.4  34162  289.60 0854.31
2009/04/23 13:08:09.3      49   -523   -110    526    538 174.6 -11.9  34166  289.67 0854.31
2009/04/23 13:08:09.4     -57   -409   -203    414    461 188.0 -32.4  34148  289.38 0854.36
2009/04/23 13:08:09.5      18   -269   -187    270    328 176.0 -42.4  34166  289.68 0854.36
2009/04/23 13:08:09.6     169   -319   -129    362    384 152.1 -24.8  34162  289.60 0854.36
2009/04/23 13:08:09.7      74    -74    -60    105    120 134.9 -36.8  34156  289.52 0854.36
2009/04/23 13:08:09.8     132      6    152    133    201  87.4  54.3  34166  289.69 0854.36
2009/04/23 13:08:09.9     145   -112    184    184    260 127.5  50.1  34176  289.83 0854.36
2009/04/23 13:08:10.0     115   -216    195    245    313 152.0  42.6  34170  289.73 0854.36
2009/04/23 13:08:10.1     -56   -156     70    166    180 199.8  24.1  34166  289.69 0854.36
2009/04/23 13:08:10.2      -1     58    214     59    221 358.2  84.8  34166  289.69 0854.36
2009/04/23 13:08:10.3    -105    -45    211    115    240 246.9  69.1  34168  289.70 0854.36
2009/04/23 13:08:10.4    -214   -136    209    254    328 237.5  43.7  34168  289.71 0854.36
2009/04/23 13:08:10.5    -108    167    342    200    396 327.0  67.1  34172  289.79 0854.36
2009/04/23 13:08:10.6     112    182    298    214    366  31.6  60.8  34168  289.71 0854.36
2009/04/23 13:08:10.7     331    193    362    384    527  59.8  48.0  34166  289.66 0854.36
2009/04/23 13:08:10.8      42    -21    115     48    124 117.1  77.0  34166  289.67 0854.36
2009/04/23 13:08:10.9     320      7    260    321    413  88.7  43.3  34168  289.72 0854.36
2009/04/23 13:08:11.0      75   -127    -32    148    152 149.3 -12.4  34166  289.69 0854.36
2009/04/23 13:08:11.1     167   -341    164    380    413 153.9  24.9  34162  289.61 0854.36
2009/04/23 13:08:11.2     111   -465    103    479    491 166.6  12.2  34164  289.64 0854.36
2009/04/23 13:08:11.3     434   -576    100    722    729 143.0   7.9  34162  289.61 0854.36
2009/04/23 13:08:11.4     258   -591    184    646    672 156.4  15.9  34164  289.65 0854.35
2009/04/23 13:08:11.5     227   -656    193    695    722 160.9  15.6  34162  289.62 0854.35
2009/04/23 13:08:11.6     203   -663    241    694    735 163.0  19.2  34162  289.59 0854.35
2009/04/23 13:08:11.7     214   -628    236    664    705 161.2  19.6  34162  289.61 0854.35
2009/04/23 13:08:11.8     178   -670    338    694    771 165.1  27.9  34162  289.60 0854.35
2009/04/23 13:08:11.9     258   -614    242    667    709 157.2  20.9  34154  289.46 0854.35
2009/04/23 13:08:12.0     412   -559     20    695    696 143.6   1.7  34164  289.65 0854.35
2009/04/23 13:08:12.1     172   -621    182    645    671 164.5  15.8  34156  289.49 0854.35
2009/04/23 13:08:12.2      94   -508    400    517    653 169.5  41.7  34162  289.61 0854.35
2009/04/23 13:08:12.3     199   -306    142    366    392 147.0  22.3  34164  289.65 0854.35
2009/04/23 13:08:12.4     169   -316    116    359    378 151.9  18.0  34164  289.64 0854.35
2009/04/23 13:08:12.5      97   -469     90    480    489 168.3  10.7  34166  289.67 0854.35
2009/04/23 13:08:12.6     126   -380    187    401    442 161.6  27.1  34172  289.77 0854.35
2009/04/23 13:08:12.7       8   -478    274    479    551 179.0  32.4  34164  289.63 0854.35
2009/04/23 13:08:12.8       2   -585    297    586    656 179.8  28.9  34168  289.72 0854.35
2009/04/23 13:08:12.9      50   -487    174    490    519 174.1  20.4  34172  289.78 0854.35
2009/04/23 13:08:13.0     144   -395     99    421    433 160.0  13.2  34170  289.75 0854.35
2009/04/23 13:08:13.1       0   -471    101    472    483 180.0  12.2  34170  289.73 0854.35
2009/04/23 13:08:13.2       0   -454    -24    455    456 180.0  -3.1  34170  289.75 0854.35
2009/04/23 13:08:13.3      23   -395    138    396    420 176.6  19.2  34172  289.78 0854.35
2009/04/23 13:08:13.4     -81   -431     45    439    442 190.7   6.0  34170  289.75 0854.34
2009/04/23 13:08:13.5     -67   -394    133    400    422 189.7  18.5  34166  289.68 0854.34
2009/04/23 13:08:13.6     -42   -539    250    541    595 184.5  26.6  34168  289.71 0854.34
2009/04/23 13:08:13.7    -156   -431    208    459    503 200.0  26.2  34172  289.76 0854.34
2009/04/23 13:08:13.8    -277   -182     52    332    337 236.7   8.9  34176  289.84 0854.34
2009/04/23 13:08:13.9    -157   -254    106    299    318 211.7  19.5  34174  289.80 0854.34
2009/04/23 13:08:14.0    -203   -431     99    477    488 205.3  11.8  34178  289.88 0854.34
2009/04/23 13:08:14.1    -133   -385     72    408    415 199.1  10.0  34174  289.82 0854.34
2009/04/23 13:08:14.2     -67   -494     83    499    506 187.8   9.5  34166  289.69 0854.34
2009/04/23 13:08:14.3     -88   -353     36    364    366 194.1   5.8  34174  289.81 0854.34
2009/04/23 13:08:14.4      78   -300    139    311    340 165.3  25.7  34172  289.79 0854.34
2009/04/23 13:08:14.5      94   -401    196    412    456 166.8  27.3  34170  289.73 0854.34
2009/04/23 13:08:14.6      -5   -319    230    320    394 181.0  39.3  34172  289.76 0854.34
2009/04/23 13:08:14.7      -6   -397    185    398    438 180.9  26.6  34170  289.75 0854.34
2009/04/23 13:08:14.8       0   -437    114    438    453 180.0  14.6  34168  289.72 0854.34
2009/04/23 13:08:14.9    -163   -371    142    406    431 203.7  19.3  34168  289.70 0854.34
2009/04/23 13:08:15.0    -185   -337    116    385    403 208.7  16.8  34170  289.74 0854.34
2009/04/23 13:08:15.1    -151   -336     78    369    378 204.2  12.0  34172  289.77 0854.34
2009/04/23 13:08:15.2    -199   -286     93    349    362 214.8  15.0  34168  289.72 0854.34
2009/04/23 13:08:15.3    -289   -270     45    396    399 226.9   6.6  34172  289.76 0854.34
2009/04/23 13:08:15.4    -340   -230     17    411    412 235.9   2.4  34172  289.78 0854.29
2009/04/23 13:08:15.5    -167   -139     42    218    223 230.2  11.0  34176  289.85 0854.29
2009/04/23 13:08:15.6    -117   -175    -33    211    214 213.8  -9.0  34178  289.87 0854.29
2009/04/23 13:08:15.7     -69   -204    -17    216    217 198.7  -4.6  34172  289.77 0854.29
2009/04/23 13:08:15.8    -155   -236   -107    283    302 213.4 -26.1  34168  289.71 0854.29
2009/04/23 13:08:15.9    -143   -315   -243    347    423 204.5 -42.9  34168  289.71 0854.29
2009/04/23 13:08:16.0    -107   -366   -164    382    415 196.4 -29.2  34166  289.68 0854.29
2009/04/23 13:08:16.1    -351   -268     -8    442    443 232.6  -1.2  34172  289.77 0854.29
2009/04/23 13:08:16.2    -167   -299     12    343    344 209.2   2.1  34168  289.72 0854.29
2009/04/23 13:08:16.3    -150   -243    -36    286    289 211.6  -7.3  34178  289.86 0854.29
2009/04/23 13:08:16.4     -50   -153    -21    162    164 198.3  -7.5  34172  289.77 0854.25
2009/04/23 13:08:16.5    -113   -237    -68    263    272 205.5 -14.5  34176  289.83 0854.25
2009/04/23 13:08:16.6    -188   -234    -83    301    313 218.7 -15.4  34170  289.75 0854.25
2009/04/23 13:08:16.7    -161   -327   -133    365    388 206.3 -25.3  34162  289.62 0854.25
2009/04/23 13:08:16.8    -150   -319     41    353    356 205.2   6.7  34172  289.76 0854.25
2009/04/23 13:08:16.9     -46   -394     80    397    405 186.7  11.4  34166  289.68 0854.25
2009/04/23 13:08:17.0    -244   -460      7    521    522 208.0   0.8  34176  289.84 0854.25
2009/04/23 13:08:17.1    -215   -576    -54    616    619 200.5  -5.1  34164  289.65 0854.25
2009/04/23 13:08:17.2    -131   -574    199    589    622 192.9  18.7  34170  289.75 0854.25
2009/04/23 13:08:17.3       0   -442    177    443    477 180.0  23.0  34168  289.71 0854.25
2009/04/23 13:08:17.4       2   -389    136    390    414 179.7  19.2  34172  289.77 0854.25
2009/04/23 13:08:17.5      65   -298    240    306    388 167.7  42.2  34178  289.86 0854.25
2009/04/23 13:08:17.6      19   -333    220    334    399 176.6  36.5  34170  289.74 0854.25
2009/04/23 13:08:17.7      54   -226    236    233    331 166.6  50.2  34174  289.80 0854.25
2009/04/23 13:08:17.8     207   -432    330    480    582 154.4  37.8  34172  289.77 0854.25
2009/04/23 13:08:17.9     230   -535    255    583    636 156.7  25.2  34166  289.69 0854.25
2009/04/23 13:08:18.0     286   -396    304    489    575 144.2  34.9  34172  289.79 0854.25
2009/04/23 13:08:18.1     245   -360    -17    436    437 145.8  -2.2  34170  289.75 0854.25
2009/04/23 13:08:18.2     250   -354     -9    434    435 144.8  -1.3  34174  289.80 0854.25
2009/04/23 13:08:18.3     287   -344     40    449    451 140.2   5.2  34164  289.65 0854.25
2009/04/23 13:08:18.4     133   -398    255    420    491 161.5  34.1  34162  289.62 0854.28
2009/04/23 13:08:18.5      86   -162    157    184    241 152.1  44.9  34170  289.74 0854.28
2009/04/23 13:08:18.6     263    -18    171    264    314  94.1  36.0  34170  289.75 0854.28
2009/04/23 13:08:18.7     238     -3     37    239    242  90.8   8.9  34168  289.71 0854.28
2009/04/23 13:08:18.8     319     68    135    327    353  77.8  23.7  34172  289.79 0854.28
2009/04/23 13:08:18.9     212    -65    232    222    321 107.1  51.3  34176  289.83 0854.28
2009/04/23 13:08:19.0     -83   -206    181    223    287 201.9  43.5  34170  289.75 0854.28
2009/04/23 13:08:19.1      -7   -255    235    256    347 181.8  47.5  34168  289.71 0854.28
2009/04/23 13:08:19.2      14    -99    131    101    165 171.5  58.5  34168  289.72 0854.28
2009/04/23 13:08:19.3       1     -4    165      5    165 168.4  90.0  34180  289.91 0854.28
2009/04/23 13:08:19.4     217     13    119    218    248  86.5  31.0  34180  289.90 0854.28
2009/04/23 13:08:19.5     170     35    150    174    229  78.3  45.1  34180  289.91 0854.28
2009/04/23 13:08:19.6      36     88    134     96    164  22.3  61.1  34182  289.94 0854.28
2009/04/23 13:08:19.7      -6    167      9    168    169 357.8   3.3  34178  289.89 0854.28
2009/04/23 13:08:19.8      55    175     16    184    185  17.6   5.2  34180  289.91 0854.28
2009/04/23 13:08:19.9     -16    149     18    150    152 353.8   6.9  34176  289.84 0854.28
2009/04/23 13:08:20.0     -31    139     58    143    154 347.1  23.0  34178  289.89 0854.28
2009/04/23 13:08:20.1       0    177    110    178    209   0.2  35.0  34180  289.92 0854.28
2009/04/23 13:08:20.2     -43    213    134    218    255 348.4  34.5  34180  289.90 0854.28
2009/04/23 13:08:20.3    -125    253    125    283    309 333.7  25.3  34174  289.81 0854.28
2009/04/23 13:08:20.4    -177    155    -12    236    237 311.3  -3.1  34182  289.93 0854.22
2009/04/23 13:08:20.5     -71    157     57    173    183 335.7  18.4  34174  289.82 0854.22
2009/04/23 13:08:20.6    -241    184    -32    304    306 307.3  -6.1  34180  289.90 0854.22
2009/04/23 13:08:20.7    -104    309     59    327    333 341.4  10.3  34174  289.82 0854.22
2009/04/23 13:08:20.8     -54    267    134    273    304 348.4  27.8  34174  289.80 0854.22
2009/04/23 13:08:20.9    -119    189    178    224    286 327.7  42.7  34176  289.83 0854.22
2009/04/23 13:08:21.0    -145    219    116    263    287 326.4  25.2  34180  289.90 0854.22
2009/04/23 13:08:21.1      48    -58    193     76    207 140.3  77.4  34178  289.87 0854.22
2009/04/23 13:08:21.2      23    -83    155     87    177 164.4  68.5  34182  289.96 0854.22
2009/04/23 13:08:21.3      19    -34    115     40    121 151.0  80.7  34182  289.96 0854.22
2009/04/23 13:08:21.4      89      4    113     90    144  87.4  57.5  34178  289.89 0854.22
2009/04/23 13:08:21.5    -104     -4     86    105    135 267.4  43.7  34178  289.87 0854.22
2009/04/23 13:08:21.6     -42    -46    161     63    172 222.3  77.8  34180  289.91 0854.22
2009/04/23 13:08:21.7     -53    -83     77     99    125 213.0  41.7  34178  289.87 0854.22
2009/04/23 13:08:21.8     145    -36    162    150    220 104.2  52.2  34170  289.75 0854.22
2009/04/23 13:08:21.9      96     37    226    104    248  68.7  73.5  34174  289.82 0854.22
2009/04/23 13:08:22.0     272    -54    211    278    349 101.4  41.1  34168  289.71 0854.22
2009/04/23 13:08:22.1     134   -335     87    361    372 158.2  13.6  34176  289.84 0854.22
2009/04/23 13:08:22.2      75   -297    150    307    341 165.7  28.0  34172  289.76 0854.22
2009/04/23 13:08:22.3      49     -9     33     50     59 100.6  36.5  34178  289.89 0854.22
2009/04/23 13:08:22.4     109    -58     99    124    158 118.4  42.7  34180  289.91 0854.26
2009/04/23 13:08:22.5      72    -87    105    114    154 140.3  47.9  34176  289.85 0854.26
2009/04/23 13:08:22.6     168   -239    178    293    342 144.8  34.2  34166  289.68 0854.26
2009/04/23 13:08:22.7     568   -353    211    669    702 121.9  17.5  34166  289.68 0854.26
2009/04/23 13:08:22.8     322   -218    176    389    426 124.1  26.2  34164  289.65 0854.26
2009/04/23 13:08:22.9      79   -208    230    223    320 159.1  50.9  34168  289.71 0854.26
2009/04/23 13:08:23.0      60   -307    139    313    342 168.9  25.8  34164  289.65 0854.26
2009/04/23 13:08:23.1    -105   -250    141    272    306 202.9  29.3  34164  289.64 0854.26
2009/04/23 13:08:23.2     -13   -153    110    154    189 184.9  39.3  34172  289.77 0854.26
2009/04/23 13:08:23.3     -23   -228     90    230    246 185.8  22.5  34170  289.75 0854.26
2009/04/23 13:08:23.4      -9   -205    115    206    235 182.7  31.4  34166  289.69 0854.26
2009/04/23 13:08:23.5     -33   -192    103    195    220 189.8  30.1  34162  289.62 0854.26
2009/04/23 13:08:23.6     -63   -171    140    183    230 200.3  41.4  34164  289.63 0854.26
2009/04/23 13:08:23.7     -89   -232     99    249    267 201.2  23.0  34164  289.64 0854.26
2009/04/23 13:08:23.8    -149   -195     93    246    262 217.4  21.7  34162  289.61 0854.26
2009/04/23 13:08:23.9     -98    -92    124    135    183 226.8  47.7  34158  289.53 0854.26
2009/04/23 13:08:24.0    -195     11     36    196    200 273.5  10.6  34158  289.53 0854.26
2009/04/23 13:08:24.1    -147    -49     -7    156    157 251.4  -2.6  34164  289.63 0854.26
2009/04/23 13:08:24.2     -16   -138    118    139    182 186.7  44.8  34152  289.45 0854.26
2009/04/23 13:08:24.3     -68    -60     80     91    121 228.7  45.8  34164  289.63 0854.26
2009/04/23 13:08:24.4      10     75     62     76     98   8.1  43.7  34158  289.55 0854.33
2009/04/23 13:08:24.5     -96    143     65    173    184 325.9  21.3  34162  289.62 0854.33
2009/04/23 13:08:24.7    -255    162     93    303    317 302.4  17.1  34166  289.68 0854.33
2009/04/23 13:08:24.7    -106    108    -30    152    156 315.5 -11.3  34168  289.70 0854.33
2009/04/23 13:08:24.8    -346     34    -96    348    362 275.7 -15.5  34164  289.64 0854.33
2009/04/23 13:08:24.9    -139    230     73    270    280 328.8  15.2  34160  289.58 0854.33
2009/04/23 13:08:25.0     -97    176    128    202    239 331.1  35.5  34166  289.67 0854.33
2009/04/23 13:08:25.1     -45     30    118     55    130 303.3  73.1  34174  289.82 0854.33
2009/04/23 13:08:25.2    -104     21     58    107    121 281.5  30.8  34166  289.67 0854.33
2009/04/23 13:08:25.3     -67    -32     70     75    102 244.6  48.0  34170  289.75 0854.33
2009/04/23 13:08:25.4     -78   -119     80    143    163 213.4  31.9  34166  289.69 0854.33
2009/04/23 13:08:25.5     -82   -121     72    147    163 214.3  28.0  34168  289.70 0854.33
2009/04/23 13:08:25.6     -24   -146     46    148    156 189.3  17.3  34168  289.70 0854.33
2009/04/23 13:08:25.7     -20   -192     20    194    196 186.2   6.1  34166  289.69 0854.33
2009/04/23 13:08:25.9    -134   -126    -23    185    187 226.8  -7.2  34166  289.67 0854.33
2009/04/23 13:08:25.9    -153   -102    -30    184    187 236.3  -9.3  34164  289.65 0854.33
2009/04/23 13:08:26.0    -124   -210    -31    245    248 210.7  -7.3  34166  289.66 0854.33
2009/04/23 13:08:26.1    -138   -294      6    325    326 205.2   1.1  34162  289.61 0854.33
2009/04/23 13:08:26.2    -141   -360     10    387    388 201.4   1.5  34168  289.72 0854.33
2009/04/23 13:08:26.3    -180   -300      4    351    352 211.0   0.8  34166  289.67 0854.33
2009/04/23 13:08:26.4    -285   -157     64    326    333 241.2  11.1  34170  289.74 0854.32
2009/04/23 13:08:26.5    -281   -117     48    305    309 247.4   9.0  34174  289.80 0854.32
2009/04/23 13:08:26.6     -81   -267    144    280    314 196.9  29.3  34164  289.64 0854.32
2009/04/23 13:08:26.7    -121   -277      2    303    304 203.6   0.5  34162  289.61 0854.32
2009/04/23 13:08:26.8       4   -329    -85    330    341 179.3 -14.5  34156  289.50 0854.32
2009/04/23 13:08:27.0     -62   -325    -91    331    344 190.8 -15.4  34162  289.59 0854.32
2009/04/23 13:08:27.1     -11   -248   -103    249    269 182.7 -28.2  34160  289.56 0854.32
2009/04/23 13:08:27.1    -102   -254    -28    274    276 201.9  -6.0  34162  289.59 0854.32
2009/04/23 13:08:27.2     -69   -232     -2    243    244 196.5  -0.5  34160  289.58 0854.32
2009/04/23 13:08:27.3     -16   -209     17    210    211 184.5   4.9  34160  289.58 0854.32
2009/04/23 13:08:27.4      63   -188    -32    199    202 161.3  -9.3  34162  289.60 0854.32
2009/04/23 13:08:27.5      14   -198    -30    199    202 175.8  -8.6  34162  289.60 0854.32
2009/04/23 13:08:27.6      46   -344    -98    348    361 172.3 -20.4  34162  289.60 0854.32
2009/04/23 13:08:27.7      29   -426   -104    427    440 176.1 -13.7  34158  289.53 0854.32
2009/04/23 13:08:27.8       6   -496    -39    497    499 179.3  -4.6  34158  289.54 0854.32
2009/04/23 13:08:27.9      15   -484    -39    485    487 178.2  -4.7  34160  289.57 0854.32
2009/04/23 13:08:28.0      44   -582    -64    584    588 175.6  -6.3  34168  289.71 0854.32
2009/04/23 13:08:28.1      22   -599     46    600    602 177.9   4.5  34160  289.58 0854.32
2009/04/23 13:08:28.2     -27   -594    -50    595    598 182.7  -4.9  34166  289.69 0854.32
2009/04/23 13:08:28.4     -23   -676     96    677    684 182.0   8.1  34164  289.63 0854.32
2009/04/23 13:08:28.5     -20   -649    147    650    667 181.8  12.8  34168  289.70 0854.32
2009/04/23 13:08:28.6      71   -648    144    653    669 173.7  12.5  34164  289.63 0854.32
2009/04/23 13:08:28.7     173   -494    278    524    593 160.7  30.2  34164  289.63 0854.32
2009/04/23 13:08:28.7     367   -570     93    679    686 147.2   7.8  34168  289.71 0854.32
2009/04/23 13:08:28.9     176   -336      6    380    381 152.3   1.0  34170  289.74 0854.32
2009/04/23 13:08:29.0      64   -421     44    426    429 171.3   6.0  34162  289.61 0854.32
2009/04/23 13:08:29.1       1   -396      1    397    398 179.8   0.2  34162  289.60 0854.32
2009/04/23 13:08:29.2     200   -334     95    390    402 149.1  13.7  34164  289.65 0854.32
2009/04/23 13:08:29.3     -25   -654    152    655    673 182.2  13.1  34160  289.56 0854.32
2009/04/23 13:08:29.4    -146   -728    117    743    753 191.4   9.0  34162  289.62 0854.32
2009/04/23 13:08:29.5    -224   -693   -132    729    741 197.9 -10.3  34166  289.68 0854.32
2009/04/23 13:08:29.6    -215   -701   -121    734    744 197.1  -9.4  34166  289.68 0854.32
2009/04/23 13:08:29.7    -148   -743    -53    758    760 191.3  -4.0  34164  289.65 0854.32
2009/04/23 13:08:29.8    -178   -714    -43    736    738 194.0  -3.4  34160  289.58 0854.32
2009/04/23 13:08:29.9    -223   -651    -89    689    695 198.9  -7.4  34172  289.77 0854.32
2009/04/23 13:08:30.0    -376   -478   -234    609    652 218.2 -26.6  34156  289.52 0854.32
2009/04/23 13:08:30.1       1   -432    -67    433    439 179.8  -8.9  34158  289.53 0854.32
2009/04/23 13:08:30.2     -81   -425   -137    433    455 190.9 -17.5  34154  289.48 0854.32
2009/04/23 13:08:30.3    -156   -370   -167    402    435 203.0 -28.3  34162  289.61 0854.32
2009/04/23 13:08:30.4      79   -482   -189    489    524 170.7 -26.6  34162  289.59 0854.32
2009/04/23 13:08:30.5     144   -229   -114    271    294 147.7 -28.5  34160  289.58 0854.33
2009/04/23 13:08:30.6     395   -140      8    420    421 109.5   1.2  34150  289.41 0854.33
2009/04/23 13:08:30.7     410   -141    117    434    450 109.0  15.2  34156  289.51 0854.33
2009/04/23 13:08:30.8     422   -343     -2    544    545 129.1  -0.3  34158  289.55 0854.33
2009/04/23 13:08:30.9     452   -306     22    546    547 124.1   2.3  34160  289.57 0854.33
2009/04/23 13:08:31.0     270   -164     71    316    325 121.3  12.8  34160  289.58 0854.33
2009/04/23 13:08:31.1     212    -71    148    224    268 108.6  36.5  34158  289.54 0854.33
2009/04/23 13:08:31.2      68    -19    197     71    209 105.9  79.5  34156  289.52 0854.33
2009/04/23 13:08:31.3     -57     22    163     62    174 291.7  78.6  34160  289.58 0854.33
2009/04/23 13:08:31.4     -63    -46    175     79    192 234.0  74.0  34170  289.74 0854.33
2009/04/23 13:08:31.5     -52    -13    157     54    166 255.8  81.0  34168  289.70 0854.33
2009/04/23 13:08:31.6      -1     33    160     34    163 357.4  88.5  34164  289.63 0854.33
2009/04/23 13:08:31.7     -82      1    159     83    179 270.8  70.4  34164  289.63 0854.33
2009/04/23 13:08:31.8      41   -345    245    348    425 173.2  38.6  34152  289.45 0854.33
2009/04/23 13:08:31.9      70   -693    338    697    774 174.2  27.7  34156  289.50 0854.33
2009/04/23 13:08:32.0     115   -702     79    712    717 170.7   6.4  34160  289.57 0854.33
2009/04/23 13:08:32.1     121   -664     44    675    677 169.7   3.7  34158  289.54 0854.33
2009/04/23 13:08:32.2     166   -567    150    591    610 163.6  14.3  34156  289.51 0854.33
2009/04/23 13:08:32.3     221   -593     34    634    636 159.5   3.1  34142  289.28 0854.33
2009/04/23 13:08:32.4     440   -264    189    514    547 121.0  21.0  34144  289.31 0854.33
2009/04/23 13:08:32.5     152   -590    155    610    630 165.5  14.3  34156  289.52 0854.37
2009/04/23 13:08:32.6      66   -611    212    615    651 173.8  19.1  34156  289.52 0854.37
2009/04/23 13:08:32.7     274   -453    208    530    569 148.9  22.7  34156  289.51 0854.37
2009/04/23 13:08:32.8     273   -437     97    516    526 148.0  10.7  34152  289.45 0854.37
2009/04/23 13:08:32.9      88   -218    163    236    286 158.1  37.8  34154  289.46 0854.37
2009/04/23 13:08:33.0      89    -77    146    118    187 130.9  56.6  34158  289.55 0854.37
2009/04/23 13:08:33.1      -6   -154    248    155    292 182.2  64.7  34162  289.61 0854.37
2009/04/23 13:08:33.2     -15   -197    165    198    257 184.5  43.8  34158  289.53 0854.37
2009/04/23 13:08:33.3      52   -371    400    375    548 171.9  52.1  34154  289.47 0854.37
2009/04/23 13:08:33.4     -84   -234    211    249    326 199.8  44.7  34156  289.49 0854.37
2009/04/23 13:08:33.5     -30   -129      6    133    134 193.4   2.9  34160  289.58 0854.37
2009/04/23 13:08:33.6       2   -130    -58    131    143 179.1 -29.5  34158  289.55 0854.37
2009/04/23 13:08:33.7     206   -254    -42    328    331 140.9  -7.3  34162  289.59 0854.37
2009/04/23 13:08:33.8     139   -203     16    247    248 145.5   3.8  34158  289.53 0854.37
2009/04/23 13:08:33.9     195   -166    178    257    312 130.4  38.0  34158  289.53 0854.37
2009/04/23 13:08:34.0     284   -334    183    439    475 139.6  24.1  34156  289.49 0854.37
2009/04/23 13:08:34.1     -54   -384    180    388    427 188.1  26.9  34160  289.58 0854.37
2009/04/23 13:08:34.2     164   -516    -19    542    543 162.3  -2.1  34148  289.38 0854.37
2009/04/23 13:08:34.3     154   -427      0    455    456 160.1   0.0  34160  289.58 0854.37
2009/04/23 13:08:34.4     133   -349     21    374    375 159.1   3.2  34154  289.48 0854.39
2009/04/23 13:08:34.5     102   -307     93    324    338 161.5  16.1  34162  289.62 0854.39
2009/04/23 13:08:34.6     -52   -207     38    214    218 194.3  10.1  34156  289.50 0854.39
2009/04/23 13:08:34.7      98   -322    250    337    419 163.0  40.1  34154  289.48 0854.39
2009/04/23 13:08:34.8     106   -497    320    509    601 167.9  35.3  34152  289.42 0854.39
2009/04/23 13:08:34.9     128   -487    341    504    608 165.2  37.4  34152  289.42 0854.39
2009/04/23 13:08:35.0      45   -595     84    597    604 175.6   8.0  34150  289.39 0854.39
2009/04/23 13:08:35.1     122   -400    269    419    497 163.0  35.6  34160  289.56 0854.39
2009/04/23 13:08:35.2     194   -341    345    393    522 150.4  45.8  34150  289.40 0854.39
2009/04/23 13:08:35.3      82    149    224    171    281  29.0  59.0  34160  289.56 0854.39
2009/04/23 13:08:35.4     -49     34    230     60    237 305.1  85.4  34156  289.52 0854.39
2009/04/23 13:08:35.5      98   -314    -42    330    333 162.6  -7.3  34148  289.37 0854.39
2009/04/23 13:08:35.6     -96   -472     67    482    487 191.6   8.0  34144  289.30 0854.39
2009/04/23 13:08:35.7      19   -419    108    420    434 177.3  14.5  34154  289.48 0854.39
2009/04/23 13:08:35.8     232   -526      8    576    577 156.2   0.8  34150  289.39 0854.39
2009/04/23 13:08:35.9      40   -512     61    514    518 175.5   6.8  34146  289.35 0854.39
2009/04/23 13:08:36.0    -104   -610     35    619    620 189.7   3.3  34152  289.43 0854.39
2009/04/23 13:08:36.1     -58   -534    242    538    589 186.3  25.8  34152  289.42 0854.39
2009/04/23 13:08:36.2     -23   -281    105    283    301 184.9  21.0  34146  289.32 0854.39
2009/04/23 13:08:36.3     -19    143     53    145    154 352.4  20.4  34154  289.48 0854.39
2009/04/23 13:08:36.4     -77    218    -64    232    240 340.6 -20.2  34152  289.42 0854.41
2009/04/23 13:08:36.5    -253    273     46    373    376 317.2   7.1  34156  289.50 0854.41
2009/04/23 13:08:36.6    -101    111     14    151    152 317.7   5.4  34156  289.52 0854.41
2009/04/23 13:08:36.7    -153   -153     78    217    231 225.0  19.9  34164  289.63 0854.41
2009/04/23 13:08:36.8      29   -319    102    321    337 174.7  17.7  34154  289.47 0854.41
2009/04/23 13:08:36.9     -63   -404    100    409    422 188.9  13.8  34154  289.48 0854.41
2009/04/23 13:08:37.0    -295   -564     -2    637    638 207.7  -0.2  34156  289.52 0854.41
2009/04/23 13:08:37.1    -363   -397   -144    539    558 222.4 -15.0  34146  289.35 0854.41
2009/04/23 13:08:37.2    -256   -314    133    406    428 219.2  18.1  34146  289.34 0854.41
2009/04/23 13:08:37.3       7   -272    313    273    415 178.4  54.4  34150  289.40 0854.41
2009/04/23 13:08:37.4     147   -364    243    393    462 157.9  34.9  34150  289.39 0854.41
2009/04/23 13:08:37.5      57   -485     73    489    495 173.2   8.5  34144  289.30 0854.41
2009/04/23 13:08:37.6      97   -414     20    426    427 166.7   2.8  34146  289.33 0854.41
2009/04/23 13:08:37.7    -131    -52     53    141    150 248.3  21.5  34154  289.46 0854.41
2009/04/23 13:08:37.8     117   -149    126    190    227 141.7  36.5  34154  289.46 0854.41
2009/04/23 13:08:37.9      56   -277     -6    283    284 168.4  -1.3  34158  289.54 0854.41
2009/04/23 13:08:38.0      91   -337   -120    350    371 164.9 -18.9  34150  289.40 0854.41
2009/04/23 13:08:38.1    -166   -279   -252    325    411 210.8 -46.1  34154  289.47 0854.41
2009/04/23 13:08:38.2    -136   -104   -201    172    264 232.5 -59.8  34148  289.37 0854.41
2009/04/23 13:08:38.3     146   -215    -99    261    279 145.7 -26.1  34154  289.47 0854.41
2009/04/23 13:08:38.4     127    -50    -14    137    138 111.7  -6.2  34148  289.38 0854.41
2009/04/23 13:08:38.5      84     75     38    114    121  48.2  18.4  34158  289.53 0854.41
2009/04/23 13:08:38.6     120     32     97    125    158  75.0  41.7  34152  289.43 0854.41
2009/04/23 13:08:38.7     119    -11    186    120    221  95.7  64.6  34158  289.53 0854.41
2009/04/23 13:08:38.8      13    -13    207     19    207 136.6  90.0  34158  289.53 0854.41
2009/04/23 13:08:38.9      24   -211    245    213    324 173.3  54.7  34160  289.58 0854.41
2009/04/23 13:08:39.0     134   -263    222    296    370 152.9  40.7  34152  289.42 0854.41
2009/04/23 13:08:39.1     145   -244     39    284    287 149.3   8.0  34152  289.44 0854.41
2009/04/23 13:08:39.2     204   -373    259    426    498 151.3  34.2  34156  289.52 0854.41
2009/04/23 13:08:39.3     338   -380    308    509    594 138.3  34.0  34152  289.43 0854.41
2009/04/23 13:08:39.4     357   -392    187    531    562 137.7  20.1  34150  289.41 0854.44
2009/04/23 13:08:39.5     361   -337    254    495    556 133.0  29.2  34142  289.26 0854.44
2009/04/23 13:08:39.6     264   -343    338    433    549 142.4  41.9  34146  289.35 0854.44
2009/04/23 13:08:39.7      61   -430    381    435    578 171.9  45.8  34148  289.38 0854.44
2009/04/23 13:08:39.8       3   -493    314    494    585 179.6  35.5  34140  289.23 0854.44
2009/04/23 13:08:39.9     200   -601    452    634    778 161.5  39.1  34144  289.31 0854.44
2009/04/23 13:08:40.0     170   -484    383    514    641 160.6  40.4  34146  289.34 0854.44
2009/04/23 13:08:40.1     186   -525    419    558    697 160.5  40.7  34158  289.53 0854.44
2009/04/23 13:08:40.2     143   -479    418    500    651 163.4  44.2  34150  289.41 0854.44
2009/04/23 13:08:40.3    -135   -542    222    559    601 194.1  23.0  34138  289.19 0854.44
2009/04/23 13:08:40.4    -267   -709    315    758    820 200.7  23.9  34152  289.44 0854.44
2009/04/23 13:08:40.5    -218   -461    212    511    553 205.3  23.8  34156  289.50 0854.44
2009/04/23 13:08:40.6    -389   -292     92    487    496 233.1  10.7  34160  289.56 0854.44
2009/04/23 13:08:40.7    -175   -371    238    411    474 205.2  32.8  34148  289.36 0854.44
2009/04/23 13:08:40.8    -205   -410    223    459    510 206.6  27.8  34158  289.54 0854.44
2009/04/23 13:08:40.9     -32    113    292    118    314 344.0  76.8  34158  289.53 0854.44
2009/04/23 13:08:41.0     -50   -148     69    157    171 198.7  25.3  34154  289.48 0854.44
2009/04/23 13:08:41.1    -116   -174    -66    210    221 213.6 -17.6  34152  289.45 0854.44
2009/04/23 13:08:41.2      16    -24    -98     30    102 145.7 -86.7  34156  289.52 0854.44
2009/04/23 13:08:41.3    -119    173    -58    211    219 325.5 -15.5  34154  289.48 0854.44
2009/04/23 13:08:41.4    -125    150   -167    196    257 320.4 -49.2  34160  289.56 0854.45
2009/04/23 13:08:41.5    -215    175   -278    278    393 309.1 -54.5  34162  289.60 0854.45
2009/04/23 13:08:41.6     -56     54    -94     78    122 314.1 -60.7  34156  289.52 0854.45
2009/04/23 13:08:41.7     -40    128   -108    135    172 342.6 -47.4  34158  289.53 0854.45
2009/04/23 13:08:41.8    -233     63   -185    242    304 285.3 -46.0  34160  289.56 0854.45
2009/04/23 13:08:41.9    -246   -129   -278    278    393 242.2 -54.5  34152  289.45 0854.45
2009/04/23 13:08:42.0    -329   -155   -270    364    453 244.8 -44.5  34152  289.44 0854.45
2009/04/23 13:08:42.1    -268     25   -283    270    391 275.3 -55.8  34154  289.47 0854.45
2009/04/23 13:08:42.2    -357     54   -148    362    391 278.7 -28.0  34154  289.48 0854.45
2009/04/23 13:08:42.3    -398   -103    -22    412    413 255.4  -3.1  34156  289.49 0854.45
2009/04/23 13:08:42.4    -343    -45     36    347    349 262.4   6.1  34152  289.42 0854.45
2009/04/23 13:08:42.5    -276    -88    -10    290    291 252.2  -2.1  34154  289.47 0854.45
2009/04/23 13:08:42.6    -314     23    149    315    348 274.3  27.2  34152  289.42 0854.45
2009/04/23 13:08:42.7    -364     15    102    365    380 272.4  15.7  34158  289.55 0854.45
2009/04/23 13:08:42.8    -344    -24     62    345    351 266.0  10.3  34154  289.47 0854.45
2009/04/23 13:08:42.9    -305      0     15    306    307 270.0   2.9  34154  289.47 0854.45
2009/04/23 13:08:43.0    -347    -33    140    349    376 264.5  23.0  34148  289.38 0854.45
2009/04/23 13:08:43.1    -313     57    112    319    339 280.4  19.4  34150  289.40 0854.45
2009/04/23 13:08:43.2    -397    118    223    415    471 286.6  30.6  34154  289.48 0854.45
2009/04/23 13:08:43.3    -372    265    186    457    493 305.5  23.4  34160  289.56 0854.45
2009/04/23 13:08:43.4    -245    172    259    300    396 305.1  45.4  34162  289.60 0854.46
2009/04/23 13:08:43.5     -83    -27    171     88    192 251.6  71.1  34168  289.72 0854.46
2009/04/23 13:08:43.6    -136    -89    241    163    290 236.7  62.7  34170  289.73 0854.46
2009/04/23 13:08:43.7    -100   -144    230    176    289 215.0  58.5  34168  289.71 0854.46
2009/04/23 13:08:43.8    -192    -17    102    193    218 264.8  30.1  34162  289.60 0854.46
2009/04/23 13:08:43.9     -43     80    193     92    213 331.5  72.8  34166  289.67 0854.46
2009/04/23 13:08:44.0     -86     13    128     88    155 278.8  62.6  34168  289.72 0854.46
2009/04/23 13:08:44.1     -38    -13    177     41    181 251.4  87.3  34164  289.65 0854.46
2009/04/23 13:08:44.2    -194     14    243    195    311 274.1  57.1  34168  289.71 0854.46
2009/04/23 13:08:44.3    -122     67    178    140    226 298.8  57.7  34164  289.63 0854.46
2009/04/23 13:08:44.4     -67     20    180     70    193 286.8  77.8  34170  289.74 0854.46
2009/04/23 13:08:44.5      25   -148    251    151    292 170.3  66.4  34164  289.63 0854.46
2009/04/23 13:08:44.6     -70   -269    222    279    356 194.7  42.4  34162  289.59 0854.46
2009/04/23 13:08:44.7     -86   -266    222    280    357 198.0  42.4  34158  289.55 0854.46
2009/04/23 13:08:44.8     -70   -230    157    241    287 196.9  36.0  34162  289.61 0854.46
2009/04/23 13:08:44.9    -167   -283    203    329    386 210.7  34.9  34156  289.52 0854.46
2009/04/23 13:08:45.0     -96   -244    176    263    316 201.6  37.0  34162  289.59 0854.46
2009/04/23 13:08:45.1    -157   -174     69    235    245 221.9  16.4  34158  289.53 0854.46
2009/04/23 13:08:45.2    -174    -53     55    183    192 252.9  16.8  34162  289.60 0854.46
2009/04/23 13:08:45.3    -278    -21     20    279    280 265.6   4.2  34158  289.53 0854.46
2009/04/23 13:08:45.4    -237    -29    102    239    259 262.8  24.3  34162  289.59 0854.44
2009/04/23 13:08:45.5    -283     81    155    295    333 286.0  30.0  34164  289.63 0854.44
2009/04/23 13:08:45.6    -220     26    233    222    321 277.0  51.5  34170  289.73 0854.44
2009/04/23 13:08:45.7     -32    -98    172    104    200 198.5  66.2  34168  289.70 0854.44
2009/04/23 13:08:45.8     -48    -68    218     84    233 215.6  78.2  34172  289.77 0854.44
2009/04/23 13:08:45.9      -7    -82    216     83    231 185.3  78.2  34170  289.74 0854.44
2009/04/23 13:08:46.0    -117   -203     27    235    237 210.1   6.7  34160  289.56 0854.44
2009/04/23 13:08:46.1       0    -57     77     58     96 180.9  59.4  34156  289.52 0854.44
2009/04/23 13:08:46.2     158    -53    176    167    242 108.8  51.4  34174  289.80 0854.44
2009/04/23 13:08:46.3      36   -152    240    157    286 166.6  63.9  34176  289.83 0854.44
2009/04/23 13:08:46.4     -60   -179    181    190    262 198.7  48.7  34162  289.61 0854.44
2009/04/23 13:08:46.5     -36   -108    181    114    213 198.5  64.7  34172  289.79 0854.44
2009/04/23 13:08:46.6     -82    -87    118    120    168 223.2  50.0  34166  289.69 0854.44
2009/04/23 13:08:46.7     -81   -158     68    178    190 207.2  22.0  34160  289.58 0854.44
2009/04/23 13:08:46.8    -100   -169     17    197    198 210.7   5.2  34162  289.60 0854.44
2009/04/23 13:08:46.9     -97   -169     15    196    197 209.9   4.6  34160  289.58 0854.44
2009/04/23 13:08:47.0    -108   -210      2    237    238 207.2   0.7  34158  289.54 0854.44
2009/04/23 13:08:47.1    -124   -170     59    211    220 216.1  15.6  34158  289.53 0854.44
2009/04/23 13:08:47.2     -74   -125     28    146    149 210.7  11.0  34158  289.55 0854.44
2009/04/23 13:08:47.3     -65   -101     -6    121    122 212.6  -3.2  34158  289.55 0854.44
2009/04/23 13:08:47.4     -37    -76     30     85     91 206.3  19.4  34158  289.55 0854.45
2009/04/23 13:08:47.5     -19    -72     -9     75     76 195.2  -7.2  34160  289.58 0854.45
2009/04/23 13:08:47.6       1    -42      0     43     44 178.2  -0.3  34162  289.62 0854.45
2009/04/23 13:08:47.7       4    -30    -35     31     46 172.0 -57.7  34162  289.62 0854.45
2009/04/23 13:08:47.8      -2    -79    -32     80     86 181.8 -26.9  34162  289.62 0854.45
2009/04/23 13:08:47.9      50    -30     -2     59     60 121.5  -2.2  34160  289.58 0854.45
2009/04/23 13:08:48.0     125    -79     52    149    157 122.4  20.0  34162  289.60 0854.45
2009/04/23 13:08:48.1      54    -87     52    103    115 147.9  28.2  34162  289.60 0854.45
2009/04/23 13:08:48.2       6    -76     48     77     90 175.5  35.5  34166  289.67 0854.45
2009/04/23 13:08:48.3     -17    -64     35     67     75 195.2  30.3  34166  289.67 0854.45
2009/04/23 13:08:48.4      -5    -66     47     67     81 184.5  38.6  34164  289.65 0854.45
2009/04/23 13:08:48.5      -8    -94     58     95    111 184.9  35.0  34166  289.67 0854.45
2009/04/23 13:08:48.6      -5    -75     81     76    111 184.5  52.1  34168  289.70 0854.45
2009/04/23 13:08:48.7     -24    -91     68     95    116 194.7  39.1  34168  289.72 0854.45
2009/04/23 13:08:48.8     -14   -119     23    120    123 187.1  11.0  34166  289.69 0854.45
2009/04/23 13:08:48.9    -106   -166     96    198    220 212.5  27.4  34166  289.69 0854.45
2009/04/23 13:08:49.0     -39   -188     58    193    202 191.8  16.8  34170  289.74 0854.45
2009/04/23 13:08:49.1     -39   -146    -32    152    156 195.1 -11.9  34168  289.70 0854.45
2009/04/23 13:08:49.2      51    -90    -15    104    106 150.1  -8.2  34162  289.60 0854.45
2009/04/23 13:08:49.3    -110   -175    189    207    280 212.1  47.1  34166  289.68 0854.45
2009/04/23 13:08:49.4     -94   -199    189    221    290 205.4  44.9  34168  289.70 0854.46
2009/04/23 13:08:49.5     -61   -300    200    307    366 191.5  36.0  34166  289.69 0854.46
2009/04/23 13:08:49.6    -100   -296      3    313    314 198.7   0.7  34166  289.66 0854.46
2009/04/23 13:08:49.7     -63   -257     61    265    273 193.8  13.1  34166  289.66 0854.46
2009/04/23 13:08:49.8     -33   -268      5    271    272 187.1   1.2  34168  289.71 0854.46
2009/04/23 13:08:49.9     -63   -191     39    202    206 198.5  11.1  34166  289.69 0854.46
2009/04/23 13:08:50.0     -43   -214     66    219    229 191.6  16.8  34166  289.69 0854.46
2009/04/23 13:08:50.1     -43   -192     59    197    206 192.9  16.8  34168  289.70 0854.46
2009/04/23 13:08:50.2    -101   -172     61    200    210 210.5  17.1  34168  289.72 0854.46
2009/04/23 13:08:50.3    -103   -189     60    216    225 208.5  15.6  34168  289.72 0854.46
2009/04/23 13:08:50.4     -25   -218     53    220    227 186.7  13.7  34166  289.69 0854.46
2009/04/23 13:08:50.5     -62   -233    100    242    261 195.1  23.6  34168  289.71 0854.46
2009/04/23 13:08:50.6    -115   -217     55    246    253 207.9  12.6  34166  289.68 0854.46
2009/04/23 13:08:50.7    -109   -170     38    203    207 212.6  10.8  34166  289.69 0854.46
2009/04/23 13:08:50.8    -154   -197     81    251    264 218.1  17.9  34168  289.71 0854.46
2009/04/23 13:08:50.9    -107   -381    155    396    425 195.8  22.5  34178  289.87 0854.46
2009/04/23 13:08:51.0    -142   -371     26    398    399 200.9   3.8  34178  289.86 0854.46
2009/04/23 13:08:51.1    -151   -230    123    276    302 213.2  25.3  34174  289.81 0854.46
2009/04/23 13:08:51.2    -120   -199    123    233    263 211.0  30.2  34178  289.86 0854.46
2009/04/23 13:08:51.3    -105   -275    103    295    313 201.0  19.3  34174  289.81 0854.46
2009/04/23 13:08:51.4    -135   -310     66    339    346 203.5  11.1  34174  289.81 0854.48
2009/04/23 13:08:51.5    -114   -395     35    412    414 196.1   5.0  34172  289.78 0854.48
2009/04/23 13:08:51.6     -91   -348     52    360    364 194.7   8.3  34178  289.89 0854.48
2009/04/23 13:08:51.7    -158   -289    291    330    439 208.8  45.8  34180  289.90 0854.48
2009/04/23 13:08:51.8    -184   -347     31    394    396 208.0   4.6  34172  289.76 0854.48
2009/04/23 13:08:51.9    -272   -331    111    429    444 219.5  14.5  34176  289.83 0854.48
2009/04/23 13:08:52.0    -190   -222    220    293    366 220.5  40.7  34174  289.81 0854.48
2009/04/23 13:08:52.1    -120   -207    149    240    282 210.1  35.0  34176  289.83 0854.48
2009/04/23 13:08:52.2     -31   -291     92    293    308 186.3  17.4  34172  289.78 0854.48
2009/04/23 13:08:52.3     -41   -262     42    266    270 188.9   9.0  34174  289.81 0854.48
2009/04/23 13:08:52.4      14   -140     76    141    160 174.2  30.6  34174  289.82 0854.48
2009/04/23 13:08:52.5     -27   -146    183    149    235 190.7  56.6  34180  289.91 0854.48
2009/04/23 13:08:52.6     -21   -231    179    233    293 185.3  41.6  34176  289.83 0854.48
2009/04/23 13:08:52.7      54   -130    173    141    223 157.3  56.4  34174  289.80 0854.48
2009/04/23 13:08:52.8      86   -185    248    204    321 155.1  56.4  34170  289.75 0854.48
2009/04/23 13:08:52.9      67   -234    189    244    308 164.0  41.7  34174  289.80 0854.48
2009/04/23 13:08:53.0      34   -156    184    160    243 167.5  54.8  34176  289.85 0854.48
2009/04/23 13:08:53.1      87   -119    112    148    185 143.9  41.2  34172  289.79 0854.48
2009/04/23 13:08:53.2      89      6     65     90    111  85.6  39.7  34172  289.79 0854.48
2009/04/23 13:08:53.3      86    -64     63    108    125 126.9  33.4  34172  289.79 0854.48
2009/04/23 13:08:53.4     -72   -117    -41    138    143 211.6 -21.7  34170  289.75 0854.49
2009/04/23 13:08:53.5    -113   -119    -46    165    171 223.4 -20.2  34174  289.80 0854.49
2009/04/23 13:08:53.6     -80    -85     -2    117    118 223.3  -1.3  34168  289.72 0854.49
2009/04/23 13:08:53.7     -67    -58     43     89     98 229.1  27.8  34176  289.85 0854.49
2009/04/23 13:08:53.8     -61     -6     50     62     79 263.9  43.3  34178  289.87 0854.49
2009/04/23 13:08:53.9     -46    -16     33     49     59 250.0  37.6  34180  289.92 0854.49
2009/04/23 13:08:54.0     -48      0     49     49     69 270.8  50.1  34178  289.89 0854.49
2009/04/23 13:08:54.1     -70     34     53     79     95 296.2  36.5  34178  289.87 0854.49
2009/04/23 13:08:54.2       0   -125     85    126    151 180.4  37.4  34174  289.80 0854.49
2009/04/23 13:08:54.3     -54   -171     63    180    191 197.6  19.4  34168  289.72 0854.49
2009/04/23 13:08:54.4     -40   -162     47    167    174 194.0  15.8  34168  289.72 0854.49
2009/04/23 13:08:54.5     -54   -181     17    189    190 196.7   5.4  34168  289.72 0854.49
2009/04/23 13:08:54.6    -104   -151    -36    184    188 214.5 -11.1  34168  289.72 0854.49
2009/04/23 13:08:54.8    -121    -86    -40    149    155 234.5 -15.0  34170  289.75 0854.49
2009/04/23 13:08:54.9    -115    -44    -37    124    130 249.2 -17.0  34170  289.75 0854.49
2009/04/23 13:08:54.9    -110     -8     -6    111    112 265.6  -3.2  34170  289.75 0854.49
2009/04/23 13:08:55.1    -113     18     68    115    133 279.2  33.5  34174  289.80 0854.49
2009/04/23 13:08:55.1    -107     40    113    115    161 290.4  49.8  34178  289.89 0854.49
2009/04/23 13:08:55.3     -47     40     75     63     97 310.4  55.8  34182  289.94 0854.49
2009/04/23 13:08:55.4    -104     20     21    106    109 281.0  11.6  34180  289.91 0854.49
2009/04/23 13:08:55.5     -76     10     34     77     84 277.9  24.6  34180  289.91 0854.49
2009/04/23 13:08:55.5     -53    -34     -9     64     65 237.5  -8.2  34180  289.91 0854.49
2009/04/23 13:08:55.7     -68    -41      9     80     81 238.5   6.5  34176  289.84 0854.49
2009/04/23 13:08:55.8     -89    -98     80    133    155 222.3  34.4  34180  289.91 0854.49
2009/04/23 13:08:55.9     -66   -126    -12    143    144 207.6  -5.1  34176  289.85 0854.49
2009/04/23 13:08:56.0       6    -17     20     19     27 161.3  48.2  34176  289.84 0854.49
2009/04/23 13:08:56.1      65    -41     51     78     93 122.4  36.0  34178  289.87 0854.49
2009/04/23 13:08:56.2     114    -38    123    121    172 108.6  50.1  34176  289.85 0854.49
2009/04/23 13:08:56.3      24     -8    120     26    122 108.2  88.0  34182  289.96 0854.49
2009/04/23 13:08:56.4      13    -17     51     22     55 142.2  75.0  34180  289.92 0854.49
2009/04/23 13:08:56.5      49    -15     69     52     86 107.7  59.4  34176  289.85 0854.49
2009/04/23 13:08:56.6      -5    -15     49     16     51 198.7  80.7  34182  289.94 0854.49
2009/04/23 13:08:56.7      24     12     45     28     53  62.9  64.7  34182  289.96 0854.49
2009/04/23 13:08:56.8      71     -3     55     72     90  92.6  41.7  34182  289.96 0854.49
2009/04/23 13:08:56.9     121     17     69    123    141  82.0  31.4  34172  289.79 0854.49
2009/04/23 13:08:57.0     167      0     34    168    172  90.0  11.6  34176  289.84 0854.49
2009/04/23 13:08:57.1     116    -32     19    121    123 105.5   9.0  34176  289.84 0854.49
2009/04/23 13:08:57.2     183     21     54    185    193  83.4  16.3  34174  289.80 0854.49
2009/04/23 13:08:57.3     204      0     77    205    218  90.0  21.5  34172  289.77 0854.49
2009/04/23 13:08:57.4     181   -141     15    230    231 128.0   3.8  34170  289.75 0854.49
2009/04/23 13:08:57.5     190   -111     89    221    238 120.4  23.0  34170  289.74 0854.48
2009/04/23 13:08:57.6     185   -144    139    235    273 128.0  33.5  34166  289.68 0854.48
2009/04/23 13:08:57.7     232    -78    124    245    274 108.6  29.1  34172  289.78 0854.48
2009/04/23 13:08:57.8     220    -42    102    224    246 100.8  26.2  34170  289.75 0854.48
2009/04/23 13:08:57.9     180    -72    128    194    232 111.8  36.3  34170  289.74 0854.48
2009/04/23 13:08:58.0     183    -94     90    206    224 117.3  25.2  34168  289.72 0854.48
2009/04/23 13:08:58.1     185    -58     53    195    203 107.5  15.3  34172  289.79 0854.48
2009/04/23 13:08:58.2     234   -137     69    272    281 120.4  14.3  34170  289.75 0854.48
2009/04/23 13:08:58.3     197   -101     57    222    230 117.1  14.5  34166  289.69 0854.48
2009/04/23 13:08:58.4     127    -91     14    157    158 125.9   5.2  34170  289.74 0854.48
2009/04/23 13:08:58.5     102   -102    -18    145    147 134.9  -7.2  34172  289.77 0854.50
2009/04/23 13:08:58.6      83   -111    -12    139    140 143.0  -5.2  34170  289.75 0854.50
2009/04/23 13:08:58.7       7    -85     20     86     89 174.7  13.2  34170  289.75 0854.50
2009/04/23 13:08:58.8       0   -101    -16    102    104 180.0  -9.3  34170  289.75 0854.50
2009/04/23 13:08:58.9       5    -76    -11     77     78 175.6  -8.2  34170  289.75 0854.50
2009/04/23 13:08:59.0    -103    -56     76    118    140 241.6  35.6  34174  289.80 0854.50
2009/04/23 13:08:59.1     -55    -55     71     79    106 225.0  47.5  34174  289.82 0854.50
2009/04/23 13:08:59.2     -11     25     94     28     98 336.4  83.3  34176  289.84 0854.50
2009/04/23 13:08:59.3      -2     37     74     38     83 355.5  70.8  34178  289.89 0854.50
2009/04/23 13:08:59.4      -1     18     65     19     67 355.5  82.8  34176  289.84 0854.50
2009/04/23 13:08:59.5    -117     -9     57    118    131 265.6  27.3  34184  289.99 0854.50
2009/04/23 13:08:59.6     -95    -10     15     96     98 263.9   9.0  34186  290.01 0854.50
2009/04/23 13:08:59.7     -96     -2     22     97    100 268.7  13.2  34182  289.96 0854.50
2009/04/23 13:08:59.8    -148    -26     32    151    155 259.9  12.2  34190  290.08 0854.50
2009/04/23 13:08:59.9    -185    -53     50    193    200 253.8  14.5  34184  289.97 0854.50
2009/04/23 13:09:00.0     -51    -12     51     53     73 255.8  50.0  34182  289.94 0854.50
2009/04/23 13:09:00.1    -138    -78    103    159    189 240.2  35.7  34182  289.96 0854.50
2009/04/23 13:09:00.2    -124    -43     69    132    148 250.9  29.3  34184  289.97 0854.50
2009/04/23 13:09:00.3     -78    -32    100     85    131 247.4  55.8  34184  289.99 0854.50
2009/04/23 13:09:00.4     -35    -74    108     82    135 205.4  58.5  34182  289.96 0854.50
2009/04/23 13:09:00.5     -68    -32    104     76    128 244.8  60.5  34184  289.97 0854.52
2009/04/23 13:09:00.6    -232    -43     72    236    247 259.4  17.1  34200  290.26 0854.52
2009/04/23 13:09:00.7    -142    -90     42    169    175 237.5  13.9  34196  290.18 0854.52
2009/04/23 13:09:00.8    -131   -110     72    172    186 229.8  24.1  34186  290.02 0854.52
2009/04/23 13:09:00.9    -175   -116     41    211    216 236.5  11.1  34182  289.96 0854.52
2009/04/23 13:09:01.0    -147   -130     62    197    207 228.4  17.7  34184  289.99 0854.52
2009/04/23 13:09:01.1    -147   -104     44    181    187 234.7  13.9  34184  289.99 0854.52
2009/04/23 13:09:01.2     -84    -84     51    120    130 225.0  24.6  34184  289.97 0854.52
2009/04/23 13:09:01.3     -82    -81     77    116    139 225.4  36.5  34178  289.89 0854.52
2009/04/23 13:09:01.4    -117    -94     59    151    162 231.4  22.3  34178  289.87 0854.52
2009/04/23 13:09:01.5     -50    -60     87     79    117 219.6  52.7  34182  289.96 0854.52
2009/04/23 13:09:01.6     -79   -121    147    145    206 213.4  50.2  34178  289.89 0854.52
2009/04/23 13:09:01.7     -38    -91    130     99    163 202.7  59.2  34178  289.87 0854.52
2009/04/23 13:09:01.8     -76   -119    132    142    193 212.5  48.0  34174  289.82 0854.52
2009/04/23 13:09:01.9     -50   -189    156    196    250 195.1  42.7  34176  289.83 0854.52
2009/04/23 13:09:02.0     -69   -148    121    164    203 204.9  39.9  34176  289.84 0854.52
2009/04/23 13:09:02.1     -67   -113    106    132    169 210.8  43.3  34176  289.84 0854.52
2009/04/23 13:09:02.2     -44   -149    142    156    210 196.5  47.1  34172  289.79 0854.52
2009/04/23 13:09:02.3     -18    -88    152     90    176 191.6  67.0  34176  289.85 0854.52
2009/04/23 13:09:02.4     -19   -183    144    185    234 186.0  41.7  34172  289.79 0854.47
2009/04/23 13:09:02.5      25   -188    158    190    247 172.2  43.8  34172  289.77 0854.47
2009/04/23 13:09:02.6     -37   -144    145    149    207 194.7  49.4  34174  289.80 0854.47
2009/04/23 13:09:02.7     -27   -194    123    196    231 188.0  35.5  34174  289.80 0854.47
2009/04/23 13:09:02.8      20   -165    102    167    195 172.9  34.2  34174  289.80 0854.47
2009/04/23 13:09:02.9      38   -254    136    257    290 171.3  30.1  34168  289.71 0854.47
2009/04/23 13:09:03.0      33   -239    153    242    286 172.0  35.5  34172  289.76 0854.47
2009/04/23 13:09:03.1      19   -242    153    243    287 175.3  35.5  34174  289.80 0854.47
2009/04/23 13:09:03.2       0   -245    101    246    265 180.1  23.6  34172  289.76 0854.47
2009/04/23 13:09:03.3      24   -283    106    285    304 175.1  21.0  34170  289.73 0854.47
2009/04/23 13:09:03.4      37   -264    140    267    301 171.9  30.1  34168  289.71 0854.47
2009/04/23 13:09:03.5     -14   -271    114    272    294 183.1  24.1  34168  289.70 0854.47
2009/04/23 13:09:03.6     154   -347     -2    380    381 156.1  -0.4  34168  289.72 0854.47
2009/04/23 13:09:03.7      68   -287     25    296    298 166.6   5.0  34168  289.71 0854.47
2009/04/23 13:09:03.8     100   -275     27    293    295 159.9   5.4  34178  289.86 0854.47
2009/04/23 13:09:03.9      51   -252     79    258    270 168.4  17.1  34176  289.83 0854.47
2009/04/23 13:09:04.0      56   -237    102    244    264 166.6  24.1  34174  289.81 0854.47
2009/04/23 13:09:04.1     -38   -205    136    209    249 190.5  36.0  34172  289.78 0854.47
2009/04/23 13:09:04.2      73   -223    129    235    268 161.7  31.3  34174  289.81 0854.47
2009/04/23 13:09:04.3     103   -255    175    276    326 157.9  35.5  34178  289.86 0854.47
2009/04/23 13:09:04.4      37   -279    100    282    299 172.4  20.2  34176  289.83 0854.47
2009/04/23 13:09:04.5      84   -245    153    260    301 160.9  33.4  34182  289.93 0854.47
2009/04/23 13:09:04.6      89   -207    160    226    276 156.6  38.8  34180  289.90 0854.47
2009/04/23 13:09:04.7      17   -224    159    225    275 175.6  38.6  34182  289.93 0854.47
2009/04/23 13:09:04.8       6   -142    154    143    210 177.3  52.2  34182  289.94 0854.47
2009/04/23 13:09:04.9     -26   -151    138    154    206 189.8  46.4  34180  289.92 0854.47
2009/04/23 13:09:05.0      26   -184    101    186    211 171.8  30.8  34178  289.87 0854.47
2009/04/23 13:09:05.1      -5   -132     52    133    142 182.2  22.5  34176  289.84 0854.47
2009/04/23 13:09:05.2     -72   -130     30    149    153 209.0  11.4  34178  289.89 0854.47
2009/04/23 13:09:05.3    -139   -134     22    194    196 226.0   6.7  34180  289.91 0854.47
2009/04/23 13:09:05.4    -178   -127     14    219    220 234.5   3.8  34182  289.96 0854.47
2009/04/23 13:09:05.5    -191   -105    -28    219    221 241.1  -7.3  34186  290.01 0854.47
2009/04/23 13:09:05.6    -163   -106     25    195    197 236.9   7.5  34180  289.92 0854.47
2009/04/23 13:09:05.7    -137   -208    -18    250    251 213.4  -4.1  34182  289.93 0854.47
2009/04/23 13:09:05.8    -199   -200    -52    283    288 224.8 -10.5  34188  290.03 0854.47
2009/04/23 13:09:05.9    -254   -111    -35    278    281 246.3  -7.3  34180  289.92 0854.47
2009/04/23 13:09:06.0    -292   -106    -42    311    314 250.0  -7.7  34184  289.97 0854.47
2009/04/23 13:09:06.1    -299    -51    -88    304    316 260.3 -21.0  34180  289.90 0854.47
2009/04/23 13:09:06.2    -256    -57    -83    263    276 257.4 -17.6  34180  289.92 0854.47
2009/04/23 13:09:06.3    -231    -28   -101    233    253 263.0 -29.5  34180  289.90 0854.47
2009/04/23 13:09:06.4    -235    -67     27    245    247 254.1   6.5  34178  289.88 0854.46
2009/04/23 13:09:06.5    -270    -68     81    279    291 255.8  16.3  34186  290.00 0854.46
2009/04/23 13:09:06.6    -203    -49     65    209    219 256.3  17.3  34182  289.94 0854.46
2009/04/23 13:09:06.7    -176     -7     98    177    202 267.6  31.4  34184  289.97 0854.46
2009/04/23 13:09:06.8    -127    -21     62    129    143 260.4  27.2  34184  289.99 0854.46
2009/04/23 13:09:06.9      39    -40     94     56    109 135.8  66.2  34192  290.13 0854.46
2009/04/23 13:09:07.0      33    -79     42     86     95 157.3  27.8  34188  290.06 0854.46
2009/04/23 13:09:07.1      23    -49     41     55     68 154.5  41.7  34184  289.99 0854.46
2009/04/23 13:09:07.2      16    -16     45     23     50 135.0  70.8  34188  290.04 0854.46
2009/04/23 13:09:07.3       8    -22     75     24     78 160.0  80.7  34190  290.09 0854.46
2009/04/23 13:09:07.4       9    -93    106     94    141 174.2  53.7  34182  289.96 0854.46
2009/04/23 13:09:07.5     -21    -81    106     84    135 195.1  57.5  34184  289.99 0854.46
2009/04/23 13:09:07.6      55    -58    158     81    177 136.6  71.1  34186  290.02 0854.46
2009/04/23 13:09:07.7     -31   -155    173    159    234 191.5  52.7  34184  289.97 0854.46
2009/04/23 13:09:07.8     -60   -181    112    191    221 198.5  33.4  34184  289.97 0854.46
2009/04/23 13:09:07.9     -80   -206     89    222    239 201.2  23.0  34184  289.98 0854.46
2009/04/23 13:09:08.0    -194   -200    110    279    299 224.1  22.8  34180  289.90 0854.46
2009/04/23 13:09:08.1    -422   -177    -35    458    460 247.2  -4.5  34146  289.33 0854.46
2009/04/23 13:09:08.2    -436   -169    -48    468    471 248.7  -6.0  34148  289.37 0854.46
2009/04/23 13:09:08.3    -451   -159    -74    479    485 250.5  -8.9  34142  289.27 0854.46
2009/04/23 13:09:08.4    -467   -136   -135    487    506 253.7 -15.5  34152  289.44 0854.44
2009/04/23 13:09:08.5    -429    -85   -102    438    450 258.8 -13.2  34152  289.44 0854.44
2009/04/23 13:09:08.6    -424   -124   -132    442    462 253.7 -16.6  34166  289.66 0854.44
2009/04/23 13:09:08.7    -420   -196   -160    464    492 245.0 -19.1  34164  289.64 0854.44
2009/04/23 13:09:08.8    -456   -214   -141    504    524 244.8 -15.7  34160  289.57 0854.44
2009/04/23 13:09:08.9    -455   -176   -140    489    509 248.8 -16.1  34162  289.59 0854.44
2009/04/23 13:09:09.0    -436   -182   -139    473    494 247.3 -16.4  34152  289.45 0854.44
2009/04/23 13:09:09.1    -426   -225    -68    482    487 242.1  -8.1  34152  289.44 0854.44
2009/04/23 13:09:09.2    -376   -139    -60    401    406 249.7  -8.6  34158  289.55 0854.44
2009/04/23 13:09:09.3    -414    -75   -113    421    436 259.7 -15.1  34164  289.63 0854.44
2009/04/23 13:09:09.4    -407    -82    -27    416    417 258.5  -3.7  34172  289.77 0854.44
2009/04/23 13:09:09.5    -404    -62    -22    409    410 261.2  -3.1  34170  289.73 0854.44
2009/04/23 13:09:09.6    -306   -145     17    339    340 244.6   2.9  34176  289.84 0854.44
2009/04/23 13:09:09.7    -218   -106    -90    243    259 244.0 -25.4  34172  289.76 0854.44
2009/04/23 13:09:09.8    -210    -18     -4    211    212 265.0  -1.1  34172  289.77 0854.44
2009/04/23 13:09:09.9    -237     -3     53    238    244 269.1  12.6  34180  289.92 0854.44
2009/04/23 13:09:10.0    -362     16    -46    363    366 272.6  -7.3  34186  290.01 0854.44
2009/04/23 13:09:10.1    -360     -5     10    361    362 269.1   1.7  34182  289.94 0854.44
2009/04/23 13:09:10.2    -376    -23    -34    377    379 266.4  -5.2  34182  289.93 0854.44
2009/04/23 13:09:10.3    -326     14    -65    327    334 272.6 -11.3  34172  289.77 0854.44
2009/04/23 13:09:10.4    -368    -28   -112    370    387 265.5 -16.9  34188  290.04 0854.43
2009/04/23 13:09:10.5    -343   -113    -33    362    364 251.7  -5.4  34188  290.06 0854.43
2009/04/23 13:09:10.6    -219    -25    -26    221    223 263.4  -6.7  34190  290.09 0854.43
2009/04/23 13:09:10.7    -148     31    -43    152    157 281.9 -20.4  34192  290.13 0854.43
2009/04/23 13:09:10.8    -262     65    -84    271    283 284.1 -22.3  34178  289.86 0854.43
2009/04/23 13:09:10.9    -232     49    -91    238    254 281.9 -26.4  34158  289.54 0854.43
2009/04/23 13:09:11.0    -214    100    -76    237    250 295.1 -17.9  34160  289.58 0854.43
2009/04/23 13:09:11.1    -257    217    -99    337    352 310.2 -16.4  34166  289.67 0854.43
2009/04/23 13:09:11.2    -301    206   -101    365    378 304.4 -20.1  34166  289.67 0854.43
2009/04/23 13:09:11.3    -276    175    -99    328    343 302.4 -16.9  34164  289.65 0854.43
2009/04/23 13:09:11.4    -327    176    -77    372    381 298.3 -11.8  34166  289.69 0854.43
2009/04/23 13:09:11.5    -289     97   -110    306    326 288.6 -19.8  34150  289.41 0854.43
2009/04/23 13:09:11.6    -273    113   -102    296    314 292.6 -19.0  34144  289.31 0854.43
2009/04/23 13:09:11.7    -270    122   -101    297    314 294.4 -18.8  34140  289.22 0854.43
2009/04/23 13:09:11.8    -244    127    -96    276    292 297.5 -24.0  34140  289.22 0854.43
2009/04/23 13:09:11.9    -227    127    -91    261    276 299.3 -24.4  34140  289.24 0854.43
2009/04/23 13:09:12.0    -209    130    -82    247    260 302.0 -23.8  34152  289.42 0854.43
2009/04/23 13:09:12.1    -214    149   -106    261    281 304.9 -27.5  34150  289.41 0854.43
2009/04/23 13:09:12.2    -251    155   -127    296    322 301.8 -29.0  34156  289.51 0854.43
2009/04/23 13:09:12.3    -304    205   -159    367    399 304.0 -29.4  34152  289.42 0854.43
2009/04/23 13:09:12.4    -295    257   -140    392    416 311.0 -24.8  34168  289.72 0854.41
2009/04/23 13:09:12.5    -296    255   -120    391    409 310.8 -21.9  34154  289.48 0854.41
2009/04/23 13:09:12.6    -265    240   -126    358    379 312.2 -24.5  34142  289.25 0854.41
2009/04/23 13:09:12.7    -251    251   -111    356    372 315.0 -22.2  34142  289.25 0854.41
2009/04/23 13:09:12.8    -255    242   -105    352    367 313.5 -21.6  34142  289.25 0854.41
2009/04/23 13:09:12.9    -247    235   -123    341    362 313.6 -25.2  34142  289.28 0854.41
2009/04/23 13:09:13.0    -255    234   -152    347    378 312.6 -29.5  34142  289.26 0854.41
2009/04/23 13:09:13.1    -246    334   -139    415    437 323.6 -23.3  34164  289.63 0854.41
2009/04/23 13:09:13.2    -251    313   -184    402    442 321.3 -30.8  34142  289.26 0854.41
2009/04/23 13:09:13.3    -221    254   -199    337    391 319.0 -37.8  34138  289.20 0854.41
2009/04/23 13:09:13.4    -179    309   -181    358    401 329.9 -33.3  34142  289.28 0854.41
2009/04/23 13:09:13.5    -151    306   -235    342    414 333.8 -42.2  34146  289.32 0854.41
2009/04/23 13:09:13.6    -227    149   -183    272    327 303.3 -41.6  34176  289.85 0854.41
2009/04/23 13:09:13.7    -272    294    -58    401    406 317.2  -8.2  34172  289.78 0854.41
2009/04/23 13:09:13.8    -325    208     11    387    388 302.6   1.7  34172  289.76 0854.41
2009/04/23 13:09:13.9    -323    278     -1    427    428 310.7  -0.2  34170  289.73 0854.41
2009/04/23 13:09:14.0    -274    320   -116    422    438 319.5 -15.4  34158  289.53 0854.41
2009/04/23 13:09:14.1    -398    314   -134    508    526 308.3 -14.8  34158  289.55 0854.41
2009/04/23 13:09:14.2    -381    294   -177    482    513 307.7 -25.4  34156  289.52 0854.41
2009/04/23 13:09:14.3    -348    217   -170    411    444 302.0 -28.2  34162  289.61 0854.41
2009/04/23 13:09:14.4    -364    291   -174    467    498 308.6 -25.9  34158  289.54 0854.42
2009/04/23 13:09:14.5    -483    281   -163    559    582 300.2 -21.1  34162  289.61 0854.42
2009/04/23 13:09:14.6    -466    295   -171    552    577 302.4 -22.2  34164  289.63 0854.42
2009/04/23 13:09:14.7    -463    279    -94    541    550 301.1  -9.9  34160  289.57 0854.42
2009/04/23 13:09:14.8    -425    303    -54    523    526 305.5  -5.9  34162  289.62 0854.42
2009/04/23 13:09:14.9    -380    212   -143    436    458 299.2 -23.6  34158  289.55 0854.42
2009/04/23 13:09:15.0    -390    264   -148    472    494 304.1 -22.4  34162  289.62 0854.42
2009/04/23 13:09:15.1    -318    251    -65    406    412 308.3  -9.1  34166  289.68 0854.42
2009/04/23 13:09:15.2    -297    182     54    349    354 301.5   8.9  34180  289.91 0854.42
2009/04/23 13:09:15.3    -231    179     57    293    299 307.7  11.1  34180  289.92 0854.42
2009/04/23 13:09:15.4    -167    200    -14    261    262 320.1  -3.1  34186  290.02 0854.42
2009/04/23 13:09:15.5      -3    287    -30    288    290 359.3  -6.1  34186  290.00 0854.42
2009/04/23 13:09:15.6     -26    242    -31    244    246 353.7  -7.3  34198  290.20 0854.42
2009/04/23 13:09:15.7     -15    201    -29    202    205 355.6  -8.2  34196  290.18 0854.42
2009/04/23 13:09:15.8     -44    221    -41    226    230 348.7 -10.5  34192  290.13 0854.42
2009/04/23 13:09:15.9      35    286     -9    289    290   7.1  -1.8  34190  290.07 0854.42
2009/04/23 13:09:16.0     -75    236      6    248    249 342.2   1.6  34188  290.03 0854.42
2009/04/23 13:09:16.1    -170    280     84    328    339 328.7  14.5  34184  289.99 0854.42
2009/04/23 13:09:16.2     -90    255     54    271    277 340.4  11.4  34180  289.92 0854.42
2009/04/23 13:09:16.3     -64    269    140    277    310 346.6  28.7  34184  289.98 0854.42
2009/04/23 13:09:16.4    -222    208    113    305    325 313.2  21.3  34184  289.98 0854.44
2009/04/23 13:09:16.5    -247    113     38    272    275 294.6   8.0  34188  290.03 0854.44
2009/04/23 13:09:16.6    -220    132      5    257    258 300.9   1.2  34184  289.97 0854.44
2009/04/23 13:09:16.7    -291    163    -14    334    335 299.3  -2.5  34162  289.62 0854.44
2009/04/23 13:09:16.8    -321    125    -54    345    350 291.3  -8.9  34162  289.60 0854.44
2009/04/23 13:09:16.9    -305    111    -51    325    330 290.1  -8.9  34160  289.58 0854.44
2009/04/23 13:09:17.0    -285    121    -52    310    315 293.1  -9.6  34154  289.47 0854.44
2009/04/23 13:09:17.1    -280    120    -44    305    309 293.3  -8.3  34156  289.51 0854.44
2009/04/23 13:09:17.2    -274     97    -59    291    297 289.5 -11.5  34158  289.53 0854.44
2009/04/23 13:09:17.3    -248     79    -82    261    274 287.8 -17.6  34158  289.54 0854.44
2009/04/23 13:09:17.4    -185     47    -77    192    206 284.4 -27.4  34162  289.60 0854.44
2009/04/23 13:09:17.5    -135     31   -102    139    172 283.2 -44.5  34162  289.62 0854.44
2009/04/23 13:09:17.6     -79     45    -55     92    107 299.8 -38.4  34166  289.67 0854.44
2009/04/23 13:09:17.7     -24     24     -9     34     36 315.0 -15.5  34168  289.70 0854.44
2009/04/23 13:09:17.8     -47     47     17     67     70 314.9  14.3  34172  289.79 0854.44
2009/04/23 13:09:17.9     -20     32     -2     38     39 327.5  -3.1  34168  289.70 0854.44
2009/04/23 13:09:18.0      16     59    -50     62     79  15.2 -47.7  34172  289.79 0854.44
2009/04/23 13:09:18.1     -16    113    -57    115    128 351.5 -32.6  34174  289.82 0854.44
2009/04/23 13:09:18.2     -37    168    -40    173    178 347.3 -13.2  34180  289.92 0854.44
2009/04/23 13:09:18.3     -58    148    -31    160    164 338.6 -11.1  34200  290.26 0854.44
2009/04/23 13:09:18.4     -85    149     12    172    173 330.4   4.2  34186  290.02 0854.45
2009/04/23 13:09:18.5     -89    143    -21    169    171 328.1  -7.3  34194  290.16 0854.45
2009/04/23 13:09:18.6    -140    132     14    193    194 313.3   4.2  34194  290.16 0854.45
2009/04/23 13:09:18.7    -175    109     57    207    215 302.0  15.6  34190  290.09 0854.45
2009/04/23 13:09:18.8    -176     81    -32    194    197 294.8  -9.6  34200  290.26 0854.45
2009/04/23 13:09:18.9    -192     36    -25    196    198 280.6  -7.3  34194  290.16 0854.45
2009/04/23 13:09:19.0    -180     25    -50    182    189 277.9 -15.5  34194  290.14 0854.45
2009/04/23 13:09:19.1    -204     21    -57    206    214 276.1 -15.5  34194  290.14 0854.45
2009/04/23 13:09:19.2    -247    -40    -83    251    264 260.8 -23.8  34200  290.26 0854.45
2009/04/23 13:09:19.3    -206   -130    -88    244    259 237.8 -25.1  34192  290.10 0854.45
2009/04/23 13:09:19.4    -212   -178    -91    277    291 230.0 -23.8  34202  290.29 0854.41
2009/04/23 13:09:19.5    -200   -116    -65    232    240 240.0 -20.4  34196  290.17 0854.41
2009/04/23 13:09:19.6    -128   -127    -46    181    187 225.3 -14.3  34202  290.30 0854.41
2009/04/23 13:09:19.7    -152   -152    -27    216    218 225.1  -7.3  34196  290.18 0854.41
2009/04/23 13:09:19.8    -148   -130     -7    197    198 228.7  -2.1  34192  290.13 0854.41
2009/04/23 13:09:19.9    -150   -131    -14    200    201 228.7  -4.1  34196  290.19 0854.41
2009/04/23 13:09:20.0    -103   -147    -11    180    181 215.2  -3.7  34198  290.23 0854.41
2009/04/23 13:09:20.1     -76   -146     17    165    166 207.6   6.1  34190  290.08 0854.41
2009/04/23 13:09:20.2     -80    -86     52    118    128 222.8  25.2  34186  290.02 0854.41
2009/04/23 13:09:20.3     -82    -69     50    108    119 230.0  27.1  34188  290.04 0854.41
2009/04/23 13:09:20.4     -98    -33     19    104    106 251.4  10.6  34186  290.02 0854.41
2009/04/23 13:09:20.5     -88    -24     -2     92     93 254.9  -1.3  34186  290.02 0854.41
2009/04/23 13:09:20.6     -96    -28     -2    101    102 253.6  -1.2  34186  290.01 0854.41
2009/04/23 13:09:20.7    -102    -49     48    114    123 244.2  24.1  34184  289.97 0854.41
2009/04/23 13:09:20.8     -52    -82     44     98    107 212.5  26.2  34182  289.96 0854.41
2009/04/23 13:09:20.9     -60    -47     39     77     86 232.2  29.3  34176  289.84 0854.41
2009/04/23 13:09:21.0    -104    -39     90    112    143 249.6  43.3  34186  290.02 0854.41
2009/04/23 13:09:21.1    -119    -39     64    126    141 251.8  29.2  34178  289.89 0854.41
2009/04/23 13:09:21.2     -79    -11     28     80     85 262.0  19.4  34178  289.89 0854.41
2009/04/23 13:09:21.4     -54    -45    -14     71     73 230.5 -11.3  34178  289.89 0854.41
2009/04/23 13:09:21.5     -60    -38     -3     72     73 237.6  -3.1  34180  289.91 0854.40
2009/04/23 13:09:21.6    -131    -36    -18    136    138 254.5  -7.7  34182  289.96 0854.40
2009/04/23 13:09:21.7     -69     18    -38     72     81 285.0 -34.7  34180  289.92 0854.40
2009/04/23 13:09:21.8    -249     62   -135    257    290 284.2 -34.2  34178  289.86 0854.40
2009/04/23 13:09:21.9    -294     63   -128    301    327 282.2 -28.9  34174  289.81 0854.40
2009/04/23 13:09:22.0    -217     16    -52    218    225 274.3 -13.4  34178  289.87 0854.40
2009/04/23 13:09:22.1    -195    -74    -55    209    217 249.2 -14.7  34184  289.97 0854.40
2009/04/23 13:09:22.2    -103     -7    -20    104    106 265.6 -10.9  34178  289.89 0854.40
2009/04/23 13:09:22.3    -103     48     59    114    128 295.3  29.2  34176  289.84 0854.40
2009/04/23 13:09:22.4    -150     72     30    167    170 295.8  10.3  34180  289.92 0854.40
2009/04/23 13:09:22.5    -164     22     36    166    171 277.9  12.4  34180  289.92 0854.40
2009/04/23 13:09:22.6    -188      0      0    189    190 270.0   0.0  34190  290.08 0854.40
2009/04/23 13:09:22.7    -222      3     72    223    235 270.8  17.9  34188  290.06 0854.40
2009/04/23 13:09:22.8    -145     98     82    176    194 304.0  27.1  34194  290.14 0854.40
2009/04/23 13:09:22.9    -134    106     59    171    182 308.4  19.2  34182  289.94 0854.40
2009/04/23 13:09:23.0    -188     64      1    199    200 288.8   0.5  34192  290.13 0854.40
2009/04/23 13:09:23.1    -226     96    -53    246    252 293.1 -12.2  34196  290.17 0854.40
2009/04/23 13:09:23.2    -166     33    -39    170    175 281.2 -12.9  34194  290.16 0854.40
2009/04/23 13:09:23.3    -203     30    -73    206    219 278.6 -19.7  34190  290.09 0854.40
2009/04/23 13:09:23.4    -203     -4    -53    204    211 268.7 -14.7  34194  290.14 0854.40
2009/04/23 13:09:23.5    -181     41    -78    186    201 283.0 -28.5  34172  289.77 0854.41
2009/04/23 13:09:23.6    -166    -21    -48    168    175 262.8 -16.0  34190  290.09 0854.41
2009/04/23 13:09:23.7    -247    -35    -12    250    251 261.9  -2.8  34188  290.03 0854.41
2009/04/23 13:09:23.8    -224     22    -66    226    236 275.7 -16.4  34192  290.13 0854.41
2009/04/23 13:09:23.9    -244      7    -80    245    257 271.7 -23.3  34172  289.76 0854.41
2009/04/23 13:09:24.0    -181     15   -133    182    225 274.8 -44.1  34184  289.99 0854.41
2009/04/23 13:09:24.1    -170    -42    -51    176    184 256.1 -16.4  34194  290.14 0854.41
2009/04/23 13:09:24.2    -168    -40     13    173    174 256.3   4.4  34192  290.13 0854.41
2009/04/23 13:09:24.3    -207     -7     10    208    209 267.9   2.9  34196  290.19 0854.41
2009/04/23 13:09:24.4    -224    -74     36    237    240 251.6   8.8  34198  290.20 0854.41
2009/04/23 13:09:24.5    -247     39    -54    251    257 279.0 -12.2  34192  290.10 0854.41
2009/04/23 13:09:24.6    -205     -2    -70    206    218 269.2 -18.9  34180  289.91 0854.41
2009/04/23 13:09:24.7    -197     -7    -74    198    211 267.9 -25.7  34170  289.75 0854.41
2009/04/23 13:09:24.8    -200    -34    -69    203    214 260.3 -23.3  34158  289.55 0854.41
2009/04/23 13:09:24.9    -188      7   -105    189    216 272.4 -35.8  34178  289.87 0854.41
2009/04/23 13:09:25.0    -214    -67    -74    225    236 252.5 -23.3  34186  290.02 0854.41
2009/04/23 13:09:25.1    -215   -111     -9    243    244 242.7  -2.2  34186  290.02 0854.41
2009/04/23 13:09:25.2    -172   -108     39    204    208 237.8  11.0  34184  289.99 0854.41
2009/04/23 13:09:25.3    -147   -156     54    215    222 223.3  14.3  34188  290.04 0854.41
2009/04/23 13:09:25.4    -111   -122     48    165    172 222.3  16.3  34196  290.18 0854.41
2009/04/23 13:09:25.5    -119    -68     33    138    143 240.2  13.7  34206  290.35 0854.39
2009/04/23 13:09:25.6    -114    -73     46    136    144 237.5  18.9  34212  290.45 0854.39
2009/04/23 13:09:25.7    -127     -5     -5    128    129 267.4  -2.2  34210  290.41 0854.39
2009/04/23 13:09:25.8    -154      0    -51    155    163 270.4 -23.6  34210  290.43 0854.39
2009/04/23 13:09:25.9    -214      3    -59    215    222 270.9 -20.0  34174  289.82 0854.39
2009/04/23 13:09:26.0    -221   -116    -59    250    257 242.2 -13.4  34202  290.27 0854.39
2009/04/23 13:09:26.1    -205   -152    101    256    275 233.4  22.8  34198  290.20 0854.39
2009/04/23 13:09:26.2    -150   -193     52    245    251 217.9  12.0  34200  290.24 0854.39
2009/04/23 13:09:26.3    -115   -137     57    180    189 220.1  17.7  34208  290.38 0854.39
2009/04/23 13:09:26.4    -121   -140     -8    186    187 220.8  -2.6  34206  290.36 0854.39
2009/04/23 13:09:26.5     -90    -78      3    120    121 229.1   1.8  34204  290.33 0854.39
2009/04/23 13:09:26.6    -103    -76      0    129    130 233.6   0.2  34204  290.33 0854.39
2009/04/23 13:09:26.7    -112   -145     22    184    186 217.8   6.9  34210  290.41 0854.39
2009/04/23 13:09:26.8    -131   -152     17    201    202 220.8   4.9  34214  290.48 0854.39
2009/04/23 13:09:26.9     -41   -104     -4    113    114 201.8  -2.2  34206  290.36 0854.39
2009/04/23 13:09:27.0     -40   -101     24    109    112 201.8  12.6  34194  290.14 0854.39
2009/04/23 13:09:27.1     -66   -123     17    140    142 208.5   7.1  34198  290.21 0854.39
2009/04/23 13:09:27.2     -91   -164     54    188    196 209.0  16.0  34182  289.94 0854.39
2009/04/23 13:09:27.3     -34   -188     16    192    193 190.5   4.9  34176  289.84 0854.39
2009/04/23 13:09:27.4     -56   -197     59    205    214 196.0  16.0  34172  289.79 0854.39
2009/04/23 13:09:27.5     -79   -202     56    218    226 201.4  14.5  34174  289.80 0854.38
2009/04/23 13:09:27.6     -85   -184     75    203    216 204.9  21.3  34178  289.87 0854.38
2009/04/23 13:09:27.7     -49   -142    104    151    183 199.2  37.8  34178  289.89 0854.38
2009/04/23 13:09:27.8     -33   -143    103    147    179 193.3  38.6  34176  289.84 0854.38
2009/04/23 13:09:27.9     -44   -135     74    143    161 198.3  29.5  34176  289.84 0854.38
2009/04/23 13:09:28.0     -24   -134     48    137    146 190.2  19.4  34172  289.79 0854.38
2009/04/23 13:09:28.1     -28   -130     36    134    139 192.5  15.3  34176  289.84 0854.38
2009/04/23 13:09:28.2     -48   -162      0    169    170 196.5   0.2  34176  289.84 0854.38
2009/04/23 13:09:28.3     -11   -130     72    131    149 184.9  31.3  34174  289.82 0854.38
2009/04/23 13:09:28.4       9   -167     39    168    173 176.9  13.2  34176  289.84 0854.38
2009/04/23 13:09:28.5      18   -131     15    133    134 172.0   6.5  34182  289.96 0854.38
2009/04/23 13:09:28.6     -98    -48     37    110    117 243.8  18.9  34188  290.06 0854.38
2009/04/23 13:09:28.7     -66     -7     -8     67     68 263.9  -7.3  34196  290.18 0854.38
2009/04/23 13:09:28.8    -129    -35     27    134    137 254.9  11.6  34208  290.40 0854.38
2009/04/23 13:09:28.9    -115    -78     43    140    147 235.8  17.3  34198  290.21 0854.38
2009/04/23 13:09:29.0     -65   -167     61    180    191 201.2  18.9  34178  289.87 0854.38
2009/04/23 13:09:29.1     -72   -200     57    213    221 200.0  15.2  34174  289.80 0854.38
2009/04/23 13:09:29.2     -95   -220     30    240    242 203.4   7.2  34180  289.90 0854.38
2009/04/23 13:09:29.3    -123   -221     30    254    256 209.2   6.9  34180  289.90 0854.38
2009/04/23 13:09:29.4    -101   -213     33    236    239 205.4   8.0  34184  289.97 0854.36
2009/04/23 13:09:29.5    -120   -229     22    259    261 207.6   4.9  34178  289.88 0854.36
2009/04/23 13:09:29.6     -84   -212     35    229    232 201.6   8.9  34174  289.82 0854.36
2009/04/23 13:09:29.7    -132   -100    -30    166    169 232.7 -10.5  34174  289.82 0854.36
2009/04/23 13:09:29.8     -64    -63    -55     91    106 225.4 -38.8  34180  289.91 0854.36
2009/04/23 13:09:29.9    -102    -46    -43    113    120 245.6 -26.4  34178  289.89 0854.36
2009/04/23 13:09:30.0     -55    -70     10     90     91 218.3   6.9  34182  289.94 0854.36
2009/04/23 13:09:30.1     -38    -81     20     90     93 205.3  12.6  34182  289.94 0854.36
2009/04/23 13:09:30.2     -61   -100     41    118    126 211.6  19.2  34180  289.92 0854.36
2009/04/23 13:09:30.3     -81   -201     58    217    225 202.1  15.2  34188  290.04 0854.36
2009/04/23 13:09:30.4     -89   -180     39    201    205 206.3  11.1  34188  290.06 0854.36
2009/04/23 13:09:30.5    -135   -144     13    198    199 223.0   3.8  34186  290.02 0854.36
2009/04/23 13:09:30.6     -92   -142      6    170    171 213.0   2.1  34188  290.06 0854.36
2009/04/23 13:09:30.7     -78   -148     33    168    172 207.9  11.1  34186  290.01 0854.36
2009/04/23 13:09:30.8     -75   -124     42    145    152 211.2  16.3  34184  289.99 0854.36
2009/04/23 13:09:30.9     -78   -100     29    127    131 217.9  13.2  34180  289.91 0854.36
2009/04/23 13:09:31.0    -119    -88     22    149    151 233.6   8.5  34180  289.91 0854.36
2009/04/23 13:09:31.1    -117    -85    -12    145    146 234.1  -5.1  34184  289.99 0854.36
2009/04/23 13:09:31.2    -113    -71     11    134    135 237.6   4.9  34182  289.96 0854.36
2009/04/23 13:09:31.3    -122    -82     14    148    149 235.9   5.4  34184  289.97 0854.36
2009/04/23 13:09:31.4    -124    -44     18    132    134 250.5   8.0  34192  290.13 0854.42
2009/04/23 13:09:31.5    -135    -60     29    148    151 246.0  11.1  34188  290.06 0854.42
2009/04/23 13:09:31.6    -104    -91     73    139    157 228.6  29.8  34174  289.80 0854.42
2009/04/23 13:09:31.7    -150    -87     59    174    185 239.8  18.9  34174  289.82 0854.42
2009/04/23 13:09:31.8    -106   -167     24    199    201 212.5   6.9  34172  289.79 0854.42
2009/04/23 13:09:31.9     -93   -138     92    167    190 214.1  31.3  34172  289.77 0854.42
2009/04/23 13:09:32.0     -37   -142     93    147    173 194.7  35.5  34168  289.72 0854.42
2009/04/23 13:09:32.1       4   -143    111    144    181 178.2  41.7  34170  289.74 0854.42
2009/04/23 13:09:32.2       6   -137    109    138    175 177.3  42.4  34172  289.77 0854.42
2009/04/23 13:09:32.3     -23    -71     92     75    118 198.5  56.4  34172  289.79 0854.42
2009/04/23 13:09:32.4      -9    -61     50     62     79 188.9  43.3  34174  289.82 0854.42
2009/04/23 13:09:32.5     -12    -59     56     61     82 191.5  47.9  34174  289.80 0854.42
2009/04/23 13:09:32.6       5    -70     77     71    104 175.5  52.2  34174  289.82 0854.42
2009/04/23 13:09:32.7     -40    -48    115     63    131 219.6  68.9  34176  289.84 0854.42
2009/04/23 13:09:32.8     -81     -3     70     82    107 267.4  44.8  34178  289.87 0854.42
2009/04/23 13:09:32.9    -134     38     36    140    145 285.9  14.7  34182  289.96 0854.42
2009/04/23 13:09:33.0     -77    -30     28     83     88 248.7  19.2  34186  290.02 0854.42
2009/04/23 13:09:33.1     -99    -49     79    111    136 243.4  39.1  34180  289.92 0854.42
2009/04/23 13:09:33.2    -126     36     58    132    144 285.9  25.2  34188  290.06 0854.42
2009/04/23 13:09:33.3    -184     98      5    209    210 298.2   1.6  34170  289.74 0854.42
2009/04/23 13:09:33.4    -207    109    -22    234    236 297.8  -5.6  34188  290.03 0854.43
2009/04/23 13:09:33.5    -241     63    -19    250    251 284.6  -4.4  34200  290.24 0854.43
2009/04/23 13:09:33.6    -275     68    -11    284    285 283.9  -2.2  34188  290.05 0854.43
2009/04/23 13:09:33.7    -301     76     32    311    313 284.2   5.9  34194  290.14 0854.43
2009/04/23 13:09:33.8    -254    110     14    278    279 293.5   2.9  34192  290.12 0854.43
2009/04/23 13:09:33.9    -269     86    -36    283    286 287.8  -7.3  34200  290.26 0854.43
2009/04/23 13:09:34.0    -281     65     19    289    290 283.0   3.8  34198  290.22 0854.43
2009/04/23 13:09:34.1    -229     95     16    249    250 292.6   3.8  34196  290.17 0854.43
2009/04/23 13:09:34.2    -234    139      3    273    274 300.6   0.8  34216  290.51 0854.43
2009/04/23 13:09:34.3    -249     76     -1    261    262 287.1  -0.3  34210  290.41 0854.43
2009/04/23 13:09:34.4    -198      9    -36    199    203 272.6 -10.3  34206  290.36 0854.43
2009/04/23 13:09:34.5    -143    118    -10    186    187 309.6  -3.1  34198  290.21 0854.43
2009/04/23 13:09:34.6    -130     87    -14    157    158 304.1  -5.4  34190  290.09 0854.43
2009/04/23 13:09:34.7    -112     49      8    123    124 293.6   3.8  34192  290.13 0854.43
2009/04/23 13:09:34.8     -74     42     12     86     87 299.8   8.0  34194  290.16 0854.43
2009/04/23 13:09:34.9     -64     92      3    113    114 325.3   1.8  34192  290.13 0854.43
2009/04/23 13:09:35.0     -30     72     49     79     92 337.3  35.5  34194  290.14 0854.43
2009/04/23 13:09:35.1     -18     68     73     71    101 344.9  50.7  34194  290.14 0854.43
2009/04/23 13:09:35.2     -79     -6     52     80     95 265.6  35.6  34196  290.18 0854.43
2009/04/23 13:09:35.3     -77   -100    -10    127    128 217.4  -4.6  34190  290.09 0854.43
2009/04/23 13:09:35.4    -131    -87     18    158    160 236.3   6.7  34194  290.14 0854.42
2009/04/23 13:09:35.5    -106   -113     -5    156    157 223.2  -2.1  34184  289.97 0854.42
2009/04/23 13:09:35.6     -72   -161    -35    177    181 204.1 -11.3  34184  289.97 0854.42
2009/04/23 13:09:35.7    -187    -50    -63    194    203 254.9 -23.3  34188  290.04 0854.42
2009/04/23 13:09:35.8    -166   -120    -70    206    217 234.0 -23.6  34186  290.02 0854.42
2009/04/23 13:09:35.9    -127   -101    -90    163    186 231.4 -35.7  34182  289.94 0854.42
2009/04/23 13:09:36.0    -224   -123    -71    256    266 241.1 -15.5  34184  289.97 0854.42
2009/04/23 13:09:36.1    -299   -157   -121    338    360 242.2 -19.7  34162  289.62 0854.42
2009/04/23 13:09:36.2    -388   -118   -138    406    428 253.0 -23.8  34158  289.53 0854.42
2009/04/23 13:09:36.3    -422   -185   -139    461    481 246.3 -21.7  34162  289.62 0854.42
2009/04/23 13:09:36.4    -323   -118    -92    344    357 249.9 -15.1  34174  289.81 0854.42
2009/04/23 13:09:36.5    -207   -220    -33    303    305 223.2  -6.2  34184  289.97 0854.42
2009/04/23 13:09:36.6    -197   -197    -88    280    294 225.0 -17.6  34158  289.54 0854.42
2009/04/23 13:09:36.7    -172   -249    -78    303    313 214.7 -14.5  34158  289.54 0854.42
2009/04/23 13:09:36.8    -187   -248    -83    311    322 217.0 -15.1  34154  289.46 0854.42
2009/04/23 13:09:36.9    -191   -231    -84    300    311 219.6 -20.4  34162  289.59 0854.42
2009/04/23 13:09:37.0    -224   -148    -99    269    286 236.5 -25.4  34168  289.71 0854.42
2009/04/23 13:09:37.1    -107   -139    -59    176    185 217.6 -23.6  34172  289.79 0854.42
2009/04/23 13:09:37.2    -125   -127    -59    179    188 224.5 -23.8  34170  289.75 0854.42
2009/04/23 13:09:37.3    -111    -80     41    138    145 234.1  16.8  34168  289.72 0854.42
2009/04/23 13:09:37.4     -80   -104     80    132    154 217.4  35.0  34170  289.74 0854.43
2009/04/23 13:09:37.5    -138    -78     85    159    180 240.2  30.6  34176  289.85 0854.43
2009/04/23 13:09:37.6     -76    -76     50    108    119 225.0  27.1  34178  289.89 0854.43
2009/04/23 13:09:37.7    -184   -108     62    214    223 239.6  16.3  34178  289.89 0854.43
2009/04/23 13:09:37.8    -218    -81     -5    233    234 249.4  -1.3  34168  289.71 0854.43
2009/04/23 13:09:37.9    -251   -120    -40    279    282 244.5  -8.2  34162  289.61 0854.43
2009/04/23 13:09:38.0    -258   -110    -20    281    282 246.9  -4.1  34162  289.59 0854.43
2009/04/23 13:09:38.1    -270   -106     48    291    296 248.5   9.5  34172  289.76 0854.43
2009/04/23 13:09:38.2    -290    -88    -39    304    307 253.1  -7.3  34158  289.54 0854.43
2009/04/23 13:09:38.3    -258   -116    -78    283    294 245.8 -15.4  34158  289.54 0854.43
2009/04/23 13:09:38.4    -202   -111   -110    231    255 241.1 -31.6  34158  289.54 0854.43
2009/04/23 13:09:38.5    -188    -87    -92    208    227 245.2 -29.7  34160  289.58 0854.43
2009/04/23 13:09:38.6    -187    -90   -117    208    238 244.2 -36.3  34166  289.67 0854.43
2009/04/23 13:09:38.7    -197    -66   -126    208    243 251.4 -38.8  34170  289.73 0854.43
2009/04/23 13:09:38.8    -176    -35   -131    180    222 258.5 -44.1  34164  289.65 0854.43
2009/04/23 13:09:38.9    -107    -59   -105    123    161 241.1 -49.5  34166  289.69 0854.43
2009/04/23 13:09:39.0     -97    -15    -73     99    123 261.2 -44.1  34160  289.57 0854.43
2009/04/23 13:09:39.1     -72    -59    -21     94     97 230.4 -12.9  34166  289.69 0854.43
2009/04/23 13:09:39.2      49   -106    -24    117    120 155.1 -11.9  34166  289.69 0854.43
2009/04/23 13:09:39.3      59   -233    -66    241    250 165.7 -15.4  34176  289.83 0854.43
2009/04/23 13:09:39.4      45   -225    -41    230    234 168.5 -10.3  34170  289.75 0854.42
2009/04/23 13:09:39.5      50   -188    -56    195    202 164.9 -21.0  34170  289.75 0854.42
2009/04/23 13:09:39.6      35   -176    -62    180    190 168.7 -23.6  34166  289.67 0854.42
2009/04/23 13:09:39.7      21   -132    -87    134    159 170.7 -40.4  34166  289.69 0854.42
2009/04/23 13:09:39.8      -3    -88    -61     89    107 182.2 -42.0  34172  289.79 0854.42
2009/04/23 13:09:39.9      79    -43    -27     91     94 118.9 -22.3  34164  289.65 0854.42
2009/04/23 13:09:40.0      49    -26    -43     56     70 118.0 -46.1  34172  289.77 0854.42
2009/04/23 13:09:40.1       8    -24    -20     26     32 161.7 -48.1  34178  289.89 0854.42
2009/04/23 13:09:40.2     -46    -15    -17     49     51 251.6 -23.3  34174  289.80 0854.42
2009/04/23 13:09:40.3     -93     20    -37     96    102 282.4 -26.4  34166  289.69 0854.42
2009/04/23 13:09:40.4    -117     12    -72    118    138 276.1 -38.8  34164  289.65 0854.43
2009/04/23 13:09:40.5     -88     22    -85     91    124 284.6 -52.9  34166  289.67 0854.43
2009/04/23 13:09:40.6    -109      3   -112    110    156 271.7 -54.8  34176  289.85 0854.43
2009/04/23 13:09:40.7     -61     26   -114     67    132 293.5 -71.2  34174  289.80 0854.43
2009/04/23 13:09:40.8      -1     80    -60     81    100 359.1 -44.5  34170  289.75 0854.43
2009/04/23 13:09:40.9      20     97    -90    100    134  11.6 -51.3  34170  289.74 0854.43
2009/04/23 13:09:41.0    -133     17   -135    135    190 277.5 -54.5  34168  289.72 0854.43
2009/04/23 13:09:41.1    -127     50    -89    137    163 291.7 -40.4  34174  289.80 0854.43
2009/04/23 13:09:41.2     -64     58    -77     87    116 312.2 -50.8  34172  289.77 0854.43
2009/04/23 13:09:41.3     -80     53    -28     97    100 303.7 -20.2  34172  289.79 0854.43
2009/04/23 13:09:41.4     -94     39    -28    102    106 292.6 -15.5  34174  289.80 0854.43
2009/04/23 13:09:41.5     -79     42    -37     90     97 298.4 -27.4  34174  289.80 0854.43
2009/04/23 13:09:41.6     -46     56    -63     73     96 320.3 -49.8  34176  289.85 0854.43
2009/04/23 13:09:41.7     -41    124    -70    131    148 341.3 -35.2  34164  289.63 0854.43
2009/04/23 13:09:41.8     -25    125    -38    128    133 348.4 -21.7  34164  289.63 0854.43
2009/04/23 13:09:41.9    -123     74    -56    144    154 301.1 -26.4  34172  289.77 0854.43
2009/04/23 13:09:42.0    -129    176    -34    219    222 323.7  -8.8  34164  289.65 0854.43
2009/04/23 13:09:42.1      15    183    -15    184    185   4.9  -4.9  34164  289.63 0854.43
2009/04/23 13:09:42.2       8    175     79    176    192   2.9  25.9  34172  289.79 0854.43
2009/04/23 13:09:42.3      -5    184     80    185    201 358.4  24.9  34178  289.87 0854.43
2009/04/23 13:09:42.4      42    191     -7    196    197  12.5  -2.2  34168  289.70 0854.45
2009/04/23 13:09:42.5      76    193    -57    208    216  21.6 -15.5  34162  289.62 0854.45
2009/04/23 13:09:42.6      81    184    -38    202    206  23.7 -10.9  34162  289.62 0854.45
2009/04/23 13:09:42.7     108    155    -44    190    196  35.0 -13.2  34168  289.70 0854.45
2009/04/23 13:09:42.8      89    101     39    135    141  41.4  16.3  34168  289.72 0854.45
2009/04/23 13:09:42.9      99    106     51    146    155  43.2  19.4  34168  289.70 0854.45
2009/04/23 13:09:43.0      94     81     34    125    130  49.1  15.3  34172  289.77 0854.45
2009/04/23 13:09:43.1      90     93      6    130    131  44.1   2.9  34170  289.74 0854.45
2009/04/23 13:09:43.2      37    110     -8    117    118  18.5  -4.1  34168  289.72 0854.45
2009/04/23 13:09:43.3     108     46     10    118    119  66.9   4.9  34172  289.77 0854.45
2009/04/23 13:09:43.4     138     65     -6    153    154  64.6  -2.2  34180  289.92 0854.45
2009/04/23 13:09:43.5     161     26      2    164    165  80.8   0.8  34180  289.91 0854.45
2009/04/23 13:09:43.6     141     76     76    161    178  61.8  27.1  34184  289.99 0854.45
2009/04/23 13:09:43.7     199     56     -8    207    208  74.1  -2.3  34184  289.99 0854.45
2009/04/23 13:09:43.8     221     42    -12    225    226  79.2  -3.1  34198  290.23 0854.45
2009/04/23 13:09:43.9     210     47     83    216    231  77.2  22.0  34200  290.25 0854.45
2009/04/23 13:09:44.0     183     31     32    186    189  80.1   9.9  34190  290.08 0854.45
2009/04/23 13:09:44.1     209     38     56    213    221  79.6  14.7  34202  290.30 0854.45
2009/04/23 13:09:44.2     172    -11     82    173    191  93.7  27.1  34210  290.43 0854.45
2009/04/23 13:09:44.3      83    -33     76     90    117 111.7  44.8  34206  290.35 0854.45
2009/04/23 13:09:44.4      11     26    118     29    121  23.6  86.9  34212  290.45 0854.42
2009/04/23 13:09:44.5     109      0    129    110    169  90.0  55.6  34206  290.36 0854.42
2009/04/23 13:09:44.6      73     -5    105     74    128  94.4  61.5  34202  290.28 0854.42
2009/04/23 13:09:44.7     155    -11     77    156    173  94.4  28.0  34182  289.96 0854.42
2009/04/23 13:09:44.8     197     17     23    198    200  85.0   6.7  34198  290.23 0854.42
2009/04/23 13:09:44.9     166     57     18    176    177  70.9   5.9  34226  290.69 0854.42
2009/04/23 13:09:45.0      89     44     99    100    140  63.8  50.0  34222  290.62 0854.42
2009/04/23 13:09:45.1      42      2    109     43    117  86.5  77.6  34220  290.60 0854.42
2009/04/23 13:09:45.2      79    -30     48     85     97 111.3  32.4  34200  290.25 0854.42
2009/04/23 13:09:45.3      50      7     43     51     66  81.2  44.8  34190  290.09 0854.42
2009/04/23 13:09:45.4     105     33     62    111    127  72.7  31.4  34188  290.04 0854.42
2009/04/23 13:09:45.5      69      4     70     70     98  86.5  50.1  34182  289.96 0854.42
2009/04/23 13:09:45.6     109     35    131    115    174  71.8  54.3  34230  290.77 0854.42
2009/04/23 13:09:45.7     292     70     72    301    310  76.5  13.6  34236  290.85 0854.42
2009/04/23 13:09:45.8     373     54    155    377    407  81.6  23.7  34232  290.79 0854.42
2009/04/23 13:09:45.9     286    115     64    309    316  68.0  11.8  34198  290.22 0854.42
2009/04/23 13:09:46.0     222     76     18    235    236  70.9   4.4  34212  290.44 0854.42
2009/04/23 13:09:46.1     205     34     45    208    213  80.4  12.4  34222  290.62 0854.42
2009/04/23 13:09:46.2     111      5     65    112    129  87.4  32.9  34222  290.64 0854.42
2009/04/23 13:09:46.3      92     14     35     94    100  81.2  21.0  34222  290.62 0854.42
2009/04/23 13:09:46.4      94      4     28     95    100  87.4  16.3  34214  290.48 0854.40
2009/04/23 13:09:46.5     140     16     65    141    155  83.4  27.1  34196  290.18 0854.40
2009/04/23 13:09:46.6     131     57      7    143    144  66.4   2.9  34198  290.21 0854.40
2009/04/23 13:09:46.7     120      1     61    121    135  89.2  28.7  34212  290.47 0854.40
2009/04/23 13:09:46.8      30     30     58     43     72  45.1  60.5  34226  290.69 0854.40
2009/04/23 13:09:46.9      32     20     67     39     77  57.6  66.8  34242  290.98 0854.40
2009/04/23 13:09:47.0      25     22     74     34     81  48.7  74.0  34240  290.92 0854.40
2009/04/23 13:09:47.1      13     42      1     45     46  17.8   1.8  34234  290.82 0854.40
2009/04/23 13:09:47.2      52     41    -22     67     70  52.2 -23.8  34240  290.94 0854.40
2009/04/23 13:09:47.3       8    -30     83     32     88 164.9  78.6  34236  290.86 0854.40
2009/04/23 13:09:47.4      80     68    166    106    196  49.6  64.6  34202  290.30 0854.40
2009/04/23 13:09:47.5      47    154    194    162    252  17.0  56.3  34224  290.67 0854.40
2009/04/23 13:09:47.7      52    -13    164     54    172 104.2  80.7  34208  290.38 0854.40
2009/04/23 13:09:47.8      12   -118     75    119    140 173.8  35.5  34216  290.53 0854.40
2009/04/23 13:09:47.9       7   -104     55    105    118 176.0  29.8  34210  290.43 0854.40
2009/04/23 13:09:48.0     -10    -76     74     77    106 188.0  49.0  34206  290.35 0854.40
2009/04/23 13:09:48.1      55    -77     65     95    115 144.4  37.6  34204  290.33 0854.40
2009/04/23 13:09:48.2      50   -126     20    136    138 158.2   8.5  34202  290.28 0854.40
2009/04/23 13:09:48.3      29   -142     63    146    159 168.4  24.6  34202  290.30 0854.40
2009/04/23 13:09:48.4      24   -109      6    112    113 167.1   3.3  34206  290.35 0854.40
2009/04/23 13:09:48.5     119   -104     43    159    165 131.3  15.3  34202  290.28 0854.42
2009/04/23 13:09:48.6     117   -102     52    156    165 131.3  18.4  34206  290.36 0854.42
2009/04/23 13:09:48.7      52    -50     32     73     79 134.1  24.6  34214  290.50 0854.42
2009/04/23 13:09:48.8      53     -4     59     54     79  94.4  52.2  34212  290.47 0854.42
2009/04/23 13:09:48.9       0    -22     73     23     76 179.1  80.7  34224  290.67 0854.42
2009/04/23 13:09:49.0       7    -50     82     51     96 171.1  64.7  34214  290.48 0854.42
2009/04/23 13:09:49.1      17    -53     55     56     78 161.3  52.0  34214  290.48 0854.42
2009/04/23 13:09:49.2       7    -82     93     83    124 175.1  53.7  34210  290.41 0854.42
2009/04/23 13:09:49.3      83   -130    121    155    196 147.4  42.0  34198  290.21 0854.42
2009/04/23 13:09:49.4      65    -37    127     75    147 119.8  66.8  34206  290.36 0854.42
2009/04/23 13:09:49.5      26      8     94     28     98  71.4  83.3  34202  290.30 0854.42
2009/04/23 13:09:49.6     -26    -42    107     50    118 211.6  73.5  34204  290.33 0854.42
2009/04/23 13:09:49.7     -15      7     78     17     79 295.3  88.5  34202  290.30 0854.42
2009/04/23 13:09:49.8     -40    -33     84     52     98 230.5  65.1  34200  290.26 0854.42
2009/04/23 13:09:49.9     -56   -110     88    124    152 207.2  39.5  34192  290.13 0854.42
2009/04/23 13:09:50.0     -68   -151     56    166    176 204.3  18.6  34192  290.11 0854.42
2009/04/23 13:09:50.1     -72    -95     42    120    128 217.4  19.4  34206  290.36 0854.42
2009/04/23 13:09:50.2     -59    -63     55     87    102 223.2  35.5  34216  290.52 0854.42
2009/04/23 13:09:50.3     -70    -72     55    101    115 224.1  31.4  34212  290.45 0854.42
2009/04/23 13:09:50.4     -85    -64     16    107    109 232.7   8.5  34212  290.45 0854.42
2009/04/23 13:09:50.5     -55    -18     -2     59     60 251.4  -2.2  34216  290.53 0854.39
2009/04/23 13:09:50.6     -35     49     25     61     65 323.9  23.0  34224  290.67 0854.39
2009/04/23 13:09:50.7    -103     98      4    143    144 313.6   1.8  34230  290.77 0854.39
2009/04/23 13:09:50.8    -100     82     30    130    134 309.5  13.2  34212  290.47 0854.39
2009/04/23 13:09:50.9    -128     44     48    136    145 289.1  19.4  34212  290.47 0854.39
2009/04/23 13:09:51.0    -114     58     21    129    131 297.0   9.5  34214  290.50 0854.39
2009/04/23 13:09:51.1     -58     70     14     92     94 320.3   9.0  34214  290.48 0854.39
2009/04/23 13:09:51.2      26     80    -66     85    107  18.5 -46.6  34212  290.47 0854.39
2009/04/23 13:09:51.3     100    115    -31    153    157  41.0 -11.6  34204  290.31 0854.39
2009/04/23 13:09:51.4     107    109     -8    153    154  44.5  -3.1  34202  290.30 0854.39
2009/04/23 13:09:51.5      96     83    -54    128    138  49.1 -28.5  34212  290.47 0854.39
2009/04/23 13:09:51.6      75    104    -21    129    131  36.0  -9.3  34212  290.47 0854.39
2009/04/23 13:09:51.7      75     76      3    107    108  44.7   1.8  34212  290.45 0854.39
2009/04/23 13:09:51.8      73     28      1     79     80  68.7   1.2  34210  290.43 0854.39
2009/04/23 13:09:51.9       0    -58     32     59     67 180.0  31.3  34206  290.36 0854.39
2009/04/23 13:09:52.0      30    -63     53     70     87 154.6  41.2  34206  290.36 0854.39
2009/04/23 13:09:52.1     120    -43     90    128    156 110.0  38.6  34212  290.45 0854.39
2009/04/23 13:09:52.2     143    -47    152    151    214 108.4  49.9  34210  290.43 0854.39
2009/04/23 13:09:52.3     180    -47    141    187    234 104.8  40.7  34186  290.02 0854.39
2009/04/23 13:09:52.4     189   -130    108    230    254 124.6  27.1  34208  290.39 0854.39
2009/04/23 13:09:52.5     120   -121    102    171    199 135.1  33.5  34208  290.40 0854.39
2009/04/23 13:09:52.6     142   -121     87    187    206 130.4  27.0  34202  290.30 0854.39
2009/04/23 13:09:52.7     170   -141     43    222    227 129.6  11.1  34214  290.50 0854.39
2009/04/23 13:09:52.8     141    -65     57    156    166 114.8  20.4  34224  290.65 0854.39
2009/04/23 13:09:52.9     115    -77     -7    139    140 123.7  -3.1  34216  290.53 0854.39
2009/04/23 13:09:53.0     135   -100    -64    169    180 126.6 -25.9  34220  290.60 0854.39
2009/04/23 13:09:53.1     195    -34    -58    199    207 100.1 -21.0  34220  290.60 0854.39
2009/04/23 13:09:53.2     181    -48    114    188    219 105.1  34.2  34230  290.75 0854.39
2009/04/23 13:09:53.3      90   -109    101    142    174 140.3  38.8  34224  290.67 0854.39
2009/04/23 13:09:53.4     104   -137    124    173    212 142.8  39.1  34224  290.67 0854.39
2009/04/23 13:09:53.5      39   -117     92    124    154 161.3  39.7  34222  290.62 0854.39
2009/04/23 13:09:53.6      33    -33     82     48     95 135.0  66.2  34226  290.70 0854.39
2009/04/23 13:09:53.7     198     -6    -45    199    205  91.9 -12.9  34208  290.40 0854.39
2009/04/23 13:09:53.8     136   -126    -99    186    210 132.7 -34.5  34198  290.23 0854.39
2009/04/23 13:09:53.9     188   -129    -68    229    238 124.4 -21.5  34198  290.20 0854.39
2009/04/23 13:09:54.0     175   -241    -99    298    314 144.0 -23.6  34220  290.59 0854.39
2009/04/23 13:09:54.1     182   -239    -91    301    314 142.8 -21.7  34198  290.20 0854.39
2009/04/23 13:09:54.2     223   -177   -102    285    303 128.4 -19.7  34190  290.09 0854.39
2009/04/23 13:09:54.3     175    -86    -63    196    207 116.2 -17.9  34200  290.25 0854.39
2009/04/23 13:09:54.4      54   -123    -33    135    140 156.3 -13.9  34210  290.43 0854.39
2009/04/23 13:09:54.5      20   -203     13    205    206 174.2   3.8  34214  290.48 0854.37
2009/04/23 13:09:54.6      27   -238     10    240    241 173.3   2.5  34214  290.49 0854.37
2009/04/23 13:09:54.7      52   -230      2    236    237 167.1   0.5  34206  290.36 0854.37
2009/04/23 13:09:54.8      84   -232      7    248    249 160.0   1.8  34212  290.44 0854.37
2009/04/23 13:09:54.9      85   -195     10    213    214 156.3   2.8  34222  290.62 0854.37
2009/04/23 13:09:55.0      91   -246     37    263    266 159.7   8.0  34228  290.73 0854.37
2009/04/23 13:09:55.1     -30   -213     11    216    217 188.1   2.9  34216  290.52 0854.37
2009/04/23 13:09:55.2       1   -281   -106    282    301 179.8 -25.9  34214  290.48 0854.37
2009/04/23 13:09:55.3       8   -287   -130    288    315 178.2 -30.3  34222  290.61 0854.37
2009/04/23 13:09:55.4     100   -357   -120    371    389 164.3 -23.0  34222  290.64 0854.37
2009/04/23 13:09:55.5     105   -310    -38    328    331 161.3  -6.7  34220  290.60 0854.37
2009/04/23 13:09:55.6     108   -248    -77    271    282 156.4 -16.0  34216  290.53 0854.37
2009/04/23 13:09:55.7      18   -241    -64    242    251 175.5 -15.0  34220  290.59 0854.37
2009/04/23 13:09:55.8      69   -255    -77    265    275 164.8 -21.0  34210  290.42 0854.37
2009/04/23 13:09:55.9     165   -292    -31    336    338 150.5  -5.3  34206  290.35 0854.37
2009/04/23 13:09:56.0     150   -236     70    281    290 147.5  14.2  34202  290.27 0854.37
2009/04/23 13:09:56.1     127   -252     99    283    301 153.3  19.4  34202  290.27 0854.37
2009/04/23 13:09:56.2     123   -240    127    270    298 152.8  27.1  34204  290.31 0854.37
2009/04/23 13:09:56.3     110   -217     72    244    255 153.0  16.6  34210  290.41 0854.37
2009/04/23 13:09:56.4      38   -270     81    273    285 171.9  16.6  34216  290.53 0854.38
2009/04/23 13:09:56.5      53   -249     85    255    269 168.0  18.5  34212  290.46 0854.38
2009/04/23 13:09:56.6      71   -298    119    307    329 166.6  22.2  34196  290.19 0854.38
2009/04/23 13:09:56.7      40   -357    103    360    375 173.5  16.0  34202  290.28 0854.38
2009/04/23 13:09:56.8      68   -315    104    323    340 167.7  17.9  34192  290.10 0854.38
2009/04/23 13:09:56.9     101   -319    148    335    366 162.4  25.2  34182  289.96 0854.38
2009/04/23 13:09:57.0      71   -359    134    366    389 168.8  21.0  34192  290.10 0854.38
2009/04/23 13:09:57.1     -15   -304     71    305    314 182.9  13.1  34208  290.39 0854.38
2009/04/23 13:09:57.2     -17   -292     75    293    303 183.5  14.5  34208  290.37 0854.38
2009/04/23 13:09:57.3      13   -293     86    294    307 177.4  16.3  34198  290.20 0854.38
2009/04/23 13:09:57.4      11   -287     25    288    290 177.8   5.0  34192  290.10 0854.38
2009/04/23 13:09:57.5      -2   -273     23    274    276 180.5   5.0  34192  290.12 0854.38
2009/04/23 13:09:57.6       0   -271    -35    272    275 180.0  -7.5  34192  290.12 0854.38
2009/04/23 13:09:57.7      47   -277    -46    281    285 170.3  -9.3  34196  290.17 0854.38
2009/04/23 13:09:57.8      85   -255    -35    269    272 161.5  -7.5  34196  290.17 0854.38
2009/04/23 13:09:57.9      72   -271    -26    281    283 165.1  -5.4  34196  290.17 0854.38
2009/04/23 13:09:58.0      75   -232    -11    244    245 162.1  -2.6  34192  290.10 0854.38
2009/04/23 13:09:58.1      34   -274     32    277    279 172.9   6.7  34190  290.09 0854.38
2009/04/23 13:09:58.2      44   -274     34    278    281 170.9   7.1  34194  290.15 0854.38
2009/04/23 13:09:58.3      64   -260     23    268    270 166.0   5.0  34194  290.14 0854.38
2009/04/23 13:09:58.4      72   -278    -26    288    290 165.5  -5.2  34200  290.26 0854.44
2009/04/23 13:09:58.5      46   -289    -28    293    295 170.9  -5.6  34196  290.19 0854.44
2009/04/23 13:09:58.6      81   -242    -33    256    259 161.5  -7.5  34190  290.07 0854.44
2009/04/23 13:09:58.7     118   -238      7    266    267 153.5   1.7  34188  290.03 0854.44
2009/04/23 13:09:58.8     207   -304      9    368    369 145.7   1.5  34184  289.98 0854.44
2009/04/23 13:09:58.9     168   -309    -74    352    360 151.4 -11.9  34198  290.23 0854.44
2009/04/23 13:09:59.0     203   -299   -117    362    381 145.7 -18.0  34192  290.13 0854.44
2009/04/23 13:09:59.1     264   -262    -89    373    384 134.8 -13.4  34192  290.13 0854.44
2009/04/23 13:09:59.2     269   -202    -82    337    347 126.9 -13.8  34188  290.03 0854.44
2009/04/23 13:09:59.3     328   -247     -8    411    412 127.0  -1.2  34188  290.05 0854.44
2009/04/23 13:09:59.4     179   -206   -183    274    329 139.0 -41.1  34206  290.34 0854.44
2009/04/23 13:09:59.5     188   -191   -174    268    319 135.5 -40.4  34196  290.19 0854.44
2009/04/23 13:09:59.6     179   -189   -196    261    326 136.7 -45.1  34202  290.27 0854.44
2009/04/23 13:09:59.7     210   -187   -168    282    328 131.8 -38.1  34196  290.19 0854.44
2009/04/23 13:09:59.8     208   -208   -198    295    355 135.0 -41.6  34200  290.25 0854.44
2009/04/23 13:09:59.9     215   -100   -204    238    313 115.1 -49.5  34196  290.17 0854.44
2009/04/23 13:10:00.0     166   -126   -105    209    233 127.3 -33.1  34194  290.14 0854.44
2009/04/23 13:10:00.1     108   -241   -183    265    322 155.9 -42.3  34198  290.22 0854.44
2009/04/23 13:10:00.2     131   -217    -98    254    272 148.8 -26.5  34202  290.27 0854.44
2009/04/23 13:10:00.3     168   -210   -104    270    289 141.3 -26.4  34202  290.27 0854.44
2009/04/23 13:10:00.4      98   -286    -67    303    311 161.1 -12.5  34196  290.19 0854.45
2009/04/23 13:10:00.5       0   -185    -86    186    204 180.2 -31.4  34198  290.23 0854.45
2009/04/23 13:10:00.6     -40   -286   -155    289    327 188.0 -35.0  34200  290.24 0854.45
2009/04/23 13:10:00.7     -55   -336    -88    341    353 189.4 -14.5  34190  290.08 0854.45
2009/04/23 13:10:00.8      68   -338   -102    345    359 168.6 -21.5  34196  290.18 0854.45
2009/04/23 13:10:00.9      32   -294   -120    296    319 173.8 -27.8  34198  290.22 0854.45
2009/04/23 13:10:01.0      39   -316    -98    319    334 172.9 -17.2  34190  290.08 0854.45
2009/04/23 13:10:01.1     107   -256    -83    278    291 157.3 -16.6  34188  290.05 0854.45
2009/04/23 13:10:01.2      45   -306    -77    310    320 171.5 -14.1  34190  290.07 0854.45
2009/04/23 13:10:01.3      33   -305    -90    307    321 173.8 -16.4  34176  289.85 0854.45
2009/04/23 13:10:01.4      41   -268    -95    272    288 171.3 -24.4  34178  289.86 0854.46
2009/04/23 13:10:01.5     -20   -146   -160    148    217 188.0 -56.6  34186  290.02 0854.46
2009/04/23 13:10:01.6      25   -185   -146    187    237 172.2 -46.1  34188  290.06 0854.46
2009/04/23 13:10:01.7     -51   -156   -133    165    211 198.0 -47.9  34186  290.02 0854.46
2009/04/23 13:10:01.8       6   -255   -177    256    311 178.6 -42.0  34172  289.78 0854.46
2009/04/23 13:10:01.9      18   -236   -184    237    300 175.5 -46.1  34180  289.90 0854.46
2009/04/23 13:10:02.0      37   -264   -118    267    291 172.0 -29.6  34172  289.76 0854.46
2009/04/23 13:10:02.1      62   -249   -120    257    283 165.8 -31.5  34172  289.78 0854.46
2009/04/23 13:10:02.2      57   -239    -78    246    259 166.4 -17.6  34174  289.80 0854.46
2009/04/23 13:10:02.3      62   -308    -68    315    323 168.5 -12.2  34174  289.81 0854.46
2009/04/23 13:10:02.4      11   -267    -84    268    282 177.5 -17.5  34182  289.93 0854.46
2009/04/23 13:10:02.5      -6   -245    -78    246    259 181.6 -17.6  34178  289.88 0854.46
2009/04/23 13:10:02.6      23   -251    -74    253    264 174.7 -16.4  34176  289.85 0854.46
2009/04/23 13:10:02.7      52   -194    -55    201    209 164.9 -15.5  34170  289.75 0854.46
2009/04/23 13:10:02.8     100   -211     -1    234    235 154.5  -0.3  34170  289.75 0854.46
2009/04/23 13:10:02.9     109   -197     22    226    228 151.1   5.7  34170  289.75 0854.46
2009/04/23 13:10:03.0     112   -163     15    199    200 145.5   4.6  34170  289.74 0854.46
2009/04/23 13:10:03.1      78   -198     14    213    214 158.4   3.8  34172  289.77 0854.46
2009/04/23 13:10:03.2      48   -162    -49    169    175 163.5 -21.0  34174  289.82 0854.46
2009/04/23 13:10:03.3      25   -148    -42    151    156 170.2 -20.0  34176  289.85 0854.46
2009/04/23 13:10:03.4      38   -169    -37    174    179 167.1 -12.2  34176  289.85 0854.48
2009/04/23 13:10:03.5      34   -157    -33    161    165 167.7 -11.9  34174  289.80 0854.48
2009/04/23 13:10:03.6      52   -156    -22    165    167 161.5  -7.7  34172  289.79 0854.48
2009/04/23 13:10:03.7      63   -134    -17    149    151 154.7  -6.7  34174  289.82 0854.48
2009/04/23 13:10:03.8      42   -125    -17    132    134 161.3  -7.7  34176  289.84 0854.48
2009/04/23 13:10:03.9      84   -133     -4    158    159 147.5  -1.8  34172  289.79 0854.48
2009/04/23 13:10:04.0      80   -169     14    188    189 154.5   4.4  34174  289.82 0854.48
2009/04/23 13:10:04.1      54   -166     10    175    176 161.7   3.3  34172  289.79 0854.48
2009/04/23 13:10:04.2      70   -181    -13    195    196 158.8  -3.9  34172  289.77 0854.48
2009/04/23 13:10:04.3      42   -205    -22    210    212 168.4  -6.0  34174  289.82 0854.48
2009/04/23 13:10:04.4      25   -191    -12    193    194 172.4  -3.7  34174  289.82 0854.48
2009/04/23 13:10:04.5      23   -169    -29    171    174 172.2  -9.6  34178  289.87 0854.48
2009/04/23 13:10:04.6      12   -135   -107    136    173 174.7 -46.6  34184  289.97 0854.48
2009/04/23 13:10:04.7      24   -143    -86    146    169 170.2 -37.9  34184  289.97 0854.48
2009/04/23 13:10:04.8      42   -115    -41    123    129 160.0 -23.6  34184  289.99 0854.48
2009/04/23 13:10:04.9      42   -127    -49    134    142 161.7 -25.3  34182  289.94 0854.48
2009/04/23 13:10:05.0      41   -144    -25    150    153 164.0  -9.8  34182  289.94 0854.48
2009/04/23 13:10:05.1      69   -125    -18    143    145 151.1  -7.3  34182  289.96 0854.48
2009/04/23 13:10:05.2      72    -96     -2    121    122 143.0  -1.2  34184  289.99 0854.48
2009/04/23 13:10:05.3      54   -100     -6    114    115 151.5  -3.1  34186  290.02 0854.48
2009/04/23 13:10:05.4      30    -71     18     78     81 157.3  13.2  34184  289.97 0854.50
2009/04/23 13:10:05.5     -18    -55     22     58     62 198.5  22.0  34184  289.99 0854.50
2009/04/23 13:10:05.6     -24    -38     11     46     48 212.6  14.3  34184  289.97 0854.50
2009/04/23 13:10:05.7     -21    -25     13     33     35 219.6  21.0  34188  290.04 0854.50
2009/04/23 13:10:05.8     -33    -17      6     38     39 242.9  10.1  34184  289.97 0854.50
2009/04/23 13:10:05.9     -32    -15     10     36     38 244.7  15.3  34188  290.04 0854.50
2009/04/23 13:10:06.0     -38      2     12     39     41 274.3  17.3  34184  289.99 0854.50
2009/04/23 13:10:06.1     -34     -3     20     35     40 263.9  32.4  34186  290.02 0854.50
2009/04/23 13:10:06.2     -39     11     29     41     50 285.9  38.6  34198  290.21 0854.50
2009/04/23 13:10:06.3     -51      0     24     52     57 270.0  27.1  34192  290.13 0854.50
2009/04/23 13:10:06.4     -34    -24      1     42     43 234.9   1.8  34198  290.23 0854.50
2009/04/23 13:10:06.5     -20    -32     14     39     41 212.5  20.0  34204  290.31 0854.50
2009/04/23 13:10:06.6     -47    -32      0     58     59 235.8  -0.3  34202  290.30 0854.50
2009/04/23 13:10:06.7     -26    -27     17     38     41 223.4  25.1  34200  290.25 0854.50
2009/04/23 13:10:06.8      18    -30     51     36     62 149.3  60.6  34208  290.40 0854.50
2009/04/23 13:10:06.9      -3    -35     52     36     63 186.2  61.5  34202  290.28 0854.50
2009/04/23 13:10:07.0       9    -28     50     30     58 161.3  64.7  34198  290.23 0854.50
2009/04/23 13:10:07.1      20    -74     46     77     89 164.9  34.0  34188  290.06 0854.50
2009/04/23 13:10:07.2       5    -85     39     86     94 176.4  25.7  34182  289.94 0854.50
2009/04/23 13:10:07.3     -31   -108     65    113    130 196.0  32.9  34184  289.97 0854.50
2009/04/23 13:10:07.4     -38   -138     18    144    146 195.6   7.1  34178  289.89 0854.51
2009/04/23 13:10:07.5     -65   -148      6    162    163 203.7   2.3  34180  289.91 0854.51
2009/04/23 13:10:07.6     -51   -173     19    181    183 196.7   6.1  34180  289.91 0854.51
2009/04/23 13:10:07.7     -84   -182      1    201    202 204.7   0.5  34178  289.89 0854.51
2009/04/23 13:10:07.8     -72   -158     21    174    176 204.7   6.9  34184  289.97 0854.51
2009/04/23 13:10:07.9     -48   -107     66    118    135 204.1  31.9  34186  290.02 0854.51
2009/04/23 13:10:08.0      -3    -97     90     98    133 181.8  47.9  34192  290.11 0854.51
2009/04/23 13:10:08.1     -11    -78     65     79    102 188.1  43.8  34190  290.09 0854.51
2009/04/23 13:10:08.2      58   -145     78    157    175 158.1  28.2  34182  289.96 0854.51
2009/04/23 13:10:08.3      74    -96     71    122    141 142.2  32.9  34184  289.99 0854.51
2009/04/23 13:10:08.4      67   -106     82    126    150 147.4  35.6  34184  289.99 0854.51
2009/04/23 13:10:08.5      76    -88     97    117    151 139.0  43.8  34190  290.08 0854.51
2009/04/23 13:10:08.6      64   -120     54    137    147 151.9  23.0  34182  289.96 0854.51
2009/04/23 13:10:08.7      40   -150     34    156    160 164.9  12.4  34180  289.91 0854.51
2009/04/23 13:10:08.8      32   -160     20    164    166 168.7   7.2  34180  289.92 0854.51
2009/04/23 13:10:08.9      88   -197    -22    216    218 155.9  -6.0  34180  289.92 0854.51
2009/04/23 13:10:09.0     105   -221    -13    245    246 154.6  -3.1  34180  289.92 0854.51
2009/04/23 13:10:09.1      26   -239     -9    241    242 173.7  -2.2  34178  289.88 0854.51
2009/04/23 13:10:09.2       6   -227     -8    228    229 178.4  -2.2  34180  289.92 0854.51
2009/04/23 13:10:09.3       9   -192     30    193    196 177.3   8.9  34178  289.89 0854.51
2009/04/23 13:10:09.4      57   -191      8    200    201 163.3   2.5  34182  289.94 0854.52
2009/04/23 13:10:09.5      53   -197     10    205    206 164.9   2.9  34182  289.94 0854.52
2009/04/23 13:10:09.6      77   -191     21    207    209 157.9   5.9  34182  289.94 0854.52
2009/04/23 13:10:09.7      77   -153     30    172    175 153.3  10.1  34182  289.96 0854.52
2009/04/23 13:10:09.8      73   -152     33    169    173 154.1  11.1  34182  289.94 0854.52
2009/04/23 13:10:09.9      80   -144     49    165    173 151.0  16.8  34184  289.97 0854.52
2009/04/23 13:10:10.0      58   -149     56    161    171 158.6  19.4  34186  290.01 0854.52
2009/04/23 13:10:10.1      71   -112     81    133    155 147.5  35.0  34182  289.94 0854.52
2009/04/23 13:10:10.2      81   -116     85    142    165 144.8  34.0  34182  289.94 0854.52
2009/04/23 13:10:10.3      65   -112     76    130    150 149.7  33.4  34186  290.01 0854.52
2009/04/23 13:10:10.4      56   -105     94    120    152 151.9  42.7  34188  290.04 0854.52
2009/04/23 13:10:10.5      52    -98     77    112    135 151.9  37.6  34186  290.02 0854.52
2009/04/23 13:10:10.6      52    -38     83     65    105 126.0  57.9  34194  290.16 0854.52
2009/04/23 13:10:10.7      90    -23     76     94    120 104.6  43.7  34192  290.11 0854.52
2009/04/23 13:10:10.8     110   -118     72    162    177 136.8  25.7  34186  290.01 0854.52
2009/04/23 13:10:10.9      46   -116     95    126    157 158.2  40.9  34188  290.06 0854.52
2009/04/23 13:10:11.0      93   -168     89    193    212 151.0  26.6  34188  290.04 0854.52
2009/04/23 13:10:11.1      64   -182     80    194    209 160.6  23.8  34188  290.04 0854.52
2009/04/23 13:10:11.2     106   -120     22    161    163 138.5   7.8  34184  289.97 0854.52
2009/04/23 13:10:11.3      41    -87     54     97    111 154.7  31.4  34184  289.97 0854.52
2009/04/23 13:10:11.4       9   -133    101    134    167 176.0  40.9  34188  290.06 0854.52
2009/04/23 13:10:11.5      10    -82    140     83    162 172.9  66.4  34192  290.13 0854.52
2009/04/23 13:10:11.6      -1    -62    109     63    125 181.8  66.8  34186  290.02 0854.52
2009/04/23 13:10:11.7     -78   -198    169    214    272 201.6  42.4  34184  289.98 0854.52
2009/04/23 13:10:11.8     -42   -165    177    171    246 194.3  51.2  34184  289.97 0854.52
2009/04/23 13:10:11.9     -70   -179    166    193    254 201.4  44.9  34184  289.97 0854.52
2009/04/23 13:10:12.0     -40   -163    138    169    218 194.0  43.7  34182  289.94 0854.52
2009/04/23 13:10:12.1      43    -43    120     61    134 135.0  71.0  34198  290.23 0854.52
2009/04/23 13:10:12.2       6      6    124      9    124  46.7  90.0  34206  290.35 0854.52
2009/04/23 13:10:12.3      72     -7    139     73    157  96.1  70.4  34204  290.31 0854.52
2009/04/23 13:10:12.4      94    -60     91    112    144 122.4  43.7  34192  290.11 0854.52
2009/04/23 13:10:12.5      51    -68     32     86     91 143.0  21.0  34192  290.13 0854.52
2009/04/23 13:10:12.6      68   -123    -28    141    144 151.1 -11.5  34184  289.99 0854.52
2009/04/23 13:10:12.7      37   -112    -54    118    129 161.7 -31.0  34188  290.06 0854.52
2009/04/23 13:10:12.8     -43   -119    -80    127    150 200.1 -39.9  34186  290.02 0854.52
2009/04/23 13:10:12.9     -89   -107    -54    140    150 219.6 -26.4  34198  290.23 0854.52
2009/04/23 13:10:13.0    -112    -95    -18    148    150 229.6  -7.2  34200  290.25 0854.52
2009/04/23 13:10:13.1    -113    -41    -57    121    133 250.0 -31.6  34202  290.30 0854.52
2009/04/23 13:10:13.2     -98   -138     -1    170    171 215.6  -0.5  34208  290.40 0854.52
2009/04/23 13:10:13.3    -215    -40    -61    219    227 259.4 -20.0  34210  290.41 0854.52
2009/04/23 13:10:13.4    -190    -38   -112    194    224 258.6 -37.3  34208  290.38 0854.54
2009/04/23 13:10:13.5    -245   -101     61    265    273 247.6  13.1  34220  290.58 0854.54
2009/04/23 13:10:13.6    -230    -76    -40    243    247 251.6  -9.4  34226  290.70 0854.54
2009/04/23 13:10:13.7    -224    -81    -81    239    253 250.0 -18.7  34226  290.70 0854.54
2009/04/23 13:10:13.8    -219   -109    -72    245    255 243.4 -21.0  34228  290.71 0854.54
2009/04/23 13:10:13.9    -160   -141   -127    214    248 228.7 -37.9  34214  290.49 0854.54
2009/04/23 13:10:14.0     -74   -153   -126    171    212 205.9 -44.3  34214  290.50 0854.54
2009/04/23 13:10:14.1     -58   -143   -124    155    198 202.3 -47.1  34212  290.45 0854.54
2009/04/23 13:10:14.2      63   -186    -97    197    219 161.3 -32.4  34214  290.48 0854.54
2009/04/23 13:10:14.3      58   -145    -75    157    173 158.1 -31.7  34214  290.50 0854.54
2009/04/23 13:10:14.4     -30    -98    -41    103    110 197.4 -27.4  34218  290.55 0854.54
2009/04/23 13:10:14.5       0    -50    -34     51     61 180.9 -40.9  34222  290.62 0854.54
2009/04/23 13:10:14.6     -10    -63    -35     64     72 189.8 -35.7  34220  290.60 0854.54
2009/04/23 13:10:14.8      10    -91    -56     92    107 173.3 -39.4  34222  290.62 0854.54
2009/04/23 13:10:14.9      -3   -107    -62    108    124 181.8 -37.3  34216  290.53 0854.54
2009/04/23 13:10:15.0     -16    -81    -16     83     85 191.6 -11.3  34210  290.43 0854.54
2009/04/23 13:10:15.1     -63    -40    -37     75     83 237.6 -32.6  34214  290.50 0854.54
2009/04/23 13:10:15.2     -84    -10    -34     85     91 263.0 -26.9  34214  290.48 0854.54
2009/04/23 13:10:15.3    -119    -36     12    125    126 253.1   5.9  34212  290.47 0854.54
2009/04/23 13:10:15.4     -53   -132     32    143    147 201.9  12.6  34210  290.43 0854.54
2009/04/23 13:10:15.5     -11   -155     -5    156    157 184.4  -2.1  34196  290.18 0854.57
2009/04/23 13:10:15.6      -8   -148    -19    149    151 183.1  -7.3  34190  290.09 0854.57
2009/04/23 13:10:15.7     -22   -157     -8    159    160 188.1  -3.1  34198  290.23 0854.57
2009/04/23 13:10:15.8    -109    -61    -10    126    127 240.7  -4.6  34204  290.31 0854.57
2009/04/23 13:10:15.9     -96    -68     17    118    120 234.5   8.5  34208  290.40 0854.57
2009/04/23 13:10:16.0     -44    -74     30     87     93 210.7  18.9  34208  290.40 0854.57
2009/04/23 13:10:16.1      -6   -125     -2    126    127 183.1  -1.3  34200  290.26 0854.57
2009/04/23 13:10:16.2     -52   -115     -7    127    128 204.5  -3.2  34210  290.41 0854.57
2009/04/23 13:10:16.3     -55    -87    -18    104    106 212.5  -9.8  34214  290.48 0854.57
2009/04/23 13:10:16.4     -80    -76    -22    111    114 226.4 -11.3  34216  290.53 0854.57
2009/04/23 13:10:16.5     -88    -76    -28    117    121 229.1 -13.4  34220  290.60 0854.57
2009/04/23 13:10:16.6     -27    -68     25     74     79 201.8  19.2  34212  290.47 0854.57
2009/04/23 13:10:16.7       4    -59     74     60     95 175.5  56.4  34202  290.30 0854.57
2009/04/23 13:10:16.8     -34    -53     82     64    104 212.5  57.9  34208  290.38 0854.57
2009/04/23 13:10:16.9     -61    -43     87     75    114 234.9  55.4  34206  290.35 0854.57
2009/04/23 13:10:17.0     -98    -47     56    109    122 244.2  29.3  34202  290.30 0854.57
2009/04/23 13:10:17.1     -62    -43     37     76     84 234.9  27.8  34206  290.36 0854.57
2009/04/23 13:10:17.2       3    -11     24     12     26 161.5  70.8  34206  290.35 0854.57
2009/04/23 13:10:17.3      -2    -24     57     25     62 186.2  75.0  34210  290.41 0854.57
2009/04/23 13:10:17.4     -67    -40    121     79    144 239.3  64.6  34210  290.41 0854.57
2009/04/23 13:10:17.5       6    -78    131     79    152 175.5  65.7  34206  290.36 0854.57
2009/04/23 13:10:17.6     -42   -128    118    135    179 198.5  45.6  34200  290.25 0854.57
2009/04/23 13:10:17.7     -17   -123    146    125    192 188.0  55.4  34204  290.31 0854.57
2009/04/23 13:10:17.8     -57   -144    135    156    206 201.8  45.4  34198  290.21 0854.57
2009/04/23 13:10:17.9     -21   -156    154    158    220 188.0  49.4  34204  290.33 0854.57
2009/04/23 13:10:18.0     -74   -221    185    234    298 198.7  42.4  34212  290.44 0854.57
2009/04/23 13:10:18.1     -91   -209    136    229    266 203.6  33.5  34208  290.39 0854.57
2009/04/23 13:10:18.2    -127   -191    120    230    259 213.6  29.8  34216  290.51 0854.57
2009/04/23 13:10:18.3     -99   -192    152    217    264 207.4  38.6  34204  290.31 0854.57
2009/04/23 13:10:18.4    -110   -175    174    207    270 212.1  44.1  34208  290.39 0854.57
2009/04/23 13:10:18.5     -78   -131    140    153    207 210.7  47.5  34214  290.50 0854.57
2009/04/23 13:10:18.6     -77   -139    161    160    226 209.0  50.1  34208  290.38 0854.57
2009/04/23 13:10:18.7     -39   -118    167    125    208 198.3  59.4  34204  290.33 0854.57
2009/04/23 13:10:18.8     -44   -146    155    153    217 196.9  50.2  34218  290.55 0854.57
2009/04/23 13:10:18.9     -35   -110    156    116    194 197.8  60.0  34214  290.48 0854.57
2009/04/23 13:10:19.0     -59   -148    181    160    241 201.9  54.0  34216  290.53 0854.57
2009/04/23 13:10:19.1     -80   -177    193    195    274 204.3  49.9  34208  290.39 0854.57
2009/04/23 13:10:19.2    -113   -174    153    208    258 213.2  39.7  34212  290.44 0854.57
2009/04/23 13:10:19.3    -103   -171    149    200    249 211.2  40.6  34218  290.54 0854.57
2009/04/23 13:10:19.4    -116   -123    129    170    213 223.2  41.2  34224  290.65 0854.57
2009/04/23 13:10:19.5    -112   -113    135    160    209 224.7  44.3  34230  290.75 0854.57
2009/04/23 13:10:19.6    -119   -122    152    171    228 224.1  46.2  34222  290.62 0854.57
2009/04/23 13:10:19.7     -58    -79    156     99    184 216.5  64.7  34224  290.65 0854.57
2009/04/23 13:10:19.8     -57   -120    163    134    211 205.5  56.4  34206  290.36 0854.57
2009/04/23 13:10:19.9     -78   -112    149    137    202 214.7  52.5  34216  290.52 0854.57
2009/04/23 13:10:20.0    -124    -67     94    142    170 241.6  36.5  34210  290.43 0854.57
2009/04/23 13:10:20.1     -16      9    122     19    123 298.9  90.0  34222  290.62 0854.57
2009/04/23 13:10:20.2     -53    -10     97     55    111 258.5  68.3  34224  290.67 0854.57
2009/04/23 13:10:20.3     -75     47     98     89    132 302.0  52.7  34228  290.72 0854.57
2009/04/23 13:10:20.4     -80     68    119    106    159 310.4  53.5  34232  290.81 0854.57
2009/04/23 13:10:20.5    -121     36     89    127    155 286.8  38.6  34234  290.82 0854.57
2009/04/23 13:10:20.6      58     91     59    108    123  32.5  31.3  34214  290.48 0854.57
2009/04/23 13:10:20.7     150     68    143    165    218  65.6  45.6  34196  290.19 0854.57
2009/04/23 13:10:20.8     105     61    127    122    176  59.8  51.2  34198  290.23 0854.57
2009/04/23 13:10:20.9      35     28     90     45    100  51.4  71.9  34204  290.33 0854.57
2009/04/23 13:10:21.0     -45      2     40     46     60 272.6  45.8  34210  290.43 0854.57
2009/04/23 13:10:21.1     -12    154     69    155    169 355.5  25.9  34206  290.36 0854.57
2009/04/23 13:10:21.2     -26    109    117    113    162 346.2  50.9  34212  290.47 0854.57
2009/04/23 13:10:21.3     -16    112    107    114    156 351.9  48.0  34208  290.38 0854.57
2009/04/23 13:10:21.4    -102     15    113    104    153 278.8  52.2  34226  290.70 0854.57
2009/04/23 13:10:21.5     -76     71     84    105    134 313.1  43.3  34220  290.58 0854.57
2009/04/23 13:10:21.6     -72     78     74    107    130 317.2  37.6  34214  290.48 0854.57
2009/04/23 13:10:21.7     -66     63     93     92    130 314.0  50.1  34218  290.55 0854.57
2009/04/23 13:10:21.8       4    103     96    104    141   2.2  47.9  34216  290.53 0854.57
2009/04/23 13:10:21.9     -39     98     98    106    144 338.2  47.9  34212  290.47 0854.57
2009/04/23 13:10:22.0     -28     87    108     92    141 341.7  55.4  34232  290.81 0854.57
2009/04/23 13:10:22.1      53    133     96    144    173  21.9  36.5  34220  290.58 0854.57
2009/04/23 13:10:22.2      23    114     37    117    123  11.5  17.9  34212  290.47 0854.57
2009/04/23 13:10:22.3      -9    156     90    157    180 356.4  32.1  34214  290.48 0854.57
2009/04/23 13:10:22.4    -124     67    139    142    198 298.4  49.8  34226  290.70 0854.57
2009/04/23 13:10:22.5    -114     38     87    121    149 288.6  39.5  34228  290.74 0854.57
2009/04/23 13:10:22.6     -75     34     74     83    111 294.8  46.4  34256  291.21 0854.57
2009/04/23 13:10:22.7     -21    -17     73     28     78 230.5  79.2  34252  291.13 0854.57
2009/04/23 13:10:22.8     -10    -40     91     42    100 195.1  73.5  34246  291.03 0854.57
2009/04/23 13:10:22.9      33     21    115     40    121  57.6  80.7  34238  290.91 0854.57
2009/04/23 13:10:23.0      78     41    121     89    150  62.0  60.5  34226  290.70 0854.57
2009/04/23 13:10:23.1      96      5    140     97    170  86.5  62.1  34226  290.69 0854.57
2009/04/23 13:10:23.2      55     18     90     58    107  71.8  64.6  34234  290.84 0854.57
2009/04/23 13:10:23.3      36     47     69     60     91  37.8  54.8  34238  290.89 0854.57
2009/04/23 13:10:23.4      25     61     41     67     78  22.7  34.4  34234  290.84 0854.57
2009/04/23 13:10:23.5      -4     74     22     75     79 356.4  16.8  34238  290.91 0854.57
2009/04/23 13:10:23.6     -58    102     11    118    119 330.1   5.4  34244  290.99 0854.57
2009/04/23 13:10:23.7     -45    113     -8    122    123 338.1  -4.1  34244  291.01 0854.57
2009/04/23 13:10:23.8     -24     75    -21     79     82 341.7 -15.0  34248  291.06 0854.57
2009/04/23 13:10:23.9     -75     67    -67    101    121 311.8 -41.4  34246  291.03 0854.57
2009/04/23 13:10:24.0    -136    -36     -4    141    142 255.0  -1.8  34252  291.15 0854.57
2009/04/23 13:10:24.1    -101    -33      5    107    108 251.8   2.9  34254  291.18 0854.57
2009/04/23 13:10:24.2    -117     47      8    127    128 291.8   3.8  34260  291.26 0854.57
2009/04/23 13:10:24.3     -80     63     58    102    117 308.2  31.9  34264  291.35 0854.57
2009/04/23 13:10:24.4    -124      9     44    125    133 274.4  19.4  34260  291.28 0854.57
2009/04/23 13:10:24.5     -73    -24     47     78     91 251.4  34.0  34266  291.37 0854.57
2009/04/23 13:10:24.6     -56    -16     41     59     71 254.1  38.6  34268  291.40 0854.57
2009/04/23 13:10:24.7    -102     69     43    124    132 304.2  19.4  34270  291.45 0854.57
2009/04/23 13:10:24.8     -69    108     49    129    137 327.5  22.0  34274  291.50 0854.57
2009/04/23 13:10:24.9    -114    138     43    180    186 320.4  13.5  34284  291.67 0854.57
2009/04/23 13:10:25.0    -153    351     51    384    388 336.4   7.6  34328  292.41 0854.57
2009/04/23 13:10:25.1    -195    362     41    412    415 331.6   5.8  34324  292.37 0854.57
2009/04/23 13:10:25.2    -177    284    126    335    357 328.1  21.5  34400  293.67 0854.57
2009/04/23 13:10:25.3    -140    200     76    245    257 325.0  17.4  34368  293.11 0854.57
2009/04/23 13:10:25.4    -164    211     73    268    278 322.2  15.3  34332  292.48 0854.57
2009/04/23 13:10:25.5    -138    271     15    305    306 332.9   2.9  34348  292.76 0854.57
2009/04/23 13:10:25.6     -97    181     48    206    212 331.9  13.2  34342  292.66 0854.57
2009/04/23 13:10:25.7     -56    136     83    148    169 337.7  31.9  34358  292.93 0854.57
2009/04/23 13:10:25.8      13     90    130     92    159   8.5  61.3  34372  293.17 0854.57
2009/04/23 13:10:25.9     163     21    154    165    225  82.5  47.9  34334  292.54 0854.57
2009/04/23 13:10:26.0     224    144    142    267    302  57.1  30.3  34302  291.99 0854.57
2009/04/23 13:10:26.1     197    178     52    266    272  47.8  11.1  34296  291.87 0854.57
2009/04/23 13:10:26.2     218    217     74    308    317  45.2  13.7  34298  291.92 0854.57
2009/04/23 13:10:26.3     208    202     99    291    308  45.8  18.9  34316  292.21 0854.57
2009/04/23 13:10:26.4     199    154     98    252    270  52.2  22.5  34322  292.33 0854.58
2009/04/23 13:10:26.5     269    148     64    308    315  61.1  11.8  34304  292.01 0854.58
2009/04/23 13:10:26.6     204    145     86    251    266  54.5  18.9  34316  292.23 0854.58
2009/04/23 13:10:26.7     221    149    137    267    300  55.9  29.3  34332  292.50 0854.58
2009/04/23 13:10:26.8     197    148     82    247    261  53.1  18.5  34332  292.48 0854.58
2009/04/23 13:10:26.9     259    121    151    287    324  64.9  30.0  34334  292.53 0854.58
2009/04/23 13:10:27.0     261    144    199    299    359  61.1  36.7  34336  292.56 0854.58
2009/04/23 13:10:27.1     255    116    105    281    299  65.6  21.3  34290  291.77 0854.58
2009/04/23 13:10:27.2     225    138    137    264    297  58.5  29.3  34294  291.85 0854.58
2009/04/23 13:10:27.3     289    115    165    312    352  68.3  30.1  34304  292.02 0854.58
2009/04/23 13:10:27.4     314     99    150    330    362  72.4  26.3  34314  292.20 0854.58
2009/04/23 13:10:27.5     340    104    174    356    396  73.0  28.1  34326  292.39 0854.58
2009/04/23 13:10:27.6     267    121    140    294    325  65.6  27.3  34330  292.45 0854.58
2009/04/23 13:10:27.7     277    131    147    307    340  64.6  27.3  34328  292.41 0854.58
2009/04/23 13:10:27.8     345    163     82    382    391  64.6  12.2  34322  292.31 0854.58
2009/04/23 13:10:27.9     257    226     53    343    348  48.7   8.8  34326  292.39 0854.58
2009/04/23 13:10:28.0     274    231     70    359    366  49.8  11.1  34326  292.39 0854.58
2009/04/23 13:10:28.1     287    216     77    360    369  53.0  12.1  34318  292.24 0854.58
2009/04/23 13:10:28.2     227    222    110    318    337  45.6  19.2  34318  292.24 0854.58
2009/04/23 13:10:28.3     275    214     61    349    355  52.0  10.0  34302  292.00 0854.58
2009/04/23 13:10:28.4     110    198    -70    227    238  29.0 -17.3  34316  292.21 0854.58
2009/04/23 13:10:28.5      98    246     13    266    267  21.8   2.8  34294  291.84 0854.58
2009/04/23 13:10:28.6      71    215     39    227    231  18.5   9.9  34294  291.84 0854.58
2009/04/23 13:10:28.7     253    127    -11    284    285  63.4  -2.2  34324  292.35 0854.58
2009/04/23 13:10:28.8     297    154     19    335    336  62.6   3.3  34330  292.46 0854.58
2009/04/23 13:10:28.9     195    163    131    255    286  50.0  29.3  34330  292.45 0854.58
2009/04/23 13:10:29.0     286    173     41    335    338  58.9   7.1  34322  292.34 0854.58
2009/04/23 13:10:29.1     290    175    135    339    364  58.8  23.0  34322  292.34 0854.58
2009/04/23 13:10:29.2     106    293    146    312    344  20.0  27.1  34232  290.81 0854.58
2009/04/23 13:10:29.3     263    263     -7    373    374  45.0  -1.2  34294  291.85 0854.58
2009/04/23 13:10:29.4     378    177     90    418    428  64.9  12.2  34326  292.40 0854.58
2009/04/23 13:10:29.5     396    223     97    455    466  60.6  12.1  34292  291.80 0854.58
2009/04/23 13:10:29.6     337    223     82    405    414  56.5  11.4  34290  291.77 0854.58
2009/04/23 13:10:29.7     250    174     93    305    320  55.1  17.0  34288  291.75 0854.58
2009/04/23 13:10:29.8     118    272    140    297    328  23.6  27.1  34256  291.19 0854.58
2009/04/23 13:10:29.9     217    258     63    338    344  40.0  10.6  34264  291.34 0854.58
2009/04/23 13:10:30.0     208    172     55    271    277  50.4  11.6  34268  291.41 0854.58
2009/04/23 13:10:30.1      64    212    128    222    256  16.9  32.4  34254  291.17 0854.58
2009/04/23 13:10:30.2      45    270     96    274    290   9.6  20.0  34236  290.85 0854.58
2009/04/23 13:10:30.3     202    265     40    334    337  37.4   6.9  34250  291.11 0854.58
2009/04/23 13:10:30.4     141    223     88    264    279  32.3  18.4  34260  291.26 0854.57
2009/04/23 13:10:30.5     178    170     -2    247    248  46.4  -0.5  34288  291.75 0854.57
2009/04/23 13:10:30.6     226    143     33    268    271  57.8   7.1  34278  291.58 0854.57
2009/04/23 13:10:30.7     196    146     -7    245    246  53.4  -1.8  34264  291.34 0854.57
2009/04/23 13:10:30.8      99    160     42    189    194  31.6  12.6  34256  291.21 0854.57
2009/04/23 13:10:30.9      89    148     98    173    198  31.0  31.9  34248  291.06 0854.57
2009/04/23 13:10:31.0      12    178     69    179    191   4.0  22.3  34250  291.09 0854.57
2009/04/23 13:10:31.1     156    148     59    216    224  46.4  15.3  34262  291.30 0854.57
2009/04/23 13:10:31.2     209    167    100    268    286  51.4  21.3  34286  291.70 0854.57
2009/04/23 13:10:31.3     300    182     43    352    355  58.7   7.1  34312  292.17 0854.57
2009/04/23 13:10:31.4     341    279     76    441    448  50.7   9.9  34308  292.08 0854.57
2009/04/23 13:10:31.5     375    229     96    440    451  58.6  12.4  34310  292.13 0854.57
2009/04/23 13:10:31.6     231    156    104    279    297  55.9  21.3  34274  291.50 0854.57
2009/04/23 13:10:31.7     305    305    122    432    450  45.0  15.8  34242  290.97 0854.57
2009/04/23 13:10:31.8     371    176    118    411    428  64.6  16.1  34242  290.95 0854.57
2009/04/23 13:10:31.9     418    255    132    490    508  58.6  15.1  34266  291.36 0854.57
2009/04/23 13:10:32.0     335    150    206    368    421  65.9  31.6  34306  292.06 0854.57
2009/04/23 13:10:32.1     198    295    253    356    436  33.9  38.8  34292  291.80 0854.57
2009/04/23 13:10:32.2     204    305    142    368    394  33.8  22.2  34260  291.27 0854.57
2009/04/23 13:10:32.3     207    271    143    342    370  37.4  23.9  34294  291.85 0854.57
2009/04/23 13:10:32.4     229    377    137    442    463  31.3  17.3  34208  290.38 0854.56
2009/04/23 13:10:32.5     276    360    155    454    481  37.5  18.9  34236  290.85 0854.56
2009/04/23 13:10:32.6     261    293    149    393    420  41.7  21.7  34240  290.92 0854.56
2009/04/23 13:10:32.7     176    293    123    343    364  31.0  20.6  34210  290.42 0854.56
2009/04/23 13:10:32.8     207    250     92    325    338  39.6  15.8  34258  291.22 0854.56
2009/04/23 13:10:32.9     124    316      4    340    341  21.4   0.8  34228  290.74 0854.56
2009/04/23 13:10:33.0     185    296     14    350    351  32.0   2.3  34212  290.45 0854.56
2009/04/23 13:10:33.1     222    223    -53    315    320  44.9  -9.7  34188  290.05 0854.56
2009/04/23 13:10:33.2     229    175    -15    289    290  52.5  -3.1  34204  290.32 0854.56
2009/04/23 13:10:33.3     247    228    -30    337    339  47.4  -5.2  34202  290.28 0854.56
2009/04/23 13:10:33.4     357    221    -18    421    422  58.2  -2.5  34264  291.33 0854.56
2009/04/23 13:10:33.5     427    164    -41    458    460  68.9  -5.2  34232  290.80 0854.56
2009/04/23 13:10:33.6     344    183     -1    390    391  62.0  -0.3  34280  291.62 0854.56
2009/04/23 13:10:33.7     350    131    -33    374    376  69.4  -5.2  34276  291.54 0854.56
2009/04/23 13:10:33.8     468      0    -49    469    472  90.0  -6.1  34248  291.05 0854.56
2009/04/23 13:10:33.9     322     60    -10    328    329  79.4  -1.8  34238  290.90 0854.56
2009/04/23 13:10:34.0     267    -80     64    279    287 106.8  12.9  34222  290.63 0854.56
2009/04/23 13:10:34.1     275     21    -84    276    288  85.6 -21.8  34202  290.29 0854.56
2009/04/23 13:10:34.2     269     90     83    284    296  71.4  16.4  34188  290.05 0854.56
2009/04/23 13:10:34.3     313    144     79    345    354  65.3  12.9  34200  290.25 0854.56
2009/04/23 13:10:34.4     157    187    171    245    298  39.9  38.5  34242  290.95 0854.53
2009/04/23 13:10:34.5     211    150    184    260    318  54.5  38.8  34272  291.46 0854.53
2009/04/23 13:10:34.6     121    121    124    172    212  45.0  39.3  34252  291.13 0854.53
2009/04/23 13:10:34.7     229    108    115    254    278  64.6  26.2  34228  290.73 0854.53
2009/04/23 13:10:34.8     235     76     29    247    249  72.1   6.9  34196  290.19 0854.53
2009/04/23 13:10:34.9     222     59    -20    230    231  75.0  -5.1  34198  290.21 0854.53
2009/04/23 13:10:35.0     181     63      7    192    193  70.7   2.1  34204  290.33 0854.53
2009/04/23 13:10:35.1     170      3    -58    171    180  88.7 -23.3  34196  290.19 0854.53
2009/04/23 13:10:35.2     176      0    -70    177    190  89.9 -27.2  34214  290.50 0854.53
2009/04/23 13:10:35.3     138     70    -47    155    161  63.0 -22.1  34188  290.06 0854.53
2009/04/23 13:10:35.4     161     70    -27    176    179  66.5  -8.8  34192  290.11 0854.53
2009/04/23 13:10:35.5     213     22    -39    215    219  83.9 -10.5  34192  290.11 0854.53
2009/04/23 13:10:35.6     233     69    -64    244    253  73.4 -14.7  34192  290.12 0854.53
2009/04/23 13:10:35.7     291    114    -73    313    322  68.5 -13.1  34192  290.12 0854.53
2009/04/23 13:10:35.9     319     59     -1    325    326  79.5  -0.3  34200  290.24 0854.53
2009/04/23 13:10:35.9     295     84    -62    307    314  74.1 -11.5  34224  290.65 0854.53
2009/04/23 13:10:36.0     264     88     23    279    281  71.4   4.9  34220  290.58 0854.53
2009/04/23 13:10:36.1     233    107     25    257    259  65.2   5.7  34226  290.70 0854.53
2009/04/23 13:10:36.2     216     74     32    229    232  70.9   8.0  34242  290.96 0854.53
2009/04/23 13:10:36.3     243    110     32    267    269  65.6   6.9  34244  291.00 0854.53
2009/04/23 13:10:36.4     235     20     73    236    248  85.0  17.3  34256  291.19 0854.52
2009/04/23 13:10:36.5     209     66    102    220    242  72.3  26.4  34248  291.05 0854.52
2009/04/23 13:10:36.6     267    -71     43    277    281 105.1   9.0  34268  291.41 0854.52
2009/04/23 13:10:36.7     286    -62    -58    293    299 102.4 -11.3  34270  291.44 0854.52
2009/04/23 13:10:36.8     226    -18    -61    227    236  94.8 -15.2  34272  291.46 0854.52
2009/04/23 13:10:36.9     164     -2    -37    165    170  90.8 -12.6  34276  291.54 0854.52
2009/04/23 13:10:37.1      72    -75     -8    105    106 136.3  -4.6  34276  291.55 0854.52
2009/04/23 13:10:37.1      90    -28      3     95     96 107.3   2.3  34278  291.59 0854.52
2009/04/23 13:10:37.2     109     28     65    113    130  75.4  32.9  34282  291.64 0854.52
2009/04/23 13:10:37.3     109     56     73    123    143  62.9  33.5  34276  291.54 0854.52
2009/04/23 13:10:37.4      95     96     47    136    145  44.5  19.2  34280  291.60 0854.52
2009/04/23 13:10:37.5      88    122     32    151    155  36.0  12.2  34276  291.54 0854.52
2009/04/23 13:10:37.6      83    109     58    138    149  37.4  24.1  34278  291.57 0854.52
2009/04/23 13:10:37.7      51    216     74    223    235  13.4  18.4  34264  291.33 0854.52
2009/04/23 13:10:37.8      56    214     32    222    225  14.7   8.2  34248  291.06 0854.52
2009/04/23 13:10:37.9      91    164     40    188    193  29.0  12.2  34228  290.72 0854.52
2009/04/23 13:10:38.0      96    178     49    203    209  28.3  13.7  34214  290.50 0854.52
2009/04/23 13:10:38.1      91    211     59    231    239  23.4  14.5  34224  290.65 0854.52
2009/04/23 13:10:38.3     123    193     27    230    232  32.5   6.7  34230  290.77 0854.52
2009/04/23 13:10:38.3      91    179     39    201    205  27.0  11.0  34216  290.52 0854.52
2009/04/23 13:10:38.4      23    139     10    142    143   9.7   4.4  34210  290.43 0854.51
2009/04/23 13:10:38.5       4    146      7    147    148   1.8   2.8  34222  290.62 0854.51
2009/04/23 13:10:38.6      -4    153     13    154    155 358.2   5.0  34226  290.70 0854.51
2009/04/23 13:10:38.7     -12    165     -3    166    167 355.5  -1.1  34234  290.82 0854.51
2009/04/23 13:10:38.8     -26    167      9    170    171 351.1   3.3  34244  290.99 0854.51
2009/04/23 13:10:38.9     -37    209     10    213    214 349.8   2.9  34274  291.50 0854.51
2009/04/23 13:10:39.0       4    309     15    310    311   0.9   2.9  34282  291.63 0854.51
2009/04/23 13:10:39.1     -45    316      6    320    321 351.9   1.2  34260  291.26 0854.51
2009/04/23 13:10:39.2     -54    251    -18    257    258 347.7  -4.1  34256  291.21 0854.51
2009/04/23 13:10:39.3    -135    255    -63    289    296 332.0 -12.4  34270  291.43 0854.51
2009/04/23 13:10:39.5     -62    284    -59    291    297 347.5 -11.5  34266  291.36 0854.51
2009/04/23 13:10:39.5     -44    332    -65    335    342 352.3 -11.0  34202  290.28 0854.51
2009/04/23 13:10:39.6       6    390    -31    391    393   0.9  -4.6  34230  290.76 0854.51
2009/04/23 13:10:39.7     100    435     46    447    450  13.0   6.0  34288  291.75 0854.51
2009/04/23 13:10:39.8      65    422     45    427    430   8.8   6.1  34272  291.48 0854.51
2009/04/23 13:10:39.9      21    347    -40    348    351   3.5  -6.6  34232  290.81 0854.51
2009/04/23 13:10:40.0      -8    211    -43    212    217 357.8 -11.5  34226  290.70 0854.51
2009/04/23 13:10:40.1     -23    197    -63    199    208 353.1 -22.8  34198  290.21 0854.51
2009/04/23 13:10:40.2     -32    186    -67    189    201 350.2 -19.7  34200  290.25 0854.51
2009/04/23 13:10:40.3      16    210    -15    211    212   4.5  -4.1  34216  290.52 0854.51
2009/04/23 13:10:40.4      47    203     -4    209    210  13.1  -1.2  34194  290.16 0854.51
2009/04/23 13:10:40.5      43    211     33    216    219  11.6   8.8  34204  290.31 0854.51
2009/04/23 13:10:40.7      67    228      7    238    239  16.5   1.8  34214  290.48 0854.51
2009/04/23 13:10:40.7      84    209     -9    226    227  22.1  -2.3  34206  290.35 0854.51
2009/04/23 13:10:40.8      87    187      1    207    208  24.9   0.5  34214  290.48 0854.51
2009/04/23 13:10:40.9      41    205    -30    210    213  11.5  -8.2  34208  290.40 0854.51
2009/04/23 13:10:41.0      43    230    -15    235    236  10.7  -3.7  34200  290.24 0854.51
2009/04/23 13:10:41.1      76    202     10    217    218  20.7   2.8  34196  290.18 0854.51
2009/04/23 13:10:41.2      20    191      1    193    194   6.0   0.5  34216  290.52 0854.51
2009/04/23 13:10:41.3     -51    260    -34    266    269 348.9  -7.3  34256  291.19 0854.51
2009/04/23 13:10:41.4      11    205    -21    206    208   3.1  -6.0  34266  291.38 0854.51
2009/04/23 13:10:41.5      56    206    -43    214    219  15.2 -11.3  34244  291.01 0854.51
2009/04/23 13:10:41.6      61    227    -34    236    239  15.1  -8.3  34244  290.99 0854.51
2009/04/23 13:10:41.7      26    152    -49    155    163   9.7 -17.6  34244  291.01 0854.51
2009/04/23 13:10:41.8      69    202     53    214    221  18.9  13.9  34244  290.99 0854.51
2009/04/23 13:10:41.9      21    203     78    205    219   6.0  21.7  34246  291.04 0854.51
2009/04/23 13:10:42.0     148    162     56    220    228  42.5  14.3  34242  290.98 0854.51
2009/04/23 13:10:42.1     178    138     82    226    240  52.3  20.7  34274  291.50 0854.51
2009/04/23 13:10:42.2     193     31    131    196    235  80.8  37.3  34270  291.45 0854.51
2009/04/23 13:10:42.3     180      8    183    181    257  87.4  50.2  34244  290.99 0854.51
2009/04/23 13:10:42.4     277     13    250    278    373  87.2  46.6  34248  291.05 0854.50
2009/04/23 13:10:42.6     319     30    187    321    371  84.5  33.0  34254  291.17 0854.50
2009/04/23 13:10:42.7     339     -9    140    340    367  91.6  23.6  34260  291.27 0854.50
2009/04/23 13:10:42.8     385    -54     40    389    392  98.0   5.9  34264  291.35 0854.50
2009/04/23 13:10:42.9     377     28     19    378    379  85.7   3.0  34248  291.06 0854.50
2009/04/23 13:10:43.0     404    -64     43    410    413  99.1   6.1  34258  291.24 0854.50
2009/04/23 13:10:43.1     327    -24    -32    328    330  94.3  -5.6  34258  291.22 0854.50
2009/04/23 13:10:43.2     347    -55    -78    352    361  99.0 -12.5  34268  291.42 0854.50
2009/04/23 13:10:43.3     335     22     -6    336    337  86.1  -1.2  34272  291.49 0854.50
2009/04/23 13:10:43.4     293     52     -6    298    299  79.9  -1.3  34282  291.63 0854.50
2009/04/23 13:10:43.5     220    102    -62    243    251  65.2 -14.4  34280  291.60 0854.50
2009/04/23 13:10:43.6     198    102    -59    223    231  62.7 -15.0  34280  291.60 0854.50
2009/04/23 13:10:43.7     218     45      3    223    224  78.3   0.8  34250  291.09 0854.50
2009/04/23 13:10:43.8     208     61     10    217    218  73.6   2.8  34238  290.89 0854.50
2009/04/23 13:10:43.9     182    107     56    212    220  59.4  15.0  34260  291.28 0854.50
2009/04/23 13:10:44.0     222     90     39    240    244  67.8   9.3  34248  291.05 0854.50
2009/04/23 13:10:44.1     212     84     82    229    243  68.3  20.2  34242  290.95 0854.50
2009/04/23 13:10:44.2     221     81    117    236    263  69.8  28.2  34228  290.71 0854.50
2009/04/23 13:10:44.3     212     64    109    222    247  73.1  28.2  34216  290.53 0854.50
2009/04/23 13:10:44.4     195     92    116    216    245  64.8  30.3  34206  290.34 0854.50
2009/04/23 13:10:44.5     205     90    125    225    257  66.3  31.4  34214  290.49 0854.50
2009/04/23 13:10:44.6     173     99    107    200    226  60.2  30.6  34228  290.72 0854.50
2009/04/23 13:10:44.7     207     82     83    223    237  68.3  21.3  34226  290.68 0854.50
2009/04/23 13:10:44.8     163     76     89    180    200  64.9  28.2  34220  290.58 0854.50
2009/04/23 13:10:44.9     147     57    122    158    199  68.7  41.7  34230  290.75 0854.50
2009/04/23 13:10:45.0     180      8     90    181    202  87.4  28.2  34226  290.69 0854.50
2009/04/23 13:10:45.1     199      1     81    200    215  89.6  23.1  34228  290.72 0854.50
2009/04/23 13:10:45.2     197     -4     92    198    218  91.3  27.1  34242  290.98 0854.50
2009/04/23 13:10:45.3     153    -21     72    155    170  98.0  26.6  34252  291.13 0854.50
2009/04/23 13:10:45.4      16    -65     78     68    103 165.7  53.7  34268  291.42 0854.50
2009/04/23 13:10:45.5      43    -33     36     55     65 127.8  35.6  34266  291.37 0854.50
2009/04/23 13:10:45.6      35     39    104     53    116  41.4  71.4  34262  291.30 0854.50
2009/04/23 13:10:45.7      45    129     85    137    161  19.2  34.8  34264  291.33 0854.50
2009/04/23 13:10:45.8      -6    171     62    172    182 357.8  20.4  34270  291.45 0854.50
2009/04/23 13:10:45.9      -3    134     70    135    152 358.6  29.3  34282  291.66 0854.50
2009/04/23 13:10:46.0      49     26    115     56    127  62.0  72.8  34284  291.69 0854.50
2009/04/23 13:10:46.1     152     51     79    161    179  71.4  28.0  34272  291.49 0854.50
2009/04/23 13:10:46.2     113    172    115    207    236  33.4  31.4  34314  292.18 0854.50
2009/04/23 13:10:46.3     158     77     79    176    192  64.0  25.9  34306  292.06 0854.50
2009/04/23 13:10:46.4      91     79     38    121    127  49.1  17.4  34278  291.59 0854.50
2009/04/23 13:10:46.5      74     25     57     79     97  71.4  39.7  34258  291.23 0854.50
2009/04/23 13:10:46.6     138     55     35    149    154  68.2  13.2  34252  291.15 0854.50
2009/04/23 13:10:46.7     193     88     58    213    221  65.6  15.3  34228  290.74 0854.50
2009/04/23 13:10:46.8     206    142    100    251    270  55.4  23.0  34230  290.75 0854.50
2009/04/23 13:10:46.9     244     40     -6    248    249  80.5  -1.6  34254  291.16 0854.50
2009/04/23 13:10:47.0     187     33     23    190    192  79.9   7.1  34258  291.25 0854.50
2009/04/23 13:10:47.1     163     50     28    171    174  72.7   9.5  34244  291.01 0854.50
2009/04/23 13:10:47.2     159    101     51    189    196  57.5  15.3  34238  290.91 0854.50
2009/04/23 13:10:47.3     145     47     96    153    180  71.8  35.2  34244  291.01 0854.50
2009/04/23 13:10:47.4     135     14     96    136    166  83.9  38.8  34266  291.37 0854.50
2009/04/23 13:10:47.5     153     41     21    159    161  75.0   7.8  34268  291.40 0854.51
2009/04/23 13:10:47.6     189     26    132    191    232  81.9  37.6  34272  291.49 0854.51
2009/04/23 13:10:47.7     209     52    163    216    270  75.8  40.7  34270  291.43 0854.51
2009/04/23 13:10:47.8     202     73    205    215    297  70.1  48.5  34272  291.46 0854.51
2009/04/23 13:10:47.9     230     56    122    237    266  76.1  29.3  34268  291.41 0854.51
2009/04/23 13:10:48.0     248      6     65    249    258  88.5  14.7  34264  291.33 0854.51
2009/04/23 13:10:48.1     238     -9     46    239    244  92.4  11.0  34266  291.36 0854.51
2009/04/23 13:10:48.2     217      2    160    218    270  89.4  39.9  34268  291.39 0854.51
2009/04/23 13:10:48.3     240     -3    179    241    300  90.8  40.1  34266  291.36 0854.51
2009/04/23 13:10:48.4     192    -38    206    196    284 101.4  51.4  34272  291.48 0854.51
2009/04/23 13:10:48.5     186    -13    138    187    232  94.1  39.7  34264  291.33 0854.51
2009/04/23 13:10:48.6     267      6    122    268    294  88.5  26.2  34256  291.21 0854.51
2009/04/23 13:10:48.7     244     81    134    258    290  71.6  29.5  34266  291.38 0854.51
2009/04/23 13:10:48.8     255     97     77    274    285  69.1  15.8  34228  290.71 0854.51
2009/04/23 13:10:48.9     157     -2    181    158    240  90.9  54.3  34244  290.99 0854.51
2009/04/23 13:10:49.0     180   -102    155    207    258 119.5  40.6  34260  291.26 0854.51
2009/04/23 13:10:49.1     211   -104    108    236    259 116.4  26.2  34260  291.26 0854.51
2009/04/23 13:10:49.2     157    -89     54    181    189 119.8  16.6  34268  291.40 0854.51
2009/04/23 13:10:49.3     141     40     35    147    152  74.1  13.7  34274  291.50 0854.51
2009/04/23 13:10:49.4     105    127     31    166    169  39.6  10.6  34272  291.47 0854.52
2009/04/23 13:10:49.5      65    155     83    169    188  22.7  28.0  34276  291.54 0854.52
2009/04/23 13:10:49.6     -27    197     92    199    219 352.2  26.6  34284  291.67 0854.52
2009/04/23 13:10:49.7     -41    189     27    194    196 347.5   8.0  34294  291.86 0854.52
2009/04/23 13:10:49.8     -78    203     59    218    226 338.8  15.2  34298  291.91 0854.52
2009/04/23 13:10:49.9     -53    192     11    200    201 344.6   3.3  34292  291.83 0854.52
2009/04/23 13:10:50.0       7    167     33    168    172   2.7  11.1  34292  291.81 0854.52
2009/04/23 13:10:50.1       8    188     18    189    190   2.7   5.7  34290  291.77 0854.52
2009/04/23 13:10:50.2     108    137    -47    175    182  38.3 -15.0  34300  291.95 0854.52
2009/04/23 13:10:50.3     250    175    -63    306    313  54.9 -11.8  34304  292.01 0854.52
2009/04/23 13:10:50.4     226    103    120    249    276  65.4  27.3  34308  292.07 0854.52
2009/04/23 13:10:50.5     216    180    131    282    310  50.2  27.0  34294  291.85 0854.52
2009/04/23 13:10:50.6     304    238    190    387    431  52.0  28.2  34300  291.96 0854.52
2009/04/23 13:10:50.7     124    233    179    265    319  28.1  37.3  34316  292.23 0854.52
2009/04/23 13:10:50.8     245    177    270    303    405  54.1  46.3  34288  291.74 0854.52
2009/04/23 13:10:50.9     242    107    272    265    379  66.0  50.8  34278  291.59 0854.52
2009/04/23 13:10:51.0     371    146    126    399    419  68.5  17.5  34262  291.29 0854.52
2009/04/23 13:10:51.1     212    220    194    306    362  43.9  35.5  34298  291.91 0854.52
2009/04/23 13:10:51.2     120    100    163    157    226  50.4  51.2  34302  292.00 0854.52
2009/04/23 13:10:51.3     204     91    171    224    281  66.0  41.2  34290  291.77 0854.52
2009/04/23 13:10:51.4     168    109    164    201    259  57.1  43.7  34260  291.26 0854.54
2009/04/23 13:10:51.5     199     27    218    201    296  82.1  52.2  34246  291.04 0854.54
2009/04/23 13:10:51.6     257    -53    152    263    303 101.7  32.4  34260  291.26 0854.54
2009/04/23 13:10:51.7     236    -90    207    253    326 111.1  43.6  34282  291.65 0854.54
2009/04/23 13:10:51.8      32    -86    205     92    224 159.5  74.5  34266  291.38 0854.54
2009/04/23 13:10:51.9      59   -269    222    276    354 167.5  43.0  34258  291.25 0854.54
2009/04/23 13:10:52.0      49   -263    181    268    323 169.4  37.2  34256  291.21 0854.54
2009/04/23 13:10:52.1      45   -244    155    249    293 169.4  35.2  34248  291.07 0854.54
2009/04/23 13:10:52.2      30   -123    125    127    178 166.2  49.8  34244  290.99 0854.54
2009/04/23 13:10:52.3      64   -132    141    147    203 154.1  49.2  34252  291.15 0854.54
2009/04/23 13:10:52.4      99   -172    155    199    252 149.9  41.7  34248  291.05 0854.54
2009/04/23 13:10:52.5     133   -152    168    202    262 138.8  43.8  34244  290.99 0854.54
2009/04/23 13:10:52.6     105   -185    155    213    263 150.4  39.7  34248  291.05 0854.54
2009/04/23 13:10:52.7      70   -126    143    145    203 151.0  50.0  34250  291.11 0854.54
2009/04/23 13:10:52.8      83    -98    134    129    186 139.9  51.2  34248  291.08 0854.54
2009/04/23 13:10:52.9     136   -114    145    178    229 130.0  43.7  34248  291.08 0854.54
2009/04/23 13:10:53.0     153    -72    104    170    199 115.2  34.4  34262  291.32 0854.54
2009/04/23 13:10:53.1     187    -21     93    189    210  96.6  28.0  34266  291.37 0854.54
2009/04/23 13:10:53.2     188    -11     82    189    206  93.5  25.1  34262  291.32 0854.54
2009/04/23 13:10:53.3     165     -5    177    166    242  91.9  52.1  34266  291.37 0854.54
2009/04/23 13:10:53.4     174      9    194    175    261  87.0  53.3  34268  291.41 0854.54
2009/04/23 13:10:53.5     218     94    183    238    300  66.5  41.6  34276  291.53 0854.54
2009/04/23 13:10:53.6     299    162    136    341    367  61.5  23.0  34296  291.88 0854.54
2009/04/23 13:10:53.7     197    168    154    260    302  49.6  33.5  34300  291.96 0854.54
2009/04/23 13:10:53.8      41     58    142     72    159  35.2  71.1  34308  292.08 0854.54
2009/04/23 13:10:53.9     -32     94    133    100    166 341.3  59.4  34300  291.95 0854.54
2009/04/23 13:10:54.0      74     24    126     78    148  71.6  64.7  34292  291.83 0854.54
2009/04/23 13:10:54.1     270     20    127    271    299  85.7  27.1  34294  291.85 0854.54
2009/04/23 13:10:54.2     192     -3     89    193    212  90.9  26.6  34282  291.66 0854.54
2009/04/23 13:10:54.3     110    -43     86    119    146 111.7  39.5  34282  291.64 0854.54
2009/04/23 13:10:54.4     103     -1    111    104    152  90.8  52.1  34278  291.57 0854.54
2009/04/23 13:10:54.5     151     91    164    177    241  58.9  47.9  34272  291.49 0854.54
2009/04/23 13:10:54.6      89     51    162    103    191  59.8  64.7  34282  291.66 0854.54
2009/04/23 13:10:54.7      85     36    131     93    160  66.9  61.1  34280  291.60 0854.54
2009/04/23 13:10:54.8     234     32     53    237    243  82.0  12.6  34248  291.05 0854.54
2009/04/23 13:10:54.9     247    117    -37    274    277  64.7  -7.7  34240  290.93 0854.54
2009/04/23 13:10:55.0     230     53     82    237    251  77.0  19.2  34246  291.04 0854.54
2009/04/23 13:10:55.1     208    106     30    234    236  63.0   7.5  34246  291.02 0854.54
2009/04/23 13:10:55.2     185     40     10    190    191  77.6   3.3  34250  291.11 0854.54
2009/04/23 13:10:55.3     225     35     58    228    236  81.0  14.3  34254  291.17 0854.54
2009/04/23 13:10:55.4     343    121     68    364    371  70.5  10.6  34270  291.45 0854.56
2009/04/23 13:10:55.5     348     38     28    351    353  83.6   4.6  34242  290.98 0854.56
2009/04/23 13:10:55.6     357    115     23    376    377  72.1   3.6  34254  291.17 0854.56
2009/04/23 13:10:55.7     313    100     20    329    330  72.2   3.6  34250  291.11 0854.56
2009/04/23 13:10:55.8     290    160    -32    332    334  61.1  -5.6  34250  291.10 0854.56
2009/04/23 13:10:55.9     276    102    -16    295    296  69.6  -3.1  34254  291.16 0854.56
2009/04/23 13:10:56.0     202     35      2    206    207  80.1   0.8  34252  291.15 0854.56
2009/04/23 13:10:56.1     153     31     42    157    163  78.5  15.0  34250  291.09 0854.56
2009/04/23 13:10:56.2     196     59     -6    205    206  73.2  -1.8  34250  291.11 0854.56
2009/04/23 13:10:56.3     238    104     27    261    263  66.3   5.9  34254  291.17 0854.56
2009/04/23 13:10:56.4     251    114     50    276    281  65.6  10.3  34254  291.17 0854.56
2009/04/23 13:10:56.5     289    105    150    308    342  70.0  27.8  34296  291.88 0854.56
2009/04/23 13:10:56.6     342     51    109    346    363  81.5  17.5  34280  291.61 0854.56
2009/04/23 13:10:56.7     411     94     98    422    434  77.1  13.1  34266  291.38 0854.56
2009/04/23 13:10:56.8     394    157    116    425    441  68.3  15.3  34258  291.24 0854.56
2009/04/23 13:10:56.9     352    146    125    382    402  67.4  18.1  34286  291.71 0854.56
2009/04/23 13:10:57.0     383    147    144    411    436  68.9  19.4  34222  290.63 0854.56
2009/04/23 13:10:57.1     417    192    165    460    488  65.3  20.4  34268  291.42 0854.56
2009/04/23 13:10:57.2     369    151    140    399    424  67.7  19.4  34270  291.45 0854.56
2009/04/23 13:10:57.3     363    149    151    393    421  67.6  22.2  34298  291.92 0854.56
2009/04/23 13:10:57.4     341    176    195    384    430  62.7  29.2  34268  291.41 0854.58
2009/04/23 13:10:57.5     336    220     26    402    403  56.8   3.7  34230  290.77 0854.58
2009/04/23 13:10:57.6     298    297    -47    421    424  45.1  -6.5  34240  290.92 0854.58
2009/04/23 13:10:57.7     340    135     -7    366    367  68.3  -1.2  34242  290.96 0854.58
2009/04/23 13:10:57.8     289    110     12    310    311  69.2   2.3  34232  290.80 0854.58
2009/04/23 13:10:57.9     262    178     57    317    323  55.8  10.2  34232  290.80 0854.58
2009/04/23 13:10:58.0     206    211     69    296    304  44.3  13.1  34230  290.75 0854.58
2009/04/23 13:10:58.1     290    132     40    319    322  65.4   7.2  34232  290.78 0854.58
2009/04/23 13:10:58.2     260     90      5    276    277  70.9   1.2  34234  290.82 0854.58
2009/04/23 13:10:58.3     197     78     25    213    215  68.3   6.9  34232  290.79 0854.58
2009/04/23 13:10:58.4     153    102     56    185    194  56.3  16.8  34232  290.81 0854.58
2009/04/23 13:10:58.5     231    117      7    260    261  63.1   1.7  34234  290.83 0854.58
2009/04/23 13:10:58.6     247    126     52    278    283  63.0  10.6  34240  290.93 0854.58
2009/04/23 13:10:58.7     266     89     21    281    282  71.4   4.4  34228  290.71 0854.58
2009/04/23 13:10:58.8     301     46     27    305    307  81.2   5.2  34226  290.68 0854.58
2009/04/23 13:10:58.9     292     45     15    296    297  81.2   2.9  34232  290.78 0854.58
2009/04/23 13:10:59.0     351     41     -5    354    355  83.3  -0.9  34242  290.96 0854.58
2009/04/23 13:10:59.1     365    114     59    383    388  72.6   8.9  34272  291.49 0854.58
2009/04/23 13:10:59.2     361    129     29    384    386  70.3   4.3  34252  291.13 0854.58
2009/04/23 13:10:59.3     386    176    104    425    438  65.5  13.8  34288  291.74 0854.58
2009/04/23 13:10:59.4     457    130     79    476    483  74.1   9.5  34268  291.42 0854.58
2009/04/23 13:10:59.5     400     87    104    410    424  77.6  14.3  34254  291.16 0854.58
2009/04/23 13:10:59.6     417     42     62    420    425  84.2   8.5  34250  291.09 0854.58
2009/04/23 13:10:59.7     352    117    127    371    393  71.6  18.9  34260  291.28 0854.58
2009/04/23 13:10:59.8     342    -27    175    344    385  94.6  29.2  34242  290.96 0854.58
2009/04/23 13:10:59.9     397      6    108    398    413  89.1  15.2  34234  290.84 0854.58
2009/04/23 13:11:00.0     448    131     69    467    473  73.7   8.5  34258  291.22 0854.58
2009/04/23 13:11:00.1     378     77     51    387    391  78.4   7.6  34260  291.28 0854.58
2009/04/23 13:11:00.2     354     81    151    364    394  77.0  23.9  34266  291.37 0854.58
2009/04/23 13:11:00.3     316      4    113    317    336  89.2  20.3  34240  290.94 0854.58
2009/04/23 13:11:00.4     346     17     71    347    355  87.1  11.6  34250  291.11 0854.58
2009/04/23 13:11:00.5     216    118    133    247    280  61.4  30.8  34298  291.92 0854.58
2009/04/23 13:11:00.6     210     11     57    211    219  87.0  15.2  34260  291.28 0854.58
2009/04/23 13:11:00.7     273    -90     56    288    294 108.4  11.0  34246  291.02 0854.58
2009/04/23 13:11:00.8     195    -30     83    198    214  99.0  23.8  34250  291.09 0854.58
2009/04/23 13:11:00.9     205    -69     42    217    222 108.6  11.0  34236  290.87 0854.58
2009/04/23 13:11:01.0     194    -92     99    215    236 115.4  26.2  34228  290.72 0854.58
2009/04/23 13:11:01.1     240    -65    124    249    278 105.3  28.5  34234  290.83 0854.58
2009/04/23 13:11:01.2     279    -65     99    287    304 103.3  19.1  34220  290.58 0854.58
2009/04/23 13:11:01.3     316    -91     89    329    341 106.2  15.2  34216  290.52 0854.58
2009/04/23 13:11:01.4     325    -45    107    329    346  98.0  18.0  34218  290.55 0854.57
2009/04/23 13:11:01.5     296    -28    123    298    322  95.5  23.6  34224  290.66 0854.57
2009/04/23 13:11:01.6     307    -59    138    313    342 101.0  25.3  34238  290.88 0854.57
2009/04/23 13:11:01.7     249    -83    142    263    298 108.6  30.8  34244  290.99 0854.57
2009/04/23 13:11:01.8     242    -73    140    254    290 106.9  31.4  34240  290.92 0854.57
2009/04/23 13:11:01.9     235    -95    150    254    294 112.0  33.4  34250  291.10 0854.57
2009/04/23 13:11:02.0     207   -103    147    232    274 116.6  35.5  34254  291.17 0854.57
2009/04/23 13:11:02.1     227   -112    120    254    280 116.2  27.1  34254  291.16 0854.57
2009/04/23 13:11:02.2     201   -166     94    261    277 129.5  20.9  34244  290.99 0854.57
2009/04/23 13:11:02.3     176   -119     68    213    224 124.2  17.9  34248  291.06 0854.57
2009/04/23 13:11:02.4     141   -195     69    241    251 144.0  16.0  34266  291.36 0854.57
2009/04/23 13:11:02.5     132   -199     77    239    252 146.4  17.9  34270  291.43 0854.57
2009/04/23 13:11:02.6      85   -286     81    299    310 163.5  15.2  34264  291.34 0854.57
2009/04/23 13:11:02.7      87   -324     35    336    338 164.9   6.0  34246  291.03 0854.57
2009/04/23 13:11:02.8      72   -304      3    313    314 166.6   0.7  34242  290.97 0854.57
2009/04/23 13:11:02.9     155   -290     45    329    333 151.9   7.9  34256  291.20 0854.57
2009/04/23 13:11:03.0     109   -270     14    292    293 158.1   2.8  34276  291.55 0854.57
2009/04/23 13:11:03.1      88   -253     22    268    270 160.8   4.9  34276  291.53 0854.57
2009/04/23 13:11:03.2      80   -324    -61    334    340 166.1 -10.5  34276  291.54 0854.57
2009/04/23 13:11:03.3      69   -264     -7    273    274 165.3  -1.6  34276  291.53 0854.57
2009/04/23 13:11:03.4      73   -271    -64    281    289 164.8 -12.9  34262  291.29 0854.55
2009/04/23 13:11:03.5      59   -294    -16    300    301 168.5  -3.1  34262  291.29 0854.55
2009/04/23 13:11:03.6      40   -237     47    241    246 170.2  11.1  34268  291.39 0854.55
2009/04/23 13:11:03.7     -68   -254    -20    263    264 195.1  -4.4  34284  291.67 0854.55
2009/04/23 13:11:03.8     -32   -166    -42    170    176 190.9 -13.9  34266  291.37 0854.55
2009/04/23 13:11:03.9      -8   -126    -35    127    131 184.0 -20.2  34264  291.33 0854.55
2009/04/23 13:11:04.0       1   -106      3    107    108 179.1   1.8  34282  291.64 0854.55
2009/04/23 13:11:04.1      78   -101     80    128    150 142.1  35.5  34298  291.93 0854.55
2009/04/23 13:11:04.2      83   -176     30    195    198 154.6   9.0  34282  291.64 0854.55
2009/04/23 13:11:04.3      44   -127    -22    135    137 160.8  -9.3  34284  291.69 0854.55
2009/04/23 13:11:04.4     -17   -184     26    185    187 185.6   8.0  34286  291.72 0854.55
2009/04/23 13:11:04.5       7   -254    -46    255    260 178.2 -10.3  34248  291.07 0854.55
2009/04/23 13:11:04.6      74   -244    -34    256    259 163.1  -7.7  34216  290.51 0854.55
2009/04/23 13:11:04.7      58   -252    -22    259    261 166.9  -4.9  34206  290.36 0854.55
2009/04/23 13:11:04.8      88   -226     23    243    245 158.6   5.4  34208  290.37 0854.55
2009/04/23 13:11:04.9      68   -207      0    218    219 161.7   0.0  34206  290.36 0854.55
2009/04/23 13:11:05.0      83   -207    -19    224    225 158.1  -5.1  34202  290.30 0854.55
2009/04/23 13:11:05.1      63   -170    -23    182    184 159.5  -7.2  34204  290.33 0854.55
2009/04/23 13:11:05.2      82   -181    -15    199    200 155.5  -4.6  34200  290.26 0854.55
2009/04/23 13:11:05.3      47   -202     -9    208    209 166.9  -2.6  34204  290.33 0854.55
2009/04/23 13:11:05.4      53   -186    -57    194    203 164.0 -16.4  34196  290.19 0854.55
2009/04/23 13:11:05.5      53   -185    -53    193    201 164.0 -15.4  34198  290.21 0854.55
2009/04/23 13:11:05.6      43   -157    -58    163    174 164.4 -19.6  34200  290.26 0854.55
2009/04/23 13:11:05.7      60   -177    -32    188    191 161.1  -9.8  34204  290.31 0854.55
2009/04/23 13:11:05.8      57   -206    -27    214    216 164.4  -7.2  34204  290.33 0854.55
2009/04/23 13:11:05.9       8   -169     10    170    171 177.1   3.6  34202  290.30 0854.55
2009/04/23 13:11:06.0      -7   -155     49    156    164 182.6  17.7  34206  290.35 0854.55
2009/04/23 13:11:06.1     -20   -136     68    138    153 188.5  27.8  34218  290.57 0854.55
2009/04/23 13:11:06.2     -31   -151     65    155    168 191.6  24.1  34232  290.81 0854.55
2009/04/23 13:11:06.3     -18   -140     17    142    144 187.6   7.1  34232  290.79 0854.55
2009/04/23 13:11:06.4     -60   -127      4    141    142 205.3   1.8  34248  291.06 0854.55
2009/04/23 13:11:06.5       6   -144    -14    145    146 177.3  -5.6  34252  291.15 0854.55
2009/04/23 13:11:06.6      55   -177      9    186    187 162.6   2.9  34210  290.41 0854.55
2009/04/23 13:11:06.7      93   -174      5    198    199 151.7   1.6  34198  290.21 0854.55
2009/04/23 13:11:06.8     137   -203    -40    246    250 145.9  -9.3  34200  290.26 0854.55
2009/04/23 13:11:06.9     206   -207    -59    293    299 135.1 -11.5  34202  290.29 0854.55
2009/04/23 13:11:07.0     178   -178    -56    252    259 135.0 -12.6  34200  290.24 0854.55
2009/04/23 13:11:07.1      52   -120    -16    132    134 156.4  -7.2  34200  290.25 0854.55
2009/04/23 13:11:07.2      45   -150    -49    157    165 163.3 -17.3  34204  290.31 0854.55
2009/04/23 13:11:07.3      36   -183     -6    187    188 168.7  -2.1  34202  290.28 0854.55
2009/04/23 13:11:07.4      44   -192     59    198    207 166.9  16.6  34210  290.41 0854.55
2009/04/23 13:11:07.5      14   -188     36    189    193 175.6  11.0  34204  290.31 0854.55
2009/04/23 13:11:07.6      -5   -199     25    200    202 181.6   7.2  34200  290.26 0854.55
2009/04/23 13:11:07.7     -18   -181     35    182    186 185.8  11.0  34204  290.33 0854.55
2009/04/23 13:11:07.8     -11   -187     64    188    199 183.6  18.9  34206  290.35 0854.55
2009/04/23 13:11:07.9     -43   -169     88    175    195 194.3  28.7  34204  290.33 0854.55
2009/04/23 13:11:08.0     -49   -160    103    168    197 197.2  34.4  34216  290.53 0854.55
2009/04/23 13:11:08.1     -23   -151     99    153    182 188.9  35.7  34216  290.53 0854.55
2009/04/23 13:11:08.2     -15   -183    115    184    216 184.7  35.2  34202  290.30 0854.55
2009/04/23 13:11:08.3      60   -197    127    207    242 163.0  34.5  34206  290.35 0854.55
2009/04/23 13:11:08.4      84   -171    100    191    215 153.7  29.5  34200  290.26 0854.55
2009/04/23 13:11:08.5      27   -207     71    209    221 172.4  18.9  34206  290.35 0854.55
2009/04/23 13:11:08.6     -65   -205     81    216    230 197.6  21.0  34204  290.31 0854.55
2009/04/23 13:11:08.7     -60   -240    106    248    269 194.0  24.6  34208  290.37 0854.55
2009/04/23 13:11:08.8     -42   -245    102    249    269 189.8  23.1  34214  290.48 0854.55
2009/04/23 13:11:08.9     -36   -273     92    276    292 187.6  18.5  34220  290.59 0854.55
2009/04/23 13:11:09.0     -11   -199     90    200    219 183.4  25.9  34216  290.52 0854.55
2009/04/23 13:11:09.1      -1   -230     82    231    245 180.5  20.0  34212  290.46 0854.55
2009/04/23 13:11:09.2      -1   -307    105    308    326 180.2  18.9  34210  290.41 0854.55
2009/04/23 13:11:09.3      32   -254    121    257    284 172.8  27.1  34218  290.54 0854.55
2009/04/23 13:11:09.4      -3   -308    117    309    330 180.7  21.6  34216  290.51 0854.55
2009/04/23 13:11:09.5       0   -274     98    275    291 180.0  20.0  34210  290.42 0854.55
2009/04/23 13:11:09.6     -26   -286     51    288    293 185.3  10.1  34214  290.49 0854.55
2009/04/23 13:11:09.7      42   -300     97    304    320 171.9  17.8  34204  290.32 0854.55
2009/04/23 13:11:09.8     -37   -267    110    270    291 188.0  23.1  34216  290.51 0854.55
2009/04/23 13:11:09.9     -14   -259     91    260    276 183.1  19.4  34204  290.31 0854.55
2009/04/23 13:11:10.0      36   -290    120    293    316 172.9  23.6  34204  290.32 0854.55
2009/04/23 13:11:10.1     -45   -335    119    339    359 187.7  20.1  34234  290.84 0854.55
2009/04/23 13:11:10.2     -42   -282    122    286    310 188.5  24.6  34234  290.83 0854.55
2009/04/23 13:11:10.4     -51   -261     95    267    283 191.1  20.2  34216  290.51 0854.55
2009/04/23 13:11:10.5       0   -253     93    254    270 180.1  20.9  34206  290.36 0854.53
2009/04/23 13:11:10.6      29   -294     91    296    310 174.2  17.1  34216  290.53 0854.53
2009/04/23 13:11:10.7      19   -253    109    254    276 175.5  24.9  34218  290.56 0854.53
2009/04/23 13:11:10.8      46   -273     99    277    294 170.3  20.7  34206  290.36 0854.53
2009/04/23 13:11:10.9       0   -232    146    233    274 180.0  35.2  34224  290.66 0854.53
2009/04/23 13:11:11.0     -73   -245     50    256    261 196.7  11.1  34222  290.61 0854.53
2009/04/23 13:11:11.1     -46   -211     50    217    223 192.5  13.1  34218  290.55 0854.53
2009/04/23 13:11:11.2      14   -181     65    182    193 175.5  20.0  34218  290.57 0854.53
2009/04/23 13:11:11.3      -3   -218    107    219    243 181.0  28.2  34218  290.54 0854.53
2009/04/23 13:11:11.4      15   -199    119    200    232 175.5  33.7  34216  290.52 0854.53
2009/04/23 13:11:11.5      16   -166     78    167    184 174.4  27.0  34228  290.72 0854.53
2009/04/23 13:11:11.6      10   -164     65    165    177 176.2  22.8  34230  290.77 0854.53
2009/04/23 13:11:11.7      16   -160     85    161    182 174.0  30.1  34226  290.70 0854.53
2009/04/23 13:11:11.8      -9   -147    109    148    183 183.6  39.7  34230  290.75 0854.53
2009/04/23 13:11:11.9     -15   -132     51    133    142 186.7  22.0  34232  290.79 0854.53
2009/04/23 13:11:12.0      19    -99     49    101    112 168.9  27.3  34238  290.89 0854.53
2009/04/23 13:11:12.1      35   -100     37    107    114 160.4  19.4  34232  290.79 0854.53
2009/04/23 13:11:12.2      37    -81     21     90     93 155.1  13.7  34232  290.81 0854.53
2009/04/23 13:11:12.3      70    -65     33     96    102 133.1  19.4  34234  290.84 0854.53
2009/04/23 13:11:12.4      38    -53     47     66     81 144.0  39.1  34230  290.75 0854.53
2009/04/23 13:11:12.5      27    -54     48     61     77 152.8  43.7  34234  290.82 0854.53
2009/04/23 13:11:12.6      10    -30     40     32     51 161.7  56.4  34236  290.86 0854.53
2009/04/23 13:11:12.7       8    -14     22     17     27 151.0  58.5  34236  290.86 0854.53
2009/04/23 13:11:12.8      17     -9      9     20     21 118.9  25.1  34234  290.82 0854.53
2009/04/23 13:11:12.9      -1    -18     -8     19     20 184.4 -27.4  34230  290.75 0854.53
2009/04/23 13:11:13.0     -27    -30     -8     41     42 221.4 -11.3  34224  290.67 0854.53
2009/04/23 13:11:13.1      -1    -30     13     31     33 182.6  23.0  34220  290.58 0854.53
2009/04/23 13:11:13.2       3    -39     24     40     46 175.5  34.4  34218  290.55 0854.53
2009/04/23 13:11:13.3       5    -51     47     52     70 173.8  46.9  34216  290.52 0854.53
2009/04/23 13:11:13.4       7    -89     48     90    102 175.5  30.8  34212  290.45 0854.53
2009/04/23 13:11:13.5     -16    -84     38     86     94 191.1  25.1  34212  290.47 0854.53
2009/04/23 13:11:13.6     -26    -78     28     83     88 198.7  18.9  34212  290.45 0854.53
2009/04/23 13:11:13.7     -44    -61     21     76     80 216.1  15.8  34212  290.47 0854.53
2009/04/23 13:11:13.8     -35    -68     74     77    106 207.2  49.0  34212  290.47 0854.53
2009/04/23 13:11:13.9     -49    -78     60     93    110 212.5  35.6  34216  290.52 0854.53
2009/04/23 13:11:14.0     -27    -64     54     70     88 202.7  42.2  34216  290.53 0854.53
2009/04/23 13:11:14.1     -40    -19     56     45     71 244.7  56.4  34224  290.65 0854.53
2009/04/23 13:11:14.2     -12     38     54     41     67 341.5  59.4  34232  290.79 0854.53
2009/04/23 13:11:14.3       7     33     78     34     85  13.4  75.0  34226  290.70 0854.53
2009/04/23 13:11:14.4      30     50     41     59     71  31.6  38.6  34214  290.48 0854.53
2009/04/23 13:11:14.5      72      8     53     73     90  83.0  39.7  34210  290.43 0854.52
2009/04/23 13:11:14.6      92    -12     24     93     97  97.5  14.7  34214  290.50 0854.52
2009/04/23 13:11:14.7      99     -5    -10    100    101  93.0  -6.2  34220  290.60 0854.52
2009/04/23 13:11:14.8      93    -15    -10     95     96  99.2  -6.2  34216  290.53 0854.52
2009/04/23 13:11:14.9      87    -32     14     93     95 110.4   9.0  34212  290.47 0854.52
2009/04/23 13:11:15.0      91    -22      4     94     95 103.7   2.9  34210  290.43 0854.52
2009/04/23 13:11:15.1     100    -20     36    103    110 101.5  19.4  34210  290.43 0854.52
2009/04/23 13:11:15.2     117    -23     14    120    121 101.5   7.1  34212  290.47 0854.52
2009/04/23 13:11:15.3     130    -39    -19    136    138 106.8  -8.2  34216  290.53 0854.52
2009/04/23 13:11:15.4     163    -87     19    185    187 118.2   6.1  34222  290.62 0854.52
2009/04/23 13:11:15.5     110   -118     50    162    170 136.8  17.3  34216  290.53 0854.52
2009/04/23 13:11:15.6      88   -103    -14    136    137 139.5  -6.2  34222  290.64 0854.52
2009/04/23 13:11:15.7      82    -93    -20    125    127 138.5  -9.3  34222  290.62 0854.52
2009/04/23 13:11:15.8      96    -79    -57    125    137 129.5 -30.6  34222  290.62 0854.52
2009/04/23 13:11:15.9      63    -67    -54     93    107 136.8 -37.3  34220  290.60 0854.52
2009/04/23 13:11:16.0      85   -104    -26    135    138 140.8 -10.9  34220  290.58 0854.52
2009/04/23 13:11:16.1     128   -219     49    254    259 149.7  11.1  34204  290.31 0854.52
2009/04/23 13:11:16.2     -19   -232     82    233    247 184.9  20.0  34208  290.37 0854.52
2009/04/23 13:11:16.3     -11   -234     38    235    239 182.9   9.3  34204  290.31 0854.52
2009/04/23 13:11:16.4     -18   -170     48    172    179 186.2  15.8  34204  290.33 0854.51
2009/04/23 13:11:16.5      -9   -143     12    144    145 183.6   5.0  34204  290.31 0854.51
2009/04/23 13:11:16.6      27   -105     41    109    116 165.3  21.0  34200  290.26 0854.51
2009/04/23 13:11:16.7     134    -97     62    166    177 125.9  21.5  34206  290.35 0854.51
2009/04/23 13:11:16.8     155    -11    104    156    187  94.3  36.7  34206  290.36 0854.51
2009/04/23 13:11:16.9      88      4    136     89    162  87.4  64.1  34216  290.53 0854.51
2009/04/23 13:11:17.0     -11     26     97     29    101 336.4  82.8  34226  290.70 0854.51
2009/04/23 13:11:17.1      31     14     92     35     98  64.7  78.2  34222  290.62 0854.51
2009/04/23 13:11:17.2       8     23     70     25     74  18.7  81.2  34222  290.64 0854.51
2009/04/23 13:11:17.3       3      3     85      5     85  46.7  90.0  34222  290.64 0854.51
2009/04/23 13:11:17.4      84     19     90     87    125  76.7  50.2  34214  290.48 0854.51
2009/04/23 13:11:17.5      39     24     88     46     99  58.5  69.8  34222  290.64 0854.51
2009/04/23 13:11:17.6       6     14     63     16     65  25.4  85.9  34228  290.74 0854.51
2009/04/23 13:11:17.7      -9     14     65     17     67 327.5  84.9  34234  290.84 0854.51
2009/04/23 13:11:17.8       4    -12     77     13     78 161.7  90.0  34236  290.86 0854.51
2009/04/23 13:11:17.9      11     33     79     35     86  18.5  75.0  34224  290.65 0854.51
2009/04/23 13:11:18.0      57     19     90     61    108  71.6  63.2  34220  290.60 0854.51
2009/04/23 13:11:18.1      74     10     61     75     96  82.0  43.7  34210  290.43 0854.51
2009/04/23 13:11:18.2      76     10     67     77    102  82.1  45.8  34216  290.53 0854.51
2009/04/23 13:11:18.3      75      6     73     76    105  84.8  49.4  34214  290.50 0854.51
2009/04/23 13:11:18.4      71     19     62     74     96  74.9  44.3  34216  290.53 0854.51
2009/04/23 13:11:18.5      81     19     72     84    110  76.3  44.8  34216  290.53 0854.51
2009/04/23 13:11:18.6      66     27     57     72     91  67.4  42.7  34224  290.65 0854.51
2009/04/23 13:11:18.7      40     18     81     45     92  65.6  68.8  34230  290.75 0854.51
2009/04/23 13:11:18.8      38     -9     72     40     82 103.3  68.8  34234  290.84 0854.51
2009/04/23 13:11:18.9      37      4     71     38     80  83.9  69.8  34234  290.82 0854.51
2009/04/23 13:11:19.0      74      0     72     75    103  90.0  49.0  34224  290.65 0854.51
2009/04/23 13:11:19.1      93     -7     68     94    116  94.3  39.7  34222  290.62 0854.51
2009/04/23 13:11:19.2      89     -7     57     90    106  94.8  35.5  34220  290.58 0854.51
2009/04/23 13:11:19.3      71      3     55     72     90  87.4  41.7  34222  290.62 0854.51
2009/04/23 13:11:19.4      46     15     57     49     75  71.4  55.4  34222  290.64 0854.51
2009/04/23 13:11:19.5      12      4     30     13     32  71.4  75.0  34230  290.77 0854.51
2009/04/23 13:11:19.6       0    -10     16     11     19 175.5  64.6  34232  290.81 0854.51
2009/04/23 13:11:19.7      11    -25     32     28     42 156.4  53.3  34236  290.86 0854.51
2009/04/23 13:11:19.8       2    -29     41     30     50 175.6  60.5  34230  290.75 0854.51
2009/04/23 13:11:19.9       1    -59     57     60     82 178.2  49.0  34218  290.55 0854.51
2009/04/23 13:11:20.0     -22    -83     67     86    109 195.1  42.2  34210  290.41 0854.51
2009/04/23 13:11:20.1     -45    -66     57     80     98 214.3  39.5  34212  290.45 0854.51
2009/04/23 13:11:20.2     -53    -75     63     93    112 215.2  37.6  34210  290.43 0854.51
2009/04/23 13:11:20.3      -6    -55     77     56     95 186.2  60.5  34222  290.62 0854.51
2009/04/23 13:11:20.4      19    -30     71     36     79 147.5  71.4  34238  290.91 0854.51
2009/04/23 13:11:20.5      23    -25     44     35     56 136.8  56.4  34228  290.74 0854.51
2009/04/23 13:11:20.6      23    -43     59     49     76 151.9  56.3  34238  290.91 0854.51
2009/04/23 13:11:20.7      30    -51     63     60     87 149.3  51.2  34258  291.25 0854.51
2009/04/23 13:11:20.8      81    -37     45     90    100 114.4  28.2  34278  291.59 0854.51
2009/04/23 13:11:20.9      61     11     47     63     78  79.4  41.2  34290  291.79 0854.51
2009/04/23 13:11:21.0      77     27     51     82     96  70.5  35.5  34326  292.39 0854.51
2009/04/23 13:11:21.1     122     14     77    123    145  83.0  35.5  34336  292.56 0854.51
2009/04/23 13:11:21.2      49     50     63     71     94  44.2  46.4  34288  291.74 0854.51
2009/04/23 13:11:21.3       2     31     13     32     34   4.5  21.0  34294  291.84 0854.51
2009/04/23 13:11:21.4      34      0     20     35     40  90.0  32.4  34294  291.84 0854.51
2009/04/23 13:11:21.5       9    -31     35     33     48 163.1  50.1  34276  291.55 0854.51
2009/04/23 13:11:21.6      33    -36     52     50     72 137.7  50.1  34268  291.42 0854.51
2009/04/23 13:11:21.7      52    -38     32     65     72 126.0  27.3  34268  291.40 0854.51
2009/04/23 13:11:21.8      62    -14     13     64     66 103.3  12.2  34290  291.77 0854.51
2009/04/23 13:11:21.9      35    -32     42     48     63 132.2  46.9  34298  291.93 0854.51
2009/04/23 13:11:22.0      69      0     41     70     81  90.0  32.9  34304  292.03 0854.51
2009/04/23 13:11:22.1      64      3     52     65     83  86.5  43.3  34292  291.83 0854.51
2009/04/23 13:11:22.2      68     13     12     70     72  78.5  10.1  34284  291.69 0854.51
2009/04/23 13:11:22.3      73     24    -11     78     79  71.4  -8.2  34288  291.74 0854.51
2009/04/23 13:11:22.4      67      4    -23     68     71  86.5 -23.6  34296  291.89 0854.52
2009/04/23 13:11:22.5      59      9     -2     60     61  81.2  -2.2  34296  291.89 0854.52
2009/04/23 13:11:22.6      56      5     15     57     60  84.8  15.3  34304  292.03 0854.52
2009/04/23 13:11:22.7      59      0     31     60     67  90.0  29.3  34322  292.34 0854.52
2009/04/23 13:11:22.8      73    -34     12     81     82 115.2   8.5  34312  292.17 0854.52
2009/04/23 13:11:22.9      71    -39     22     82     86 118.8  15.3  34298  291.91 0854.52
2009/04/23 13:11:23.0      22    -39     49     46     67 150.1  52.1  34312  292.17 0854.52
2009/04/23 13:11:23.1     -12    -59     42     61     74 191.6  36.5  34304  292.03 0854.52
2009/04/23 13:11:23.2      12    -71     31     73     79 170.2  24.1  34288  291.76 0854.52
2009/04/23 13:11:23.3     -19    -51     47     55     72 200.9  44.8  34288  291.76 0854.52
2009/04/23 13:11:23.4      12    -63     67     65     93 168.5  50.1  34270  291.43 0854.52
2009/04/23 13:11:23.5      10    -90     60     91    109 173.3  36.0  34232  290.79 0854.52
2009/04/23 13:11:23.6     -10   -107     70    108    128 185.3  35.6  34230  290.75 0854.52
2009/04/23 13:11:23.7     -33   -100     54    106    118 198.7  29.3  34226  290.70 0854.52
2009/04/23 13:11:23.8     -41   -106     41    114    121 201.4  20.9  34222  290.64 0854.52
2009/04/23 13:11:23.9     -40   -108     56    116    128 200.5  27.3  34222  290.62 0854.52
2009/04/23 13:11:24.0     -40   -121     27    128    131 198.3  12.2  34222  290.62 0854.52
2009/04/23 13:11:24.1     -39   -111     25    118    121 199.6  12.2  34222  290.64 0854.52
2009/04/23 13:11:24.2     -34   -113     32    119    124 196.9  15.3  34222  290.62 0854.52
2009/04/23 13:11:24.3     -44   -130     21    138    140 198.7   9.0  34222  290.62 0854.52
2009/04/23 13:11:24.4     -52   -146     18    156    158 199.6   6.7  34216  290.53 0854.52
2009/04/23 13:11:24.5     -51   -140     11    150    151 200.1   4.4  34214  290.50 0854.52
2009/04/23 13:11:24.6     -33   -125    -16    130    132 195.1  -7.3  34220  290.58 0854.52
2009/04/23 13:11:24.7     -40   -131    -17    138    140 196.9  -7.3  34216  290.52 0854.52
2009/04/23 13:11:24.8     -41   -151      0    157    158 195.2   0.2  34214  290.48 0854.52
2009/04/23 13:11:24.9     -67   -156     -5    171    172 203.4  -1.8  34220  290.60 0854.52
2009/04/23 13:11:25.0     -38   -141      2    147    148 195.1   0.8  34216  290.52 0854.52
2009/04/23 13:11:25.1     -44   -139     13    147    148 197.8   5.4  34210  290.43 0854.52
2009/04/23 13:11:25.2     -44   -145     21    152    154 197.0   8.0  34212  290.45 0854.52
2009/04/23 13:11:25.3     -25   -145     28    148    151 189.8  11.0  34212  290.45 0854.52
2009/04/23 13:11:25.4     -10   -162     18    163    165 183.8   6.5  34210  290.43 0854.50
2009/04/23 13:11:25.5      -5   -163     16    164    165 182.0   5.7  34212  290.45 0854.50
2009/04/23 13:11:25.6      18   -165     13    167    168 173.8   4.6  34212  290.45 0854.50
2009/04/23 13:11:25.7      37   -184     -5    188    189 168.4  -1.6  34210  290.41 0854.50
2009/04/23 13:11:25.8      14   -205      8    206    207 176.0   2.3  34208  290.38 0854.50
2009/04/23 13:11:25.9      29   -214     31    216    219 172.2   8.2  34206  290.36 0854.50
2009/04/23 13:11:26.0      85   -234     31    250    252 160.0   7.2  34208  290.37 0854.50
2009/04/23 13:11:26.1     129   -273     36    303    306 154.6   6.9  34206  290.36 0854.50
2009/04/23 13:11:26.2     130   -326     33    352    354 158.2   5.4  34202  290.27 0854.50
2009/04/23 13:11:26.3      98   -293      8    310    311 161.5   1.6  34202  290.29 0854.50
2009/04/23 13:11:26.4      12   -296     86    297    310 177.5  16.3  34202  290.29 0854.50
2009/04/23 13:11:26.5      57   -324     39    330    333 170.0   6.9  34204  290.32 0854.50
2009/04/23 13:11:26.6     117   -436     -1    452    453 165.0  -0.2  34200  290.24 0854.50
2009/04/23 13:11:26.7      69   -404     66    410    416 170.3   9.2  34202  290.29 0854.50
2009/04/23 13:11:26.8      81   -334     69    344    351 166.3  11.5  34202  290.27 0854.50
2009/04/23 13:11:26.9      69   -361     41    368    371 169.1   6.5  34202  290.30 0854.50
2009/04/23 13:11:27.0      54   -384     46    388    391 172.0   6.8  34202  290.28 0854.50
2009/04/23 13:11:27.1     100   -369      4    383    384 164.9   0.7  34196  290.18 0854.50
2009/04/23 13:11:27.2     113   -409     11    425    426 164.5   1.6  34194  290.14 0854.50
2009/04/23 13:11:27.3     168   -355    -12    393    394 154.7  -1.8  34194  290.15 0854.50
2009/04/23 13:11:27.4     121   -335     47    357    361 160.1   7.6  34202  290.28 0854.50
2009/04/23 13:11:27.5     112   -265    112    288    309 157.1  22.3  34198  290.22 0854.50
2009/04/23 13:11:27.6     149   -205    108    254    276 144.0  24.6  34198  290.22 0854.50
2009/04/23 13:11:27.7     114   -143     19    184    186 141.5   6.1  34200  290.26 0854.50
2009/04/23 13:11:27.8      61   -187    -10    197    198 161.7  -3.1  34200  290.26 0854.50
2009/04/23 13:11:27.9      83   -232   -110    247    270 160.2 -30.1  34204  290.31 0854.50
2009/04/23 13:11:28.0      55   -295   -158    301    339 169.3 -34.4  34202  290.29 0854.50
2009/04/23 13:11:28.1      41   -348   -146    351    380 173.1 -28.2  34212  290.45 0854.50
2009/04/23 13:11:28.2      -3   -368   -131    369    392 180.6 -19.6  34208  290.40 0854.50
2009/04/23 13:11:28.3     -61   -385    -80    391    400 189.1 -11.6  34204  290.32 0854.50
2009/04/23 13:11:28.4     -41   -325    -95    328    341 187.2 -20.9  34204  290.33 0854.50
2009/04/23 13:11:28.5     -39   -313   -108    316    335 187.1 -18.9  34204  290.31 0854.50
2009/04/23 13:11:28.6     -36   -299   -109    302    322 186.9 -19.8  34206  290.34 0854.50
2009/04/23 13:11:28.7       8   -274    -81    275    287 178.2 -16.4  34202  290.29 0854.50
2009/04/23 13:11:28.8      28   -253    -66    255    264 173.7 -14.5  34204  290.31 0854.50
2009/04/23 13:11:28.9      36   -290    -83    293    305 172.9 -15.8  34210  290.42 0854.50
2009/04/23 13:11:29.0      37   -266    -96    269    286 171.9 -19.7  34208  290.39 0854.50
2009/04/23 13:11:29.1      41   -266    -91    270    286 171.1 -18.7  34210  290.42 0854.50
2009/04/23 13:11:29.2      46   -294    -99    298    314 171.1 -23.6  34208  290.39 0854.50
2009/04/23 13:11:29.3      57   -319   -118    325    345 169.8 -25.1  34208  290.37 0854.50
2009/04/23 13:11:29.4      57   -319   -111    325    343 169.8 -23.9  34204  290.32 0854.51
2009/04/23 13:11:29.5      45   -263    -88    267    282 170.2 -18.3  34200  290.26 0854.51
2009/04/23 13:11:29.6      43   -252    -79    256    269 170.3 -17.3  34204  290.32 0854.51
2009/04/23 13:11:29.7      54   -291    -42    296    300 169.4  -8.2  34206  290.36 0854.51
2009/04/23 13:11:29.8      66   -232    -59    242    250 164.0 -13.7  34204  290.32 0854.51
2009/04/23 13:11:29.9      81   -301    -37    312    315 164.9  -6.8  34198  290.22 0854.51
2009/04/23 13:11:30.0      74   -312    -86    321    333 166.6 -15.0  34192  290.10 0854.51
2009/04/23 13:11:30.1      64   -401    -66    407    413 170.9  -9.3  34190  290.07 0854.51
2009/04/23 13:11:30.2      87   -413    -46    423    426 168.1  -6.2  34182  289.94 0854.51
2009/04/23 13:11:30.3      97   -388    -46    401    404 165.9  -6.6  34182  289.94 0854.51
2009/04/23 13:11:30.4     154   -360    -66    392    398 156.8  -9.6  34182  289.93 0854.51
2009/04/23 13:11:30.5     166   -351    -72    389    396 154.6 -10.5  34176  289.84 0854.51
2009/04/23 13:11:30.6     162   -343    -70    380    387 154.7 -10.5  34180  289.91 0854.51
2009/04/23 13:11:30.7     173   -376    -34    414    416 155.3  -4.8  34192  290.12 0854.51
2009/04/23 13:11:30.8      89   -326    -88    338    350 164.7 -14.6  34198  290.21 0854.51
2009/04/23 13:11:30.9      43   -352    -31    355    357 172.9  -5.1  34192  290.11 0854.51
2009/04/23 13:11:31.0     174   -372   -113    411    427 155.0 -15.4  34186  290.00 0854.51
2009/04/23 13:11:31.1     245   -309    -57    395    400 141.5  -8.3  34188  290.06 0854.51
2009/04/23 13:11:31.2     260   -360    -24    445    446 144.2  -3.2  34194  290.14 0854.51
2009/04/23 13:11:31.3     233   -333    -39    407    410 144.9  -5.6  34194  290.16 0854.51
2009/04/23 13:11:31.4     208   -285    -38    353    356 143.9  -6.2  34196  290.18 0854.50
2009/04/23 13:11:31.5     204   -256    -23    328    329 141.4  -4.1  34194  290.16 0854.50
2009/04/23 13:11:31.6     187   -221     -9    290    291 139.7  -1.8  34194  290.14 0854.50
2009/04/23 13:11:31.7     148   -172     -8    228    229 139.2  -2.2  34194  290.16 0854.50
2009/04/23 13:11:31.8     184   -196    -49    270    275 136.8 -10.4  34192  290.12 0854.50
2009/04/23 13:11:31.9     199   -240      0    312    313 140.4   0.1  34184  289.98 0854.50
2009/04/23 13:11:32.0     207   -240    -34    317    319 139.2  -6.3  34186  290.02 0854.50
2009/04/23 13:11:32.1     157   -230      4    279    280 145.7   1.0  34180  289.92 0854.50
2009/04/23 13:11:32.2     150   -236     -1    281    282 147.5  -0.3  34186  290.00 0854.50
2009/04/23 13:11:32.3     168   -263    -12    313    314 147.4  -2.3  34186  290.02 0854.50
2009/04/23 13:11:32.4     159   -242    -14    290    291 146.6  -2.8  34188  290.05 0854.50
2009/04/23 13:11:32.5     124   -216    -70    250    260 150.1 -15.8  34188  290.03 0854.50
2009/04/23 13:11:32.6     193   -226   -102    298    316 139.5 -19.0  34188  290.05 0854.50
2009/04/23 13:11:32.7     162   -182    -57    244    251 138.3 -13.2  34194  290.15 0854.50
2009/04/23 13:11:32.8     152   -152    -29    215    217 135.0  -7.7  34192  290.13 0854.50
2009/04/23 13:11:32.9     162    -96    -88    189    208 120.7 -31.5  34194  290.14 0854.50
2009/04/23 13:11:33.0     124    -41   -105    131    167 108.4 -47.4  34196  290.19 0854.50
2009/04/23 13:11:33.1      51    -98    -63    111    127 152.4 -36.3  34200  290.25 0854.50
2009/04/23 13:11:33.2      28   -139    -19    142    144 168.4  -7.7  34200  290.26 0854.50
2009/04/23 13:11:33.3     102   -116     57    155    165 138.5  20.7  34204  290.31 0854.50
2009/04/23 13:11:33.4      68   -105     54    126    137 147.0  24.6  34204  290.31 0854.49
2009/04/23 13:11:33.5      60   -109     62    125    139 151.1  28.2  34200  290.26 0854.49
2009/04/23 13:11:33.6      75   -112     77    135    155 146.2  32.4  34200  290.25 0854.49
2009/04/23 13:11:33.7      63   -104     79    122    145 148.8  35.6  34198  290.23 0854.49
2009/04/23 13:11:33.8      59   -106    104    122    160 151.0  45.1  34200  290.26 0854.49
2009/04/23 13:11:33.9      45    -37     82     59    101 129.5  60.6  34208  290.38 0854.49
2009/04/23 13:11:34.0      31    -31     59     45     74 135.0  58.5  34212  290.47 0854.49
2009/04/23 13:11:34.1     130    -83     73    155    171 122.5  27.1  34204  290.33 0854.49
2009/04/23 13:11:34.2     110   -104     74    152    169 133.2  27.8  34200  290.26 0854.49
2009/04/23 13:11:34.3     125   -156    119    201    233 141.3  33.5  34196  290.19 0854.49
2009/04/23 13:11:34.4     126   -169    148    212    258 143.3  38.5  34196  290.17 0854.49
2009/04/23 13:11:34.5     161   -173    163    237    287 137.0  37.6  34204  290.31 0854.49
2009/04/23 13:11:34.6     195   -160     99    253    271 129.5  22.5  34198  290.22 0854.49
2009/04/23 13:11:34.7     184   -142    109    233    257 127.8  27.0  34198  290.20 0854.49
2009/04/23 13:11:34.8     158   -128    130    204    241 129.1  35.6  34198  290.21 0854.49
2009/04/23 13:11:34.9     106   -127    118    166    203 139.9  38.8  34200  290.25 0854.49
2009/04/23 13:11:35.0     112    -89    129    144    193 128.6  46.6  34200  290.26 0854.49
2009/04/23 13:11:35.1     142    -78    164    163    231 118.8  49.9  34202  290.28 0854.49
2009/04/23 13:11:35.2     181    -61    147    192    241 108.6  41.2  34200  290.26 0854.49
2009/04/23 13:11:35.3     121    -17    158    123    200  98.0  58.4  34204  290.31 0854.49
2009/04/23 13:11:35.4      54    -66    120     86    147 140.4  60.6  34206  290.36 0854.49
2009/04/23 13:11:35.5     133    -74     65    153    166 119.3  24.6  34200  290.26 0854.49
2009/04/23 13:11:35.6     120    -81     51    145    154 124.1  19.4  34200  290.26 0854.49
2009/04/23 13:11:35.7     114    -58     28    129    133 117.1  12.2  34200  290.26 0854.49
2009/04/23 13:11:35.8     128    -35    -11    133    134 105.5  -5.1  34204  290.31 0854.49
2009/04/23 13:11:35.9     114    -28    -24    118    121 104.2 -11.9  34204  290.33 0854.49
2009/04/23 13:11:36.0     125    -31    -21    129    131 104.2  -9.3  34200  290.26 0854.49
2009/04/23 13:11:36.1     124     -8    -12    125    126  93.9  -5.6  34198  290.21 0854.49
2009/04/23 13:11:36.2      93    -21     33     96    102 102.8  18.9  34202  290.28 0854.49
2009/04/23 13:11:36.3      80    -28      5     85     86 109.5   3.8  34202  290.28 0854.49
2009/04/23 13:11:36.4      94    -52      8    108    109 118.8   4.4  34204  290.31 0854.49
2009/04/23 13:11:36.5      94    -62     74    113    135 123.7  35.6  34202  290.30 0854.49
2009/04/23 13:11:36.6      72    -77     72    106    128 137.2  37.6  34202  290.30 0854.49
2009/04/23 13:11:36.7      12      0     74     13     75  90.0  90.0  34218  290.55 0854.49
2009/04/23 13:11:36.8     -39     55     72     68     99 324.0  51.6  34218  290.55 0854.49
2009/04/23 13:11:36.9     -19     23     76     30     81 320.4  77.6  34220  290.58 0854.49
2009/04/23 13:11:37.0     -11     11     80     16     81 315.0  89.0  34220  290.58 0854.49
2009/04/23 13:11:37.2       0     50     83     51     97   0.9  64.7  34216  290.53 0854.49
2009/04/23 13:11:37.2      50      9    101     51    113  79.4  71.9  34212  290.45 0854.49
2009/04/23 13:11:37.3      82     14     94     84    126  79.9  53.3  34208  290.38 0854.49
2009/04/23 13:11:37.5      67     23     82     71    108  70.9  54.8  34208  290.40 0854.48
2009/04/23 13:11:37.6     104      0    104    105    147  90.0  50.0  34206  290.36 0854.48
2009/04/23 13:11:37.7      37     34    115     51    125  47.8  74.9  34208  290.38 0854.48
2009/04/23 13:11:37.8     -32     21     71     39     81 304.2  68.8  34226  290.69 0854.48
2009/04/23 13:11:37.9     -18     54     95     57    110 341.5  65.7  34226  290.70 0854.48
2009/04/23 13:11:38.0       0     48     92     49    104 359.1  69.3  34224  290.67 0854.48
2009/04/23 13:11:38.1     -14      1     66     15     67 274.3  88.0  34228  290.72 0854.48
2009/04/23 13:11:38.2     -10     48     92     50    104 348.4  68.8  34228  290.72 0854.48
2009/04/23 13:11:38.3      43     59     96     74    121  36.1  58.5  34222  290.62 0854.48
2009/04/23 13:11:38.4     -10     40     84     42     93 344.9  71.4  34228  290.74 0854.48
2009/04/23 13:11:38.5     -37     12     43     40     58 288.6  51.2  34228  290.72 0854.48
2009/04/23 13:11:38.6     -34    -17     24     39     45 242.9  35.5  34226  290.70 0854.48
2009/04/23 13:11:38.7     -31      8     11     33     36 285.1  19.4  34220  290.60 0854.48
2009/04/23 13:11:38.8     -44      3     45     45     63 274.4  50.1  34224  290.65 0854.48
2009/04/23 13:11:38.9     -59    -67     79     90    119 221.4  45.8  34224  290.67 0854.48
2009/04/23 13:11:39.0     -30   -119    100    123    158 194.3  43.3  34214  290.48 0854.48
2009/04/23 13:11:39.1     -24   -133     51    136    145 190.2  21.0  34210  290.43 0854.48
2009/04/23 13:11:39.2      21   -155     65    157    169 172.0  23.8  34208  290.38 0854.48
2009/04/23 13:11:39.3      67   -158     20    172    174 156.8   6.7  34206  290.35 0854.48
2009/04/23 13:11:39.4      61   -181    -10    192    193 161.3  -3.1  34206  290.36 0854.48
2009/04/23 13:11:39.5      58   -195     -7    204    205 163.3  -2.2  34204  290.31 0854.49
2009/04/23 13:11:39.6      37   -152    108    157    190 166.2  37.8  34202  290.30 0854.49
2009/04/23 13:11:39.7     -36   -177     34    181    185 191.6  10.6  34206  290.36 0854.49
2009/04/23 13:11:39.8     -27   -186      9    189    190 188.5   2.9  34206  290.35 0854.49
2009/04/23 13:11:39.9     -12   -173     65    174    185 184.0  21.0  34208  290.38 0854.49
2009/04/23 13:11:40.0      -1   -127    101    128    163 180.9  42.4  34208  290.38 0854.49
2009/04/23 13:11:40.1     -20   -175    123    177    215 186.7  38.6  34212  290.45 0854.49
2009/04/23 13:11:40.2      42   -193    161    198    255 167.5  43.5  34212  290.46 0854.49
2009/04/23 13:11:40.3     -21   -272    131    273    302 184.5  27.3  34208  290.39 0854.49
2009/04/23 13:11:40.4       0   -236    107    237    260 180.2  26.2  34204  290.32 0854.49
2009/04/23 13:11:40.5      15   -179    180    180    254 175.1  50.1  34210  290.41 0854.49
2009/04/23 13:11:40.6     -30   -296     75    298    308 185.8  14.2  34206  290.34 0854.49
2009/04/23 13:11:40.7     -31   -351    113    353    371 185.1  17.8  34202  290.28 0854.49
2009/04/23 13:11:40.8     -40   -414    171    417    450 185.6  23.6  34202  290.29 0854.49
2009/04/23 13:11:40.9     -76   -346    124    355    377 192.5  19.3  34202  290.28 0854.49
2009/04/23 13:11:41.0     -70   -351     94    358    371 191.3  14.7  34204  290.32 0854.49
2009/04/23 13:11:41.1     -31   -377    126    379    400 184.7  18.4  34202  290.28 0854.49
2009/04/23 13:11:41.2      11   -381    149    382    410 178.2  22.4  34202  290.30 0854.49
2009/04/23 13:11:41.3     -30   -387     83    389    398 184.5  12.1  34202  290.30 0854.49
2009/04/23 13:11:41.4     -23   -302     93    303    317 184.5  17.1  34200  290.24 0854.49
2009/04/23 13:11:41.5     -32   -263     67    266    275 187.1  14.3  34202  290.29 0854.51
2009/04/23 13:11:41.6     -42   -248    109    252    274 189.7  25.1  34204  290.31 0854.51
2009/04/23 13:11:41.7    -131   -309    131    336    360 203.0  22.4  34202  290.27 0854.51
2009/04/23 13:11:41.8    -139   -251    147    288    323 209.0  29.1  34204  290.31 0854.51
2009/04/23 13:11:41.9    -101   -222    135    245    279 204.5  31.4  34206  290.34 0854.51
2009/04/23 13:11:42.0     -88   -200     27    219    221 203.8   7.1  34200  290.26 0854.51
2009/04/23 13:11:42.1     -70   -212     52    224    231 198.3  13.2  34202  290.28 0854.51
2009/04/23 13:11:42.2    -254   -140     68    291    299 241.1  13.2  34198  290.20 0854.51
2009/04/23 13:11:42.3    -106   -166    -58    198    207 212.5 -16.4  34200  290.26 0854.51
2009/04/23 13:11:42.4    -123   -270     35    297    300 204.5   6.9  34200  290.24 0854.51
2009/04/23 13:11:42.5    -139   -287     -2    319    320 205.9  -0.4  34200  290.26 0854.51
2009/04/23 13:11:42.6     -80   -280    -11    292    293 196.1  -2.2  34202  290.29 0854.51
2009/04/23 13:11:42.7     -24   -326      9    327    328 184.3   1.6  34204  290.31 0854.51
2009/04/23 13:11:42.8     -73   -363    123    371    391 191.5  18.4  34200  290.25 0854.51
2009/04/23 13:11:42.9     -78   -347     56    356    361 192.8   9.0  34204  290.32 0854.51
2009/04/23 13:11:43.0     -27   -397    -15    398    399 184.0  -2.3  34202  290.28 0854.51
2009/04/23 13:11:43.1    -102   -374    -35    388    390 195.3  -5.2  34202  290.28 0854.51
2009/04/23 13:11:43.2    -172   -311    -46    356    359 209.0  -7.5  34202  290.28 0854.51
2009/04/23 13:11:43.3    -102   -313    -56    330    335 198.1  -9.7  34202  290.27 0854.51
2009/04/23 13:11:43.4    -206   -386    -69    438    444 208.1  -9.0  34200  290.24 0854.53
2009/04/23 13:11:43.5    -207   -358     -8    414    415 210.0  -1.1  34204  290.33 0854.53
2009/04/23 13:11:43.6    -199   -343    -28    397    398 210.1  -4.1  34204  290.33 0854.53
2009/04/23 13:11:43.7    -212   -354    -27    413    414 210.9  -3.8  34204  290.31 0854.53
2009/04/23 13:11:43.8    -302   -376    -62    483    487 218.8  -7.3  34206  290.34 0854.53
2009/04/23 13:11:43.9    -260   -297     30    395    397 221.2   4.4  34198  290.20 0854.53
2009/04/23 13:11:44.0    -143   -232     34    273    276 211.7   7.1  34200  290.24 0854.53
2009/04/23 13:11:44.1     -33   -241     18    244    245 188.0   4.2  34200  290.26 0854.53
2009/04/23 13:11:44.2     -90   -259     43    275    279 199.2   8.9  34204  290.31 0854.53
2009/04/23 13:11:44.3    -114   -239    -35    265    268 205.5  -7.7  34194  290.15 0854.53
2009/04/23 13:11:44.4     -93   -217    -13    237    238 203.2  -3.1  34192  290.12 0854.53
2009/04/23 13:11:44.5    -125   -254     79    284    295 206.3  15.6  34190  290.07 0854.53
2009/04/23 13:11:44.6    -202   -181    122    272    298 228.2  25.9  34190  290.07 0854.53
2009/04/23 13:11:44.7    -308   -257     58    402    407 230.2   8.3  34198  290.22 0854.53
2009/04/23 13:11:44.8    -299   -221     31    373    375 233.5   4.9  34192  290.13 0854.53
2009/04/23 13:11:44.9    -402   -161    -36    434    436 248.2  -4.9  34190  290.07 0854.53
2009/04/23 13:11:45.0    -391    -53    -72    395    402 262.2 -10.4  34188  290.04 0854.53
2009/04/23 13:11:45.1    -362    -92     19    374    375 255.7   3.0  34190  290.08 0854.53
2009/04/23 13:11:45.2    -308    -62    -82    315    326 258.5 -14.6  34176  289.83 0854.53
2009/04/23 13:11:45.3    -417   -138   -156    440    468 251.6 -19.6  34180  289.90 0854.53
2009/04/23 13:11:45.4    -409   -146    -87    435    444 250.3 -11.3  34186  290.00 0854.53
2009/04/23 13:11:45.5    -359   -147   -110    389    405 247.7 -15.9  34188  290.06 0854.53
2009/04/23 13:11:45.6    -327    -69   -116    335    354 258.1 -24.3  34194  290.16 0854.53
2009/04/23 13:11:45.7    -448    -14   -182    449    484 268.1 -27.8  34178  289.88 0854.53
2009/04/23 13:11:45.8    -338     87   -126    350    373 284.5 -19.8  34184  289.98 0854.53
2009/04/23 13:11:45.9    -361     48    -86    365    375 277.6 -13.3  34184  289.98 0854.53
2009/04/23 13:11:46.0    -430    -80   -123    438    454 259.4 -20.3  34182  289.94 0854.53
2009/04/23 13:11:46.1    -422     13   -125    423    442 271.8 -16.5  34178  289.88 0854.53
2009/04/23 13:11:46.2    -395    -25   -109    396    411 266.3 -15.5  34182  289.95 0854.53
2009/04/23 13:11:46.3    -524    -23   -115    525    538 267.4 -12.4  34184  289.99 0854.53
2009/04/23 13:11:46.4    -397      0   -157    398    427 270.0 -27.2  34190  290.07 0854.54
2009/04/23 13:11:46.5    -478    -62   -181    483    515 262.6 -25.9  34202  290.30 0854.54
2009/04/23 13:11:46.6    -382   -145   -213    409    461 249.2 -33.9  34196  290.19 0854.54
2009/04/23 13:11:46.7    -474    -81     67    482    487 260.2   8.0  34202  290.27 0854.54
2009/04/23 13:11:46.8    -420    -58    -14    424    425 262.1  -1.9  34192  290.11 0854.54
2009/04/23 13:11:46.9    -364    -38    -21    367    368 263.9  -3.3  34192  290.10 0854.54
2009/04/23 13:11:47.0    -367     73    -28    375    376 281.4  -4.4  34194  290.16 0854.54
2009/04/23 13:11:47.1    -256     73    103    267    286 285.9  22.1  34206  290.34 0854.54
2009/04/23 13:11:47.2    -154     88     70    178    191 299.8  22.8  34204  290.33 0854.54
2009/04/23 13:11:47.3     -86     66    101    109    148 307.8  47.9  34204  290.33 0854.54
2009/04/23 13:11:47.4    -141    103     24    175    177 306.2   8.0  34194  290.16 0854.54
2009/04/23 13:11:47.5     -45     84     78     96    123 331.5  43.7  34200  290.25 0854.54
2009/04/23 13:11:47.6     -25     33     57     42     70 323.0  60.5  34206  290.36 0854.54
2009/04/23 13:11:47.7     -21     -3     57     22     61 260.3  78.2  34212  290.45 0854.54
2009/04/23 13:11:47.8     -58    -18     87     61    106 252.3  61.5  34204  290.33 0854.54
2009/04/23 13:11:47.9     -40    -33    124     52    134 230.5  76.1  34212  290.47 0854.54
2009/04/23 13:11:48.0     -93     30    101     98    140 288.2  51.2  34206  290.35 0854.54
2009/04/23 13:11:48.1      35     -7    177     36    180 101.5  89.1  34206  290.35 0854.54
2009/04/23 13:11:48.2       4   -127    175    128    216 177.8  60.5  34202  290.28 0854.54
2009/04/23 13:11:48.3      -7   -158    179    159    239 182.7  54.0  34198  290.21 0854.54
2009/04/23 13:11:48.4      40   -159    126    165    207 165.7  41.4  34196  290.18 0854.53
2009/04/23 13:11:48.5     -73   -204    150    217    263 199.8  37.8  34192  290.10 0854.53
2009/04/23 13:11:48.6     -96   -344     84    358    368 195.6  13.2  34190  290.08 0854.53
2009/04/23 13:11:48.7     -87   -274     84    288    301 197.6  16.3  34188  290.05 0854.53
2009/04/23 13:11:48.8     -60   -256     34    264    267 193.3   7.5  34188  290.05 0854.53
2009/04/23 13:11:48.9      -7   -227     81    228    241 181.8  20.0  34190  290.07 0854.53
2009/04/23 13:11:49.0      25   -275     18    277    278 174.7   3.8  34188  290.05 0854.53
2009/04/23 13:11:49.1     -62   -267     80    275    287 193.1  16.3  34188  290.03 0854.53
2009/04/23 13:11:49.2     -43   -201    175    206    270 192.3  44.5  34188  290.05 0854.53
2009/04/23 13:11:49.3     -46   -193    197    199    280 193.4  50.0  34190  290.09 0854.53
2009/04/23 13:11:49.4    -140   -242    206    280    347 210.1  40.0  34188  290.03 0854.53
2009/04/23 13:11:49.5    -100   -263    240    282    370 200.9  44.8  34182  289.94 0854.53
2009/04/23 13:11:49.6     -75   -227    219    240    324 198.3  47.0  34180  289.90 0854.53
2009/04/23 13:11:49.7     -83   -296    137    308    337 195.8  25.6  34184  289.98 0854.53
2009/04/23 13:11:49.8    -108   -170    106    202    228 212.5  29.8  34186  290.02 0854.53
2009/04/23 13:11:49.9    -287   -304    160    419    448 223.3  22.0  34186  290.02 0854.53
2009/04/23 13:11:50.0    -399   -335     95    522    531 230.0  10.4  34202  290.30 0854.53
2009/04/23 13:11:50.1    -370   -119    -42    389    392 252.1  -6.2  34188  290.06 0854.53
2009/04/23 13:11:50.2    -442    -16   -158    443    471 267.9 -19.7  34184  289.99 0854.53
2009/04/23 13:11:50.3    -236   -127    170    269    318 241.6  35.2  34196  290.19 0854.53
2009/04/23 13:11:50.4    -229   -190    103    298    316 230.4  19.2  34188  290.05 0854.54
2009/04/23 13:11:50.5    -152   -287     71    325    333 207.9  12.4  34182  289.96 0854.54
2009/04/23 13:11:50.6     -89   -342    160    354    388 194.7  26.2  34178  289.89 0854.54
2009/04/23 13:11:50.7     -31   -348    133    350    374 185.2  21.8  34184  289.99 0854.54
2009/04/23 13:11:50.8     -68   -387     62    394    399 190.0   9.0  34178  289.89 0854.54
2009/04/23 13:11:50.9     -40   -427     -1    430    431 185.4  -0.3  34178  289.87 0854.54
2009/04/23 13:11:51.0    -128   -480     33    497    499 195.0   3.9  34178  289.89 0854.54
2009/04/23 13:11:51.1     -12   -407     57    408    413 181.8   8.0  34180  289.92 0854.54
2009/04/23 13:11:51.2     -21   -385     36    386    388 183.2   5.4  34178  289.89 0854.54
2009/04/23 13:11:51.3     -56   -387    107    392    407 188.3  15.3  34182  289.94 0854.54
2009/04/23 13:11:51.4     132   -320    191    347    396 157.6  31.3  34182  289.96 0854.54
2009/04/23 13:11:51.5     106   -449     12    462    463 166.7   1.5  34178  289.88 0854.54
2009/04/23 13:11:51.6      36   -273     13    276    277 172.4   2.8  34180  289.90 0854.54
2009/04/23 13:11:51.7     113   -240     67    266    275 154.8  14.3  34184  289.97 0854.54
2009/04/23 13:11:51.8      52   -200     48    207    213 165.3  13.2  34180  289.92 0854.54
2009/04/23 13:11:51.9      57    -61     98     84    129 136.8  55.4  34184  289.99 0854.54
2009/04/23 13:11:52.0      -9   -140     23    141    143 184.0   9.5  34184  289.97 0854.54
2009/04/23 13:11:52.1     -82   -148     84    170    189 209.0  28.0  34184  289.99 0854.54
2009/04/23 13:11:52.2       9   -195    166    196    256 177.3  44.8  34188  290.05 0854.54
2009/04/23 13:11:52.3     -39   -280    117    283    306 188.1  23.8  34190  290.07 0854.54
2009/04/23 13:11:52.4    -139   -300    101    331    347 205.0  17.1  34190  290.08 0854.54
2009/04/23 13:11:52.5    -161   -402    127    434    453 201.9  16.3  34184  289.99 0854.54
2009/04/23 13:11:52.6     -50   -408    234    412    473 187.1  32.3  34186  290.00 0854.54
2009/04/23 13:11:52.7     -28   -424    182    425    462 183.9  24.6  34192  290.11 0854.54
2009/04/23 13:11:52.8     -52   -383    225    387    447 187.8  33.0  34196  290.17 0854.54
2009/04/23 13:11:52.9     -37   -347    148    350    380 186.2  24.3  34182  289.94 0854.54
2009/04/23 13:11:53.0     111   -411    180    426    462 164.9  24.2  34194  290.14 0854.54
2009/04/23 13:11:53.1     -22   -478    172    479    508 182.7  20.6  34192  290.12 0854.54
2009/04/23 13:11:53.2     119   -443    142    459    481 164.9  17.2  34192  290.10 0854.54
2009/04/23 13:11:53.3      44   -360    140    363    389 172.9  22.2  34192  290.10 0854.54
2009/04/23 13:11:53.4     -76   -424    141    431    454 190.2  18.1  34192  290.11 0854.54
2009/04/23 13:11:53.5    -165   -465    202    494    533 199.6  23.5  34190  290.07 0854.54
2009/04/23 13:11:53.6    -143   -280    202    315    374 207.2  35.6  34192  290.13 0854.54
2009/04/23 13:11:53.7     -82   -372    297    382    483 192.5  41.7  34184  289.99 0854.54
2009/04/23 13:11:53.8    -133   -436    274    456    531 197.0  33.8  34188  290.03 0854.54
2009/04/23 13:11:53.9    -301   -487    134    573    589 211.7  13.2  34190  290.08 0854.54
2009/04/23 13:11:54.0    -305   -366    131    477    495 219.8  15.4  34186  290.00 0854.54
2009/04/23 13:11:54.1    -273   -290    223    399    457 223.2  31.5  34188  290.05 0854.54
2009/04/23 13:11:54.2    -287   -260    269    388    472 227.9  38.0  34194  290.16 0854.54
2009/04/23 13:11:54.3    -369   -122    256    389    465 251.6  36.5  34188  290.05 0854.54
2009/04/23 13:11:54.4    -282     88     10    296    297 287.3   2.1  34194  290.15 0854.54
2009/04/23 13:11:54.5    -421     31    -63    423    428 274.3  -8.6  34190  290.07 0854.54
2009/04/23 13:11:54.6    -625    -23     -6    626    627 267.9  -0.6  34202  290.28 0854.54
2009/04/23 13:11:54.7    -501   -130     19    518    519 255.4   2.1  34196  290.18 0854.54
2009/04/23 13:11:54.8    -246   -202     -2    319    320 230.7  -0.5  34210  290.42 0854.54
2009/04/23 13:11:54.9    -181   -292    208    344    401 211.9  34.0  34182  289.93 0854.54
2009/04/23 13:11:55.0    -132   -329    241    355    429 201.9  37.4  34190  290.09 0854.54
2009/04/23 13:11:55.1    -195    -91    138    216    256 244.9  35.6  34192  290.12 0854.54
2009/04/23 13:11:55.2    -352     -3     64    353    359 269.5  10.3  34198  290.20 0854.54
2009/04/23 13:11:55.3    -103   -326     59    343    349 197.6   9.9  34188  290.06 0854.54
2009/04/23 13:11:55.4    -229   -229     37    325    328 225.0   6.6  34184  289.97 0854.54
2009/04/23 13:11:55.5    -296   -429     -6    522    523 214.6  -0.7  34178  289.87 0854.54
2009/04/23 13:11:55.6    -158   -521    -29    545    546 196.9  -3.1  34178  289.89 0854.54
2009/04/23 13:11:55.7    -129   -502    -61    519    523 194.4  -6.8  34162  289.62 0854.54
2009/04/23 13:11:55.8    -359   -283    -82    458    466 231.7 -10.2  34176  289.85 0854.54
2009/04/23 13:11:55.9    -102   -391    -48    405    408 194.7  -6.9  34168  289.70 0854.54
2009/04/23 13:11:56.0     -18   -397      1    398    399 182.6   0.2  34178  289.89 0854.54
2009/04/23 13:11:56.1     -47   -420    -13    423    424 186.5  -1.8  34186  290.00 0854.54
2009/04/23 13:11:56.2    -173   -278   -105    328    344 212.0 -22.9  34168  289.71 0854.54
2009/04/23 13:11:56.3    -196   -202    -93    282    296 224.1 -23.8  34184  289.98 0854.54
2009/04/23 13:11:56.4    -174   -299    -81    347    357 210.2 -13.2  34160  289.57 0854.54
2009/04/23 13:11:56.5      35   -240     12    243    244 171.5   2.9  34168  289.71 0854.54
2009/04/23 13:11:56.6     124   -115     66    170    182 132.9  22.3  34168  289.70 0854.54
2009/04/23 13:11:56.7     367    -39    381    370    531  96.1  51.1  34162  289.62 0854.54
2009/04/23 13:11:56.8     247    -76    297    259    394 107.1  54.4  34162  289.60 0854.54
2009/04/23 13:11:56.9     253    -54    166    259    307 102.2  35.6  34164  289.63 0854.54
2009/04/23 13:11:57.0     363   -252    329    443    551 124.8  40.2  34152  289.44 0854.54
2009/04/23 13:11:57.1     107   -197    325    225    395 151.5  62.1  34164  289.64 0854.54
2009/04/23 13:11:57.2     368   -187    276    414    497 117.0  36.9  34160  289.56 0854.54
2009/04/23 13:11:57.3     354   -248    226    433    488 125.1  29.8  34164  289.64 0854.54
2009/04/23 13:11:57.4     285   -115    237    308    388 112.0  41.5  34168  289.72 0854.54
2009/04/23 13:11:57.5     298   -141    237    330    406 115.4  39.2  34166  289.69 0854.54
2009/04/23 13:11:57.6     265    -87    185    279    334 108.2  36.7  34166  289.68 0854.54
2009/04/23 13:11:57.7     268    -52    256    274    374 101.0  47.9  34166  289.67 0854.54
2009/04/23 13:11:57.8     267    -35    151    270    309  97.5  31.4  34162  289.59 0854.54
2009/04/23 13:11:57.9     236    -36    171    239    293  98.8  39.5  34168  289.70 0854.54
2009/04/23 13:11:58.0     295    -64    141    302    333 102.3  27.0  34158  289.54 0854.54
2009/04/23 13:11:58.1     274    -90    154    289    327 108.2  30.3  34154  289.47 0854.54
2009/04/23 13:11:58.2     254    -55    166    260    308 102.3  35.6  34166  289.68 0854.54
2009/04/23 13:11:58.3     260    -52    106    266    286 101.4  23.0  34174  289.81 0854.54
2009/04/23 13:11:58.4     266    -32    105    268    287  97.0  22.5  34174  289.81 0854.55
2009/04/23 13:11:58.5     276    -55    116    282    304 101.4  23.6  34162  289.59 0854.55
2009/04/23 13:11:58.6     217    -64    182    227    290 106.6  43.0  34160  289.58 0854.55
2009/04/23 13:11:58.7     282   -151    169    321    362 118.2  30.0  34160  289.57 0854.55
2009/04/23 13:11:58.8     222   -157    148    273    310 125.3  31.3  34162  289.59 0854.55
2009/04/23 13:11:58.9     256   -148    124    296    320 120.0  24.1  34162  289.61 0854.55
2009/04/23 13:11:59.0     266   -128    129    296    322 115.8  25.0  34160  289.56 0854.55
2009/04/23 13:11:59.1     240   -143    115    280    302 120.9  23.1  34162  289.59 0854.55
2009/04/23 13:11:59.2     252   -124     89    281    295 116.2  17.7  34166  289.66 0854.55
2009/04/23 13:11:59.3     255   -133    109    288    307 117.5  21.7  34164  289.63 0854.55
2009/04/23 13:11:59.4     281   -108    110    302    321 111.1  20.7  34158  289.53 0854.55
2009/04/23 13:11:59.5     304    -66    141    312    342 102.3  26.0  34152  289.45 0854.55
2009/04/23 13:11:59.6     259   -210    176    334    377 129.1  30.1  34158  289.55 0854.55
2009/04/23 13:11:59.7     353   -211    173    412    446 120.8  24.1  34160  289.58 0854.55
2009/04/23 13:11:59.8     232   -191    110    301    320 129.5  20.8  34162  289.61 0854.55
2009/04/23 13:11:59.9     272   -211    212    345    404 127.9  34.5  34164  289.64 0854.55
2009/04/23 13:12:00.0     307    -80    214    318    383 104.6  37.2  34158  289.55 0854.55
2009/04/23 13:12:00.1     109   -142    187    180    259 142.4  51.2  34166  289.68 0854.55
2009/04/23 13:12:00.2      25   -172    226    174    285 171.5  58.5  34172  289.76 0854.55
2009/04/23 13:12:00.3      25    -92    106     96    143 164.9  52.2  34168  289.70 0854.55
2009/04/23 13:12:00.4      39   -116     81    123    147 161.3  36.0  34164  289.63 0854.54
2009/04/23 13:12:00.5     -17   -141    165    143    218 187.1  54.6  34172  289.79 0854.54
2009/04/23 13:12:00.6     167   -182    163    248    296 137.5  36.5  34164  289.64 0854.54
2009/04/23 13:12:00.7     163   -108    175    196    262 123.5  46.6  34170  289.73 0854.54
2009/04/23 13:12:00.8     117    -83    132    144    195 125.5  47.5  34166  289.67 0854.54
2009/04/23 13:12:00.9     154    -96    176    182    253 122.0  49.0  34162  289.62 0854.54
2009/04/23 13:12:01.0     200   -173    174    265    317 130.9  36.4  34166  289.66 0854.54
2009/04/23 13:12:01.1     217   -161    187    271    329 126.6  37.8  34170  289.75 0854.54
2009/04/23 13:12:01.2     167   -155    114    228    254 132.9  28.5  34168  289.70 0854.54
2009/04/23 13:12:01.3     139   -115    138    181    227 129.8  41.2  34168  289.70 0854.54
2009/04/23 13:12:01.4     123   -192     70    229    240 147.3  17.1  34166  289.68 0854.54
2009/04/23 13:12:01.5     102   -207    116    231    258 153.7  28.5  34162  289.61 0854.54
2009/04/23 13:12:01.6     105   -138     63    174    185 142.6  20.2  34166  289.67 0854.54
2009/04/23 13:12:01.7     112   -105     29    154    157 133.2  11.0  34162  289.62 0854.54
2009/04/23 13:12:01.8      98    -64     37    118    124 123.3  17.4  34162  289.62 0854.54
2009/04/23 13:12:01.9      25   -258     76    260    271 174.4  16.3  34158  289.54 0854.54
2009/04/23 13:12:02.0      61   -244     57    252    259 165.8  12.9  34156  289.51 0854.54
2009/04/23 13:12:02.1      88   -230     67    247    256 159.1  15.2  34160  289.56 0854.54
2009/04/23 13:12:02.2      83   -205     62    222    231 157.9  15.8  34156  289.52 0854.54
2009/04/23 13:12:02.3      75   -208     48    222    228 160.2  12.2  34158  289.55 0854.54
2009/04/23 13:12:02.4      61   -213     68    222    233 164.0  17.1  34160  289.57 0854.54
2009/04/23 13:12:02.5      58   -165     63    175    185 160.6  20.2  34158  289.55 0854.54
2009/04/23 13:12:02.6      66   -157     60    171    182 157.3  19.4  34160  289.57 0854.54
2009/04/23 13:12:02.7      47   -152     56    160    170 162.6  19.4  34158  289.55 0854.54
2009/04/23 13:12:02.8       3    -84     35     85     91 177.8  23.6  34158  289.55 0854.54
2009/04/23 13:12:02.9     -19    -90      9     93     94 192.0   5.9  34160  289.57 0854.54
2009/04/23 13:12:03.0      24    -72      3     77     78 161.3   2.9  34160  289.57 0854.54
2009/04/23 13:12:03.1      15    -71      3     73     74 167.5   2.8  34162  289.60 0854.54
2009/04/23 13:12:03.3      -5    -64     17     65     68 184.5  15.2  34160  289.58 0854.54
2009/04/23 13:12:03.3     -35    -50      6     62     63 215.2   5.9  34164  289.63 0854.54
2009/04/23 13:12:03.4     -43    -45      6     63     64 223.2   5.9  34162  289.60 0854.54
2009/04/23 13:12:03.6     -59     -8     37     60     70 262.1  35.5  34162  289.62 0854.54
2009/04/23 13:12:03.7     -88    -32     50     94    106 249.6  30.8  34162  289.60 0854.54
2009/04/23 13:12:03.8     -93    -40     57    102    116 246.5  31.4  34166  289.67 0854.54
2009/04/23 13:12:03.9    -102     15     58    104    119 278.8  31.4  34164  289.65 0854.54
2009/04/23 13:12:04.0     -57     19     65     61     89 288.4  51.6  34166  289.69 0854.54
2009/04/23 13:12:04.1     -50     32     59     60     84 303.3  50.5  34172  289.77 0854.54
2009/04/23 13:12:04.2     -44     18     51     48     70 292.6  52.1  34174  289.80 0854.54
2009/04/23 13:12:04.3     -26     26     55     37     66 315.0  63.6  34176  289.85 0854.54
2009/04/23 13:12:04.4     -50     26     62     57     84 298.0  52.2  34172  289.79 0854.54
2009/04/23 13:12:04.5     -82     19     76     85    114 283.3  46.9  34182  289.94 0854.55
2009/04/23 13:12:04.6     -90      6     69     91    114 274.4  41.2  34180  289.92 0854.55
2009/04/23 13:12:04.7    -111     49     68    122    139 294.0  31.4  34180  289.92 0854.55
2009/04/23 13:12:04.8     -48     48     41     68     79 315.0  34.0  34186  290.02 0854.55
2009/04/23 13:12:04.9     -24     17     43     30     52 306.0  61.5  34190  290.08 0854.55
2009/04/23 13:12:05.0     -27      2     64     28     69 276.1  74.0  34186  290.01 0854.55
2009/04/23 13:12:05.1     -85    -20     65     88    109 256.7  39.7  34180  289.91 0854.55
2009/04/23 13:12:05.2    -170     21     61    172    182 277.2  20.0  34186  290.01 0854.55
2009/04/23 13:12:05.3    -204     36     60    208    217 280.1  16.3  34180  289.91 0854.55
2009/04/23 13:12:05.4    -234     64     30    243    245 285.5   7.1  34182  289.93 0854.55
2009/04/23 13:12:05.5    -164     73     35    180    184 294.0  11.1  34190  290.08 0854.55
2009/04/23 13:12:05.6     -70    -14     47     72     85 258.5  36.0  34188  290.06 0854.55
2009/04/23 13:12:05.7     -14    -22     33     27     42 212.5  55.4  34192  290.11 0854.55
2009/04/23 13:12:05.8      35    -16     60     39     71 115.2  64.6  34200  290.25 0854.55
2009/04/23 13:12:05.9      78    -37     78     87    116 115.3  46.9  34190  290.09 0854.55
2009/04/23 13:12:06.0      20    -61    102     65    120 161.5  64.7  34180  289.91 0854.55
2009/04/23 13:12:06.1     123   -102    113    160    195 129.6  38.6  34174  289.82 0854.55
2009/04/23 13:12:06.2     137    -46    104    145    178 108.6  39.3  34172  289.77 0854.55
2009/04/23 13:12:06.3     163   -143    144    217    260 131.3  36.5  34172  289.78 0854.55
2009/04/23 13:12:06.4      25   -245    106    247    268 174.0  24.6  34162  289.59 0854.55
2009/04/23 13:12:06.5      22   -290    212    291    360 175.6  39.7  34178  289.89 0854.55
2009/04/23 13:12:06.6     -45   -264    175    268    320 189.8  36.2  34178  289.86 0854.55
2009/04/23 13:12:06.7     -33   -339    137    341    367 185.6  23.0  34174  289.81 0854.55
2009/04/23 13:12:06.8      86   -160     98    182    206 151.7  30.8  34174  289.82 0854.55
2009/04/23 13:12:06.9     148    -93    114    176    209 122.2  35.7  34180  289.92 0854.55
2009/04/23 13:12:07.0     215   -107    113    241    266 116.6  27.1  34180  289.90 0854.55
2009/04/23 13:12:07.1     126   -181     85    221    236 145.0  22.1  34178  289.87 0854.55
2009/04/23 13:12:07.2      37   -298    152    301    337 172.9  28.9  34178  289.86 0854.55
2009/04/23 13:12:07.3     145   -284     75    319    328 152.9  13.2  34178  289.86 0854.55
2009/04/23 13:12:07.4      53   -160     14    169    170 161.5   4.9  34176  289.84 0854.55
2009/04/23 13:12:07.5     132   -123    116    181    214 133.1  35.6  34176  289.84 0854.56
2009/04/23 13:12:07.6     179    -99     94    205    225 118.9  26.6  34176  289.84 0854.56
2009/04/23 13:12:07.7     160   -102     39    190    195 122.5  11.6  34176  289.84 0854.56
2009/04/23 13:12:07.8     203   -157     70    257    267 127.7  15.3  34170  289.73 0854.56
2009/04/23 13:12:07.9     234   -104    123    257    284 114.0  27.3  34174  289.81 0854.56
2009/04/23 13:12:08.0     207   -111     85    236    252 118.2  19.9  34178  289.88 0854.56
2009/04/23 13:12:08.1      91   -142    128    169    212 147.3  41.2  34174  289.80 0854.56
2009/04/23 13:12:08.2      49   -147    121    156    197 161.3  41.7  34180  289.91 0854.56
2009/04/23 13:12:08.3      33   -240      2    243    244 172.0   0.5  34180  289.92 0854.56
2009/04/23 13:12:08.4     -57   -209     34    217    220 195.4   9.0  34174  289.82 0854.56
2009/04/23 13:12:08.5    -118   -274    -28    299    301 203.4  -5.4  34176  289.83 0854.56
2009/04/23 13:12:08.6     -69   -356      3    363    364 191.1   0.5  34178  289.86 0854.56
2009/04/23 13:12:08.7     -74   -358    -37    366    368 191.7  -5.9  34178  289.86 0854.56
2009/04/23 13:12:08.8    -143   -291    -14    325    326 206.3  -2.5  34174  289.81 0854.56
2009/04/23 13:12:08.9     -87   -270     -6    284    285 198.0  -1.3  34180  289.90 0854.56
2009/04/23 13:12:09.0    -105   -250     28    272    274 202.7   6.0  34178  289.88 0854.56
2009/04/23 13:12:09.1     -54   -231    -41    238    242 193.1  -9.8  34180  289.92 0854.56
2009/04/23 13:12:09.2     166   -106    154    198    250 122.6  42.0  34180  289.90 0854.56
2009/04/23 13:12:09.3       8   -164    158    165    228 177.1  48.7  34174  289.80 0854.56
2009/04/23 13:12:09.4     162   -135    139    212    253 129.8  36.3  34164  289.64 0854.56
2009/04/23 13:12:09.5     161    -99    -53    190    197 121.5 -20.0  34176  289.85 0854.56
2009/04/23 13:12:09.6     190   -215    116    288    310 138.6  23.1  34162  289.61 0854.56
2009/04/23 13:12:09.7     215   -267    266    343    434 141.2  41.7  34184  289.97 0854.56
2009/04/23 13:12:09.8      84   -157    192    179    262 151.7  52.2  34176  289.83 0854.56
2009/04/23 13:12:09.9      45    -54     86     71    111 140.4  56.4  34180  289.91 0854.56
2009/04/23 13:12:10.0     -41   -133    117    140    182 197.4  44.1  34180  289.92 0854.56
2009/04/23 13:12:10.1     -61   -149    107    162    194 202.3  36.0  34178  289.87 0854.56
2009/04/23 13:12:10.2    -132    -76      7    153    154 240.2   2.9  34180  289.91 0854.56
2009/04/23 13:12:10.3     -25     -1     32     26     41 265.6  56.4  34182  289.94 0854.56
2009/04/23 13:12:10.4      37    -41    -20     56     60 138.6 -19.7  34180  289.92 0854.56
2009/04/23 13:12:10.5      35   -106    -22    112    115 161.7 -11.3  34176  289.84 0854.56
2009/04/23 13:12:10.6     116   -181    136    216    255 147.4  35.5  34170  289.73 0854.56
2009/04/23 13:12:10.7     117   -258    147    284    319 155.5  29.5  34168  289.71 0854.56
2009/04/23 13:12:10.8     123   -336    234    359    428 159.8  36.0  34162  289.61 0854.56
2009/04/23 13:12:10.9     201   -371    195    423    465 151.5  26.6  34162  289.60 0854.56
2009/04/23 13:12:11.0     175   -344    141    387    411 153.0  21.0  34164  289.63 0854.56
2009/04/23 13:12:11.1     166   -377    173    413    447 156.2  24.1  34166  289.68 0854.56
2009/04/23 13:12:11.2     129   -388    175    409    444 161.6  24.8  34166  289.66 0854.56
2009/04/23 13:12:11.3     116   -351    194    370    417 161.7  30.0  34164  289.65 0854.56
2009/04/23 13:12:11.4     148   -298    109    333    351 153.5  18.1  34168  289.71 0854.55
2009/04/23 13:12:11.5     144   -224     97    267    284 147.3  20.9  34170  289.73 0854.55
2009/04/23 13:12:11.6      94   -219    107    239    261 156.8  25.7  34166  289.68 0854.55
2009/04/23 13:12:11.7      33   -184     70    187    199 169.8  21.3  34166  289.69 0854.55
2009/04/23 13:12:11.8      -8   -236     99    237    256 182.0  24.1  34170  289.73 0854.55
2009/04/23 13:12:11.9     -12   -157     32    158    162 184.5  11.4  34170  289.74 0854.55
2009/04/23 13:12:12.0      24    -72     60     77     97 161.3  42.2  34166  289.67 0854.55
2009/04/23 13:12:12.1      20   -120     64    122    137 170.2  29.8  34168  289.72 0854.55
2009/04/23 13:12:12.2      16   -114     51    116    126 172.0  25.1  34170  289.74 0854.55
2009/04/23 13:12:12.3      39    -97      7    105    106 158.1   3.8  34172  289.79 0854.55
2009/04/23 13:12:12.4      94   -105     63    142    155 138.1  25.2  34166  289.69 0854.55
2009/04/23 13:12:12.5      42   -157     68    163    176 164.9  23.8  34172  289.79 0854.55
2009/04/23 13:12:12.6       9   -163     85    164    184 176.6  29.5  34168  289.72 0854.55
2009/04/23 13:12:12.7       4   -127     98    128    161 177.8  41.4  34170  289.75 0854.55
2009/04/23 13:12:12.8     -11   -101    124    102    160 186.2  56.4  34174  289.82 0854.55
2009/04/23 13:12:12.9      -4     13    104     14    104 341.3  90.0  34188  290.04 0854.55
2009/04/23 13:12:13.0      46     51    112     69    131  42.3  65.1  34182  289.96 0854.55
2009/04/23 13:12:13.1      20     49    115     54    127  22.7  73.1  34188  290.04 0854.55
2009/04/23 13:12:13.2     -17     22     91     28     95 322.2  81.8  34190  290.09 0854.55
2009/04/23 13:12:13.3     -35    -16     96     39    103 244.8  77.1  34198  290.21 0854.55
2009/04/23 13:12:13.4     -46    -31    113     56    126 235.8  71.9  34200  290.25 0854.56
2009/04/23 13:12:13.5     -49   -103    120    115    166 205.3  51.2  34184  289.97 0854.56
2009/04/23 13:12:13.6      77   -148    107    168    199 152.4  35.5  34178  289.89 0854.56
2009/04/23 13:12:13.7      25   -148     87    151    174 170.2  32.9  34174  289.82 0854.56
2009/04/23 13:12:13.8     -43   -162     10    168    169 194.9   3.6  34174  289.82 0854.56
2009/04/23 13:12:13.9     -99   -179    -41    205    210 208.9 -11.5  34168  289.72 0854.56
2009/04/23 13:12:14.0      30   -243      4    245    246 172.8   1.0  34174  289.80 0854.56
2009/04/23 13:12:14.1    -161   -119     10    201    202 233.4   2.9  34176  289.85 0854.56
2009/04/23 13:12:14.2    -147   -157    -12    216    217 223.0  -3.2  34176  289.85 0854.56
2009/04/23 13:12:14.3      73   -201     89    215    232 160.0  23.6  34172  289.77 0854.56
2009/04/23 13:12:14.4      24   -173     75    175    190 172.0  24.6  34168  289.72 0854.56
2009/04/23 13:12:14.5     -65   -193     49    204    210 198.7  13.7  34178  289.87 0854.56
2009/04/23 13:12:14.6     -63   -142     57    156    166 204.1  20.4  34174  289.80 0854.56
2009/04/23 13:12:14.7     -24   -222     67    224    234 186.2  16.8  34170  289.75 0854.56
2009/04/23 13:12:14.8    -166   -274     27    321    323 211.2   4.9  34172  289.78 0854.56
2009/04/23 13:12:14.9     -87   -303     24    316    317 196.0   4.4  34170  289.75 0854.56
2009/04/23 13:12:15.0     -55   -271     12    277    278 191.6   2.5  34170  289.75 0854.56
2009/04/23 13:12:15.1     -27   -210     45    212    217 187.3  12.0  34170  289.74 0854.56
2009/04/23 13:12:15.2     -38   -201     66    205    216 190.7  17.9  34170  289.75 0854.56
2009/04/23 13:12:15.3     -54   -226    117    233    260 193.6  28.5  34170  289.75 0854.56
2009/04/23 13:12:15.4      74   -276    117    286    309 164.9  23.1  34170  289.75 0854.56
2009/04/23 13:12:15.5     -21   -272    156    273    314 184.5  32.3  34170  289.73 0854.56
2009/04/23 13:12:15.6     -25   -328    145    330    360 184.5  25.2  34172  289.77 0854.56
2009/04/23 13:12:15.7      10   -366    185    367    410 178.3  28.9  34168  289.71 0854.56
2009/04/23 13:12:15.8      36   -454    183    456    491 175.4  23.1  34172  289.78 0854.56
2009/04/23 13:12:15.9     -43   -384    118    387    405 186.5  17.0  34172  289.76 0854.56
2009/04/23 13:12:16.0     -65   -458    148    463    487 188.1  17.8  34170  289.74 0854.56
2009/04/23 13:12:16.1     -95   -415     79    426    434 193.0  10.6  34174  289.82 0854.56
2009/04/23 13:12:16.2     -70   -441     73    447    454 189.1   9.3  34172  289.77 0854.56
2009/04/23 13:12:16.3     -65   -369     62    375    381 190.1   9.4  34172  289.76 0854.56
2009/04/23 13:12:16.4     -10   -292    106    293    312 182.0  19.9  34168  289.71 0854.56
2009/04/23 13:12:16.5     140   -311    148    342    372 155.7  25.0  34172  289.79 0854.56
2009/04/23 13:12:16.6      42   -296    145    300    333 171.8  27.7  34174  289.80 0854.56
2009/04/23 13:12:16.7     100   -326    208    342    400 163.0  34.3  34172  289.77 0854.56
2009/04/23 13:12:16.8      45   -320    108    324    342 172.0  18.6  34170  289.74 0854.56
2009/04/23 13:12:16.9      -4   -332    155    333    367 180.8  27.0  34174  289.82 0854.56
2009/04/23 13:12:17.0     -22   -249    103    251    271 185.1  23.4  34178  289.86 0854.56
2009/04/23 13:12:17.1     -17   -217     50    218    224 184.5  13.1  34168  289.72 0854.56
2009/04/23 13:12:17.2     -29   -141    219    145    262 191.6  63.6  34178  289.87 0854.56
2009/04/23 13:12:17.3     -90   -241    137    258    292 200.5  30.3  34170  289.73 0854.56
2009/04/23 13:12:17.4     -53   -236     75    242    254 192.7  17.3  34170  289.75 0854.55
2009/04/23 13:12:17.5     -96   -221      8    242    243 203.6   2.1  34174  289.81 0854.55
2009/04/23 13:12:17.6       0   -221    107    222    246 180.0  27.3  34174  289.81 0854.55
2009/04/23 13:12:17.7      32   -229     72    232    243 171.9  17.3  34174  289.80 0854.55
2009/04/23 13:12:17.8     135   -208     28    249    251 147.0   6.5  34172  289.76 0854.55
2009/04/23 13:12:17.9      95   -207     27    228    230 155.3   6.9  34172  289.77 0854.55
2009/04/23 13:12:18.0      87   -209     62    227    236 157.3  15.3  34178  289.86 0854.55
2009/04/23 13:12:18.1      68   -175     23    189    191 158.6   7.2  34174  289.82 0854.55
2009/04/23 13:12:18.2      54   -114    -11    127    128 154.5  -5.2  34178  289.87 0854.55
2009/04/23 13:12:18.3      52    -76      4     93     94 145.7   2.8  34176  289.85 0854.55
2009/04/23 13:12:18.4      71   -110     20    132    134 147.0   9.0  34178  289.87 0854.55
2009/04/23 13:12:18.5     -35   -247     -9    250    251 188.1  -2.1  34170  289.75 0854.55
2009/04/23 13:12:18.6     -37   -267     57    270    277 188.0  12.0  34176  289.85 0854.55
2009/04/23 13:12:18.7     -72   -226     69    238    248 197.8  16.3  34178  289.88 0854.55
2009/04/23 13:12:18.8     -35   -207     90    211    229 189.8  24.6  34176  289.84 0854.55
2009/04/23 13:12:18.9      88   -352    197    363    413 165.9  30.9  34174  289.81 0854.55
2009/04/23 13:12:19.0     -12   -268    182    269    324 182.7  37.3  34180  289.90 0854.55
2009/04/23 13:12:19.1     -11   -338    166    339    377 182.0  28.0  34180  289.91 0854.55
2009/04/23 13:12:19.2      19   -255    251    256    358 175.6  49.7  34178  289.86 0854.55
2009/04/23 13:12:19.3      20   -154    204    156    256 172.4  59.0  34182  289.96 0854.55
2009/04/23 13:12:19.4     -82   -248    164    262    309 198.3  35.5  34178  289.86 0854.54
2009/04/23 13:12:19.5     -25   -218     53    220    227 186.7  13.7  34176  289.84 0854.54
2009/04/23 13:12:19.6       0    -89    152     90    176 180.5  67.0  34188  290.04 0854.54
2009/04/23 13:12:19.7     -73   -158    140    175    224 204.9  42.7  34180  289.92 0854.54
2009/04/23 13:12:19.8       4   -100    164    101    192 177.3  65.1  34186  290.01 0854.54
2009/04/23 13:12:19.9     -67   -190    144    202    248 199.6  39.1  34180  289.90 0854.54
2009/04/23 13:12:20.0     -94   -209    204    230    307 204.3  46.2  34180  289.90 0854.54
2009/04/23 13:12:20.1    -137   -165    170    215    274 219.6  42.4  34174  289.81 0854.54
2009/04/23 13:12:20.2     -62    -98    149    117    189 212.5  57.7  34180  289.91 0854.54
2009/04/23 13:12:20.3    -129   -104    107    167    198 231.1  35.6  34184  289.97 0854.54
2009/04/23 13:12:20.4    -120   -188    124    224    256 212.5  31.4  34176  289.83 0854.54
2009/04/23 13:12:20.5    -205   -182    111    275    296 228.4  23.1  34176  289.83 0854.54
2009/04/23 13:12:20.6    -209   -202    120    291    314 226.0  23.7  34174  289.81 0854.54
2009/04/23 13:12:20.7    -241   -253    136    350    375 223.7  22.5  34180  289.91 0854.54
2009/04/23 13:12:20.8    -278   -279     68    394    400 224.9   9.9  34172  289.79 0854.54
2009/04/23 13:12:20.9    -306   -306     -8    434    435 225.0  -1.2  34178  289.87 0854.54
2009/04/23 13:12:21.0    -317   -155    -42    354    357 243.9  -6.8  34158  289.55 0854.54
2009/04/23 13:12:21.1    -217    -86     46    234    239 248.3  11.1  34160  289.56 0854.54
2009/04/23 13:12:21.2    -192   -318     97    372    385 211.2  14.6  34168  289.71 0854.54
2009/04/23 13:12:21.3    -200   -439     72    483    489 204.5   8.5  34176  289.83 0854.54
2009/04/23 13:12:21.4    -387   -375    -25    540    541 225.9  -2.7  34150  289.41 0854.54
2009/04/23 13:12:21.5    -472   -176   -145    504    525 249.5 -16.0  34158  289.54 0854.54
2009/04/23 13:12:21.6    -440   -177   -140    475    495 248.1 -21.2  34154  289.47 0854.54
2009/04/23 13:12:21.7    -425   -173   -177    460    492 247.8 -26.6  34154  289.47 0854.54
2009/04/23 13:12:21.8    -406   -134   -188    428    467 251.7 -29.6  34154  289.48 0854.54
2009/04/23 13:12:21.9    -375   -156   -114    407    422 247.4 -20.2  34150  289.39 0854.54
2009/04/23 13:12:22.0    -351   -123   -124    373    393 250.6 -23.6  34148  289.37 0854.54
2009/04/23 13:12:22.1    -348   -117   -188    368    413 251.4 -33.6  34146  289.33 0854.54
2009/04/23 13:12:22.2    -312   -133   -203    340    395 247.0 -38.0  34146  289.33 0854.54
2009/04/23 13:12:22.3    -298   -111   -199    319    375 249.6 -39.5  34148  289.37 0854.54
2009/04/23 13:12:22.4    -279   -178   -162    332    369 237.5 -32.3  34162  289.60 0854.54
2009/04/23 13:12:22.5    -229   -172   -106    287    305 233.2 -25.4  34158  289.53 0854.54
2009/04/23 13:12:22.6    -212   -181    -71    279    288 229.5 -14.3  34158  289.54 0854.54
2009/04/23 13:12:22.7    -157   -166   -110    229    254 223.3 -31.7  34156  289.51 0854.54
2009/04/23 13:12:22.8     -72   -295    -11    304    305 193.8  -2.2  34154  289.46 0854.54
2009/04/23 13:12:22.9    -241   -199   -110    313    332 230.4 -19.4  34148  289.37 0854.54
2009/04/23 13:12:23.0    -190   -203    -77    279    290 223.0 -15.5  34156  289.49 0854.54
2009/04/23 13:12:23.1    -124   -285    -51    312    317 203.6  -9.3  34164  289.64 0854.54
2009/04/23 13:12:23.2    -207   -171    -96    269    286 230.4 -19.7  34164  289.64 0854.54
2009/04/23 13:12:23.3    -141   -200    -73    245    256 215.2 -16.8  34156  289.51 0854.54
2009/04/23 13:12:23.4    -157   -104    -60    189    199 236.5 -17.6  34164  289.65 0854.53
2009/04/23 13:12:23.5     -70    -86    -10    112    113 219.2  -5.6  34160  289.57 0854.53
2009/04/23 13:12:23.6     -82   -114    -23    141    143 215.6  -9.3  34168  289.70 0854.53
2009/04/23 13:12:23.7     -41   -121     25    128    131 198.7  11.1  34170  289.75 0854.53
2009/04/23 13:12:23.8    -106   -174    -30    204    207 211.4  -8.6  34176  289.84 0854.53
2009/04/23 13:12:23.9      10   -166    -56    167    177 176.4 -18.7  34176  289.85 0854.53
2009/04/23 13:12:24.0      24    -91    -48     95    106 165.3 -33.1  34178  289.87 0854.53
2009/04/23 13:12:24.1     -67    -55    -67     88    110 230.5 -45.6  34180  289.92 0854.53
2009/04/23 13:12:24.2    -140   -114    -85    181    199 230.9 -31.5  34176  289.85 0854.53
2009/04/23 13:12:24.3    -210   -119   -114    242    267 240.5 -31.5  34162  289.59 0854.53
2009/04/23 13:12:24.4    -248   -281   -109    376    391 221.4 -20.8  34164  289.65 0854.53
2009/04/23 13:12:24.5    -259   -210   -121    334    355 230.9 -25.2  34154  289.48 0854.53
2009/04/23 13:12:24.6    -258   -148   -131    298    325 240.2 -29.6  34154  289.47 0854.53
2009/04/23 13:12:24.7    -215   -136   -145    255    293 237.5 -36.7  34158  289.53 0854.53
2009/04/23 13:12:24.8    -201   -201   -172    285    332 225.0 -38.4  34156  289.51 0854.53
2009/04/23 13:12:24.9    -197   -307    -63    366    372 212.7  -9.8  34162  289.59 0854.53
2009/04/23 13:12:25.0    -226   -234   -104    326    342 224.0 -23.0  34158  289.55 0854.53
2009/04/23 13:12:25.1    -331   -189   -120    382    400 240.2 -22.6  34164  289.64 0854.53
2009/04/23 13:12:25.2    -374   -149   -181    403    441 248.2 -30.4  34166  289.68 0854.53
2009/04/23 13:12:25.3    -351   -254   -149    434    458 234.0 -23.8  34168  289.70 0854.53
2009/04/23 13:12:25.4    -379   -240   -143    449    471 237.6 -22.8  34164  289.63 0854.54
2009/04/23 13:12:25.5    -361   -188   -193    408    451 242.5 -31.5  34160  289.58 0854.54
2009/04/23 13:12:25.6    -403   -189   -202    446    489 244.8 -30.6  34156  289.52 0854.54
2009/04/23 13:12:25.7    -467   -220   -112    517    530 244.8 -12.3  34170  289.74 0854.54
2009/04/23 13:12:25.8    -421   -114   -184    437    474 254.9 -28.6  34166  289.68 0854.54
2009/04/23 13:12:25.9    -441   -104   -162    454    483 256.7 -19.7  34164  289.64 0854.54
2009/04/23 13:12:26.0    -436   -157   -147    464    487 250.2 -17.7  34160  289.57 0854.54
2009/04/23 13:12:26.1    -385   -187   -140    429    451 244.1 -23.3  34160  289.58 0854.54
2009/04/23 13:12:26.2    -346   -155   -146    380    407 245.8 -26.5  34158  289.54 0854.54
2009/04/23 13:12:26.3    -396   -139    -76    420    427 250.6 -10.4  34166  289.68 0854.54
2009/04/23 13:12:26.4    -394   -136    -66    417    423 250.9  -9.0  34178  289.88 0854.54
2009/04/23 13:12:26.5    -291   -138   -114    323    343 244.6 -19.6  34182  289.96 0854.54
2009/04/23 13:12:26.6    -284   -265   -134    389    412 227.0 -19.1  34164  289.65 0854.54
2009/04/23 13:12:26.7    -261   -267   -179    374    414 224.4 -31.7  34152  289.42 0854.54
2009/04/23 13:12:26.8    -328   -158   -109    365    380 244.3 -21.7  34162  289.59 0854.54
2009/04/23 13:12:26.9    -279   -169   -149    327    359 238.9 -30.6  34154  289.48 0854.54
2009/04/23 13:12:27.0    -243   -121    -75    272    283 243.4 -15.4  34160  289.58 0854.54
2009/04/23 13:12:27.1    -208    -91   -115    228    255 246.3 -33.1  34156  289.51 0854.54
2009/04/23 13:12:27.2    -294    -45    -91    298    311 261.2 -22.1  34156  289.49 0854.54
2009/04/23 13:12:27.3    -243    -65   -131    252    284 254.9 -33.7  34152  289.44 0854.54
2009/04/23 13:12:27.4    -263    -87    -97    278    294 251.6 -24.3  34158  289.53 0854.55
2009/04/23 13:12:27.5    -250    -64   -115    259    283 255.6 -30.1  34156  289.49 0854.55
2009/04/23 13:12:27.6    -232   -105    -91    255    270 245.6 -24.4  34162  289.59 0854.55
2009/04/23 13:12:27.7    -203    -96   -106    225    248 244.6 -31.5  34162  289.59 0854.55
2009/04/23 13:12:27.8    -157   -157   -138    223    262 224.9 -39.4  34164  289.63 0854.55
2009/04/23 13:12:27.9    -209   -160    -94    264    281 232.7 -19.6  34158  289.54 0854.55
2009/04/23 13:12:28.0    -306    -77    -69    316    324 255.9 -12.4  34156  289.51 0854.55
2009/04/23 13:12:28.1    -234    -94   -128    253    283 248.2 -33.5  34152  289.44 0854.55
2009/04/23 13:12:28.2    -238    -83   -144    253    291 250.7 -36.8  34154  289.46 0854.55
2009/04/23 13:12:28.3    -237    -50    -90    243    259 258.1 -25.4  34158  289.53 0854.55
2009/04/23 13:12:28.4    -240    -96    -46    259    264 248.2 -10.1  34158  289.53 0854.55
2009/04/23 13:12:28.5    -258    -92   -126    275    302 250.3 -30.6  34158  289.54 0854.55
2009/04/23 13:12:28.6    -135   -127   -127    186    225 226.8 -42.0  34154  289.46 0854.55
2009/04/23 13:12:28.7    -177    -76   -105    193    219 246.7 -35.7  34156  289.52 0854.55
2009/04/23 13:12:28.8    -171    -41   -143    176    226 256.3 -48.1  34160  289.57 0854.55
2009/04/23 13:12:28.9    -246    -47   -161    251    298 259.0 -40.0  34162  289.59 0854.55
2009/04/23 13:12:29.0    -249    -79   -139    262    296 252.3 -34.7  34160  289.56 0854.55
2009/04/23 13:12:29.1    -225    -69   -110    236    260 252.9 -31.4  34158  289.54 0854.55
2009/04/23 13:12:29.2    -190    -63   -134    201    241 251.6 -40.9  34158  289.55 0854.55
2009/04/23 13:12:29.3    -156    -99   -137    185    230 237.6 -44.5  34164  289.63 0854.55
2009/04/23 13:12:29.4    -173    -69   -129    187    227 248.3 -42.2  34156  289.52 0854.55
2009/04/23 13:12:29.5    -220    -86   -128    237    269 248.5 -35.2  34162  289.59 0854.55
2009/04/23 13:12:29.6    -247    -70   -134    257    289 254.0 -33.7  34164  289.63 0854.55
2009/04/23 13:12:29.7    -262   -109   -124    284    309 247.4 -29.5  34160  289.56 0854.55
2009/04/23 13:12:29.9    -267   -130   -115    298    319 244.0 -26.4  34160  289.58 0854.55
2009/04/23 13:12:30.0    -209    -82   -115    225    252 248.5 -33.7  34164  289.63 0854.55
2009/04/23 13:12:30.1    -222    -46   -138    227    265 258.1 -38.8  34164  289.64 0854.55
2009/04/23 13:12:30.2    -217    -51   -154    223    271 256.7 -42.2  34162  289.61 0854.55
2009/04/23 13:12:30.3    -207    -19   -124    208    242 264.5 -38.1  34164  289.63 0854.55
2009/04/23 13:12:30.4    -188    -42   -153    193    246 257.4 -47.1  34162  289.62 0854.55
2009/04/23 13:12:30.5    -195    -40   -116    200    231 258.3 -37.5  34162  289.60 0854.54
2009/04/23 13:12:30.6    -225    -51   -107    231    254 257.2 -31.0  34160  289.56 0854.54
2009/04/23 13:12:30.7    -250    -59   -151    257    298 256.7 -37.8  34160  289.56 0854.54
2009/04/23 13:12:30.8    -222     -3   -192    223    294 269.1 -49.5  34162  289.59 0854.54
2009/04/23 13:12:30.9    -182    -13   -189    183    263 265.7 -55.3  34162  289.59 0854.54
2009/04/23 13:12:31.0    -178    -75   -139    194    238 247.2 -43.5  34162  289.62 0854.54
2009/04/23 13:12:31.1    -198   -118   -161    231    281 239.3 -42.8  34162  289.59 0854.54
2009/04/23 13:12:31.2    -182   -120   -158    219    270 236.5 -43.9  34160  289.58 0854.54
2009/04/23 13:12:31.3    -190   -157   -154    247    291 230.4 -39.9  34158  289.53 0854.54
2009/04/23 13:12:31.4    -187   -164   -174    249    303 228.7 -42.9  34158  289.54 0854.54
2009/04/23 13:12:31.5    -222   -126   -142    256    292 240.5 -35.8  34162  289.61 0854.54
2009/04/23 13:12:31.6    -161   -143   -107    216    241 228.4 -32.6  34170  289.75 0854.54
2009/04/23 13:12:31.7    -211   -158   -112    264    286 233.1 -28.7  34166  289.68 0854.54
2009/04/23 13:12:31.8    -142   -167    -83    220    235 220.5 -25.9  34166  289.69 0854.54
2009/04/23 13:12:31.9    -150   -126   -107    197    224 230.0 -35.7  34164  289.65 0854.54
2009/04/23 13:12:32.0    -143   -117   -156    185    241 230.7 -49.2  34158  289.53 0854.54
2009/04/23 13:12:32.1    -115   -100   -127    153    198 229.1 -48.2  34162  289.60 0854.54
2009/04/23 13:12:32.2    -112   -227   -136    254    288 206.3 -34.7  34162  289.61 0854.54
2009/04/23 13:12:32.3     -98   -229   -108    250    272 203.2 -29.3  34164  289.64 0854.54
2009/04/23 13:12:32.4     -84   -242    -91    257    273 199.2 -19.6  34164  289.64 0854.54
2009/04/23 13:12:32.5     -58   -173   -156    183    240 198.7 -49.2  34160  289.57 0854.53
2009/04/23 13:12:32.6      14   -164   -127    165    208 174.9 -46.1  34160  289.58 0854.53
2009/04/23 13:12:32.7     -63   -116    -60    133    145 208.5 -30.1  34164  289.65 0854.53
2009/04/23 13:12:32.8     -84   -108    -40    137    142 217.9 -21.2  34164  289.65 0854.53
2009/04/23 13:12:32.9     -84   -109    -38    138    144 217.8 -15.5  34162  289.60 0854.53
2009/04/23 13:12:33.0     -55   -113    -53    126    136 205.9 -28.5  34162  289.62 0854.53
2009/04/23 13:12:33.1     -74    -96    -71    122    141 217.8 -37.3  34162  289.62 0854.53
2009/04/23 13:12:33.2    -121   -100    -28    158    161 230.4 -10.1  34164  289.65 0854.53
2009/04/23 13:12:33.3     -98   -153    -27    182    185 212.6  -8.6  34166  289.69 0854.53
2009/04/23 13:12:33.4     -65   -165      5    178    179 201.6   1.8  34168  289.70 0854.53
2009/04/23 13:12:33.5     -38   -132    -22    138    140 196.0  -9.3  34166  289.69 0854.53
2009/04/23 13:12:33.6     -43   -166    -49    172    178 194.5 -20.4  34168  289.72 0854.53
2009/04/23 13:12:33.7     -91   -168    -60    192    202 208.5 -17.5  34170  289.75 0854.53
2009/04/23 13:12:33.8     -43   -195    -56    200    208 192.5 -15.8  34174  289.80 0854.53
2009/04/23 13:12:33.9     -68   -203    -70    215    227 198.5 -18.1  34174  289.82 0854.53
2009/04/23 13:12:34.0     -33   -188    -60    191    200 190.0 -22.5  34178  289.87 0854.53
2009/04/23 13:12:34.1     -25   -184    -56    186    195 188.0 -16.8  34182  289.96 0854.53
2009/04/23 13:12:34.2     -11   -151    -40    152    158 184.5 -14.7  34178  289.87 0854.53
2009/04/23 13:12:34.3      -9   -154    -15    155    156 183.6  -5.6  34176  289.85 0854.53
2009/04/23 13:12:34.4     -25   -150    -19    153    155 189.8  -7.3  34176  289.84 0854.53
2009/04/23 13:12:34.5     -58   -125    -21    138    140 204.9  -8.8  34172  289.79 0854.52
2009/04/23 13:12:34.6     -16   -113     -2    115    116 188.5  -1.2  34170  289.74 0854.52
2009/04/23 13:12:34.7     -43    -43    -32     61     68 225.0 -33.7  34176  289.84 0854.52
2009/04/23 13:12:34.8     -23      0    -98     24    100 270.0 -90.0  34182  289.94 0854.52
2009/04/23 13:12:34.9      -2     46    -75     47     88 356.4 -69.1  34178  289.87 0854.52
2009/04/23 13:12:35.0      40     54    -61     68     91  36.1 -50.8  34178  289.89 0854.52
2009/04/23 13:12:35.1      55     53    -39     77     86  45.9 -33.7  34184  289.99 0854.52
2009/04/23 13:12:35.2      80     -1      1     81     82  90.8   0.8  34184  289.99 0854.52
2009/04/23 13:12:35.3      87    -13     44     89     99  98.8  28.2  34182  289.94 0854.52
2009/04/23 13:12:35.4      97      0     39     98    105  90.4  23.0  34182  289.96 0854.52
2009/04/23 13:12:35.5      80      6     61     81    101  85.6  40.7  34178  289.87 0854.52
2009/04/23 13:12:35.6      74     43     87     86    122  59.8  50.1  34174  289.80 0854.52
2009/04/23 13:12:35.7      66     81     60    105    120  39.2  32.4  34170  289.75 0854.52
2009/04/23 13:12:35.8      61     96     56    114    127  32.5  28.2  34174  289.80 0854.52
2009/04/23 13:12:35.9      78    111     54    136    146  35.2  23.0  34170  289.75 0854.52
2009/04/23 13:12:36.0      86    138     61    163    174  32.1  21.3  34170  289.74 0854.52
2009/04/23 13:12:36.1      93    160     45    186    192  30.1  13.7  34170  289.74 0854.52
2009/04/23 13:12:36.2      92    167     81    191    207  29.0  24.6  34168  289.72 0854.52
2009/04/23 13:12:36.3      97    153    113    182    214  32.3  35.2  34170  289.74 0854.52
2009/04/23 13:12:36.4      66    130     63    146    159  27.1  24.6  34172  289.79 0854.50
2009/04/23 13:12:36.5      73    132     74    152    169  29.0  27.8  34172  289.77 0854.50
2009/04/23 13:12:36.6      44    117     82    126    150  20.9  35.6  34172  289.79 0854.50
2009/04/23 13:12:36.7      42    136    108    143    179  17.4  40.7  34174  289.82 0854.50
2009/04/23 13:12:36.8      70     87    103    112    152  38.7  47.9  34178  289.87 0854.50
2009/04/23 13:12:36.9      90    159     71    183    196  29.6  22.5  34172  289.79 0854.50
2009/04/23 13:12:37.0      65    137    115    152    190  25.5  40.9  34174  289.82 0854.50
2009/04/23 13:12:37.1      96    117     98    152    180  39.6  35.7  34180  289.92 0854.50
2009/04/23 13:12:37.2      65    107     69    126    143  31.2  31.4  34180  289.92 0854.50
2009/04/23 13:12:37.3      43     47     92     64    112  42.3  61.5  34186  290.01 0854.50
2009/04/23 13:12:37.4      35     25     97     44    106  54.0  74.0  34188  290.06 0854.50
2009/04/23 13:12:37.5      44     22     85     50     98  62.9  67.2  34186  290.02 0854.50
2009/04/23 13:12:37.6      41     78     71     89    113  28.1  43.3  34184  289.97 0854.50
2009/04/23 13:12:37.7     120    104     86    160    181  49.1  30.8  34180  289.92 0854.50
2009/04/23 13:12:37.8     110    104     99    152    181  46.8  36.0  34178  289.89 0854.50
2009/04/23 13:12:37.9      86    120     54    148    157  35.6  21.0  34178  289.87 0854.50
2009/04/23 13:12:38.0      97    104     68    143    158  42.8  27.0  34176  289.85 0854.50
2009/04/23 13:12:38.1     106    125    101    164    192  40.3  35.0  34174  289.80 0854.50
2009/04/23 13:12:38.2     143    126     89    191    210  48.7  27.1  34176  289.85 0854.50
2009/04/23 13:12:38.3     120     76     57    143    153  57.6  23.0  34178  289.87 0854.50
2009/04/23 13:12:38.4      84     40     76     94    120  64.7  43.7  34178  289.87 0854.50
2009/04/23 13:12:38.5     119     76    100    142    173  57.5  38.6  34178  289.89 0854.50
2009/04/23 13:12:38.6     133     74    133    153    202  60.7  45.8  34180  289.91 0854.50
2009/04/23 13:12:38.7      80     71    150    108    184  48.2  60.6  34186  290.01 0854.50
2009/04/23 13:12:38.8       0     41     80     42     90 359.1  70.4  34204  290.31 0854.50
2009/04/23 13:12:38.9      43     29     90     52    103  55.8  67.2  34196  290.19 0854.50
2009/04/23 13:12:39.0      29     46     70     55     89  32.6  57.5  34188  290.04 0854.50
2009/04/23 13:12:39.1      31     42     68     53     86  36.1  58.5  34196  290.18 0854.50
2009/04/23 13:12:39.2      47      5     58     48     75  83.0  56.3  34202  290.28 0854.50
2009/04/23 13:12:39.3      41      5     89     42     98  83.0  73.1  34208  290.38 0854.50
2009/04/23 13:12:39.4       0     19     63     20     66 359.1  80.7  34220  290.58 0854.50
2009/04/23 13:12:39.5       2     26     67     27     72   4.4  77.1  34218  290.57 0854.50
2009/04/23 13:12:39.6      21     25     92     33     97  39.6  80.7  34206  290.35 0854.50
2009/04/23 13:12:39.7      41      0    107     42    114  90.0  78.2  34200  290.26 0854.50
2009/04/23 13:12:39.8      36     16     84     40     93  65.6  72.9  34204  290.31 0854.50
2009/04/23 13:12:39.9     -14    -26     71     30     77 209.0  77.0  34208  290.40 0854.50
2009/04/23 13:12:40.0      34    -26     59     43     73 127.8  60.5  34204  290.33 0854.50
2009/04/23 13:12:40.1     -23     23     72     33     79 314.9  74.5  34220  290.58 0854.50
2009/04/23 13:12:40.2     -44     47     65     65     91 316.8  50.1  34226  290.69 0854.50
2009/04/23 13:12:40.3      79     26    145     84    167  71.6  67.2  34234  290.84 0854.50
2009/04/23 13:12:40.4     184     48    137    191    235  75.2  39.5  34242  290.98 0854.49
2009/04/23 13:12:40.5     128    102    131    165    210  51.4  42.7  34244  291.01 0854.49
2009/04/23 13:12:40.6     140    140     73    199    211  45.0  21.0  34238  290.91 0854.49
2009/04/23 13:12:40.7     151    149     67    213    224  45.3  17.4  34238  290.91 0854.49
2009/04/23 13:12:40.8     148     92    111    175    207  58.2  35.5  34234  290.82 0854.49
2009/04/23 13:12:40.9     122     80     99    147    177  56.7  37.3  34250  291.11 0854.49
2009/04/23 13:12:41.0     117     74     78    139    159  57.6  31.9  34252  291.15 0854.49
2009/04/23 13:12:41.1     130     60     50    144    153  65.2  19.4  34232  290.81 0854.49
2009/04/23 13:12:41.2     141     77     80    161    179  61.1  28.2  34224  290.65 0854.49
2009/04/23 13:12:41.3     208     54     83    215    230  75.4  22.3  34232  290.79 0854.49
2009/04/23 13:12:41.4     176      7     70    177    190  87.6  22.8  34228  290.72 0854.49
2009/04/23 13:12:41.5     146     16    164    147    220  83.4  53.5  34230  290.77 0854.49
2009/04/23 13:12:41.6     208     12    139    209    251  86.5  36.5  34226  290.68 0854.49
2009/04/23 13:12:41.7     121     12    138    122    184  83.9  54.0  34224  290.67 0854.49
2009/04/23 13:12:41.8      25    -25     79     36     86 135.0  74.5  34230  290.77 0854.49
2009/04/23 13:12:41.9      70    -18     90     73    115 105.1  56.4  34224  290.65 0854.49
2009/04/23 13:12:42.0      51     10     37     53     64  78.6  38.6  34232  290.81 0854.49
2009/04/23 13:12:42.1      15      0     16     16     22  90.0  50.1  34230  290.75 0854.49
2009/04/23 13:12:42.2     -16     13    -10     22     24 309.5 -29.5  34228  290.72 0854.49
2009/04/23 13:12:42.3     -15     14    -18     21     27 313.1 -50.2  34236  290.86 0854.49
2009/04/23 13:12:42.4     -44     19    -22     48     52 293.5 -31.5  34240  290.92 0854.49
2009/04/23 13:12:42.5     -40    -19     -5     45     46 243.8  -7.3  34238  290.91 0854.49
2009/04/23 13:12:42.6     -50    -60     17     79     81 219.6  12.2  34244  291.01 0854.49
2009/04/23 13:12:42.7     -63    -44     57     78     96 234.9  39.7  34240  290.92 0854.49
2009/04/23 13:12:42.8     -61    -77     46     99    109 218.7  27.1  34236  290.86 0854.49
2009/04/23 13:12:42.9    -115    -38     45    122    130 251.4  20.9  34234  290.84 0854.49
2009/04/23 13:12:43.0     -99    -74     36    124    130 233.1  16.3  34238  290.89 0854.49
2009/04/23 13:12:43.1     -72    -72     30    102    107 225.1  16.3  34234  290.82 0854.49
2009/04/23 13:12:43.2     -55    -58     49     81     94 223.7  35.0  34226  290.69 0854.49
2009/04/23 13:12:43.3     -63    -30     37     70     79 244.6  30.3  34232  290.79 0854.49
2009/04/23 13:12:43.4     -77    -37      9     86     87 244.2   6.5  34242  290.96 0854.49
2009/04/23 13:12:43.5     -45    -39     15     60     62 228.7  14.3  34234  290.82 0854.49
2009/04/23 13:12:43.6     -32    -44     29     55     62 216.1  30.3  34232  290.81 0854.49
2009/04/23 13:12:43.7     -46    -33     -7     57     58 234.0  -7.3  34238  290.91 0854.49
2009/04/23 13:12:43.8     -53    -43     -5     69     70 230.5  -4.1  34240  290.94 0854.49
2009/04/23 13:12:43.9     -65    -78     26    102    106 219.7  14.7  34248  291.06 0854.49
2009/04/23 13:12:44.0     -97   -117     43    153    160 219.7  15.8  34266  291.37 0854.49
2009/04/23 13:12:44.1     -86   -120     39    148    154 215.6  14.7  34262  291.32 0854.49
2009/04/23 13:12:44.2     -75   -206    120    220    250 200.0  31.0  34190  290.07 0854.49
2009/04/23 13:12:44.3    -100   -191    118    216    246 207.6  31.3  34198  290.20 0854.49
2009/04/23 13:12:44.4     -93   -186    111    209    236 206.7  30.3  34186  290.01 0854.48
2009/04/23 13:12:44.5     -42   -208     74    213    226 191.5  19.2  34186  290.02 0854.48
2009/04/23 13:12:44.6     -58   -171     65    181    192 198.7  20.2  34192  290.13 0854.48
2009/04/23 13:12:44.7      38   -190     30    194    197 168.5   8.8  34192  290.11 0854.48
2009/04/23 13:12:44.8      19   -190      4    192    193 174.0   1.2  34188  290.06 0854.48
2009/04/23 13:12:44.9       2   -182     10    183    184 179.1   3.3  34184  289.99 0854.48
2009/04/23 13:12:45.0     -22   -201     76    203    216 186.3  21.5  34186  290.01 0854.48
2009/04/23 13:12:45.1     -14   -204    101    205    228 184.0  28.0  34184  289.99 0854.48
2009/04/23 13:12:45.2     -23   -186     71    188    200 187.1  21.5  34190  290.08 0854.48
2009/04/23 13:12:45.3      24   -188     67    190    202 172.7  19.4  34182  289.96 0854.48
2009/04/23 13:12:45.4     -14   -153    100    154    183 185.3  35.7  34186  290.01 0854.48
2009/04/23 13:12:45.5      20   -164      0    166    167 172.9  -0.3  34184  289.97 0854.48
2009/04/23 13:12:45.6      -5   -121    -13    122    123 182.7  -6.2  34186  290.02 0854.48
2009/04/23 13:12:45.7     -53   -109    -15    122    124 205.9  -7.3  34186  290.02 0854.48
2009/04/23 13:12:45.8     -66    -76      2    102    103 221.0   1.2  34190  290.08 0854.48
2009/04/23 13:12:45.9    -110    -62    -11    127    128 240.7  -5.2  34192  290.11 0854.48
2009/04/23 13:12:46.0    -121    -59    -44    135    143 243.8 -18.1  34198  290.21 0854.48
2009/04/23 13:12:46.1    -113    -93    -18    147    149 230.4  -7.2  34250  291.09 0854.48
2009/04/23 13:12:46.2    -123    -89     -6    153    154 234.0  -2.2  34242  290.96 0854.48
2009/04/23 13:12:46.3    -122    -91     10    153    154 233.1   3.8  34218  290.57 0854.48
2009/04/23 13:12:46.4    -125    -61      2    140    141 243.8   0.8  34248  291.08 0854.49
2009/04/23 13:12:46.5    -157      2     20    158    160 270.8   7.5  34284  291.69 0854.49
2009/04/23 13:12:46.6    -129     42     -1    136    137 288.4  -0.7  34272  291.47 0854.49
2009/04/23 13:12:46.7    -110     65      1    128    129 300.7   0.8  34252  291.15 0854.49
2009/04/23 13:12:46.8     -76     58     -7     96     97 307.3  -4.6  34240  290.92 0854.49
2009/04/23 13:12:46.9     -70     98     23    121    124 324.4  11.1  34236  290.87 0854.49
2009/04/23 13:12:47.0     -89     79     42    120    128 311.8  19.2  34252  291.15 0854.49
2009/04/23 13:12:47.1    -106     12     62    107    123 277.0  33.4  34256  291.20 0854.49
2009/04/23 13:12:47.2    -113    -23     47    116    125 258.6  23.0  34246  291.03 0854.49
2009/04/23 13:12:47.3    -117    -31     28    122    126 255.0  13.1  34216  290.53 0854.49
2009/04/23 13:12:47.4    -108    -69     -5    129    130 237.6  -2.2  34200  290.26 0854.49
2009/04/23 13:12:47.5     -88    -73     11    115    116 230.4   5.9  34214  290.50 0854.49
2009/04/23 13:12:47.6    -111    -54     -4    124    125 243.8  -2.2  34216  290.52 0854.49
2009/04/23 13:12:47.7     -78    -34    -19     86     89 246.0 -12.4  34222  290.64 0854.49
2009/04/23 13:12:47.8    -105    -52    -28    118    122 243.4 -13.4  34226  290.69 0854.49
2009/04/23 13:12:47.9     -71    -86    -34    112    117 219.6 -21.8  34218  290.55 0854.49
2009/04/23 13:12:48.0     -40    -74    -27     85     89 208.5 -23.3  34218  290.55 0854.49
2009/04/23 13:12:48.1     -50   -119      6    130    131 202.7   2.9  34214  290.50 0854.49
2009/04/23 13:12:48.2     -36   -107    -27    114    118 198.7 -13.4  34214  290.50 0854.49
2009/04/23 13:12:48.3       0   -138    -61    139    151 180.0 -29.6  34214  290.48 0854.49
2009/04/23 13:12:48.4     -22   -146    -50    148    156 188.9 -23.3  34198  290.21 0854.49
2009/04/23 13:12:48.5      13   -100    -26    101    105 172.4 -14.5  34204  290.33 0854.49
2009/04/23 13:12:48.6       8   -107    -30    108    113 175.6 -15.5  34202  290.28 0854.49
2009/04/23 13:12:48.7      18   -132    -37    134    140 172.0 -15.4  34200  290.26 0854.49
2009/04/23 13:12:48.8       1    -79    -49     80     93 179.1 -39.4  34198  290.23 0854.49
2009/04/23 13:12:48.9     -50    -79    -35     94    100 212.5 -25.4  34204  290.33 0854.49
2009/04/23 13:12:49.0     -38   -106    -38    113    119 200.0 -23.6  34198  290.21 0854.49
2009/04/23 13:12:49.1     -65    -69    -57     95    110 223.2 -38.8  34198  290.23 0854.49
2009/04/23 13:12:49.2    -115    -73    -94    137    166 237.5 -42.0  34216  290.52 0854.49
2009/04/23 13:12:49.3    -129   -103    -81    166    184 231.4 -32.2  34214  290.48 0854.49
2009/04/23 13:12:49.4    -155   -111   -103    191    217 234.3 -35.4  34222  290.62 0854.49
2009/04/23 13:12:49.5    -195    -82    -54    212    219 247.2 -14.3  34228  290.74 0854.49
2009/04/23 13:12:49.6    -151    -60    -43    163    169 248.0 -15.0  34230  290.75 0854.49
2009/04/23 13:12:49.7     -96   -117   -105    152    184 219.6 -42.2  34224  290.65 0854.49
2009/04/23 13:12:49.8    -118   -111    -97    163    189 226.9 -38.1  34220  290.58 0854.49
2009/04/23 13:12:49.9    -164   -129    -86    209    226 231.8 -27.8  34234  290.82 0854.49
2009/04/23 13:12:50.0     -70   -126    -84    145    167 209.0 -37.3  34214  290.48 0854.49
2009/04/23 13:12:50.1     -34   -169    -75    173    188 191.6 -29.3  34222  290.64 0854.49
2009/04/23 13:12:50.2     -93   -126    -36    157    162 216.5 -13.2  34226  290.70 0854.49
2009/04/23 13:12:50.3    -107    -83    -15    136    137 232.2  -6.7  34234  290.82 0854.49
2009/04/23 13:12:50.4     -34   -111    -50    117    127 196.9 -29.0  34228  290.72 0854.49
2009/04/23 13:12:50.5     -31   -104    -65    109    126 196.9 -37.9  34224  290.67 0854.49
2009/04/23 13:12:50.6     -49    -59    -83     77    113 219.7 -56.5  34224  290.65 0854.49
2009/04/23 13:12:50.7    -103    -37    -70    110    130 250.0 -39.9  34232  290.81 0854.49
2009/04/23 13:12:50.8     -43    -43    -90     61    108 225.0 -67.6  34238  290.91 0854.49
2009/04/23 13:12:50.9     -70    -44   -110     83    137 237.6 -63.4  34256  291.21 0854.49
2009/04/23 13:12:51.0     -68    -27    -78     74    107 248.3 -56.0  34250  291.11 0854.49
2009/04/23 13:12:51.1       0    -41    -69     42     80 180.9 -70.6  34252  291.15 0854.49
2009/04/23 13:12:51.2      38    -96    -72    104    126 158.1 -42.0  34238  290.91 0854.49
2009/04/23 13:12:51.3      95   -134    -55    165    173 144.6 -23.6  34220  290.58 0854.49
2009/04/23 13:12:51.4     196   -151    -29    248    250 127.8  -6.9  34186  290.02 0854.49
2009/04/23 13:12:51.5     161   -136    -63    212    222 130.2 -16.6  34176  289.84 0854.49
2009/04/23 13:12:51.6     132   -122    -36    180    184 132.7 -11.3  34182  289.94 0854.49
2009/04/23 13:12:51.7     104    -90    -43    138    144 130.9 -22.8  34184  289.97 0854.49
2009/04/23 13:12:51.8      81   -105    -77    133    153 142.2 -37.8  34202  290.28 0854.49
2009/04/23 13:12:51.9      48   -102    -88    113    143 154.5 -46.1  34206  290.35 0854.49
2009/04/23 13:12:52.1      75   -219    -83    232    246 161.1 -24.6  34190  290.07 0854.49
2009/04/23 13:12:52.1      43   -194    -68    199    211 167.5 -19.1  34192  290.11 0854.49
2009/04/23 13:12:52.2      59   -220     35    229    232 164.8   8.9  34190  290.08 0854.49
2009/04/23 13:12:52.3      33   -265     52    268    274 172.9  11.1  34176  289.83 0854.49
2009/04/23 13:12:52.4      22   -339     81    340    350 176.3  13.5  34178  289.89 0854.49
2009/04/23 13:12:52.5     -22   -285      8    286    287 184.5   1.8  34178  289.88 0854.49
2009/04/23 13:12:52.6     -14   -283     24    284    286 182.9   4.9  34172  289.78 0854.49
2009/04/23 13:12:52.7     -50   -298    -16    303    304 189.6  -3.2  34174  289.80 0854.49
2009/04/23 13:12:52.8     -15   -234    -24    235    237 183.8  -6.0  34172  289.78 0854.49
2009/04/23 13:12:52.9       0   -198    -80    199    214 180.0 -27.4  34180  289.92 0854.49
2009/04/23 13:12:53.0     -54   -153   -101    163    191 199.6 -39.9  34180  289.91 0854.49
2009/04/23 13:12:53.1     -80   -109    -43    136    142 216.5 -22.8  34176  289.85 0854.49
2009/04/23 13:12:53.3     -47    -70    -24     85     88 213.8 -20.7  34182  289.94 0854.49
2009/04/23 13:12:53.3     -40    -40    -81     57     99 225.1 -65.5  34190  290.09 0854.49
2009/04/23 13:12:53.4     -98    -19   -114    100    151 258.5 -58.7  34192  290.11 0854.49
2009/04/23 13:12:53.5     -65    -47    -94     81    124 234.0 -58.7  34196  290.19 0854.49
2009/04/23 13:12:53.6     -58    -68   -123     90    152 220.5 -64.9  34192  290.11 0854.49
2009/04/23 13:12:53.7     -45   -180   -155    186    242 194.3 -48.5  34182  289.96 0854.49
2009/04/23 13:12:53.8     -80   -182   -118    200    232 203.8 -37.9  34176  289.85 0854.49
2009/04/23 13:12:53.9     -59   -215    -88    224    240 195.4 -26.9  34174  289.80 0854.49
2009/04/23 13:12:54.0     -54   -268    -86    274    288 191.5 -17.5  34168  289.70 0854.49
2009/04/23 13:12:54.1     -18   -276    -93    277    293 183.8 -18.7  34176  289.83 0854.49
2009/04/23 13:12:54.2       0   -256    -54    257    263 180.0 -11.9  34182  289.93 0854.49
2009/04/23 13:12:54.3     -10   -239    -23    240    242 182.5  -5.6  34184  289.97 0854.49
2009/04/23 13:12:54.5     -78   -182    -46    199    205 203.2 -13.2  34176  289.84 0854.49
2009/04/23 13:12:54.5    -167   -236    -92    290    305 215.2 -17.6  34168  289.70 0854.49
2009/04/23 13:12:54.6    -187   -263    -76    323    332 215.4 -13.3  34162  289.59 0854.49
2009/04/23 13:12:54.7    -212   -174    -46    275    279 230.5  -9.6  34188  290.05 0854.49
2009/04/23 13:12:54.8    -254   -219    -70    336    344 229.2 -11.9  34166  289.67 0854.49
2009/04/23 13:12:54.9    -206   -249   -102    324    339 219.7 -22.6  34168  289.71 0854.49
2009/04/23 13:12:55.0    -223   -240   -125    328    351 222.9 -26.1  34170  289.74 0854.49
2009/04/23 13:12:55.1    -225   -229   -141    322    351 224.5 -29.5  34172  289.77 0854.49
2009/04/23 13:12:55.2    -248   -217   -162    330    367 228.8 -32.4  34172  289.79 0854.49
2009/04/23 13:12:55.3    -278   -245   -146    371    398 228.6 -26.9  34172  289.76 0854.49
2009/04/23 13:12:55.4    -268   -126   -117    297    319 244.8 -26.9  34178  289.86 0854.49
2009/04/23 13:12:55.6    -317   -156   -117    354    372 243.7 -23.7  34168  289.72 0854.49
2009/04/23 13:12:55.6    -259   -132   -110    291    311 242.9 -25.9  34168  289.70 0854.49
2009/04/23 13:12:55.7    -256    -74   -101    267    285 253.8 -26.1  34182  289.93 0854.49
2009/04/23 13:12:55.9    -256      0    -77    257    268 270.1 -21.7  34194  290.15 0854.49
2009/04/23 13:12:55.9    -209    -85    -21    226    228 247.8  -5.4  34188  290.06 0854.49
2009/04/23 13:12:56.1    -146    -55    -70    157    171 249.2 -30.1  34200  290.26 0854.49
2009/04/23 13:12:56.2    -184     13     15    185    186 274.1   4.9  34204  290.33 0854.49
2009/04/23 13:12:56.3    -172    -47      7    179    180 254.7   2.5  34204  290.33 0854.49
2009/04/23 13:12:56.4    -126    -42     21    134    136 251.4   8.9  34202  290.30 0854.49
2009/04/23 13:12:56.5     -61    -11     95     63    113 259.4  64.1  34198  290.21 0854.49
2009/04/23 13:12:56.6     -69    -28     83     75    111 247.4  52.7  34196  290.18 0854.49
2009/04/23 13:12:56.7     -71    -60     81     94    124 229.6  45.8  34194  290.14 0854.49
2009/04/23 13:12:56.8     -50    -96     98    109    146 207.6  46.9  34184  289.99 0854.49
2009/04/23 13:12:56.9      16    -18     82     25     85 138.6  82.8  34196  290.19 0854.49
2009/04/23 13:12:57.0     -25     17     63     31     70 304.2  72.8  34200  290.25 0854.49
2009/04/23 13:12:57.1      -4    -19     65     20     68 191.6  81.8  34198  290.23 0854.49
2009/04/23 13:12:57.2      17    -39     58     43     72 156.4  60.5  34190  290.08 0854.49
2009/04/23 13:12:57.3      32   -150     60    154    165 168.0  22.3  34176  289.85 0854.49
2009/04/23 13:12:57.4     -52   -230    -51    236    242 192.9 -12.4  34176  289.85 0854.49
2009/04/23 13:12:57.5    -115   -301    -61    323    329 200.9 -10.8  34178  289.86 0854.51
2009/04/23 13:12:57.6     -40   -286    -11    289    290 188.1  -2.2  34178  289.86 0854.51
2009/04/23 13:12:57.7       4   -288     88    289    303 179.1  17.1  34176  289.85 0854.51
2009/04/23 13:12:57.8      45   -276    160    280    322 170.7  32.3  34182  289.95 0854.51
2009/04/23 13:12:57.9     106   -385    139    400    424 164.5  19.2  34176  289.83 0854.51
2009/04/23 13:12:58.0      38   -382     34    384    386 174.2   5.2  34174  289.81 0854.51
2009/04/23 13:12:58.1      74   -433     29    440    441 170.3   3.9  34176  289.85 0854.51
2009/04/23 13:12:58.2      72   -401     50    408    412 169.8   7.1  34176  289.85 0854.51
2009/04/23 13:12:58.3     159   -403     -2    434    435 158.4  -0.3  34176  289.83 0854.51
2009/04/23 13:12:58.4      55   -394    -28    398    399 172.0  -4.1  34178  289.86 0854.51
2009/04/23 13:12:58.5      55   -348    -46    353    356 170.9  -7.5  34174  289.82 0854.51
2009/04/23 13:12:58.6     128   -287     -3    315    316 155.9  -0.6  34172  289.78 0854.51
2009/04/23 13:12:58.7     169   -204     52    266    272 140.4  11.1  34172  289.78 0854.51
2009/04/23 13:12:58.8     105   -262     17    283    284 158.1   3.6  34172  289.78 0854.51
2009/04/23 13:12:58.9     151   -297     52    334    339 153.0   8.9  34172  289.77 0854.51
2009/04/23 13:12:59.0     129   -295      9    323    324 156.4   1.6  34170  289.75 0854.51
2009/04/23 13:12:59.1     161   -252     29    300    302 147.5   5.7  34170  289.75 0854.51
2009/04/23 13:12:59.2      85   -291     -6    304    305 163.7  -1.2  34170  289.75 0854.51
2009/04/23 13:12:59.3      55   -286     45    292    296 169.1   8.9  34172  289.76 0854.51
2009/04/23 13:12:59.4      72   -267     14    277    278 164.8   2.9  34172  289.76 0854.51
2009/04/23 13:12:59.5     107   -294     65    314    321 159.9  11.8  34174  289.80 0854.53
2009/04/23 13:12:59.6      59   -268     33    275    278 167.5   6.9  34176  289.83 0854.53
2009/04/23 13:12:59.7      85   -206     -1    224    225 157.5  -0.3  34172  289.79 0854.53
2009/04/23 13:12:59.8     135   -130     69    188    200 133.8  20.9  34174  289.80 0854.53
2009/04/23 13:12:59.9     124   -198    106    234    256 147.9  26.2  34174  289.81 0854.53
2009/04/23 13:13:00.0     120   -160    119    201    233 143.0  33.5  34170  289.75 0854.53
2009/04/23 13:13:00.1     154    -98    135    183    227 122.4  39.9  34178  289.89 0854.53
2009/04/23 13:13:00.2      76    -88    137    117    180 139.0  55.4  34186  290.01 0854.53
2009/04/23 13:13:00.3      32   -121     85    126    151 164.9  37.4  34178  289.89 0854.53
2009/04/23 13:13:00.4      10   -121     89    122    151 175.1  39.7  34178  289.89 0854.53
2009/04/23 13:13:00.5       0   -148    129    149    197 180.0  45.6  34182  289.94 0854.53
2009/04/23 13:13:00.6     -14   -136    145    137    199 186.2  51.6  34178  289.87 0854.53
2009/04/23 13:13:00.7     -26    -78    133     83    156 198.3  65.1  34180  289.91 0854.53
2009/04/23 13:13:00.8     -24   -193    154    195    248 187.3  42.4  34176  289.85 0854.53
2009/04/23 13:13:00.9     -40   -231    141    235    274 190.0  33.7  34176  289.83 0854.53
2009/04/23 13:13:01.0     -48   -198    211    204    293 193.8  51.2  34178  289.88 0854.53
2009/04/23 13:13:01.1     -45   -197    187    203    276 192.9  47.7  34176  289.83 0854.53
2009/04/23 13:13:01.2     -55   -222    178    229    290 194.0  41.7  34174  289.81 0854.53
2009/04/23 13:13:01.3     -63   -235    177    244    301 195.2  39.5  34180  289.92 0854.53
2009/04/23 13:13:01.4     -34   -168    165    172    238 191.6  49.0  34176  289.85 0854.53
2009/04/23 13:13:01.5     -27   -135    101    138    171 191.5  39.9  34182  289.96 0854.54
2009/04/23 13:13:01.6     -26   -127    133    130    185 191.6  50.7  34188  290.06 0854.54
2009/04/23 13:13:01.7      -7   -128    147    129    195 183.1  54.3  34180  289.92 0854.54
2009/04/23 13:13:01.8     -39   -174    179    179    253 192.7  50.1  34180  289.92 0854.54
2009/04/23 13:13:01.9     -48   -146    153    154    217 198.5  50.0  34180  289.92 0854.54
2009/04/23 13:13:02.0      13    -68    131     70    148 169.3  69.3  34190  290.09 0854.54
2009/04/23 13:13:02.1      16   -209    181    210    277 175.5  45.4  34180  289.90 0854.54
2009/04/23 13:13:02.2       2   -180    194    181    265 179.1  52.2  34176  289.85 0854.54
2009/04/23 13:13:02.3      -2   -117    184    118    218 181.4  64.6  34180  289.91 0854.54
2009/04/23 13:13:02.4       1    -94    159     95    185 179.1  66.2  34184  289.97 0854.54
2009/04/23 13:13:02.5       2   -118    139    119    182 179.0  55.0  34186  290.01 0854.54
2009/04/23 13:13:02.6     102   -144    146    177    229 144.6  43.7  34178  289.89 0854.54
2009/04/23 13:13:02.7      42   -206    195    211    287 168.4  47.9  34182  289.95 0854.54
2009/04/23 13:13:02.8      80   -282    195    294    352 164.2  36.7  34178  289.89 0854.54
2009/04/23 13:13:02.9     108   -261    103    283    301 157.5  20.9  34174  289.81 0854.54
2009/04/23 13:13:03.0      70   -315    127    323    347 167.3  22.7  34182  289.94 0854.54
2009/04/23 13:13:03.1      96   -315    137    330    357 163.1  23.8  34182  289.96 0854.54
2009/04/23 13:13:03.2     207   -340    143    399    423 148.6  20.6  34172  289.78 0854.54
2009/04/23 13:13:03.3     105   -359     43    375    378 163.6   6.6  34184  289.98 0854.54
2009/04/23 13:13:03.4     102   -429     76    441    448 166.6   9.9  34186  290.00 0854.54
2009/04/23 13:13:03.5      44   -300    170    304    348 171.5  31.6  34184  289.99 0854.55
2009/04/23 13:13:03.6      -1   -300    150    301    336 180.2  28.5  34190  290.07 0854.55
2009/04/23 13:13:03.7     -11   -246    144    247    285 182.7  33.1  34186  290.00 0854.55
2009/04/23 13:13:03.8       0   -255    197    256    323 179.9  41.5  34186  290.02 0854.55
2009/04/23 13:13:03.9      67   -310    239    318    397 167.7  40.7  34182  289.96 0854.55
2009/04/23 13:13:04.0      34   -348    262    350    437 174.3  40.6  34182  289.95 0854.55
2009/04/23 13:13:04.1      -5   -322    288    323    432 181.0  46.3  34188  290.03 0854.55
2009/04/23 13:13:04.2     -43   -310    224    314    385 188.0  39.2  34178  289.86 0854.55
2009/04/23 13:13:04.3     -90   -343    234    355    425 194.8  36.5  34178  289.87 0854.55
2009/04/23 13:13:04.4     -80   -402    246    410    478 191.4  34.0  34180  289.90 0854.55
2009/04/23 13:13:04.5      -5   -341    242    342    418 180.9  38.7  34186  290.01 0854.55
2009/04/23 13:13:04.6       4   -298    221    299    371 179.1  40.1  34184  289.98 0854.55
2009/04/23 13:13:04.7      21   -307    194    308    364 176.0  35.5  34184  289.99 0854.55
2009/04/23 13:13:04.8     -72   -367    134    375    398 191.1  20.4  34188  290.03 0854.55
2009/04/23 13:13:04.9     -82   -393    121    402    420 191.9  16.8  34186  290.02 0854.55
2009/04/23 13:13:05.0     -87   -462    134    471    490 190.7  15.9  34188  290.05 0854.55
2009/04/23 13:13:05.1     -89   -432    150    442    468 191.7  18.8  34180  289.90 0854.55
2009/04/23 13:13:05.2     -71   -381    153    388    417 190.6  22.8  34186  290.02 0854.55
2009/04/23 13:13:05.3    -103   -372    137    387    411 195.6  19.5  34188  290.04 0854.55
2009/04/23 13:13:05.4     -71   -435     34    441    443 189.3   4.5  34198  290.21 0854.55
2009/04/23 13:13:05.5    -191   -478     54    515    518 201.8   6.1  34196  290.17 0854.51
2009/04/23 13:13:05.6    -163   -463    -10    491    492 199.4  -1.3  34198  290.23 0854.51
2009/04/23 13:13:05.7    -177   -464    -42    497    499 201.0  -4.9  34176  289.83 0854.51
2009/04/23 13:13:05.8    -124   -416   -114    435    450 196.7 -14.7  34170  289.73 0854.51
2009/04/23 13:13:05.9     -99   -367    -37    381    383 195.2  -5.6  34178  289.89 0854.51
2009/04/23 13:13:06.0     -91   -342    -24    354    355 194.9  -4.0  34194  290.15 0854.51
2009/04/23 13:13:06.1     -39   -360    -83    363    373 186.2 -12.9  34174  289.82 0854.51
2009/04/23 13:13:06.2     -94   -351    -67    364    371 195.1 -10.5  34174  289.81 0854.51
2009/04/23 13:13:06.3    -125   -331    -64    354    360 200.7 -10.4  34172  289.79 0854.51
2009/04/23 13:13:06.4    -121   -376    -69    396    403 197.9  -9.9  34166  289.67 0854.51
2009/04/23 13:13:06.5     -51   -341    -70    345    352 188.6 -11.5  34172  289.76 0854.51
2009/04/23 13:13:06.6     -23   -320    -88    321    333 184.3 -15.4  34178  289.86 0854.51
2009/04/23 13:13:06.7       0   -317    -63    318    325 180.1 -11.2  34176  289.83 0854.51
2009/04/23 13:13:06.8     -76   -307    -69    317    325 194.0 -12.4  34186  290.00 0854.51
2009/04/23 13:13:06.9    -105   -275    -70    295    304 200.9 -13.4  34182  289.95 0854.51
2009/04/23 13:13:07.0     -91   -268    -43    284    288 198.7  -8.6  34180  289.92 0854.51
2009/04/23 13:13:07.1     -44   -239   -131    244    276 190.5 -35.0  34178  289.86 0854.51
2009/04/23 13:13:07.2      12   -258    -82    259    272 177.3 -17.6  34180  289.90 0854.51
2009/04/23 13:13:07.3     -68   -344    -41    351    354 191.3  -6.8  34178  289.86 0854.51
2009/04/23 13:13:07.4     -16   -370    -83    371    381 182.6 -12.6  34176  289.84 0854.47
2009/04/23 13:13:07.5     -27   -359   -115    360    377 184.4 -22.9  34182  289.96 0854.47
2009/04/23 13:13:07.6      96   -340   -108    354    371 164.1 -17.0  34178  289.89 0854.47
2009/04/23 13:13:07.7      96   -325   -100    340    354 163.5 -21.4  34184  289.98 0854.47
2009/04/23 13:13:07.8     116   -326   -119    347    366 160.4 -23.8  34186  290.01 0854.47
2009/04/23 13:13:07.9      33   -284    -98    286    302 173.3 -23.6  34186  290.00 0854.47
2009/04/23 13:13:08.0      39   -268   -139    271    304 171.5 -33.6  34180  289.90 0854.47
2009/04/23 13:13:08.1      60   -286   -162    293    334 168.0 -35.8  34186  290.00 0854.47
2009/04/23 13:13:08.2     103   -269   -164    289    332 159.1 -36.5  34180  289.92 0854.47
2009/04/23 13:13:08.3       0   -316   -170    317    359 180.0 -35.0  34178  289.86 0854.47
2009/04/23 13:13:08.4      27   -410   -139    411    433 176.1 -23.7  34178  289.87 0854.47
2009/04/23 13:13:08.5      85   -347   -136    358    382 166.2 -26.2  34178  289.86 0854.47
2009/04/23 13:13:08.6      39   -280    -77    283    294 171.9 -15.2  34178  289.88 0854.47
2009/04/23 13:13:08.7     -25   -213    -67    215    225 186.9 -22.8  34172  289.79 0854.47
2009/04/23 13:13:08.8    -100   -330    -44    346    349 197.0  -7.3  34176  289.84 0854.47
2009/04/23 13:13:08.9    -180   -140    -71    229    239 232.2 -22.3  34176  289.85 0854.47
2009/04/23 13:13:09.0     -12   -151    -52    152    160 184.9 -23.8  34180  289.91 0854.47
2009/04/23 13:13:09.1      54   -135    -46    146    154 158.1 -17.6  34180  289.92 0854.47
2009/04/23 13:13:09.2     148   -217     17    263    264 145.7   3.8  34182  289.93 0854.47
2009/04/23 13:13:09.3      93    -88     99    129    162 133.6  41.4  34186  290.02 0854.47
2009/04/23 13:13:09.4     174   -119     41    211    216 124.4  11.1  34178  289.89 0854.46
2009/04/23 13:13:09.5     103    -70     67    125    141 124.2  30.8  34180  289.91 0854.46
2009/04/23 13:13:09.6      90    -32    123     96    156 109.5  58.4  34176  289.85 0854.46
2009/04/23 13:13:09.7    -113   -178     82    212    227 212.5  22.5  34178  289.89 0854.46
2009/04/23 13:13:09.8     -56   -208     77    216    230 195.2  19.6  34174  289.80 0854.46
2009/04/23 13:13:09.9      24   -248     37    250    253 174.4   8.5  34174  289.81 0854.46
2009/04/23 13:13:10.0      11   -184    107    185    213 176.4  33.1  34174  289.80 0854.46
2009/04/23 13:13:10.1      93   -245    126    263    291 159.1  27.3  34176  289.83 0854.46
2009/04/23 13:13:10.2     119   -183     18    219    220 146.8   4.9  34168  289.72 0854.46
2009/04/23 13:13:10.3      96   -221    126    242    272 156.4  29.8  34176  289.85 0854.46
2009/04/23 13:13:10.4     132   -433     40    453    455 163.0   5.1  34168  289.70 0854.44
2009/04/23 13:13:10.5      37   -484     37    486    488 175.5   4.4  34166  289.67 0854.44
2009/04/23 13:13:10.6     -54   -590    108    593    603 185.3  10.4  34166  289.66 0854.44
2009/04/23 13:13:10.7    -163   -587    203    610    643 195.5  18.4  34176  289.84 0854.44
2009/04/23 13:13:10.8     -84   -540     90    547    555 188.9   9.3  34162  289.62 0854.44
2009/04/23 13:13:10.9     -42   -505     21    507    508 184.8   2.4  34168  289.71 0854.44
2009/04/23 13:13:11.0      84   -590    -43    597    599 171.9  -4.1  34164  289.64 0854.44
2009/04/23 13:13:11.1      79   -606    -56    612    615 172.5  -5.3  34168  289.71 0854.44
2009/04/23 13:13:11.2      51   -542    -53    545    548 174.6  -5.6  34170  289.74 0854.44
2009/04/23 13:13:11.3      65   -511    -46    516    519 172.7  -5.2  34170  289.74 0854.44
2009/04/23 13:13:11.4      45   -459   -108    462    475 174.3 -13.2  34172  289.78 0854.44
2009/04/23 13:13:11.5       8   -507    -64    508    513 179.0  -7.2  34166  289.69 0854.44
2009/04/23 13:13:11.6       5   -540     33    541    542 179.4   3.5  34170  289.74 0854.44
2009/04/23 13:13:11.7       5   -478     62    479    484 179.3   7.5  34170  289.74 0854.44
2009/04/23 13:13:11.8       0   -454     46    455    458 179.9   5.8  34172  289.77 0854.44
2009/04/23 13:13:11.9     -24   -461    117    462    477 183.0  14.3  34170  289.74 0854.44
2009/04/23 13:13:12.0     -37   -419     58    421    425 185.1   7.9  34174  289.80 0854.44
2009/04/23 13:13:12.1     -21   -397     27    398    399 183.1   4.0  34172  289.77 0854.44
2009/04/23 13:13:12.2     -25   -397     31    398    400 183.7   4.6  34178  289.87 0854.44
2009/04/23 13:13:12.3    -118   -339     -7    360    361 199.3  -1.2  34170  289.74 0854.44
2009/04/23 13:13:12.4     -72   -337     -5    345    346 192.1  -0.9  34174  289.82 0854.45
2009/04/23 13:13:12.5     -53   -236     18    242    243 192.7   4.4  34174  289.81 0854.45
2009/04/23 13:13:12.6     -19   -233     47    234    239 184.9  11.4  34174  289.80 0854.45
2009/04/23 13:13:12.7      83   -271     29    284    286 162.8   5.9  34174  289.80 0854.45
2009/04/23 13:13:12.8     117   -247     42    274    278 154.7   8.8  34164  289.63 0854.45
2009/04/23 13:13:12.9      40   -261    165    265    312 171.1  35.5  34180  289.92 0854.45
2009/04/23 13:13:13.0      31   -226    140    229    268 172.0  34.4  34178  289.86 0854.45
2009/04/23 13:13:13.1     -53   -193    194    201    279 195.4  49.0  34180  289.90 0854.45
2009/04/23 13:13:13.2     -76   -161    158    179    238 205.4  46.2  34182  289.94 0854.45
2009/04/23 13:13:13.3     -75   -164    242    181    302 204.5  59.8  34190  290.07 0854.45
2009/04/23 13:13:13.4      10    -32    196     34    198 161.7  90.0  34194  290.14 0854.45
2009/04/23 13:13:13.5      12    -31    115     34    119 158.2  82.8  34190  290.09 0854.45
2009/04/23 13:13:13.6     -34     16     88     38     95 295.3  75.0  34194  290.16 0854.45
2009/04/23 13:13:13.7      26    -98    156    102    186 164.9  64.1  34186  290.01 0854.45
2009/04/23 13:13:13.8     155   -160    140    224    264 135.9  35.5  34176  289.85 0854.45
2009/04/23 13:13:13.9      14    -74    149     76    167 169.3  71.4  34184  289.97 0854.45
2009/04/23 13:13:14.0     -47   -137    107    146    181 199.2  39.7  34182  289.94 0854.45
2009/04/23 13:13:14.1      -2    -95     93     96    133 181.4  49.9  34182  289.96 0854.45
2009/04/23 13:13:14.2      19    -26     74     33     81 143.9  74.5  34186  290.02 0854.45
2009/04/23 13:13:14.3       0   -100     26    101    105 180.5  14.7  34176  289.84 0854.45
2009/04/23 13:13:14.4      16   -111     32    113    118 171.5  15.8  34178  289.89 0854.49
2009/04/23 13:13:14.5     -19    -85     55     88    103 192.9  35.5  34176  289.85 0854.49
2009/04/23 13:13:14.6     -36   -180     74    184    198 191.5  23.0  34172  289.79 0854.49
2009/04/23 13:13:14.7     -34   -239      0    242    243 188.1   0.2  34174  289.81 0854.49
2009/04/23 13:13:14.8     -28   -222    -53    224    231 187.3 -13.4  34174  289.80 0854.49
2009/04/23 13:13:14.9      12   -153      7    154    155 175.5   2.8  34172  289.79 0854.49
2009/04/23 13:13:15.0       9   -137    -28    138    141 176.0 -11.5  34174  289.80 0854.49
2009/04/23 13:13:15.1      67   -280    -64    289    297 166.4 -12.6  34172  289.78 0854.49
2009/04/23 13:13:15.2     -51   -300    -44    305    309 189.8  -8.2  34170  289.75 0854.49
2009/04/23 13:13:15.3      29   -310    -61    312    319 174.6 -11.1  34170  289.73 0854.49
2009/04/23 13:13:15.4       0   -289    -16    290    291 180.0  -3.2  34174  289.80 0854.49
2009/04/23 13:13:15.5      46   -271      7    275    276 170.3   1.6  34174  289.80 0854.49
2009/04/23 13:13:15.6      93   -222   -123    241    270 157.3 -33.6  34176  289.85 0854.49
2009/04/23 13:13:15.7      93   -201    -91    222    239 155.1 -28.0  34176  289.83 0854.49
2009/04/23 13:13:15.8      74   -342    -31    351    353 167.7  -5.1  34168  289.72 0854.49
2009/04/23 13:13:15.9      42   -349     23    352    353 173.1   3.8  34174  289.82 0854.49
2009/04/23 13:13:16.0     155   -270     48    312    316 150.1   8.9  34174  289.81 0854.49
2009/04/23 13:13:16.1     168   -203     12    264    265 140.3   2.8  34176  289.85 0854.49
2009/04/23 13:13:16.2     191   -197    -10    275    276 135.9  -2.3  34180  289.90 0854.49
2009/04/23 13:13:16.3     195   -178    -10    265    266 132.4  -2.2  34178  289.86 0854.49
2009/04/23 13:13:16.4     198   -198     23    281    283 135.0   4.9  34174  289.81 0854.52
2009/04/23 13:13:16.5     202   -161    -52    259    265 128.6 -11.3  34182  289.93 0854.52
2009/04/23 13:13:16.6     169   -224     61    281    288 143.0  12.4  34176  289.85 0854.52
2009/04/23 13:13:16.7     141   -246     55    284    290 150.1  11.1  34178  289.88 0854.52
2009/04/23 13:13:16.8      72   -252     55    263    269 164.0  12.0  34180  289.90 0854.52
2009/04/23 13:13:16.9     113   -261     63    285    293 156.6  12.6  34176  289.85 0854.52
2009/04/23 13:13:17.0     125   -254      0    284    285 153.7   0.0  34178  289.88 0854.52
2009/04/23 13:13:17.1     135   -181     69    226    237 143.3  17.1  34174  289.81 0854.52
2009/04/23 13:13:17.2     130   -138    151    190    242 136.8  42.4  34184  289.97 0854.52
2009/04/23 13:13:17.3     151   -130     82    200    216 130.7  23.4  34180  289.92 0854.52
2009/04/23 13:13:17.4     170   -162     88    236    251 133.6  21.3  34172  289.78 0854.52
2009/04/23 13:13:17.5     175   -158    127    236    268 132.0  30.6  34174  289.81 0854.52
2009/04/23 13:13:17.6     165   -155    103    227    249 133.2  26.2  34178  289.86 0854.52
2009/04/23 13:13:17.7     172   -144     58    225    233 129.8  14.5  34178  289.89 0854.52
2009/04/23 13:13:17.8     128   -153    102    200    224 140.1  29.2  34180  289.92 0854.52
2009/04/23 13:13:17.9     107   -142     41    179    184 143.0  12.9  34182  289.94 0854.52
2009/04/23 13:13:18.0      91   -125     61    155    166 143.9  22.8  34182  289.96 0854.52
2009/04/23 13:13:18.1     129   -123    117    179    213 133.8  36.0  34186  290.02 0854.52
2009/04/23 13:13:18.2     147   -112     96    185    208 127.3  29.3  34186  290.02 0854.52
2009/04/23 13:13:18.3     147   -109     63    184    195 126.6  18.9  34186  290.02 0854.52
2009/04/23 13:13:18.4     153   -113     45    191    197 126.4  13.2  34184  289.97 0854.54
2009/04/23 13:13:18.5     154   -175     82    234    247 138.6  20.0  34184  289.98 0854.54
2009/04/23 13:13:18.6     106   -213      4    239    240 153.5   1.0  34178  289.88 0854.54
2009/04/23 13:13:18.7      86   -196     19    215    216 156.3   5.2  34176  289.85 0854.54
2009/04/23 13:13:18.8     106   -169     29    200    203 147.9   8.5  34176  289.85 0854.54
2009/04/23 13:13:18.9     114   -179     26    213    215 147.4   7.1  34178  289.89 0854.54
2009/04/23 13:13:19.0      75   -184     27    199    201 157.7   7.8  34186  290.01 0854.54
2009/04/23 13:13:19.1      58   -169     26    179    181 161.1   8.5  34196  290.18 0854.54
2009/04/23 13:13:19.2      78   -101     54    128    138 142.2  24.1  34192  290.11 0854.54
2009/04/23 13:13:19.3     125   -140     50    188    195 138.3  15.0  34190  290.08 0854.54
2009/04/23 13:13:19.4      74   -134     64    154    166 151.1  24.1  34190  290.09 0854.54
2009/04/23 13:13:19.5      91   -126     93    156    181 143.9  33.5  34188  290.04 0854.54
2009/04/23 13:13:19.6      77   -104     89    130    157 143.5  37.8  34184  289.99 0854.54
2009/04/23 13:13:19.7      77    -92     79    121    144 139.9  35.6  34188  290.04 0854.54
2009/04/23 13:13:19.8     143    -80     66    165    177 119.3  23.0  34192  290.11 0854.54
2009/04/23 13:13:19.9     132    -57     60    144    156 113.5  23.6  34188  290.06 0854.54
2009/04/23 13:13:20.0     116   -116     44    165    171 135.0  15.0  34182  289.96 0854.54
2009/04/23 13:13:20.1     141   -106     85    177    196 127.1  27.3  34176  289.85 0854.54
2009/04/23 13:13:20.2     101   -101     97    143    172 135.0  37.3  34180  289.91 0854.54
2009/04/23 13:13:20.3     123    -78     89    147    171 122.5  34.4  34184  289.99 0854.54
2009/04/23 13:13:20.4      89    -42     85     99    130 115.3  45.4  34188  290.04 0854.54
2009/04/23 13:13:20.5      94    -68     95    117    150 126.0  43.7  34184  289.99 0854.54
2009/04/23 13:13:20.6     119    -43     62    127    141 110.0  27.3  34184  289.99 0854.54
2009/04/23 13:13:20.7      89    -10     80     90    120  97.0  46.4  34178  289.89 0854.54
2009/04/23 13:13:20.8       2    -38     98     39    105 175.6  77.1  34196  290.19 0854.54
2009/04/23 13:13:20.9      98    -30     85    103    133 107.3  43.7  34186  290.01 0854.54
2009/04/23 13:13:21.0     145    -68    107    161    193 115.2  36.5  34182  289.94 0854.54
2009/04/23 13:13:21.1     107    -35    110    113    157 108.2  49.2  34182  289.96 0854.54
2009/04/23 13:13:21.2      39    -30     69     50     85 127.8  61.1  34188  290.06 0854.54
2009/04/23 13:13:21.3      76    -46     62     89    108 121.1  38.0  34188  290.06 0854.54
2009/04/23 13:13:21.4      35    -44     61     57     83 141.3  51.6  34196  290.18 0854.54
2009/04/23 13:13:21.5       8    -45     40     46     60 169.3  45.8  34196  290.19 0854.54
2009/04/23 13:13:21.6      12    -81     53     82     97 171.5  35.6  34196  290.19 0854.54
2009/04/23 13:13:21.7     -16    -71     64     73     97 193.4  45.8  34196  290.19 0854.54
2009/04/23 13:13:21.8     -45    -37     41     59     71 230.5  38.6  34200  290.26 0854.54
2009/04/23 13:13:21.9     -44     -8     41     45     60 259.4  47.9  34202  290.30 0854.54
2009/04/23 13:13:22.0     -22     -9     67     24     71 246.5  81.2  34202  290.30 0854.54
2009/04/23 13:13:22.1       1     29     74     30     79   2.7  76.6  34212  290.45 0854.54
2009/04/23 13:13:22.2      19     21     73     29     78  41.4  77.6  34202  290.28 0854.54
2009/04/23 13:13:22.3      23     51     93     57    109  24.5  65.1  34204  290.33 0854.54
2009/04/23 13:13:22.5     -10   -136    173    137    220 184.5  57.7  34188  290.06 0854.55
2009/04/23 13:13:22.6     -26   -115    144    118    186 192.9  56.4  34190  290.09 0854.55
2009/04/23 13:13:22.7     -73   -140    117    158    196 207.6  40.4  34186  290.01 0854.55
2009/04/23 13:13:22.8     -98   -119     61    155    166 219.6  22.8  34186  290.02 0854.55
2009/04/23 13:13:22.9     -60   -141     86    154    176 203.2  31.4  34188  290.04 0854.55
2009/04/23 13:13:23.0     -47   -116     86    126    152 202.3  37.4  34186  290.02 0854.55
2009/04/23 13:13:23.1      -5   -124    116    125    170 182.7  47.7  34184  289.99 0854.55
2009/04/23 13:13:23.2       9   -196     92    197    217 177.1  27.0  34188  290.06 0854.55
2009/04/23 13:13:23.3     -21   -150    136    152    203 188.0  46.4  34184  289.99 0854.55
2009/04/23 13:13:23.4       5    -96    166     97    192 176.9  67.0  34196  290.19 0854.55
2009/04/23 13:13:23.5      13   -201    122    202    235 176.2  34.0  34190  290.09 0854.55
2009/04/23 13:13:23.6     -70   -148    156    164    226 205.5  48.2  34194  290.16 0854.55
2009/04/23 13:13:23.7     -19   -174    123    176    214 186.2  38.0  34188  290.04 0854.55
2009/04/23 13:13:23.8      93   -132     96    162    188 144.8  33.7  34192  290.11 0854.55
2009/04/23 13:13:23.9      53      0     83     54     99  90.0  64.1  34204  290.33 0854.55
2009/04/23 13:13:24.0      40     -2     81     41     90  93.5  71.4  34194  290.16 0854.55
2009/04/23 13:13:24.1     -15    -43     96     46    106 200.0  72.8  34206  290.35 0854.55
2009/04/23 13:13:24.2      27   -134    111    137    176 168.5  43.5  34198  290.21 0854.55
2009/04/23 13:13:24.3       6   -140     96    141    170 177.3  37.6  34192  290.13 0854.55
2009/04/23 13:13:24.4     -11   -124     44    125    133 185.3  19.4  34194  290.14 0854.55
2009/04/23 13:13:24.5      -1    -98     38     99    106 180.9  22.0  34194  290.16 0854.54
2009/04/23 13:13:24.6      12    -71     19     73     76 170.2  15.2  34192  290.13 0854.54
2009/04/23 13:13:24.7      22    -46     29     52     59 154.5  31.4  34196  290.18 0854.54
2009/04/23 13:13:24.8      47     -3     26     48     54  94.4  31.4  34196  290.19 0854.54
2009/04/23 13:13:24.9      24    -21     47     32     56 131.3  63.6  34208  290.38 0854.54
2009/04/23 13:13:25.0     -33   -101     53    107    119 198.3  28.7  34190  290.08 0854.54
2009/04/23 13:13:25.1     -75   -136     57    156    166 209.0  20.4  34186  290.02 0854.54
2009/04/23 13:13:25.2    -106   -112     -7    155    156 223.2  -2.6  34188  290.06 0854.54
2009/04/23 13:13:25.3     -74   -144    -49    162    170 207.2 -16.8  34186  290.02 0854.54
2009/04/23 13:13:25.4     -10   -135    -69    136    152 184.4 -33.1  34188  290.06 0854.54
2009/04/23 13:13:25.5     -39   -206    -26    210    212 190.9  -7.2  34184  289.97 0854.54
2009/04/23 13:13:25.6     -42   -304    -17    308    309 188.0  -3.2  34182  289.93 0854.54
2009/04/23 13:13:25.7     -25   -325    -59    327    333 184.5 -10.3  34188  290.03 0854.54
2009/04/23 13:13:25.8     -15   -288    -58    289    295 183.1 -11.5  34184  289.97 0854.54
2009/04/23 13:13:25.9     -17   -252    -46    253    258 184.0 -10.3  34180  289.90 0854.54
2009/04/23 13:13:26.0     -13   -243    -48    244    249 183.1 -11.3  34184  289.97 0854.54
2009/04/23 13:13:26.1      -3   -254    -14    255    256 180.9  -3.1  34184  289.98 0854.54
2009/04/23 13:13:26.2      16   -264    -28    265    267 176.4  -6.2  34186  290.02 0854.54
2009/04/23 13:13:26.3      61   -232     -5    241    242 165.1  -1.3  34188  290.03 0854.54
2009/04/23 13:13:26.4      72   -226    -10    238    239 162.2  -2.6  34186  290.00 0854.54
2009/04/23 13:13:26.5     156   -190     34    246    249 140.6   8.0  34188  290.03 0854.54
2009/04/23 13:13:26.6     130   -195     65    235    245 146.4  15.6  34186  290.02 0854.54
2009/04/23 13:13:26.7     109   -169     54    202    210 147.3  15.0  34186  290.01 0854.54
2009/04/23 13:13:26.8     137    -93     99    166    193 124.1  34.0  34190  290.09 0854.54
2009/04/23 13:13:26.9     106   -106    130    151    199 134.9  45.4  34194  290.16 0854.54
2009/04/23 13:13:27.0       7    -68    122     69    140 173.8  68.8  34202  290.28 0854.54
2009/04/23 13:13:27.1      98   -119     82    155    175 140.3  30.1  34192  290.13 0854.54
2009/04/23 13:13:27.2      88    -94     25    130    133 136.8  11.0  34194  290.14 0854.54
2009/04/23 13:13:27.3      66    -90     70    112    132 143.9  35.5  34190  290.09 0854.54
2009/04/23 13:13:27.4      51   -171     88    179    199 163.3  28.0  34192  290.11 0854.54
2009/04/23 13:13:27.5      49   -166     81    174    191 163.5  27.0  34190  290.09 0854.54
2009/04/23 13:13:27.6      73   -119    115    140    181 148.4  43.7  34190  290.09 0854.54
2009/04/23 13:13:27.7      20   -156     55    158    168 172.4  19.2  34190  290.09 0854.54
2009/04/23 13:13:27.8     -17   -118     50    120    130 188.5  24.1  34194  290.16 0854.54
2009/04/23 13:13:27.9     -29    -75     37     81     89 201.4  26.2  34190  290.09 0854.54
2009/04/23 13:13:28.0    -102    -75      8    127    128 233.6   3.8  34188  290.06 0854.54
2009/04/23 13:13:28.1     -64    -17     10     67     68 254.9   9.0  34188  290.06 0854.54
2009/04/23 13:13:28.2     -68    -45    -59     82    101 236.7 -43.9  34194  290.14 0854.54
2009/04/23 13:13:28.3     -65    -45     -9     80     81 234.9  -6.7  34190  290.08 0854.54
2009/04/23 13:13:28.4     -41    -11    -40     43     58 254.9 -53.4  34192  290.13 0854.54
2009/04/23 13:13:28.5     -11     43    -51     45     68 345.7 -56.6  34196  290.18 0854.54
2009/04/23 13:13:28.6       1     78    -17     79     81   1.0 -12.4  34192  290.11 0854.54
2009/04/23 13:13:28.7      45     78    -93     91    130  30.3 -54.5  34188  290.04 0854.54
2009/04/23 13:13:28.8      75    118    -49    140    149  32.5 -19.6  34188  290.06 0854.54
2009/04/23 13:13:28.9     104     87     37    136    141  50.0  15.3  34190  290.08 0854.54
2009/04/23 13:13:29.0      99     59     61    116    131  59.3  29.3  34190  290.09 0854.54
2009/04/23 13:13:29.1     146     -9    -22    147    149  93.9  -8.8  34184  289.99 0854.54
2009/04/23 13:13:29.2      72      5    -21     73     75  85.6 -21.7  34186  290.02 0854.54
2009/04/23 13:13:29.3      84    -19     -3     87     88 102.8  -2.2  34188  290.04 0854.54
2009/04/23 13:13:29.4       3    -31    -36     32     48 173.8 -56.6  34194  290.16 0854.54
2009/04/23 13:13:29.5    -105    -22    -36    108    113 258.1 -23.6  34190  290.09 0854.54
2009/04/23 13:13:29.6    -131    -14    -71    132    149 263.8 -35.2  34190  290.09 0854.54
2009/04/23 13:13:29.7     -96     32   -114    102    152 288.6 -57.7  34192  290.13 0854.54
2009/04/23 13:13:29.8    -104     34   -114    110    158 288.2 -55.3  34192  290.13 0854.54
2009/04/23 13:13:29.9    -132     22   -110    134    173 279.6 -48.1  34194  290.16 0854.54
2009/04/23 13:13:30.0    -113     -5   -115    114    161 267.4 -54.5  34194  290.14 0854.54
2009/04/23 13:13:30.1    -151    -65    -29    165    168 246.7 -10.1  34190  290.09 0854.54
2009/04/23 13:13:30.2     -88     15    -51     90    103 279.7 -35.8  34190  290.08 0854.54
2009/04/23 13:13:30.3     -57     23    -69     62     92 292.6 -57.7  34190  290.08 0854.54
2009/04/23 13:13:30.4     -69     23     -9     73     74 288.4  -7.3  34192  290.13 0854.54
2009/04/23 13:13:30.5     -40     14    -13     43     44 290.0 -22.8  34194  290.16 0854.54
2009/04/23 13:13:30.6       0    -30     -1     31     32 180.9  -2.2  34190  290.09 0854.54
2009/04/23 13:13:30.7      10    -75      7     76     77 172.0   5.9  34194  290.14 0854.54
2009/04/23 13:13:30.8      41   -144    -37    150    155 164.0 -13.9  34190  290.09 0854.54
2009/04/23 13:13:30.9      61   -153    -18    165    167 158.2  -6.5  34190  290.09 0854.54
2009/04/23 13:13:31.0     136   -173     14    221    222 141.9   3.6  34190  290.09 0854.54
2009/04/23 13:13:31.1     177   -137     29    224    226 127.8   7.5  34188  290.06 0854.54
2009/04/23 13:13:31.2     223    -89    122    241    270 111.7  28.7  34192  290.12 0854.54
2009/04/23 13:13:31.3     152    -50    168    161    232 108.2  51.4  34194  290.14 0854.54
2009/04/23 13:13:31.4      92    -47    139    104    173 117.1  59.8  34196  290.19 0854.54
2009/04/23 13:13:31.5       5    -86    156     87    178 176.4  68.8  34200  290.25 0854.54
2009/04/23 13:13:31.6     -18    -95    102     97    140 190.7  52.1  34198  290.23 0854.54
2009/04/23 13:13:31.7      29    -89    115     94    148 161.5  56.4  34202  290.30 0854.54
2009/04/23 13:13:31.8     -12   -115    123    116    169 186.2  51.6  34196  290.18 0854.54
2009/04/23 13:13:31.9      32   -114    140    119    183 164.0  55.6  34200  290.26 0854.54
2009/04/23 13:13:32.0      12   -148    130    149    197 175.1  45.8  34194  290.14 0854.54
2009/04/23 13:13:32.1      -6   -143    116    144    184 182.6  43.3  34194  290.14 0854.54
2009/04/23 13:13:32.2      35   -126     89    131    158 164.4  37.6  34196  290.19 0854.54
2009/04/23 13:13:32.3      22   -109    105    112    153 168.5  48.0  34202  290.28 0854.54
2009/04/23 13:13:32.4       6   -194    102    195    220 178.0  29.8  34192  290.13 0854.54
2009/04/23 13:13:32.5       8   -167    131    168    213 177.1  41.7  34194  290.14 0854.54
2009/04/23 13:13:32.6      17   -162    137    163    212 173.8  44.1  34196  290.19 0854.54
2009/04/23 13:13:32.7     121   -106    104    162    192 131.3  35.6  34198  290.21 0854.54
2009/04/23 13:13:32.8     156    -39    164    161    229 104.2  50.2  34198  290.23 0854.54
2009/04/23 13:13:32.9     111    -49    100    122    157 114.0  43.7  34196  290.18 0854.54
2009/04/23 13:13:33.0      41      0    140     42    146  90.0  82.8  34210  290.41 0854.54
2009/04/23 13:13:33.1     190   -120    158    225    274 122.2  38.6  34202  290.29 0854.54
2009/04/23 13:13:33.2     168   -129    157    212    263 127.5  39.9  34202  290.29 0854.54
2009/04/23 13:13:33.3     237   -143    180    277    330 121.1  35.9  34196  290.17 0854.54
2009/04/23 13:13:33.4     181    -65    198    193    276 110.0  50.9  34204  290.32 0854.54
2009/04/23 13:13:33.5     222    -72    208    234    313 107.9  46.4  34202  290.29 0854.54
2009/04/23 13:13:33.6     127   -123    135    177    222 134.0  41.2  34198  290.21 0854.54
2009/04/23 13:13:33.7      35   -203    209    207    294 170.0  50.2  34200  290.26 0854.54
2009/04/23 13:13:33.8     159   -282    268    324    420 150.6  43.7  34198  290.21 0854.54
2009/04/23 13:13:33.9     111   -304    146    324    355 159.9  25.9  34194  290.16 0854.54
2009/04/23 13:13:34.0     169   -225    132    282    311 143.0  27.1  34192  290.10 0854.54
2009/04/23 13:13:34.1      -8   -210     17    211    212 182.2   4.9  34184  289.97 0854.54
2009/04/23 13:13:34.2      18   -286    158    287    327 176.4  31.3  34194  290.15 0854.54
2009/04/23 13:13:34.3     -58   -466    290    470    552 187.2  34.5  34188  290.04 0854.54
2009/04/23 13:13:34.4      30   -394    263    396    475 175.6  36.7  34190  290.07 0854.54
2009/04/23 13:13:34.5       9   -320    195    321    375 178.3  34.2  34192  290.11 0854.54
2009/04/23 13:13:34.6     -70   -331    110    339    357 192.1  18.0  34192  290.11 0854.54
2009/04/23 13:13:34.7    -185   -348     30    395    397 208.0   4.3  34194  290.15 0854.54
2009/04/23 13:13:34.8    -123   -447    -18    464    465 195.4  -2.2  34188  290.03 0854.54
2009/04/23 13:13:34.9    -164   -387     78    421    429 203.0  10.6  34194  290.16 0854.54
2009/04/23 13:13:35.0     -72   -379    115    386    403 190.8  16.6  34194  290.15 0854.54
2009/04/23 13:13:35.1     -70   -231    123    242    271 197.0  28.7  34194  290.15 0854.54
2009/04/23 13:13:35.2      -7   -140    192    141    238 183.1  60.3  34198  290.21 0854.54
2009/04/23 13:13:35.3     -55   -272    254    278    376 191.5  47.3  34194  290.15 0854.54
2009/04/23 13:13:35.4    -180   -358     91    401    412 206.8  12.9  34196  290.17 0854.54
2009/04/23 13:13:35.5     -32   -282    112    284    305 186.5  23.0  34198  290.22 0854.54
2009/04/23 13:13:35.6      35   -198     87    202    219 170.0  24.9  34200  290.25 0854.54
2009/04/23 13:13:35.7    -139   -262     35    297    300 208.0   6.9  34196  290.17 0854.54
2009/04/23 13:13:35.8     -73   -197     32    211    214 200.3   8.8  34194  290.14 0854.54
2009/04/23 13:13:35.9     -44   -133    167    141    218 198.3  55.8  34202  290.28 0854.54
2009/04/23 13:13:36.0    -202   -128     82    240    254 237.6  18.9  34194  290.14 0854.54
2009/04/23 13:13:36.1     -72    -51     69     89    112 234.9  42.2  34200  290.25 0854.54
2009/04/23 13:13:36.2     -67    -18     36     70     78 254.9  29.3  34200  290.26 0854.54
2009/04/23 13:13:36.3      29     45     98     54    111  32.5  68.8  34214  290.48 0854.54
2009/04/23 13:13:36.4      32     43     91     54    105  37.0  66.2  34214  290.48 0854.54
2009/04/23 13:13:36.5      45    -48     50     67     83 136.8  40.7  34210  290.41 0854.54
2009/04/23 13:13:36.6      14    135     66    136    151   6.2  27.3  34200  290.25 0854.54
2009/04/23 13:13:36.7     106     20    100    108    147  79.0  47.9  34204  290.31 0854.54
2009/04/23 13:13:36.8     112    -45     57    121    133 112.2  27.2  34206  290.36 0854.54
2009/04/23 13:13:36.9     163    -45    -48    170    177 105.7 -15.8  34194  290.14 0854.54
2009/04/23 13:13:37.0     248     82     50    262    267  71.6  10.8  34194  290.14 0854.54
2009/04/23 13:13:37.1     225    -42    140    229    268 100.6  34.4  34200  290.24 0854.54
2009/04/23 13:13:37.2     107    -90    179    141    227 130.0  57.7  34198  290.23 0854.54
2009/04/23 13:13:37.3      72   -192    154    206    257 159.5  40.6  34200  290.24 0854.54
2009/04/23 13:13:37.4      50   -219    164    225    278 167.1  39.7  34196  290.17 0854.54
2009/04/23 13:13:37.5      64   -189    152    200    251 161.3  40.9  34196  290.17 0854.54
2009/04/23 13:13:37.6       7    -62     78     63    100 172.9  56.9  34202  290.30 0854.54
2009/04/23 13:13:37.7     -52   -179      1    187    188 196.3   0.5  34198  290.23 0854.54
2009/04/23 13:13:37.8    -145   -236     -5    278    279 211.6  -1.2  34194  290.14 0854.54
2009/04/23 13:13:37.9    -136   -447   -139    468    488 196.9 -21.2  34196  290.18 0854.54
2009/04/23 13:13:38.0     -40   -279    -50    282    287 188.2 -10.1  34196  290.17 0854.54
2009/04/23 13:13:38.1       5   -127   -103    128    164 177.4 -47.4  34188  290.06 0854.54
2009/04/23 13:13:38.2      -7     -2     22      8     23 251.4  81.2  34200  290.25 0854.54
2009/04/23 13:13:38.3     -51    -61     88     80    118 219.6  52.7  34214  290.50 0854.54
2009/04/23 13:13:38.4    -106   -245    -12    268    269 203.4  -2.6  34194  290.15 0854.54
2009/04/23 13:13:38.5      65   -240    -30    249    251 164.8  -6.9  34194  290.15 0854.54
2009/04/23 13:13:38.6      58    -94     89    111    142 148.4  43.7  34198  290.23 0854.54
2009/04/23 13:13:38.7      42     59    173     73    187  35.2  76.1  34202  290.28 0854.54
2009/04/23 13:13:38.8     -85     84    147    120    189 314.6  56.4  34206  290.35 0854.54
2009/04/23 13:13:38.9     -49     85    147     99    177 329.7  62.8  34206  290.36 0854.54
2009/04/23 13:13:39.0     -80     91     86    122    149 318.6  39.1  34204  290.33 0854.54
2009/04/23 13:13:39.1      43    128     60    136    148  18.7  25.2  34198  290.23 0854.54
2009/04/23 13:13:39.2      86    134    102    160    189  32.6  35.6  34196  290.18 0854.54
2009/04/23 13:13:39.3      80    135    139    158    210  30.8  45.8  34200  290.26 0854.54
2009/04/23 13:13:39.4     -39      9     98     41    106 283.3  76.6  34212  290.45 0854.53
2009/04/23 13:13:39.5     -65    -21     83     69    107 251.4  56.3  34210  290.41 0854.53
2009/04/23 13:13:39.6      41     -9     85     42     94 102.4  72.4  34200  290.25 0854.53
2009/04/23 13:13:39.7      52    -22     97     57    112 113.5  66.8  34208  290.38 0854.53
2009/04/23 13:13:39.8     -87     19     72     90    115 282.4  43.7  34216  290.52 0854.53
2009/04/23 13:13:39.9     -80     30     65     86    107 290.8  40.7  34212  290.47 0854.53
2009/04/23 13:13:40.0     -78     58     49     98    109 306.4  28.2  34206  290.35 0854.53
2009/04/23 13:13:40.1      38     14     55     41     68  69.2  58.5  34206  290.35 0854.53
2009/04/23 13:13:40.2     142    -47     62    150    162 108.6  23.6  34202  290.28 0854.53
2009/04/23 13:13:40.3     175    -57     43    185    191 108.2  13.2  34204  290.31 0854.53
2009/04/23 13:13:40.4     155    -31     35    159    163 101.5  12.6  34206  290.35 0854.53
2009/04/23 13:13:40.5     108     -8     43    109    117  94.4  22.5  34206  290.36 0854.53
2009/04/23 13:13:40.6      84   -117     -8    145    146 144.4  -3.2  34202  290.30 0854.53
2009/04/23 13:13:40.7      57    -68     35     89     95 139.9  22.5  34200  290.25 0854.53
2009/04/23 13:13:40.8     -62    -42     55     76     93 235.8  39.1  34204  290.33 0854.53
2009/04/23 13:13:40.9     -29   -143     94    147    174 191.6  35.6  34210  290.41 0854.53
2009/04/23 13:13:41.0      41   -206     75    211    225 168.7  19.6  34200  290.26 0854.53
2009/04/23 13:13:41.1     134   -222    115    260    284 149.0  25.3  34202  290.27 0854.53
2009/04/23 13:13:41.2     170   -426    -25    459    460 158.2  -3.2  34210  290.41 0854.53
2009/04/23 13:13:41.3      63   -418   -133    423    444 171.4 -17.5  34212  290.46 0854.53
2009/04/23 13:13:41.4     121   -435    -12    452    453 164.4  -1.6  34200  290.26 0854.51
2009/04/23 13:13:41.5      12   -432    -23    433    434 178.4  -3.1  34204  290.31 0854.51
2009/04/23 13:13:41.6     -41   -353     83    356    366 186.7  13.1  34198  290.21 0854.51
2009/04/23 13:13:41.7     -31   -363    113    365    383 185.0  17.3  34194  290.15 0854.51
2009/04/23 13:13:41.8      23   -302     83    304    316 175.5  15.3  34202  290.27 0854.51
2009/04/23 13:13:41.9      75   -367     72    375    382 168.4  11.0  34202  290.30 0854.51
2009/04/23 13:13:42.0     -25   -396    132    397    419 183.6  18.4  34200  290.24 0854.51
2009/04/23 13:13:42.1     -62   -371    138    377    401 189.6  20.9  34202  290.27 0854.51
2009/04/23 13:13:42.2    -142   -251    196    289    349 209.6  37.3  34202  290.28 0854.51
2009/04/23 13:13:42.3     -57   -180    150    189    241 197.6  42.7  34202  290.28 0854.51
2009/04/23 13:13:42.4     -84   -183    151    202    252 204.7  40.6  34200  290.26 0854.51
2009/04/23 13:13:42.5     -98   -261    204    280    346 200.7  39.7  34204  290.31 0854.51
2009/04/23 13:13:42.6    -120   -251    204    279    345 205.5  39.7  34204  290.31 0854.51
2009/04/23 13:13:42.7     -81   -304     95    315    329 195.1  16.8  34202  290.27 0854.51
2009/04/23 13:13:42.8    -139   -317     53    347    352 203.6   8.8  34202  290.28 0854.51
2009/04/23 13:13:42.9     -51   -480    156    483    508 186.1  17.9  34202  290.30 0854.51
2009/04/23 13:13:43.0      -7   -452     77    453    460 181.0   9.7  34198  290.21 0854.51
2009/04/23 13:13:43.1      24   -461    148    462    486 177.0  17.8  34204  290.32 0854.51
2009/04/23 13:13:43.2     -59   -444    121    448    465 187.6  15.1  34200  290.24 0854.51
2009/04/23 13:13:43.3     -60   -471     70    475    481 187.3   8.5  34200  290.25 0854.51
2009/04/23 13:13:43.4     -69   -557    120    562    575 187.1  12.1  34198  290.22 0854.50
2009/04/23 13:13:43.5      -9   -584    127    585    599 180.9  12.3  34202  290.27 0854.50
2009/04/23 13:13:43.6      -7   -467    156    468    494 180.9  18.4  34200  290.25 0854.50
2009/04/23 13:13:43.7      82   -481    159    488    514 170.3  18.0  34206  290.34 0854.50
2009/04/23 13:13:43.8      32   -472    230    474    526 176.1  27.8  34198  290.22 0854.50
2009/04/23 13:13:43.9      -1   -567    206    568    604 180.1  20.9  34204  290.31 0854.50
2009/04/23 13:13:44.0      33   -511    175    513    543 176.2  18.8  34204  290.31 0854.50
2009/04/23 13:13:44.1      56   -520    178    524    554 173.8  18.8  34206  290.35 0854.50
2009/04/23 13:13:44.2    -110   -559    122    570    584 191.2  12.2  34204  290.32 0854.50
2009/04/23 13:13:44.3     -43   -510    215    512    555 184.9  24.2  34212  290.46 0854.50
2009/04/23 13:13:44.4     -71   -523    202    528    565 187.8  22.0  34214  290.48 0854.50
2009/04/23 13:13:44.5      20   -406    143    407    431 177.1  20.1  34196  290.19 0854.50
2009/04/23 13:13:44.6     160   -211    -10    266    267 142.8  -2.2  34206  290.36 0854.50
2009/04/23 13:13:44.7     -65    -77     96    101    139 220.1  48.5  34204  290.33 0854.50
2009/04/23 13:13:44.8      -3   -114     99    115    151 181.8  45.4  34210  290.41 0854.50
2009/04/23 13:13:44.9     -24   -223     21    225    227 186.2   5.4  34202  290.30 0854.50
2009/04/23 13:13:45.0    -183   -416    -49    455    458 203.7  -6.3  34202  290.28 0854.50
2009/04/23 13:13:45.1    -189   -295     63    351    357 212.6  10.2  34202  290.30 0854.50
2009/04/23 13:13:45.2     -87   -502    239    510    563 189.9  27.0  34198  290.21 0854.50
2009/04/23 13:13:45.3     -72   -483    211    489    532 188.5  25.0  34202  290.29 0854.50
2009/04/23 13:13:45.4      10   -356    249    357    435 178.3  38.4  34204  290.31 0854.48
2009/04/23 13:13:45.5      44   -502     95    505    514 174.9  10.7  34198  290.22 0854.48
2009/04/23 13:13:45.6     125   -552    126    567    582 167.2  12.6  34198  290.20 0854.48
2009/04/23 13:13:45.7     220   -489     95    537    546 155.8  10.1  34194  290.14 0854.48
2009/04/23 13:13:45.8     309   -326     47    450    453 136.6   6.0  34198  290.22 0854.48
2009/04/23 13:13:45.9     219   -321    150    389    416 145.7  22.2  34202  290.29 0854.48
2009/04/23 13:13:46.0     243   -458    313    519    606 152.0  34.0  34206  290.34 0854.48
2009/04/23 13:13:46.1     355   -483    164    600    623 143.7  15.3  34204  290.32 0854.48
2009/04/23 13:13:46.2     269   -498    180    566    595 151.6  17.7  34192  290.12 0854.48
2009/04/23 13:13:46.3     304   -475     49    565    568 147.4   5.0  34202  290.30 0854.48
2009/04/23 13:13:46.4     108   -390    -66    405    411 164.4  -9.3  34206  290.36 0854.48
2009/04/23 13:13:46.5     135   -311      1    340    341 156.5   0.2  34204  290.33 0854.48
2009/04/23 13:13:46.6      13   -300    105    301    319 177.4  19.3  34210  290.41 0854.48
2009/04/23 13:13:46.7     105   -345    251    361    439 163.0  38.3  34210  290.43 0854.48
2009/04/23 13:13:46.8      61   -289    247    296    385 168.0  44.0  34218  290.54 0854.48
2009/04/23 13:13:46.9     137   -466    185    486    520 163.6  21.8  34210  290.42 0854.48
2009/04/23 13:13:47.0     158   -466    246    493    550 161.2  28.5  34208  290.40 0854.48
2009/04/23 13:13:47.1      32   -539    191    540    572 176.6  20.2  34206  290.35 0854.48
2009/04/23 13:13:47.2     -31   -491     33    492    494 183.7   3.9  34208  290.40 0854.48
2009/04/23 13:13:47.3     -29   -529    -24    530    531 183.2  -2.6  34204  290.33 0854.48
2009/04/23 13:13:47.4      70   -500   -140    506    526 172.0 -15.5  34204  290.32 0854.47
2009/04/23 13:13:47.5     159   -404   -140    435    458 158.4 -17.9  34204  290.31 0854.47
2009/04/23 13:13:47.6     171   -375    -87    413    423 155.5 -12.0  34208  290.39 0854.47
2009/04/23 13:13:47.7     132   -373   -106    396    411 160.4 -15.1  34194  290.14 0854.47
2009/04/23 13:13:47.8     111   -365   -136    382    406 163.1 -19.7  34204  290.33 0854.47
2009/04/23 13:13:47.9     124   -384   -111    404    418 162.1 -20.0  34206  290.36 0854.47
2009/04/23 13:13:48.0     147   -424    -81    450    458 160.8 -10.3  34204  290.33 0854.47
2009/04/23 13:13:48.1      72   -456    -28    462    463 171.0  -3.5  34204  290.31 0854.47
2009/04/23 13:13:48.2      89   -451    -41    460    462 168.8  -5.2  34208  290.38 0854.47
2009/04/23 13:13:48.3      75   -369    -88    377    388 168.4 -13.2  34218  290.54 0854.47
2009/04/23 13:13:48.4      64   -380    -90    386    397 170.4 -13.2  34214  290.49 0854.47
2009/04/23 13:13:48.5     -97   -460   -136    471    491 191.9 -16.1  34208  290.39 0854.47
2009/04/23 13:13:48.6     -50   -421   -135    425    447 186.9 -17.7  34210  290.41 0854.47
2009/04/23 13:13:48.7      22   -390   -159    391    422 176.8 -27.8  34216  290.53 0854.47
2009/04/23 13:13:48.8      95   -357   -113    370    386 165.0 -21.9  34210  290.43 0854.47
2009/04/23 13:13:48.9      22   -290   -105    291    309 175.5 -25.1  34218  290.56 0854.47
2009/04/23 13:13:49.0     109   -296    -83    316    327 159.7 -14.8  34206  290.36 0854.47
2009/04/23 13:13:49.1     112   -281    -38    303    306 158.2  -7.3  34208  290.39 0854.47
2009/04/23 13:13:49.2     113   -221   -115    249    274 152.9 -31.0  34218  290.54 0854.47
2009/04/23 13:13:49.3     166   -204    -74    264    275 140.8 -15.8  34216  290.53 0854.47
2009/04/23 13:13:49.4     224   -203    -11    303    304 132.3  -2.2  34212  290.44 0854.47
2009/04/23 13:13:49.5     286   -246      5    378    379 130.8   0.8  34202  290.30 0854.47
2009/04/23 13:13:49.6     260   -261     25    369    370 135.1   4.0  34198  290.20 0854.47
2009/04/23 13:13:49.7     163   -247    160    297    337 146.6  30.7  34198  290.22 0854.47
2009/04/23 13:13:49.8     157   -260    252    305    395 148.8  43.8  34200  290.25 0854.47
2009/04/23 13:13:49.9     138   -244    270    281    389 150.4  49.0  34208  290.37 0854.47
2009/04/23 13:13:50.0     282   -229    143    364    391 129.1  22.7  34198  290.21 0854.47
2009/04/23 13:13:50.1     281   -338     17    440    441 140.2   2.3  34200  290.24 0854.47
2009/04/23 13:13:50.2     277   -265     45    384    387 133.7   6.7  34198  290.23 0854.47
2009/04/23 13:13:50.4     262   -241     22    357    358 132.6   3.6  34204  290.32 0854.47
2009/04/23 13:13:50.5     263   -292     83    394    403 138.0  12.0  34208  290.37 0854.47
2009/04/23 13:13:50.6     331   -234     41    406    409 125.3   5.8  34208  290.38 0854.47
2009/04/23 13:13:50.7     248   -233     75    341    350 133.1  12.5  34204  290.32 0854.47
2009/04/23 13:13:50.8     254   -320     96    409    421 141.6  13.3  34206  290.36 0854.47
2009/04/23 13:13:50.9     258   -301     66    397    403 139.5   9.5  34208  290.37 0854.47
2009/04/23 13:13:51.0     273   -273     38    387    389 135.0   5.7  34208  290.40 0854.47
2009/04/23 13:13:51.1     215   -270     43    346    349 141.5   7.1  34212  290.45 0854.47
2009/04/23 13:13:51.2     182   -267    -10    324    325 145.7  -1.9  34214  290.48 0854.47
2009/04/23 13:13:51.3     102   -221     -9    244    245 155.1  -2.2  34210  290.41 0854.47
2009/04/23 13:13:51.4      55   -164     79    174    191 161.3  26.2  34216  290.52 0854.47
2009/04/23 13:13:51.5      39   -183     99    188    212 168.0  30.1  34216  290.53 0854.47
2009/04/23 13:13:51.6      99   -147    112    178    210 145.9  35.5  34212  290.47 0854.47
2009/04/23 13:13:51.7     117   -117     67    166    179 134.9  23.0  34214  290.48 0854.47
2009/04/23 13:13:51.8      72   -139     -9    157    158 152.4  -3.3  34214  290.50 0854.47
2009/04/23 13:13:51.9      20   -142      7    144    145 172.0   2.8  34214  290.50 0854.47
2009/04/23 13:13:52.0     -27   -147    -23    150    152 190.7  -8.8  34216  290.53 0854.47
2009/04/23 13:13:52.1     -84   -147     -3    170    171 209.9  -1.1  34216  290.52 0854.47
2009/04/23 13:13:52.2    -125   -122    -60    175    185 225.8 -23.3  34216  290.52 0854.47
2009/04/23 13:13:52.3    -136    -48    -69    145    160 250.5 -31.6  34218  290.57 0854.47
2009/04/23 13:13:52.4    -120    -16    -75    122    143 262.1 -39.4  34218  290.55 0854.47
2009/04/23 13:13:52.5    -101     18    -67    103    122 280.1 -40.0  34214  290.48 0854.46
2009/04/23 13:13:52.6     -87    -16    -60     89    107 259.0 -41.4  34214  290.48 0854.46
2009/04/23 13:13:52.7     -63      4    -12     64     66 274.4 -11.3  34216  290.53 0854.46
2009/04/23 13:13:52.8     -52    -10    -12     54     56 258.6 -12.4  34216  290.53 0854.46
2009/04/23 13:13:52.9     -29    -67      2     74     75 203.6   1.8  34216  290.52 0854.46
2009/04/23 13:13:53.0     -86   -148     82    172    190 210.1  27.3  34210  290.43 0854.46
2009/04/23 13:13:53.1    -133   -125    -13    183    184 226.9  -4.1  34212  290.45 0854.46
2009/04/23 13:13:53.2     -72    -71    -32    102    108 225.6 -17.6  34210  290.43 0854.46
2009/04/23 13:13:53.3     -51    -99     -3    112    113 207.2  -1.8  34212  290.45 0854.46
2009/04/23 13:13:53.4      -6    -76     80     77    111 184.5  51.2  34216  290.53 0854.46
2009/04/23 13:13:53.5      -9    -39     81     41     90 193.4  71.4  34220  290.58 0854.46
2009/04/23 13:13:53.6      -2    -35     79     36     86 184.4  74.5  34218  290.57 0854.46
2009/04/23 13:13:53.7     -85   -103     67    134    149 219.7  28.2  34214  290.48 0854.46
2009/04/23 13:13:53.8      43    -68    148     81    168 147.5  69.1  34216  290.53 0854.46
2009/04/23 13:13:53.9    -129   -239    255    272    372 208.5  48.0  34218  290.54 0854.46
2009/04/23 13:13:54.0     -51    -72    186     89    206 215.6  72.8  34222  290.62 0854.46
2009/04/23 13:13:54.1     -78   -101    147    128    194 217.8  54.8  34224  290.65 0854.46
2009/04/23 13:13:54.2     -39   -122     88    129    156 197.8  37.4  34220  290.60 0854.46
2009/04/23 13:13:54.3    -113   -204     96    234    252 209.0  23.6  34220  290.58 0854.46
2009/04/23 13:13:54.4    -259   -246     37    358    360 226.4   5.9  34216  290.52 0854.46
2009/04/23 13:13:54.5    -169   -151    -35    227    230 228.2  -9.0  34214  290.50 0854.46
2009/04/23 13:13:54.6    -141   -110     -8    179    180 232.0  -2.8  34214  290.50 0854.46
2009/04/23 13:13:54.7    -135    -74    -47    155    161 241.2 -22.1  34214  290.48 0854.46
2009/04/23 13:13:54.8    -135    -35    -42    140    147 255.4 -17.0  34210  290.43 0854.46
2009/04/23 13:13:54.9    -130    -71    -44    149    156 241.2 -16.4  34218  290.55 0854.46
2009/04/23 13:13:55.0    -104    -75     87    129    155 234.0  37.0  34220  290.58 0854.46
2009/04/23 13:13:55.1    -143    -54    117    154    193 249.2  40.9  34222  290.62 0854.46
2009/04/23 13:13:55.2     -68     18    115     71    135 285.0  64.7  34230  290.75 0854.46
2009/04/23 13:13:55.3    -178     39     55    183    192 282.6  16.8  34230  290.75 0854.46
2009/04/23 13:13:55.4    -148     35     91    153    178 283.3  33.7  34240  290.92 0854.46
2009/04/23 13:13:55.5    -193     89     79    213    227 294.8  21.3  34238  290.91 0854.46
2009/04/23 13:13:55.6    -128     87     86    155    177 304.2  31.4  34234  290.84 0854.46
2009/04/23 13:13:55.7    -137     65    159    152    219 295.4  51.4  34230  290.77 0854.46
2009/04/23 13:13:55.8    -198    -65    142    209    252 251.8  37.3  34224  290.65 0854.46
2009/04/23 13:13:55.9    -180   -210    127    277    304 220.5  26.6  34224  290.66 0854.46
2009/04/23 13:13:56.0    -253   -160    121    300    323 237.6  23.2  34224  290.65 0854.46
2009/04/23 13:13:56.1    -233   -132    117    268    292 240.5  25.1  34224  290.65 0854.46
2009/04/23 13:13:56.2    -247    -51    133    253    285 258.3  30.1  34222  290.63 0854.46
2009/04/23 13:13:56.3    -187    -39    102    192    217 258.1  30.6  34224  290.67 0854.46
2009/04/23 13:13:56.4    -232    -17    118    233    261 265.7  28.7  34228  290.73 0854.46
2009/04/23 13:13:56.5    -253   -125    129    283    311 243.6  26.2  34224  290.66 0854.46
2009/04/23 13:13:56.6      -5     38    113     39    119 352.0  80.7  34232  290.79 0854.46
2009/04/23 13:13:56.7     -26   -128    174    131    217 191.5  59.4  34228  290.72 0854.46
2009/04/23 13:13:56.8     -33   -148    213    152    261 192.9  61.1  34224  290.65 0854.46
2009/04/23 13:13:56.9    -105   -105    131    149    198 225.0  45.9  34224  290.65 0854.46
2009/04/23 13:13:57.0     -50   -140    128    149    196 200.0  45.4  34220  290.58 0854.46
2009/04/23 13:13:57.1      28   -179    133    182    225 171.1  39.7  34218  290.55 0854.46
2009/04/23 13:13:57.2     -28   -184    181    187    260 188.7  49.2  34222  290.61 0854.46
2009/04/23 13:13:57.3     -67   -283    101    291    309 193.4  19.2  34218  290.56 0854.46
2009/04/23 13:13:57.4     -52   -321     90    326    339 189.3  15.4  34218  290.55 0854.46
2009/04/23 13:13:57.5      21   -271    117    272    296 175.5  24.9  34214  290.49 0854.46
2009/04/23 13:13:57.6      12   -260    149    261    300 177.3  32.4  34214  290.49 0854.46
2009/04/23 13:13:57.7     -70   -360    177    367    407 191.1  27.7  34214  290.49 0854.46
2009/04/23 13:13:57.8     -15   -332    144    333    362 182.6  25.0  34212  290.45 0854.46
2009/04/23 13:13:57.9      72   -324     84    333    344 167.4  14.3  34212  290.47 0854.46
2009/04/23 13:13:58.0      72   -311     52    320    325 166.9   9.2  34214  290.48 0854.46
2009/04/23 13:13:58.1       0   -290     24    291    293 180.0   4.9  34210  290.41 0854.46
2009/04/23 13:13:58.2     -57   -202   -140    210    252 195.8 -40.9  34212  290.44 0854.46
2009/04/23 13:13:58.3     -54   -101   -112    115    160 208.5 -53.8  34210  290.41 0854.46
2009/04/23 13:13:58.4     -64    -87     52    109    120 216.5  27.2  34214  290.48 0854.46
2009/04/23 13:13:58.5     -95    -93    174    133    219 225.6  58.7  34214  290.50 0854.47
2009/04/23 13:13:58.6    -149   -161    132    220    256 222.8  33.7  34214  290.49 0854.47
2009/04/23 13:13:58.7     -99   -209     34    232    235 205.5   8.5  34216  290.51 0854.47
2009/04/23 13:13:58.8      59   -164    103    175    203 160.2  33.5  34216  290.52 0854.47
2009/04/23 13:13:58.9      -7   -271    138    272    305 181.6  29.1  34218  290.56 0854.47
2009/04/23 13:13:59.0     -64   -244     92    253    269 194.7  20.7  34216  290.53 0854.47
2009/04/23 13:13:59.1     -94   -235     74    254    265 201.8  16.4  34214  290.48 0854.47
2009/04/23 13:13:59.2    -150   -317     23    351    352 205.3   3.8  34212  290.47 0854.47
2009/04/23 13:13:59.3    -165   -206    -34    265    268 218.7  -7.3  34210  290.42 0854.47
2009/04/23 13:13:59.4    -195   -176    -14    263    264 228.0  -3.1  34214  290.48 0854.47
2009/04/23 13:13:59.5    -181    -37     78    185    200 258.3  24.1  34216  290.52 0854.47
2009/04/23 13:13:59.6    -113    -10     57    114    127 264.8  28.2  34218  290.55 0854.47
2009/04/23 13:13:59.7    -104     19     51    106    117 280.6  27.2  34216  290.53 0854.47
2009/04/23 13:13:59.8     -90      6    117     91    148 274.4  58.4  34218  290.57 0854.47
2009/04/23 13:13:59.9     -72     43     80     85    116 301.1  48.5  34220  290.58 0854.47
2009/04/23 13:14:00.0     -20     57     61     61     86 340.8  50.1  34220  290.58 0854.47
2009/04/23 13:14:00.1       0    -10     64     11     64 182.7  90.0  34220  290.58 0854.47
2009/04/23 13:14:00.2      16    -60     51     63     81 164.8  43.3  34216  290.53 0854.47
2009/04/23 13:14:00.3     -47     -2     47     48     67 266.5  51.1  34222  290.64 0854.47
2009/04/23 13:14:00.4      30    -23     51     39     64 127.8  59.4  34218  290.57 0854.47
2009/04/23 13:14:00.5      12    -60     61     62     86 168.4  50.5  34216  290.53 0854.47
2009/04/23 13:14:00.6     -15    -84     45     86     97 190.2  29.8  34216  290.53 0854.47
2009/04/23 13:14:00.7     -15    -58     31     61     68 195.2  28.2  34214  290.48 0854.47
2009/04/23 13:14:00.8     -26    -22      5     35     36 230.4   9.0  34216  290.52 0854.47
2009/04/23 13:14:00.9       3      7     -2      8      9  25.4 -15.5  34218  290.55 0854.47
2009/04/23 13:14:01.0      48     30     -2     57     58  57.6  -2.2  34216  290.53 0854.47
2009/04/23 13:14:01.1     109     -7     29    110    114  93.9  15.2  34222  290.62 0854.47
2009/04/23 13:14:01.2     180    -14     28    181    184  94.6   9.0  34224  290.67 0854.47
2009/04/23 13:14:01.3     127    -14     59    128    140  96.6  26.6  34228  290.72 0854.47
2009/04/23 13:14:01.4      93    -30     44     98    107 108.2  26.2  34232  290.79 0854.47
2009/04/23 13:14:01.5     126    -56     -7    138    139 114.0  -3.2  34234  290.82 0854.47
2009/04/23 13:14:01.6     149    -70    -19    165    167 115.4  -6.9  34230  290.77 0854.47
2009/04/23 13:14:01.7      83   -158    -28    179    182 152.1  -9.0  34218  290.57 0854.47
2009/04/23 13:14:01.8      42   -205      2    210    211 168.4   0.8  34216  290.53 0854.47
2009/04/23 13:14:01.9      38   -187     42    191    196 168.4  12.4  34218  290.55 0854.47
2009/04/23 13:14:02.0      52   -156     43    165    171 161.5  14.7  34218  290.57 0854.47
2009/04/23 13:14:02.1      28   -105     38    109    116 164.8  19.4  34218  290.57 0854.47
2009/04/23 13:14:02.2      -3    -38     42     39     57 184.5  51.2  34224  290.67 0854.47
2009/04/23 13:14:02.3       3     -8     58      9     58 154.6  90.0  34228  290.74 0854.47
2009/04/23 13:14:02.4      -2     33     49     34     59 355.5  61.5  34230  290.75 0854.49
2009/04/23 13:14:02.5      15     40     33     43     54  20.9  41.7  34228  290.72 0854.49
2009/04/23 13:14:02.6     -15    -32     47     36     59 205.5  58.5  34226  290.70 0854.49
2009/04/23 13:14:02.7     -40   -102     75    110    133 201.9  37.4  34218  290.57 0854.49
2009/04/23 13:14:02.8     -68    -91     51    114    124 217.0  25.2  34218  290.57 0854.49
2009/04/23 13:14:02.9      13    -39    -27     42     49 161.5 -39.9  34220  290.60 0854.49
2009/04/23 13:14:03.0      71      8      3     72     73  83.0   2.9  34222  290.62 0854.49
2009/04/23 13:14:03.1     146      4    -29    147    150  88.3 -11.3  34220  290.60 0854.49
2009/04/23 13:14:03.2     182    -16      8    183    184  95.2   2.8  34220  290.58 0854.49
2009/04/23 13:14:03.3     189     15     57    190    199  85.2  16.8  34218  290.55 0854.49
2009/04/23 13:14:03.4     221    -73     62    233    242 108.4  15.0  34218  290.54 0854.49
2009/04/23 13:14:03.5     229   -146     84    272    285 122.6  17.3  34220  290.59 0854.49
2009/04/23 13:14:03.6     172    -88    102    194    219 117.3  30.1  34220  290.60 0854.49
2009/04/23 13:14:03.7     141    -44     82    148    169 107.3  31.6  34218  290.57 0854.49
2009/04/23 13:14:03.8     114    -80    144    140    200 125.1  50.7  34218  290.57 0854.49
2009/04/23 13:14:03.9     112   -116    158    162    226 136.1  49.4  34218  290.57 0854.49
2009/04/23 13:14:04.0      59    -71    139     93    167 140.4  63.2  34222  290.64 0854.49
2009/04/23 13:14:04.1       2    -48    108     49    118 177.3  74.5  34224  290.65 0854.49
2009/04/23 13:14:04.2       7    -41    125     42    131 169.3  81.0  34224  290.67 0854.49
2009/04/23 13:14:04.3     -94   -182    162    205    261 207.4  42.4  34226  290.68 0854.49
2009/04/23 13:14:04.4     -99   -106     54    146    155 223.2  21.0  34228  290.74 0854.50
2009/04/23 13:14:04.5    -204     44     79    209    223 282.2  21.5  34222  290.64 0854.50
2009/04/23 13:14:04.6    -268     60     74    275    285 282.8  15.2  34226  290.70 0854.50
2009/04/23 13:14:04.7     -67   -143      8    159    160 205.3   2.9  34222  290.62 0854.50
2009/04/23 13:14:04.8     -17   -160    211    161    265 186.2  58.7  34220  290.59 0854.50
2009/04/23 13:14:04.9    -145   -136    141    199    243 226.8  38.6  34224  290.65 0854.50
2009/04/23 13:14:05.0    -117   -110    100    161    189 226.9  35.2  34230  290.77 0854.50
2009/04/23 13:14:05.1    -113   -107    132    156    204 226.4  44.5  34242  290.96 0854.50
2009/04/23 13:14:05.2    -122   -112     93    166    190 227.3  31.6  34240  290.94 0854.50
2009/04/23 13:14:05.3       0    -98    135     99    167 180.4  60.3  34230  290.77 0854.50
2009/04/23 13:14:05.4     -16   -118    139    120    183 188.1  54.8  34226  290.69 0854.50
2009/04/23 13:14:05.5      -5    -84     96     85    128 183.6  54.2  34228  290.72 0854.50
2009/04/23 13:14:05.6      56      6     86     57    103  83.0  63.6  34230  290.77 0854.50
2009/04/23 13:14:05.7      65     -8     92     66    113  97.0  60.6  34228  290.74 0854.50
2009/04/23 13:14:05.8     146    -30    131    150    199 101.9  45.8  34234  290.82 0854.50
2009/04/23 13:14:05.9      48    -58     87     76    115 140.4  54.8  34238  290.89 0854.50
2009/04/23 13:14:06.0      82    -97    117    128    173 139.9  47.5  34226  290.70 0854.50
2009/04/23 13:14:06.1     -47    -64    -16     80     82 216.1 -11.3  34228  290.72 0854.50
2009/04/23 13:14:06.2       0     43    -15     44     46   0.0 -23.6  34244  290.99 0854.50
2009/04/23 13:14:06.3     -40     -5     -6     41     42 262.1  -8.2  34238  290.91 0854.50
2009/04/23 13:14:06.4      34     22     89     41     97  56.7  73.5  34258  291.23 0854.51
2009/04/23 13:14:06.5      58     56     74     81    109  45.9  47.9  34266  291.38 0854.51
2009/04/23 13:14:06.6      50    107     69    119    137  25.3  32.9  34298  291.91 0854.51
2009/04/23 13:14:06.7      35     81     71     89    113  23.6  43.3  34330  292.47 0854.51
2009/04/23 13:14:06.8      79     53     98     96    137  55.8  50.1  34340  292.64 0854.51
2009/04/23 13:14:06.9     254     72     58    265    272  74.1  12.4  34322  292.33 0854.51
2009/04/23 13:14:07.0     222     52     86    229    244  76.8  21.3  34342  292.67 0854.51
2009/04/23 13:14:07.1     163     76    167    181    246  64.9  47.7  34334  292.52 0854.51
2009/04/23 13:14:07.2     163     45    226    170    282  74.3  59.4  34320  292.30 0854.51
2009/04/23 13:14:07.3     178    166    233    244    337  46.9  48.6  34308  292.09 0854.51
2009/04/23 13:14:07.4     333    236    105    409    423  54.6  14.5  34344  292.71 0854.51
2009/04/23 13:14:07.5     135    198    173    240    295  34.3  39.5  34358  292.93 0854.51
2009/04/23 13:14:07.6     260    175    211    314    378  55.9  37.2  34324  292.37 0854.51
2009/04/23 13:14:07.7     246    156    165    292    335  57.6  31.9  34264  291.34 0854.51
2009/04/23 13:14:07.8     442    282    112    525    538  57.4  12.1  34266  291.38 0854.51
2009/04/23 13:14:07.9     477    313    172    571    597  56.7  16.8  34244  291.00 0854.51
2009/04/23 13:14:08.0     398    105    128    412    432  75.2  17.3  34262  291.29 0854.51
2009/04/23 13:14:08.1     435    227     46    491    494  62.4   5.4  34254  291.17 0854.51
2009/04/23 13:14:08.2     443    317    -12    546    547  54.4  -1.3  34240  290.92 0854.51
2009/04/23 13:14:08.3     426    334    162    542    566  51.9  16.7  34250  291.11 0854.51
2009/04/23 13:14:08.4     552    228    288    598    663  67.6  27.7  34266  291.37 0854.51
2009/04/23 13:14:08.5     527    157    230    550    596  73.4  24.1  34298  291.90 0854.51
2009/04/23 13:14:08.6     593    -23    208    594    630  92.2  19.3  34306  292.05 0854.51
2009/04/23 13:14:08.7     672     83    184    678    703  82.9  15.2  34278  291.57 0854.51
2009/04/23 13:14:08.8     608     89    196    615    646  81.7  17.7  34274  291.52 0854.51
2009/04/23 13:14:08.9     488    118    187    503    536  76.3  21.3  34258  291.25 0854.51
2009/04/23 13:14:09.0     416    -53     78    420    428  97.4  10.6  34270  291.43 0854.51
2009/04/23 13:14:09.1     445    -33    -17    447    448  94.3  -2.2  34268  291.41 0854.51
2009/04/23 13:14:09.2     323     24      4    324    325  85.7   0.8  34270  291.44 0854.51
2009/04/23 13:14:09.3     207    -84    131    224    259 112.2  32.9  34310  292.13 0854.51
2009/04/23 13:14:09.4     194   -222     96    296    312 138.8  17.9  34294  291.84 0854.51
2009/04/23 13:14:09.5     240   -197    156    311    347 129.5  28.5  34296  291.88 0854.51
2009/04/23 13:14:09.6     276   -202    219    343    406 126.3  35.6  34308  292.10 0854.51
2009/04/23 13:14:09.7     115   -383    123    400    419 163.2  17.2  34330  292.47 0854.51
2009/04/23 13:14:09.8     -82   -404    154    413    440 191.5  21.3  34312  292.16 0854.51
2009/04/23 13:14:09.9    -180   -473    297    507    587 200.8  33.0  34296  291.88 0854.51
2009/04/23 13:14:10.0     -27   -590    139    591    608 182.7  13.2  34260  291.26 0854.51
2009/04/23 13:14:10.1     243   -408    175    475    506 149.2  21.0  34292  291.81 0854.51
2009/04/23 13:14:10.2      99   -409    184    421    459 166.3  25.2  34240  290.94 0854.51
2009/04/23 13:14:10.3     121   -376    175    396    432 162.1  25.2  34232  290.78 0854.51
2009/04/23 13:14:10.4     108   -466    253    479    541 166.9  30.2  34226  290.70 0854.52
2009/04/23 13:14:10.5     -28   -412    210    413    463 183.9  29.1  34284  291.69 0854.52
2009/04/23 13:14:10.6     -25   -372    187    373    417 183.9  28.6  34232  290.78 0854.52
2009/04/23 13:14:10.7      18   -351    232    352    421 177.0  36.5  34230  290.76 0854.52
2009/04/23 13:14:10.8      -8   -245    178    246    303 182.0  39.7  34226  290.70 0854.52
2009/04/23 13:14:10.9      82   -299    230    311    386 164.6  40.0  34224  290.66 0854.52
2009/04/23 13:14:11.0    -115   -421    249    437    502 195.3  32.3  34242  290.98 0854.52
2009/04/23 13:14:11.1      16   -435    224    436    490 177.9  29.3  34230  290.76 0854.52
2009/04/23 13:14:11.2      43   -395    211    398    450 173.8  30.2  34226  290.70 0854.52
2009/04/23 13:14:11.3      -6   -354    181    355    398 181.1  29.2  34222  290.64 0854.52
2009/04/23 13:14:11.4      64   -317    162    324    362 168.5  28.6  34222  290.62 0854.52
2009/04/23 13:14:11.5      54   -370    190    374    419 171.7  29.1  34222  290.61 0854.52
2009/04/23 13:14:11.6      -6   -433    206    434    480 180.9  27.3  34222  290.61 0854.52
2009/04/23 13:14:11.7      21   -328    178    329    374 176.3  30.8  34222  290.64 0854.52
2009/04/23 13:14:11.8     207   -205    199    292    353 134.8  37.6  34222  290.64 0854.52
2009/04/23 13:14:11.9     231   -247    191    339    389 137.0  31.9  34222  290.64 0854.52
2009/04/23 13:14:12.0     227   -209    159    309    347 132.7  29.4  34220  290.59 0854.52
2009/04/23 13:14:12.1     131   -380    134    403    426 161.0  18.5  34222  290.63 0854.52
2009/04/23 13:14:12.2      27   -450    181    451    485 176.5  23.1  34220  290.59 0854.52
2009/04/23 13:14:12.3      67   -342    181    349    393 168.8  29.5  34224  290.66 0854.52
2009/04/23 13:14:12.4     111   -291    221    312    382 159.0  39.0  34234  290.83 0854.52
2009/04/23 13:14:12.5     174   -310     83    356    366 150.7  13.2  34232  290.79 0854.52
2009/04/23 13:14:12.6     260   -270     10    375    376 136.1   1.6  34228  290.72 0854.52
2009/04/23 13:14:12.7     123   -352    -53    373    377 160.7  -8.2  34228  290.71 0854.52
2009/04/23 13:14:12.8     206   -371    -53    425    429 151.0  -7.2  34222  290.63 0854.52
2009/04/23 13:14:12.9     121   -359    -60    380    385 161.3  -9.1  34220  290.59 0854.52
2009/04/23 13:14:13.0      50   -308     17    313    314 170.7   3.3  34218  290.56 0854.52
2009/04/23 13:14:13.1      73   -273     77    283    294 164.9  15.3  34224  290.65 0854.52
2009/04/23 13:14:13.2     151   -240    167    284    329 147.7  33.3  34224  290.66 0854.52
2009/04/23 13:14:13.3     361   -120    154    381    410 108.5  23.1  34224  290.67 0854.52
2009/04/23 13:14:13.4     350    -71    -37    358    360 101.5  -6.0  34226  290.69 0854.52
2009/04/23 13:14:13.5     200   -135    -68    242    251 124.0 -20.7  34224  290.66 0854.52
2009/04/23 13:14:13.6     348    -87     17    359    360 104.2   2.8  34224  290.67 0854.52
2009/04/23 13:14:13.7     296   -157     54    336    341 117.9   9.2  34224  290.66 0854.52
2009/04/23 13:14:13.8     193   -206    143    283    317 136.8  28.9  34226  290.68 0854.52
2009/04/23 13:14:13.9     185   -209    197    280    342 138.6  38.6  34218  290.54 0854.52
2009/04/23 13:14:14.0     163   -157    127    227    260 134.0  31.4  34222  290.61 0854.52
2009/04/23 13:14:14.1     130   -203     29    242    244 147.4   6.9  34220  290.59 0854.52
2009/04/23 13:14:14.2     124   -168    -34    210    213 143.5  -9.4  34220  290.58 0854.52
2009/04/23 13:14:14.3     122   -268     -2    295    296 155.5  -0.5  34214  290.48 0854.52
2009/04/23 13:14:14.4     126   -227      3    260    261 151.0   0.7  34210  290.41 0854.52
2009/04/23 13:14:14.5     174   -216    100    278    295 141.0  20.9  34206  290.34 0854.52
2009/04/23 13:14:14.6     119   -333     83    354    364 160.2  13.3  34212  290.47 0854.52
2009/04/23 13:14:14.7     118   -337     36    358    360 160.7   5.8  34212  290.47 0854.52
2009/04/23 13:14:14.8      91   -297     56    311    317 163.0  10.3  34210  290.41 0854.52
2009/04/23 13:14:14.9     147   -230     80    274    286 147.4  16.3  34214  290.49 0854.52
2009/04/23 13:14:15.0     159   -209     67    263    272 142.8  14.3  34214  290.49 0854.52
2009/04/23 13:14:15.1      88   -266     55    281    287 161.5  11.1  34212  290.46 0854.52
2009/04/23 13:14:15.2     117   -218    112    248    272 151.7  26.2  34210  290.42 0854.52
2009/04/23 13:14:15.3     145   -228    125    271    298 147.5  26.6  34202  290.29 0854.52
2009/04/23 13:14:15.4      95   -232    118    251    277 157.7  27.1  34204  290.31 0854.50
2009/04/23 13:14:15.5     105   -217    122    242    271 154.1  28.5  34200  290.24 0854.50
2009/04/23 13:14:15.6      70   -180    143    194    241 158.8  40.1  34200  290.26 0854.50
2009/04/23 13:14:15.7     115   -159    158    197    252 144.2  42.8  34208  290.37 0854.50
2009/04/23 13:14:15.8     116   -115    146    164    219 134.9  46.4  34204  290.33 0854.50
2009/04/23 13:14:15.9     106   -167     94    199    220 147.5  27.1  34198  290.23 0854.50
2009/04/23 13:14:16.0     152   -151     84    215    230 134.7  22.5  34206  290.36 0854.50
2009/04/23 13:14:16.1     116   -140    102    182    208 140.4  31.6  34198  290.23 0854.50
2009/04/23 13:14:16.2      16   -114    153    116    192 172.0  59.0  34210  290.41 0854.50
2009/04/23 13:14:16.3      61    -54    114     82    140 131.8  60.6  34208  290.38 0854.50
2009/04/23 13:14:16.4      40    -27    102     49    113 124.2  72.9  34210  290.41 0854.50
2009/04/23 13:14:16.5     -13    -14     81     20     83 223.2  86.4  34214  290.48 0854.50
2009/04/23 13:14:16.6      -4    -85     70     86    110 183.1  43.7  34208  290.38 0854.50
2009/04/23 13:14:16.7       0    -42     90     43     99 180.9  72.9  34214  290.48 0854.50
2009/04/23 13:14:16.8       6    -16     68     18     70 158.2  84.9  34216  290.53 0854.50
2009/04/23 13:14:16.9       2     33     32     34     46   4.5  50.0  34222  290.64 0854.50
2009/04/23 13:14:17.0      20    -12     40     24     46 122.4  65.7  34222  290.62 0854.50
2009/04/23 13:14:17.1     -48     19     27     52     58 291.7  29.3  34224  290.65 0854.50
2009/04/23 13:14:17.2     -78     15      9     80     81 281.0   6.5  34218  290.57 0854.50
2009/04/23 13:14:17.3     -94     50     43    107    115 298.0  23.0  34222  290.62 0854.50
2009/04/23 13:14:17.4     -84     42     45     95    105 296.6  27.2  34224  290.65 0854.52
2009/04/23 13:14:17.5     -82     31     37     88     95 290.8  24.1  34224  290.65 0854.52
2009/04/23 13:14:17.6      18     30      1     36     37  30.7   2.9  34222  290.64 0854.52
2009/04/23 13:14:17.7      23     45     30     51     59  27.2  34.4  34228  290.74 0854.52
2009/04/23 13:14:17.8      31     27     75     42     85  49.6  68.3  34262  291.32 0854.52
2009/04/23 13:14:17.9      27     77     62     82    102  20.0  41.2  34328  292.44 0854.52
2009/04/23 13:14:18.0      55    115     95    128    159  25.5  40.4  34354  292.86 0854.52
2009/04/23 13:14:18.2      25    116     66    119    136  12.5  31.4  34334  292.54 0854.52
2009/04/23 13:14:18.3      73    165     82    181    198  23.8  25.9  34334  292.54 0854.52
2009/04/23 13:14:18.4     122    134     30    182    185  42.3   9.3  34332  292.49 0854.52
2009/04/23 13:14:18.5     132     67     60    149    160  63.0  23.0  34332  292.49 0854.52
2009/04/23 13:14:18.6     141     39     74    147    164  74.5  28.7  34330  292.47 0854.52
2009/04/23 13:14:18.7     168     63    115    180    213  69.4  35.6  34304  292.01 0854.52
2009/04/23 13:14:18.8     171     31     37    174    179  79.4  12.2  34310  292.13 0854.52
2009/04/23 13:14:18.9     153     -2     19    154    156  90.9   7.2  34280  291.60 0854.52
2009/04/23 13:14:19.0     109     50     72    121    140  65.2  33.5  34282  291.66 0854.52
2009/04/23 13:14:19.1      78     85     25    116    119  42.3  12.6  34288  291.74 0854.52
2009/04/23 13:14:19.2     155     43     10    162    163  74.3   3.6  34282  291.66 0854.52
2009/04/23 13:14:19.3     111     31      9    116    117  74.1   4.9  34280  291.62 0854.52
2009/04/23 13:14:19.4      74    -13     -4     76     77 100.6  -3.1  34282  291.64 0854.52
2009/04/23 13:14:19.5      75      1    -20     76     79  89.2 -15.4  34284  291.67 0854.52
2009/04/23 13:14:19.6     101     20     81    104    131  78.5  41.7  34300  291.96 0854.52
2009/04/23 13:14:19.7     153     36     89    158    181  76.8  31.6  34310  292.13 0854.52
2009/04/23 13:14:19.8     142     46     55    150    159  71.8  20.7  34316  292.23 0854.52
2009/04/23 13:14:19.9     104     81     50    132    141  52.2  22.0  34318  292.27 0854.52
2009/04/23 13:14:20.0      94     68     68    117    135  54.1  33.4  34330  292.47 0854.52
2009/04/23 13:14:20.1     107     42    131    116    174  68.3  54.0  34322  292.32 0854.52
2009/04/23 13:14:20.2     147    -20    217    149    263  97.9  62.6  34274  291.52 0854.52
2009/04/23 13:14:20.3     203     29    147    206    253  81.6  38.8  34322  292.33 0854.52
2009/04/23 13:14:20.4     157     50    115    165    201  72.3  38.4  34320  292.30 0854.52
2009/04/23 13:14:20.5     109     34     90    115    146  72.3  41.7  34324  292.37 0854.52
2009/04/23 13:14:20.6     -35      7     57     36     67 281.5  64.7  34312  292.17 0854.52
2009/04/23 13:14:20.7     -17     20    107     27    110 318.6  85.9  34306  292.05 0854.52
2009/04/23 13:14:20.8    -150   -105     99    184    208 234.9  30.6  34318  292.25 0854.52
2009/04/23 13:14:20.9     -67   -115    152    134    202 210.3  54.0  34246  291.04 0854.52
2009/04/23 13:14:21.0     -44   -111    175    120    212 201.8  62.6  34242  290.96 0854.52
2009/04/23 13:14:21.1     -33   -309    128    311    336 186.2  23.6  34232  290.79 0854.52
2009/04/23 13:14:21.2     -73   -413    202    420    466 190.1  27.3  34220  290.58 0854.52
2009/04/23 13:14:21.3    -102   -429    158    442    469 193.4  20.4  34212  290.46 0854.52
2009/04/23 13:14:21.4    -132   -347     79    372    381 200.8  12.0  34216  290.52 0854.52
2009/04/23 13:14:21.5    -115   -258    109    283    303 204.1  22.3  34212  290.46 0854.52
2009/04/23 13:14:21.6    -146   -240    129    282    310 211.4  26.4  34202  290.29 0854.52
2009/04/23 13:14:21.7      -3   -224    148    225    269 180.9  36.5  34212  290.44 0854.52
2009/04/23 13:14:21.8     -73   -267    102    278    296 195.4  21.0  34216  290.51 0854.52
2009/04/23 13:14:21.9      10   -166     40    167    172 176.4  13.7  34214  290.50 0854.52
2009/04/23 13:14:22.0      81   -127     52    151    160 147.4  19.2  34212  290.47 0854.52
2009/04/23 13:14:22.1     113    -51     68    125    142 114.4  31.3  34214  290.48 0854.52
2009/04/23 13:14:22.2     118    -23     50    121    130 101.4  23.6  34222  290.62 0854.52
2009/04/23 13:14:22.3      92    -25     44     96    105 105.5  26.6  34222  290.64 0854.52
2009/04/23 13:14:22.4      68    -58     37     90     97 130.9  23.0  34220  290.60 0854.52
2009/04/23 13:14:22.5      19    -80     36     83     90 166.6  25.1  34218  290.57 0854.52
2009/04/23 13:14:22.6      21    -64     36     68     76 161.7  30.3  34224  290.65 0854.52
2009/04/23 13:14:22.7      10   -135     32    136    140 175.5  13.2  34226  290.70 0854.52
2009/04/23 13:14:22.8     -33   -183     29    186    189 190.2   9.0  34230  290.77 0854.52
2009/04/23 13:14:22.9     -10   -174    -13    175    176 183.4  -4.4  34236  290.86 0854.52
2009/04/23 13:14:23.0      29   -145    -40    148    154 168.5 -15.2  34234  290.84 0854.52
2009/04/23 13:14:23.1      27   -134    -54    137    147 168.4 -27.4  34232  290.81 0854.52
2009/04/23 13:14:23.2      32   -133     -1    137    138 166.2  -0.7  34232  290.81 0854.52
2009/04/23 13:14:23.3     -49   -136    -46    145    153 200.0 -17.6  34220  290.60 0854.52
2009/04/23 13:14:23.4    -104   -220    -29    244    246 205.4  -6.9  34222  290.61 0854.52
2009/04/23 13:14:23.5     -73   -260   -101    271    289 195.8 -25.4  34220  290.59 0854.53
2009/04/23 13:14:23.6     -13   -279    -66    280    288 182.7 -13.4  34222  290.61 0854.53
2009/04/23 13:14:23.7     -56   -289    -95    295    309 191.1 -23.3  34224  290.66 0854.53
2009/04/23 13:14:23.8    -359   -265   -124    447    463 233.6 -20.1  34232  290.78 0854.53
2009/04/23 13:14:23.9    -287   -100   -132    305    332 250.7 -29.3  34224  290.66 0854.53
2009/04/23 13:14:24.0    -188     13   -180    189    261 274.1 -52.9  34224  290.66 0854.53
2009/04/23 13:14:24.1    -177   -176    -59    250    257 225.1 -13.4  34226  290.68 0854.53
2009/04/23 13:14:24.2    -282    -57    -90    288    302 258.6 -17.5  34226  290.68 0854.53
2009/04/23 13:14:24.3    -116   -254     -8    280    281 204.5  -1.8  34226  290.68 0854.53
2009/04/23 13:14:24.4    -233   -276    -73    362    370 220.1 -11.5  34220  290.60 0854.53
2009/04/23 13:14:24.5    -210   -168     60    270    277 231.4  12.6  34232  290.78 0854.53
2009/04/23 13:14:24.6    -291   -343     98    450    461 220.3  12.4  34238  290.90 0854.53
2009/04/23 13:14:24.7    -328   -309      0    451    452 226.7   0.0  34226  290.68 0854.53
2009/04/23 13:14:24.8       7   -245     63    246    255 178.2  14.5  34234  290.83 0854.53
2009/04/23 13:14:24.9     121   -276    177    302    350 156.3  33.1  34238  290.89 0854.53
2009/04/23 13:14:25.0      -9   -294     75    295    305 181.8  14.3  34216  290.53 0854.53
2009/04/23 13:14:25.1      54   -358   -127    363    385 171.3 -19.4  34218  290.55 0854.53
2009/04/23 13:14:25.2     185   -412    -82    452    460 155.8 -10.3  34204  290.33 0854.53
2009/04/23 13:14:25.3     198   -361    -38    412    414 151.2  -5.3  34210  290.43 0854.53
2009/04/23 13:14:25.4     148   -401     61    428    433 159.7   8.2  34210  290.43 0854.53
2009/04/23 13:14:25.5     105   -289     37    308    311 159.9   6.9  34214  290.49 0854.52
2009/04/23 13:14:25.6     119   -336    -13    357    358 160.5  -2.2  34216  290.52 0854.52
2009/04/23 13:14:25.7     104   -301     32    319    321 160.8   5.8  34208  290.37 0854.52
2009/04/23 13:14:25.8     -52   -248     27    254    256 192.0   6.1  34212  290.46 0854.52
2009/04/23 13:14:25.9      36   -272     95    275    292 172.4  19.2  34214  290.49 0854.52
2009/04/23 13:14:26.0      35   -286     44    289    293 172.9   8.8  34210  290.41 0854.52
2009/04/23 13:14:26.1      37   -263     18    266    267 172.0   3.9  34214  290.49 0854.52
2009/04/23 13:14:26.2      95   -258     43    276    280 159.7   8.9  34214  290.48 0854.52
2009/04/23 13:14:26.3      42   -296     46    300    304 171.8   8.8  34214  290.49 0854.52
2009/04/23 13:14:26.4      -4   -298    100    299    316 180.9  18.6  34208  290.39 0854.52
2009/04/23 13:14:26.5      19   -254     18    255    256 175.5   4.2  34210  290.41 0854.52
2009/04/23 13:14:26.6       0   -302     35    303    306 179.9   6.7  34210  290.42 0854.52
2009/04/23 13:14:26.7     -41   -280     14    284    285 188.5   2.9  34214  290.48 0854.52
2009/04/23 13:14:26.8      33   -281     72    284    294 173.1  14.3  34214  290.48 0854.52
2009/04/23 13:14:26.9      80   -317    106    328    345 165.7  17.9  34212  290.45 0854.52
2009/04/23 13:14:27.0      86   -301     58    314    320 164.0  10.6  34216  290.53 0854.52
2009/04/23 13:14:27.1      73   -271     26    281    283 164.9   5.4  34220  290.58 0854.52
2009/04/23 13:14:27.2      77   -250    -12    262    263 162.8  -2.8  34218  290.54 0854.52
2009/04/23 13:14:27.3     -17   -199     39    200    204 185.1  11.1  34216  290.52 0854.52
2009/04/23 13:14:27.4      88   -464    -28    473    474 169.2  -3.5  34216  290.52 0854.52
2009/04/23 13:14:27.5     -17   -369   -103    370    384 182.7 -20.1  34210  290.43 0854.51
2009/04/23 13:14:27.6     -32   -170     25    174    176 190.7   8.5  34210  290.43 0854.51
2009/04/23 13:14:27.7     122   -171   -101    211    233 144.4 -31.7  34212  290.47 0854.51
2009/04/23 13:14:27.8     -67   -156    -83    170    189 203.4 -31.8  34216  290.52 0854.51
2009/04/23 13:14:27.9     -84    -34    -72     91    116 247.4 -47.1  34216  290.53 0854.51
2009/04/23 13:14:28.0    -287    -55   -111    293    313 259.0 -26.2  34232  290.80 0854.51
2009/04/23 13:14:28.1    -244     30   -100    246    265 277.1 -27.8  34232  290.78 0854.51
2009/04/23 13:14:28.2    -163    -53     -9    172    173 251.8  -3.3  34232  290.81 0854.51
2009/04/23 13:14:28.3    -107    -55    -49    121    130 242.9 -27.5  34236  290.86 0854.51
2009/04/23 13:14:28.4     -86    -16    -21     88     91 259.4 -13.9  34228  290.74 0854.51
2009/04/23 13:14:28.5    -131     11    -73    132    150 275.2 -35.8  34218  290.55 0854.51
2009/04/23 13:14:28.6     -68    -55    -73     88    114 230.9 -48.1  34220  290.58 0854.51
2009/04/23 13:14:28.7     -30    -55    -21     63     67 209.0 -18.7  34224  290.65 0854.51
2009/04/23 13:14:28.8     -15   -130     25    131    134 186.7  11.1  34222  290.62 0854.51
2009/04/23 13:14:28.9      14   -160    108    161    193 174.7  36.7  34230  290.77 0854.51
2009/04/23 13:14:29.0     -20   -260    172    261    312 184.5  36.5  34218  290.56 0854.51
2009/04/23 13:14:29.1      87   -252    133    267    298 160.8  28.5  34218  290.56 0854.51
2009/04/23 13:14:29.2      69   -149     60    165    175 155.1  20.2  34224  290.65 0854.51
2009/04/23 13:14:29.3       4   -139    -17    140    142 178.2  -7.2  34222  290.62 0854.51
2009/04/23 13:14:29.4    -124   -142     -3    189    190 221.0  -1.1  34212  290.45 0854.49
2009/04/23 13:14:29.5    -154   -134     24    205    207 228.9   6.7  34216  290.52 0854.49
2009/04/23 13:14:29.6    -140   -213     -5    256    257 213.4  -1.3  34212  290.44 0854.49
2009/04/23 13:14:29.7    -125   -124    -65    177    188 225.2 -25.4  34212  290.47 0854.49
2009/04/23 13:14:29.8     -67    -75     -2    101    102 221.9  -1.3  34212  290.45 0854.49
2009/04/23 13:14:29.9     -33    -95     14    101    103 199.6   8.0  34210  290.41 0854.49
2009/04/23 13:14:30.0       0   -227     58    228    236 180.0  14.3  34212  290.46 0854.49
2009/04/23 13:14:30.1      17   -236    102    237    258 175.8  24.6  34206  290.36 0854.49
2009/04/23 13:14:30.2     -19   -225     35    226    229 184.9   8.8  34198  290.23 0854.49
2009/04/23 13:14:30.3     -77    -72    -89    106    138 226.8 -48.7  34210  290.43 0854.49
2009/04/23 13:14:30.4     -24    -64    -44     69     81 200.9 -39.9  34208  290.38 0854.49
2009/04/23 13:14:30.5     -47   -176     27    183    186 195.2   8.5  34202  290.30 0854.49
2009/04/23 13:14:30.6     -21   -123    -69    125    142 189.8 -35.8  34206  290.35 0854.49
2009/04/23 13:14:30.7      -8   -189   -131    190    230 182.5 -42.2  34200  290.26 0854.49
2009/04/23 13:14:30.8     -64   -130    -89    146    170 206.3 -38.8  34200  290.26 0854.49
2009/04/23 13:14:30.9      22    -41    -19     47     50 151.9 -27.4  34200  290.26 0854.49
2009/04/23 13:14:31.0     -97   -130    101    163    191 216.7  35.5  34204  290.33 0854.49
2009/04/23 13:14:31.1    -106   -123     91    163    186 220.8  31.4  34200  290.26 0854.49
2009/04/23 13:14:31.2     -88   -172     88    194    213 207.2  26.2  34200  290.25 0854.49
2009/04/23 13:14:31.3    -205   -353     93    409    420 210.2  12.9  34206  290.34 0854.49
2009/04/23 13:14:31.4    -257   -467    193    534    567 208.9  20.7  34198  290.21 0854.50
2009/04/23 13:14:31.5    -279   -478    172    554    581 210.3  17.3  34198  290.22 0854.50
2009/04/23 13:14:31.6    -193   -505    143    541    560 200.9  14.9  34202  290.28 0854.50
2009/04/23 13:14:31.7    -209   -319    -14    382    383 213.2  -2.2  34196  290.18 0854.50
2009/04/23 13:14:31.8    -117   -579    249    591    641 191.5  24.3  34206  290.35 0854.50
2009/04/23 13:14:31.9     -93   -611    239    619    663 188.7  22.2  34208  290.38 0854.50
2009/04/23 13:14:32.0     123   -684    139    696    710 169.8  11.3  34200  290.25 0854.50
2009/04/23 13:14:32.1     107   -680      1    689    690 171.0   0.1  34200  290.24 0854.50
2009/04/23 13:14:32.2     175   -654    195    677    705 165.0  16.1  34198  290.23 0854.50
2009/04/23 13:14:32.3     149   -472    128    496    513 162.4  14.5  34202  290.29 0854.50
2009/04/23 13:14:32.4     118   -581   -217    593    631 168.5 -25.4  34200  290.26 0854.50
2009/04/23 13:14:32.5     272   -513   -274    581    642 152.0 -31.5  34194  290.15 0854.50
2009/04/23 13:14:32.6     332   -546   -189    639    666 148.7 -21.4  34204  290.31 0854.50
2009/04/23 13:14:32.7     415   -442     67    607    611 136.8   6.4  34200  290.24 0854.50
2009/04/23 13:14:32.8     562   -550     82    787    792 134.4   6.0  34198  290.22 0854.50
2009/04/23 13:14:32.9     542   -272    146    607    625 116.7  13.6  34206  290.35 0854.50
2009/04/23 13:14:33.0     537   -166    154    563    584 107.2  15.3  34204  290.32 0854.50
2009/04/23 13:14:33.1     334   -108   -124    351    372 107.9 -24.5  34202  290.30 0854.50
2009/04/23 13:14:33.2     177   -346   -255    389    465 152.8 -40.8  34208  290.38 0854.50
2009/04/23 13:14:33.3     211   -266   -222    340    406 141.5 -40.7  34198  290.23 0854.50
2009/04/23 13:14:33.4     273   -128    -89    302    316 115.1 -16.5  34202  290.27 0854.50
2009/04/23 13:14:33.5     434   -127      0    453    454 106.4   0.1  34206  290.34 0854.50
2009/04/23 13:14:33.6     485   -161     39    512    514 108.4   4.4  34206  290.34 0854.50
2009/04/23 13:14:33.7     375    -54    136    379    402  98.3  20.4  34204  290.32 0854.50
2009/04/23 13:14:33.8     122   -201    199    236    308 148.8  44.1  34196  290.17 0854.50
2009/04/23 13:14:33.9      15   -327      8    328    329 177.2   1.5  34200  290.26 0854.50
2009/04/23 13:14:34.0      84   -287    -43    300    304 163.7  -8.2  34206  290.36 0854.50
2009/04/23 13:14:34.1     -93   -338   -121    351    371 195.5 -24.0  34202  290.28 0854.50
2009/04/23 13:14:34.2    -114   -321   -274    341    437 199.6 -47.2  34206  290.36 0854.50
2009/04/23 13:14:34.3     -97   -430   -176    441    474 192.8 -27.3  34202  290.30 0854.50
2009/04/23 13:14:34.4    -179   -505   -161    537    560 199.6 -21.7  34206  290.35 0854.51
2009/04/23 13:14:34.5    -162   -487   -167    514    541 198.4 -18.1  34208  290.38 0854.51
2009/04/23 13:14:34.6     -31   -398   -168    400    433 184.5 -28.6  34206  290.34 0854.51
2009/04/23 13:14:34.7      20   -421   -177    422    457 177.2 -28.5  34196  290.19 0854.51
2009/04/23 13:14:34.8      81   -417    -33    425    427 169.0  -4.5  34202  290.29 0854.51
2009/04/23 13:14:34.9      38   -429     24    431    432 174.9   3.3  34206  290.34 0854.51
2009/04/23 13:14:35.0    -295   -266    -81    398    407 227.9 -11.5  34206  290.36 0854.51
2009/04/23 13:14:35.1    -371   -413    -95    556    565 221.9  -9.8  34214  290.48 0854.51
2009/04/23 13:14:35.2    -230   -494     22    545    546 205.0   2.3  34220  290.60 0854.51
2009/04/23 13:14:35.3    -270   -421     28    501    502 212.7   3.3  34216  290.51 0854.51
2009/04/23 13:14:35.4    -307   -371    -18    482    483 219.6  -2.2  34210  290.42 0854.51
2009/04/23 13:14:35.5    -232   -330     41    404    407 215.2   5.9  34216  290.53 0854.51
2009/04/23 13:14:35.6    -234   -332     87    407    417 215.2  12.2  34226  290.68 0854.51
2009/04/23 13:14:35.7    -321   -223    -51    392    396 235.2  -7.5  34212  290.47 0854.51
2009/04/23 13:14:35.8    -270   -224    -97    352    365 230.3 -20.1  34210  290.43 0854.51
2009/04/23 13:14:35.9    -140   -451    -65    473    478 197.3  -7.9  34216  290.51 0854.51
2009/04/23 13:14:36.0     -90   -413     21    423    424 192.4   2.9  34212  290.46 0854.51
2009/04/23 13:14:36.1     -67   -157    -53    171    180 203.2 -17.3  34210  290.41 0854.51
2009/04/23 13:14:36.2      97   -172     72    198    210 150.6  20.7  34214  290.48 0854.51
2009/04/23 13:14:36.3      38   -276     85    279    292 172.0  17.1  34216  290.53 0854.51
2009/04/23 13:14:36.4      -4   -288     41    289    293 180.9   8.2  34212  290.46 0854.50
2009/04/23 13:14:36.5      16   -231    -15    232    233 176.0  -3.7  34214  290.49 0854.50
2009/04/23 13:14:36.6      14   -221    -65    222    231 176.4 -21.2  34210  290.43 0854.50
2009/04/23 13:14:36.7      18   -240    -25    241    243 175.5  -6.0  34218  290.54 0854.50
2009/04/23 13:14:36.8      65   -328    -70    335    343 168.7 -11.8  34214  290.49 0854.50
2009/04/23 13:14:36.9      92   -369      5    381    382 166.0   0.8  34214  290.49 0854.50
2009/04/23 13:14:37.0     147   -373     26    402    403 158.4   3.8  34218  290.54 0854.50
2009/04/23 13:14:37.1      79   -294    -60    305    311 164.8 -11.2  34210  290.41 0854.50
2009/04/23 13:14:37.2     142   -156     -8    212    213 137.7  -2.2  34210  290.41 0854.50
2009/04/23 13:14:37.3      92    -94    -38    132    138 135.5 -16.0  34212  290.45 0854.50
2009/04/23 13:14:37.4     115   -180    -27    214    216 147.3  -7.3  34214  290.50 0854.50
2009/04/23 13:14:37.5      26   -135    -17    138    140 168.9  -7.2  34208  290.40 0854.50
2009/04/23 13:14:37.6      22   -158    -24    160    162 171.8  -8.8  34210  290.41 0854.50
2009/04/23 13:14:37.7      15   -155    -62    156    167 174.2 -27.2  34210  290.41 0854.50
2009/04/23 13:14:37.8      58    -39   -116     71    136 124.2 -69.5  34212  290.47 0854.50
2009/04/23 13:14:37.9      58    -19    -65     62     89 108.4 -55.6  34212  290.45 0854.50
2009/04/23 13:14:38.0      19    -80     33     83     89 166.6  22.5  34212  290.47 0854.50
2009/04/23 13:14:38.1     144   -177     65    229    239 141.0  15.8  34212  290.46 0854.50
2009/04/23 13:14:38.2     259   -122    127    287    313 115.3  25.6  34214  290.48 0854.50
2009/04/23 13:14:38.3     307   -165    117    349    369 118.2  18.6  34212  290.45 0854.50
2009/04/23 13:14:38.4     241    -89    167    258    307 110.4  35.6  34216  290.53 0854.50
2009/04/23 13:14:38.5     157    -61    164    169    235 111.3  49.2  34218  290.57 0854.50
2009/04/23 13:14:38.6     115    -74    163    138    213 122.9  55.8  34222  290.62 0854.50
2009/04/23 13:14:38.7      89    -46    124    101    159 117.1  56.9  34222  290.62 0854.50
2009/04/23 13:14:38.8     107    -35     95    113    147 108.6  43.8  34218  290.55 0854.50
2009/04/23 13:14:38.9      74    -15     65     76    100 101.5  44.8  34218  290.57 0854.50
2009/04/23 13:14:39.0     -52    -52    116     74    137 225.1  64.6  34222  290.64 0854.50
2009/04/23 13:14:39.1      48     31    132     58    144  57.5  74.9  34226  290.70 0854.50
2009/04/23 13:14:39.2     169     44    125    175    215  75.2  39.5  34220  290.60 0854.50
2009/04/23 13:14:39.3      86     58    128    104    164  55.8  56.9  34224  290.65 0854.50
2009/04/23 13:14:39.4     133     31    138    137    194  76.7  49.7  34224  290.67 0854.50
2009/04/23 13:14:39.5      78     58    105     98    143  53.6  52.1  34230  290.75 0854.50
2009/04/23 13:14:39.6      48     45    115     67    133  46.8  66.8  34230  290.77 0854.50
2009/04/23 13:14:39.7     133     38    154    139    207  74.1  53.5  34222  290.64 0854.50
2009/04/23 13:14:39.8      60      0    110     61    125  90.8  68.8  34230  290.77 0854.50
2009/04/23 13:14:39.9       8     11     39     14     41  36.1  80.2  34228  290.72 0854.50
2009/04/23 13:14:40.0     108     71     98    130    162  56.7  40.7  34218  290.55 0854.50
2009/04/23 13:14:40.1     161     86    100    183    208  61.8  31.0  34214  290.50 0854.50
2009/04/23 13:14:40.2     161     44    107    167    198  74.7  35.6  34216  290.52 0854.50
2009/04/23 13:14:40.3      51     81    -32     96    102  32.1 -18.7  34218  290.57 0854.50
2009/04/23 13:14:40.4      83    -53    -64     99    117 122.4 -40.0  34218  290.57 0854.50
2009/04/23 13:14:40.5     -28    -78    -79     84    115 200.0 -52.4  34218  290.57 0854.50
2009/04/23 13:14:40.6     -38    -45   -134     60    146 220.5 -78.4  34222  290.64 0854.50
2009/04/23 13:14:40.7      85   -140   -168    165    235 148.6 -54.8  34220  290.58 0854.50
2009/04/23 13:14:40.8     135   -199   -149    241    283 145.7 -39.2  34214  290.48 0854.50
2009/04/23 13:14:40.9     244   -217    -66    327    334 131.6 -11.5  34218  290.54 0854.50
2009/04/23 13:14:41.0     265   -152     38    306    309 119.8   7.1  34218  290.54 0854.50
2009/04/23 13:14:41.1     326   -138    130    355    378 113.0  21.0  34220  290.59 0854.50
2009/04/23 13:14:41.2      58   -134    227    147    270 156.4  64.6  34222  290.61 0854.50
2009/04/23 13:14:41.3     109     35    192    115    223  71.8  66.4  34224  290.67 0854.50
2009/04/23 13:14:41.4      36     50    159     62    170  36.1  77.8  34232  290.79 0854.50
2009/04/23 13:14:41.5     -24   -117    169    120    207 191.6  61.3  34218  290.55 0854.50
2009/04/23 13:14:41.6     -39    -90    135     99    167 203.6  60.3  34222  290.62 0854.50
2009/04/23 13:14:41.7    -116   -165    201    202    284 215.2  50.0  34218  290.56 0854.50
2009/04/23 13:14:41.8    -186    -59    202    196    281 252.3  50.9  34226  290.70 0854.50
2009/04/23 13:14:41.9    -197    -44    180    203    271 257.2  46.2  34234  290.83 0854.50
2009/04/23 13:14:42.0    -234     60    187    242    305 284.4  41.7  34232  290.80 0854.50
2009/04/23 13:14:42.1      41     26    193     49    199  57.6  85.6  34236  290.87 0854.50
2009/04/23 13:14:42.2     -41     45    144     62    156 317.7  75.3  34230  290.75 0854.50
2009/04/23 13:14:42.3      10    229    168    230    284   2.7  39.7  34222  290.61 0854.50
2009/04/23 13:14:42.4    -135    363    136    388    412 339.5  19.3  34218  290.55 0854.49
2009/04/23 13:14:42.5     -69    340    -69    348    355 348.4 -11.3  34218  290.57 0854.49
2009/04/23 13:14:42.6      68    428    -68    434    440   9.1  -9.0  34216  290.53 0854.49
2009/04/23 13:14:42.7     106    480    -64    492    497  12.5  -7.5  34228  290.74 0854.49
2009/04/23 13:14:42.8     116    449    -41    464    466  14.5  -5.1  34234  290.83 0854.49
2009/04/23 13:14:42.9      -7    476    -46    477    480 359.1  -5.6  34236  290.85 0854.49
2009/04/23 13:14:43.0      -8    423    -54    424    428 358.9  -7.3  34238  290.90 0854.49
2009/04/23 13:14:43.1     -43    351    -88    354    365 352.9 -14.1  34238  290.91 0854.49
2009/04/23 13:14:43.2      80    392    -22    401    402  11.6  -3.2  34240  290.93 0854.49
2009/04/23 13:14:43.3      83    376     19    386    387  12.5   2.9  34224  290.67 0854.49
2009/04/23 13:14:43.4     143    448     84    471    479  17.7  10.1  34232  290.81 0854.49
2009/04/23 13:14:43.5     327    395     28    513    514  39.6   3.1  34228  290.71 0854.49
2009/04/23 13:14:43.6     328    429      2    541    542  37.4   0.2  34238  290.91 0854.49
2009/04/23 13:14:43.7     260    313     68    408    414  39.7   9.5  34228  290.72 0854.49
2009/04/23 13:14:43.8     203    337      4    394    395  31.0   0.7  34242  290.98 0854.49
2009/04/23 13:14:43.9     195    339      1    392    393  29.9   0.2  34252  291.13 0854.49
2009/04/23 13:14:44.0     205    313    -30    375    377  33.2  -4.6  34254  291.18 0854.49
2009/04/23 13:14:44.1     172    319     15    363    364  28.3   2.5  34270  291.44 0854.49
2009/04/23 13:14:44.2     144    261    -11    299    300  28.9  -2.2  34268  291.41 0854.49
2009/04/23 13:14:44.3     219    175    -37    281    284  51.4  -7.7  34260  291.26 0854.49
2009/04/23 13:14:44.4     310    282     32    420    422  47.7   4.4  34248  291.06 0854.50
2009/04/23 13:14:44.5     313    274    113    417    433  48.8  15.2  34248  291.06 0854.50
2009/04/23 13:14:44.6     311     43    -16    314    315  82.1  -3.0  34248  291.05 0854.50
2009/04/23 13:14:44.7     289    105    -85    308    320  70.0 -15.5  34246  291.04 0854.50
2009/04/23 13:14:44.8     252    144    -16    291    292  60.3  -3.2  34242  290.95 0854.50
2009/04/23 13:14:44.9     246     59    241    254    350  76.5  48.5  34246  291.02 0854.50
2009/04/23 13:14:45.0     237     33    167    240    292  81.9  38.0  34236  290.87 0854.50
2009/04/23 13:14:45.1     305     74    145    314    345  76.3  26.6  34242  290.98 0854.50
2009/04/23 13:14:45.2     326    -38    153    329    362  96.8  27.0  34232  290.79 0854.50
2009/04/23 13:14:45.3     367   -105    104    382    397 106.1  15.3  34236  290.86 0854.50
2009/04/23 13:14:45.5     465     88    185    474    508  79.2  22.5  34228  290.73 0854.50
2009/04/23 13:14:45.5     213    163     87    269    283  52.7  17.9  34238  290.88 0854.50
2009/04/23 13:14:45.7     231    173     23    289    290  53.1   4.6  34232  290.78 0854.50
2009/04/23 13:14:45.8     399    174     45    436    439  66.4   6.0  34234  290.82 0854.50
2009/04/23 13:14:45.9     330    216    123    395    414  56.8  17.3  34248  291.06 0854.50
2009/04/23 13:14:46.0      63    388     47    394    397   9.2   6.9  34256  291.20 0854.50
2009/04/23 13:14:46.1       0    223    117    224    252   0.2  29.8  34256  291.21 0854.50
2009/04/23 13:14:46.2      23    297    126    298    323   4.5  24.5  34274  291.51 0854.50
2009/04/23 13:14:46.3     -73    272    121    282    306 344.9  24.9  34284  291.67 0854.50
2009/04/23 13:14:46.4     -58    316     14    322    323 349.5   2.5  34308  292.09 0854.50
2009/04/23 13:14:46.5     -33    307     92    309    323 353.8  16.6  34300  291.96 0854.52
2009/04/23 13:14:46.6    -137    248    139    284    316 331.0  28.0  34282  291.63 0854.52
2009/04/23 13:14:46.7     -67    227    157    237    284 343.5  36.7  34278  291.58 0854.52
2009/04/23 13:14:46.8    -124    195    178    232    292 327.5  41.4  34300  291.94 0854.52
2009/04/23 13:14:46.9       0    272    198    273    337 359.9  39.5  34268  291.41 0854.52
2009/04/23 13:14:47.0      25    321    210    323    385   4.5  35.9  34298  291.90 0854.52
2009/04/23 13:14:47.1      10    323    213    324    387   1.8  36.3  34314  292.20 0854.52
2009/04/23 13:14:47.2      68    417    201    423    468   9.4  27.3  34324  292.37 0854.52
2009/04/23 13:14:47.3      45    418    166    421    452   6.2  22.9  34288  291.75 0854.52
2009/04/23 13:14:47.4      34    476    215    478    524   4.1  25.8  34298  291.92 0854.52
2009/04/23 13:14:47.5     -46    387    171    390    425 353.2  25.2  34264  291.35 0854.52
2009/04/23 13:14:47.6      23    489     73    490    496   2.8   8.5  34288  291.75 0854.52
2009/04/23 13:14:47.7     -16    531     94    532    541 358.2  10.1  34216  290.53 0854.52
2009/04/23 13:14:47.8     -11    532     55    533    536 358.8   5.9  34228  290.74 0854.52
2009/04/23 13:14:47.9     -49    578     60    581    585 355.1   6.0  34212  290.44 0854.52
2009/04/23 13:14:48.0      -1    560     10    561    562 359.9   1.1  34214  290.50 0854.52
2009/04/23 13:14:48.1       1    585     60    586    590   0.1   5.9  34214  290.49 0854.52
2009/04/23 13:14:48.2     -37    550     35    552    554 356.1   3.6  34204  290.31 0854.52
2009/04/23 13:14:48.3      17    450     43    451    454   2.3   5.5  34202  290.29 0854.52
2009/04/23 13:14:48.4       0    436     68    437    443 359.9   8.9  34200  290.26 0854.52
2009/04/23 13:14:48.5      -8    402     35    403    405 358.8   5.0  34222  290.61 0854.52
2009/04/23 13:14:48.6     -10    369     57    370    375 358.4   8.8  34210  290.43 0854.52
2009/04/23 13:14:48.7     -96    437    157    448    475 347.5  19.4  34222  290.61 0854.52
2009/04/23 13:14:48.8    -131    387    112    409    425 341.2  15.3  34204  290.31 0854.52
2009/04/23 13:14:48.9      -6    370    222    371    432 359.0  33.5  34262  291.29 0854.52
2009/04/23 13:14:49.0     -60    430     76    435    442 352.0  10.0  34264  291.33 0854.52
2009/04/23 13:14:49.1       0    305     26    306    308 359.9   4.9  34272  291.48 0854.52
2009/04/23 13:14:49.2      34    105    -39    111    117  18.3 -24.4  34268  291.42 0854.52
2009/04/23 13:14:49.3     -31     65    -77     73    106 334.7 -56.0  34240  290.92 0854.52
2009/04/23 13:14:49.4       8     35    -79     37     87  13.4 -77.9  34252  291.15 0854.52
2009/04/23 13:14:49.5     168    -29    -82    171    189  99.9 -31.7  34314  292.18 0854.52
2009/04/23 13:14:49.6      78    -25    -43     83     93 108.2 -33.7  34298  291.93 0854.52
2009/04/23 13:14:49.7      31     -7      1     32     33 103.3   2.9  34300  291.95 0854.52
2009/04/23 13:14:49.8      22    112     55    115    127  11.5  27.2  34306  292.06 0854.52
2009/04/23 13:14:49.9      93     18    107     95    143  78.5  53.7  34310  292.13 0854.52
2009/04/23 13:14:50.0     234      3    131    235    269  89.1  31.4  34300  291.96 0854.52
2009/04/23 13:14:50.1     284     21    202    285    349  85.6  38.7  34290  291.79 0854.52
2009/04/23 13:14:50.2     184    -55    110    193    222 106.8  32.1  34290  291.77 0854.52
2009/04/23 13:14:50.3      72     18    -18     75     78  75.8 -13.4  34296  291.88 0854.52
2009/04/23 13:14:50.4     -15     53    -10     56     57 344.0 -10.3  34300  291.95 0854.52
2009/04/23 13:14:50.5     -59    -72    -12     94     95 219.6  -7.3  34296  291.88 0854.51
2009/04/23 13:14:50.6    -153     21     23    155    157 277.9   8.5  34296  291.88 0854.51
2009/04/23 13:14:50.7    -116   -126     10    172    173 222.8   3.6  34294  291.86 0854.51
2009/04/23 13:14:50.8    -133    -22     -5    135    136 260.3  -2.2  34284  291.69 0854.51
2009/04/23 13:14:50.9    -107   -123    -55    164    172 221.0 -23.6  34278  291.57 0854.51
2009/04/23 13:14:51.0     -37   -147    -97    152    180 194.3 -39.9  34282  291.64 0854.51
2009/04/23 13:14:51.1     -28    -35   -105     46    114 218.7 -79.4  34280  291.62 0854.51
2009/04/23 13:14:51.2      47   -128    -76    137    156 159.9 -36.0  34270  291.45 0854.51
2009/04/23 13:14:51.3     -53    -92     20    107    109 209.9  11.0  34276  291.55 0854.51
2009/04/23 13:14:51.4     -45    -87     68     99    120 207.6  37.6  34272  291.47 0854.51
2009/04/23 13:14:51.5     -44    -81     57     93    109 208.5  35.0  34266  291.37 0854.51
2009/04/23 13:14:51.6     -68    -76     11    103    104 221.9   6.5  34270  291.45 0854.51
2009/04/23 13:14:51.7     -63    -62    103     89    136 225.1  54.3  34272  291.47 0854.51
2009/04/23 13:14:51.8      17    -29     80     34     86 149.3  76.1  34264  291.35 0854.51
2009/04/23 13:14:51.9      88    -12     86     89    123  97.9  49.4  34258  291.25 0854.51
2009/04/23 13:14:52.0     -43     59     31     74     80 323.9  24.1  34258  291.23 0854.51
2009/04/23 13:14:52.1     -59     20     60     63     87 288.6  49.0  34258  291.23 0854.51
2009/04/23 13:14:52.2     -10   -191    191    192    270 183.1  50.2  34246  291.04 0854.51
2009/04/23 13:14:52.3    -200   -200    121    283    307 225.0  24.6  34260  291.26 0854.51
2009/04/23 13:14:52.4    -292   -106    -24    311    313 250.0  -4.5  34250  291.09 0854.51
2009/04/23 13:14:52.5    -273    -63    -10    281    282 257.0  -2.2  34256  291.19 0854.53
2009/04/23 13:14:52.6    -304    -76    -54    314    319 255.8  -9.8  34232  290.78 0854.53
2009/04/23 13:14:52.7    -246    -97    -88    265    279 248.5 -23.8  34226  290.68 0854.53
2009/04/23 13:14:52.8    -207   -120    -30    240    242 240.0  -7.3  34224  290.66 0854.53
2009/04/23 13:14:52.9    -158   -193    -94    250    267 219.2 -26.1  34206  290.36 0854.53
2009/04/23 13:14:53.0    -127   -147   -142    195    241 221.0 -44.1  34196  290.19 0854.53
2009/04/23 13:14:53.1    -160   -201   -105    258    278 218.5 -27.5  34186  290.02 0854.53
2009/04/23 13:14:53.2    -142   -224    -84    266    280 212.5 -17.6  34188  290.03 0854.53
2009/04/23 13:14:53.3    -172   -239   -114    295    316 215.8 -26.7  34196  290.19 0854.53
2009/04/23 13:14:53.4    -145   -230    -76    273    283 212.3 -20.2  34192  290.12 0854.53
2009/04/23 13:14:53.5     -82   -246    -59    260    267 198.5 -12.9  34188  290.05 0854.53
2009/04/23 13:14:53.6     -71   -304    -59    313    319 193.3 -10.8  34186  290.02 0854.53
2009/04/23 13:14:53.7     -75   -341   -130    350    373 192.4 -25.8  34200  290.25 0854.53
2009/04/23 13:14:53.8      -4   -368   -137    369    393 180.7 -25.8  34200  290.25 0854.53
2009/04/23 13:14:53.9      59   -419   -170    424    456 172.0 -27.4  34202  290.28 0854.53
2009/04/23 13:14:54.0      92   -264   -111    280    301 160.8 -27.4  34204  290.32 0854.53
2009/04/23 13:14:54.1     163   -258   -180    306    355 147.7 -37.7  34208  290.37 0854.53
2009/04/23 13:14:54.2      80   -231   -108    245    267 160.8 -29.6  34208  290.37 0854.53
2009/04/23 13:14:54.3      46   -253   -153    258    299 169.5 -37.9  34204  290.31 0854.53
2009/04/23 13:14:54.4      21   -257   -100    258    276 175.3 -26.7  34210  290.41 0854.53
2009/04/23 13:14:54.5     124   -179    -44    219    224 145.3 -11.6  34208  290.38 0854.53
2009/04/23 13:14:54.6     135   -143      8    197    198 136.6   2.5  34204  290.33 0854.53
2009/04/23 13:14:54.7     121   -131     54    179    187 137.2  16.8  34206  290.35 0854.53
2009/04/23 13:14:54.8     129   -144     99    194    217 138.3  29.2  34194  290.14 0854.53
2009/04/23 13:14:54.9     118   -146     78    188    203 141.0  23.6  34196  290.19 0854.53
2009/04/23 13:14:55.0     166   -140    110    218    244 130.0  28.7  34190  290.09 0854.53
2009/04/23 13:14:55.1     177   -146    126    230    262 129.5  31.3  34194  290.14 0854.53
2009/04/23 13:14:55.2     177   -131    138    221    260 126.6  35.2  34192  290.12 0854.53
2009/04/23 13:14:55.3     139    -99    133    171    216 125.5  42.0  34194  290.16 0854.53
2009/04/23 13:14:55.4     106    -68    134    127    184 122.9  51.6  34198  290.23 0854.49
2009/04/23 13:14:55.5     119    -39    110    126    167 108.2  45.6  34196  290.19 0854.49
2009/04/23 13:14:55.6     101      0    140    102    173  90.0  60.5  34198  290.21 0854.49
2009/04/23 13:14:55.7      97      7    135     98    166  85.6  60.3  34198  290.21 0854.49
2009/04/23 13:14:55.8       9      0    112     10    112  90.8  90.0  34204  290.33 0854.49
2009/04/23 13:14:55.9     -20     36     99     42    107 330.1  76.6  34208  290.40 0854.49
2009/04/23 13:14:56.0      38     18    107     43    115  63.8  77.1  34246  291.03 0854.49
2009/04/23 13:14:56.1     129      9    139    130    190  85.6  52.2  34328  292.42 0854.49
2009/04/23 13:14:56.2      -1     42     77     43     88 357.4  68.8  34256  291.21 0854.49
2009/04/23 13:14:56.3      11     72    121     73    141   8.9  66.2  34288  291.74 0854.49
2009/04/23 13:14:56.4     -29     60     72     67     98 333.7  52.2  34256  291.20 0854.49
2009/04/23 13:14:56.5     -58    -61     56     85    101 223.7  36.5  34204  290.33 0854.49
2009/04/23 13:14:56.6     -57    -46     60     74     95 231.4  43.7  34208  290.38 0854.49
2009/04/23 13:14:56.7      -9    -28     75     30     80 198.3  77.1  34248  291.06 0854.49
2009/04/23 13:14:56.8      24    -40     51     47     69 148.4  52.2  34292  291.83 0854.49
2009/04/23 13:14:56.9       0    -29     20     30     36 180.9  35.6  34278  291.57 0854.49
2009/04/23 13:14:57.0     -32    -15      1     36     37 244.7   2.8  34240  290.94 0854.49
2009/04/23 13:14:57.1     -61     -7    -16     62     65 263.0 -14.5  34238  290.91 0854.49
2009/04/23 13:14:57.2     -78    -19    -25     81     84 255.8 -22.8  34240  290.94 0854.49
2009/04/23 13:14:57.3     -66     19    -28     69     74 286.8 -27.4  34284  291.67 0854.49
2009/04/23 13:14:57.4       0     66    -32     67     74   0.0 -31.5  34288  291.76 0854.45
2009/04/23 13:14:57.5       9     78    -13     79     81   7.1  -9.8  34302  292.00 0854.45
2009/04/23 13:14:57.6      29     90    -31     95    100 360.0 -18.1  34316  292.22 0854.45
2009/04/23 13:14:57.7     -21     85    -26     88     92 345.7 -16.6  34326  292.40 0854.45
2009/04/23 13:14:57.8      26     89    -32     93     98  16.5 -23.3  34328  292.42 0854.45
2009/04/23 13:14:57.9      16    106    -13    108    109   8.9  -7.3  34326  292.40 0854.45
2009/04/23 13:14:58.0      35    108    -35    114    119  18.3 -21.8  34310  292.13 0854.45
2009/04/23 13:14:58.1      59     92    -58    110    124  32.5 -34.7  34312  292.17 0854.45
2009/04/23 13:14:58.2     118     85    -56    146    156  54.0 -26.4  34300  291.95 0854.45
2009/04/23 13:14:58.3     136     54     -4    147    148  68.2  -1.8  34302  291.98 0854.45
2009/04/23 13:14:58.4     102     96    -23    141    143  46.8  -9.3  34306  292.05 0854.45
2009/04/23 13:14:58.5     112     97     -5    149    150  49.1  -2.2  34310  292.12 0854.45
2009/04/23 13:14:58.6     112     84     19    140    142  53.1   8.0  34306  292.05 0854.45
2009/04/23 13:14:58.7     107     46     41    117    125  66.5  19.4  34296  291.88 0854.45
2009/04/23 13:14:58.8      88     58     61    106    122  56.3  32.4  34284  291.69 0854.45
2009/04/23 13:14:58.9      57     31     72     66     97  61.2  52.2  34288  291.74 0854.45
2009/04/23 13:14:59.0      71     18     48     74     88  75.8  36.0  34292  291.81 0854.45
2009/04/23 13:14:59.1      58      4     25     59     64  85.7  23.1  34286  291.71 0854.45
2009/04/23 13:14:59.2     122      0      6    123    124  89.6   2.8  34294  291.84 0854.45
2009/04/23 13:14:59.3     123     17     64    125    140  82.1  29.3  34344  292.71 0854.45
2009/04/23 13:14:59.4     127    143    133    192    233  41.4  37.8  34326  292.40 0854.42
2009/04/23 13:14:59.5     108    155    117    190    223  35.0  35.0  34310  292.13 0854.42
2009/04/23 13:14:59.6     106    142    122    178    215  36.7  37.8  34300  291.96 0854.42
2009/04/23 13:14:59.7     108     76    167    133    213  54.9  57.5  34310  292.12 0854.42
2009/04/23 13:14:59.8     -20     32    123     38    128 327.4  82.7  34314  292.20 0854.42
2009/04/23 13:14:59.9     156    -26    151    159    219  99.6  48.5  34294  291.86 0854.42
2009/04/23 13:15:00.0     107     35    137    113    177  71.4  56.3  34294  291.84 0854.42
2009/04/23 13:15:00.1     -10     -3     74     11     74 251.6  90.0  34298  291.93 0854.42
2009/04/23 13:15:00.2      47     22     74     52     90  64.7  61.5  34276  291.55 0854.42
2009/04/23 13:15:00.3     -34     16     78     38     86 295.3  72.4  34276  291.55 0854.42
2009/04/23 13:15:00.4     -49     -9     93     50    105 258.5  69.3  34286  291.72 0854.42
2009/04/23 13:15:00.5     -93    -31     77     99    125 251.4  41.7  34292  291.81 0854.42
2009/04/23 13:15:00.6     -90    -33     41     97    105 249.6  24.1  34306  292.05 0854.42
2009/04/23 13:15:00.7    -116    -53     44    128    136 245.2  19.2  34318  292.25 0854.42
2009/04/23 13:15:00.8    -145   -129     32    195    198 228.2   9.5  34312  292.15 0854.42
2009/04/23 13:15:00.9    -178   -129     32    221    224 234.0   8.2  34306  292.05 0854.42
2009/04/23 13:15:01.0    -178   -109     71    209    221 238.5  18.9  34292  291.81 0854.42
2009/04/23 13:15:01.1    -168    -63    108    180    209 249.2  33.7  34280  291.62 0854.42
2009/04/23 13:15:01.2    -161     87     21    183    185 298.4   6.7  34270  291.43 0854.42
2009/04/23 13:15:01.3     -92     43     46    102    111 295.3  26.2  34266  291.38 0854.42
2009/04/23 13:15:01.4     -73    -67     28    100    104 227.3  15.8  34274  291.52 0854.43
2009/04/23 13:15:01.5     -10    -77    -42     78     88 188.0 -35.2  34264  291.35 0854.43
2009/04/23 13:15:01.6      70   -137    -62    154    166 152.9 -27.8  34264  291.35 0854.43
2009/04/23 13:15:01.7     148   -118    -76    190    204 128.4 -27.4  34266  291.38 0854.43
2009/04/23 13:15:01.8     176    -51     36    184    188 106.2  11.1  34264  291.35 0854.43
2009/04/23 13:15:01.9      15   -162    159    163    227 174.7  49.4  34258  291.25 0854.43
2009/04/23 13:15:02.0     -67   -222    143    233    273 196.9  34.4  34264  291.33 0854.43
2009/04/23 13:15:02.1     -74   -262    115    273    296 195.8  24.2  34278  291.56 0854.43
2009/04/23 13:15:02.2      33   -303    109    305    323 173.8  20.4  34290  291.78 0854.43
2009/04/23 13:15:02.3     -65   -327    148    334    365 191.4  25.6  34282  291.66 0854.43
2009/04/23 13:15:02.4     -85   -281     57    294    300 197.0  11.0  34302  291.97 0854.43
2009/04/23 13:15:02.5    -139   -279     71    312    321 206.5  12.9  34316  292.23 0854.43
2009/04/23 13:15:02.6    -126   -290     86    317    329 203.6  15.3  34306  292.04 0854.43
2009/04/23 13:15:02.7     -38   -366    184    369    412 186.0  28.4  34272  291.49 0854.43
2009/04/23 13:15:02.8     -39   -324    142    327    356 186.9  25.0  34294  291.86 0854.43
2009/04/23 13:15:02.9     -20   -268    183    269    325 184.5  37.6  34264  291.34 0854.43
2009/04/23 13:15:03.0      22   -298    212    299    366 175.6  38.8  34274  291.51 0854.43
2009/04/23 13:15:03.1       8   -206    211    207    295 177.8  50.4  34282  291.65 0854.43
2009/04/23 13:15:03.2      -3   -187    196    188    271 181.0  51.2  34262  291.29 0854.43
2009/04/23 13:15:03.3       9   -123    181    124    219 175.5  62.6  34262  291.32 0854.43
2009/04/23 13:15:03.4     -30   -128    197    132    237 193.4  63.2  34262  291.32 0854.47
2009/04/23 13:15:03.5       0    -87    174     88    194 179.5  71.4  34262  291.32 0854.47
2009/04/23 13:15:03.6       6    -42    147     43    153 171.1  82.8  34258  291.23 0854.47
2009/04/23 13:15:03.7     -18   -132    169    134    215 188.0  57.7  34244  291.01 0854.47
2009/04/23 13:15:03.8      44   -146    153    153    216 163.0  50.1  34246  291.03 0854.47
2009/04/23 13:15:03.9      86   -219    168    236    289 158.4  39.1  34228  290.71 0854.47
2009/04/23 13:15:04.0      39   -211    156    215    265 169.3  39.7  34254  291.17 0854.47
2009/04/23 13:15:04.1      75   -228    178    241    299 161.7  39.9  34234  290.82 0854.47
2009/04/23 13:15:04.2      20   -217    178    219    282 174.7  43.3  34246  291.02 0854.47
2009/04/23 13:15:04.3      55   -197    142    205    249 164.4  38.0  34248  291.07 0854.47
2009/04/23 13:15:04.4      17   -158     84    159    179 173.7  30.1  34256  291.21 0854.47
2009/04/23 13:15:04.5      42   -155     91    161    184 164.9  32.1  34266  291.38 0854.47
2009/04/23 13:15:04.6     -14   -114     63    115    131 187.1  31.3  34270  291.43 0854.47
2009/04/23 13:15:04.7      16    -65     72     68     99 165.7  51.6  34270  291.43 0854.47
2009/04/23 13:15:04.8       8    -51     46     52     69 170.2  46.9  34264  291.35 0854.47
2009/04/23 13:15:04.9       3      3     48      5     48  43.4  90.0  34260  291.26 0854.47
2009/04/23 13:15:05.0      -4     42     38     43     57 353.8  46.9  34256  291.21 0854.47
2009/04/23 13:15:05.1     -16     84     52     86    100 348.9  34.4  34258  291.23 0854.47
2009/04/23 13:15:05.2     -41    122     30    129    133 341.3  13.1  34254  291.18 0854.47
2009/04/23 13:15:05.3     -83    224    -47    240    245 339.5 -11.1  34256  291.19 0854.47
2009/04/23 13:15:05.4      18    278    -80    279    290   3.8 -20.8  34252  291.12 0854.50
2009/04/23 13:15:05.5      48    325    -64    329    336   8.5 -11.0  34246  291.03 0854.50
2009/04/23 13:15:05.6       0    359   -116    360    378 359.9 -23.2  34274  291.52 0854.50
2009/04/23 13:15:05.7    -223    149   -135    269    300 303.7 -33.5  34274  291.50 0854.50
2009/04/23 13:15:05.8    -289     99   -150    306    340 289.1 -32.5  34238  290.88 0854.50
2009/04/23 13:15:05.9    -176    212    -93    276    291 320.4 -23.3  34254  291.17 0854.50
2009/04/23 13:15:06.0    -131    213    -98    251    269 328.4 -26.7  34252  291.14 0854.50
2009/04/23 13:15:06.1    -197    185    -75    271    282 313.1 -15.5  34254  291.16 0854.50
2009/04/23 13:15:06.2    -228    126   -161    261    306 298.9 -39.2  34252  291.14 0854.50
2009/04/23 13:15:06.3    -192    124    -37    229    233 302.9  -9.4  34262  291.32 0854.50
2009/04/23 13:15:06.4    -171     76    -52    188    196 294.0 -15.5  34266  291.38 0854.50
2009/04/23 13:15:06.5    -149     95    -35    177    181 302.5 -11.3  34262  291.32 0854.50
2009/04/23 13:15:06.6     -97    255      3    274    275 339.1   0.8  34274  291.51 0854.50
2009/04/23 13:15:06.7     -99    230     81    251    264 336.6  17.9  34276  291.55 0854.50
2009/04/23 13:15:06.8    -228    149    112    273    295 303.3  23.4  34276  291.55 0854.50
2009/04/23 13:15:06.9    -304    229     77    381    389 307.0  11.4  34272  291.49 0854.50
2009/04/23 13:15:07.0    -406    240     30    472    473 300.6   3.7  34198  290.20 0854.50
2009/04/23 13:15:07.2    -389    230     34    453    455 300.6   4.3  34212  290.46 0854.50
2009/04/23 13:15:07.2    -531    151     15    553    554 285.9   1.6  34210  290.41 0854.50
2009/04/23 13:15:07.3    -417    241      3    482    483 300.0   0.4  34198  290.23 0854.50
2009/04/23 13:15:07.4    -400    212    160    453    480 298.0  20.3  34198  290.20 0854.51
2009/04/23 13:15:07.5    -355     69    142    362    388 281.1  22.7  34220  290.59 0854.51
2009/04/23 13:15:07.6    -143   -121    230    188    297 229.6  56.4  34236  290.85 0854.51
2009/04/23 13:15:07.7    -181   -243    184    304    355 216.7  34.0  34274  291.52 0854.51
2009/04/23 13:15:07.8    -285   -285     20    404    405 225.0   2.9  34200  290.24 0854.51
2009/04/23 13:15:07.9    -377   -325    -45    499    502 229.2  -5.2  34202  290.27 0854.51
2009/04/23 13:15:08.0    -333   -343    -22    479    480 224.1  -2.7  34200  290.25 0854.51
2009/04/23 13:15:08.1    -233   -260     17    350    351 221.8   2.9  34198  290.21 0854.51
2009/04/23 13:15:08.2    -233   -266    -13    354    355 221.3  -2.2  34198  290.20 0854.51
2009/04/23 13:15:08.3    -239   -279    -11    368    369 220.6  -1.8  34202  290.27 0854.51
2009/04/23 13:15:08.4    -241   -286    -39    375    378 220.1  -6.1  34194  290.15 0854.51
2009/04/23 13:15:08.5    -298   -277    -81    407    416 227.1 -11.3  34194  290.14 0854.51
2009/04/23 13:15:08.6    -265   -359    -64    447    452 216.5  -8.2  34190  290.07 0854.51
2009/04/23 13:15:08.7    -255   -472    -91    537    545 208.4  -9.7  34210  290.43 0854.51
2009/04/23 13:15:08.8    -168   -429     22    461    462 201.4   2.8  34252  291.14 0854.51
2009/04/23 13:15:08.9     -83   -435    217    444    494 190.9  27.9  34262  291.32 0854.51
2009/04/23 13:15:09.0    -152   -512    189    535    567 196.5  20.2  34240  290.94 0854.51
2009/04/23 13:15:09.1     -94   -469    177    479    510 191.4  21.3  34244  291.00 0854.51
2009/04/23 13:15:09.2     -70   -351    185    358    402 191.4  29.3  34208  290.40 0854.51
2009/04/23 13:15:09.3    -108   -347     -3    364    365 197.3  -0.5  34182  289.96 0854.51
2009/04/23 13:15:09.4    -140   -327     18    356    357 203.2   2.9  34194  290.16 0854.53
2009/04/23 13:15:09.5    -180   -386     37    426    428 205.0   5.0  34198  290.21 0854.53
2009/04/23 13:15:09.6    -189   -442     32    481    483 203.2   3.9  34202  290.30 0854.53
2009/04/23 13:15:09.7    -209   -449     65    496    501 204.9   7.5  34202  290.30 0854.53
2009/04/23 13:15:09.8    -297   -412     10    509    510 215.8   1.2  34212  290.47 0854.53
2009/04/23 13:15:09.9    -302   -468     18    558    559 212.9   1.9  34200  290.26 0854.53
2009/04/23 13:15:10.0    -304   -455      6    548    549 213.8   0.7  34204  290.33 0854.53
2009/04/23 13:15:10.1    -176   -430     51    465    468 202.3   6.4  34218  290.56 0854.53
2009/04/23 13:15:10.2    -248   -474    154    535    557 207.6  16.1  34222  290.63 0854.53
2009/04/23 13:15:10.3    -239   -522    145    575    593 204.6  14.2  34214  290.49 0854.53
2009/04/23 13:15:10.4    -130   -389    169    411    444 198.5  23.7  34214  290.50 0854.53
2009/04/23 13:15:10.5     -99   -195    112    219    245 207.1  29.1  34222  290.61 0854.53
2009/04/23 13:15:10.6    -186   -271   -118    330    351 214.5 -19.7  34226  290.69 0854.53
2009/04/23 13:15:10.7    -120   -224     35    255    258 208.1   8.0  34256  291.19 0854.53
2009/04/23 13:15:10.8     -82   -206     23    223    225 201.8   5.9  34264  291.35 0854.53
2009/04/23 13:15:10.9     -73   -201     28    214    216 200.0   7.5  34244  291.01 0854.53
2009/04/23 13:15:11.0      15   -193     44    194    200 175.5  12.9  34212  290.47 0854.53
2009/04/23 13:15:11.1       3   -169     90    170    192 178.9  30.3  34198  290.23 0854.53
2009/04/23 13:15:11.2      -7   -152    107    153    186 182.7  38.6  34206  290.35 0854.53
2009/04/23 13:15:11.3       5   -106    118    107    159 177.3  53.0  34206  290.35 0854.53
2009/04/23 13:15:11.4      61   -172     70    183    195 160.4  22.0  34204  290.33 0854.53
2009/04/23 13:15:11.5     -30   -217     59    220    228 188.0  15.2  34206  290.35 0854.53
2009/04/23 13:15:11.7     -11   -203    104    204    228 183.1  29.2  34206  290.36 0854.53
2009/04/23 13:15:11.7       6   -179     88    180    200 178.0  28.0  34214  290.48 0854.53
2009/04/23 13:15:11.8     -10   -184    169    185    250 183.4  47.1  34214  290.50 0854.53
2009/04/23 13:15:12.0     -22   -155    121    157    198 188.1  41.6  34216  290.53 0854.53
2009/04/23 13:15:12.1      -4   -103    124    104    161 182.7  55.6  34216  290.52 0854.53
2009/04/23 13:15:12.2     -24    -47    113     53    124 207.2  73.1  34214  290.48 0854.53
2009/04/23 13:15:12.3       4      4     80      7     80  45.0  90.0  34220  290.58 0854.53
2009/04/23 13:15:12.4     -14     27    101     31    105 332.8  82.3  34220  290.60 0854.53
2009/04/23 13:15:12.5     -45     -4    109     46    118 263.9  76.1  34222  290.64 0854.53
2009/04/23 13:15:12.6      57     47    123     75    144  50.4  65.1  34216  290.52 0854.53
2009/04/23 13:15:12.7      50     64    167     82    186  38.3  72.4  34214  290.48 0854.53
2009/04/23 13:15:12.8      33     54    139     64    153  31.6  73.5  34214  290.48 0854.53
2009/04/23 13:15:12.9      -5     71    132     72    150 355.6  68.9  34212  290.47 0854.53
2009/04/23 13:15:13.0     115     69    120    135    180  58.9  46.4  34216  290.53 0854.53
2009/04/23 13:15:13.1      92     42    152    102    183  65.6  63.2  34214  290.50 0854.53
2009/04/23 13:15:13.2     132     72    121    151    193  61.1  43.3  34218  290.57 0854.53
2009/04/23 13:15:13.3     158     58    146    169    223  69.8  45.6  34216  290.52 0854.53
2009/04/23 13:15:13.4      57     47    123     75    144  50.4  65.1  34218  290.57 0854.53
2009/04/23 13:15:13.5      77     51    127     93    157  56.7  60.3  34220  290.58 0854.53
2009/04/23 13:15:13.6      34    -20    104     40    111 120.7  78.2  34222  290.64 0854.53
2009/04/23 13:15:13.7      91     -8     71     92    116  95.2  41.7  34216  290.53 0854.53
2009/04/23 13:15:13.8     124     21    148    126    194  80.3  55.6  34224  290.67 0854.53
2009/04/23 13:15:13.9      72     46     67     86    109  57.6  42.2  34226  290.69 0854.53
2009/04/23 13:15:14.0      80     88     28    119    123  42.3  13.2  34226  290.69 0854.53
2009/04/23 13:15:14.1      32     76     51     83     97  23.2  35.5  34226  290.69 0854.53
2009/04/23 13:15:14.2      20    114      5    116    117  10.2   2.9  34226  290.69 0854.53
2009/04/23 13:15:14.3     -51    108     -4    120    121 334.5  -2.2  34224  290.67 0854.53
2009/04/23 13:15:14.4      30    171     34    174    178  10.2  11.1  34226  290.69 0854.53
2009/04/23 13:15:14.5       6    159     23    160    162   2.2   8.5  34226  290.70 0854.53
2009/04/23 13:15:14.6     -41    200     10    205    206 348.4   2.9  34222  290.62 0854.53
2009/04/23 13:15:14.7     -48    134    -18    143    145 340.0  -7.3  34226  290.69 0854.53
2009/04/23 13:15:14.8     -95    101      6    139    140 316.8   2.8  34224  290.65 0854.53
2009/04/23 13:15:14.9    -157    149     14    217    218 313.6   3.8  34220  290.60 0854.53
2009/04/23 13:15:15.0    -138    157     72    210    223 318.6  18.9  34224  290.67 0854.53
2009/04/23 13:15:15.1    -138    105     98    174    199 307.5  31.9  34224  290.67 0854.53
2009/04/23 13:15:15.2    -104    100     34    145    149 314.0  13.2  34220  290.58 0854.53
2009/04/23 13:15:15.3     -60     25    -23     66     71 292.6 -19.7  34228  290.74 0854.53
2009/04/23 13:15:15.4     -74     90    -33    117    122 320.3 -16.0  34222  290.64 0854.53
2009/04/23 13:15:15.5     -79    114     21    139    141 325.3   8.9  34224  290.65 0854.53
2009/04/23 13:15:15.6       8     68    -52     69     86   7.1 -45.1  34222  290.62 0854.53
2009/04/23 13:15:15.7      63     89   -144    110    181  35.2 -63.1  34224  290.65 0854.53
2009/04/23 13:15:15.8     -23     45    -91     51    104 332.8 -72.7  34220  290.60 0854.53
2009/04/23 13:15:15.9      35     28    -46     46     65  51.4 -54.5  34224  290.65 0854.53
2009/04/23 13:15:16.0      26      8    -48     28     55  71.4 -70.1  34224  290.65 0854.53
2009/04/23 13:15:16.1      64      4    -15     65     67  85.7 -13.4  34226  290.69 0854.53
2009/04/23 13:15:16.2     126     24    -12    129    130  79.0  -5.6  34228  290.74 0854.53
2009/04/23 13:15:16.3     140     36      3    145    146  75.4   1.2  34230  290.75 0854.53
2009/04/23 13:15:16.4     144     57     -5    156    157  68.3  -2.1  34220  290.60 0854.53
2009/04/23 13:15:16.5     202     48     10    208    209  76.5   2.8  34218  290.57 0854.56
2009/04/23 13:15:16.6     142     -5    -31    143    147  92.1 -12.4  34216  290.53 0854.56
2009/04/23 13:15:16.7     131     11    -71    132    149  84.8 -35.2  34222  290.62 0854.56
2009/04/23 13:15:16.8     131     71     50    150    159  61.6  18.6  34220  290.60 0854.56
2009/04/23 13:15:16.9     154     27     74    157    173  79.9  27.1  34224  290.65 0854.56
2009/04/23 13:15:17.0     212      1    -22    213    215  89.6  -6.0  34228  290.74 0854.56
2009/04/23 13:15:17.1     188    -39     58    193    202 101.7  16.8  34224  290.67 0854.56
2009/04/23 13:15:17.2     168    -27    104    171    200  99.2  34.0  34232  290.79 0854.56
2009/04/23 13:15:17.3     205     72     40    218    222  70.7  10.6  34232  290.81 0854.56
2009/04/23 13:15:17.4     209     21     57    211    219  84.1  15.2  34232  290.79 0854.56
2009/04/23 13:15:17.5     247     21     10    248    249  85.0   2.3  34224  290.65 0854.56
2009/04/23 13:15:17.6     145    -23     57    147    157  99.2  22.3  34224  290.65 0854.56
2009/04/23 13:15:17.7      60    -46     62     76     98 127.8  43.7  34226  290.69 0854.56
2009/04/23 13:15:17.8      18    -45     86     49     98 158.2  68.3  34220  290.60 0854.56
2009/04/23 13:15:17.9      42    -24     92     49    104 119.8  69.3  34222  290.64 0854.56
2009/04/23 13:15:18.0     -16    -42     73     45     85 200.9  65.1  34228  290.72 0854.56
2009/04/23 13:15:18.1      18    -54    117     57    130 161.5  72.8  34232  290.79 0854.56
2009/04/23 13:15:18.2     -17    -96    112     98    148 190.2  54.3  34228  290.72 0854.56
2009/04/23 13:15:18.3      -3    -50     76     51     91 184.5  63.2  34228  290.74 0854.56
2009/04/23 13:15:18.4     -27    -92     90     96    131 196.5  48.0  34230  290.75 0854.56
2009/04/23 13:15:18.5       0    -92    126     93    156 180.4  59.8  34232  290.81 0854.57
2009/04/23 13:15:18.6     -35   -116     61    122    136 197.0  28.2  34232  290.81 0854.57
2009/04/23 13:15:18.7     -20    -94     58     97    113 192.0  34.0  34232  290.79 0854.57
2009/04/23 13:15:18.8     -24    -83     41     87     96 196.5  27.2  34230  290.77 0854.57
2009/04/23 13:15:18.9     -18    -88     32     91     97 192.0  19.4  34232  290.79 0854.57
2009/04/23 13:15:19.0     -42   -117     50    125    134 200.0  22.5  34232  290.81 0854.57
2009/04/23 13:15:19.1     -22   -109     58    112    126 191.6  29.3  34232  290.81 0854.57
2009/04/23 13:15:19.2     -23    -96     65     99    118 193.8  36.5  34230  290.77 0854.57
2009/04/23 13:15:19.3     -50   -100     75    113    135 206.7  36.5  34234  290.84 0854.57
2009/04/23 13:15:19.4     -39    -90     91     99    134 203.6  47.9  34236  290.86 0854.57
2009/04/23 13:15:19.5     -43    -35    105     56    119 230.4  69.8  34240  290.94 0854.57
2009/04/23 13:15:19.6     -52    -46    101     70    122 228.7  62.1  34242  290.96 0854.57
2009/04/23 13:15:19.7     -60    -12     50     62     79 258.6  43.3  34238  290.89 0854.57
2009/04/23 13:15:19.8      -8     35     48     36     60 346.6  59.4  34236  290.86 0854.57
2009/04/23 13:15:19.9     -17    -67     79     70    105 194.3  53.7  34240  290.94 0854.57
2009/04/23 13:15:20.0      -4    -21     97     22     99 191.6  88.0  34236  290.86 0854.57
2009/04/23 13:15:20.1     -36     25     98     44    107 305.1  74.0  34238  290.89 0854.57
2009/04/23 13:15:20.2     -13     28    115     32    119 334.5  84.4  34242  290.98 0854.57
2009/04/23 13:15:20.3     -32    -33    122     46    130 224.1  78.6  34236  290.87 0854.57
2009/04/23 13:15:20.4     -16    -88    161     90    184 190.7  68.5  34224  290.65 0854.57
2009/04/23 13:15:20.5     -15    -35    126     39    131 203.6  82.3  34234  290.84 0854.57
2009/04/23 13:15:20.6     -37      2    133     38    138 274.4  84.4  34240  290.92 0854.57
2009/04/23 13:15:20.7      24     24    115     34    119  45.0  82.8  34244  291.01 0854.57
2009/04/23 13:15:20.8     -38    -80    133     89    160 205.9  63.2  34232  290.81 0854.57
2009/04/23 13:15:20.9     -70    -79    141    106    176 221.4  59.4  34238  290.89 0854.57
2009/04/23 13:15:21.0     -51    -97     92    110    143 208.1  44.3  34236  290.87 0854.57
2009/04/23 13:15:21.1     -84   -137     97    162    188 211.6  34.0  34234  290.82 0854.57
2009/04/23 13:15:21.2    -102   -160     94    190    211 212.5  28.0  34228  290.74 0854.57
2009/04/23 13:15:21.3     -27    -94    128     98    161 196.0  58.7  34234  290.82 0854.57
2009/04/23 13:15:21.4     107    -63    101    125    160 120.7  43.3  34232  290.79 0854.57
2009/04/23 13:15:21.5      99    -53    136    113    176 118.4  56.3  34230  290.75 0854.57
2009/04/23 13:15:21.6      33    -35    114     49    124 136.8  75.5  34234  290.82 0854.57
2009/04/23 13:15:21.7      -1   -145    148    146    207 180.5  50.1  34222  290.64 0854.57
2009/04/23 13:15:21.8      43   -150    165    157    227 164.0  51.6  34224  290.67 0854.57
2009/04/23 13:15:21.9      24   -207    147    209    255 173.3  38.6  34222  290.63 0854.57
2009/04/23 13:15:22.0       7   -157    143    158    213 177.4  46.9  34226  290.69 0854.57
2009/04/23 13:15:22.1       4   -196    128    197    234 178.6  36.3  34224  290.67 0854.57
2009/04/23 13:15:22.2      39   -186    148    191    241 168.2  41.7  34222  290.64 0854.57
2009/04/23 13:15:22.3      54   -174    144    183    232 162.8  42.2  34222  290.62 0854.57
2009/04/23 13:15:22.4      93   -213    183    233    296 156.3  42.0  34220  290.59 0854.58
2009/04/23 13:15:22.5     108   -219    158    245    291 153.7  35.6  34220  290.58 0854.58
2009/04/23 13:15:22.6     141   -131    150    193    244 132.9  41.7  34220  290.60 0854.58
2009/04/23 13:15:22.7      49    -96    125    109    165 152.8  54.6  34224  290.67 0854.58
2009/04/23 13:15:22.8      89   -110     97    142    171 140.8  37.6  34220  290.60 0854.58
2009/04/23 13:15:22.9     139   -168    113    219    246 140.3  29.3  34216  290.53 0854.58
2009/04/23 13:15:23.0     110   -156     83    191    208 144.8  25.1  34212  290.47 0854.58
2009/04/23 13:15:23.1     134    -90     95    162    187 124.1  33.1  34218  290.57 0854.58
2009/04/23 13:15:23.2      83    -47     33     96    102 119.8  19.4  34216  290.53 0854.58
2009/04/23 13:15:23.3     210    -69     72    222    234 108.2  17.9  34218  290.55 0854.58
2009/04/23 13:15:23.4     237   -171     41    293    296 125.9   8.0  34214  290.48 0854.58
2009/04/23 13:15:23.5     203   -138     73    246    257 124.4  16.6  34214  290.49 0854.58
2009/04/23 13:15:23.6      99   -209    182    232    294 154.5  42.2  34216  290.51 0854.58
2009/04/23 13:15:23.7      74   -181    225    196    298 157.7  54.3  34218  290.56 0854.58
2009/04/23 13:15:23.8     106   -215    201    240    313 153.7  44.2  34220  290.58 0854.58
2009/04/23 13:15:23.9       0   -335    172    336    377 180.1  29.3  34216  290.52 0854.58
2009/04/23 13:15:24.0     -47   -321    151    325    358 188.5  26.9  34214  290.50 0854.58
2009/04/23 13:15:24.1      29   -217    197    219    294 172.2  46.9  34214  290.49 0854.58
2009/04/23 13:15:24.2      78   -194    135    210    249 158.2  35.6  34214  290.48 0854.58
2009/04/23 13:15:24.3      12   -297    166    298    341 177.5  31.6  34214  290.48 0854.58
2009/04/23 13:15:24.4      13   -349    116    350    369 177.8  18.4  34212  290.47 0854.61
2009/04/23 13:15:24.5      39   -311    141    314    344 172.8  25.9  34214  290.50 0854.61
2009/04/23 13:15:24.6      58   -290    152    296    332 168.5  29.3  34210  290.42 0854.61
2009/04/23 13:15:24.7      45   -263    132    267    297 170.3  28.2  34208  290.39 0854.61
2009/04/23 13:15:24.8      89   -292     78    306    316 163.0  14.3  34210  290.42 0854.61
2009/04/23 13:15:24.9      42   -300    111    304    323 171.9  21.0  34214  290.49 0854.61
2009/04/23 13:15:25.0     136   -298    115    328    348 155.5  19.4  34218  290.55 0854.61
2009/04/23 13:15:25.1      56   -350     72    355    363 170.9  11.6  34224  290.67 0854.61
2009/04/23 13:15:25.2     175   -293     14    342    343 149.1   2.5  34212  290.45 0854.61
2009/04/23 13:15:25.3     -28   -426    146    427    452 183.8  18.9  34216  290.51 0854.61
2009/04/23 13:15:25.4     -73   -383    118    391    409 190.9  16.8  34214  290.50 0854.61
2009/04/23 13:15:25.5     -42   -311     88    314    327 187.8  15.7  34212  290.46 0854.61
2009/04/23 13:15:25.6      -7   -410    143    411    435 181.0  20.0  34218  290.55 0854.61
2009/04/23 13:15:25.7       0   -387    152    388    416 180.0  22.7  34224  290.65 0854.61
2009/04/23 13:15:25.8      24   -403    208    404    454 176.5  29.3  34216  290.53 0854.61
2009/04/23 13:15:25.9      38   -380    185    382    424 174.2  27.4  34218  290.56 0854.61
2009/04/23 13:15:26.0      31   -337    117    339    359 174.7  19.2  34220  290.60 0854.61
2009/04/23 13:15:26.1      59   -342    124    348    369 170.1  20.3  34214  290.50 0854.61
2009/04/23 13:15:26.2      88   -279    118    293    315 162.4  23.2  34220  290.58 0854.61
2009/04/23 13:15:26.3      85   -240     80    255    268 160.4  17.4  34216  290.53 0854.61
2009/04/23 13:15:26.4      43   -214     68    219    230 168.5  17.3  34218  290.55 0854.62
2009/04/23 13:15:26.5      40   -178     67    183    194 167.1  20.4  34220  290.60 0854.62
2009/04/23 13:15:26.6      37   -137     10    142    143 164.9   4.4  34220  290.60 0854.62
2009/04/23 13:15:26.7      47   -108    -10    118    119 156.4  -5.2  34220  290.58 0854.62
2009/04/23 13:15:26.8    -100    -20      0    103    104 258.5   0.2  34224  290.65 0854.62
2009/04/23 13:15:26.9    -118     26      1    122    123 282.8   0.8  34224  290.65 0854.62
2009/04/23 13:15:27.0    -133     48      5    142    143 290.0   2.3  34224  290.65 0854.62
2009/04/23 13:15:27.1    -156    107    -10    190    191 304.6  -3.1  34216  290.52 0854.62
2009/04/23 13:15:27.2    -147    195    -44    245    249 323.0 -10.3  34220  290.59 0854.62
2009/04/23 13:15:27.3    -147    243     -3    285    286 328.8  -0.7  34228  290.73 0854.62
2009/04/23 13:15:27.4     -54    191     40    199    203 344.2  11.4  34230  290.77 0854.62
2009/04/23 13:15:27.5    -128    141    -34    191    195 317.7 -10.1  34226  290.70 0854.62
2009/04/23 13:15:27.6    -295    132    -96    324    337 294.2 -21.4  34200  290.25 0854.62
2009/04/23 13:15:27.7    -279     75   -124    289    314 285.1 -29.2  34186  290.00 0854.62
2009/04/23 13:15:27.8    -220     69    -64    231    240 287.5 -15.5  34188  290.03 0854.62
2009/04/23 13:15:27.9    -135     31    -32    139    143 283.3 -13.3  34188  290.06 0854.62
2009/04/23 13:15:28.0     -86     52     48    101    111 301.5  27.2  34186  290.02 0854.62
2009/04/23 13:15:28.1    -119    136     96    182    205 318.8  29.8  34218  290.55 0854.62
2009/04/23 13:15:28.2      95     93    153    134    203  45.6  54.3  34236  290.87 0854.62
2009/04/23 13:15:28.3     134    261    204    294    357  27.2  38.3  34238  290.89 0854.62
2009/04/23 13:15:28.4    -134    342    111    368    385 338.6  16.8  34238  290.89 0854.58
2009/04/23 13:15:28.5    -110    306     88    326    338 340.2  15.1  34242  290.98 0854.58
2009/04/23 13:15:28.6     -33    422    104    424    437 355.5  13.8  34248  291.06 0854.58
2009/04/23 13:15:28.7    -143    517    -43    537    539 344.5  -4.6  34260  291.26 0854.58
2009/04/23 13:15:28.8     -33    442    -13    444    445 355.6  -1.8  34270  291.43 0854.58
2009/04/23 13:15:28.9    -389    501    -69    635    639 322.2  -6.3  34192  290.13 0854.58
2009/04/23 13:15:29.0    -569    342   -160    664    683 301.0 -13.6  34180  289.90 0854.58
2009/04/23 13:15:29.1    -501    322   -235    596    640 302.8 -27.1  34178  289.86 0854.58
2009/04/23 13:15:29.2    -488    245   -356    547    652 296.7 -40.6  34182  289.94 0854.58
2009/04/23 13:15:29.3    -386    387   -301    547    624 315.1 -35.7  34176  289.85 0854.58
2009/04/23 13:15:29.4    -439    311   -325    538    628 305.3 -38.2  34180  289.91 0854.58
2009/04/23 13:15:29.5    -114    207   -353    237    425 331.0 -67.6  34180  289.91 0854.58
2009/04/23 13:15:29.6    -365    271   -333    455    563 306.6 -44.2  34178  289.89 0854.58
2009/04/23 13:15:29.7    -153    492   -194    516    551 342.7 -26.0  34184  289.99 0854.58
2009/04/23 13:15:29.8    -100    479   -298    490    573 348.2 -38.6  34208  290.38 0854.58
2009/04/23 13:15:29.9    -316    456    -94    555    563 325.3  -9.7  34242  290.96 0854.58
2009/04/23 13:15:30.0    -374    133   -207    398    448 289.6 -33.9  34288  291.74 0854.58
2009/04/23 13:15:30.1    -159     97    -54    187    194 301.5 -21.0  34266  291.38 0854.58
2009/04/23 13:15:30.2      -4    247   -108    248    270 359.0 -29.5  34294  291.85 0854.58
2009/04/23 13:15:30.3     -55    242   -132    249    281 347.1 -34.7  34266  291.36 0854.58
2009/04/23 13:15:30.4       2    230   -119    231    259   0.7 -33.7  34260  291.26 0854.58
2009/04/23 13:15:30.5     -63    215   -140    225    265 343.7 -39.6  34248  291.07 0854.58
2009/04/23 13:15:30.6     144     15    -67    145    159  83.9 -31.0  34236  290.87 0854.58
2009/04/23 13:15:30.7     -12    317   -197    318    374 357.8 -39.3  34216  290.52 0854.58
2009/04/23 13:15:30.8     -88    399   -101    409    422 347.5 -13.9  34240  290.94 0854.58
2009/04/23 13:15:30.9     -84    541    -85    548    555 351.1  -8.8  34240  290.92 0854.58
2009/04/23 13:15:31.0     -31    488    -98    489    499 356.3 -11.3  34234  290.83 0854.58
2009/04/23 13:15:31.1     -18    397    -15    398    399 357.4  -2.2  34230  290.76 0854.58
2009/04/23 13:15:31.2     -70    412    -92    418    429 350.3 -12.5  34210  290.41 0854.58
2009/04/23 13:15:31.3     -47    223    -94    229    247 348.0 -28.0  34230  290.76 0854.58
2009/04/23 13:15:31.4      96    149    -16    178    179  32.7  -5.4  34224  290.67 0854.58
2009/04/23 13:15:31.5     452    200     46    495    498  66.1   5.3  34218  290.54 0854.58
2009/04/23 13:15:31.6     620    314    130    696    708  63.1  10.6  34238  290.90 0854.58
2009/04/23 13:15:31.7     614    232    227    657    696  69.3  19.1  34258  291.23 0854.58
2009/04/23 13:15:31.8     663    179    363    687    777  74.9  30.1  34246  291.02 0854.58
2009/04/23 13:15:31.9     383    290    379    481    612  52.8  42.2  34220  290.59 0854.58
2009/04/23 13:15:32.0     299    299    243    423    487  45.0  32.4  34218  290.56 0854.58
2009/04/23 13:15:32.1     465    278    231    542    589  59.1  24.5  34220  290.59 0854.58
2009/04/23 13:15:32.2     390    190    370    434    570  64.0  44.8  34252  291.14 0854.58
2009/04/23 13:15:32.3     309    157    390    347    522  63.0  53.9  34288  291.76 0854.58
2009/04/23 13:15:32.4     278    157    343    320    469  60.5  52.2  34334  292.52 0854.56
2009/04/23 13:15:32.5     289     97    321    306    443  71.4  51.5  34358  292.93 0854.56
2009/04/23 13:15:32.6     165    122    205    206    290  53.6  50.0  34350  292.79 0854.56
2009/04/23 13:15:32.7     164    184    207    247    322  41.7  44.2  34320  292.30 0854.56
2009/04/23 13:15:32.8      72    192    136    206    246  20.5  36.5  34270  291.43 0854.56
2009/04/23 13:15:32.9     180    144    162    231    282  51.4  38.5  34230  290.75 0854.56
2009/04/23 13:15:33.0      84    194    190    212    284  23.4  46.4  34240  290.93 0854.56
2009/04/23 13:15:33.1      -8    223     98    224    244 357.8  25.2  34250  291.10 0854.56
2009/04/23 13:15:33.2     126    228    143    261    297  28.9  31.3  34246  291.02 0854.56
2009/04/23 13:15:33.3     284    238    139    371    396  50.0  21.5  34268  291.40 0854.56
2009/04/23 13:15:33.4     351    180    108    395    410  62.8  15.3  34258  291.23 0854.56
2009/04/23 13:15:33.5     378    178    151    418    444  64.8  20.8  34232  290.80 0854.56
2009/04/23 13:15:33.6     580     89     91    587    595  81.2   8.9  34218  290.54 0854.56
2009/04/23 13:15:33.7     472    134    -48    491    494  74.1  -5.6  34212  290.47 0854.56
2009/04/23 13:15:33.8     490    164    250    518    575  71.4  27.7  34230  290.77 0854.56
2009/04/23 13:15:33.9     816    329     42    880    882  68.0   2.8  34222  290.62 0854.56
2009/04/23 13:15:34.0     743    350     99    822    828  64.8   6.9  34222  290.64 0854.56
2009/04/23 13:15:34.1     718    369    302    808    862  62.8  21.5  34214  290.49 0854.56
2009/04/23 13:15:34.2     888    123    506    897   1029  82.1  32.0  34226  290.68 0854.56
2009/04/23 13:15:34.3     806      5    544    807    973  89.6  37.2  34248  291.07 0854.56
2009/04/23 13:15:34.4     827   -314    551    885   1042 110.8  34.9  34252  291.14 0854.54
2009/04/23 13:15:34.5     611   -315    506    688    854 117.3  40.0  34242  290.95 0854.54
2009/04/23 13:15:34.6     543   -216    516    585    780 111.7  46.1  34214  290.49 0854.54
2009/04/23 13:15:34.7     605    -93    281    613    674  98.8  26.4  34206  290.35 0854.54
2009/04/23 13:15:34.8     684   -115    307    694    758  99.6  25.3  34216  290.51 0854.54
2009/04/23 13:15:34.9     583   -126    178    597    624 102.3  16.6  34212  290.47 0854.54
2009/04/23 13:15:35.0     464    -79    261    471    538  99.7  31.4  34212  290.47 0854.54
2009/04/23 13:15:35.1     543   -177    199    572    605 108.1  20.0  34224  290.66 0854.54
2009/04/23 13:15:35.2     505    140    167    525    551  74.5  17.7  34188  290.06 0854.54
2009/04/23 13:15:35.3     483    206    258    526    585  66.9  28.2  34194  290.16 0854.54
2009/04/23 13:15:35.4     448   -223    281    501    574 116.5  31.7  34232  290.79 0854.54
2009/04/23 13:15:35.5     401    -17    302    402    502  92.5  40.7  34218  290.56 0854.54
2009/04/23 13:15:35.6     336    -15    363    337    495  92.6  52.3  34222  290.61 0854.54
2009/04/23 13:15:35.7     421     39    321    423    531  84.6  41.2  34232  290.79 0854.54
2009/04/23 13:15:35.8     445     28    378    446    584  86.4  44.7  34238  290.89 0854.54
2009/04/23 13:15:35.9     497    239    243    552    603  64.2  25.2  34224  290.66 0854.54
2009/04/23 13:15:36.0     323    115    285    344    446  70.3  43.8  34230  290.77 0854.54
2009/04/23 13:15:36.1     222     78    365    236    434  70.5  64.3  34222  290.62 0854.54
2009/04/23 13:15:36.2     408    -17    519    409    660  92.5  57.8  34220  290.58 0854.54
2009/04/23 13:15:36.3     380     29    404    381    555  85.6  52.1  34228  290.74 0854.54
2009/04/23 13:15:36.4     264    -24    377    266    461  95.2  61.4  34224  290.65 0854.53
2009/04/23 13:15:36.5     173    -21    453    175    485  97.2  77.8  34222  290.63 0854.53
2009/04/23 13:15:36.6      20    -68    320     72    328 163.1  87.7  34252  291.14 0854.53
2009/04/23 13:15:36.7     130    -71    311    149    344 118.9  72.8  34228  290.71 0854.53
2009/04/23 13:15:36.8      26   -170    400    173    435 171.1  75.2  34242  290.98 0854.53
2009/04/23 13:15:36.9      -9    -88    362     89    372 186.2  86.4  34244  291.00 0854.53
2009/04/23 13:15:37.0     -42   -128    351    135    376 198.5  77.8  34252  291.12 0854.53
2009/04/23 13:15:37.1    -301   -188    312    355    472 238.0  45.8  34250  291.09 0854.53
2009/04/23 13:15:37.2    -112      0    220    113    247 270.0  70.8  34248  291.08 0854.53
2009/04/23 13:15:37.3    -450    -96    -96    461    471 257.9 -11.8  34228  290.73 0854.53
2009/04/23 13:15:37.4    -255   -278   -248    378    452 222.5 -40.9  34200  290.24 0854.54
2009/04/23 13:15:37.5    -227    -49   -115    233    259 257.8 -32.6  34210  290.41 0854.54
2009/04/23 13:15:37.6    -132     10    147    133    198 274.4  53.0  34212  290.47 0854.54
2009/04/23 13:15:37.7    -260   -125    119    289    312 244.2  23.7  34222  290.61 0854.54
2009/04/23 13:15:37.8    -324      0    -67    325    333 270.0 -11.8  34234  290.84 0854.54
2009/04/23 13:15:38.0    -251   -118    -30    278    280 244.7  -6.2  34244  290.99 0854.54
2009/04/23 13:15:38.1    -225    -86     56    242    249 248.9  13.2  34238  290.90 0854.54
2009/04/23 13:15:38.2    -511    256   -181    572    601 296.6 -17.6  34240  290.93 0854.54
2009/04/23 13:15:38.3    -482     87    -44    490    493 280.3  -5.2  34236  290.86 0854.54
2009/04/23 13:15:38.4    -730     -4   -416    731    841 269.7 -36.5  34206  290.35 0854.54
2009/04/23 13:15:38.5    -411     77   -486    419    641 280.7 -59.4  34208  290.37 0854.54
2009/04/23 13:15:38.6    -386    287   -232    482    534 306.6 -32.1  34202  290.30 0854.54
2009/04/23 13:15:38.7    -150    430   -144    456    479 340.7 -17.5  34212  290.44 0854.54
2009/04/23 13:15:38.8    -510    167    140    537    556 288.2  14.7  34232  290.79 0854.54
2009/04/23 13:15:38.9    -279    207    220    348    411 306.6  35.5  34214  290.50 0854.54
2009/04/23 13:15:39.0     -49    148    108    157    190 341.5  37.8  34228  290.74 0854.54
2009/04/23 13:15:39.1     -14     32    142     35    146 336.4  86.4  34218  290.57 0854.54
2009/04/23 13:15:39.2      84     16    185     86    204  79.0  73.5  34242  290.96 0854.54
2009/04/23 13:15:39.3       2     19     68     20     70   8.0  82.8  34234  290.84 0854.54
2009/04/23 13:15:39.4     -71    119    150    139    204 329.2  52.2  34228  290.74 0854.54
2009/04/23 13:15:39.5    -163     74     -5    180    181 294.4  -1.6  34216  290.53 0854.54
2009/04/23 13:15:39.6    -214    121     47    246    251 299.5  11.0  34218  290.54 0854.54
2009/04/23 13:15:39.7    -289    169   -100    335    350 300.3 -16.7  34238  290.91 0854.54
2009/04/23 13:15:39.8    -302    145   -101    335    349 295.7 -21.9  34240  290.94 0854.54
2009/04/23 13:15:39.9    -151    138   -192    205    280 312.4 -52.4  34224  290.66 0854.54
2009/04/23 13:15:40.0    -206    212    -76    296    306 315.9 -14.5  34238  290.90 0854.54
2009/04/23 13:15:40.1    -230    190    -26    299    301 309.5  -5.1  34252  291.14 0854.54
2009/04/23 13:15:40.2    -154    274    -92    315    329 330.6 -16.4  34232  290.80 0854.54
2009/04/23 13:15:40.3    -217    286    -71    360    368 322.8 -11.2  34232  290.79 0854.54
2009/04/23 13:15:40.4    -297    137    -78    328    338 294.7 -13.4  34224  290.67 0854.54
2009/04/23 13:15:40.5    -272    131   -120    303    325 295.8 -27.2  34238  290.90 0854.54
2009/04/23 13:15:40.6    -197     31     -4    200    201 279.0  -1.3  34226  290.70 0854.54
2009/04/23 13:15:40.7    -138   -113     38    179    184 230.5  12.0  34228  290.72 0854.54
2009/04/23 13:15:40.8    -167   -315     23    357    358 208.0   3.7  34230  290.76 0854.54
2009/04/23 13:15:40.9    -394   -135   -107    417    431 251.0 -14.5  34228  290.72 0854.54
2009/04/23 13:15:41.0    -286    -11    -34    287    290 267.6  -6.9  34228  290.71 0854.54
2009/04/23 13:15:41.1    -227   -133     92    264    279 239.6  20.0  34218  290.56 0854.54
2009/04/23 13:15:41.2    -427   -294    201    519    556 235.4  22.3  34232  290.79 0854.54
2009/04/23 13:15:41.3    -423   -268     91    501    510 237.6  10.4  34228  290.73 0854.54
2009/04/23 13:15:41.4    -266   -199     37    333    336 233.1   6.4  34230  290.76 0854.54
2009/04/23 13:15:41.5    -295   -295    120    418    435 225.0  16.0  34228  290.72 0854.55
2009/04/23 13:15:41.6    -341   -352     47    491    494 224.1   5.5  34222  290.62 0854.55
2009/04/23 13:15:41.7    -298   -356     88    465    474 219.9  10.7  34216  290.52 0854.55
2009/04/23 13:15:41.8    -187   -457     70    495    501 202.3   8.1  34202  290.29 0854.55
2009/04/23 13:15:41.9    -158   -306     28    345    347 207.3   4.7  34202  290.30 0854.55
2009/04/23 13:15:42.0     -30   -402     48    404    407 184.3   6.9  34206  290.34 0854.55
2009/04/23 13:15:42.1      25   -375     70    376    383 176.1  10.6  34204  290.32 0854.55
2009/04/23 13:15:42.2      23   -306    116    307    328 175.6  21.6  34202  290.27 0854.55
2009/04/23 13:15:42.3     219   -301    196    373    421 143.9  30.0  34204  290.33 0854.55
2009/04/23 13:15:42.4     371   -395    254    542    598 136.8  27.1  34204  290.31 0854.55
2009/04/23 13:15:42.5     395   -419    227    577    620 136.7  22.9  34192  290.12 0854.55
2009/04/23 13:15:42.6     441   -355    184    567    597 128.9  18.0  34198  290.22 0854.55
2009/04/23 13:15:42.7     286   -282    139    402    426 134.6  19.2  34192  290.11 0854.55
2009/04/23 13:15:42.8     157   -285    130    326    350 151.1  23.0  34190  290.08 0854.55
2009/04/23 13:15:42.9     273   -394    116    480    494 145.3  13.7  34170  289.74 0854.55
2009/04/23 13:15:43.0      29   -388    223    390    449 175.6  32.3  34174  289.80 0854.55
2009/04/23 13:15:43.1       0   -417    279    418    502 180.0  36.9  34168  289.71 0854.55
2009/04/23 13:15:43.2     185   -388    193    430    471 154.5  25.7  34188  290.04 0854.55
2009/04/23 13:15:43.3     211   -409    311    461    556 152.7  37.3  34184  289.97 0854.55
2009/04/23 13:15:43.4     106   -376    293    391    488 164.2  40.6  34190  290.07 0854.55
2009/04/23 13:15:43.5      97   -372    179    385    424 165.3  27.0  34190  290.07 0854.55
2009/04/23 13:15:43.6      21   -375    276    376    466 176.8  39.8  34184  289.99 0854.55
2009/04/23 13:15:43.7     -34   -211    216    214    304 189.3  50.1  34188  290.05 0854.55
2009/04/23 13:15:43.8     108   -367    287    383    478 163.6  40.7  34192  290.11 0854.55
2009/04/23 13:15:43.9      13   -428    266    429    504 178.2  34.9  34200  290.25 0854.55
2009/04/23 13:15:44.0      11   -494    346    495    603 178.6  38.5  34196  290.19 0854.55
2009/04/23 13:15:44.1       6   -355    403    356    537 179.0  54.2  34196  290.17 0854.55
2009/04/23 13:15:44.2      41   -380    290    383    480 173.8  41.1  34192  290.11 0854.55
2009/04/23 13:15:44.3     114   -239    191    265    326 154.5  39.3  34204  290.32 0854.55
2009/04/23 13:15:44.4     143   -232    230    273    356 148.3  44.3  34204  290.32 0854.55
2009/04/23 13:15:44.5      38   -242    167    246    297 171.1  37.4  34208  290.37 0854.55
2009/04/23 13:15:44.6     147   -231    113    274    296 147.5  23.6  34202  290.29 0854.55
2009/04/23 13:15:44.7      24   -306     97    308    324 175.5  17.5  34204  290.32 0854.55
2009/04/23 13:15:44.8      19   -243     52    244    250 175.5  12.0  34208  290.39 0854.55
2009/04/23 13:15:44.9      43   -159     30    165    168 164.6  10.6  34206  290.36 0854.55
2009/04/23 13:15:45.0      72   -131     75    150    167 151.1  28.2  34206  290.36 0854.55
2009/04/23 13:15:45.1     128   -102    128    165    208 128.6  41.7  34204  290.33 0854.55
2009/04/23 13:15:45.2      45   -174     91    180    201 165.3  29.1  34206  290.36 0854.55
2009/04/23 13:15:45.3     133   -187     41    230    234 144.6  10.1  34202  290.29 0854.55
2009/04/23 13:15:45.4      25   -186     80    188    204 172.2  24.6  34202  290.30 0854.55
2009/04/23 13:15:45.5      36   -294     80    297    308 172.9  15.2  34202  290.27 0854.58
2009/04/23 13:15:45.6      48   -236    211    242    321 168.4  45.6  34206  290.34 0854.58
2009/04/23 13:15:45.7       7   -301    220    302    373 178.6  39.7  34204  290.33 0854.58
2009/04/23 13:15:45.8      60   -302    197    309    366 168.7  35.6  34200  290.25 0854.58
2009/04/23 13:15:45.9      79   -274    152    286    323 163.9  30.2  34200  290.26 0854.58
2009/04/23 13:15:46.0     -45   -318    237    322    399 188.1  39.9  34202  290.27 0854.58
2009/04/23 13:15:46.1      27   -355    182    357    400 175.5  29.2  34202  290.27 0854.58
2009/04/23 13:15:46.2      35   -345    198    347    399 174.2  32.4  34208  290.37 0854.58
2009/04/23 13:15:46.3     114   -339    137    358    383 161.4  22.0  34208  290.38 0854.58
2009/04/23 13:15:46.4       5   -246    256    247    355 178.6  51.1  34210  290.42 0854.58
2009/04/23 13:15:46.5      48   -355    280    359    455 172.2  41.7  34210  290.41 0854.58
2009/04/23 13:15:46.6      83   -317    196    328    382 165.2  33.6  34204  290.32 0854.58
2009/04/23 13:15:46.7      28   -235    219    237    322 173.1  47.6  34206  290.36 0854.58
2009/04/23 13:15:46.8      28   -254    179    256    312 173.7  38.4  34206  290.34 0854.58
2009/04/23 13:15:46.9       0   -114    181    115    214 180.5  64.7  34202  290.30 0854.58
2009/04/23 13:15:47.0       0   -228     73    229    241 179.8  17.7  34200  290.26 0854.58
2009/04/23 13:15:47.1      17   -232     71    233    244 175.6  17.1  34196  290.17 0854.58
2009/04/23 13:15:47.2      22   -292    150    293    329 175.6  29.2  34194  290.14 0854.58
2009/04/23 13:15:47.3     159   -326    259    363    445 153.9  39.1  34194  290.16 0854.58
2009/04/23 13:15:47.4      43   -418    323    421    530 174.0  41.4  34188  290.03 0854.58
2009/04/23 13:15:47.5    -113   -448    253    462    526 194.2  31.3  34192  290.10 0854.53
2009/04/23 13:15:47.6    -114   -336    193    355    404 198.8  30.9  34190  290.08 0854.53
2009/04/23 13:15:47.7       0   -335    249    336    418 180.1  40.1  34194  290.16 0854.53
2009/04/23 13:15:47.8    -134   -267    291    299    417 206.7  49.2  34194  290.15 0854.53
2009/04/23 13:15:47.9    -115   -159    227    197    300 216.0  54.3  34202  290.29 0854.53
2009/04/23 13:15:48.0    -153   -126    153    199    251 230.7  41.7  34194  290.15 0854.53
2009/04/23 13:15:48.1      49      3    164     50    171  85.6  82.5  34208  290.38 0854.53
2009/04/23 13:15:48.2     204     -8    109    205    232  92.4  30.6  34218  290.55 0854.53
2009/04/23 13:15:48.3      81     20    140     84    163  75.8  66.2  34216  290.53 0854.53
2009/04/23 13:15:48.4     166    -50    113    174    207 106.8  35.7  34222  290.62 0854.53
2009/04/23 13:15:48.5     152    -89     65    177    188 120.2  21.0  34212  290.47 0854.53
2009/04/23 13:15:48.6      41    -51    138     66    152 141.3  72.9  34196  290.19 0854.53
2009/04/23 13:15:48.7      21     -7    161     23    162 110.0  90.0  34196  290.18 0854.53
2009/04/23 13:15:48.8     -62   -230    280    239    368 195.1  55.4  34190  290.08 0854.53
2009/04/23 13:15:48.9     196    -77    240    211    319 111.5  54.3  34188  290.05 0854.53
2009/04/23 13:15:49.0     160    -27    209    163    265  99.7  57.9  34200  290.26 0854.53
2009/04/23 13:15:49.1      95     17    204     97    225  79.4  72.9  34200  290.26 0854.53
2009/04/23 13:15:49.2      -1    -12    121     13    121 184.5  90.0  34202  290.28 0854.53
2009/04/23 13:15:49.3      88    -34    131     95    161 111.3  60.5  34186  290.02 0854.53
2009/04/23 13:15:49.4     174    -69    -21    188    190 111.7  -6.5  34192  290.11 0854.52
2009/04/23 13:15:49.5     123    -63     22    139    141 117.0   9.0  34198  290.21 0854.52
2009/04/23 13:15:49.6     -52   -137     -3    147    148 200.9  -1.3  34192  290.13 0854.52
2009/04/23 13:15:49.7     -87    -86    -87    123    150 225.1 -43.5  34192  290.11 0854.52
2009/04/23 13:15:49.8     -75   -154    -59    172    182 205.9 -19.1  34190  290.08 0854.52
2009/04/23 13:15:49.9     -17   -279     99    280    298 183.5  19.6  34182  289.95 0854.52
2009/04/23 13:15:50.0      17   -242    160    243    290 175.8  36.3  34186  290.00 0854.52
2009/04/23 13:15:50.1      43   -203     86    208    225 168.0  23.8  34190  290.09 0854.52
2009/04/23 13:15:50.2      89   -179     47    200    206 153.5  13.2  34192  290.11 0854.52
2009/04/23 13:15:50.3      57   -200    -42    209    214 164.0 -11.6  34190  290.09 0854.52
2009/04/23 13:15:50.4     125   -103    -29    162    165 129.5 -10.3  34184  289.99 0854.52
2009/04/23 13:15:50.5      52    -56     73     77    106 136.8  48.5  34192  290.11 0854.52
2009/04/23 13:15:50.6      41    -80     40     91     99 152.8  24.6  34192  290.11 0854.52
2009/04/23 13:15:50.7     143    -73     11    161    162 117.1   4.2  34194  290.14 0854.52
2009/04/23 13:15:50.8     113    -57    -46    127    135 117.1 -24.4  34192  290.11 0854.52
2009/04/23 13:15:50.9      51     17     59     55     80  70.9  52.2  34196  290.18 0854.52
2009/04/23 13:15:51.0      75     88     66    116    133  40.5  32.9  34194  290.14 0854.52
2009/04/23 13:15:51.1      44    106    123    116    169  22.7  51.6  34208  290.40 0854.52
2009/04/23 13:15:51.2     -24    171     76    173    188 351.8  25.1  34214  290.50 0854.52
2009/04/23 13:15:51.3     113    172    129    207    243  33.4  35.2  34212  290.45 0854.52
2009/04/23 13:15:51.4     120    177    -46    214    219  34.2 -12.2  34208  290.38 0854.50
2009/04/23 13:15:51.5     118    142     56    185    194  39.6  17.1  34192  290.13 0854.50
2009/04/23 13:15:51.6     -12    162    120    163    202 355.6  39.7  34190  290.08 0854.50
2009/04/23 13:15:51.7     127     55    163    139    214  66.5  55.4  34186  290.02 0854.50
2009/04/23 13:15:51.8     106     77    166    132    212  54.1  57.1  34192  290.11 0854.50
2009/04/23 13:15:51.9     187     28    228    190    296  81.4  56.3  34178  289.88 0854.50
2009/04/23 13:15:52.0     317    162    243    356    431  62.9  37.6  34184  289.97 0854.50
2009/04/23 13:15:52.1     269    143    177    305    352  62.0  32.8  34188  290.03 0854.50
2009/04/23 13:15:52.2     391    178    150    430    456  65.5  19.3  34186  290.00 0854.50
2009/04/23 13:15:52.3     381    190     55    426    430  63.5   7.5  34194  290.16 0854.50
2009/04/23 13:15:52.4     378    205    161    431    460  61.5  21.5  34210  290.43 0854.50
2009/04/23 13:15:52.5     299    404    131    503    520  36.5  14.7  34260  291.27 0854.50
2009/04/23 13:15:52.6     114    317     90    338    350  19.8  15.0  34260  291.28 0854.50
2009/04/23 13:15:52.7      73    240    140    251    287  17.0  31.4  34244  290.99 0854.50
2009/04/23 13:15:52.8       3    174    165    175    240   1.1  48.2  34268  291.40 0854.50
2009/04/23 13:15:52.9     -20    238     64    239    248 355.1  15.0  34270  291.44 0854.50
2009/04/23 13:15:53.0      -9    279     55    280    286 358.0  11.1  34284  291.68 0854.50
2009/04/23 13:15:53.1     -62    202     91    212    230 343.0  24.9  34288  291.74 0854.50
2009/04/23 13:15:53.2       0    174     95    175    199   0.0  31.0  34270  291.45 0854.50
2009/04/23 13:15:53.3      32    180    109    183    213  10.2  33.7  34280  291.60 0854.50
2009/04/23 13:15:53.4    -114    375    -44    393    396 343.1  -6.5  34238  290.88 0854.49
2009/04/23 13:15:53.5    -273    374    118    464    479 323.9  14.3  34220  290.59 0854.49
2009/04/23 13:15:53.6    -297    219    -73    370    378 306.4 -11.2  34174  289.81 0854.49
2009/04/23 13:15:53.7    -281     94     -6    297    298 288.6  -1.2  34192  290.12 0854.49
2009/04/23 13:15:53.8    -204    -16    -68    205    215 265.4 -23.8  34230  290.77 0854.49
2009/04/23 13:15:53.9    -188    -17     66    189    201 264.8  19.4  34224  290.65 0854.49
2009/04/23 13:15:54.0    -290   -309      5    425    426 223.2   0.7  34244  290.99 0854.49
2009/04/23 13:15:54.1    -227   -348     -9    416    417 213.2  -1.3  34258  291.24 0854.49
2009/04/23 13:15:54.2    -243   -240    -65    342    349 225.3 -10.8  34250  291.10 0854.49
2009/04/23 13:15:54.3       1   -382     45    383    386 179.8   6.8  34260  291.27 0854.49
2009/04/23 13:15:54.4     -19   -316     98    317    332 183.5  17.3  34276  291.53 0854.49
2009/04/23 13:15:54.5      69   -267    134    276    306 165.3  27.4  34286  291.70 0854.49
2009/04/23 13:15:54.6     171   -284    133    332    357 148.8  23.0  34284  291.69 0854.49
2009/04/23 13:15:54.7     108   -298    115    318    339 160.0  19.9  34288  291.74 0854.49
2009/04/23 13:15:54.8      89   -339    161    351    386 165.2  26.5  34254  291.18 0854.49
2009/04/23 13:15:54.9      30   -405    181    407    445 175.7  25.6  34242  290.97 0854.49
2009/04/23 13:15:55.0     -30   -347    151    349    380 185.0  25.1  34254  291.18 0854.49
2009/04/23 13:15:55.1     -11   -336    181    337    382 181.9  30.6  34288  291.74 0854.49
2009/04/23 13:15:55.2     118   -288    189    312    364 157.7  34.1  34238  290.88 0854.49
2009/04/23 13:15:55.3     144   -175    151    227    272 140.6  36.5  34210  290.41 0854.49
2009/04/23 13:15:55.4     142   -184    160    233    282 142.2  37.6  34196  290.19 0854.50
2009/04/23 13:15:55.5      97   -251    188    270    329 158.8  38.4  34190  290.09 0854.50
2009/04/23 13:15:55.6     131   -374    273    397    481 160.6  37.8  34186  290.02 0854.50
2009/04/23 13:15:55.7     153   -471    264    496    561 162.0  30.3  34194  290.14 0854.50
2009/04/23 13:15:55.8      58   -418    275    423    504 172.0  36.0  34208  290.39 0854.50
2009/04/23 13:15:55.9       0   -336    294    337    447 179.9  45.6  34206  290.34 0854.50
2009/04/23 13:15:56.0    -131   -360    361    384    527 200.1  48.0  34202  290.29 0854.50
2009/04/23 13:15:56.1     -84   -398    388    407    562 192.0  48.5  34192  290.10 0854.50
2009/04/23 13:15:56.2      -9   -202    284    203    349 182.6  61.0  34188  290.03 0854.50
2009/04/23 13:15:56.3     -25   -401    422    402    582 183.6  51.6  34188  290.06 0854.50
2009/04/23 13:15:56.4       9   -371    395    372    542 178.5  52.1  34190  290.08 0854.50
2009/04/23 13:15:56.5     172   -261    284    313    422 146.6  47.0  34204  290.33 0854.50
2009/04/23 13:15:56.6     -60   -152    265    164    311 201.6  64.9  34200  290.26 0854.50
2009/04/23 13:15:56.7      18    -45    262     49    266 158.2  90.0  34206  290.35 0854.50
2009/04/23 13:15:56.8      22     39    183     46    188  29.9  85.9  34196  290.19 0854.50
2009/04/23 13:15:56.9     183    -54    263    192    325 106.6  60.4  34208  290.37 0854.50
2009/04/23 13:15:57.0     -16    -27    183     32    185 210.7  90.0  34214  290.48 0854.50
2009/04/23 13:15:57.1     -28     31    128     42    134 317.7  80.7  34216  290.52 0854.50
2009/04/23 13:15:57.2    -109   -142     96    180    204 217.4  30.6  34200  290.26 0854.50
2009/04/23 13:15:57.3    -401   -181     98    441    452 245.7  12.6  34206  290.36 0854.50
2009/04/23 13:15:57.4    -320   -254    142    409    434 231.6  19.2  34202  290.29 0854.53
2009/04/23 13:15:57.5     126     60    168    140    218  64.6  56.3  34204  290.33 0854.53
2009/04/23 13:15:57.6     -57     27    167     64    178 295.3  78.2  34204  290.33 0854.53
2009/04/23 13:15:57.7    -183    -41    206    188    278 257.2  52.7  34208  290.39 0854.53
2009/04/23 13:15:57.8     -48      3     86     49     98 274.4  68.3  34208  290.40 0854.53
2009/04/23 13:15:57.9      65    -36    181     75    195 118.9  76.3  34204  290.31 0854.53
2009/04/23 13:15:58.0     -21      3    162     22    163 279.7  90.0  34208  290.38 0854.53
2009/04/23 13:15:58.1      87    -50    148    101    179 120.2  62.6  34200  290.25 0854.53
2009/04/23 13:15:58.2      -2    -64    174     65    185 181.8  79.2  34200  290.26 0854.53
2009/04/23 13:15:58.3     169    138    276    219    352  50.7  57.7  34204  290.31 0854.53
2009/04/23 13:15:58.4     315    203    247    375    449  57.2  36.5  34196  290.19 0854.56
2009/04/23 13:15:58.5      60     34    260     70    269  60.2  84.8  34214  290.50 0854.56
2009/04/23 13:15:58.6       0     59    188     60    197   0.0  81.8  34214  290.48 0854.56
2009/04/23 13:15:58.7      42     13    159     45    165  72.3  83.9  34216  290.52 0854.56
2009/04/23 13:15:58.8     152     51    233    161    283  71.4  62.4  34212  290.46 0854.56
2009/04/23 13:15:58.9      16     87    148     89    172  10.7  66.0  34200  290.26 0854.56
2009/04/23 13:15:59.0    -193    140     96    239    257 306.0  23.0  34212  290.44 0854.56
2009/04/23 13:15:59.1    -284    157     89    325    338 299.0  15.4  34210  290.42 0854.56
2009/04/23 13:15:59.2    -308    -37    115    311    331 263.0  21.3  34212  290.44 0854.56
2009/04/23 13:15:59.3    -245     -4    171    246    299 269.0  38.4  34214  290.48 0854.56
2009/04/23 13:15:59.4    -249   -137    164    285    328 241.1  32.6  34218  290.56 0854.56
2009/04/23 13:15:59.5    -418    -61     -8    423    424 261.6  -1.1  34210  290.41 0854.56
2009/04/23 13:15:59.6    -264   -262      4    373    374 225.2   0.7  34210  290.43 0854.56
2009/04/23 13:15:59.7    -271   -363     71    454    460 216.7   8.9  34210  290.41 0854.56
2009/04/23 13:15:59.8    -165   -336     88    375    386 206.2  13.2  34204  290.32 0854.56
2009/04/23 13:15:59.9     -95   -292    154    308    344 198.0  28.5  34198  290.20 0854.56
2009/04/23 13:16:00.0    -130   -265    142    296    328 206.1  27.4  34208  290.37 0854.56
2009/04/23 13:16:00.1    -213   -200     98    293    310 226.9  18.5  34224  290.65 0854.56
2009/04/23 13:16:00.2    -206    -89    150    225    270 246.5  36.5  34222  290.63 0854.56
2009/04/23 13:16:00.3    -177    -52    142    185    233 253.6  41.4  34214  290.48 0854.56
2009/04/23 13:16:00.4    -323    100    122    339    361 287.2  19.9  34226  290.69 0854.56
2009/04/23 13:16:00.5    -279    -92    100    294    311 251.6  18.9  34226  290.68 0854.56
2009/04/23 13:16:00.6    -404    -92     48    415    418 257.1   6.7  34218  290.56 0854.56
2009/04/23 13:16:00.7    -358   -165     57    395    400 245.3   8.2  34212  290.47 0854.56
2009/04/23 13:16:00.8    -359   -160     37    394    396 245.9   5.4  34204  290.32 0854.56
2009/04/23 13:16:00.9    -341   -263     17    431    432 232.3   2.3  34208  290.38 0854.56
2009/04/23 13:16:01.0    -351   -169     40    390    393 244.3   6.0  34208  290.38 0854.56
2009/04/23 13:16:01.1    -343   -192     69    394    401 240.8  10.0  34210  290.42 0854.56
2009/04/23 13:16:01.2    -221   -172    -10    281    282 232.2  -2.2  34192  290.10 0854.56
2009/04/23 13:16:01.3    -582   -422    -92    719    725 234.0  -7.4  34192  290.13 0854.56
2009/04/23 13:16:01.4    -403   -230   -153    465    490 240.3 -18.3  34186  290.00 0854.56
2009/04/23 13:16:01.5    -405   -190   -142    448    469 244.9 -22.6  34198  290.22 0854.56
2009/04/23 13:16:01.6    -408   -192   -254    451    517 244.8 -36.4  34182  289.96 0854.56
2009/04/23 13:16:01.7    -234   -360   -163    430    459 213.1 -26.2  34190  290.09 0854.56
2009/04/23 13:16:01.8     -85   -329    -69    340    348 194.6 -11.6  34198  290.21 0854.56
2009/04/23 13:16:01.9     -29   -414     12    415    416 184.1   1.8  34198  290.21 0854.56
2009/04/23 13:16:02.0     -18   -299     70    300    309 183.6  13.1  34190  290.07 0854.56
2009/04/23 13:16:02.1       7   -223     97    224    244 178.0  24.9  34190  290.09 0854.56
2009/04/23 13:16:02.2       4   -200    230    201    305 178.6  54.3  34198  290.22 0854.56
2009/04/23 13:16:02.3      -3   -196    156    197    251 180.9  42.7  34198  290.22 0854.56
2009/04/23 13:16:02.4      33    -82    144     89    169 158.2  65.4  34202  290.28 0854.57
2009/04/23 13:16:02.5      -5    -77    145     78    164 184.4  69.6  34196  290.18 0854.57
2009/04/23 13:16:02.6     152   -138    180    206    273 132.2  45.8  34184  289.97 0854.57
2009/04/23 13:16:02.7     150   -135    236    203    311 132.0  55.0  34200  290.24 0854.57
2009/04/23 13:16:02.8     134   -180    279    225    358 143.3  57.0  34190  290.07 0854.57
2009/04/23 13:16:02.9     119   -122    267    171    317 135.9  64.4  34188  290.03 0854.57
2009/04/23 13:16:03.0      -4   -269    313    270    413 181.0  55.0  34188  290.04 0854.57
2009/04/23 13:16:03.1     -53   -272    221    278    355 191.1  42.6  34186  290.01 0854.57
2009/04/23 13:16:03.2     -94   -255    226    272    353 200.3  44.0  34184  289.99 0854.57
2009/04/23 13:16:03.3    -115   -242    113    269    291 205.5  24.1  34186  290.02 0854.57
2009/04/23 13:16:03.4    -272   -208     25    343    344 232.6   4.2  34184  289.98 0854.57
2009/04/23 13:16:03.5    -228   -182     35    293    296 231.4   6.9  34192  290.10 0854.57
2009/04/23 13:16:03.6     -97   -167    115    194    225 210.1  33.5  34194  290.14 0854.57
2009/04/23 13:16:03.7    -181   -206    123    275    301 221.4  25.7  34192  290.12 0854.57
2009/04/23 13:16:03.8     -64   -324    173    331    373 191.2  29.8  34182  289.96 0854.57
2009/04/23 13:16:03.9     -77   -281     85    292    305 195.4  16.3  34180  289.92 0854.57
2009/04/23 13:16:04.0       2   -234    155    235    281 179.3  36.5  34182  289.95 0854.57
2009/04/23 13:16:04.1    -144   -212    134    257    289 214.2  29.3  34182  289.95 0854.57
2009/04/23 13:16:04.2    -261   -148    112    301    321 240.5  21.3  34180  289.90 0854.57
2009/04/23 13:16:04.3    -336   -103    138    352    378 252.9  22.7  34174  289.81 0854.57
2009/04/23 13:16:04.5    -434    -19    198    435    477 267.4  26.2  34168  289.70 0854.58
2009/04/23 13:16:04.6    -494    -30    169    495    524 266.5  18.9  34192  290.13 0854.58
2009/04/23 13:16:04.7    -394    -42     64    397    403 263.8   9.2  34184  289.99 0854.58
2009/04/23 13:16:04.8    -418     58    136    423    445 278.0  17.8  34186  290.02 0854.58
2009/04/23 13:16:04.9    -581     94     50    589    592 279.2   4.9  34204  290.31 0854.58
2009/04/23 13:16:05.0    -632     95    -62    640    644 278.6  -5.6  34174  289.82 0854.58
2009/04/23 13:16:05.1    -652    116    -83    663    669 280.1  -7.2  34172  289.77 0854.58
2009/04/23 13:16:05.2    -581    -85    -14    588    589 261.6  -1.4  34192  290.10 0854.58
2009/04/23 13:16:05.3    -551   -174    -32    579    580 252.4  -3.2  34168  289.71 0854.58
2009/04/23 13:16:05.4    -509   -202   -161    548    572 248.3 -16.4  34184  289.97 0854.58
2009/04/23 13:16:05.5    -511    -66   -243    516    570 262.6 -31.5  34184  289.97 0854.58
2009/04/23 13:16:05.6    -409   -225   -153    467    491 241.1 -23.3  34176  289.83 0854.58
2009/04/23 13:16:05.7    -315   -195   -194    371    418 238.3 -34.2  34178  289.87 0854.58
2009/04/23 13:16:05.8     -25   -141   -164    144    218 190.2 -58.6  34180  289.91 0854.58
2009/04/23 13:16:05.9     -60   -197    -16    207    208 196.9  -4.6  34172  289.79 0854.58
2009/04/23 13:16:06.0    -216   -151     98    264    281 234.9  21.0  34188  290.03 0854.58
2009/04/23 13:16:06.1    -148      3    137    149    202 271.3  47.7  34186  290.02 0854.58
2009/04/23 13:16:06.2    -178    -65    111    190    220 249.8  32.9  34186  290.02 0854.58
2009/04/23 13:16:06.3    -181    -43     65    187    199 256.5  19.2  34190  290.09 0854.58
2009/04/23 13:16:06.4    -163     12     54    164    173 274.3  18.4  34190  290.09 0854.58
2009/04/23 13:16:06.5     -72     24     93     76    120 288.6  56.4  34192  290.13 0854.59
2009/04/23 13:16:06.6    -136   -109     18    175    176 231.4   5.9  34190  290.09 0854.59
2009/04/23 13:16:06.7    -157   -118     57    197    206 233.1  16.3  34192  290.13 0854.59
2009/04/23 13:16:06.8    -206   -131    -84    245    260 237.4 -19.1  34194  290.14 0854.59
2009/04/23 13:16:06.9     -49    -92    -36    105    112 208.1 -19.1  34184  289.99 0854.59
2009/04/23 13:16:07.0      81    -11     91     82    122  97.9  53.3  34194  290.14 0854.59
2009/04/23 13:16:07.1    -178   -285    -45    337    341 212.0  -7.7  34188  290.03 0854.59
2009/04/23 13:16:07.2    -194   -314   -131    370    393 211.7 -19.6  34188  290.06 0854.59
2009/04/23 13:16:07.3    -189   -533    -26    566    567 199.5  -2.7  34182  289.96 0854.59
2009/04/23 13:16:07.4    -252   -572     12    626    627 203.8   1.1  34186  290.01 0854.59
2009/04/23 13:16:07.5    -139   -440   -102    462    474 197.5 -12.5  34186  290.01 0854.59
2009/04/23 13:16:07.6    -270   -332    221    429    482 219.1  29.3  34188  290.03 0854.59
2009/04/23 13:16:07.7    -428   -379    304    572    647 228.5  30.3  34180  289.92 0854.59
2009/04/23 13:16:07.8    -598   -457    175    753    774 232.6  13.1  34190  290.07 0854.59
2009/04/23 13:16:07.9    -246   -428    149    494    516 209.9  16.8  34188  290.05 0854.59
2009/04/23 13:16:08.0    -137   -343    165    370    405 201.8  25.7  34190  290.08 0854.59
2009/04/23 13:16:08.1    -184    -43     23    190    192 256.7   7.1  34192  290.13 0854.59
2009/04/23 13:16:08.2     -47   -209    110    215    241 192.9  29.2  34198  290.22 0854.59
2009/04/23 13:16:08.3    -204   -362      5    416    417 209.4   0.8  34188  290.05 0854.59
2009/04/23 13:16:08.4     -91   -508     71    517    522 190.2   7.9  34186  290.01 0854.59
2009/04/23 13:16:08.5    -187   -368    201    414    460 207.0  27.7  34194  290.14 0854.61
2009/04/23 13:16:08.6      82    -12    168     83    187  98.4  72.4  34194  290.14 0854.61
2009/04/23 13:16:08.7     -45    -58    -47     74     87 217.8 -39.9  34192  290.11 0854.61
2009/04/23 13:16:08.8    -107   -307    186    326    375 199.2  32.3  34192  290.13 0854.61
2009/04/23 13:16:08.9    -115   -258    115    283    305 204.1  23.1  34192  290.10 0854.61
2009/04/23 13:16:09.0    -423     -4   -240    424    487 269.4 -36.4  34170  289.74 0854.61
2009/04/23 13:16:09.1    -351   -144   -240    380    449 247.7 -39.9  34188  290.04 0854.61
2009/04/23 13:16:09.2    -305   -253   -109    397    412 230.3 -15.4  34190  290.09 0854.61
2009/04/23 13:16:09.3    -367   -157    -96    400    412 246.8 -13.6  34196  290.19 0854.61
2009/04/23 13:16:09.4    -458    -93   -107    468    481 258.5 -12.9  34186  290.00 0854.61
2009/04/23 13:16:09.5    -468    -87     35    476    478 259.4   4.2  34204  290.32 0854.61
2009/04/23 13:16:09.6    -308   -135     46    337    341 246.4   7.9  34198  290.21 0854.61
2009/04/23 13:16:09.7    -214   -212     28    302    304 225.3   5.4  34194  290.14 0854.61
2009/04/23 13:16:09.8     -21   -334     25    335    336 183.6   4.3  34194  290.16 0854.61
2009/04/23 13:16:09.9     -74   -348     33    356    358 192.1   5.3  34194  290.15 0854.61
2009/04/23 13:16:10.0     -29   -387   -139    389    414 184.4 -19.7  34184  289.99 0854.61
2009/04/23 13:16:10.1      87   -392    -81    402    411 167.4 -11.5  34186  290.02 0854.61
2009/04/23 13:16:10.2     169   -217    -98    276    294 142.1 -19.6  34188  290.05 0854.61
2009/04/23 13:16:10.3     233   -148     -8    277    278 122.4  -1.8  34188  290.03 0854.61
2009/04/23 13:16:10.4     191   -141    143    238    277 126.4  33.5  34188  290.05 0854.61
2009/04/23 13:16:10.5     118    -24    183    121    219 101.5  63.4  34190  290.08 0854.62
2009/04/23 13:16:10.6    -109     25    189    112    219 283.3  66.8  34194  290.14 0854.62
2009/04/23 13:16:10.7    -107      5    197    108    224 273.0  68.9  34186  290.02 0854.62
2009/04/23 13:16:10.8    -177     96    112    202    230 298.6  31.4  34190  290.09 0854.62
2009/04/23 13:16:10.9    -285      0    -22    286    287 270.1  -4.6  34186  290.02 0854.62
2009/04/23 13:16:11.0    -186     39    -65    191    201 281.9 -23.6  34184  289.99 0854.62
2009/04/23 13:16:11.1    -229     39    -39    233    237 279.7  -9.6  34184  289.98 0854.62
2009/04/23 13:16:11.2    -185      4     26    186    188 271.3   8.2  34188  290.06 0854.62
2009/04/23 13:16:11.3    -112      1     16    113    115 270.8   8.5  34182  289.94 0854.62
2009/04/23 13:16:11.4     -39     91     35    100    107 336.8  19.4  34188  290.04 0854.62
2009/04/23 13:16:11.5      37    183     64    187    198  11.6  18.9  34180  289.92 0854.62
2009/04/23 13:16:11.6     137     65    161    152    221  64.6  52.1  34184  289.99 0854.62
2009/04/23 13:16:11.7     108     26    146    112    184  76.3  58.7  34188  290.06 0854.62
2009/04/23 13:16:11.8     114    -13    131    115    174  96.6  54.3  34184  289.99 0854.62
2009/04/23 13:16:11.9     111    -83     76    139    158 126.9  31.0  34190  290.09 0854.62
2009/04/23 13:16:12.0     153     15     58    154    164  84.3  21.3  34186  290.01 0854.62
2009/04/23 13:16:12.1     179      0    -48    180    187  90.0 -15.0  34186  290.01 0854.62
2009/04/23 13:16:12.2     173     -8    -31    174    177  92.8 -10.1  34184  289.99 0854.62
2009/04/23 13:16:12.3      83    -84    -47    119    127 135.3 -27.4  34188  290.04 0854.62
2009/04/23 13:16:12.4     116    -84    -39    144    150 125.9 -15.4  34186  290.02 0854.62
2009/04/23 13:16:12.5     263    -58    -76    270    280 102.6 -20.4  34184  289.97 0854.61
2009/04/23 13:16:12.6     281    -92    111    296    316 108.2  21.5  34180  289.92 0854.61
2009/04/23 13:16:12.7     249   -132    183    282    336 118.0  36.0  34182  289.95 0854.61
2009/04/23 13:16:12.8     133   -123    262    182    319 132.7  62.0  34190  290.07 0854.61
2009/04/23 13:16:12.9     268   -102    161    287    329 110.9  31.9  34188  290.03 0854.61
2009/04/23 13:16:13.0     112    -37    155    119    195 108.6  58.5  34176  289.84 0854.61
2009/04/23 13:16:13.1       4    -34    155     35    158 172.0  87.7  34192  290.13 0854.61
2009/04/23 13:16:13.2       0   -356    262    357    442 180.0  39.9  34174  289.82 0854.61
2009/04/23 13:16:13.3     -58   -334    158    340    374 189.9  26.9  34184  289.98 0854.61
2009/04/23 13:16:13.4     201   -288   -121    352    373 145.0 -19.0  34172  289.79 0854.61
2009/04/23 13:16:13.5     277   -111    -49    299    304 111.8  -9.4  34184  289.97 0854.61
2009/04/23 13:16:13.6     315   -104     27    332    334 108.4   4.7  34184  289.98 0854.61
2009/04/23 13:16:13.7     310    -61     80    317    328 101.2  14.3  34184  289.97 0854.61
2009/04/23 13:16:13.8     233    -93      0    252    253 111.8   0.0  34184  289.97 0854.61
2009/04/23 13:16:13.9     192     25     96    194    216  82.5  28.2  34184  289.99 0854.61
2009/04/23 13:16:14.0     148    -59     40    160    166 111.8  14.3  34186  290.01 0854.61
2009/04/23 13:16:14.1     112    -60     61    128    141 118.4  27.2  34186  290.01 0854.61
2009/04/23 13:16:14.2      -1     -6     74      7     74 189.7  90.0  34188  290.06 0854.61
2009/04/23 13:16:14.3     -33     33     21     47     51 315.0  26.2  34188  290.06 0854.61
2009/04/23 13:16:14.4      23     40     -5     47     48  30.7  -6.2  34190  290.08 0854.61
2009/04/23 13:16:14.5      -8     26    -11     28     30 341.3 -25.4  34190  290.08 0854.59
2009/04/23 13:16:14.6     -50     63    -29     81     87 321.3 -19.7  34192  290.11 0854.59
2009/04/23 13:16:14.7     -84     30     41     90     98 290.0  26.2  34186  290.02 0854.59
2009/04/23 13:16:14.8    -100     63     43    119    126 302.5  20.4  34190  290.08 0854.59
2009/04/23 13:16:14.9     -59     42     10     73     74 305.9   8.0  34188  290.06 0854.59
2009/04/23 13:16:15.0     -42     15     37     45     58 290.0  43.8  34188  290.04 0854.59
2009/04/23 13:16:15.1     -25      2     43     26     50 276.1  65.7  34190  290.08 0854.59
2009/04/23 13:16:15.2      46    -20     13     51     53 113.5  14.3  34190  290.08 0854.59
2009/04/23 13:16:15.3     100    -33    -29    106    111 108.2 -15.5  34186  290.02 0854.59
2009/04/23 13:16:15.4     144     17     22    146    148  83.0   8.9  34180  289.92 0854.59
2009/04/23 13:16:15.5     122     46    105    131    167  69.2  43.0  34182  289.96 0854.59
2009/04/23 13:16:15.6      79     74     49    109    119  46.8  25.7  34180  289.92 0854.59
2009/04/23 13:16:15.7      12   -286     57    130    141 360.0  25.1  34186  290.02 0854.59
2009/04/23 13:16:15.8      26    118     67    121    138  12.5  31.4  34188  290.06 0854.59
2009/04/23 13:16:15.9      79    124    -29    148    151  32.5 -11.3  34180  289.91 0854.59
2009/04/23 13:16:16.0      63     65    140     91    166  44.1  64.1  34192  290.11 0854.59
2009/04/23 13:16:16.1      97     78     65    125    140  51.4  29.3  34192  290.11 0854.59
2009/04/23 13:16:16.2      71     54     31     90     96  52.7  19.4  34190  290.09 0854.59
2009/04/23 13:16:16.3      91    165    -82    189    206  28.9 -29.5  34210  290.43 0854.59
2009/04/23 13:16:16.4      51    154    -95    163    188  18.3 -37.3  34210  290.41 0854.59
2009/04/23 13:16:16.5     153    179    -42    236    240  40.5 -10.3  34200  290.26 0854.57
2009/04/23 13:16:16.6     239     90     21    256    258  69.2   4.9  34218  290.56 0854.57
2009/04/23 13:16:16.7     294     13     25    295    297  87.4   4.9  34240  290.93 0854.57
2009/04/23 13:16:16.8     374    125    136    395    419  71.5  19.1  34236  290.87 0854.57
2009/04/23 13:16:16.9     414    272     71    496    502  56.7   8.2  34194  290.15 0854.57
2009/04/23 13:16:17.0     471    269     95    543    552  60.3  10.0  34196  290.19 0854.57
2009/04/23 13:16:17.1     559    376    159    674    693  56.1  13.3  34230  290.75 0854.57
2009/04/23 13:16:17.2     574    286    114    642    653  63.5  10.1  34218  290.57 0854.57
2009/04/23 13:16:17.3     533    293    -46    609    611  61.2  -4.4  34226  290.70 0854.57
2009/04/23 13:16:17.4     375    412     65    558    562  42.3   6.7  34230  290.77 0854.57
2009/04/23 13:16:17.5     445    336    160    558    581  52.9  16.0  34242  290.97 0854.57
2009/04/23 13:16:17.6     485    356    321    602    682  53.7  30.5  34260  291.26 0854.57
2009/04/23 13:16:17.7     521    231    218    570    610  66.1  22.0  34238  290.90 0854.57
2009/04/23 13:16:17.8     635    120    142    647    663  79.3  12.4  34260  291.26 0854.57
2009/04/23 13:16:17.9     492    126    209    508    549  75.6  23.7  34248  291.08 0854.57
2009/04/23 13:16:18.0     563    232    336    609    695  67.6  31.3  34278  291.57 0854.57
2009/04/23 13:16:18.1     693    117    241    703    744  80.4  18.9  34252  291.15 0854.57
2009/04/23 13:16:18.2     494    233    399    547    677  64.7  39.7  34174  289.82 0854.57
2009/04/23 13:16:18.3     429    299    333    524    620  55.1  35.5  34182  289.93 0854.57
2009/04/23 13:16:18.4     352    321    292    477    559  47.6  34.4  34194  290.14 0854.57
2009/04/23 13:16:18.5     295    316    205    433    479  43.1  27.1  34178  289.88 0854.55
2009/04/23 13:16:18.6      12    476    312    477    569   1.5  36.4  34198  290.23 0854.55
2009/04/23 13:16:18.7    -186    156    185    243    305 310.0  41.2  34196  290.17 0854.55
2009/04/23 13:16:18.8    -266    -15    -33    267    270 266.7  -7.2  34184  289.98 0854.55
2009/04/23 13:16:18.9    -537     70   -269    542    605 277.5 -32.6  34168  289.71 0854.55
2009/04/23 13:16:19.0    -620      8   -298    621    688 270.8 -31.8  34164  289.65 0854.55
2009/04/23 13:16:19.1    -731   -114   -249    741    781 261.1 -23.7  34172  289.77 0854.55
2009/04/23 13:16:19.2    -583     36    -89    585    592 273.6  -8.7  34164  289.64 0854.55
2009/04/23 13:16:19.3    -695    162   -145    714    729 283.1 -11.5  34166  289.67 0854.55
2009/04/23 13:16:19.4    -585    155   -334    606    691 284.9 -35.7  34168  289.70 0854.55
2009/04/23 13:16:19.5    -470     90   -298    479    564 280.9 -39.3  34162  289.62 0854.55
2009/04/23 13:16:19.6    -572     59   -187    575    604 275.9 -23.2  34160  289.58 0854.55
2009/04/23 13:16:19.7    -441    -40   -246    443    506 264.8 -35.8  34156  289.50 0854.55
2009/04/23 13:16:19.8    -312    -43   -258    315    407 262.1 -48.0  34164  289.64 0854.55
2009/04/23 13:16:19.9    -265    -91   -239    281    368 251.0 -49.1  34174  289.81 0854.55
2009/04/23 13:16:20.0    -311    -90   -242    324    404 253.8 -45.0  34172  289.77 0854.55
2009/04/23 13:16:20.1    -240     -5   -215    241    322 268.7 -50.8  34178  289.88 0854.55
2009/04/23 13:16:20.2    -209    -18   -225    210    307 264.8 -56.6  34180  289.90 0854.55
2009/04/23 13:16:20.3    -420     10   -280    421    505 271.5 -41.1  34182  289.93 0854.55
2009/04/23 13:16:20.4    -396   -145   -296    423    516 249.8 -42.8  34176  289.83 0854.55
2009/04/23 13:16:20.5    -383   -128   -321    405    516 251.4 -46.7  34186  290.01 0854.55
2009/04/23 13:16:20.6    -284    -21   -234    285    368 265.6 -48.1  34182  289.94 0854.55
2009/04/23 13:16:20.7    -239    132   -272    274    386 298.9 -54.4  34172  289.79 0854.55
2009/04/23 13:16:20.8    -515    138   -408    534    672 285.1 -45.7  34188  290.03 0854.55
2009/04/23 13:16:20.9    -530     16   -348    531    634 271.8 -40.7  34178  289.88 0854.55
2009/04/23 13:16:21.0    -335    -41   -306    338    455 263.0 -51.3  34180  289.90 0854.55
2009/04/23 13:16:21.1    -466   -216   -267    514    579 245.1 -33.9  34178  289.89 0854.55
2009/04/23 13:16:21.2    -350   -164   -413    387    565 244.8 -56.5  34174  289.81 0854.55
2009/04/23 13:16:21.3    -430   -456   -486    627    793 223.3 -46.1  34178  289.89 0854.55
2009/04/23 13:16:21.4     -40   -365   -163    368    402 186.3 -30.0  34172  289.76 0854.54
2009/04/23 13:16:21.5    -102   -255    146    275    311 201.9  30.3  34176  289.85 0854.54
2009/04/23 13:16:21.6    -458   -526    190    698    724 221.0  15.3  34182  289.94 0854.54
2009/04/23 13:16:21.7    -628   -574     14    851    852 227.6   1.0  34180  289.92 0854.54
2009/04/23 13:16:21.8    -504   -561   -165    755    774 221.9 -12.4  34178  289.89 0854.54
2009/04/23 13:16:21.9    -428   -792     69    901    904 208.4   4.4  34172  289.78 0854.54
2009/04/23 13:16:22.0    -618   -228   -213    659    693 249.7 -17.9  34154  289.46 0854.54
2009/04/23 13:16:22.1    -787   -321   -118    850    858 247.8  -7.9  34182  289.93 0854.54
2009/04/23 13:16:22.2    -783   -487   -157    923    937 238.1  -9.7  34178  289.86 0854.54
2009/04/23 13:16:22.3    -722   -355    -44    805    807 243.8  -3.2  34160  289.57 0854.54
2009/04/23 13:16:22.4    -717   -368   -161    806    823 242.8 -11.3  34184  289.99 0854.54
2009/04/23 13:16:22.5    -944   -432   -179   1039   1055 245.4  -9.8  34200  290.24 0854.54
2009/04/23 13:16:22.6    -811   -280   -311    859    913 250.9 -25.3  34178  289.89 0854.54
2009/04/23 13:16:22.7    -930   -251   -291    964   1006 254.9 -21.7  34172  289.78 0854.54
2009/04/23 13:16:22.8    -721   -241   -305    761    819 251.5 -27.5  34180  289.90 0854.54
2009/04/23 13:16:22.9    -930   -140   -222    941    967 261.4 -13.3  34186  290.02 0854.54
2009/04/23 13:16:23.0   -1014   -174   -321   1030   1078 260.2 -22.2  34172  289.78 0854.54
2009/04/23 13:16:23.1   -1056    119   -237   1063   1090 276.5 -12.6  34176  289.83 0854.54
2009/04/23 13:16:23.2    -883   -256   -219    920    946 253.8 -13.4  34182  289.93 0854.54
2009/04/23 13:16:23.3    -855    -50   -281    857    902 266.6 -18.2  34172  289.77 0854.54
2009/04/23 13:16:23.4    -762    139   -230    775    808 280.4 -21.4  34182  289.96 0854.56
2009/04/23 13:16:23.5    -985      0   -342    986   1043 270.0 -24.3  34172  289.76 0854.56
2009/04/23 13:16:23.6    -983     34   -306    984   1031 272.0 -17.3  34172  289.76 0854.56
2009/04/23 13:16:23.7    -571   -372   -208    682    714 236.9 -17.0  34166  289.69 0854.56
2009/04/23 13:16:23.8    -746   -232   -312    782    841 252.7 -27.4  34194  290.16 0854.56
2009/04/23 13:16:23.9    -585   -259   -180    641    665 246.1 -20.3  34184  289.99 0854.56
2009/04/23 13:16:24.0    -602     12     17    603    604 271.2   1.7  34192  290.12 0854.56
2009/04/23 13:16:24.1    -701    -77   -156    706    724 263.7 -12.5  34194  290.15 0854.56
2009/04/23 13:16:24.2    -787    266   -152    831    845 288.7 -10.4  34198  290.21 0854.56
2009/04/23 13:16:24.3    -625    382     51    733    735 301.4   4.0  34184  289.97 0854.56
2009/04/23 13:16:24.4    -654    240    -89    697    703 290.2  -7.3  34184  289.98 0854.56
2009/04/23 13:16:24.5    -737     93   -291    743    797 277.2 -26.9  34190  290.08 0854.56
2009/04/23 13:16:24.6    -514    278   -195    585    616 298.4 -23.6  34200  290.25 0854.56
2009/04/23 13:16:24.7    -394    442   -240    593    639 318.3 -27.8  34200  290.25 0854.56
2009/04/23 13:16:24.8    -298    348   -101    459    471 319.4 -12.5  34196  290.17 0854.56
2009/04/23 13:16:24.9    -429    401     39    588    590 313.1   3.8  34194  290.15 0854.56
2009/04/23 13:16:25.0    -440    315     19    542    543 305.6   2.1  34190  290.07 0854.56
2009/04/23 13:16:25.1    -535    -29     50    536    539 266.9   5.4  34192  290.11 0854.56
2009/04/23 13:16:25.2    -587    125     85    601    608 282.0   8.1  34192  290.10 0854.56
2009/04/23 13:16:25.3    -545     61    -33    549    550 276.5  -3.5  34186  290.02 0854.56
2009/04/23 13:16:25.4    -553    351    -71    655    659 302.4  -6.3  34200  290.24 0854.57
2009/04/23 13:16:25.5    -432    452   -127    626    639 316.3 -11.5  34198  290.21 0854.57
2009/04/23 13:16:25.6    -283    522   -174    594    618 331.5 -21.1  34210  290.41 0854.57
2009/04/23 13:16:25.7    -151    549    -77    570    576 344.6  -7.7  34206  290.36 0854.57
2009/04/23 13:16:25.8     -91    540    -73    548    553 350.4  -7.7  34200  290.26 0854.57
2009/04/23 13:16:25.9    -387    505   -208    637    671 322.5 -18.1  34192  290.10 0854.57
2009/04/23 13:16:26.0    -289    327   -207    437    483 318.6 -31.6  34198  290.23 0854.57
2009/04/23 13:16:26.1      41    394   -125    397    416   6.0 -22.6  34206  290.34 0854.57
2009/04/23 13:16:26.2     -75    459   -135    466    486 350.7 -16.2  34188  290.03 0854.57
2009/04/23 13:16:26.3     -86    638   -166    644    666 352.3 -14.5  34200  290.24 0854.57
2009/04/23 13:16:26.4      78    457    -48    464    467   9.7  -6.0  34200  290.25 0854.57
2009/04/23 13:16:26.5     -21    534    272    535    600 357.7  29.2  34200  290.24 0854.57
2009/04/23 13:16:26.6     134    359    -29    384    386  20.6  -4.4  34200  290.25 0854.57
2009/04/23 13:16:26.7      33    433   -179    435    470   4.5 -28.1  34174  289.80 0854.57
2009/04/23 13:16:26.8     -48    172    179    179    253 344.4  50.1  34208  290.38 0854.57
2009/04/23 13:16:26.9    -246     -3     67    247    257 269.2  15.3  34190  290.07 0854.57
2009/04/23 13:16:27.0    -360   -127     59    382    387 250.5   8.9  34208  290.38 0854.57
2009/04/23 13:16:27.1    -223     68   -107    234    257 286.9 -30.6  34208  290.37 0854.57
2009/04/23 13:16:27.2    -110     81    -66    137    152 306.4 -31.7  34210  290.43 0854.57
2009/04/23 13:16:27.3     -57    175     50    185    192 342.0  15.3  34210  290.43 0854.57
2009/04/23 13:16:27.4    -156    205     78    258    270 322.8  16.8  34234  290.82 0854.58
2009/04/23 13:16:27.5    -162     50     69    170    183 287.3  23.0  34230  290.77 0854.58
2009/04/23 13:16:27.6    -190    166     -3    253    254 311.3  -0.7  34204  290.32 0854.58
2009/04/23 13:16:27.7    -277    140    130    311    337 296.9  23.9  34208  290.38 0854.58
2009/04/23 13:16:27.8    -262    -55    206    268    338 258.1  41.4  34238  290.90 0854.58
2009/04/23 13:16:27.9    -187    -41    156    192    247 257.6  43.5  34254  291.16 0854.58
2009/04/23 13:16:28.0    -261    143    120    298    321 298.9  23.2  34250  291.10 0854.58
2009/04/23 13:16:28.1    -333     86     41    344    347 284.5   6.8  34260  291.27 0854.58
2009/04/23 13:16:28.2    -365     94     42    377    380 284.5   6.5  34260  291.28 0854.58
2009/04/23 13:16:28.3    -353    357    -27    503    504 315.4  -3.1  34218  290.54 0854.58
2009/04/23 13:16:28.4    -526    254   -106    585    595 295.8 -10.3  34200  290.24 0854.58
2009/04/23 13:16:28.5    -421    356    -69    552    557 310.2  -7.2  34204  290.33 0854.58
2009/04/23 13:16:28.6    -581    285   -171    648    671 296.1 -14.8  34214  290.49 0854.58
2009/04/23 13:16:28.7    -571    231     -6    617    618 292.1  -0.6  34204  290.32 0854.58
2009/04/23 13:16:28.8    -234    491   -161    545    569 334.5 -16.5  34228  290.74 0854.58
2009/04/23 13:16:28.9    -243    529   -180    583    610 335.3 -22.1  34244  291.00 0854.58
2009/04/23 13:16:29.0    -431    614   -267    751    798 324.9 -19.6  34232  290.80 0854.58
2009/04/23 13:16:29.1    -396    498   -247    637    683 321.5 -26.8  34196  290.17 0854.58
2009/04/23 13:16:29.2    -135    698   -311    712    776 349.0 -29.6  34218  290.57 0854.58
2009/04/23 13:16:29.3    -536    455   -370    704    795 310.3 -34.4  34216  290.51 0854.58
2009/04/23 13:16:29.4    -247    348   -281    427    511 324.6 -40.9  34214  290.49 0854.58
2009/04/23 13:16:29.5    -189    290   -287    347    450 326.8 -48.1  34196  290.19 0854.58
2009/04/23 13:16:29.6     -56    278   -225    284    362 348.4 -46.8  34214  290.49 0854.58
2009/04/23 13:16:29.7    -227    311   -164    386    419 323.9 -28.9  34238  290.90 0854.58
2009/04/23 13:16:29.8    -195    368   -142    417    440 332.0 -23.7  34236  290.87 0854.58
2009/04/23 13:16:29.9    -406    297    -60    504    508 306.2  -6.9  34222  290.64 0854.58
2009/04/23 13:16:30.0    -457    230   -125    512    528 296.8 -13.8  34230  290.77 0854.58
2009/04/23 13:16:30.1     -91    116     66    148    162 321.7  25.7  34208  290.38 0854.58
2009/04/23 13:16:30.2    -151    -11    224    152    270 265.6  62.8  34240  290.93 0854.58
2009/04/23 13:16:30.3     101     64    331    120    352  57.6  79.5  34254  291.16 0854.58
2009/04/23 13:16:30.4      61    140    263    153    304  23.7  67.2  34258  291.24 0854.58
2009/04/23 13:16:30.5     -19    250    249    251    353 355.6  49.9  34270  291.44 0854.58
2009/04/23 13:16:30.6    -205    192    129    282    310 313.1  26.4  34258  291.24 0854.58
2009/04/23 13:16:30.8      22    133    100    135    168   9.7  40.1  34246  291.04 0854.58
2009/04/23 13:16:30.9      -4    206     76    207    220 358.9  20.9  34250  291.09 0854.58
2009/04/23 13:16:30.9      84    153    128    175    216  28.7  39.7  34264  291.35 0854.58
2009/04/23 13:16:31.1     124    108    205    165    263  49.1  56.9  34268  291.41 0854.58
2009/04/23 13:16:31.2     135    152    160    204    259  41.7  42.2  34248  291.05 0854.58
2009/04/23 13:16:31.3      58    163    119    174    210  19.6  37.6  34256  291.20 0854.58
2009/04/23 13:16:31.4      79    222     98    236    255  19.8  24.1  34226  290.70 0854.58
2009/04/23 13:16:31.5     262    204    115    333    353  52.1  19.1  34230  290.76 0854.57
2009/04/23 13:16:31.6     132    143     16    195    196  42.8   5.0  34236  290.87 0854.57
2009/04/23 13:16:31.7      86    323    187    335    383  15.0  31.5  34262  291.30 0854.57
2009/04/23 13:16:31.8      90    378    244    389    459  13.4  35.3  34252  291.14 0854.57
2009/04/23 13:16:31.9     102    325    130    341    364  17.4  21.7  34240  290.94 0854.57
2009/04/23 13:16:32.0     253    323    146    411    436  38.0  20.3  34230  290.77 0854.57
2009/04/23 13:16:32.1     274    376    145    466    489  36.1  17.3  34234  290.83 0854.57
2009/04/23 13:16:32.2     216    186    306    286    418  49.3  52.1  34238  290.89 0854.57
2009/04/23 13:16:32.3     200    132    278    240    367  56.5  54.9  34244  291.01 0854.57
2009/04/23 13:16:32.4     143     76    272    163    317  62.0  66.4  34246  291.02 0854.57
2009/04/23 13:16:32.5    -103     57    129    118    174 298.9  53.0  34248  291.08 0854.57
2009/04/23 13:16:32.6    -132    195    262    236    352 325.7  53.4  34244  290.99 0854.57
2009/04/23 13:16:32.7    -261     23    209    263    335 275.2  42.6  34250  291.09 0854.57
2009/04/23 13:16:32.8    -104   -145    192    179    262 215.6  52.2  34236  290.85 0854.57
2009/04/23 13:16:32.9     -86   -211    238    229    330 202.3  51.1  34234  290.83 0854.57
2009/04/23 13:16:33.0    -165   -161    224    231    321 225.6  49.2  34230  290.76 0854.57
2009/04/23 13:16:33.1    -171     27    176    174    247 279.0  50.1  34240  290.92 0854.57
2009/04/23 13:16:33.2    -248      7    125    249    278 271.7  28.7  34234  290.82 0854.57
2009/04/23 13:16:33.3    -334      5     73    335    344 271.0  12.4  34220  290.59 0854.57
2009/04/23 13:16:33.4    -418    -62     50    423    426 261.5   6.8  34222  290.61 0854.57
2009/04/23 13:16:33.5    -158   -232     38    281    284 214.3   7.8  34214  290.48 0854.55
2009/04/23 13:16:33.6    -137   -297    224    328    397 204.8  37.6  34222  290.64 0854.55
2009/04/23 13:16:33.7     -43   -213    185    218    285 191.5  44.8  34220  290.59 0854.55
2009/04/23 13:16:33.8    -111   -187     32    218    221 210.8   8.5  34218  290.57 0854.55
2009/04/23 13:16:33.9     -43    -76    134     88    160 209.4  63.6  34222  290.64 0854.55
2009/04/23 13:16:34.0     -99    -55    162    114    198 241.1  61.5  34228  290.72 0854.55
2009/04/23 13:16:34.1     -96   -151    149    180    233 212.6  43.7  34216  290.53 0854.55
2009/04/23 13:16:34.2    -158    -91    124    183    221 240.0  37.4  34220  290.58 0854.55
2009/04/23 13:16:34.3    -103    -34    101    109    148 251.4  47.9  34224  290.67 0854.55
2009/04/23 13:16:34.4     -72    -24    122     76    143 251.4  64.7  34230  290.75 0854.55
2009/04/23 13:16:34.5    -158     13     50    159    167 274.8  17.7  34226  290.69 0854.55
2009/04/23 13:16:34.6    -255    118    141    282    315 294.8  28.5  34214  290.48 0854.55
2009/04/23 13:16:34.7    -200     28    -42    203    208 278.1 -11.9  34218  290.57 0854.55
2009/04/23 13:16:34.8     -95    -18    -29     97    102 259.0 -17.0  34220  290.58 0854.55
2009/04/23 13:16:34.9      -1     38     65     39     75 357.3  64.7  34220  290.58 0854.55
2009/04/23 13:16:35.0    -108     75     22    132    134 305.1   9.5  34218  290.55 0854.55
2009/04/23 13:16:35.1    -116     94    -38    150    155 309.1 -14.5  34198  290.21 0854.55
2009/04/23 13:16:35.2    -140     30    -35    144    149 282.4 -13.9  34196  290.18 0854.55
2009/04/23 13:16:35.3    -135    -97    135    167    214 234.1  43.5  34210  290.43 0854.55
2009/04/23 13:16:35.4     -33   -113    160    118    198 196.5  60.0  34228  290.74 0854.55
2009/04/23 13:16:35.5    -302   -237    233    384    449 231.9  34.1  34240  290.94 0854.53
2009/04/23 13:16:35.6    -294   -384    245    484    542 217.5  28.8  34224  290.65 0854.53
2009/04/23 13:16:35.7    -335   -212     61    397    402 237.6   8.8  34232  290.81 0854.53
2009/04/23 13:16:35.8    -317   -116     -2    338    339 249.9  -0.5  34232  290.79 0854.53
2009/04/23 13:16:35.9    -294   -157     82    334    344 241.8  13.8  34222  290.64 0854.53
2009/04/23 13:16:36.0    -369   -166    -46    405    408 245.7  -6.5  34222  290.63 0854.53
2009/04/23 13:16:36.1    -409   -189    -17    451    452 245.2  -2.2  34214  290.50 0854.53
2009/04/23 13:16:36.2    -445   -203    -65    490    495 245.5  -7.6  34216  290.51 0854.53
2009/04/23 13:16:36.3    -255   -212    -31    332    334 230.3  -5.5  34210  290.43 0854.53
2009/04/23 13:16:36.4    -265   -289    138    393    416 222.5  20.0  34218  290.56 0854.53
2009/04/23 13:16:36.5    -362   -199    106    414    428 241.2  14.4  34220  290.58 0854.53
2009/04/23 13:16:36.6    -259   -282     15    383    384 222.6   2.3  34206  290.35 0854.53
2009/04/23 13:16:36.7    -216   -351    148    413    438 211.6  20.6  34212  290.44 0854.53
2009/04/23 13:16:36.8    -185   -295    164    349    385 212.1  27.1  34216  290.52 0854.53
2009/04/23 13:16:36.9    -178   -312    170    360    398 209.7  27.1  34214  290.49 0854.53
2009/04/23 13:16:37.0    -171   -283    164    331    369 211.2  28.2  34216  290.52 0854.53
2009/04/23 13:16:37.1     -78   -288     73    299    308 195.2  13.8  34216  290.51 0854.53
2009/04/23 13:16:37.2     -90   -229     58    247    254 201.6  13.2  34210  290.42 0854.53
2009/04/23 13:16:37.3    -119   -116     94    167    191 225.6  31.6  34216  290.53 0854.53
2009/04/23 13:16:37.4    -153   -149    109    214    240 225.8  29.2  34220  290.58 0854.53
2009/04/23 13:16:37.5    -114   -226    116    254    279 206.7  26.2  34218  290.54 0854.51
2009/04/23 13:16:37.6     -97   -181    125    206    240 208.3  34.4  34214  290.50 0854.51
2009/04/23 13:16:37.7    -105   -231    115    254    278 204.5  26.2  34210  290.41 0854.51
2009/04/23 13:16:37.8     -65   -278     47    286    290 193.3   9.5  34198  290.20 0854.51
2009/04/23 13:16:37.9    -125   -202     71    238    249 211.7  16.6  34208  290.37 0854.51
2009/04/23 13:16:38.0     -98   -245    190    265    326 201.9  39.1  34222  290.63 0854.51
2009/04/23 13:16:38.1     -87   -250    199    265    331 199.2  40.6  34212  290.44 0854.51
2009/04/23 13:16:38.2     -59   -239    175    247    302 194.0  38.8  34222  290.63 0854.51
2009/04/23 13:16:38.3       0   -287    193    288    346 180.0  36.9  34220  290.58 0854.51
2009/04/23 13:16:38.4     -18   -335    197    336    389 183.1  33.3  34210  290.43 0854.51
2009/04/23 13:16:38.5      34   -236    102    239    259 171.8  24.3  34204  290.31 0854.51
2009/04/23 13:16:38.6     -38   -220     95    224    243 189.8  24.2  34210  290.41 0854.51
2009/04/23 13:16:38.7       4   -267    160    268    312 179.1  33.7  34206  290.34 0854.51
2009/04/23 13:16:38.8     -53   -288     99    293    310 190.5  18.8  34208  290.37 0854.51
2009/04/23 13:16:38.9     105   -241    -24    264    266 156.4  -5.2  34208  290.37 0854.51
2009/04/23 13:16:39.0      89    -89     80    127    150 134.9  35.5  34216  290.52 0854.51
2009/04/23 13:16:39.1     230    -63    131    239    272 105.5  31.3  34222  290.61 0854.51
2009/04/23 13:16:39.2     188    -58     79    197    212 107.3  23.0  34212  290.45 0854.51
2009/04/23 13:16:39.3     180    -86    111    200    228 115.8  31.4  34220  290.60 0854.51
2009/04/23 13:16:39.4     107   -185    133    215    252 149.9  35.0  34218  290.54 0854.51
2009/04/23 13:16:39.5    -188   -320     48    372    376 210.5   7.4  34176  289.84 0854.50
2009/04/23 13:16:39.6    -275   -373    -94    464    474 216.4 -11.5  34172  289.79 0854.50
2009/04/23 13:16:39.7    -446   -249   -102    512    523 240.8 -11.3  34172  289.79 0854.50
2009/04/23 13:16:39.8    -335    105    -42    352    355 287.5  -6.8  34182  289.94 0854.50
2009/04/23 13:16:39.9    -335    278     99    436    448 309.6  12.8  34182  289.94 0854.50
2009/04/23 13:16:40.0    -271     55    193    277    337 281.5  38.4  34192  290.10 0854.50
2009/04/23 13:16:40.1    -257    144    101    295    312 299.3  18.9  34202  290.27 0854.50
2009/04/23 13:16:40.2    -117    102     68    156    170 310.9  25.1  34190  290.09 0854.50
2009/04/23 13:16:40.3     -67    -92    173    114    207 216.1  63.9  34196  290.18 0854.50
2009/04/23 13:16:40.4     -19     23    103     30    107 320.4  83.3  34210  290.43 0854.50
2009/04/23 13:16:40.5     -22    -12    101     26    104 241.1  84.9  34204  290.33 0854.49
2009/04/23 13:16:40.6     -25      1    130     26    132 274.4  89.0  34206  290.36 0854.49
2009/04/23 13:16:40.7    -157    124    149    201    250 308.2  40.4  34182  289.95 0854.49
2009/04/23 13:16:40.8     -78     63    192    101    216 309.1  70.4  34192  290.11 0854.49
2009/04/23 13:16:40.9     -36    -10    123     38    128 253.2  82.7  34184  289.97 0854.49
2009/04/23 13:16:41.0     -91     58     57    108    122 302.5  29.8  34180  289.91 0854.49
2009/04/23 13:16:41.1     -84     77    -66    115    132 312.7 -36.8  34174  289.80 0854.49
2009/04/23 13:16:41.2    -173    141     33    224    227 309.3   8.5  34174  289.82 0854.49
2009/04/23 13:16:41.3    -125    185    104    224    246 325.8  26.6  34174  289.80 0854.49
2009/04/23 13:16:41.4     -57    259    112    266    288 347.6  24.2  34178  289.88 0854.49
2009/04/23 13:16:41.5     -21    121   -181    123    218 349.8 -67.0  34178  289.89 0854.49
2009/04/23 13:16:41.6     -39     27     -3     48     49 305.1  -4.1  34180  289.91 0854.49
2009/04/23 13:16:41.7     -12     36    -56     38     67 341.5 -67.0  34180  289.92 0854.49
2009/04/23 13:16:41.8    -136   -151    -83    204    220 221.9 -27.5  34182  289.94 0854.49
2009/04/23 13:16:41.9    -352    -79    -14    361    362 257.3  -2.2  34192  290.10 0854.49
2009/04/23 13:16:42.0    -362    -73   -115    370    387 258.5 -22.4  34184  289.99 0854.49
2009/04/23 13:16:42.1    -259   -117    -94    285    301 245.6 -18.3  34186  290.00 0854.49
2009/04/23 13:16:42.2    -261   -123    -86    289    302 244.6 -16.6  34184  289.98 0854.49
2009/04/23 13:16:42.3    -176    -16   -142    177    226 264.5 -47.7  34182  289.96 0854.49
2009/04/23 13:16:42.4    -313   -148   -124    347    369 244.7 -19.7  34184  289.98 0854.49
2009/04/23 13:16:42.5    -266   -209    -95    339    353 231.9 -15.7  34178  289.89 0854.50
2009/04/23 13:16:42.6    -171   -267    -75    318    327 212.6 -13.4  34190  290.09 0854.50
2009/04/23 13:16:42.7    -208   -216   -107    301    320 223.9 -19.6  34190  290.09 0854.50
2009/04/23 13:16:42.8    -313   -211   -243    378    449 235.9 -40.0  34190  290.07 0854.50
2009/04/23 13:16:42.9    -283    -66   -220    291    364 256.8 -45.3  34196  290.18 0854.50
2009/04/23 13:16:43.0    -403   -360   -150    541    562 228.2 -15.5  34188  290.04 0854.50
2009/04/23 13:16:43.1    -172   -356   -106    396    411 205.9 -15.1  34190  290.07 0854.50
2009/04/23 13:16:43.2    -342    -73   -144    350    378 257.9 -27.9  34184  289.99 0854.50
2009/04/23 13:16:43.3    -318   -275   -149    421    446 229.1 -24.6  34186  290.00 0854.50
2009/04/23 13:16:43.4    -345      0   -108    346    362 270.0 -22.5  34198  290.23 0854.50
2009/04/23 13:16:43.5    -222    -31   -140    225    265 261.9 -39.6  34196  290.19 0854.50
2009/04/23 13:16:43.6      33   -134   -105    139    174 166.2 -45.3  34194  290.14 0854.50
2009/04/23 13:16:43.7     110   -136     20    176    178 141.0   6.7  34194  290.14 0854.50
2009/04/23 13:16:43.8      13   -177     21    178    180 175.8   6.9  34192  290.13 0854.50
2009/04/23 13:16:43.9    -100   -211    -56    234    241 205.5 -13.7  34198  290.20 0854.50
2009/04/23 13:16:44.0    -109   -328     41    346    349 198.4   6.9  34202  290.28 0854.50
2009/04/23 13:16:44.1    -299   -338     18    452    453 221.5   2.4  34200  290.24 0854.50
2009/04/23 13:16:44.2    -371   -358   -123    516    531 226.0 -13.4  34194  290.14 0854.50
2009/04/23 13:16:44.3    -352   -335     38    486    488 226.4   4.6  34192  290.13 0854.50
2009/04/23 13:16:44.4    -295   -275   -132    404    426 227.0 -18.2  34186  290.02 0854.50
2009/04/23 13:16:44.5    -241   -366    -46    439    442 213.4  -6.1  34190  290.09 0854.54
2009/04/23 13:16:44.6    -203   -377   -112    429    444 208.3 -14.7  34188  290.04 0854.54
2009/04/23 13:16:44.7    -149   -305    -31    340    342 206.1  -5.3  34188  290.04 0854.54
2009/04/23 13:16:44.8     -34   -224     88    227    243 188.7  22.0  34196  290.19 0854.54
2009/04/23 13:16:44.9     -52   -328    -13    333    334 189.0  -2.2  34194  290.16 0854.54
2009/04/23 13:16:45.0     -24   -292     20    294    295 184.7   3.9  34198  290.22 0854.54
2009/04/23 13:16:45.1      33   -217    -76    220    233 171.3 -19.1  34196  290.18 0854.54
2009/04/23 13:16:45.2       1   -351     51    352    356 179.8   8.3  34202  290.27 0854.54
2009/04/23 13:16:45.3      -8   -338     48    339    343 181.5   8.1  34194  290.15 0854.54
2009/04/23 13:16:45.4     -77   -332     22    341    342 193.1   3.8  34208  290.37 0854.54
2009/04/23 13:16:45.5     -58   -335    141    341    369 189.9  23.8  34194  290.16 0854.54
2009/04/23 13:16:45.6     -57   -365    130    370    392 188.9  20.1  34192  290.11 0854.54
2009/04/23 13:16:45.7      57   -371    140    376    401 171.2  21.4  34192  290.11 0854.54
2009/04/23 13:16:45.8      57   -372    129    377    399 171.3  18.9  34188  290.04 0854.54
2009/04/23 13:16:45.9      90   -348    147    360    388 165.4  23.2  34182  289.93 0854.54
2009/04/23 13:16:46.0     128   -307    123    333    354 157.3  21.1  34184  289.99 0854.54
2009/04/23 13:16:46.1     130   -350     49    374    378 159.5   7.5  34184  289.99 0854.54
2009/04/23 13:16:46.2     218   -418     -7    472    473 152.5  -0.9  34182  289.95 0854.54
2009/04/23 13:16:46.3     260   -371     97    454    465 145.0  12.2  34170  289.73 0854.54
2009/04/23 13:16:46.4     112   -327    117    346    366 161.0  18.8  34182  289.93 0854.54
2009/04/23 13:16:46.5     178   -339    173    384    421 152.3  26.0  34178  289.88 0854.58
2009/04/23 13:16:46.6      83   -377    198    387    434 167.5  29.3  34180  289.92 0854.58
2009/04/23 13:16:46.7      66   -353    152    360    390 169.4  24.2  34178  289.87 0854.58
2009/04/23 13:16:46.8      26   -431    243    432    495 176.5  31.9  34170  289.74 0854.58
2009/04/23 13:16:46.9     -14   -450    224    451    503 181.8  28.2  34172  289.78 0854.58
2009/04/23 13:16:47.0     -37   -437    218    439    490 184.9  28.4  34172  289.78 0854.58
2009/04/23 13:16:47.1      53   -400     67    404    410 172.4   9.4  34178  289.87 0854.58
2009/04/23 13:16:47.2      12   -407     20    408    409 178.2   2.9  34180  289.92 0854.58
2009/04/23 13:16:47.3     102   -424     94    437    448 166.4  12.2  34176  289.85 0854.58
2009/04/23 13:16:47.4      66   -471    135    476    495 172.0  15.9  34176  289.84 0854.58
2009/04/23 13:16:47.5      63   -531    160    535    559 173.1  16.7  34178  289.87 0854.58
2009/04/23 13:16:47.6     137   -518    187    536    567 165.1  20.0  34178  289.87 0854.58
2009/04/23 13:16:47.7     146   -573    208    592    627 165.7  20.2  34178  289.87 0854.58
2009/04/23 13:16:47.8      85   -548    287    555    624 171.1  29.5  34178  289.86 0854.58
2009/04/23 13:16:47.9      36   -385    200    387    435 174.6  29.3  34182  289.95 0854.58
2009/04/23 13:16:48.0      46   -492     72    495    501 174.6   8.3  34178  289.88 0854.58
2009/04/23 13:16:48.1      84   -586    167    593    617 171.8  15.8  34176  289.85 0854.58
2009/04/23 13:16:48.2      45   -653    213    655    689 176.0  18.0  34178  289.87 0854.58
2009/04/23 13:16:48.3     -35   -649    322    651    726 183.1  28.2  34178  289.86 0854.58
2009/04/23 13:16:48.4     -45   -557    330    559    649 184.7  33.3  34166  289.67 0854.60
2009/04/23 13:16:48.5     -24   -520    411    521    663 182.7  42.3  34180  289.91 0854.60
2009/04/23 13:16:48.6      11   -396    352    397    530 178.4  46.2  34174  289.81 0854.60
2009/04/23 13:16:48.7      25   -420    361    421    554 176.5  45.0  34186  290.00 0854.60
2009/04/23 13:16:48.8      42   -429    223    432    486 174.3  29.4  34182  289.95 0854.60
2009/04/23 13:16:48.9     -36   -470    168    472    501 184.4  20.4  34180  289.91 0854.60
2009/04/23 13:16:49.0     -52   -559    255    562    617 185.4  26.2  34176  289.83 0854.60
2009/04/23 13:16:49.1    -102   -520    242    531    583 191.1  26.2  34174  289.80 0854.60
2009/04/23 13:16:49.2      -1   -366    250    367    444 180.3  37.6  34176  289.83 0854.60
2009/04/23 13:16:49.3     -90   -297    163    311    351 197.0  29.8  34178  289.89 0854.60
2009/04/23 13:16:49.4     -14   -317    244    318    400 182.6  41.5  34178  289.87 0854.60
2009/04/23 13:16:49.5    -116   -361    154    380    410 197.9  23.4  34176  289.84 0854.60
2009/04/23 13:16:49.6    -169   -386     55    422    426 203.7   7.4  34178  289.87 0854.60
2009/04/23 13:16:49.7    -330   -523    154    619    638 212.3  14.0  34174  289.82 0854.60
2009/04/23 13:16:49.8    -225   -465    346    517    622 205.9  37.0  34178  289.88 0854.60
2009/04/23 13:16:49.9    -159   -452    235    480    534 199.4  28.0  34178  289.86 0854.60
2009/04/23 13:16:50.0     -97   -346    220    360    421 195.7  34.4  34176  289.85 0854.60
2009/04/23 13:16:50.1    -142   -496    163    517    543 196.0  17.5  34170  289.75 0854.60
2009/04/23 13:16:50.2     -71   -359    192    366    413 191.2  30.0  34180  289.91 0854.60
2009/04/23 13:16:50.3    -112   -367    360    384    526 197.0  48.0  34182  289.96 0854.60
2009/04/23 13:16:50.4    -211   -484    127    529    545 203.6  13.5  34176  289.85 0854.61
2009/04/23 13:16:50.5    -259   -499     23    563    564 207.4   2.3  34178  289.87 0854.61
2009/04/23 13:16:50.6    -248   -536    -49    591    594 204.8  -4.8  34174  289.80 0854.61
2009/04/23 13:16:50.7    -207   -616     19    650    651 198.6   1.7  34172  289.79 0854.61
2009/04/23 13:16:50.8    -146   -560    -87    579    586 194.7  -8.6  34174  289.81 0854.61
2009/04/23 13:16:50.9    -151   -600     49    619    622 194.2   4.6  34174  289.81 0854.61
2009/04/23 13:16:51.0     -88   -490     50    498    501 190.2   5.8  34178  289.88 0854.61
2009/04/23 13:16:51.1    -131   -417     -8    438    439 197.5  -1.2  34176  289.83 0854.61
2009/04/23 13:16:51.2    -112   -333     96    352    365 198.6  15.3  34178  289.86 0854.61
2009/04/23 13:16:51.3    -283   -390    -31    483    484 216.0  -3.7  34166  289.66 0854.61
2009/04/23 13:16:51.4    -418    -27   -158    419    447 266.3 -26.0  34162  289.61 0854.61
2009/04/23 13:16:51.5    -405     39   -132    407    428 275.6 -18.0  34156  289.51 0854.61
2009/04/23 13:16:51.6    -188     23    -98    190    213 277.0 -33.7  34172  289.79 0854.61
2009/04/23 13:16:51.7    -220   -132      0    257    258 239.1   0.2  34160  289.56 0854.61
2009/04/23 13:16:51.8     -81   -273    -48    285    290 196.5  -9.6  34168  289.70 0854.61
2009/04/23 13:16:51.9     -79   -222     81    236    250 199.8  18.9  34174  289.80 0854.61
2009/04/23 13:16:52.0     -42   -139     51    146    155 197.0  19.4  34170  289.75 0854.61
2009/04/23 13:16:52.1     -16    -85    123     87    150 190.7  61.1  34178  289.87 0854.61
2009/04/23 13:16:52.2     -70    -68     95     98    136 225.6  49.9  34178  289.87 0854.61
2009/04/23 13:16:52.3      32      0     87     33     93  90.0  78.6  34180  289.91 0854.61
2009/04/23 13:16:52.4      24    -52     58     58     82 154.7  50.1  34174  289.80 0854.65
2009/04/23 13:16:52.5     -44     22     23     50     55 297.1  27.1  34182  289.94 0854.65
2009/04/23 13:16:52.6     -65     82      1    105    106 321.7   0.8  34180  289.91 0854.65
2009/04/23 13:16:52.7     -40    -23     -8     47     48 240.2 -10.3  34178  289.87 0854.65
2009/04/23 13:16:52.8    -180    -67    -24    193    195 249.6  -7.3  34176  289.84 0854.65
2009/04/23 13:16:52.9    -459   -151   -143    484    504 251.8 -21.2  34156  289.49 0854.65
2009/04/23 13:16:53.0    -436    -22   -185    437    474 267.1 -28.7  34154  289.46 0854.65
2009/04/23 13:16:53.1    -419    -12   -257    420    492 268.3 -38.8  34158  289.54 0854.65
2009/04/23 13:16:53.2    -561   -118   -181    574    602 258.1 -17.5  34164  289.63 0854.65
2009/04/23 13:16:53.3    -619    -42   -206    621    654 266.1 -23.6  34164  289.64 0854.65
2009/04/23 13:16:53.4    -619    -75   -254    624    673 263.0 -27.9  34160  289.56 0854.65
2009/04/23 13:16:53.5    -531     -8   -275    532    598 269.1 -33.7  34154  289.47 0854.65
2009/04/23 13:16:53.6    -464    -94   -248    474    534 258.5 -34.3  34164  289.64 0854.65
2009/04/23 13:16:53.7    -387   -239   -252    456    520 238.3 -35.8  34172  289.79 0854.65
2009/04/23 13:16:53.8    -406   -135   -275    428    508 251.6 -40.1  34170  289.74 0854.65
2009/04/23 13:16:53.9    -456    -36   -300    458    547 265.4 -40.9  34164  289.63 0854.65
2009/04/23 13:16:54.0    -375   -119   -207    394    445 252.4 -34.4  34160  289.56 0854.65
2009/04/23 13:16:54.1    -396   -163   -102    429    441 247.6 -13.4  34174  289.82 0854.65
2009/04/23 13:16:54.2    -389   -198   -125    437    454 243.0 -20.7  34174  289.82 0854.65
2009/04/23 13:16:54.3    -315    -85   -107    327    344 254.9 -23.5  34150  289.40 0854.65
2009/04/23 13:16:54.4     -95   -181    162    205    261 207.9  42.4  34170  289.73 0854.59
2009/04/23 13:16:54.5    -227   -124     32    259    262 241.4   7.2  34172  289.76 0854.59
2009/04/23 13:16:54.6    -183   -117     46    218    223 237.5  12.0  34172  289.79 0854.59
2009/04/23 13:16:54.7    -282    -63     85    290    303 257.4  16.3  34178  289.86 0854.59
2009/04/23 13:16:54.8    -171    -92    -11    195    196 241.6  -3.3  34178  289.89 0854.59
2009/04/23 13:16:54.9    -173      0     33    174    178 270.0  10.8  34178  289.89 0854.59
2009/04/23 13:16:55.0    -172   -183    -38    252    255 223.2  -8.6  34174  289.80 0854.59
2009/04/23 13:16:55.1    -383   -201   -163    433    462 242.2 -26.1  34168  289.72 0854.59
2009/04/23 13:16:55.2    -281   -285     -8    401    402 224.6  -1.2  34168  289.72 0854.59
2009/04/23 13:16:55.3    -201   -212    -21    293    294 223.4  -4.1  34172  289.76 0854.59
2009/04/23 13:16:55.4    -408   -200   -142    455    476 243.8 -22.3  34172  289.76 0854.59
2009/04/23 13:16:55.5    -350   -159   -133    385    408 245.5 -19.1  34168  289.71 0854.59
2009/04/23 13:16:55.6    -318   -381   -113    497    510 219.8 -12.9  34172  289.78 0854.59
2009/04/23 13:16:55.7    -261   -384   -135    465    484 214.3 -21.1  34166  289.66 0854.59
2009/04/23 13:16:55.8    -207   -373   -105    427    440 209.0 -13.9  34164  289.63 0854.59
2009/04/23 13:16:55.9    -228   -213   -143    313    344 226.9 -30.8  34162  289.59 0854.59
2009/04/23 13:16:56.0     -85   -245   -127    260    289 199.2 -32.2  34164  289.64 0854.59
2009/04/23 13:16:56.1    -177   -331   -103    376    391 208.2 -15.4  34162  289.59 0854.59
2009/04/23 13:16:56.2    -293   -270   -200    399    446 227.4 -33.0  34160  289.58 0854.59
2009/04/23 13:16:56.3    -285   -277   -121    398    415 225.8 -21.8  34166  289.68 0854.59
2009/04/23 13:16:56.4    -363   -200     27    415    416 241.1   3.7  34166  289.68 0854.55
2009/04/23 13:16:56.5    -254   -228     26    342    343 228.1   4.4  34164  289.64 0854.55
2009/04/23 13:16:56.6    -230   -252     53    342    347 222.3   8.8  34164  289.65 0854.55
2009/04/23 13:16:56.7    -294   -246     48    384    388 230.0   7.2  34168  289.71 0854.55
2009/04/23 13:16:56.8    -214   -256     65    335    342 219.9  11.0  34170  289.74 0854.55
2009/04/23 13:16:56.9    -202   -180     90    271    286 228.2  18.5  34172  289.78 0854.55
2009/04/23 13:16:57.0    -108   -295    156    315    351 200.1  28.4  34162  289.62 0854.55
2009/04/23 13:16:57.1     -77   -378    248    387    459 191.6  35.6  34164  289.65 0854.55
2009/04/23 13:16:57.2    -125   -182     48    222    228 214.5  12.4  34164  289.65 0854.55
2009/04/23 13:16:57.3     100   -239    137    260    293 157.2  30.1  34160  289.58 0854.55
2009/04/23 13:16:57.4    -130   -321    284    347    448 202.1  43.7  34180  289.90 0854.55
2009/04/23 13:16:57.5    -194   -258    218    324    390 217.0  37.3  34178  289.89 0854.55
2009/04/23 13:16:57.6     -25   -371    187    372    416 183.9  28.7  34160  289.58 0854.55
2009/04/23 13:16:57.7    -123   -417    183    436    472 196.5  24.1  34168  289.70 0854.55
2009/04/23 13:16:57.8    -193   -393    106    439    452 206.2  13.7  34172  289.77 0854.55
2009/04/23 13:16:57.9      30   -317     74    319    328 174.6  13.1  34168  289.71 0854.55
2009/04/23 13:16:58.1    -215   -264     95    341    355 219.2  15.6  34174  289.81 0854.55
2009/04/23 13:16:58.2    -229   -235     36    329    332 224.2   6.4  34176  289.84 0854.55
2009/04/23 13:16:58.3    -150   -255     41    296    299 210.5   8.0  34174  289.81 0854.55
2009/04/23 13:16:58.4    -120   -300    237    324    401 201.9  39.8  34174  289.82 0854.55
2009/04/23 13:16:58.5     -63   -278    232    286    368 192.9  43.4  34178  289.86 0854.49
2009/04/23 13:16:58.6      10   -234    287    235    370 177.4  56.5  34178  289.87 0854.49
2009/04/23 13:16:58.7      95   -323    249    337    419 163.6  40.0  34172  289.77 0854.49
2009/04/23 13:16:58.8     148   -320    209    353    410 155.2  33.5  34168  289.71 0854.49
2009/04/23 13:16:58.9     209   -373    142    428    452 150.7  18.4  34170  289.73 0854.49
2009/04/23 13:16:59.0      88   -372    186    383    425 166.6  27.8  34170  289.73 0854.49
2009/04/23 13:16:59.1      52   -278    203    283    348 169.4  39.3  34168  289.70 0854.49
2009/04/23 13:16:59.2      67   -192    130    204    241 160.6  35.6  34168  289.70 0854.49
2009/04/23 13:16:59.3      20   -152    138    154    206 172.4  46.4  34172  289.77 0854.49
2009/04/23 13:16:59.4      18   -100    128    102    163 169.3  57.5  34174  289.80 0854.49
2009/04/23 13:16:59.5      55    -55     88     79    118 135.0  53.3  34176  289.84 0854.49
2009/04/23 13:16:59.6      39   -117     90    124    153 161.3  39.7  34172  289.77 0854.49
2009/04/23 13:16:59.7     -86   -124    117    152    191 214.7  41.7  34170  289.74 0854.49
2009/04/23 13:16:59.8     -48   -133    142    142    200 200.1  50.1  34172  289.79 0854.49
2009/04/23 13:16:59.9     -42   -183    206    188    278 193.1  52.7  34180  289.92 0854.49
2009/04/23 13:17:00.0     -39   -207    186    211    281 190.7  45.9  34174  289.81 0854.49
2009/04/23 13:17:00.1    -150   -244     75    287    297 211.6  14.7  34174  289.81 0854.49
2009/04/23 13:17:00.2    -106   -208     81    234    248 207.1  19.2  34176  289.83 0854.49
2009/04/23 13:17:00.3    -220   -363    133    425    446 211.2  17.4  34174  289.82 0854.49
2009/04/23 13:17:00.4    -147   -362    182    391    431 202.2  26.9  34176  289.85 0854.49
2009/04/23 13:17:00.5    -168   -369     95    406    418 204.5  13.3  34168  289.72 0854.46
2009/04/23 13:17:00.6    -127   -282    100    310    326 204.3  18.0  34168  289.71 0854.46
2009/04/23 13:17:00.7    -210    -30     84    213    228 261.9  22.8  34174  289.82 0854.46
2009/04/23 13:17:00.8    -188    -21    -63    190    200 263.4 -23.8  34174  289.80 0854.46
2009/04/23 13:17:00.9    -149    -60     34    161    165 247.8  12.0  34180  289.92 0854.46
2009/04/23 13:17:01.0    -158   -147    159    217    269 227.1  39.7  34178  289.88 0854.46
2009/04/23 13:17:01.1    -256    -71     82    266    279 254.3  17.3  34178  289.86 0854.46
2009/04/23 13:17:01.2    -256    -93    159    273    315 250.0  32.9  34174  289.81 0854.46
2009/04/23 13:17:01.3    -240    -62    140    248    284 255.4  31.9  34178  289.86 0854.46
2009/04/23 13:17:01.4    -380   -141     67    406    412 249.6   9.5  34176  289.85 0854.46
2009/04/23 13:17:01.5    -145   -107     75    181    195 233.4  23.8  34176  289.85 0854.48
2009/04/23 13:17:01.6     -76    -76     38    108    115 225.0  19.4  34176  289.84 0854.48
2009/04/23 13:17:01.7      40    -49     73     64     97 140.4  54.3  34176  289.84 0854.48
2009/04/23 13:17:01.8      67   -196    147    208    254 161.1  38.8  34172  289.78 0854.48
2009/04/23 13:17:01.9     -46   -181    119    187    221 194.3  35.5  34174  289.80 0854.48
2009/04/23 13:17:02.0      -3   -166    150    167    224 181.1  46.6  34176  289.85 0854.48
2009/04/23 13:17:02.1      -4   -226    155    227    274 181.1  37.6  34174  289.81 0854.48
2009/04/23 13:17:02.2      17   -280    100    281    298 176.4  20.4  34172  289.78 0854.48
2009/04/23 13:17:02.3       2   -271     91    272    288 179.5  18.6  34170  289.73 0854.48
2009/04/23 13:17:02.4      19   -313     80    314    325 176.4  14.3  34170  289.73 0854.48
2009/04/23 13:17:02.5      65   -306    117    313    334 168.0  21.5  34170  289.75 0854.48
2009/04/23 13:17:02.6      80   -241     83    255    269 161.5  18.1  34172  289.78 0854.48
2009/04/23 13:17:02.7     -31   -288     79    290    301 186.3  15.3  34168  289.71 0854.48
2009/04/23 13:17:02.8       0   -332     41    333    336 180.0   7.1  34166  289.69 0854.48
2009/04/23 13:17:02.9      74   -321    128    330    353 166.9  22.4  34172  289.77 0854.48
2009/04/23 13:17:03.0      69   -272    104    281    299 165.7  21.0  34170  289.73 0854.48
2009/04/23 13:17:03.1      77   -279    148    290    325 164.6  29.2  34170  289.73 0854.48
2009/04/23 13:17:03.2     203   -318    137    378    402 147.5  20.8  34170  289.74 0854.48
2009/04/23 13:17:03.3     226   -215    190    312    365 133.6  34.3  34172  289.76 0854.48
2009/04/23 13:17:03.4     245   -263    155    360    391 137.0  24.8  34172  289.77 0854.48
2009/04/23 13:17:03.5     167   -162    202    233    308 134.2  45.4  34178  289.88 0854.49
2009/04/23 13:17:03.6     179   -218     54    283    289 140.6  10.8  34164  289.64 0854.49
2009/04/23 13:17:03.7      84   -193    -16    211    212 156.4  -4.4  34170  289.74 0854.49
2009/04/23 13:17:03.8       4   -231     14    232    233 178.9   3.6  34170  289.75 0854.49
2009/04/23 13:17:03.9     -48   -281     56    286    292 189.8  11.1  34174  289.80 0854.49
2009/04/23 13:17:04.0     -25   -245     21    247    248 186.0   5.0  34174  289.81 0854.49
2009/04/23 13:17:04.1     -66   -210    -65    221    231 197.6 -16.4  34170  289.75 0854.49
2009/04/23 13:17:04.2     -53   -217    -96    224    243 193.8 -29.3  34172  289.78 0854.49
2009/04/23 13:17:04.3     -42   -173    -55    179    187 193.8 -22.3  34170  289.75 0854.49
2009/04/23 13:17:04.4      -8   -206     88    207    224 182.2  24.6  34172  289.77 0854.49
2009/04/23 13:17:04.5    -293   -224      6    370    371 232.6   1.0  34174  289.82 0854.49
2009/04/23 13:17:04.6    -224   -203    122    303    326 227.7  23.2  34168  289.70 0854.49
2009/04/23 13:17:04.7    -113   -162    251    198    319 215.0  57.8  34174  289.80 0854.49
2009/04/23 13:17:04.8    -218   -316    124    384    404 214.6  17.9  34172  289.77 0854.49
2009/04/23 13:17:04.9    -246   -321     41    405    408 217.5   5.9  34172  289.77 0854.49
2009/04/23 13:17:05.0    -194   -177     51    263    268 227.7  11.0  34174  289.80 0854.49
2009/04/23 13:17:05.1     -84    -79     38    116    123 226.9  18.4  34172  289.77 0854.49
2009/04/23 13:17:05.2    -195   -388    164    435    464 206.7  21.6  34190  290.09 0854.49
2009/04/23 13:17:05.3    -167   -351     94    389    401 205.5  13.7  34188  290.06 0854.49
2009/04/23 13:17:05.4    -128   -354    215    377    433 200.0  32.3  34190  290.09 0854.49
2009/04/23 13:17:05.5    -129   -314     68    340    347 202.4  11.4  34182  289.94 0854.50
2009/04/23 13:17:05.6    -203   -384    185    435    472 207.9  24.5  34174  289.82 0854.50
2009/04/23 13:17:05.7     -83   -460    131    468    487 190.3  15.7  34170  289.74 0854.50
2009/04/23 13:17:05.8      22   -243     11    245    246 174.7   2.8  34174  289.81 0854.50
2009/04/23 13:17:05.9      63     -8   -176     64    187  97.9 -83.9  34172  289.79 0854.50
2009/04/23 13:17:06.0     -50    -74     11     90     91 213.8   7.5  34168  289.72 0854.50
2009/04/23 13:17:06.1      12     16    251     21    251  36.1  90.0  34170  289.75 0854.50
2009/04/23 13:17:06.2    -157    -60    226    169    282 249.2  59.6  34186  290.00 0854.50
2009/04/23 13:17:06.3    -209   -181    162    277    320 229.1  33.0  34184  289.97 0854.50
2009/04/23 13:17:06.4    -196   -120    163    231    282 238.5  38.6  34192  290.10 0854.50
2009/04/23 13:17:06.5    -404    -65    -27    410    411 260.8  -3.8  34190  290.07 0854.50
2009/04/23 13:17:06.6    -274    -38    160    277    319 262.1  32.8  34186  290.02 0854.50
2009/04/23 13:17:06.7    -378    -53    142    382    407 261.9  21.3  34194  290.16 0854.50
2009/04/23 13:17:06.8    -309    -77     83    319    330 255.9  14.6  34196  290.19 0854.50
2009/04/23 13:17:06.9    -234   -214    -11    318    319 227.6  -2.1  34192  290.12 0854.50
2009/04/23 13:17:07.0    -378    -72     29    385    387 259.2   4.4  34190  290.08 0854.50
2009/04/23 13:17:07.1    -183   -171    -36    251    254 226.9  -8.2  34192  290.10 0854.50
2009/04/23 13:17:07.2    -373   -245     11    447    448 236.6   1.5  34188  290.05 0854.50
2009/04/23 13:17:07.3    -471   -171    -83    502    509 250.0  -9.5  34188  290.05 0854.50
2009/04/23 13:17:07.4    -472   -261   -132    540    557 241.0 -13.8  34184  289.97 0854.50
2009/04/23 13:17:07.5    -410   -158     68    440    446 248.9   8.9  34186  290.00 0854.52
2009/04/23 13:17:07.6    -468   -119    -29    483    484 255.7  -3.5  34190  290.08 0854.52
2009/04/23 13:17:07.7    -477   -236    -85    533    540 243.7  -9.1  34190  290.09 0854.52
2009/04/23 13:17:07.8    -469   -268    -93    541    550 240.2  -9.8  34182  289.94 0854.52
2009/04/23 13:17:07.9    -436   -162     90    466    475 249.5  11.0  34174  289.81 0854.52
2009/04/23 13:17:08.0    -426   -203     70    472    478 244.5   8.5  34186  290.00 0854.52
2009/04/23 13:17:08.1    -401   -132    -46    423    426 251.7  -6.2  34188  290.05 0854.52
2009/04/23 13:17:08.2    -394   -204     53    444    448 242.6   6.9  34192  290.12 0854.52
2009/04/23 13:17:08.3    -396    -53     76    400    408 262.3  10.8  34180  289.90 0854.52
2009/04/23 13:17:08.4    -379   -114    116    396    413 253.2  16.4  34180  289.90 0854.52
2009/04/23 13:17:08.5    -313   -202    214    373    430 237.2  32.4  34180  289.92 0854.52
2009/04/23 13:17:08.6    -352   -264     54    440    444 233.1   7.1  34172  289.78 0854.52
2009/04/23 13:17:08.7    -312   -312    108    442    456 225.0  13.8  34176  289.83 0854.52
2009/04/23 13:17:08.8    -266   -245     95    362    375 227.3  14.7  34172  289.76 0854.52
2009/04/23 13:17:08.9    -236   -134     63    272    280 240.3  13.1  34180  289.92 0854.52
2009/04/23 13:17:09.0    -306   -200     27    366    367 236.8   4.3  34188  290.06 0854.52
2009/04/23 13:17:09.1    -112    -87    -18    143    145 232.2  -7.2  34188  290.06 0854.52
2009/04/23 13:17:09.2      21    -63    171     67    183 161.7  77.6  34182  289.94 0854.52
2009/04/23 13:17:09.3     -94   -172    104    197    222 208.7  30.3  34178  289.87 0854.52
2009/04/23 13:17:09.4    -156   -150     42    217    222 226.2  11.0  34178  289.87 0854.52
2009/04/23 13:17:09.5    -163    -59     18    174    175 250.0   6.1  34180  289.92 0854.53
2009/04/23 13:17:09.6    -198     31     46    201    207 279.0  12.9  34178  289.87 0854.53
2009/04/23 13:17:09.7    -178    -98    150    204    253 241.2  39.9  34176  289.85 0854.53
2009/04/23 13:17:09.8    -224     28    104    226    248 277.2  26.6  34176  289.85 0854.53
2009/04/23 13:17:09.9    -174    129    -76    217    231 306.6 -19.4  34180  289.91 0854.53
2009/04/23 13:17:10.0    -129    104    -51    166    173 308.9 -22.3  34186  290.02 0854.53
2009/04/23 13:17:10.1    -193    135    -64    236    245 305.1 -15.2  34178  289.86 0854.53
2009/04/23 13:17:10.2    -211     93     19    231    232 294.0   4.9  34182  289.94 0854.53
2009/04/23 13:17:10.3    -236    126     -9    268    269 298.2  -2.1  34182  289.93 0854.53
2009/04/23 13:17:10.4    -230    104    -26    253    255 294.4  -6.1  34180  289.90 0854.53
2009/04/23 13:17:10.5    -235     54     56    242    249 283.0  13.1  34186  290.00 0854.53
2009/04/23 13:17:10.6    -206     76    115    220    248 290.4  29.8  34190  290.09 0854.53
2009/04/23 13:17:10.7    -150    236     69    281    290 327.5  13.9  34174  289.80 0854.53
2009/04/23 13:17:10.8    -139    228     61    268    275 328.6  12.9  34178  289.88 0854.53
2009/04/23 13:17:10.9    -155    247    102    292    310 327.9  19.3  34172  289.76 0854.53
2009/04/23 13:17:11.0     -92    269    112    285    306 341.1  23.0  34184  289.97 0854.53
2009/04/23 13:17:11.1     -70    259    115    269    292 344.8  24.3  34192  290.10 0854.53
2009/04/23 13:17:11.2    -126    246    116    277    300 332.8  24.1  34206  290.36 0854.53
2009/04/23 13:17:11.3     -81    240     88    254    270 341.3  19.2  34218  290.56 0854.53
2009/04/23 13:17:11.4     -77    203     92    218    236 339.1  24.2  34214  290.50 0854.53
2009/04/23 13:17:11.5     -55    135    106    146    180 337.7  39.7  34208  290.38 0854.53
2009/04/23 13:17:11.6     -73    132     79    151    170 331.0  29.8  34222  290.64 0854.53
2009/04/23 13:17:11.7    -134    196    137    238    274 325.7  32.4  34230  290.76 0854.53
2009/04/23 13:17:11.8    -139    156    143    209    253 318.3  37.6  34232  290.78 0854.53
2009/04/23 13:17:11.9    -167    157    124    230    261 313.1  31.0  34226  290.70 0854.53
2009/04/23 13:17:12.0    -254    120     57    282    288 295.4  11.4  34226  290.70 0854.53
2009/04/23 13:17:12.1    -211    153     27    261    263 306.0   5.9  34248  291.05 0854.53
2009/04/23 13:17:12.2    -227    108      7    252    253 295.4   1.6  34254  291.16 0854.53
2009/04/23 13:17:12.3    -196    116     97    228    247 300.6  24.3  34288  291.75 0854.53
2009/04/23 13:17:12.4    -235    120     99    265    282 297.1  21.3  34296  291.89 0854.53
2009/04/23 13:17:12.5    -193    123    178    230    290 302.5  41.7  34300  291.94 0854.53
2009/04/23 13:17:12.6    -157     83     87    178    198 298.0  28.0  34308  292.10 0854.53
2009/04/23 13:17:12.7    -160    182    179    243    301 318.6  39.7  34304  292.01 0854.53
2009/04/23 13:17:12.8    -196    184    181    269    324 313.2  37.2  34300  291.96 0854.53
2009/04/23 13:17:12.9    -167    107    113    199    228 302.9  32.1  34300  291.95 0854.53
2009/04/23 13:17:13.0    -201    -18     31    202    205 264.8   8.9  34294  291.86 0854.53
2009/04/23 13:17:13.1    -138     -5    -17    139    141 267.9  -7.2  34294  291.86 0854.53
2009/04/23 13:17:13.2     -51    -97      1    110    111 207.6   0.8  34296  291.89 0854.53
2009/04/23 13:17:13.3       8    -90    159     91    183 174.7  67.7  34294  291.84 0854.53
2009/04/23 13:17:13.4      31      2    155     32    158  85.6  88.8  34294  291.86 0854.53
2009/04/23 13:17:13.5     126    -13    109    127    167  96.1  45.1  34258  291.23 0854.56
2009/04/23 13:17:13.6     167    -45    189    174    256 105.3  52.5  34240  290.94 0854.56
2009/04/23 13:17:13.7     143     24    221    146    264  80.4  63.6  34246  291.03 0854.56
2009/04/23 13:17:13.8     193     59    242    202    315  72.9  56.0  34254  291.16 0854.56
2009/04/23 13:17:13.9     142     -6    219    143    261  92.6  64.1  34250  291.09 0854.56
2009/04/23 13:17:14.0     138     55    241    149    283  68.3  65.4  34272  291.48 0854.56
2009/04/23 13:17:14.1     176     33    177    180    252  79.4  49.9  34266  291.37 0854.56
2009/04/23 13:17:14.2     168     94    215    193    288  60.7  53.5  34286  291.70 0854.56
2009/04/23 13:17:14.3     302    118    247    325    408  68.7  41.2  34288  291.76 0854.56
2009/04/23 13:17:14.4     409    135    213    431    480  71.7  28.2  34268  291.42 0854.56
2009/04/23 13:17:14.5     307    105    217    325    390  71.0  36.9  34270  291.45 0854.56
2009/04/23 13:17:14.6     216    210    158    302    340  45.8  30.0  34278  291.56 0854.56
2009/04/23 13:17:14.7     281    160    159    324    360  60.3  28.0  34284  291.68 0854.56
2009/04/23 13:17:14.8     196    184    153    269    309  46.8  32.1  34280  291.60 0854.56
2009/04/23 13:17:14.9     205    139    187    248    310  55.9  40.7  34290  291.78 0854.56
2009/04/23 13:17:15.0     180    216    205    282    348  39.7  39.7  34252  291.14 0854.56
2009/04/23 13:17:15.1     126    128    182    181    256  44.5  50.1  34264  291.34 0854.56
2009/04/23 13:17:15.2      86    219    193    236    304  21.4  43.7  34270  291.44 0854.56
2009/04/23 13:17:15.3     -18    145    148    147    208 352.9  50.1  34268  291.42 0854.56
2009/04/23 13:17:15.4      -4     52     50     53     72 355.5  48.0  34242  290.96 0854.50
2009/04/23 13:17:15.5     -23    112    127    115    171 348.4  53.3  34238  290.89 0854.50
2009/04/23 13:17:15.6     -84    156    163    178    241 331.7  47.1  34230  290.75 0854.50
2009/04/23 13:17:15.7    -129    183    144    225    267 324.8  35.6  34240  290.92 0854.50
2009/04/23 13:17:15.8    -127    167    111    210    237 322.8  30.2  34260  291.28 0854.50
2009/04/23 13:17:15.9      18      6    191     19    191  71.6  90.0  34264  291.35 0854.50
2009/04/23 13:17:16.0     289     -4    195    290    349  90.8  36.9  34284  291.69 0854.50
2009/04/23 13:17:16.1     377     42    230    380    444  83.5  34.1  34258  291.24 0854.50
2009/04/23 13:17:16.2     278    -22    246    279    371  94.6  45.9  34284  291.68 0854.50
2009/04/23 13:17:16.3     332     -2    229    333    404  90.4  37.8  34254  291.18 0854.50
2009/04/23 13:17:16.4     333      2    257    334    421  89.5  41.5  34250  291.10 0854.50
2009/04/23 13:17:16.5     419     31    172    421    454  85.7  23.4  34226  290.68 0854.50
2009/04/23 13:17:16.6     393     57    237    398    463  81.7  33.5  34254  291.18 0854.50
2009/04/23 13:17:16.7     375     65     98    381    394  80.1  14.5  34240  290.94 0854.50
2009/04/23 13:17:16.8     293     12     62    294    301  87.5  12.0  34232  290.78 0854.50
2009/04/23 13:17:16.9     340    -11    127    341    363  92.0  21.4  34232  290.79 0854.50
2009/04/23 13:17:17.0     344     22     40    345    348  86.2   6.7  34222  290.64 0854.50
2009/04/23 13:17:17.1     408    105     -2    422    423  75.5  -0.4  34218  290.56 0854.50
2009/04/23 13:17:17.2     375    123     41    395    398  71.8   6.0  34260  291.27 0854.50
2009/04/23 13:17:17.3     298    269     97    402    414  47.9  13.6  34272  291.46 0854.50
2009/04/23 13:17:17.4     285     71    -26    294    296  75.8  -5.2  34222  290.61 0854.47
2009/04/23 13:17:17.5     328     92     34    341    343  74.3   5.8  34230  290.77 0854.47
2009/04/23 13:17:17.6     395    183     -3    436    437  65.2  -0.5  34240  290.92 0854.47
2009/04/23 13:17:17.7     323    116    -43    344    347  70.2  -7.2  34240  290.94 0854.47
2009/04/23 13:17:17.8     316    110    109    335    353  70.7  18.1  34260  291.28 0854.47
2009/04/23 13:17:17.9     476     84     88    484    492  79.9  10.3  34248  291.05 0854.47
2009/04/23 13:17:18.0     434    -92    -89    444    453 102.1 -11.3  34236  290.87 0854.47
2009/04/23 13:17:18.1     353    -67    -32    360    362 100.8  -5.1  34252  291.15 0854.47
2009/04/23 13:17:18.2     317     74      0    326    327  76.8   0.1  34252  291.12 0854.47
2009/04/23 13:17:18.3     267    101     -1    286    287  69.2  -0.3  34248  291.05 0854.47
2009/04/23 13:17:18.4     241    122    -24    271    273  63.1  -5.2  34244  290.99 0854.47
2009/04/23 13:17:18.5     211    100     44    234    239  64.7  10.8  34258  291.22 0854.47
2009/04/23 13:17:18.6     190     90    130    211    247  64.5  34.5  34262  291.29 0854.47
2009/04/23 13:17:18.7     179    148    131    233    267  50.5  31.9  34260  291.26 0854.47
2009/04/23 13:17:18.8     137    160     41    211    216  40.5  11.1  34256  291.21 0854.47
2009/04/23 13:17:18.9     103    170     73    199    211  31.2  21.0  34264  291.33 0854.47
2009/04/23 13:17:19.0     277    121     76    303    313  66.4  14.2  34258  291.24 0854.47
2009/04/23 13:17:19.1     205    112     81    234    248  61.2  19.2  34268  291.39 0854.47
2009/04/23 13:17:19.2     100    125    -14    161    162  38.7  -5.2  34272  291.47 0854.47
2009/04/23 13:17:19.3      40    122    -16    129    131  18.3  -7.2  34272  291.49 0854.47
2009/04/23 13:17:19.4    -124    132    -36    182    186 316.8 -11.3  34268  291.40 0854.49
2009/04/23 13:17:19.6    -125    161    -59    205    214 322.2 -16.0  34222  290.64 0854.49
2009/04/23 13:17:19.6      -4    155    -94    156    182 358.2 -38.6  34240  290.92 0854.49
2009/04/23 13:17:19.7       1    129   -128    130    182   0.5 -54.4  34220  290.58 0854.49
2009/04/23 13:17:19.8    -188     -6   -158    189    246 267.9 -48.5  34190  290.08 0854.49
2009/04/23 13:17:19.9    -298    112    -57    319    325 290.7 -10.2  34220  290.59 0854.49
2009/04/23 13:17:20.0    -237     91   -140    255    290 291.1 -35.7  34178  289.86 0854.49
2009/04/23 13:17:20.1    -249     75   -140    261    296 286.8 -35.0  34170  289.75 0854.49
2009/04/23 13:17:20.2    -219    108   -129    245    276 296.2 -34.5  34172  289.78 0854.49
2009/04/23 13:17:20.3    -181     86   -140    201    244 295.4 -42.9  34172  289.77 0854.49
2009/04/23 13:17:20.4    -133     79   -177    155    235 300.7 -58.7  34176  289.84 0854.49
2009/04/23 13:17:20.5      18    112   -192    114    223   9.3 -71.1  34190  290.09 0854.49
2009/04/23 13:17:20.6     109    171   -193    203    280  32.5 -52.9  34182  289.93 0854.49
2009/04/23 13:17:20.8     153     -4   -205    154    256  91.7 -64.0  34192  290.11 0854.49
2009/04/23 13:17:20.8     214     11   -153    215    263  87.0 -43.5  34204  290.31 0854.49
2009/04/23 13:17:20.9     115    140      1    182    183  39.4   0.5  34206  290.35 0854.49
2009/04/23 13:17:21.0     -39    129     46    135    143 343.1  19.2  34212  290.47 0854.49
2009/04/23 13:17:21.1    -312      9    -34    313    315 271.7  -6.2  34222  290.61 0854.49
2009/04/23 13:17:21.2    -455    -23   -128    456    473 267.0 -20.4  34216  290.52 0854.49
2009/04/23 13:17:21.3    -395     40   -112    398    413 275.9 -20.4  34212  290.46 0854.49
2009/04/23 13:17:21.4    -376     72    -76    383    391 280.9 -11.2  34208  290.40 0854.46
2009/04/23 13:17:21.5    -393     11    139    394    418 271.6  19.5  34202  290.29 0854.46
2009/04/23 13:17:21.6    -344    -12     56    345    350 267.9   9.3  34212  290.45 0854.46
2009/04/23 13:17:21.7    -240   -143    101    280    298 239.3  19.9  34222  290.61 0854.46
2009/04/23 13:17:21.8    -255   -132    101    288    306 242.7  19.4  34210  290.42 0854.46
2009/04/23 13:17:21.9    -149   -103    109    182    212 235.4  34.0  34214  290.48 0854.46
2009/04/23 13:17:22.0     -48      6    208     49    213 277.9  86.9  34216  290.52 0854.46
2009/04/23 13:17:22.1     -20     67    168     71    182 343.1  76.1  34220  290.58 0854.46
2009/04/23 13:17:22.2     -15    -44    193     47    198 198.7  86.4  34224  290.67 0854.46
2009/04/23 13:17:22.3    -108   -106    222    152    269 225.6  62.6  34226  290.70 0854.46
2009/04/23 13:17:22.4    -139    -28    149    142    205 258.5  51.6  34224  290.65 0854.48
2009/04/23 13:17:22.5    -108   -186    129    216    251 210.1  33.7  34218  290.56 0854.48
2009/04/23 13:17:22.6    -223   -235    102    325    341 223.5  17.4  34234  290.83 0854.48
2009/04/23 13:17:22.7    -255   -253     63    360    366 225.2  10.0  34224  290.67 0854.48
2009/04/23 13:17:22.8    -252   -227     53    340    345 227.9   9.0  34232  290.79 0854.48
2009/04/23 13:17:22.9    -238   -230     40    332    335 226.0   6.9  34222  290.64 0854.48
2009/04/23 13:17:23.0    -291   -272      3    399    400 226.9   0.5  34212  290.47 0854.48
2009/04/23 13:17:23.1    -274   -252    -81    373    382 227.3 -12.3  34228  290.74 0854.48
2009/04/23 13:17:23.2    -219   -351    -57    414    418 212.0  -7.9  34204  290.31 0854.48
2009/04/23 13:17:23.3    -231   -338    -62    410    415 214.4  -8.6  34200  290.24 0854.48
2009/04/23 13:17:23.4    -264   -288    -64    391    397 222.5  -9.4  34208  290.38 0854.48
2009/04/23 13:17:23.5    -260   -251    -45    362    365 226.1  -7.2  34214  290.49 0854.48
2009/04/23 13:17:23.6    -335   -243    -71    415    422 234.0  -9.8  34220  290.58 0854.48
2009/04/23 13:17:23.7    -365   -229    -42    431    434 237.9  -5.6  34214  290.50 0854.48
2009/04/23 13:17:23.8    -324   -201     -2    382    383 238.3  -0.4  34218  290.57 0854.48
2009/04/23 13:17:23.9    -362   -167     -3    399    400 245.2  -0.5  34220  290.60 0854.48
2009/04/23 13:17:24.0    -331   -133    -87    357    368 248.1 -13.8  34224  290.67 0854.48
2009/04/23 13:17:24.1    -233   -234   -115    331    351 224.8 -19.3  34212  290.45 0854.48
2009/04/23 13:17:24.2    -192   -289   -125    348    370 213.6 -19.8  34198  290.23 0854.48
2009/04/23 13:17:24.3    -236   -125    -78    268    279 242.1 -21.2  34218  290.54 0854.48
2009/04/23 13:17:24.4    -291   -137    -40    322    325 244.8  -7.2  34210  290.42 0854.46
2009/04/23 13:17:24.5     -93   -358    -57    370    375 194.6  -8.8  34194  290.16 0854.46
2009/04/23 13:17:24.6    -198   -402    -39    449    451 206.3  -5.1  34192  290.11 0854.46
2009/04/23 13:17:24.7     -95   -337     -5    351    352 195.8  -0.9  34192  290.11 0854.46
2009/04/23 13:17:24.8     -38   -320     10    323    324 186.9   1.9  34200  290.24 0854.46
2009/04/23 13:17:24.9     -66   -280      4    288    289 193.4   0.8  34208  290.37 0854.46
2009/04/23 13:17:25.0    -145   -346     28    376    377 202.7   4.4  34196  290.18 0854.46
2009/04/23 13:17:25.1    -121   -307    -24    331    332 201.5  -4.2  34184  289.99 0854.46
2009/04/23 13:17:25.2    -395   -218    -91    452    462 241.1 -11.5  34190  290.09 0854.46
2009/04/23 13:17:25.3    -388   -245   -150    460    484 237.7 -18.1  34192  290.10 0854.46
2009/04/23 13:17:25.4    -277   -400    -67    487    492 214.7  -7.9  34196  290.18 0854.46
2009/04/23 13:17:25.5    -203   -394    -14    444    445 207.3  -1.9  34200  290.26 0854.46
2009/04/23 13:17:25.6    -113   -301     42    322    325 200.6   7.5  34204  290.32 0854.46
2009/04/23 13:17:25.7    -147   -259     19    298    299 209.6   3.8  34200  290.26 0854.46
2009/04/23 13:17:25.9    -245   -193      9    312    313 231.8   1.8  34212  290.46 0854.46
2009/04/23 13:17:26.0    -163   -103    -21    194    196 237.6  -6.2  34210  290.43 0854.46
2009/04/23 13:17:26.1    -126   -125    -30    178    181 225.2  -9.8  34214  290.48 0854.46
2009/04/23 13:17:26.2    -225   -365    -55    430    434 211.7  -7.4  34190  290.09 0854.46
2009/04/23 13:17:26.3     -93   -407    -65    418    424 192.9  -8.9  34188  290.05 0854.46
2009/04/23 13:17:26.4     -83   -309     55    320    325 195.1   9.9  34188  290.05 0854.46
2009/04/23 13:17:26.5    -103   -298     57    316    322 199.1  10.2  34194  290.15 0854.41
2009/04/23 13:17:26.6    -193   -264     16    328    329 216.1   2.8  34196  290.17 0854.41
2009/04/23 13:17:26.7    -166   -276     83    323    334 211.0  14.4  34182  289.96 0854.41
2009/04/23 13:17:26.8    -150   -267    153    307    343 209.4  28.4  34186  290.01 0854.41
2009/04/23 13:17:26.9    -152   -261     32    303    305 210.3   6.1  34186  290.02 0854.41
2009/04/23 13:17:27.0    -147   -273     84    311    323 208.3  15.1  34190  290.09 0854.41
2009/04/23 13:17:27.1    -228   -232      6    326    327 224.5   1.2  34190  290.07 0854.41
2009/04/23 13:17:27.2    -240   -254    -41    350    353 223.4  -6.7  34188  290.06 0854.41
2009/04/23 13:17:27.3    -256   -202     17    327    328 231.8   3.1  34190  290.07 0854.41
2009/04/23 13:17:27.4    -278   -172    -90    328    340 238.2 -20.0  34196  290.18 0854.41
2009/04/23 13:17:27.5    -349   -192   -195    399    444 241.1 -32.3  34182  289.94 0854.41
2009/04/23 13:17:27.6    -411    -40   -222    414    469 264.3 -34.9  34186  290.00 0854.41
2009/04/23 13:17:27.7    -291   -380   -168    479    508 217.5 -19.4  34178  289.89 0854.41
2009/04/23 13:17:27.8    -284   -304     -8    417    418 223.0  -1.2  34184  289.99 0854.41
2009/04/23 13:17:27.9    -244   -242    -69    344    351 225.2 -11.5  34188  290.04 0854.41
2009/04/23 13:17:28.0    -243   -240    -98    342    355 225.3 -20.7  34184  289.98 0854.41
2009/04/23 13:17:28.1    -222   -301   -106    375    389 216.4 -20.4  34188  290.03 0854.41
2009/04/23 13:17:28.2    -207   -354   -144    411    436 210.3 -19.3  34186  290.02 0854.41
2009/04/23 13:17:28.3    -281   -339   -139    441    463 219.6 -17.5  34184  289.99 0854.41
2009/04/23 13:17:28.4    -241   -397    -58    465    469 211.3  -7.2  34174  289.81 0854.41
2009/04/23 13:17:28.5    -275   -308   -141    414    437 221.8 -23.8  34164  289.63 0854.40
2009/04/23 13:17:28.6    -190   -299   -164    355    391 212.5 -30.8  34170  289.74 0854.40
2009/04/23 13:17:28.7    -175   -187   -138    257    291 223.2 -35.0  34170  289.73 0854.40
2009/04/23 13:17:28.8    -218   -177    -30    282    284 230.9  -6.2  34174  289.80 0854.40
2009/04/23 13:17:28.9    -206   -220    -47    302    306 223.0  -9.0  34174  289.80 0854.40
2009/04/23 13:17:29.0    -250   -315    103    403    417 218.4  14.4  34182  289.94 0854.40
2009/04/23 13:17:29.1    -174   -345     91    387    398 206.8  13.2  34178  289.89 0854.40
2009/04/23 13:17:29.2    -200   -357     42    410    413 209.3   5.9  34172  289.78 0854.40
2009/04/23 13:17:29.3    -243   -227     78    333    343 226.9  13.2  34182  289.94 0854.40
2009/04/23 13:17:29.4    -317   -378   -123    494    510 220.0 -14.0  34182  289.93 0854.40
2009/04/23 13:17:29.5    -306   -318   -126    442    459 223.9 -20.7  34158  289.55 0854.40
2009/04/23 13:17:29.6    -278   -336   -124    437    454 219.6 -20.5  34168  289.72 0854.40
2009/04/23 13:17:29.7    -218   -404    -58    460    464 208.4  -7.2  34170  289.75 0854.40
2009/04/23 13:17:29.8    -345   -462    -32    577    578 216.8  -3.2  34168  289.71 0854.40
2009/04/23 13:17:29.9    -270   -479     -2    551    552 209.4  -0.3  34172  289.77 0854.40
2009/04/23 13:17:30.0    -207   -386    151    439    465 208.2  19.1  34160  289.58 0854.40
2009/04/23 13:17:30.1    -122   -394    138    413    436 197.3  18.5  34174  289.80 0854.40
2009/04/23 13:17:30.2    -248   -262    101    362    377 223.4  15.7  34172  289.79 0854.40
2009/04/23 13:17:30.3    -360     41     41    363    366 276.6   6.6  34164  289.64 0854.40
2009/04/23 13:17:30.4    -391    -46     56    394    399 263.2   8.1  34178  289.87 0854.40
2009/04/23 13:17:30.5    -340    -23    -43    341    344 266.0  -7.3  34178  289.86 0854.38
2009/04/23 13:17:30.6    -520    -39   -203    522    560 265.6 -26.7  34172  289.77 0854.38
2009/04/23 13:17:30.7    -535     52   -159    538    561 275.6 -21.2  34176  289.85 0854.38
2009/04/23 13:17:30.8    -553   -149   -181    573    600 254.9 -22.6  34168  289.71 0854.38
2009/04/23 13:17:30.9    -470   -174   -174    502    531 249.7 -24.3  34172  289.77 0854.38
2009/04/23 13:17:31.0    -661   -127   -189    674    699 259.1 -20.3  34180  289.90 0854.38
2009/04/23 13:17:31.1    -565    -96   -200    574    607 260.3 -24.4  34180  289.91 0854.38
2009/04/23 13:17:31.2    -551   -139   -152    569    590 255.8 -15.0  34178  289.86 0854.38
2009/04/23 13:17:31.3    -614     37   -131    616    630 273.5 -12.0  34178  289.87 0854.38
2009/04/23 13:17:31.4    -450    -22    -76    451    458 267.1  -9.6  34178  289.87 0854.38
2009/04/23 13:17:31.5    -317    -64    -97    324    339 258.4 -16.6  34164  289.65 0854.38
2009/04/23 13:17:31.6    -297   -145    -80    331    341 244.0 -13.7  34176  289.84 0854.38
2009/04/23 13:17:31.7    -325   -263    -85    419    428 231.0 -11.5  34172  289.78 0854.38
2009/04/23 13:17:31.8    -414     70   -107    420    434 279.7 -14.4  34182  289.94 0854.38
2009/04/23 13:17:31.9    -496     33   -175    498    528 273.9 -19.4  34178  289.86 0854.38
2009/04/23 13:17:32.0    -699    -62   -183    702    726 264.9 -14.6  34166  289.66 0854.38
2009/04/23 13:17:32.1    -724      0   -197    725    752 270.0 -15.2  34164  289.65 0854.38
2009/04/23 13:17:32.2    -738    -55   -178    740    762 265.7 -13.6  34168  289.70 0854.38
2009/04/23 13:17:32.3    -723    -54   -104    725    733 265.7  -8.2  34176  289.84 0854.38
2009/04/23 13:17:32.4    -596    114   -198    608    640 280.9 -18.0  34170  289.74 0854.38
2009/04/23 13:17:32.5    -642    -63   -178    646    671 264.3 -15.4  34170  289.73 0854.40
2009/04/23 13:17:32.6    -660   -107   -237    669    710 260.8 -19.5  34182  289.94 0854.40
2009/04/23 13:17:32.7    -642    -18   -196    643    673 268.4 -17.0  34172  289.77 0854.40
2009/04/23 13:17:32.8    -633    -24   -278    634    692 267.8 -29.6  34182  289.95 0854.40
2009/04/23 13:17:32.9    -474     59    -85    478    486 277.1 -10.1  34176  289.83 0854.40
2009/04/23 13:17:33.0    -440    151   -227    466    518 289.0 -32.2  34172  289.76 0854.40
2009/04/23 13:17:33.1    -248    128    -40    280    283 297.3  -8.2  34180  289.92 0854.40
2009/04/23 13:17:33.2    -355    116   -134    374    398 288.1 -19.7  34194  290.15 0854.40
2009/04/23 13:17:33.3    -355    -60   -123    361    382 260.3 -18.9  34180  289.91 0854.40
2009/04/23 13:17:33.4    -262    -81   -127    275    302 252.7 -31.4  34180  289.90 0854.40
2009/04/23 13:17:33.5    -575   -179   -158    603    624 252.7 -14.7  34174  289.82 0854.40
2009/04/23 13:17:33.6    -639   -325   -215    717    749 243.0 -16.7  34176  289.84 0854.40
2009/04/23 13:17:33.7    -556   -329   -156    647    666 239.4 -13.6  34174  289.82 0854.40
2009/04/23 13:17:33.8    -592   -443    133    740    753 233.2  10.2  34186  290.01 0854.40
2009/04/23 13:17:33.9    -447   -438    117    626    637 225.6  10.6  34182  289.94 0854.40
2009/04/23 13:17:34.0    -565   -360    -26    671    672 237.5  -2.2  34168  289.70 0854.40
2009/04/23 13:17:34.1    -299   -495     31    579    580 211.1   3.1  34166  289.66 0854.40
2009/04/23 13:17:34.2    -459   -511     71    688    692 221.9   6.0  34176  289.85 0854.40
2009/04/23 13:17:34.3    -346   -502      3    611    612 214.6   0.3  34176  289.83 0854.40
2009/04/23 13:17:34.4    -600   -342    -38    691    693 240.3  -3.2  34180  289.90 0854.40
2009/04/23 13:17:34.5    -563   -194   -184    596    623 250.9 -22.2  34172  289.77 0854.44
2009/04/23 13:17:34.6    -682   -294   -184    743    766 246.7 -13.9  34166  289.68 0854.44
2009/04/23 13:17:34.7    -653   -197   -202    682    711 253.2 -21.4  34168  289.71 0854.44
2009/04/23 13:17:34.8    -740   -242   -189    779    802 251.9 -13.7  34166  289.68 0854.44
2009/04/23 13:17:34.9    -777   -258   -227    819    849 251.6 -20.1  34176  289.85 0854.44
2009/04/23 13:17:35.0    -593   -473    -15    759    760 231.4  -1.2  34160  289.56 0854.44
2009/04/23 13:17:35.1    -681   -312    -15    750    751 245.4  -1.2  34180  289.90 0854.44
2009/04/23 13:17:35.2    -577   -367   -140    685    700 237.5 -11.6  34172  289.78 0854.44
2009/04/23 13:17:35.3    -617   -430   -269    753    800 235.1 -19.7  34172  289.76 0854.44
2009/04/23 13:17:35.4    -483   -238    -82    539    546 243.8  -8.7  34168  289.72 0854.44
2009/04/23 13:17:35.5     -22   -432    -62    433    438 183.0  -8.2  34164  289.63 0854.44
2009/04/23 13:17:35.6    -353   -395   -116    531    544 221.8 -12.4  34174  289.80 0854.44
2009/04/23 13:17:35.7    -186   -185   -119    263    288 225.2 -30.6  34176  289.85 0854.44
2009/04/23 13:17:35.8    -127   -359    -50    381    385 199.5  -7.6  34172  289.79 0854.44
2009/04/23 13:17:35.9    -141   -354     92    382    393 201.7  13.6  34176  289.84 0854.44
2009/04/23 13:17:36.0    -218   -267     16    345    346 219.2   2.8  34176  289.84 0854.44
2009/04/23 13:17:36.1    -141   -473     99    494    504 196.6  11.4  34176  289.84 0854.44
2009/04/23 13:17:36.2    -241   -393     99    461    472 211.5  12.1  34172  289.79 0854.44
2009/04/23 13:17:36.3    -315   -470    111    567    578 213.9  11.1  34172  289.76 0854.44
2009/04/23 13:17:36.4    -381   -291     57    480    484 232.6   6.8  34178  289.89 0854.44
2009/04/23 13:17:36.5    -237   -325     -7    403    404 216.1  -1.1  34178  289.88 0854.50
2009/04/23 13:17:36.6    -215   -399     31    454    456 208.3   4.0  34178  289.87 0854.50
2009/04/23 13:17:36.7    -251   -277    -14    374    375 222.2  -2.2  34174  289.82 0854.50
2009/04/23 13:17:36.8    -211   -366     92    423    433 210.0  12.3  34178  289.88 0854.50
2009/04/23 13:17:36.9    -285   -384    -14    479    480 216.6  -1.7  34178  289.86 0854.50
2009/04/23 13:17:37.0    -258   -379     -1    459    460 214.3  -0.2  34172  289.78 0854.50
2009/04/23 13:17:37.1    -210   -356     34    414    416 210.5   4.7  34176  289.83 0854.50
2009/04/23 13:17:37.2    -271   -254   -115    372    389 226.8 -22.2  34172  289.79 0854.50
2009/04/23 13:17:37.3    -175   -273    -34    325    327 212.7  -6.0  34172  289.78 0854.50
2009/04/23 13:17:37.4    -284   -221    -65    361    367 232.1 -10.2  34170  289.74 0854.50
2009/04/23 13:17:37.5    -302   -233     29    382    384 232.3   4.5  34174  289.81 0854.50
2009/04/23 13:17:37.6    -226   -193    166    298    341 229.5  31.6  34182  289.93 0854.50
2009/04/23 13:17:37.7    -347   -167     99    386    399 244.3  14.5  34178  289.89 0854.50
2009/04/23 13:17:37.8    -235   -194     93    305    320 230.5  17.1  34176  289.85 0854.50
2009/04/23 13:17:37.9    -190   -202    110    278    298 223.3  23.0  34178  289.86 0854.50
2009/04/23 13:17:38.0    -171   -171     69    242    252 225.0  16.0  34178  289.86 0854.50
2009/04/23 13:17:38.1    -113   -229     87    256    271 206.3  18.9  34180  289.92 0854.50
2009/04/23 13:17:38.2    -114   -239     79    265    277 205.5  16.6  34180  289.92 0854.50
2009/04/23 13:17:38.3     -66   -224     -9    234    235 196.5  -2.3  34178  289.86 0854.50
2009/04/23 13:17:38.4    -180   -180    -92    255    271 225.1 -24.6  34182  289.93 0854.50
2009/04/23 13:17:38.5    -148   -207    -72    255    264 215.6 -20.4  34180  289.92 0854.49
2009/04/23 13:17:38.6    -158   -228    -66    278    286 214.7 -13.4  34174  289.81 0854.49
2009/04/23 13:17:38.7    -150   -150      3    213    214 225.0   1.0  34174  289.80 0854.49
2009/04/23 13:17:38.8    -289   -114     35    311    314 248.5   6.6  34184  289.97 0854.49
2009/04/23 13:17:38.9    -282   -141     36    316    319 243.4   6.6  34180  289.90 0854.49
2009/04/23 13:17:39.0    -404   -128     -8    424    425 252.3  -1.1  34182  289.94 0854.49
2009/04/23 13:17:39.1    -394   -219     11    452    453 240.9   1.5  34184  289.97 0854.49
2009/04/23 13:17:39.2    -341    -86    -59    352    358 255.7  -9.6  34178  289.89 0854.49
2009/04/23 13:17:39.3    -400   -174    -47    437    440 246.5  -6.2  34178  289.88 0854.49
2009/04/23 13:17:39.4    -371   -135    -92    396    407 250.0 -13.2  34180  289.90 0854.49
2009/04/23 13:17:39.5    -441   -201   -140    485    504 245.5 -20.9  34182  289.95 0854.49
2009/04/23 13:17:39.6    -270   -271   -113    383    400 224.9 -16.5  34182  289.96 0854.49
2009/04/23 13:17:39.7    -253   -180    -19    311    312 234.5  -3.5  34180  289.90 0854.49
2009/04/23 13:17:39.8    -194    -96    -77    217    231 243.6 -19.6  34182  289.96 0854.49
2009/04/23 13:17:39.9    -159   -107    -34    192    196 236.0 -10.1  34180  289.92 0854.49
2009/04/23 13:17:40.0    -180   -117     -4    215    216 236.9  -1.3  34184  289.97 0854.49
2009/04/23 13:17:40.1    -193    -43    -57    198    207 257.4 -16.0  34182  289.96 0854.49
2009/04/23 13:17:40.2    -217    -59     44    225    230 254.7  11.1  34180  289.91 0854.49
2009/04/23 13:17:40.3    -423   -124    -55    441    445 253.6  -7.2  34170  289.75 0854.49
2009/04/23 13:17:40.4    -503   -114    -89    516    524 257.2  -9.8  34178  289.89 0854.49
2009/04/23 13:17:40.5    -615   -225   -141    656    672 249.9 -12.2  34182  289.95 0854.49
2009/04/23 13:17:40.6    -582   -233   -174    628    652 248.2 -15.5  34168  289.72 0854.49
2009/04/23 13:17:40.7    -594   -145   -214    612    649 256.2 -19.3  34176  289.84 0854.49
2009/04/23 13:17:40.8    -624    -62   -157    628    648 264.3 -14.1  34176  289.84 0854.49
2009/04/23 13:17:40.9    -511    -79    -55    517    520 261.2  -6.1  34178  289.87 0854.49
2009/04/23 13:17:41.0    -491   -166    -75    519    525 251.3  -8.2  34180  289.90 0854.49
2009/04/23 13:17:41.1    -419   -258    -56    493    497 238.4  -6.6  34182  289.96 0854.49
2009/04/23 13:17:41.2    -399   -166   -128    433    452 247.4 -16.5  34178  289.87 0854.49
2009/04/23 13:17:41.3    -417   -170   -172    451    482 247.8 -26.4  34180  289.91 0854.49
2009/04/23 13:17:41.4    -506   -117   -252    520    577 257.0 -32.1  34178  289.89 0854.49
2009/04/23 13:17:41.5    -500    -92   -268    509    575 259.5 -34.5  34178  289.89 0854.49
2009/04/23 13:17:41.6    -491    -75   -216    497    541 261.3 -29.5  34176  289.85 0854.49
2009/04/23 13:17:41.7    -581   -276   -179    644    668 244.6 -20.1  34180  289.90 0854.49
2009/04/23 13:17:41.8    -627   -404   -290    747    801 237.2 -26.8  34178  289.88 0854.49
2009/04/23 13:17:41.9    -572   -340   -326    666    741 239.3 -32.5  34176  289.84 0854.49
2009/04/23 13:17:42.0    -542   -298   -327    619    700 241.2 -34.5  34184  289.97 0854.49
2009/04/23 13:17:42.1    -630   -125   -203    643    675 258.8 -17.6  34186  290.00 0854.49
2009/04/23 13:17:42.2    -582   -187   -213    612    648 252.2 -24.4  34188  290.06 0854.49
2009/04/23 13:17:42.3    -490   -245   -184    549    580 243.4 -18.6  34196  290.17 0854.49
2009/04/23 13:17:42.4    -501   -478    -59    693    696 226.3  -4.9  34186  290.00 0854.32
2009/04/23 13:17:42.5    -465   -408   -189    619    648 228.7 -17.0  34178  289.86 0854.32
2009/04/23 13:17:42.6    -400   -354   -190    535    568 228.5 -19.6  34184  289.97 0854.32
2009/04/23 13:17:42.7    -393   -316   -169    505    532 231.2 -23.5  34182  289.96 0854.32
2009/04/23 13:17:42.8    -480   -269   -170    551    576 240.7 -22.2  34180  289.92 0854.32
2009/04/23 13:17:42.9    -381   -150   -191    410    452 248.5 -31.4  34172  289.78 0854.32
2009/04/23 13:17:43.0    -230    -48      3    236    237 258.1   0.8  34182  289.93 0854.32
2009/04/23 13:17:43.1     -58   -176    -37    186    190 198.5 -11.5  34182  289.96 0854.32
2009/04/23 13:17:43.2     -28   -111   -106    115    156 194.3 -52.3  34180  289.92 0854.32
2009/04/23 13:17:43.3     -53   -239    -74    246    256 192.7 -21.7  34184  289.97 0854.32
2009/04/23 13:17:43.4     -19   -220    -68    221    231 185.1 -22.3  34178  289.87 0854.27
2009/04/23 13:17:43.5      11   -207     -9    208    209 176.9  -2.6  34184  289.97 0854.27
2009/04/23 13:17:43.6      78   -236    -45    249    254 161.5 -10.3  34184  289.98 0854.27
2009/04/23 13:17:43.7      63   -262    -15    270    271 166.4  -3.3  34186  290.02 0854.27
2009/04/23 13:17:43.8     101   -277    -93    295    309 159.9 -22.8  34186  290.00 0854.27
2009/04/23 13:17:43.9      83   -284    -26    296    298 163.7  -5.2  34184  289.98 0854.27
2009/04/23 13:17:44.0      78   -256     66    268    277 163.1  13.9  34188  290.03 0854.27
2009/04/23 13:17:44.1     129   -229    100    263    281 150.6  21.7  34186  290.02 0854.27
2009/04/23 13:17:44.2     150   -150    124    213    246 135.0  32.9  34184  289.98 0854.27
2009/04/23 13:17:44.3      65   -190     71    201    213 161.1  20.0  34180  289.91 0854.27
2009/04/23 13:17:44.4      -7    -91     -7     92     93 184.5  -4.6  34184  289.97 0854.27
2009/04/23 13:17:44.5     -91   -111    137    144    198 219.2  48.5  34184  289.99 0854.27
2009/04/23 13:17:44.6    -124   -106     93    164    188 229.6  31.9  34186  290.01 0854.27
2009/04/23 13:17:44.7     -18   -179    123    180    218 186.0  37.6  34184  289.99 0854.27
2009/04/23 13:17:44.8     -87   -287    164    301    342 197.0  30.9  34188  290.03 0854.27
2009/04/23 13:17:44.9    -110   -252    155    276    316 203.6  31.9  34186  290.00 0854.27
2009/04/23 13:17:45.0    -144   -235     75    276    287 211.6  15.3  34188  290.03 0854.27
2009/04/23 13:17:45.1    -247   -191    -42    313    316 232.3  -7.7  34184  289.97 0854.27
2009/04/23 13:17:45.2    -380   -217   -144    438    461 240.3 -23.7  34184  289.99 0854.27
2009/04/23 13:17:45.3    -295   -358   -320    465    564 219.5 -42.2  34178  289.89 0854.27
2009/04/23 13:17:45.4    -120   -526   -103    540    550 192.9 -10.8  34176  289.85 0854.32
2009/04/23 13:17:45.5    -275   -424   -165    506    532 213.0 -23.2  34174  289.82 0854.32
2009/04/23 13:17:45.6    -229   -361   -204    428    474 212.4 -31.7  34164  289.65 0854.32
2009/04/23 13:17:45.7    -164   -277   -103    323    339 210.7 -17.7  34172  289.77 0854.32
2009/04/23 13:17:45.8    -102   -281    -94    299    314 200.0 -17.5  34174  289.80 0854.32
2009/04/23 13:17:45.9     -24   -262    -64    264    272 185.4 -13.7  34174  289.80 0854.32
2009/04/23 13:17:46.0     -18   -216    105    217    241 184.9  27.8  34180  289.90 0854.32
2009/04/23 13:17:46.1    -120   -203    111    236    260 210.7  27.1  34178  289.88 0854.32
2009/04/23 13:17:46.2    -117    -73     84    139    162 238.0  34.2  34180  289.92 0854.32
2009/04/23 13:17:46.3    -100    -74    113    125    168 233.6  46.9  34182  289.94 0854.32
2009/04/23 13:17:46.4    -150    -85    144    173    225 240.2  43.8  34178  289.87 0854.32
2009/04/23 13:17:46.5    -114    -57    127    128    180 243.4  50.2  34192  290.13 0854.32
2009/04/23 13:17:46.6     -70   -147     -3    164    165 205.6  -1.1  34188  290.04 0854.32
2009/04/23 13:17:46.7    -218   -239     76    324    333 222.4  13.2  34182  289.94 0854.32
2009/04/23 13:17:46.8     -95   -409    173    420    454 193.1  23.6  34182  289.95 0854.32
2009/04/23 13:17:46.9      87   -302    152    315    349 164.0  27.3  34182  289.94 0854.32
2009/04/23 13:17:47.0      49   -372     -7    376    377 172.4  -1.2  34178  289.89 0854.32
2009/04/23 13:17:47.1      38   -496     31    498    499 175.5   3.6  34176  289.84 0854.32
2009/04/23 13:17:47.2     -31   -508     96    509    519 183.5  10.7  34186  290.01 0854.32
2009/04/23 13:17:47.3      19   -532    -11    533    534 177.9  -1.3  34182  289.94 0854.32
2009/04/23 13:17:47.4    -180   -650     10    675    676 195.5   0.9  34180  289.92 0854.37
2009/04/23 13:17:47.5    -137   -512   -108    531    543 195.1 -11.6  34186  290.02 0854.37
2009/04/23 13:17:47.6     -10   -607    -33    608    609 181.0  -3.1  34184  289.97 0854.37
2009/04/23 13:17:47.7     -46   -576    -12    578    579 184.6  -1.3  34184  289.97 0854.37
2009/04/23 13:17:47.8     -28   -521     47    522    525 183.2   5.2  34186  290.01 0854.37
2009/04/23 13:17:47.9      40   -512    104    514    525 175.5  11.4  34184  289.97 0854.37
2009/04/23 13:17:48.0     127   -414     68    434    440 163.0   8.9  34176  289.85 0854.37
2009/04/23 13:17:48.1       0   -320    192    321    374 179.9  33.6  34188  290.03 0854.37
2009/04/23 13:17:48.2      90   -416    304    426    523 167.7  39.1  34178  289.86 0854.37
2009/04/23 13:17:48.3      50   -447    294    450    537 173.5  36.2  34184  289.98 0854.37
2009/04/23 13:17:48.4       7   -429    221    430    483 179.0  29.3  34178  289.89 0854.37
2009/04/23 13:17:48.5     -36   -407    243    409    475 185.2  33.5  34180  289.92 0854.37
2009/04/23 13:17:48.6      96   -408    207    420    468 166.8  28.2  34184  289.99 0854.37
2009/04/23 13:17:48.7      42   -466    173    468    498 174.8  21.1  34190  290.08 0854.37
2009/04/23 13:17:48.8      23   -441     71    442    448 177.0   9.2  34188  290.05 0854.37
2009/04/23 13:17:48.9      68   -595    155    599    619 173.4  14.5  34190  290.07 0854.37
2009/04/23 13:17:49.0     288   -543    277    615    674 152.0  25.9  34176  289.84 0854.37
2009/04/23 13:17:49.1     243   -435    207    499    540 150.8  23.8  34184  289.99 0854.37
2009/04/23 13:17:49.2     273   -377    191    466    503 144.0  23.5  34192  290.12 0854.37
2009/04/23 13:17:49.3     218   -320    201    388    436 145.8  29.4  34188  290.04 0854.37
2009/04/23 13:17:49.4     191   -358    171    406    440 151.9  24.2  34186  290.02 0854.39
2009/04/23 13:17:49.5      78   -456    212    463    509 170.2  26.2  34182  289.96 0854.39
2009/04/23 13:17:49.6      44   -411    272    414    495 173.8  36.5  34178  289.86 0854.39
2009/04/23 13:17:49.7     -56   -251    261    258    366 192.7  50.2  34182  289.93 0854.39
2009/04/23 13:17:49.8    -147   -351    276    381    470 202.7  39.5  34180  289.92 0854.39
2009/04/23 13:17:49.9    -291   -340    167    448    478 220.5  21.5  34186  290.00 0854.39
2009/04/23 13:17:50.0    -415   -300     72    513    519 234.1   8.0  34172  289.78 0854.39
2009/04/23 13:17:50.1    -417   -302     91    516    525 234.1  10.0  34176  289.84 0854.39
2009/04/23 13:17:50.2     -95   -357    253    370    448 195.0  37.6  34172  289.78 0854.39
2009/04/23 13:17:50.3    -101   -214    243    237    339 205.4  50.7  34170  289.73 0854.39
2009/04/23 13:17:50.4     -85   -118    164    146    219 216.0  53.7  34164  289.65 0854.39
2009/04/23 13:17:50.5    -163   -304    144    346    374 208.3  23.9  34174  289.82 0854.39
2009/04/23 13:17:50.6    -218   -344    125    408    427 212.3  17.1  34170  289.73 0854.39
2009/04/23 13:17:50.7    -184   -317     91    367    379 210.2  13.9  34172  289.76 0854.39
2009/04/23 13:17:50.8    -138   -309     30    339    341 204.1   5.1  34168  289.72 0854.39
2009/04/23 13:17:50.9    -112   -189     56    220    228 210.8  14.3  34172  289.77 0854.39
2009/04/23 13:17:51.0    -159   -110    141    194    239 235.4  39.7  34176  289.85 0854.39
2009/04/23 13:17:51.1    -206    -41    -35    211    215 258.6  -9.6  34174  289.80 0854.39
2009/04/23 13:17:51.2    -350     63     50    356    360 280.3   8.1  34156  289.52 0854.39
2009/04/23 13:17:51.3    -418     11    -56    419    423 271.6  -7.7  34166  289.68 0854.39
2009/04/23 13:17:51.4    -412     84    -38    421    423 281.6  -5.2  34172  289.78 0854.40
2009/04/23 13:17:51.5    -617    250     99    666    674 292.1   8.5  34172  289.78 0854.40
2009/04/23 13:17:51.6    -475    205    -11    518    519 293.4  -1.3  34162  289.62 0854.40
2009/04/23 13:17:51.7    -441    226    199    496    534 297.2  23.0  34174  289.80 0854.40
2009/04/23 13:17:51.8    -471    134    195    490    527 285.9  23.0  34176  289.83 0854.40
2009/04/23 13:17:51.9    -576     39     91    578    586 273.9   9.0  34176  289.83 0854.40
2009/04/23 13:17:52.0    -607    -70    -32    612    613 263.4  -3.0  34168  289.71 0854.40
2009/04/23 13:17:52.1    -467    -35    164    469    496 265.6  20.0  34172  289.78 0854.40
2009/04/23 13:17:52.2    -458     38    123    460    477 274.8  15.0  34154  289.47 0854.40
2009/04/23 13:17:52.3    -307     82    217    318    384 285.1  37.6  34174  289.81 0854.40
2009/04/23 13:17:52.4    -409    164    220    441    492 291.9  28.5  34176  289.83 0854.40
2009/04/23 13:17:52.5    -420    -17    119    421    438 267.6  15.8  34170  289.75 0854.40
2009/04/23 13:17:52.6    -410     39     58    412    417 275.5   8.0  34174  289.82 0854.40
2009/04/23 13:17:52.7    -353   -120    105    374    389 251.2  15.7  34172  289.79 0854.40
2009/04/23 13:17:52.8    -376   -178    173    417    451 244.6  23.8  34172  289.78 0854.40
2009/04/23 13:17:52.9    -212   -220   -204    306    367 223.9 -41.3  34166  289.69 0854.40
2009/04/23 13:17:53.0    -351   -238   -117    425    441 235.8 -15.4  34148  289.38 0854.40
2009/04/23 13:17:53.1    -335   -294   -114    447    462 228.7 -14.4  34156  289.49 0854.40
2009/04/23 13:17:53.2    -424   -258     33    497    499 238.7   3.9  34168  289.71 0854.40
2009/04/23 13:17:53.3    -302   -144    -81    335    345 244.5 -13.7  34180  289.91 0854.40
2009/04/23 13:17:53.4    -235   -235     -9    333    334 225.0  -1.6  34182  289.94 0854.39
2009/04/23 13:17:53.5      11   -160     19    161    163 176.0   6.7  34182  289.94 0854.39
2009/04/23 13:17:53.6      22   -178      6    180    181 172.7   2.1  34178  289.89 0854.39
2009/04/23 13:17:53.8    -117   -326    -86    347    358 199.8 -14.1  34154  289.48 0854.39
2009/04/23 13:17:53.9    -355     -1   -141    356    382 269.7 -27.3  34158  289.54 0854.39
2009/04/23 13:17:54.0    -240    -73   -134    251    284 253.1 -34.7  34154  289.47 0854.39
2009/04/23 13:17:54.1    -383   -150   -258    412    486 248.6 -39.6  34156  289.51 0854.39
2009/04/23 13:17:54.2    -319   -303    -68    441    447 226.5  -8.8  34160  289.58 0854.39
2009/04/23 13:17:54.3    -602   -167   -362    625    722 254.5 -37.1  34162  289.60 0854.39
2009/04/23 13:17:54.4    -558   -325   -286    646    706 239.8 -29.9  34162  289.60 0854.39
2009/04/23 13:17:54.5    -324   -547    -62    636    640 210.7  -5.6  34180  289.92 0854.39
2009/04/23 13:17:54.6    -429   -348   -362    553    660 231.0 -40.7  34160  289.57 0854.39
2009/04/23 13:17:54.7    -408   -557   -221    691    725 216.2 -22.8  34164  289.64 0854.39
2009/04/23 13:17:54.8    -436   -538   -106    693    702 219.0  -8.7  34172  289.79 0854.39
2009/04/23 13:17:54.9    -278   -440     31    521    522 212.2   3.5  34172  289.79 0854.39
2009/04/23 13:17:55.0    -373   -604    -28    710    711 211.7  -2.3  34160  289.57 0854.39
2009/04/23 13:17:55.1    -373   -506    -90    629    636 216.4  -8.2  34144  289.31 0854.39
2009/04/23 13:17:55.2      91   -369    -76    381    389 166.1 -11.3  34166  289.67 0854.39
2009/04/23 13:17:55.3    -186   -409   -199    450    492 204.5 -30.0  34168  289.71 0854.39
2009/04/23 13:17:55.4    -309   -267   -182    409    447 229.2 -30.0  34164  289.63 0854.39
2009/04/23 13:17:55.5    -236   -207   -212    315    379 228.7 -41.6  34166  289.69 0854.41
2009/04/23 13:17:55.6    -180    -59   -267    190    327 251.8 -65.6  34160  289.56 0854.41
2009/04/23 13:17:55.7     -91   -173   -169    196    258 207.9 -49.5  34160  289.58 0854.41
2009/04/23 13:17:55.8    -252    -29   -153    254    296 263.4 -38.1  34156  289.51 0854.41
2009/04/23 13:17:55.9    -340     23   -262    341    430 274.0 -45.9  34160  289.58 0854.41
2009/04/23 13:17:56.0    -387     44   -171    390    425 276.6 -29.6  34158  289.53 0854.41
2009/04/23 13:17:56.1    -326    -31   -220    328    394 264.5 -41.6  34160  289.57 0854.41
2009/04/23 13:17:56.2    -485    -51   -295    488    570 263.9 -38.4  34154  289.48 0854.41
2009/04/23 13:17:56.3    -414    -54   -314    418    522 262.5 -45.1  34154  289.47 0854.41
2009/04/23 13:17:56.4    -437    -77   -343    444    561 259.9 -46.0  34154  289.46 0854.41
2009/04/23 13:17:56.5    -395   -266   -150    477    501 236.1 -17.5  34162  289.59 0854.41
2009/04/23 13:17:56.6    -390    -79   -156    399    428 258.4 -26.8  34156  289.49 0854.41
2009/04/23 13:17:56.7    -428   -229    -73    486    492 241.8  -8.6  34162  289.61 0854.41
2009/04/23 13:17:56.8    -462   -348   -100    579    588 233.0  -9.9  34168  289.71 0854.41
2009/04/23 13:17:56.9    -466   -224   -221    518    563 244.3 -29.0  34164  289.65 0854.41
2009/04/23 13:17:57.0    -216   -268   -123    345    366 218.8 -24.8  34162  289.59 0854.41
2009/04/23 13:17:57.1    -363   -487   -145    608    626 216.7 -13.4  34168  289.70 0854.41
2009/04/23 13:17:57.2    -344   -380    -59    513    517 222.2  -6.6  34166  289.67 0854.41
2009/04/23 13:17:57.3    -370   -248    -20    446    447 236.1  -2.7  34158  289.55 0854.41
2009/04/23 13:17:57.4    -393   -200    -96    442    453 243.0 -12.3  34162  289.61 0854.41
2009/04/23 13:17:57.5    -491   -219   -133    538    555 245.9 -13.9  34164  289.63 0854.45
2009/04/23 13:17:57.6    -442   -225   -150    497    519 243.0 -21.7  34162  289.59 0854.45
2009/04/23 13:17:57.7    -553   -497   -235    744    781 228.1 -17.6  34166  289.68 0854.45
2009/04/23 13:17:57.8    -208   -683   -252    715    759 197.0 -19.4  34166  289.67 0854.45
2009/04/23 13:17:57.9    -115   -497   -155    511    535 193.1 -16.9  34160  289.58 0854.45
2009/04/23 13:17:58.0     -73   -462    198    468    508 189.0  24.5  34164  289.64 0854.45
2009/04/23 13:17:58.1      47   -553    108    556    567 175.1  11.0  34162  289.60 0854.45
2009/04/23 13:17:58.2     195   -499    161    537    561 158.6  16.7  34164  289.65 0854.45
2009/04/23 13:17:58.3     201   -374    154    425    453 151.7  19.9  34168  289.70 0854.45
2009/04/23 13:17:58.4     101   -367     60    381    386 164.5   9.0  34172  289.76 0854.45
2009/04/23 13:17:58.5     203   -378     33    430    432 151.7   4.5  34172  289.78 0854.45
2009/04/23 13:17:58.6     183   -334     33    381    383 151.3   5.1  34168  289.72 0854.45
2009/04/23 13:17:58.7     159   -321     55    359    364 153.6   8.7  34174  289.81 0854.45
2009/04/23 13:17:58.8     367   -259    -56    450    454 125.2  -7.2  34166  289.66 0854.45
2009/04/23 13:17:58.9     240   -243   -118    342    361 135.4 -23.9  34170  289.74 0854.45
2009/04/23 13:17:59.0     285     74     46    295    299  75.4   8.9  34162  289.61 0854.45
2009/04/23 13:17:59.1      89    121     36    151    156  36.5  13.7  34174  289.80 0854.45
2009/04/23 13:17:59.2     -77    120     17    143    145 327.4   6.9  34174  289.82 0854.45
2009/04/23 13:17:59.3     153    132    -22    203    205  49.3  -6.2  34174  289.80 0854.45
2009/04/23 13:17:59.4     155    213    -78    264    276  36.1 -16.5  34170  289.75 0854.45
2009/04/23 13:17:59.5     227    187    105    295    313  50.5  20.4  34174  289.81 0854.51
2009/04/23 13:17:59.6     217    188    156    288    327  49.1  30.8  34168  289.71 0854.51
2009/04/23 13:17:59.7     472    291     82    555    562  58.4   8.5  34162  289.62 0854.51
2009/04/23 13:17:59.8     495    285    194    572    605  60.1  18.8  34164  289.63 0854.51
2009/04/23 13:17:59.9     548    258    267    606    662  64.8  25.3  34156  289.50 0854.51
2009/04/23 13:18:00.0     451    190    317    490    583  67.2  35.9  34158  289.53 0854.51
2009/04/23 13:18:00.1     522    216    324    565    651  67.5  32.4  34160  289.57 0854.51
2009/04/23 13:18:00.2     511      7    437    512    673  89.1  44.8  34164  289.65 0854.51
2009/04/23 13:18:00.3     458    163    527    487    717  70.4  52.6  34160  289.57 0854.51
2009/04/23 13:18:00.4     385     27    419    386    569  86.0  52.7  34164  289.64 0854.51
2009/04/23 13:18:00.5     397   -201    166    446    475 116.9  21.4  34160  289.56 0854.51
2009/04/23 13:18:00.6     310      0     88    311    324  90.1  15.8  34156  289.49 0854.51
2009/04/23 13:18:00.7     417   -107    154    431    457 104.5  20.4  34162  289.61 0854.51
2009/04/23 13:18:00.8     487    -85    272    495    564 100.0  31.3  34164  289.63 0854.51
2009/04/23 13:18:00.9     327   -455    172    561    587 144.3  17.1  34166  289.66 0854.51
2009/04/23 13:18:01.0     436   -392    172    587    612 131.9  16.4  34162  289.61 0854.51
2009/04/23 13:18:01.1     383   -320    142    500    520 129.9  15.9  34162  289.61 0854.51
2009/04/23 13:18:01.2     408   -414    348    582    678 135.4  33.7  34168  289.72 0854.51
2009/04/23 13:18:01.3     383   -325    317    503    594 130.3  35.5  34160  289.57 0854.51
2009/04/23 13:18:01.4     313   -445    441    545    701 144.9  43.1  34166  289.69 0854.51
2009/04/23 13:18:01.5     252   -370    368    448    579 145.7  43.7  34174  289.80 0854.52
2009/04/23 13:18:01.6     251   -394    381    468    603 147.5  43.3  34170  289.75 0854.52
2009/04/23 13:18:01.7      43   -311    360    315    478 172.0  54.6  34176  289.83 0854.52
2009/04/23 13:18:01.8     159   -488    349    514    621 162.0  37.4  34176  289.85 0854.52
2009/04/23 13:18:01.9      49   -433    399    436    591 173.4  47.1  34172  289.79 0854.52
2009/04/23 13:18:02.0      26   -578    321    579    662 177.4  31.4  34162  289.62 0854.52
2009/04/23 13:18:02.1     117   -579    361    591    692 168.5  34.4  34172  289.78 0854.52
2009/04/23 13:18:02.2      69   -604    371    609    713 173.4  34.3  34178  289.88 0854.52
2009/04/23 13:18:02.3     112   -549    400    561    689 168.4  39.1  34168  289.72 0854.52
2009/04/23 13:18:02.4      65   -473    175    478    509 172.1  21.0  34170  289.73 0854.52
2009/04/23 13:18:02.5     141   -429    168    452    482 161.7  21.5  34162  289.62 0854.52
2009/04/23 13:18:02.6      58   -427    335    431    545 172.2  41.7  34172  289.79 0854.52
2009/04/23 13:18:02.7      53   -284    153    290    327 169.3  30.1  34168  289.71 0854.52
2009/04/23 13:18:02.8     -71   -367    301    374    480 191.0  43.0  34174  289.82 0854.52
2009/04/23 13:18:02.9    -160   -370    219    404    459 203.4  30.9  34170  289.73 0854.52
2009/04/23 13:18:03.0     110   -250    136    274    305 156.3  28.2  34176  289.85 0854.52
2009/04/23 13:18:03.1     -11   -248     91    249    265 182.7  21.0  34168  289.71 0854.52
2009/04/23 13:18:03.2    -117   -353    109    372    388 198.4  16.4  34172  289.77 0854.52
2009/04/23 13:18:03.3    -119   -379     44    398    401 197.4   6.4  34178  289.86 0854.52
2009/04/23 13:18:03.4    -162   -295     48    337    341 208.8   8.2  34176  289.84 0854.52
2009/04/23 13:18:03.5    -125   -129     74    181    195 224.1  23.4  34178  289.87 0854.48
2009/04/23 13:18:03.6     -30   -124     14    128    129 193.8   6.5  34178  289.87 0854.48
2009/04/23 13:18:03.7     -31   -101    100    106    145 197.4  48.0  34176  289.85 0854.48
2009/04/23 13:18:03.8    -103   -186    204    213    294 209.0  48.7  34182  289.93 0854.48
2009/04/23 13:18:03.9    -158   -208    171    262    312 217.2  36.3  34180  289.92 0854.48
2009/04/23 13:18:04.0      40   -290    121    293    317 172.0  23.7  34166  289.68 0854.48
2009/04/23 13:18:04.1      17   -340     42    341    344 177.1   7.1  34170  289.74 0854.48
2009/04/23 13:18:04.2     -19   -352     -5    353    354 183.2  -0.9  34172  289.77 0854.48
2009/04/23 13:18:04.3      98   -181    142    207    251 151.5  37.6  34178  289.88 0854.48
2009/04/23 13:18:04.4       9   -112    100    113    150 175.1  45.9  34182  289.94 0854.48
2009/04/23 13:18:04.5     -50   -125    155    135    205 201.8  54.6  34190  290.08 0854.47
2009/04/23 13:18:04.6     -84   -123    134    150    201 214.3  46.4  34202  290.28 0854.47
2009/04/23 13:18:04.7    -251   -181    100    310    326 234.1  17.9  34206  290.34 0854.47
2009/04/23 13:18:04.8    -307    -63    -95    314    329 258.3 -16.9  34202  290.29 0854.47
2009/04/23 13:18:04.9    -297     24    -81    299    310 274.8 -15.2  34200  290.26 0854.47
2009/04/23 13:18:05.0    -309    -66    -62    317    324 257.8 -11.1  34182  289.93 0854.47
2009/04/23 13:18:05.1    -358   -182    123    402    421 243.0  17.0  34184  289.99 0854.47
2009/04/23 13:18:05.2    -454   -134      2    474    475 253.5   0.3  34198  290.22 0854.47
2009/04/23 13:18:05.3    -460    -51     82    463    471 263.6  10.1  34208  290.39 0854.47
2009/04/23 13:18:05.4    -343    -78    140    352    378 257.1  23.0  34188  290.03 0854.47
2009/04/23 13:18:05.5    -197    -37    144    201    247 259.2  39.1  34190  290.07 0854.47
2009/04/23 13:18:05.6    -146    -30    172    150    228 258.1  54.3  34194  290.14 0854.47
2009/04/23 13:18:05.7    -206   -130    147    244    284 237.8  33.7  34184  289.98 0854.47
2009/04/23 13:18:05.8    -257    -92     43    274    278 250.3   9.0  34174  289.81 0854.47
2009/04/23 13:18:05.9    -315    -33    192    317    370 263.9  34.2  34208  290.40 0854.47
2009/04/23 13:18:06.0    -174     38    314    179    361 282.4  67.9  34218  290.56 0854.47
2009/04/23 13:18:06.1    -193     -3    210    194    285 269.1  52.5  34196  290.19 0854.47
2009/04/23 13:18:06.2    -288     30    192    290    347 276.1  36.6  34192  290.11 0854.47
2009/04/23 13:18:06.3    -239    -27    205    241    316 263.4  44.8  34198  290.20 0854.47
2009/04/23 13:18:06.4    -343   -160    198    379    427 244.9  29.8  34184  289.97 0854.47
2009/04/23 13:18:06.5    -397     22    192    398    441 273.3  27.4  34192  290.12 0854.47
2009/04/23 13:18:06.6    -183     61    215    194    289 288.6  53.3  34208  290.37 0854.47
2009/04/23 13:18:06.7     -23     57    206     62    215 338.1  82.7  34194  290.14 0854.47
2009/04/23 13:18:06.8      46    -93    153    104    185 153.7  62.8  34188  290.06 0854.47
2009/04/23 13:18:06.9    -115   -139    182    181    256 219.6  50.1  34188  290.03 0854.47
2009/04/23 13:18:07.0    -215   -157    151    267    306 233.8  31.9  34174  289.80 0854.47
2009/04/23 13:18:07.1     122    -53    167    134    214 113.5  57.1  34168  289.70 0854.47
2009/04/23 13:18:07.2       2     93     85     94    126   1.8  47.5  34184  289.97 0854.47
2009/04/23 13:18:07.3     -70     46     70     84    109 303.3  43.8  34186  290.01 0854.47
2009/04/23 13:18:07.4    -158     52   -107    167    198 288.4 -40.0  34186  290.02 0854.47
2009/04/23 13:18:07.5    -156     54    -36    166    171 289.3 -12.4  34210  290.41 0854.47
2009/04/23 13:18:07.6    -138    242     14    279    280 330.2   2.9  34194  290.14 0854.47
2009/04/23 13:18:07.7    -218    -76   -121    232    261 250.7 -34.2  34190  290.09 0854.47
2009/04/23 13:18:07.8    -293    -97   -103    309    325 251.6 -23.6  34188  290.03 0854.47
2009/04/23 13:18:07.9    -453     84    -83    461    469 280.6 -10.3  34142  289.25 0854.47
2009/04/23 13:18:08.0    -375     70   -105    382    397 280.6 -15.4  34166  289.67 0854.47
2009/04/23 13:18:08.1    -357     79    -78    366    375 282.6 -12.0  34160  289.57 0854.47
2009/04/23 13:18:08.2    -516    143    -68    536    541 285.5  -7.3  34160  289.58 0854.47
2009/04/23 13:18:08.3    -412    171     58    447    451 292.6   7.4  34186  290.00 0854.47
2009/04/23 13:18:08.4    -351    387    195    523    558 317.8  21.5  34184  289.99 0854.42
2009/04/23 13:18:08.5    -276    259    -90    379    390 313.2 -13.4  34150  289.40 0854.42
2009/04/23 13:18:08.6    -324    261    169    417    449 308.9  23.2  34176  289.83 0854.42
2009/04/23 13:18:08.7    -229    211    184    312    362 312.7  33.3  34196  290.18 0854.42
2009/04/23 13:18:08.8    -217    216     48    307    311 314.8   8.9  34214  290.49 0854.42
2009/04/23 13:18:08.9    -214    -79   -125    229    260 249.8 -35.7  34208  290.37 0854.42
2009/04/23 13:18:09.0    -259   -376     92    457    467 214.6  11.5  34198  290.22 0854.42
2009/04/23 13:18:09.1    -205   -276    -22    345    346 216.6  -3.7  34194  290.15 0854.42
2009/04/23 13:18:09.2    -309     74     30    318    320 283.5   5.4  34206  290.34 0854.42
2009/04/23 13:18:09.3    -229     31     80    232    246 277.9  19.2  34210  290.42 0854.42
2009/04/23 13:18:09.4    -283    -78    187    294    348 254.5  35.5  34202  290.27 0854.42
2009/04/23 13:18:09.5    -128   -218    236    254    346 210.5  47.9  34206  290.34 0854.42
2009/04/23 13:18:09.6     -79   -199    227    215    312 201.8  51.9  34192  290.12 0854.42
2009/04/23 13:18:09.7     -94   -146    246    174    301 212.7  61.5  34194  290.14 0854.42
2009/04/23 13:18:09.8    -155   -273    233    315    391 209.6  40.2  34188  290.03 0854.42
2009/04/23 13:18:09.9     -39   -156    251    162    298 194.3  64.6  34190  290.07 0854.42
2009/04/23 13:18:10.0      42     20    189     47    194  64.7  86.2  34204  290.31 0854.42
2009/04/23 13:18:10.1      10    -77    210     78    224 171.9  79.1  34204  290.31 0854.42
2009/04/23 13:18:10.2      39   -199    250    203    322 168.7  57.0  34184  289.97 0854.42
2009/04/23 13:18:10.3     121   -276    311    302    433 156.3  51.1  34168  289.72 0854.42
2009/04/23 13:18:10.4     112   -235    242    261    355 154.5  47.7  34166  289.68 0854.46
2009/04/23 13:18:10.5     127   -206    246    243    345 148.4  50.2  34168  289.70 0854.46
2009/04/23 13:18:10.6      96   -324    271    339    434 163.5  42.7  34158  289.53 0854.46
2009/04/23 13:18:10.7      47   -303    268    307    407 171.1  45.6  34162  289.59 0854.46
2009/04/23 13:18:10.8      29   -255    193    257    321 173.3  40.7  34160  289.56 0854.46
2009/04/23 13:18:10.9      46    -93    153    104    185 153.7  62.8  34160  289.58 0854.46
2009/04/23 13:18:11.0     -19    -21    123     29    126 221.4  86.9  34164  289.63 0854.46
2009/04/23 13:18:11.1     -11   -148    220    149    265 184.5  62.8  34162  289.59 0854.46
2009/04/23 13:18:11.2     -11   -113    219    114    246 185.8  70.6  34168  289.72 0854.46
2009/04/23 13:18:11.3     -15    -57    168     60    178 195.1  79.7  34170  289.74 0854.46
2009/04/23 13:18:11.4       4    -63    172     64    183 175.6  78.9  34174  289.80 0854.46
2009/04/23 13:18:11.5     -77   -171    220    188    289 204.5  55.4  34168  289.71 0854.46
2009/04/23 13:18:11.6    -154   -139    129    208    244 228.0  34.8  34184  289.97 0854.46
2009/04/23 13:18:11.7    -153   -134    125    204    239 228.7  34.4  34182  289.96 0854.46
2009/04/23 13:18:11.8    -159   -168    120    232    261 223.3  29.5  34192  290.10 0854.46
2009/04/23 13:18:11.9    -148   -172     92    228    245 220.8  23.1  34198  290.20 0854.46
2009/04/23 13:18:12.0     -32   -134    186    138    231 193.8  60.3  34168  289.72 0854.46
2009/04/23 13:18:12.1     -16   -143    124    144    190 186.7  45.1  34166  289.69 0854.46
2009/04/23 13:18:12.2     -39   -155    160    160    226 194.3  50.1  34160  289.57 0854.46
2009/04/23 13:18:12.3      -6   -165    191    166    253 182.2  54.6  34162  289.60 0854.46
2009/04/23 13:18:12.4     -11   -112    125    113    168 185.8  53.3  34162  289.60 0854.44
2009/04/23 13:18:12.5     -24    -47    113     53    124 207.2  73.1  34164  289.63 0854.44
2009/04/23 13:18:12.6     -13    -99    131    100    164 188.0  59.0  34166  289.67 0854.44
2009/04/23 13:18:12.7     -43    -68    174     81    191 212.5  73.2  34180  289.91 0854.44
2009/04/23 13:18:12.8      26     91     90     95    130  16.0  48.5  34182  289.96 0854.44
2009/04/23 13:18:12.9      59     46    107     75    130  52.2  61.5  34178  289.87 0854.44
2009/04/23 13:18:13.0     -14     21    154     26    156 327.4  90.0  34188  290.06 0854.44
2009/04/23 13:18:13.1     116     26    123    119    171  77.2  50.9  34196  290.18 0854.44
2009/04/23 13:18:13.2     238     95    113    257    280  68.2  25.2  34228  290.73 0854.44
2009/04/23 13:18:13.3     301    107    109    320    339  70.4  18.9  34242  290.98 0854.44
2009/04/23 13:18:13.4     302     56    178    308    355  79.5  32.8  34240  290.94 0854.44
2009/04/23 13:18:13.5     257    121    220    285    360  64.7  41.6  34222  290.62 0854.44
2009/04/23 13:18:13.6     171    165    128    238    270  46.0  30.6  34224  290.66 0854.44
2009/04/23 13:18:13.7     136    -23    180    138    226  99.7  58.5  34192  290.11 0854.44
2009/04/23 13:18:13.8     245     -4    215    246    326  91.0  45.6  34202  290.27 0854.44
2009/04/23 13:18:13.9     117     92    246    149    287  51.8  66.0  34182  289.93 0854.44
2009/04/23 13:18:14.0     -20     21    219     30    221 316.8  90.0  34204  290.31 0854.44
2009/04/23 13:18:14.1     110     85    230    140    269  52.3  65.7  34210  290.41 0854.44
2009/04/23 13:18:14.2     -68     27     91     74    117 291.7  56.4  34222  290.64 0854.44
2009/04/23 13:18:14.3    -243    -73    129    254    284 253.2  29.1  34210  290.41 0854.44
2009/04/23 13:18:14.4    -269    -58      2    276    277 257.7   0.5  34200  290.26 0854.47
2009/04/23 13:18:14.5    -179    -66     15    191    192 249.6   4.6  34202  290.30 0854.47
2009/04/23 13:18:14.6    -129    -67      7    146    147 242.5   2.8  34196  290.18 0854.47
2009/04/23 13:18:14.7     -57    -54     58     79     98 226.9  40.1  34186  290.02 0854.47
2009/04/23 13:18:14.8     -31    -57     57     66     87 208.9  45.8  34190  290.08 0854.47
2009/04/23 13:18:14.9     -11    -41     35     43     55 196.0  43.7  34190  290.09 0854.47
2009/04/23 13:18:15.0     -19     -4     49     20     52 256.7  77.1  34190  290.09 0854.47
2009/04/23 13:18:15.1       4    166     -1    167    168   1.4  -0.5  34198  290.23 0854.47
2009/04/23 13:18:15.2      64    102    185    121    221  32.5  64.1  34192  290.11 0854.47
2009/04/23 13:18:15.3     143    143    171    203    265  44.9  44.3  34192  290.10 0854.47
2009/04/23 13:18:15.4      68    379    291    386    483  10.3  40.7  34208  290.39 0854.47
2009/04/23 13:18:15.5     -69    398    162    405    436 350.1  23.0  34204  290.33 0854.47
2009/04/23 13:18:15.6     -99    365    218    379    437 344.8  32.4  34200  290.24 0854.47
2009/04/23 13:18:15.7     -40    255     97    259    276 351.1  21.5  34186  290.02 0854.47
2009/04/23 13:18:15.8     -10    346    242    347    423 358.2  38.4  34186  290.01 0854.47
2009/04/23 13:18:15.9    -250    295    136    388    412 319.7  19.4  34204  290.31 0854.47
2009/04/23 13:18:16.0    -276    366    150    459    484 323.0  18.1  34226  290.68 0854.47
2009/04/23 13:18:16.1    -190    325     67    377    383 329.7  10.1  34218  290.54 0854.47
2009/04/23 13:18:16.2    -181    301     -7    352    353 329.0  -1.2  34224  290.66 0854.47
2009/04/23 13:18:16.3    -393    225     25    453    454 299.8   3.2  34248  291.07 0854.47
2009/04/23 13:18:16.4    -500     49     -7    503    504 275.7  -0.9  34232  290.79 0854.47
2009/04/23 13:18:16.5    -441   -330    139    551    569 233.2  14.2  34202  290.28 0854.47
2009/04/23 13:18:16.6    -329   -437    165    548    573 217.0  16.8  34208  290.38 0854.47
2009/04/23 13:18:16.7    -291   -434      7    523    524 213.9   0.8  34192  290.11 0854.47
2009/04/23 13:18:16.8    -198   -268    -77    334    343 216.4 -13.1  34186  290.01 0854.47
2009/04/23 13:18:16.9    -225   -199    -84    301    312 228.4 -20.3  34172  289.76 0854.47
2009/04/23 13:18:17.0    -239   -215   -115    322    343 228.0 -19.7  34188  290.06 0854.47
2009/04/23 13:18:17.1    -226   -319    -93    391    402 215.3 -13.4  34184  289.98 0854.47
2009/04/23 13:18:17.2    -342   -258     55    429    433 232.9   7.4  34184  289.97 0854.47
2009/04/23 13:18:17.3    -705   -388    -44    805    807 241.2  -3.1  34196  290.18 0854.47
2009/04/23 13:18:17.4    -511   -427    131    667    680 230.1  11.1  34164  289.63 0854.47
2009/04/23 13:18:17.5    -420   -359    -95    553    562 229.5  -9.8  34178  289.87 0854.47
2009/04/23 13:18:17.6    -281   -232    -79    365    374 230.4 -12.3  34188  290.03 0854.47
2009/04/23 13:18:17.7    -265   -455     21    527    528 210.2   2.4  34202  290.30 0854.47
2009/04/23 13:18:17.8    -531   -295      3    608    609 240.9   0.3  34184  289.97 0854.47
2009/04/23 13:18:17.9    -629    -87    -59    635    639 262.1  -5.3  34196  290.18 0854.47
2009/04/23 13:18:18.0    -393   -250   -158    467    494 237.5 -18.7  34188  290.06 0854.47
2009/04/23 13:18:18.1    -301   -455   -148    546    566 213.5 -15.2  34176  289.84 0854.47
2009/04/23 13:18:18.2    -209   -376     -8    431    432 209.0  -1.1  34180  289.90 0854.47
2009/04/23 13:18:18.3    -188   -193    -13    270    271 224.3  -2.8  34182  289.93 0854.47
2009/04/23 13:18:18.4    -197   -231    -78    304    315 220.5 -14.5  34178  289.88 0854.48
2009/04/23 13:18:18.5    -547     21   -121    548    562 272.3 -12.5  34186  290.01 0854.48
2009/04/23 13:18:18.6    -726   -158   -222    744    777 257.7 -16.6  34180  289.92 0854.48
2009/04/23 13:18:18.7    -686     24   -203    687    717 272.0 -16.5  34178  289.89 0854.48
2009/04/23 13:18:18.8    -596    -50    -43    599    601 265.2  -4.1  34198  290.20 0854.48
2009/04/23 13:18:18.9    -749      6   -147    750    765 270.5 -11.1  34198  290.23 0854.48
2009/04/23 13:18:19.0    -432   -219   -157    485    509 243.1 -23.2  34186  290.00 0854.48
2009/04/23 13:18:19.1    -395   -324    -42    512    514 230.6  -4.7  34178  289.89 0854.48
2009/04/23 13:18:19.2    -403   -297    -56    501    505 233.6  -6.5  34178  289.88 0854.48
2009/04/23 13:18:19.3    -353   -325    130    480    498 227.4  15.2  34186  290.00 0854.48
2009/04/23 13:18:19.4    -499   -147     45    521    524 253.6   5.0  34188  290.06 0854.48
2009/04/23 13:18:19.5    -406   -319    -47    517    520 231.9  -5.2  34186  290.00 0854.48
2009/04/23 13:18:19.6    -224   -458     92    510    519 206.1  10.2  34182  289.93 0854.48
2009/04/23 13:18:19.7    -262   -473     47    541    544 209.0   5.0  34178  289.87 0854.48
2009/04/23 13:18:19.8    -351   -278   -154    448    474 231.6 -19.0  34176  289.83 0854.48
2009/04/23 13:18:19.9    -409   -524    150    665    682 218.0  12.8  34188  290.05 0854.48
2009/04/23 13:18:20.0    -378   -553    150    671    688 214.4  12.6  34176  289.83 0854.48
2009/04/23 13:18:20.2    -467   -487    -71    676    680 223.8  -6.1  34194  290.14 0854.48
2009/04/23 13:18:20.3    -538   -597   -229    804    835 222.0 -20.7  34188  290.03 0854.48
2009/04/23 13:18:20.3    -497   -704   -201    862    886 215.2 -13.2  34170  289.74 0854.48
2009/04/23 13:18:20.5    -597   -359   -263    697    744 239.0 -26.1  34162  289.61 0854.46
2009/04/23 13:18:20.5    -638   -723   -286    965   1007 221.4 -16.5  34168  289.71 0854.46
2009/04/23 13:18:20.7    -717   -865   -144   1124   1134 219.6  -7.3  34174  289.81 0854.46
2009/04/23 13:18:20.8    -317   -713   -243    781    818 204.0 -17.3  34166  289.69 0854.46
2009/04/23 13:18:20.9    -408   -533   -105    672    681 217.4  -8.9  34166  289.66 0854.46
2009/04/23 13:18:21.0    -549   -510    -41    750    752 227.1  -3.2  34172  289.77 0854.46
2009/04/23 13:18:21.1    -881   -619    -11   1077   1078 234.9  -0.6  34182  289.96 0854.46
2009/04/23 13:18:21.2    -737   -651    173    984   1000 228.6  10.0  34172  289.78 0854.46
2009/04/23 13:18:21.3    -613   -807     88   1014   1018 217.2   5.0  34174  289.81 0854.46
2009/04/23 13:18:21.4    -640  -1073     -5   1250   1251 210.8  -0.3  34170  289.75 0854.46
2009/04/23 13:18:21.5    -386  -1095    152   1162   1172 199.4   7.5  34166  289.66 0854.46
2009/04/23 13:18:21.6    -175   -895    297    913    961 191.1  18.0  34166  289.68 0854.46
2009/04/23 13:18:21.7    -294   -931    203    977    999 197.5  11.8  34170  289.73 0854.46
2009/04/23 13:18:21.8    -302   -785     59    842    845 201.1   4.0  34162  289.61 0854.46
2009/04/23 13:18:21.9    -138   -645    433    660    789 192.2  36.4  34168  289.70 0854.46
2009/04/23 13:18:22.0    -302   -756    158    815    831 201.8  11.0  34174  289.82 0854.46
2009/04/23 13:18:22.1    -254   -563    169    618    641 204.3  15.3  34176  289.84 0854.46
2009/04/23 13:18:22.2    -428   -793     74    902    906 208.4   4.7  34164  289.65 0854.46
2009/04/23 13:18:22.3    -451   -628    -52    774    776 215.7  -3.9  34174  289.81 0854.46
2009/04/23 13:18:22.4    -537   -607    -86    811    816 221.5  -6.1  34172  289.79 0854.46
2009/04/23 13:18:22.5    -493   -460   -194    675    703 227.0 -16.0  34170  289.75 0854.47
2009/04/23 13:18:22.6    -352   -352   -276    499    570 225.0 -35.8  34166  289.68 0854.47
2009/04/23 13:18:22.7    -314   -457     -2    555    556 214.5  -0.3  34170  289.74 0854.47
2009/04/23 13:18:22.8    -264   -342    219    433    485 217.7  28.9  34172  289.78 0854.47
2009/04/23 13:18:22.9     -52   -535    -47    538    541 185.6  -5.1  34172  289.77 0854.47
2009/04/23 13:18:23.0      -2   -610     80    611    617 180.3   7.5  34176  289.84 0854.47
2009/04/23 13:18:23.1       9   -612    171    613    637 179.1  15.6  34174  289.81 0854.47
2009/04/23 13:18:23.2      29   -624    234    625    667 177.3  21.5  34172  289.77 0854.47
2009/04/23 13:18:23.3       9   -645    208    646    679 179.2  17.9  34172  289.78 0854.47
2009/04/23 13:18:23.4    -248   -609    129    658    671 202.2  11.1  34174  289.80 0854.47
2009/04/23 13:18:23.5     -33   -466    109    468    481 184.1  13.1  34168  289.71 0854.47
2009/04/23 13:18:23.6     130   -499    -10    516    517 165.4  -1.1  34170  289.74 0854.47
2009/04/23 13:18:23.7      36   -526    -20    528    529 176.0  -2.2  34168  289.72 0854.47
2009/04/23 13:18:23.8     -33   -390    114    392    409 185.0  16.3  34176  289.83 0854.47
2009/04/23 13:18:23.9     201   -331     82    388    397 148.7  12.0  34176  289.84 0854.47
2009/04/23 13:18:24.0     147   -366    144    395    420 158.1  20.8  34170  289.75 0854.47
2009/04/23 13:18:24.1       2   -358    126    359    381 179.7  19.4  34174  289.81 0854.47
2009/04/23 13:18:24.2       0   -262     17    263    264 179.9   3.8  34178  289.88 0854.47
2009/04/23 13:18:24.3      63   -189     56    200    208 161.5  15.8  34172  289.77 0854.47
2009/04/23 13:18:24.4       7   -112    113    113    159 176.4  50.1  34176  289.84 0854.47
2009/04/23 13:18:24.5     -15    -77    110     79    135 191.6  61.1  34182  289.94 0854.52
2009/04/23 13:18:24.6    -135   -135    140    192    237 224.9  39.7  34176  289.84 0854.52
2009/04/23 13:18:24.7    -207   -200    118    289    312 226.0  23.4  34178  289.86 0854.52
2009/04/23 13:18:24.8    -163    -54     24    172    174 251.4   8.2  34176  289.84 0854.52
2009/04/23 13:18:24.9    -162     59      3    173    174 290.0   1.2  34178  289.89 0854.52
2009/04/23 13:18:25.0    -216    110     34    243    246 297.1   8.0  34172  289.76 0854.52
2009/04/23 13:18:25.1    -302    101     93    319    333 288.6  16.3  34174  289.81 0854.52
2009/04/23 13:18:25.2    -160   -163    -20    229    230 224.5  -5.2  34176  289.84 0854.52
2009/04/23 13:18:25.3    -237   -178    -72    297    306 233.2 -13.7  34170  289.73 0854.52
2009/04/23 13:18:25.4    -324   -269    -69    422    428 230.3  -9.4  34178  289.88 0854.52
2009/04/23 13:18:25.5     -98   -191    -67    215    225 207.2 -22.8  34184  289.97 0854.49
2009/04/23 13:18:25.6      80   -218    -79    233    247 159.7 -18.7  34184  289.98 0854.49
2009/04/23 13:18:25.7     -18   -298   -102    299    317 183.5 -19.0  34180  289.92 0854.49
2009/04/23 13:18:25.8      28   -266   -135    268    300 173.8 -33.1  34180  289.92 0854.49
2009/04/23 13:18:25.9     -79   -133   -116    155    193 210.7 -44.8  34178  289.89 0854.49
2009/04/23 13:18:26.0    -206    -89   -191    225    295 246.5 -49.2  34182  289.93 0854.49
2009/04/23 13:18:26.1    -425     -6    -81    426    434 269.2 -10.8  34180  289.90 0854.49
2009/04/23 13:18:26.2    -471    -82   -149    479    501 260.1 -22.3  34168  289.71 0854.49
2009/04/23 13:18:26.3    -437     59   -233    441    498 277.7 -34.6  34182  289.96 0854.49
2009/04/23 13:18:26.4    -312     86   -203    324    382 285.5 -39.7  34180  289.91 0854.49
2009/04/23 13:18:26.5    -344   -201   -163    399    431 239.6 -27.9  34178  289.88 0854.49
2009/04/23 13:18:26.6      59   -278    107    285    304 168.0  21.5  34178  289.88 0854.49
2009/04/23 13:18:26.7      87   -312    131    324    349 164.4  23.1  34180  289.91 0854.49
2009/04/23 13:18:26.8     -27   -361     52    362    366 184.3   8.2  34178  289.87 0854.49
2009/04/23 13:18:26.9    -101   -254    188    274    332 201.8  37.8  34176  289.83 0854.49
2009/04/23 13:18:27.0     -83   -231    124    246    275 199.8  29.1  34176  289.83 0854.49
2009/04/23 13:18:27.1     -62   -188     58    198    207 198.3  16.3  34174  289.82 0854.49
2009/04/23 13:18:27.2     -43   -275     77    279    290 188.9  15.6  34174  289.80 0854.49
2009/04/23 13:18:27.3     -32   -329    129    331    355 185.7  22.5  34166  289.67 0854.49
2009/04/23 13:18:27.4      -8   -291    156    292    331 181.6  30.6  34164  289.64 0854.49
2009/04/23 13:18:27.5    -143   -453    259    475    541 197.5  31.0  34170  289.74 0854.46
2009/04/23 13:18:27.6    -166   -479    256    508    568 199.2  28.8  34166  289.67 0854.46
2009/04/23 13:18:27.7    -150   -345    129    377    399 203.5  18.9  34168  289.72 0854.46
2009/04/23 13:18:27.8    -301   -309    -71    432    438 224.2  -9.3  34172  289.78 0854.46
2009/04/23 13:18:27.9    -166   -338    -21    377    378 206.2  -3.3  34164  289.65 0854.46
2009/04/23 13:18:28.0    -194   -194    -87    275    289 225.0 -17.5  34160  289.58 0854.46
2009/04/23 13:18:28.1    -228   -188   -136    296    325 230.5 -30.8  34154  289.47 0854.46
2009/04/23 13:18:28.2    -234   -300    -82    381    390 218.0 -12.2  34168  289.72 0854.46
2009/04/23 13:18:28.3    -282   -363   -127    460    478 217.9 -15.5  34166  289.67 0854.46
2009/04/23 13:18:28.4    -336   -300    -24    451    452 228.2  -3.1  34170  289.75 0854.46
2009/04/23 13:18:28.5    -302   -325    -39    445    447 222.9  -5.1  34174  289.80 0854.46
2009/04/23 13:18:28.6    -147   -366    -36    395    397 201.9  -5.3  34164  289.64 0854.46
2009/04/23 13:18:28.7     -27   -292     -5    294    295 185.3  -1.2  34168  289.71 0854.46
2009/04/23 13:18:28.8     -45   -244     -9    249    250 190.6  -2.2  34170  289.75 0854.46
2009/04/23 13:18:28.9    -126   -134    -70    185    197 223.2 -25.9  34172  289.77 0854.46
2009/04/23 13:18:29.0    -181   -192   -168    265    313 223.3 -39.7  34150  289.39 0854.46
2009/04/23 13:18:29.1     -68   -121   -188    140    234 209.4 -64.0  34164  289.63 0854.46
2009/04/23 13:18:29.2     -20   -205    -74    207    219 185.8 -24.8  34160  289.57 0854.46
2009/04/23 13:18:29.3    -158   -263     36    307    310 211.0   6.7  34168  289.71 0854.46
2009/04/23 13:18:29.4    -143   -315     -5    347    348 204.4  -0.9  34166  289.69 0854.46
2009/04/23 13:18:29.5    -148   -301     -6    336    337 206.3  -1.1  34170  289.74 0854.46
2009/04/23 13:18:29.6     -33   -257    -72    260    270 187.3 -15.5  34166  289.68 0854.46
2009/04/23 13:18:29.7     -53   -216    -73    223    234 194.0 -23.3  34166  289.69 0854.46
2009/04/23 13:18:29.8    -148   -184    -78    237    250 218.7 -18.3  34166  289.68 0854.46
2009/04/23 13:18:29.9    -162   -255   -139    303    333 212.5 -30.8  34164  289.63 0854.46
2009/04/23 13:18:30.0    -168   -157   -184    231    295 226.9 -47.1  34164  289.64 0854.46
2009/04/23 13:18:30.1    -349   -298   -197    460    500 229.5 -29.0  34152  289.42 0854.46
2009/04/23 13:18:30.2    -177   -295   -261    345    432 211.0 -45.3  34148  289.36 0854.46
2009/04/23 13:18:30.3     -77   -272   -250    283    377 195.8 -50.5  34148  289.38 0854.46
2009/04/23 13:18:30.4      29   -210   -220    213    306 172.0 -55.6  34150  289.39 0854.46
2009/04/23 13:18:30.5    -200    -90   -198    220    295 245.6 -51.3  34156  289.51 0854.46
2009/04/23 13:18:30.6    -214    -29   -171    217    276 262.1 -46.6  34166  289.68 0854.46
2009/04/23 13:18:30.7    -232      3    -80    233    246 270.9 -23.8  34168  289.70 0854.46
2009/04/23 13:18:30.8    -286     40    -81    289    301 278.0 -15.8  34166  289.66 0854.46
2009/04/23 13:18:30.9    -331     -3     -2    332    333 269.4  -0.5  34164  289.65 0854.46
2009/04/23 13:18:31.0    -139    -37   -142    145    202 254.9 -54.2  34168  289.72 0854.46
2009/04/23 13:18:31.1     -61    -16   -185     64    195 254.9 -85.1  34166  289.67 0854.46
2009/04/23 13:18:31.2    -281    -51   -126    286    312 259.6 -29.6  34162  289.59 0854.46
2009/04/23 13:18:31.3    -264   -127   -115    294    315 244.2 -26.9  34162  289.59 0854.46
2009/04/23 13:18:31.4    -187    -63    -87    198    216 251.4 -29.5  34162  289.60 0854.46
2009/04/23 13:18:31.5    -376   -182   -150    419    446 244.1 -19.7  34158  289.55 0854.48
2009/04/23 13:18:31.6    -308   -349   -121    466    482 221.4 -14.6  34160  289.57 0854.48
2009/04/23 13:18:31.7    -204   -357    -64    412    418 209.7  -8.9  34168  289.72 0854.48
2009/04/23 13:18:31.8     -72   -387    -51    394    398 190.6  -7.5  34170  289.74 0854.48
2009/04/23 13:18:31.9       2   -363    -37    364    366 179.7  -5.9  34166  289.67 0854.48
2009/04/23 13:18:32.0     -20   -395    -15    396    397 183.0  -2.2  34168  289.71 0854.48
2009/04/23 13:18:32.1     -15   -425    -40    426    429 182.1  -5.5  34168  289.72 0854.48
2009/04/23 13:18:32.2      33   -427    -23    429    430 175.5  -3.1  34166  289.68 0854.48
2009/04/23 13:18:32.3      82   -454    -25    462    463 169.8  -3.2  34160  289.56 0854.48
2009/04/23 13:18:32.4     120   -326     15    348    349 159.7   2.5  34162  289.60 0854.48
2009/04/23 13:18:32.5      33   -267    -82    270    282 172.8 -21.8  34166  289.66 0854.48
2009/04/23 13:18:32.6      64   -244    -46    253    258 165.3 -10.5  34158  289.54 0854.48
2009/04/23 13:18:32.7     112   -416     29    432    433 164.9   3.9  34164  289.63 0854.48
2009/04/23 13:18:32.8      98   -357     18    371    372 164.6   2.9  34158  289.54 0854.48
2009/04/23 13:18:32.9     -38   -389     12    391    392 185.6   1.8  34162  289.62 0854.48
2009/04/23 13:18:33.0     -57   -520     39    524    526 186.3   4.3  34158  289.55 0854.48
2009/04/23 13:18:33.1      26   -530    -83    531    538 177.1  -8.9  34162  289.60 0854.48
2009/04/23 13:18:33.2     110   -783    101    791    798 172.0   7.3  34164  289.64 0854.48
2009/04/23 13:18:33.3     172   -659     43    682    684 165.3   3.6  34164  289.65 0854.48
2009/04/23 13:18:33.4      85   -610     87    617    624 172.0   8.1  34164  289.65 0854.48
2009/04/23 13:18:33.5      45   -539    115    542    555 175.1  12.0  34164  289.63 0854.51
2009/04/23 13:18:33.6      -3   -667    108    668    677 180.3   9.2  34162  289.60 0854.51
2009/04/23 13:18:33.7     150   -713     69    729    733 168.1   5.4  34164  289.64 0854.51
2009/04/23 13:18:33.8      98   -690     52    698    700 171.9   4.3  34168  289.72 0854.51
2009/04/23 13:18:33.9     132   -667     38    681    683 168.8   3.2  34162  289.61 0854.51
2009/04/23 13:18:34.0      79   -628     63    634    638 172.8   5.7  34162  289.59 0854.51
2009/04/23 13:18:34.1      88   -593    107    600    610 171.5  10.1  34162  289.61 0854.51
2009/04/23 13:18:34.2     211   -542    -93    582    590 158.7  -9.1  34154  289.47 0854.51
2009/04/23 13:18:34.3     141   -419   -111    443    457 161.3 -14.1  34152  289.44 0854.51
2009/04/23 13:18:34.4      98   -320   -138    335    362 163.0 -28.1  34148  289.38 0854.51
2009/04/23 13:18:34.5     -54   -408   -203    412    459 187.6 -32.5  34164  289.65 0854.51
2009/04/23 13:18:34.6    -158   -591    -50    612    615 195.0  -4.7  34162  289.59 0854.51
2009/04/23 13:18:34.7    -213   -532    -18    574    575 201.9  -1.9  34170  289.73 0854.51
2009/04/23 13:18:34.8       2   -413   -117    414    430 179.7 -20.4  34168  289.72 0854.51
2009/04/23 13:18:34.9    -164   -477   -167    505    532 199.0 -18.3  34164  289.65 0854.51
2009/04/23 13:18:35.0    -134   -458   -116    478    492 196.4 -13.7  34162  289.62 0854.51
2009/04/23 13:18:35.1    -144   -625   -179    642    666 193.0 -20.2  34162  289.60 0854.51
2009/04/23 13:18:35.2    -171   -596    -83    621    627 196.0  -7.7  34158  289.55 0854.51
2009/04/23 13:18:35.3    -481   -296    -81    566    572 238.4  -8.2  34154  289.46 0854.51
2009/04/23 13:18:35.4    -245    -96   -162    264    309 248.5 -39.2  34156  289.49 0854.53
2009/04/23 13:18:35.5     -43   -224    -63    229    238 190.9 -15.5  34146  289.32 0854.53
2009/04/23 13:18:35.6    -105   -271    -57    291    297 201.2 -11.1  34160  289.56 0854.53
2009/04/23 13:18:35.7    -200   -242     -9    315    316 219.6  -1.7  34162  289.59 0854.53
2009/04/23 13:18:35.8    -125   -158      2    202    203 218.3   0.8  34146  289.33 0854.53
2009/04/23 13:18:35.9    -145   -303     83    337    348 205.6  13.9  34152  289.43 0854.53
2009/04/23 13:18:36.0    -122   -274     52    301    306 204.1   9.9  34148  289.36 0854.53
2009/04/23 13:18:36.1    -232   -498    149    550    570 205.0  15.2  34150  289.40 0854.53
2009/04/23 13:18:36.2     -73   -449    182    456    490 189.3  23.0  34156  289.49 0854.53
2009/04/23 13:18:36.3      31   -287    158    289    329 173.7  30.9  34154  289.46 0854.53
2009/04/23 13:18:36.4     -87   -107     16    139    141 219.2   6.9  34148  289.38 0854.53
2009/04/23 13:18:36.5     -73   -148    -60    166    176 206.3 -25.1  34148  289.38 0854.53
2009/04/23 13:18:36.6      -3   -286     -5    287    288 180.7  -1.1  34150  289.39 0854.53
2009/04/23 13:18:36.7     -49   -284     36    289    292 189.8   7.2  34146  289.32 0854.53
2009/04/23 13:18:36.8    -152   -151     64    215    225 225.1  16.6  34152  289.43 0854.53
2009/04/23 13:18:36.9    -188    -63   -155    199    252 251.4 -46.1  34152  289.44 0854.53
2009/04/23 13:18:37.0    -116     -1   -141    117    183 269.1 -60.7  34150  289.40 0854.53
2009/04/23 13:18:37.1       8   -254      5    255    256 178.0   1.2  34150  289.39 0854.53
2009/04/23 13:18:37.2    -235   -134    -10    271    272 240.2  -2.2  34152  289.44 0854.53
2009/04/23 13:18:37.3    -124   -125    -76    177    192 224.9 -29.0  34146  289.35 0854.53
2009/04/23 13:18:37.4    -234    192     48    303    307 309.3   9.0  34140  289.24 0854.54
2009/04/23 13:18:37.5    -559    132    124    575    589 283.3  12.2  34152  289.42 0854.54
2009/04/23 13:18:37.6    -334     64     60    341    347 280.9  10.1  34152  289.45 0854.54
2009/04/23 13:18:37.7    -175    172    -75    246    257 314.4 -21.7  34152  289.42 0854.54
2009/04/23 13:18:37.8    -171     13   -195    172    260 274.4 -58.6  34156  289.51 0854.54
2009/04/23 13:18:37.9    -260     41   -147    264    302 279.0 -35.8  34160  289.56 0854.54
2009/04/23 13:18:38.0    -144   -212   -129    257    287 214.3 -33.1  34156  289.49 0854.54
2009/04/23 13:18:38.1    -185   -368   -200    412    457 206.7 -32.2  34156  289.51 0854.54
2009/04/23 13:18:38.2    -394   -297   -214    494    538 232.9 -29.5  34150  289.40 0854.54
2009/04/23 13:18:38.3    -291   -245   -214    381    436 229.8 -36.1  34148  289.38 0854.54
2009/04/23 13:18:38.4    -111   -192   -190    223    292 210.1 -49.2  34152  289.42 0854.54
2009/04/23 13:18:38.5    -169   -354   -116    393    409 205.6 -21.2  34154  289.46 0854.54
2009/04/23 13:18:38.6    -144   -329   -243    360    434 203.6 -41.8  34154  289.46 0854.54
2009/04/23 13:18:38.7    -191   -279   -184    339    385 214.4 -35.3  34150  289.40 0854.54
2009/04/23 13:18:38.8    -150   -235   -242    279    369 212.6 -49.9  34148  289.38 0854.54
2009/04/23 13:18:38.9    -124   -260   -269    289    394 205.5 -52.2  34152  289.45 0854.54
2009/04/23 13:18:39.0    -178   -356   -235    399    463 206.6 -37.8  34150  289.41 0854.54
2009/04/23 13:18:39.1     -93   -306   -267    320    416 196.9 -48.4  34148  289.37 0854.54
2009/04/23 13:18:39.2     -87    -84   -234    121    263 226.0 -75.0  34152  289.43 0854.54
2009/04/23 13:18:39.3     -61    -50   -171     80    188 230.5 -77.5  34156  289.50 0854.54
2009/04/23 13:18:39.4     -61    -70   -197     94    218 221.0 -77.2  34152  289.45 0854.56
2009/04/23 13:18:39.5      74   -144   -173    162    237 152.8 -56.6  34154  289.46 0854.56
2009/04/23 13:18:39.6     -38    -74   -235     84    249 207.6 -84.3  34154  289.46 0854.56
2009/04/23 13:18:39.7     107    -68   -256    127    285 122.4 -76.3  34154  289.47 0854.56
2009/04/23 13:18:39.8     -62   -123   -222    138    261 206.7 -69.3  34148  289.36 0854.56
2009/04/23 13:18:39.9     -89   -263   -253    278    375 198.7 -51.5  34156  289.50 0854.56
2009/04/23 13:18:40.0     -28   -361   -215    363    421 184.5 -37.8  34154  289.46 0854.56
2009/04/23 13:18:40.1     -55   -449   -241    453    513 187.1 -34.7  34150  289.39 0854.56
2009/04/23 13:18:40.2      84   -402   -132    411    431 168.1 -22.8  34148  289.36 0854.56
2009/04/23 13:18:40.3       5   -337   -173    338    379 179.1 -33.6  34152  289.43 0854.56
2009/04/23 13:18:40.4     186   -292   -193    347    397 147.5 -35.9  34148  289.38 0854.56
2009/04/23 13:18:40.5     392   -210   -123    445    462 118.2 -15.5  34150  289.41 0854.56
2009/04/23 13:18:40.6     507   -107     44    519    522 102.0   4.9  34154  289.46 0854.56
2009/04/23 13:18:40.7     379   -132     60    402    407 109.3   8.5  34152  289.44 0854.56
2009/04/23 13:18:40.8     458    -73     81    464    472  99.1  10.0  34152  289.44 0854.56
2009/04/23 13:18:40.9     541    -58    223    545    588  96.2  23.6  34154  289.46 0854.56
2009/04/23 13:18:41.0     525   -129    327    541    632 103.8  34.1  34158  289.54 0854.56
2009/04/23 13:18:41.1     569   -123    355    583    682 102.3  34.2  34162  289.59 0854.56
2009/04/23 13:18:41.2     498    -84    329    506    603  99.6  36.0  34158  289.54 0854.56
2009/04/23 13:18:41.3     396   -130    267    417    495 108.2  35.6  34154  289.47 0854.56
2009/04/23 13:18:41.4     436   -113    301    451    542 104.6  37.0  34156  289.49 0854.56
2009/04/23 13:18:41.5     346    -59    298    352    461  99.8  44.4  34150  289.41 0854.56
2009/04/23 13:18:41.6     378    -43    288    381    477  96.6  40.9  34150  289.41 0854.56
2009/04/23 13:18:41.7     407    -44    275    410    493  96.3  37.0  34154  289.47 0854.56
2009/04/23 13:18:41.8     386    -48    335    390    514  97.1  45.1  34166  289.67 0854.56
2009/04/23 13:18:41.9     425   -100    255    437    505 103.3  33.0  34156  289.50 0854.56
2009/04/23 13:18:42.0     441   -150    244    466    526 108.8  29.9  34152  289.42 0854.56
2009/04/23 13:18:42.1     521   -122    225    536    581 103.2  24.1  34150  289.40 0854.56
2009/04/23 13:18:42.2     360   -100    266    374    458 105.5  39.0  34136  289.17 0854.56
2009/04/23 13:18:42.3     314   -127    210    339    398 112.1  34.8  34158  289.54 0854.56
2009/04/23 13:18:42.4     324    -83    251    335    418 104.4  40.6  34158  289.54 0854.56
2009/04/23 13:18:42.5     348     17    247    349    427  87.1  38.7  34164  289.65 0854.56
2009/04/23 13:18:42.6     379    -50    261    383    463  97.6  37.6  34166  289.66 0854.56
2009/04/23 13:18:42.7     418    -43    176    421    456  96.0  24.1  34152  289.44 0854.56
2009/04/23 13:18:42.8     338    -91    135    351    376 105.2  22.3  34160  289.57 0854.56
2009/04/23 13:18:42.9     550    -89    153    558    579  99.2  15.4  34154  289.47 0854.56
2009/04/23 13:18:43.0     506    -74     90    512    521  98.4  10.0  34150  289.39 0854.56
2009/04/23 13:18:43.1     576    -89    -48    583    586  98.8  -4.8  34148  289.36 0854.56
2009/04/23 13:18:43.2     466   -111   -118    480    495 103.4 -13.9  34156  289.52 0854.56
2009/04/23 13:18:43.3     647   -124    -36    659    661 100.9  -3.1  34154  289.48 0854.56
2009/04/23 13:18:43.4     590   -155     81    611    617 104.8   7.6  34148  289.38 0854.54
2009/04/23 13:18:43.5     577    -62     12    581    582  96.2   1.2  34168  289.71 0854.54
2009/04/23 13:18:43.6     555   -141    117    573    586 104.3  11.6  34166  289.69 0854.54
2009/04/23 13:18:43.7     649   -136     68    664    668 101.9   5.9  34164  289.65 0854.54
2009/04/23 13:18:43.8     534    -74      3    540    541  97.9   0.4  34156  289.51 0854.54
2009/04/23 13:18:43.9     545     55    -40    548    550  84.2  -4.2  34162  289.60 0854.54
2009/04/23 13:18:44.0     604    286    -64    669    673  64.6  -5.5  34170  289.73 0854.54
2009/04/23 13:18:44.1     767     36    -42    768    770  87.3  -3.1  34168  289.70 0854.54
2009/04/23 13:18:44.2     521     56     65    525    530  83.8   7.1  34172  289.77 0854.54
2009/04/23 13:18:44.3     660    132    182    674    699  78.7  15.1  34162  289.61 0854.54
2009/04/23 13:18:44.4     575     91     35    583    585  81.0   3.5  34164  289.63 0854.54
2009/04/23 13:18:44.5     634    -63   -111    638    648  95.7  -9.9  34158  289.53 0854.54
2009/04/23 13:18:44.6     618    -56     27    621    622  95.2   2.5  34164  289.65 0854.54
2009/04/23 13:18:44.7     634    180    103    660    669  74.1   8.9  34166  289.66 0854.54
2009/04/23 13:18:44.8     519     56     34    523    525  83.8   3.8  34170  289.74 0854.54
2009/04/23 13:18:44.9     531    129    139    547    565  76.3  14.3  34162  289.60 0854.54
2009/04/23 13:18:45.0     487     85    107    495    507  80.0  12.3  34158  289.54 0854.54
2009/04/23 13:18:45.1     380     91    112    391    407  76.5  16.0  34158  289.55 0854.54
2009/04/23 13:18:45.2     320    204      7    380    381  57.5   1.1  34166  289.69 0854.54
2009/04/23 13:18:45.3     313     67     61    321    327  77.8  10.8  34160  289.58 0854.54
2009/04/23 13:18:45.4     349    -98     84    363    373 105.7  13.1  34158  289.54 0854.55
2009/04/23 13:18:45.5     305      4    125    306    330  89.2  23.5  34158  289.54 0854.55
2009/04/23 13:18:45.6     280      8    190    281    339  88.3  37.2  34156  289.51 0854.55
2009/04/23 13:18:45.7     315     25    166    317    357  85.4  29.8  34152  289.42 0854.55
2009/04/23 13:18:45.8     274     12    242    275    366  87.4  45.8  34156  289.52 0854.55
2009/04/23 13:18:45.9     151    -70    197    167    258 114.8  55.4  34164  289.65 0854.55
2009/04/23 13:18:46.0       0     -3     98      4     98 184.5  90.0  34170  289.75 0854.55
2009/04/23 13:18:46.1     -20    -32    140     38    145 212.5  84.8  34170  289.75 0854.55
2009/04/23 13:18:46.2    -126    -77     72    148    164 238.5  28.0  34164  289.63 0854.55
2009/04/23 13:18:46.3     -98    -77     87    126    153 231.8  37.6  34168  289.70 0854.55
2009/04/23 13:18:46.4    -120   -296    113    320    340 202.2  19.6  34164  289.64 0854.56
2009/04/23 13:18:46.5     -37   -267    177    270    322 188.0  36.3  34166  289.66 0854.56
2009/04/23 13:18:46.6    -446   -198    -36    489    491 246.0  -4.2  34156  289.52 0854.56
2009/04/23 13:18:46.8    -656   -288    -78    717    722 246.3  -6.2  34158  289.55 0854.56
2009/04/23 13:18:46.9    -657   -184   -201    683    712 254.3 -16.4  34158  289.54 0854.56
2009/04/23 13:18:47.0    -440    112   -122    455    472 284.3 -15.0  34166  289.69 0854.56
2009/04/23 13:18:47.1    -149    -55     18    159    161 249.6   6.7  34168  289.72 0854.56
2009/04/23 13:18:47.2    -246    -12    116    247    272 267.0  27.1  34166  289.66 0854.56
2009/04/23 13:18:47.3    -289     55    136    295    324 280.8  26.5  34170  289.73 0854.56
2009/04/23 13:18:47.4    -429   -327   -247    540    593 232.7 -30.6  34168  289.71 0854.56
2009/04/23 13:18:47.5    -541   -278   -135    609    624 242.8 -12.5  34166  289.67 0854.56
2009/04/23 13:18:47.6    -627   -295   -199    693    721 244.8 -20.8  34162  289.59 0854.56
2009/04/23 13:18:47.7    -725   -372   -171    815    833 242.8 -11.9  34152  289.45 0854.56
2009/04/23 13:18:47.8    -678   -237   -219    719    752 250.7 -17.0  34160  289.56 0854.56
2009/04/23 13:18:47.9    -702   -228   -228    739    773 252.0 -22.1  34152  289.43 0854.56
2009/04/23 13:18:48.0    -643   -179   -205    668    698 254.4 -22.1  34164  289.63 0854.56
2009/04/23 13:18:48.1    -607   -173   -230    632    672 254.1 -25.3  34164  289.63 0854.56
2009/04/23 13:18:48.2    -483   -261   -244    550    601 241.6 -30.0  34162  289.59 0854.56
2009/04/23 13:18:48.3    -341   -441   -149    558    578 217.8 -15.0  34166  289.66 0854.56
2009/04/23 13:18:48.4    -223   -261   -107    344    361 220.5 -17.3  34168  289.71 0854.56
2009/04/23 13:18:48.5    -206   -257   -123    330    352 218.7 -25.7  34168  289.71 0854.57
2009/04/23 13:18:48.6    -212   -159   -152    266    306 233.1 -36.8  34166  289.68 0854.57
2009/04/23 13:18:48.7    -156   -245   -167    291    335 212.6 -36.8  34162  289.61 0854.57
2009/04/23 13:18:48.8     -57   -317   -164    323    362 190.2 -33.5  34166  289.69 0854.57
2009/04/23 13:18:48.9     -79   -238   -125    252    281 198.5 -32.6  34168  289.70 0854.57
2009/04/23 13:18:49.0    -157   -356   -112    390    406 203.8 -16.0  34172  289.76 0854.57
2009/04/23 13:18:49.1     -96   -311    -96    326    340 197.2 -16.4  34172  289.76 0854.57
2009/04/23 13:18:49.2     -17   -225    -71    226    237 184.4 -17.5  34170  289.73 0854.57
2009/04/23 13:18:49.3    -207   -234   -109    313    332 221.4 -19.3  34160  289.56 0854.57
2009/04/23 13:18:49.4    -473   -184   -217    508    552 248.7 -28.9  34164  289.65 0854.57
2009/04/23 13:18:49.5    -571   -158   -207    593    628 254.5 -24.5  34164  289.65 0854.57
2009/04/23 13:18:49.6    -323   -102   -117    339    358 252.5 -24.3  34166  289.67 0854.57
2009/04/23 13:18:49.7    -246   -166   -100    297    313 235.9 -23.6  34168  289.70 0854.57
2009/04/23 13:18:49.8     -77   -145   -193    165    253 207.9 -59.8  34170  289.74 0854.57
2009/04/23 13:18:49.9      44   -109   -109    118    160 157.7 -52.1  34166  289.67 0854.57
2009/04/23 13:18:50.0     -15   -264   -131    265    295 183.4 -32.6  34162  289.61 0854.57
2009/04/23 13:18:50.1     -90   -119    -19    150    152 217.0  -7.3  34166  289.69 0854.57
2009/04/23 13:18:50.2    -293    -78     36    304    307 255.0   6.9  34168  289.70 0854.57
2009/04/23 13:18:50.3    -389     18     45    390    393 272.7   6.7  34160  289.57 0854.57
2009/04/23 13:18:50.4    -492   -231    115    544    557 244.8  12.0  34166  289.67 0854.57
2009/04/23 13:18:50.5    -476    -67     96    481    491 261.9  11.3  34156  289.52 0854.57
2009/04/23 13:18:50.6    -777   -203    -83    804    809 255.3  -5.9  34130  289.08 0854.57
2009/04/23 13:18:50.7    -965   -240   -274    995   1033 256.0 -15.4  34148  289.37 0854.57
2009/04/23 13:18:50.8    -629   -267    -13    684    685 247.0  -1.2  34154  289.46 0854.57
2009/04/23 13:18:50.9    -454   -162     53    483    487 250.3   6.4  34162  289.59 0854.57
2009/04/23 13:18:51.0    -584    -54     40    587    589 264.7   3.9  34166  289.66 0854.57
2009/04/23 13:18:51.1    -629   -148     56    647    650 256.8   5.0  34166  289.67 0854.57
2009/04/23 13:18:51.2    -654   -202   -201    685    714 252.8 -16.4  34162  289.62 0854.57
2009/04/23 13:18:51.3    -594    -80   -212    600    637 262.3 -19.5  34170  289.74 0854.57
2009/04/23 13:18:51.4    -497   -168    -89    525    533 251.3  -9.7  34174  289.80 0854.57
2009/04/23 13:18:51.5    -588   -177   -136    615    630 253.2 -12.5  34148  289.38 0854.57
2009/04/23 13:18:51.6    -757   -111   -259    766    809 261.6 -18.7  34180  289.91 0854.57
2009/04/23 13:18:51.7    -648   -252   -159    696    715 248.7 -12.9  34166  289.66 0854.57
2009/04/23 13:18:51.8    -566    -71   -196    571    603 262.8 -23.9  34172  289.76 0854.57
2009/04/23 13:18:51.9    -618   -219   -220    656    691 250.5 -23.5  34178  289.87 0854.57
2009/04/23 13:18:52.0    -451   -320   -189    554    586 234.6 -18.9  34164  289.64 0854.57
2009/04/23 13:18:52.1    -377   -215    -31    435    437 240.3  -4.1  34164  289.65 0854.57
2009/04/23 13:18:52.2    -158   -147     -8    216    217 227.1  -2.2  34168  289.72 0854.57
2009/04/23 13:18:52.3    -150    -53     -6    160    161 250.5  -2.2  34176  289.85 0854.57
2009/04/23 13:18:52.4     -15   -167   -132    168    213 185.3 -46.6  34176  289.85 0854.57
2009/04/23 13:18:52.5    -250   -270     71    368    375 222.8  11.0  34172  289.79 0854.53
2009/04/23 13:18:52.6    -155   -260      4    303    304 210.8   0.8  34174  289.80 0854.53
2009/04/23 13:18:52.7     -41   -410     49    413    416 185.8   6.9  34170  289.73 0854.53
2009/04/23 13:18:52.8    -198   -401   -150    448    473 206.3 -18.6  34156  289.52 0854.53
2009/04/23 13:18:52.9     -18     -7   -202     20    202 248.3 -90.0  34166  289.67 0854.53
2009/04/23 13:18:53.0    -316   -139   -313    346    466 246.3 -51.3  34158  289.55 0854.53
2009/04/23 13:18:53.1    -173   -106   -336    203    392 238.5 -70.7  34162  289.59 0854.53
2009/04/23 13:18:53.2    -258   -109   -380    281    472 247.2 -64.3  34164  289.63 0854.53
2009/04/23 13:18:53.3      59   -148   -316    160    354 158.2 -75.5  34172  289.78 0854.53
2009/04/23 13:18:53.4    -357   -348   -234    499    551 225.8 -31.4  34164  289.65 0854.53
2009/04/23 13:18:53.5    -375   -228   -297    439    530 238.7 -41.8  34152  289.45 0854.53
2009/04/23 13:18:53.6    -509   -422   -259    662    710 230.4 -26.9  34150  289.41 0854.53
2009/04/23 13:18:53.7    -383   -135   -390    407    563 250.5 -53.2  34162  289.61 0854.53
2009/04/23 13:18:53.8    -193   -288   -246    347    425 213.8 -43.2  34152  289.42 0854.53
2009/04/23 13:18:53.9    -333   -454   -346    564    661 216.3 -38.8  34158  289.55 0854.53
2009/04/23 13:18:54.0    -351   -453   -416    574    708 217.8 -43.9  34162  289.61 0854.53
2009/04/23 13:18:54.1    -283   -521   -356    593    691 208.5 -38.1  34156  289.49 0854.53
2009/04/23 13:18:54.2    -468   -388   -382    609    718 230.3 -39.5  34166  289.66 0854.53
2009/04/23 13:18:54.3    -485   -396   -198    627    657 230.8 -22.5  34170  289.74 0854.53
2009/04/23 13:18:54.4    -266   -447   -271    521    587 210.8 -34.0  34152  289.45 0854.53
2009/04/23 13:18:54.5    -539   -373   -191    656    683 235.3 -21.0  34160  289.58 0854.50
2009/04/23 13:18:54.6    -441   -455   -267    635    688 224.1 -28.6  34170  289.75 0854.50
2009/04/23 13:18:54.7    -298   -140   -169    330    370 244.8 -33.7  34158  289.55 0854.50
2009/04/23 13:18:54.8    -292   -274   -153    401    429 226.9 -26.4  34166  289.66 0854.50
2009/04/23 13:18:54.9    -363   -261   -148    448    472 234.3 -18.3  34170  289.75 0854.50
2009/04/23 13:18:55.0    -331   -316   -150    458    481 226.3 -23.3  34152  289.44 0854.50
2009/04/23 13:18:55.1    -520   -330   -153    616    635 237.6 -14.0  34166  289.67 0854.50
2009/04/23 13:18:55.2    -609   -242   -176    656    680 248.3 -15.0  34162  289.61 0854.50
2009/04/23 13:18:55.3    -580   -408    -46    710    712 234.9  -3.7  34166  289.69 0854.50
2009/04/23 13:18:55.4    -573   -241   -139    622    638 247.2 -12.7  34162  289.62 0854.50
2009/04/23 13:18:55.5    -231   -192    101    301    318 230.4  18.6  34164  289.64 0854.50
2009/04/23 13:18:55.6    -554   -430    190    702    728 232.2  15.2  34168  289.72 0854.50
2009/04/23 13:18:55.7    -561   -309     32    641    642 241.2   2.9  34162  289.60 0854.50
2009/04/23 13:18:55.8    -569   -404    204    698    728 234.6  16.3  34162  289.61 0854.50
2009/04/23 13:18:55.9    -579   -381   -152    694    711 236.7 -12.4  34156  289.50 0854.50
2009/04/23 13:18:56.0    -456   -438   -156    633    653 226.2 -13.9  34150  289.40 0854.50
2009/04/23 13:18:56.1    -279   -347    -14    446    447 218.7  -1.9  34160  289.56 0854.50
2009/04/23 13:18:56.2    -520   -170   -157    548    571 251.9 -16.0  34164  289.65 0854.50
2009/04/23 13:18:56.3    -799   -104   -278    806    853 262.5 -19.1  34152  289.43 0854.50
2009/04/23 13:18:56.4    -815    -14   -271    816    859 269.0 -23.5  34170  289.75 0854.50
2009/04/23 13:18:56.5    -724    -11   -305    725    786 269.1 -28.6  34176  289.85 0854.53
2009/04/23 13:18:56.6    -654     44   -323    656    731 273.9 -32.5  34166  289.67 0854.53
2009/04/23 13:18:56.7    -612    124   -256    625    675 281.5 -28.0  34152  289.43 0854.53
2009/04/23 13:18:56.8    -562     78    -98    568    577 277.9  -9.8  34156  289.51 0854.53
2009/04/23 13:18:56.9    -565     74   -130    570    585 277.5 -12.9  34156  289.52 0854.53
2009/04/23 13:18:57.0    -599     92   -167    607    630 278.8 -15.4  34164  289.64 0854.53
2009/04/23 13:18:57.1    -544     28    -70    545    550 273.0  -7.3  34160  289.58 0854.53
2009/04/23 13:18:57.2    -407    -21    -91    408    419 267.0 -12.7  34162  289.60 0854.53
2009/04/23 13:18:57.3    -498    100    -87    508    516 281.4  -9.8  34166  289.69 0854.53
2009/04/23 13:18:57.4    -429    -84     52    438    442 258.9   6.9  34164  289.63 0854.53
2009/04/23 13:18:57.5    -295   -128    148    322    354 246.5  26.4  34172  289.76 0854.53
2009/04/23 13:18:57.6     -62   -151    191    164    251 202.3  55.3  34166  289.69 0854.53
2009/04/23 13:18:57.7     -40   -184    198    189    273 192.3  51.2  34170  289.73 0854.53
2009/04/23 13:18:57.8     -87   -250    224    265    346 199.2  44.4  34162  289.59 0854.53
2009/04/23 13:18:57.9     150   -322    124    356    378 155.1  19.2  34172  289.76 0854.53
2009/04/23 13:18:58.0     124   -255     45    284    288 153.9   9.0  34172  289.76 0854.53
2009/04/23 13:18:58.1      61   -242     95    250    267 165.7  22.0  34166  289.66 0854.53
2009/04/23 13:18:58.2      27   -195     61    197    207 172.0  17.3  34170  289.74 0854.53
2009/04/23 13:18:58.3     -33   -186      0    190    191 190.2   0.0  34168  289.72 0854.53
2009/04/23 13:18:58.4    -167   -230    -90    285    299 216.0 -17.5  34168  289.70 0854.53
2009/04/23 13:18:58.5    -183   -159    -74    243    255 229.1 -17.0  34172  289.76 0854.56
2009/04/23 13:18:58.6    -172   -178   -111    248    271 224.1 -30.3  34172  289.78 0854.56
2009/04/23 13:18:58.7    -175   -175    -96    248    265 225.0 -26.7  34174  289.80 0854.56
2009/04/23 13:18:58.8    -234    -94    -77    253    265 248.0 -17.0  34162  289.59 0854.56
2009/04/23 13:18:58.9    -233   -138     -5    271    272 239.4  -1.3  34172  289.76 0854.56
2009/04/23 13:18:59.0    -242   -203   -103    317    333 230.0 -23.2  34172  289.76 0854.56
2009/04/23 13:18:59.1    -301    -80   -132    312    338 255.0 -28.7  34172  289.76 0854.56
2009/04/23 13:18:59.2    -128   -141   -164    191    251 222.3 -49.3  34168  289.71 0854.56
2009/04/23 13:18:59.3      20   -266    -99    267    284 175.6 -25.4  34166  289.68 0854.56
2009/04/23 13:18:59.4     159    -76     11    177    178 115.8   3.6  34168  289.70 0854.56
2009/04/23 13:18:59.5     143    -56     74    154    170 111.7  27.3  34168  289.70 0854.56
2009/04/23 13:18:59.6      94   -149    -57    177    187 147.7 -17.9  34166  289.69 0854.56
2009/04/23 13:18:59.7      58   -142    -52    154    162 157.7 -23.6  34168  289.70 0854.56
2009/04/23 13:18:59.8      56   -102    -10    117    118 151.1  -5.2  34164  289.65 0854.56
2009/04/23 13:18:59.9     126   -158     55    203    211 141.5  15.2  34170  289.74 0854.56
2009/04/23 13:19:00.0     125   -274    129    302    328 155.5  24.5  34166  289.68 0854.56
2009/04/23 13:19:00.1     209   -307    151    372    401 145.7  23.4  34164  289.65 0854.56
2009/04/23 13:19:00.2     215   -365     21    424    425 149.5   2.9  34168  289.70 0854.56
2009/04/23 13:19:00.3     223   -233    -21    323    324 136.2  -3.8  34166  289.68 0854.56
2009/04/23 13:19:00.4     169   -203     -9    265    266 140.3  -2.1  34164  289.64 0854.56
2009/04/23 13:19:00.5     169   -268    103    317    334 147.7  18.1  34164  289.64 0854.58
2009/04/23 13:19:00.6      57   -284     57    290    296 168.5  11.1  34170  289.73 0854.58
2009/04/23 13:19:00.7      19   -348     85    349    360 176.9  13.7  34168  289.72 0854.58
2009/04/23 13:19:00.8     -31   -286     67    288    296 186.3  13.2  34168  289.70 0854.58
2009/04/23 13:19:00.9     -42   -312     80    315    326 187.8  14.3  34170  289.73 0854.58
2009/04/23 13:19:01.0     -77   -245     -1    258    259 197.6  -0.3  34166  289.68 0854.58
2009/04/23 13:19:01.1     -44   -216     89    221    238 191.6  23.0  34172  289.78 0854.58
2009/04/23 13:19:01.2     -86   -260    -39    274    277 198.3  -8.3  34170  289.75 0854.58
2009/04/23 13:19:01.3    -104   -163    -66    194    206 212.5 -18.9  34172  289.77 0854.58
2009/04/23 13:19:01.4     -41   -195    -69    200    211 192.0 -23.6  34174  289.80 0854.58
2009/04/23 13:19:01.5     -25   -231    -69    233    243 186.2 -21.7  34176  289.85 0854.58
2009/04/23 13:19:01.6      15   -243    -84    244    259 176.4 -19.1  34174  289.81 0854.58
2009/04/23 13:19:01.7      13   -241   -107    242    264 176.9 -29.7  34174  289.80 0854.58
2009/04/23 13:19:01.8      23   -256    -40    258    262 174.7  -9.0  34174  289.80 0854.58
2009/04/23 13:19:01.9     -15   -284    -90    285    300 183.1 -17.6  34176  289.83 0854.58
2009/04/23 13:19:02.0      52   -309    -89    314    327 170.4 -15.9  34176  289.83 0854.58
2009/04/23 13:19:02.1      19   -356    -84    357    367 176.9 -13.3  34166  289.67 0854.58
2009/04/23 13:19:02.2      85   -317    -12    329    330 164.9  -2.2  34162  289.59 0854.58
2009/04/23 13:19:02.3     177   -444    -78    479    486 158.2  -9.3  34162  289.61 0854.58
2009/04/23 13:19:02.4     180   -474    -97    508    518 159.2 -10.8  34158  289.54 0854.58
2009/04/23 13:19:02.5     190   -412      0    454    455 155.2   0.1  34156  289.51 0854.60
2009/04/23 13:19:02.6      48   -446    -62    449    454 173.8  -7.9  34162  289.60 0854.60
2009/04/23 13:19:02.7      -9   -392    -88    393    403 181.4 -12.7  34162  289.59 0854.60
2009/04/23 13:19:02.8      73   -425    -19    432    433 170.2  -2.6  34168  289.72 0854.60
2009/04/23 13:19:02.9      71   -417     -8    424    425 170.3  -1.2  34168  289.70 0854.60
2009/04/23 13:19:03.0     135   -568    -25    584    585 166.6  -2.5  34156  289.52 0854.60
2009/04/23 13:19:03.1      64   -592   -106    596    606 173.8 -10.1  34158  289.54 0854.60
2009/04/23 13:19:03.2      55   -607   -103    610    619 174.8  -9.6  34158  289.53 0854.60
2009/04/23 13:19:03.3      34   -628   -126    630    643 176.9 -11.3  34160  289.57 0854.60
2009/04/23 13:19:03.4      10   -609   -132    610    625 179.0 -12.3  34158  289.53 0854.60
2009/04/23 13:19:03.5      25   -550     -2    551    552 177.3  -0.2  34162  289.62 0854.60
2009/04/23 13:19:03.6     -50   -597    -54    600    603 184.9  -5.2  34162  289.61 0854.60
2009/04/23 13:19:03.7      40   -596    -27    598    599 176.1  -2.6  34156  289.52 0854.60
2009/04/23 13:19:03.8     106   -627     36    636    638 170.4   3.3  34156  289.52 0854.60
2009/04/23 13:19:03.9     128   -501     -6    518    519 165.6  -0.7  34154  289.47 0854.60
2009/04/23 13:19:04.0      60   -506     24    510    511 173.2   2.8  34146  289.35 0854.60
2009/04/23 13:19:04.1      84   -533     30    540    541 171.0   3.3  34156  289.50 0854.60
2009/04/23 13:19:04.2      61   -475      9    479    480 172.6   1.1  34156  289.49 0854.60
2009/04/23 13:19:04.3      63   -533    -10    537    538 173.2  -1.2  34158  289.53 0854.60
2009/04/23 13:19:04.4      59   -535     27    539    540 173.7   2.9  34158  289.55 0854.62
2009/04/23 13:19:04.5      42   -548    -24    550    551 175.5  -2.5  34156  289.51 0854.62
2009/04/23 13:19:04.6      69   -491     74    496    502 172.0   8.6  34160  289.56 0854.62
2009/04/23 13:19:04.7      13   -454     59    455    459 178.3   7.5  34160  289.56 0854.62
2009/04/23 13:19:04.8      32   -424     24    426    427 175.6   3.3  34156  289.49 0854.62
2009/04/23 13:19:04.9      83   -432   -140    440    461 169.1 -22.8  34158  289.55 0854.62
2009/04/23 13:19:05.0      56   -420   -151    424    451 172.3 -19.7  34158  289.53 0854.62
2009/04/23 13:19:05.1      67   -460    -80    465    472 171.7  -9.8  34156  289.52 0854.62
2009/04/23 13:19:05.2      65   -420    -87    426    436 171.1 -11.6  34162  289.60 0854.62
2009/04/23 13:19:05.3     115   -462    -67    477    482 166.0  -8.0  34162  289.59 0854.62
2009/04/23 13:19:05.4      98   -479    -28    490    491 168.4  -3.3  34160  289.56 0854.62
2009/04/23 13:19:05.5      93   -456    -47    466    469 168.4  -5.8  34158  289.54 0854.62
2009/04/23 13:19:05.6      85   -458    -54    466    470 169.4  -6.7  34162  289.59 0854.62
2009/04/23 13:19:05.7     102   -535    -40    545    547 169.1  -4.2  34160  289.58 0854.62
2009/04/23 13:19:05.8     129   -583     29    598    599 167.5   2.8  34162  289.59 0854.62
2009/04/23 13:19:05.9     132   -554    -93    570    578 166.6  -9.3  34158  289.54 0854.62
2009/04/23 13:19:06.0      84   -522    -82    529    536 170.8  -8.8  34160  289.57 0854.62
2009/04/23 13:19:06.1      27   -501    -27    502    503 176.9  -3.1  34160  289.56 0854.62
2009/04/23 13:19:06.2      59   -435    -17    439    440 172.2  -2.3  34160  289.58 0854.62
2009/04/23 13:19:06.3      68   -367    -33    374    376 169.4  -5.1  34162  289.60 0854.62
2009/04/23 13:19:06.4      44   -381     10    384    385 173.4   1.6  34160  289.57 0854.58
2009/04/23 13:19:06.5     144   -405    106    430    443 160.4  13.9  34162  289.60 0854.58
2009/04/23 13:19:06.6       7   -501    113    502    515 179.2  12.8  34160  289.56 0854.58
2009/04/23 13:19:06.7      80   -554     67    560    565 171.8   6.9  34158  289.53 0854.58
2009/04/23 13:19:06.8     -26   -591     71    592    597 182.6   6.9  34160  289.56 0854.58
2009/04/23 13:19:06.9      16   -539    122    540    554 178.2  12.8  34160  289.57 0854.58
2009/04/23 13:19:07.0       9   -536     27    537    538 179.0   2.9  34160  289.57 0854.58
2009/04/23 13:19:07.1      41   -540    -16    542    543 175.6  -1.8  34158  289.55 0854.58
2009/04/23 13:19:07.2      17   -527    -56    528    532 178.1  -6.1  34160  289.58 0854.58
2009/04/23 13:19:07.3       8   -422    -86    423    432 178.9 -11.6  34156  289.51 0854.58
2009/04/23 13:19:07.4     -41   -378    -92    381    393 186.3 -13.7  34162  289.62 0854.59
2009/04/23 13:19:07.5      25   -350   -108    351    368 175.8 -17.2  34164  289.64 0854.59
2009/04/23 13:19:07.6      65   -376   -105    382    397 170.1 -15.4  34166  289.67 0854.59
2009/04/23 13:19:07.7      89   -435    -63    445    450 168.4  -8.1  34164  289.63 0854.59
2009/04/23 13:19:07.8     120   -415    -12    433    434 163.9  -1.7  34164  289.65 0854.59
2009/04/23 13:19:07.9     139   -419    -68    442    448 161.6  -8.8  34162  289.60 0854.59
2009/04/23 13:19:08.0      46   -411    -99    414    426 173.5 -13.6  34162  289.61 0854.59
2009/04/23 13:19:08.1      79   -382   -127    391    411 168.2 -23.2  34158  289.55 0854.59
2009/04/23 13:19:08.2      39   -344   -131    347    370 173.4 -26.0  34162  289.59 0854.59
2009/04/23 13:19:08.3     113   -403    -84    419    428 164.3 -11.3  34164  289.65 0854.59
2009/04/23 13:19:08.4     -25   -526    -24    527    528 182.8  -2.7  34162  289.60 0854.59
2009/04/23 13:19:08.5      47   -466   -155    469    494 174.2 -18.3  34160  289.56 0854.59
2009/04/23 13:19:08.6      11   -454   -116    455    470 178.5 -14.4  34162  289.59 0854.59
2009/04/23 13:19:08.7      22   -375    -58    376    381 176.5  -8.8  34162  289.62 0854.59
2009/04/23 13:19:08.8      20   -362    -12    363    364 176.8  -1.9  34160  289.57 0854.59
2009/04/23 13:19:08.9      35   -319    -44    321    325 173.7  -7.9  34164  289.64 0854.59
2009/04/23 13:19:09.0      -3   -253    -32    254    257 180.9  -7.3  34164  289.64 0854.59
2009/04/23 13:19:09.1     -17   -380    -48    381    385 182.7  -7.2  34162  289.59 0854.59
2009/04/23 13:19:09.2      55   -327    -26    332    334 170.4  -4.6  34162  289.60 0854.59
2009/04/23 13:19:09.3       0   -358   -101    359    372 180.1 -20.3  34158  289.55 0854.59
2009/04/23 13:19:09.4       3   -382    -51    383    387 179.4  -7.7  34162  289.60 0854.58
2009/04/23 13:19:09.5     120   -365    -81    385    394 161.7 -11.9  34162  289.59 0854.58
2009/04/23 13:19:09.6      24   -311    -88    313    326 175.5 -15.7  34162  289.61 0854.58
2009/04/23 13:19:09.7      33   -352    -24    354    355 174.6  -3.9  34162  289.62 0854.58
2009/04/23 13:19:09.8     117   -383    -81    401    410 163.0 -11.5  34164  289.63 0854.58
2009/04/23 13:19:09.9     144   -360     43    388    391 158.2   6.4  34160  289.57 0854.58
2009/04/23 13:19:10.0     160   -378      3    411    412 157.0   0.5  34160  289.58 0854.58
2009/04/23 13:19:10.1     138   -346     48    373    377 158.2   7.4  34160  289.57 0854.58
2009/04/23 13:19:10.2     133   -270      9    302    303 153.7   1.8  34162  289.59 0854.58
2009/04/23 13:19:10.3     126   -150    163    197    255 139.9  43.8  34162  289.59 0854.58
2009/04/23 13:19:10.4      94   -209    151    230    275 155.7  36.5  34162  289.59 0854.58
2009/04/23 13:19:10.5     106   -225    123    249    277 154.7  28.2  34158  289.54 0854.58
2009/04/23 13:19:10.6     165   -213     86    270    284 142.2  17.7  34160  289.56 0854.58
2009/04/23 13:19:10.7     225   -216     94    313    327 133.8  16.8  34158  289.53 0854.58
2009/04/23 13:19:10.8     209   -162    154    265    306 127.8  32.9  34164  289.64 0854.58
2009/04/23 13:19:10.9     164   -219    107    274    294 143.1  22.5  34164  289.64 0854.58
2009/04/23 13:19:11.0     177   -252     90    308    321 144.9  16.3  34164  289.64 0854.58
2009/04/23 13:19:11.1     154   -242     95    287    303 147.5  18.4  34164  289.63 0854.58
2009/04/23 13:19:11.2     129   -220     97    256    273 149.5  21.5  34164  289.64 0854.58
2009/04/23 13:19:11.3      94   -174    126    199    235 151.5  35.5  34164  289.63 0854.58
2009/04/23 13:19:11.4     107   -243    170    266    315 156.2  35.6  34164  289.64 0854.55
2009/04/23 13:19:11.5     131   -227    185    263    321 150.1  38.6  34162  289.61 0854.55
2009/04/23 13:19:11.6     133   -206    150    246    288 147.0  34.4  34162  289.59 0854.55
2009/04/23 13:19:11.7     161   -194    172    253    305 140.3  37.4  34164  289.63 0854.55
2009/04/23 13:19:11.8     189   -193    150    271    309 135.7  31.4  34160  289.56 0854.55
2009/04/23 13:19:11.9     220   -132    127    257    286 121.1  28.2  34164  289.63 0854.55
2009/04/23 13:19:12.0     172   -221    171    280    328 142.1  34.3  34160  289.58 0854.55
2009/04/23 13:19:12.1     154   -165    182    227    290 137.0  43.0  34166  289.68 0854.55
2009/04/23 13:19:12.2     126   -101    170    162    234 128.6  51.4  34166  289.69 0854.55
2009/04/23 13:19:12.3     206   -113    156    235    282 118.8  36.5  34168  289.70 0854.55
2009/04/23 13:19:12.4     151   -142    122    208    241 133.1  33.4  34162  289.62 0854.55
2009/04/23 13:19:12.5     155   -145    140    213    254 133.1  36.5  34160  289.58 0854.55
2009/04/23 13:19:12.6     288   -129    121    316    338 114.2  22.0  34166  289.69 0854.55
2009/04/23 13:19:12.7     263   -113     42    287    291 113.3   8.5  34166  289.66 0854.55
2009/04/23 13:19:12.9     128   -119    110    176    207 132.9  35.5  34164  289.63 0854.55
2009/04/23 13:19:12.9     120   -109    112    163    197 132.2  37.6  34166  289.67 0854.55
2009/04/23 13:19:13.0     120   -100     89    157    180 129.6  31.9  34164  289.65 0854.55
2009/04/23 13:19:13.1       1   -145     98    146    175 179.5  36.7  34164  289.63 0854.55
2009/04/23 13:19:13.2     -41   -169    123    175    213 193.8  38.4  34164  289.63 0854.55
2009/04/23 13:19:13.3     -43   -166    139    172    221 194.5  43.5  34166  289.69 0854.55
2009/04/23 13:19:13.5     -18   -125    111    127    168 188.5  45.8  34166  289.67 0854.54
2009/04/23 13:19:13.6      80   -139    -22    161    163 149.9  -8.0  34164  289.63 0854.54
2009/04/23 13:19:13.7     160    -91    -54    185    193 119.5 -16.4  34166  289.67 0854.54
2009/04/23 13:19:13.8     135    -88    -55    162    172 123.3 -18.9  34166  289.69 0854.54
2009/04/23 13:19:13.9     111    -29     39    115    122 105.0  18.9  34166  289.69 0854.54
2009/04/23 13:19:14.0      88     73     68    115    133  50.5  33.5  34174  289.80 0854.54
2009/04/23 13:19:14.1      65     98     -7    118    119  33.8  -3.7  34172  289.79 0854.54
2009/04/23 13:19:14.2      18     92      4     94     95  11.5   2.9  34174  289.82 0854.54
2009/04/23 13:19:14.3      20     36     20     42     46  29.9  27.2  34172  289.77 0854.54
2009/04/23 13:19:14.4     -20    -24     31     32     44 219.6  51.1  34168  289.70 0854.54
2009/04/23 13:19:14.5     119      9     71    120    139  85.6  33.5  34168  289.70 0854.54
2009/04/23 13:19:14.6     137      0    132    138    190  90.0  48.7  34168  289.70 0854.54
2009/04/23 13:19:14.7     204     39     45    208    214  79.0  12.4  34168  289.72 0854.54
2009/04/23 13:19:14.8     163    -10    136    164    213  93.5  43.8  34170  289.74 0854.54
2009/04/23 13:19:14.9     120    -72    123    141    187 121.1  45.6  34168  289.72 0854.54
2009/04/23 13:19:15.0     162   -177    165    241    292 137.5  37.6  34168  289.70 0854.54
2009/04/23 13:19:15.1     137   -100    137    170    218 126.2  43.3  34166  289.69 0854.54
2009/04/23 13:19:15.2      30     90    111     96    146  18.7  54.8  34174  289.82 0854.54
2009/04/23 13:19:15.3      46    -16     47     49     67 110.0  50.0  34172  289.79 0854.54
2009/04/23 13:19:15.4      22    -22     27     32     41 134.9  44.8  34174  289.80 0854.54
2009/04/23 13:19:15.5      74     43      3     86     87  59.8   2.3  34170  289.75 0854.54
2009/04/23 13:19:15.6      31      0     59     32     67  90.8  68.9  34172  289.77 0854.54
2009/04/23 13:19:15.7     118    -31     60    123    136 105.1  27.3  34170  289.75 0854.54
2009/04/23 13:19:15.8     127     -7     99    128    161  93.5  41.7  34172  289.79 0854.54
2009/04/23 13:19:15.9     117     -9     59    118    131  94.4  28.2  34172  289.77 0854.54
2009/04/23 13:19:16.0     106    -31     -8    111    112 106.4  -4.6  34172  289.79 0854.54
2009/04/23 13:19:16.1      87    -65    -34    109    114 126.9 -23.3  34172  289.77 0854.54
2009/04/23 13:19:16.2      94    -36    -18    101    103 111.3 -10.3  34178  289.87 0854.54
2009/04/23 13:19:16.3      98     -6     -3     99    100  93.9  -2.2  34184  289.99 0854.54
2009/04/23 13:19:16.4      92    -30     -3     97     98 108.4  -2.2  34184  289.97 0854.54
2009/04/23 13:19:16.5      90    -25    -12     94     95 105.9  -7.3  34182  289.94 0854.54
2009/04/23 13:19:16.6      65    -41    -21     77     79 122.4 -20.2  34178  289.89 0854.54
2009/04/23 13:19:16.7      58    -42    -27     72     76 125.9 -24.4  34172  289.79 0854.54
2009/04/23 13:19:16.8      51      3    -14     52     53  85.6 -20.7  34184  289.97 0854.54
2009/04/23 13:19:16.9     108     31     17    113    115  73.6   9.0  34202  290.28 0854.54
2009/04/23 13:19:17.0     208     63     50    218    224  73.1  13.1  34212  290.47 0854.54
2009/04/23 13:19:17.1     209    -12     74    210    223  93.5  19.4  34198  290.23 0854.54
2009/04/23 13:19:17.2     188     31    178    191    261  80.5  47.9  34182  289.93 0854.54
2009/04/23 13:19:17.3     213     -3    171    214    273  90.9  42.7  34180  289.90 0854.54
2009/04/23 13:19:17.4      88    -56    135    105    171 122.9  57.9  34180  289.92 0854.54
2009/04/23 13:19:17.5     130   -113     90    173    195 130.9  29.5  34180  289.91 0854.58
2009/04/23 13:19:17.6      68   -134     86    151    173 152.9  32.4  34180  289.91 0854.58
2009/04/23 13:19:17.7      15   -163    125    164    206 174.7  41.4  34176  289.84 0854.58
2009/04/23 13:19:17.8      13   -163    184    164    246 175.3  53.7  34172  289.79 0854.58
2009/04/23 13:19:17.9      38   -145    120    150    192 165.3  43.3  34172  289.77 0854.58
2009/04/23 13:19:18.0      88    -73    112    115    160 129.5  49.4  34172  289.77 0854.58
2009/04/23 13:19:18.1      18   -136    112    138    177 172.4  43.7  34172  289.77 0854.58
2009/04/23 13:19:18.2      21    -87    128     90    156 166.2  61.5  34174  289.80 0854.58
2009/04/23 13:19:18.3     -45   -115    136    124    184 201.4  52.5  34172  289.77 0854.58
2009/04/23 13:19:18.4     -59   -134    147    147    207 203.7  50.1  34170  289.75 0854.58
2009/04/23 13:19:18.5     -61   -171    122    182    219 199.8  37.3  34172  289.77 0854.58
2009/04/23 13:19:18.6     -93   -166    142    191    238 209.4  40.4  34174  289.80 0854.58
2009/04/23 13:19:18.7    -128   -197    122    236    265 213.0  29.3  34174  289.80 0854.58
2009/04/23 13:19:18.8    -159   -169     80    233    247 223.2  18.9  34170  289.75 0854.58
2009/04/23 13:19:18.9    -105   -167    124    198    233 212.1  35.5  34168  289.70 0854.58
2009/04/23 13:19:19.0    -140   -183     80    231    245 217.4  19.2  34168  289.70 0854.58
2009/04/23 13:19:19.1    -172   -186    114    254    278 222.8  25.9  34170  289.75 0854.58
2009/04/23 13:19:19.2    -117   -151     52    192    199 217.8  15.2  34170  289.75 0854.58
2009/04/23 13:19:19.3     -60    -57     61     84    103 226.4  39.5  34172  289.77 0854.58
2009/04/23 13:19:19.4     -30     26     79     40     88 311.3  71.9  34168  289.70 0854.58
2009/04/23 13:19:19.5     -93     81     42    124    132 310.9  18.9  34184  289.99 0854.55
2009/04/23 13:19:19.6    -158    -54    -24    168    170 250.9  -8.2  34178  289.89 0854.55
2009/04/23 13:19:19.7     -97     22     57    100    115 283.3  32.4  34172  289.77 0854.55
2009/04/23 13:19:19.8      36     86     56     94    109  22.7  34.0  34176  289.84 0854.55
2009/04/23 13:19:19.9      16     76     95     78    122  12.5  56.4  34174  289.80 0854.55
2009/04/23 13:19:20.0     -19    199    212    200    291 354.4  52.0  34178  289.86 0854.55
2009/04/23 13:19:20.1     -77      4    141     78    161 273.5  68.8  34182  289.94 0854.55
2009/04/23 13:19:20.2     -17      7    116     19    117 291.7  90.0  34180  289.92 0854.55
2009/04/23 13:19:20.3       7    -23    131     25    133 161.5  89.6  34182  289.94 0854.55
2009/04/23 13:19:20.4      -9    -38     98     40    105 193.4  77.0  34182  289.94 0854.55
2009/04/23 13:19:20.5      19   -101    107    103    148 169.3  51.2  34178  289.89 0854.55
2009/04/23 13:19:20.6      34    -36     83     50     96 136.8  65.7  34178  289.87 0854.55
2009/04/23 13:19:20.7       2     32     51     33     60   4.5  64.6  34184  289.99 0854.55
2009/04/23 13:19:20.8      -7    -55    116     56    128 188.0  72.8  34174  289.82 0854.55
2009/04/23 13:19:20.9     -56   -142     84    153    174 201.8  31.4  34168  289.72 0854.55
2009/04/23 13:19:21.0     -45   -154     21    161    163 196.3   7.5  34170  289.74 0854.55
2009/04/23 13:19:21.1     -27   -109     -3    113    114 194.3  -1.8  34170  289.74 0854.55
2009/04/23 13:19:21.2      65    -71     -8     97     98 137.7  -5.2  34172  289.79 0854.55
2009/04/23 13:19:21.3      58    -69     29     91     96 139.9  17.9  34172  289.79 0854.55
2009/04/23 13:19:21.4      76    -37     97     85    128 116.2  54.3  34174  289.80 0854.55
2009/04/23 13:19:21.5      92    -60    106    111    153 123.3  49.0  34178  289.89 0854.56
2009/04/23 13:19:21.6     116    -76    112    139    178 123.3  43.0  34176  289.84 0854.56
2009/04/23 13:19:21.7     200    -84    105    218    241 112.8  27.4  34176  289.83 0854.56
2009/04/23 13:19:21.8     210   -183    185    279    334 131.1  36.7  34168  289.71 0854.56
2009/04/23 13:19:21.9     -25   -287    130    289    316 185.1  25.8  34170  289.75 0854.56
2009/04/23 13:19:22.0     -58   -273    230    280    362 192.0  43.7  34174  289.81 0854.56
2009/04/23 13:19:22.1    -140   -393    227    418    475 199.6  30.8  34170  289.75 0854.56
2009/04/23 13:19:22.2    -105   -331    175    348    389 197.6  28.6  34170  289.74 0854.56
2009/04/23 13:19:22.3     -71   -288    260    297    394 194.0  45.8  34176  289.84 0854.56
2009/04/23 13:19:22.4     -32   -317    232    319    394 185.8  39.7  34172  289.77 0854.56
2009/04/23 13:19:22.5     -59   -248    151    255    296 193.4  33.5  34170  289.73 0854.56
2009/04/23 13:19:22.6     -36   -212    128    216    251 189.7  33.5  34174  289.81 0854.56
2009/04/23 13:19:22.7     -61   -242     31    250    252 194.2   7.2  34172  289.78 0854.56
2009/04/23 13:19:22.8     -36   -246     38    249    252 188.5   8.8  34172  289.76 0854.56
2009/04/23 13:19:22.9      53   -324     16    329    330 170.6   2.9  34174  289.82 0854.56
2009/04/23 13:19:23.0     -26   -320     11    322    323 184.8   2.1  34172  289.78 0854.56
2009/04/23 13:19:23.1     -86   -238    -10    254    255 199.8  -2.3  34172  289.76 0854.56
2009/04/23 13:19:23.2     120   -176    -75    214    226 145.7 -24.0  34172  289.77 0854.56
2009/04/23 13:19:23.3      70   -130   -113    148    186 151.5 -45.8  34174  289.82 0854.56
2009/04/23 13:19:23.4      61   -158    -66    170    182 158.8 -26.7  34172  289.77 0854.56
2009/04/23 13:19:23.5      93   -162   -121    187    222 150.1 -40.0  34178  289.89 0854.56
2009/04/23 13:19:23.6     158   -157   -126    224    257 134.8 -36.3  34180  289.90 0854.56
2009/04/23 13:19:23.7     145   -125    -74    192    205 130.7 -26.7  34174  289.80 0854.56
2009/04/23 13:19:23.8      39   -124    -26    131    134 162.6 -11.3  34176  289.84 0854.56
2009/04/23 13:19:23.9      78    -79     13    112    113 135.3   6.9  34176  289.85 0854.56
2009/04/23 13:19:24.0     100   -100     14    142    143 134.8   5.9  34170  289.74 0854.56
2009/04/23 13:19:24.1     119   -103     99    158    186 130.9  35.5  34174  289.80 0854.56
2009/04/23 13:19:24.2      83   -148    172    171    242 150.6  50.1  34180  289.92 0854.56
2009/04/23 13:19:24.3     157   -113    127    194    231 126.0  35.7  34174  289.82 0854.56
2009/04/23 13:19:24.4     -15   -207    192    208    283 184.4  47.7  34178  289.88 0854.56
2009/04/23 13:19:24.5     -25   -260    152    262    302 185.6  32.9  34174  289.81 0854.56
2009/04/23 13:19:24.6     -58   -267     92    274    290 192.4  18.6  34172  289.78 0854.56
2009/04/23 13:19:24.7     -17   -268     18    269    270 183.8   3.9  34174  289.80 0854.56
2009/04/23 13:19:24.8      61   -228     -9    237    238 164.9  -2.2  34176  289.83 0854.56
2009/04/23 13:19:24.9      72   -168    -47    183    190 156.8 -14.5  34170  289.75 0854.56
2009/04/23 13:19:25.0      77   -129    -13    151    152 149.2  -5.1  34174  289.80 0854.56
2009/04/23 13:19:25.1      60   -128    -20    142    144 154.7  -8.2  34174  289.82 0854.56
2009/04/23 13:19:25.2      51    -88    -28    103    107 149.7 -15.5  34174  289.82 0854.56
2009/04/23 13:19:25.3     108   -115    -54    158    166 136.8 -23.8  34178  289.87 0854.56
2009/04/23 13:19:25.4      84   -133    -84    158    178 147.9 -35.0  34180  289.91 0854.56
2009/04/23 13:19:25.5      48    -77    -28     91     95 147.9 -22.8  34180  289.92 0854.59
2009/04/23 13:19:25.6      41    -69    -35     81     88 149.3 -29.5  34180  289.92 0854.59
2009/04/23 13:19:25.7      68    -84     13    109    110 140.8   7.1  34180  289.92 0854.59
2009/04/23 13:19:25.8      88    -25    -27     92     97 105.9 -16.6  34178  289.87 0854.59
2009/04/23 13:19:25.9      71    -23     -1     75     76 108.2  -1.3  34178  289.87 0854.59
2009/04/23 13:19:26.0      64    -21     23     68     73 108.6  19.2  34180  289.91 0854.59
2009/04/23 13:19:26.1      85    -25    -31     89     95 106.8 -19.1  34178  289.87 0854.59
2009/04/23 13:19:26.2      91     -4    -35     92     98  92.6 -26.4  34176  289.84 0854.59
2009/04/23 13:19:26.3      61    -36     49     72     87 120.7  37.0  34178  289.87 0854.59
2009/04/23 13:19:26.4      30   -102     94    107    142 163.5  45.9  34180  289.91 0854.59
2009/04/23 13:19:26.5       0   -168    143    169    221 180.2  44.5  34178  289.89 0854.59
2009/04/23 13:19:26.6     -86   -213    147    230    272 202.1  35.6  34178  289.88 0854.59
2009/04/23 13:19:26.7     -80   -240    181    254    311 198.5  39.0  34180  289.92 0854.59
2009/04/23 13:19:26.8     -81   -134    178    157    237 211.2  54.2  34180  289.91 0854.59
2009/04/23 13:19:26.9       0   -204    183    205    274 180.0  46.4  34184  289.97 0854.59
2009/04/23 13:19:27.0     120   -213     52    245    251 150.6  12.2  34178  289.86 0854.59
2009/04/23 13:19:27.1     217   -209    -20    302    303 134.0  -3.9  34180  289.92 0854.59
2009/04/23 13:19:27.2     164   -233     -2    286    287 144.8  -0.5  34180  289.90 0854.59
2009/04/23 13:19:27.3      93   -157    -45    183    189 149.3 -13.9  34178  289.87 0854.59
2009/04/23 13:19:27.4      57   -170    -46    180    186 161.5 -14.5  34182  289.94 0854.59
2009/04/23 13:19:27.5      62   -142   -142    156    210 156.3 -51.5  34180  289.91 0854.59
2009/04/23 13:19:27.6       9   -173   -154    174    232 176.9 -50.6  34178  289.89 0854.59
2009/04/23 13:19:27.7      59   -246   -190    254    317 166.4 -45.0  34180  289.92 0854.59
2009/04/23 13:19:27.8     135   -275   -123    307    330 153.7 -27.4  34176  289.83 0854.59
2009/04/23 13:19:27.9     119   -214    -88    246    262 150.8 -19.7  34180  289.92 0854.59
2009/04/23 13:19:28.0      93   -253    -90    270    285 159.7 -18.6  34180  289.90 0854.59
2009/04/23 13:19:28.1     103   -256    -83    276    289 158.1 -16.8  34180  289.90 0854.59
2009/04/23 13:19:28.2     101   -266   -164    285    328 159.1 -37.0  34178  289.86 0854.59
2009/04/23 13:19:28.3     158   -318   -232    356    424 153.5 -40.6  34180  289.92 0854.59
2009/04/23 13:19:28.4     154   -227   -195    275    337 145.7 -43.4  34180  289.90 0854.59
2009/04/23 13:19:28.5      46   -116   -166    126    208 158.2 -63.4  34180  289.92 0854.56
2009/04/23 13:19:28.6     -21   -147    -76    149    167 188.1 -33.1  34180  289.92 0854.56
2009/04/23 13:19:28.7       4    -87    -24     88     92 176.9 -15.4  34178  289.89 0854.56
2009/04/23 13:19:28.8     -50    -45    -52     68     85 227.8 -45.6  34184  289.97 0854.56
2009/04/23 13:19:28.9      45    -73    -35     86     92 148.4 -27.4  34180  289.92 0854.56
2009/04/23 13:19:29.0      89   -161    -28    185    188 151.0  -8.8  34182  289.94 0854.56
2009/04/23 13:19:29.1     130   -203     29    242    244 147.4   6.9  34184  289.98 0854.56
2009/04/23 13:19:29.2     155   -155    -90    220    237 135.0 -28.0  34184  289.97 0854.56
2009/04/23 13:19:29.3     131   -100   -134    165    212 127.3 -48.1  34180  289.92 0854.56
2009/04/23 13:19:29.4      77   -138    -26    159    162 150.8  -9.3  34182  289.94 0854.56
2009/04/23 13:19:29.5      48    -84    -12     98     99 150.1  -7.3  34182  289.96 0854.56
2009/04/23 13:19:29.6      21    -46     -6     51     52 154.5  -7.3  34182  289.94 0854.56
2009/04/23 13:19:29.7     -11    -25     -3     28     29 203.6  -7.2  34184  289.99 0854.56
2009/04/23 13:19:29.8      -3    -83     16     84     86 182.2  11.1  34184  289.97 0854.56
2009/04/23 13:19:29.9      70   -154      4    170    171 155.7   1.6  34180  289.92 0854.56
2009/04/23 13:19:30.0     113   -339    -32    358    360 161.6  -5.2  34178  289.86 0854.56
2009/04/23 13:19:30.1     129   -354     62    377    383 160.0   9.4  34178  289.86 0854.56
2009/04/23 13:19:30.2     186   -392     94    434    445 154.6  12.3  34180  289.90 0854.56
2009/04/23 13:19:30.3     252   -416    114    487    501 148.8  13.2  34178  289.88 0854.56
2009/04/23 13:19:30.4     239   -359     94    432    443 146.3  12.4  34178  289.88 0854.55
2009/04/23 13:19:30.5     261   -348      6    435    436 143.1   0.8  34178  289.87 0854.55
2009/04/23 13:19:30.6     193   -304     77    361    370 147.5  12.1  34178  289.89 0854.55
2009/04/23 13:19:30.7     139   -351     43    378    381 158.3   6.6  34178  289.87 0854.55
2009/04/23 13:19:30.8     127   -348      5    371    372 160.0   0.8  34182  289.93 0854.55
2009/04/23 13:19:30.9     155   -459    154    485    510 161.3  17.7  34180  289.91 0854.55
2009/04/23 13:19:31.0     129   -447    117    466    481 163.9  14.2  34182  289.93 0854.55
2009/04/23 13:19:31.1     152   -399     17    428    429 159.1   2.4  34180  289.90 0854.55
2009/04/23 13:19:31.2     129   -349     96    373    386 159.7  14.5  34180  289.91 0854.55
2009/04/23 13:19:31.3      79   -430     94    438    449 169.5  12.2  34180  289.92 0854.55
2009/04/23 13:19:31.4      79   -419    100    427    439 169.3  13.3  34178  289.87 0854.55
2009/04/23 13:19:31.5      57   -282    168    288    333 168.4  32.8  34180  289.90 0854.55
2009/04/23 13:19:31.6     102   -344    148    359    388 163.4  23.5  34180  289.91 0854.55
2009/04/23 13:19:31.7      47   -281    184    285    339 170.4  35.7  34180  289.90 0854.55
2009/04/23 13:19:31.8      80   -320    205    330    388 165.9  35.1  34186  290.01 0854.55
2009/04/23 13:19:31.9      71   -352    218    360    420 168.5  34.2  34186  290.01 0854.55
2009/04/23 13:19:32.0      24   -309    224    311    383 175.5  39.5  34182  289.93 0854.55
2009/04/23 13:19:32.1      -3   -270    170    271    319 180.7  35.2  34186  290.02 0854.55
2009/04/23 13:19:32.2      23   -218     80    220    234 173.8  20.9  34182  289.96 0854.55
2009/04/23 13:19:32.3      12   -195     80    196    211 176.2  23.4  34180  289.92 0854.55
2009/04/23 13:19:32.4      27   -191    -24    193    195 171.9  -7.3  34178  289.87 0854.53
2009/04/23 13:19:32.5      39   -199    -18    203    204 168.7  -5.2  34178  289.89 0854.53
2009/04/23 13:19:32.6      22   -166     41    168    174 172.2  13.9  34182  289.96 0854.53
2009/04/23 13:19:32.7      -1   -291     62    292    299 180.2  12.2  34186  290.00 0854.53
2009/04/23 13:19:32.8     -28   -228    118    230    258 187.1  29.3  34188  290.05 0854.53
2009/04/23 13:19:32.9     -17   -231    154    232    278 184.4  36.7  34190  290.09 0854.53
2009/04/23 13:19:33.0      28   -252    182    254    312 173.5  39.1  34194  290.15 0854.53
2009/04/23 13:19:33.1      94   -234    166    253    302 158.1  36.3  34188  290.03 0854.53
2009/04/23 13:19:33.2     142   -207    143    252    289 145.5  32.1  34178  289.88 0854.53
2009/04/23 13:19:33.3     110   -273    158    295    334 158.1  30.5  34182  289.95 0854.53
2009/04/23 13:19:33.4     118   -329    168    350    388 160.2  27.3  34188  290.06 0854.53
2009/04/23 13:19:33.5      64   -316    238    323    401 168.4  40.1  34194  290.15 0854.53
2009/04/23 13:19:33.6      21   -273    282    274    393 175.5  51.1  34198  290.21 0854.53
2009/04/23 13:19:33.7      61   -299    238    306    387 168.4  41.9  34188  290.04 0854.53
2009/04/23 13:19:33.8      44   -313    227    317    389 172.0  39.1  34182  289.96 0854.53
2009/04/23 13:19:33.9      36   -191    232    195    303 169.1  56.3  34182  289.93 0854.53
2009/04/23 13:19:34.0      14    -72    199     74    212 168.4  79.1  34186  290.01 0854.53
2009/04/23 13:19:34.1      61   -180    209    191    283 161.3  53.0  34178  289.88 0854.53
2009/04/23 13:19:34.2      -7     42    114     43    121 349.3  79.1  34186  290.02 0854.53
2009/04/23 13:19:34.3      56    -52    157     77    174 133.1  72.1  34180  289.92 0854.53
2009/04/23 13:19:34.4     -51    -97    244    110    267 208.1  74.0  34186  290.02 0854.50
2009/04/23 13:19:34.5    -114   -174    285    209    353 213.4  60.3  34186  290.00 0854.50
2009/04/23 13:19:34.6    -103   -161    218    192    290 212.6  54.2  34178  289.88 0854.50
2009/04/23 13:19:34.7      61    -96    212    114    240 147.5  69.6  34186  290.02 0854.50
2009/04/23 13:19:34.8     130     -6     71    131    149  93.0  31.3  34186  290.01 0854.50
2009/04/23 13:19:34.9     210     91    109    229    253  66.5  27.3  34184  289.97 0854.50
2009/04/23 13:19:35.0     -53   -148    263    158    306 200.0  66.4  34178  289.86 0854.50
2009/04/23 13:19:35.1      52     13    163     54    171  75.8  80.7  34184  289.99 0854.50
2009/04/23 13:19:35.2     142    119    150    186    238  50.0  43.0  34188  290.04 0854.50
2009/04/23 13:19:35.3     181     -7    256    182    314  92.4  61.1  34192  290.12 0854.50
2009/04/23 13:19:35.4      72     51    210     89    228  54.5  75.9  34192  290.11 0854.50
2009/04/23 13:19:35.5      90     43    195    100    219  64.2  70.8  34186  290.02 0854.50
2009/04/23 13:19:35.6      87    -66    193    110    222 127.3  68.1  34190  290.09 0854.50
2009/04/23 13:19:35.7     130    -47    203    139    246 110.0  62.6  34192  290.11 0854.50
2009/04/23 13:19:35.8     293    -99    294    310    427 108.8  48.4  34182  289.94 0854.50
2009/04/23 13:19:35.9     323     14    292    324    436  87.4  46.8  34208  290.38 0854.50
2009/04/23 13:19:36.0     297     78    299    308    429  75.2  49.2  34258  291.22 0854.50
2009/04/23 13:19:36.1     347     87    297    358    465  75.8  43.8  34298  291.92 0854.50
2009/04/23 13:19:36.2     262     19    213    263    338  85.7  43.3  34258  291.24 0854.50
2009/04/23 13:19:36.3     265    -80    328    277    429 106.8  55.6  34270  291.44 0854.50
2009/04/23 13:19:36.4     323   -124    294    347    454 111.1  44.7  34196  290.17 0854.41
2009/04/23 13:19:36.5     370    -82    227    380    442 102.5  33.6  34208  290.39 0854.41
2009/04/23 13:19:36.6     421   -108    371    435    571 104.4  44.8  34244  290.99 0854.41
2009/04/23 13:19:36.7     735    191    165    760    778  75.4  12.3  34252  291.14 0854.41
2009/04/23 13:19:36.8     587    295    261    658    707  63.3  22.9  34240  290.92 0854.41
2009/04/23 13:19:36.9     712    -40    -34    714    715  93.3  -2.8  34222  290.62 0854.41
2009/04/23 13:19:37.0     582    -44     30    584    585  94.4   3.0  34180  289.90 0854.41
2009/04/23 13:19:37.1     603     35     42    605    607  86.6   4.0  34218  290.56 0854.41
2009/04/23 13:19:37.2     540    -52    126    543    558  95.6  13.1  34200  290.24 0854.41
2009/04/23 13:19:37.3     666    130    164    679    699  78.9  13.6  34220  290.58 0854.41
2009/04/23 13:19:37.4     624     69    206    628    661  83.6  18.2  34228  290.71 0854.41
2009/04/23 13:19:37.5     619    134    191    634    663  77.7  16.8  34188  290.04 0854.41
2009/04/23 13:19:37.6     626    144    147    643    660  77.0  12.9  34200  290.26 0854.41
2009/04/23 13:19:37.7     569    111    161    580    603  78.9  15.6  34222  290.61 0854.41
2009/04/23 13:19:37.8     493    121    215    508    551  76.2  24.2  34216  290.53 0854.41
2009/04/23 13:19:37.9     501    113    246    514    569  77.2  27.3  34218  290.57 0854.41
2009/04/23 13:19:38.0     538    110    238    550    599  78.4  25.1  34204  290.31 0854.41
2009/04/23 13:19:38.1     647     39    239    649    691  86.5  21.1  34218  290.56 0854.41
2009/04/23 13:19:38.2     524     28    186    525    558  86.9  19.5  34214  290.50 0854.41
2009/04/23 13:19:38.3     341     65    315    348    469  79.1  46.9  34212  290.46 0854.41
2009/04/23 13:19:38.4     398    -35    287    400    492  95.1  39.2  34182  289.95 0854.34
2009/04/23 13:19:38.5     384   -171    219    421    474 114.0  29.8  34186  290.00 0854.34
2009/04/23 13:19:38.6     437   -155    184    464    499 109.6  22.9  34184  289.98 0854.34
2009/04/23 13:19:38.7     395   -203    118    445    461 117.2  14.9  34186  290.00 0854.34
2009/04/23 13:19:38.8     280   -178    156    333    367 122.5  27.1  34182  289.96 0854.34
2009/04/23 13:19:38.9     170   -212    138    273    305 141.3  28.7  34184  289.97 0854.34
2009/04/23 13:19:39.0     167   -229     73    284    294 143.9  14.5  34180  289.92 0854.34
2009/04/23 13:19:39.2     236   -204     31    313    315 130.9   5.7  34180  289.92 0854.34
2009/04/23 13:19:39.2     211   -210     40    298    301 134.8   7.8  34182  289.93 0854.34
2009/04/23 13:19:39.3     102   -215     71    238    249 154.6  16.8  34184  289.97 0854.34
2009/04/23 13:19:39.5      60   -154     73    166    181 158.6  25.1  34184  289.97 0854.34
2009/04/23 13:19:39.5     172   -153     20    231    232 131.8   5.0  34182  289.96 0854.34
2009/04/23 13:19:39.7     136   -133     29    191    194 134.2   8.8  34182  289.96 0854.34
2009/04/23 13:19:39.8     105    -67     -3    125    126 122.4  -1.8  34182  289.94 0854.34
2009/04/23 13:19:39.9      67    -20      3     70     71 106.8   2.8  34186  290.01 0854.34
2009/04/23 13:19:40.0      -3    -43     18     44     47 184.5  23.0  34184  289.97 0854.34
2009/04/23 13:19:40.0     -71    -33     -3     79     80 244.8  -2.2  34182  289.94 0854.34
2009/04/23 13:19:40.2     -63    -27     13     69     71 246.5  11.1  34184  289.99 0854.34
2009/04/23 13:19:40.3     -32      0     23     33     40 270.0  38.6  34182  289.94 0854.34
2009/04/23 13:19:40.4      14     -3      0     15     16 105.1   2.9  34184  289.97 0854.34
2009/04/23 13:19:40.5     -22    -26     23     35     41 219.6  36.5  34184  289.99 0854.24
2009/04/23 13:19:40.6     -51    -63     51     82     96 218.7  35.5  34186  290.02 0854.24
2009/04/23 13:19:40.7     -60    -55     36     82     89 227.3  25.7  34184  289.99 0854.24
2009/04/23 13:19:40.8     -75    -94    -33    121    126 218.7 -15.4  34186  290.01 0854.24
2009/04/23 13:19:40.9       0    114    -32    115    119   0.5 -20.2  34188  290.04 0854.24
2009/04/23 13:19:41.0    -108    192    -58    221    229 330.6 -14.7  34186  290.01 0854.24
2009/04/23 13:19:41.1    -249    304     20    394    395 320.7   2.9  34174  289.82 0854.24
2009/04/23 13:19:41.2    -342    139    100    370    384 292.2  15.2  34194  290.15 0854.24
2009/04/23 13:19:41.3    -315     10     16    316    317 271.9   3.0  34184  289.97 0854.24
2009/04/23 13:19:41.4    -350    134   -139    375    399 291.0 -25.5  34174  289.81 0854.24
2009/04/23 13:19:41.5    -318    102    -40    335    338 287.8  -6.8  34188  290.04 0854.24
2009/04/23 13:19:41.6    -197    -46     69    203    215 256.7  18.9  34184  289.97 0854.24
2009/04/23 13:19:41.7    -218    138    -85    259    273 302.4 -18.3  34168  289.71 0854.24
2009/04/23 13:19:41.8     -93    117    132    150    199 321.3  45.9  34172  289.77 0854.24
2009/04/23 13:19:41.9     -90     41    156    100    185 294.8  64.6  34180  289.91 0854.24
2009/04/23 13:19:42.0     -99    -94     49    137    145 226.4  20.0  34178  289.87 0854.24
2009/04/23 13:19:42.1    -409   -211     22    461    462 242.7   2.8  34180  289.92 0854.24
2009/04/23 13:19:42.2    -470   -269    139    542    560 240.2  14.4  34178  289.89 0854.24
2009/04/23 13:19:42.3    -534   -232    140    583    600 246.5  13.6  34182  289.93 0854.24
2009/04/23 13:19:42.4    -438   -230    -28    495    496 242.2  -3.3  34158  289.54 0854.24
2009/04/23 13:19:42.5    -507    -82   -167    514    541 260.8 -18.1  34162  289.62 0854.30
2009/04/23 13:19:42.6    -792   -307   -298    850    900 248.8 -24.5  34178  289.86 0854.30
2009/04/23 13:19:42.7    -667   -376   -191    766    790 240.6 -14.1  34182  289.95 0854.30
2009/04/23 13:19:42.8    -531   -326    138    624    640 238.5  12.5  34190  290.08 0854.30
2009/04/23 13:19:42.9    -386   -437    125    584    598 221.4  12.1  34178  289.86 0854.30
2009/04/23 13:19:43.0    -244   -383    151    455    480 212.5  18.4  34196  290.18 0854.30
2009/04/23 13:19:43.1    -167   -421    201    454    496 201.7  25.3  34198  290.22 0854.30
2009/04/23 13:19:43.2     -34   -425    153    427    453 184.6  20.7  34186  290.02 0854.30
2009/04/23 13:19:43.3     -99   -414    256    426    497 193.5  34.0  34182  289.95 0854.30
2009/04/23 13:19:43.4    -137   -543    186    560    591 194.2  18.4  34174  289.81 0854.30
2009/04/23 13:19:43.5    -100   -404    209    417    466 194.0  28.6  34188  290.05 0854.30
2009/04/23 13:19:43.6    -177   -389    136    428    450 204.5  17.7  34174  289.82 0854.30
2009/04/23 13:19:43.7    -244   -466     94    527    536 207.7  10.1  34172  289.79 0854.30
2009/04/23 13:19:43.8    -285   -374     56    471    475 217.3   6.9  34172  289.79 0854.30
2009/04/23 13:19:43.9    -276   -306     15    413    414 222.0   2.1  34168  289.72 0854.30
2009/04/23 13:19:44.0    -239   -255     32    350    352 223.1   5.3  34174  289.81 0854.30
2009/04/23 13:19:44.1    -194   -176    -73    263    273 227.8 -15.5  34176  289.85 0854.30
2009/04/23 13:19:44.2    -223   -190    -87    294    306 229.6 -21.5  34180  289.92 0854.30
2009/04/23 13:19:44.3     -72   -354    -30    362    364 191.5  -4.9  34168  289.72 0854.30
2009/04/23 13:19:44.4       5   -336     -6    337    338 179.0  -1.2  34170  289.74 0854.30
2009/04/23 13:19:44.5      -6   -426     82    427    435 180.9  11.0  34166  289.68 0854.34
2009/04/23 13:19:44.6      -6   -417    148    418    444 180.9  19.5  34170  289.75 0854.34
2009/04/23 13:19:44.7      13   -277    170    278    325 177.3  34.4  34164  289.64 0854.34
2009/04/23 13:19:44.8      17   -334    201    335    390 177.0  33.8  34168  289.72 0854.34
2009/04/23 13:19:44.9     108   -357     62    374    380 163.1   9.4  34170  289.74 0854.34
2009/04/23 13:19:45.0     142   -314    103    345    361 155.7  16.7  34166  289.69 0854.34
2009/04/23 13:19:45.1     146   -329     64    361    367 156.1  10.1  34170  289.74 0854.34
2009/04/23 13:19:45.2      85   -258    -18    272    273 161.7  -3.9  34172  289.76 0854.34
2009/04/23 13:19:45.3      85   -339    -90    350    362 165.9 -14.4  34164  289.64 0854.34
2009/04/23 13:19:45.4     113   -280    -54    303    308 157.9 -10.3  34172  289.76 0854.34
2009/04/23 13:19:45.5     248   -189   -109    312    330 127.3 -24.3  34172  289.76 0854.34
2009/04/23 13:19:45.6       3   -220    126    221    254 179.0  32.3  34172  289.76 0854.34
2009/04/23 13:19:45.7      77   -174    164    191    251 156.2  44.9  34170  289.75 0854.34
2009/04/23 13:19:45.8      66   -264    120    273    298 165.8  25.1  34166  289.68 0854.34
2009/04/23 13:19:45.9     118   -162    104    201    226 143.9  29.3  34166  289.67 0854.34
2009/04/23 13:19:46.0     173   -124    146    214    259 125.7  37.6  34170  289.73 0854.34
2009/04/23 13:19:46.1     229    -76    126    242    272 108.4  29.8  34172  289.78 0854.34
2009/04/23 13:19:46.2     134   -101     92    169    192 127.1  31.3  34172  289.77 0854.34
2009/04/23 13:19:46.3     158    -95     48    185    192 121.1  14.7  34168  289.72 0854.34
2009/04/23 13:19:46.4     215    -36    140    219    259  99.6  35.6  34164  289.64 0854.34
2009/04/23 13:19:46.5     375    -32     96    377    390  95.0  14.3  34176  289.84 0854.36
2009/04/23 13:19:46.6     234     27     83    236    251  83.4  19.4  34176  289.85 0854.36
2009/04/23 13:19:46.7     179    148    113    233    258  50.5  27.8  34176  289.83 0854.36
2009/04/23 13:19:46.8     235     55     61    242    250  76.7  14.2  34176  289.83 0854.36
2009/04/23 13:19:46.9     308    327     31    450    452  43.2   4.0  34234  290.82 0854.36
2009/04/23 13:19:47.0     245    294     74    383    391  39.8  11.0  34292  291.81 0854.36
2009/04/23 13:19:47.1     195    313     74    369    377  31.9  11.3  34284  291.68 0854.36
2009/04/23 13:19:47.2     221     39     11    225    226  79.9   2.9  34192  290.13 0854.36
2009/04/23 13:19:47.3     116    247     13    274    275  25.2   2.8  34236  290.87 0854.36
2009/04/23 13:19:47.4     123    233     96    264    280  27.9  20.9  34224  290.66 0854.36
2009/04/23 13:19:47.5     169    149     88    226    242  48.7  22.3  34210  290.42 0854.36
2009/04/23 13:19:47.6      38    195     76    199    213  11.1  21.5  34270  291.43 0854.36
2009/04/23 13:19:47.7      93     88     96    129    160  46.4  40.4  34248  291.06 0854.36
2009/04/23 13:19:47.8      58     69    135     91    162  40.1  63.2  34188  290.06 0854.36
2009/04/23 13:19:47.9      26     -8    115     28    118 108.6  86.9  34202  290.28 0854.36
2009/04/23 13:19:48.0       0     -8    107      9    107 184.5  90.0  34200  290.26 0854.36
2009/04/23 13:19:48.1     112     14    174    113    207  82.5  64.4  34182  289.94 0854.36
2009/04/23 13:19:48.2     100    -14    148    102    179  98.0  62.1  34182  289.96 0854.36
2009/04/23 13:19:48.3      40    -33    121     52    131 129.5  75.0  34190  290.09 0854.36
2009/04/23 13:19:48.4      96    -46    127    107    166 115.8  55.8  34180  289.91 0854.36
2009/04/23 13:19:48.5      76    -58    126     96    158 127.3  59.0  34182  289.94 0854.38
2009/04/23 13:19:48.6      53    -97    130    111    170 151.0  55.4  34178  289.87 0854.38
2009/04/23 13:19:48.7      -6    -62    135     63    148 186.2  73.1  34184  289.99 0854.38
2009/04/23 13:19:48.8      13    -54    129     56    140 165.7  75.0  34188  290.04 0854.38
2009/04/23 13:19:48.9      -7     26     80     27     84 344.9  81.0  34194  290.14 0854.38
2009/04/23 13:19:49.0      27      9     68     29     73  71.4  77.0  34188  290.06 0854.38
2009/04/23 13:19:49.1      12     16     79     21     81  36.1  84.9  34192  290.11 0854.38
2009/04/23 13:19:49.2      35    -33    107     49    117 133.1  74.0  34190  290.08 0854.38
2009/04/23 13:19:49.3     -13     18     90     23     92 323.9  85.9  34192  290.13 0854.38
2009/04/23 13:19:49.4     102    -27    133    106    170 105.0  57.5  34188  290.04 0854.38
2009/04/23 13:19:49.5      -3    -48    111     49    121 184.5  74.9  34186  290.01 0854.40
2009/04/23 13:19:49.6     -28    -61    136     68    152 204.5  71.9  34192  290.13 0854.40
2009/04/23 13:19:49.7     -70     40    124     81    148 299.8  64.6  34234  290.82 0854.40
2009/04/23 13:19:49.8     -72     52    112     90    143 306.0  56.9  34248  291.06 0854.40
2009/04/23 13:19:49.9     -77     93    126    122    175 320.3  50.9  34290  291.77 0854.40
2009/04/23 13:19:50.0    -125     80    133    149    199 302.9  46.4  34266  291.38 0854.40
2009/04/23 13:19:50.1    -148    132     88    199    217 311.8  25.2  34250  291.11 0854.40
2009/04/23 13:19:50.2     -76     34    122     84    148 294.0  62.6  34258  291.25 0854.40
2009/04/23 13:19:50.3     -14      8     79     17     80 298.9  88.5  34256  291.21 0854.40
2009/04/23 13:19:50.4     -18    -53     84     57    101 198.7  62.6  34262  291.30 0854.40
2009/04/23 13:19:50.5     -15    -96    107     98    145 188.9  52.2  34278  291.57 0854.40
2009/04/23 13:19:50.6      16   -114    122    116    168 172.0  51.4  34270  291.45 0854.40
2009/04/23 13:19:50.7      57   -130    137    142    197 156.3  49.0  34220  290.58 0854.40
2009/04/23 13:19:50.8      75   -205    161    219    271 160.0  39.7  34184  289.98 0854.40
2009/04/23 13:19:50.9     163   -240    213    291    360 145.7  39.8  34182  289.96 0854.40
2009/04/23 13:19:51.0      55   -271    219    277    353 168.4  42.3  34182  289.94 0854.40
2009/04/23 13:19:51.1      47   -249    216    254    333 169.3  44.7  34180  289.90 0854.40
2009/04/23 13:19:51.2      87   -174    220    195    293 153.3  54.2  34182  289.95 0854.40
2009/04/23 13:19:51.3     155   -208    233    260    349 143.3  46.5  34180  289.90 0854.40
2009/04/23 13:19:51.4      20   -142    210    144    254 172.0  62.4  34178  289.89 0854.40
2009/04/23 13:19:51.5      24     24    123     34    127  45.0  84.4  34184  289.99 0854.43
2009/04/23 13:19:51.6      51   -113    197    125    233 155.5  64.7  34180  289.91 0854.43
2009/04/23 13:19:51.7     157   -299    275    338    435 152.3  43.3  34180  289.90 0854.43
2009/04/23 13:19:51.8     233   -329    234    404    466 144.6  32.9  34176  289.83 0854.43
2009/04/23 13:19:51.9     226   -284    295    363    467 141.5  43.3  34174  289.82 0854.43
2009/04/23 13:19:52.0     244   -314     96    398    410 142.2  13.6  34174  289.80 0854.43
2009/04/23 13:19:52.1     104   -329    175    346    387 162.5  28.9  34172  289.79 0854.43
2009/04/23 13:19:52.2     113   -338    237    357    428 161.5  36.5  34178  289.87 0854.43
2009/04/23 13:19:52.3     136   -343    248    370    445 158.3  37.2  34178  289.87 0854.43
2009/04/23 13:19:52.4       4   -237    254    238    348 178.9  52.1  34176  289.85 0854.43
2009/04/23 13:19:52.5      53   -352    164    356    391 171.4  26.4  34178  289.87 0854.43
2009/04/23 13:19:52.6     127   -342    153    366    396 159.5  24.1  34178  289.86 0854.43
2009/04/23 13:19:52.7     190   -351    180    400    438 151.6  25.9  34176  289.85 0854.43
2009/04/23 13:19:52.8     116   -365    103    384    398 162.3  15.1  34174  289.81 0854.43
2009/04/23 13:19:52.9     199   -290     55    353    358 145.5   8.9  34178  289.87 0854.43
2009/04/23 13:19:53.0     235   -314     95    393    405 143.2  13.6  34178  289.89 0854.43
2009/04/23 13:19:53.1     266   -352     97    442    453 142.9  12.4  34184  289.99 0854.43
2009/04/23 13:19:53.2     239   -374    121    445    462 147.4  15.3  34182  289.95 0854.43
2009/04/23 13:19:53.3     215   -323    113    389    406 146.3  16.3  34184  289.98 0854.43
2009/04/23 13:19:53.4     238   -299     83    383    393 141.5  12.3  34182  289.94 0854.43
2009/04/23 13:19:53.5     213   -390     53    445    449 151.4   6.9  34182  289.95 0854.44
2009/04/23 13:19:53.6     149   -380     74    409    416 158.6  10.4  34176  289.83 0854.44
2009/04/23 13:19:53.7      95   -365    117    378    396 165.3  17.2  34182  289.96 0854.44
2009/04/23 13:19:53.8      94   -279    122    295    319 161.3  23.7  34182  289.95 0854.44
2009/04/23 13:19:53.9      93   -275      5    291    292 161.3   1.0  34182  289.93 0854.44
2009/04/23 13:19:54.0       0   -236     37    237    240 180.2   9.0  34184  289.97 0854.44
2009/04/23 13:19:54.1      44   -131     34    139    144 161.3  13.7  34186  290.01 0854.44
2009/04/23 13:19:54.2     136   -156    109    208    234 139.0  29.8  34178  289.87 0854.44
2009/04/23 13:19:54.3    -105   -298     98    317    332 199.5  17.3  34182  289.93 0854.44
2009/04/23 13:19:54.4    -146   -365    151    394    421 201.9  22.1  34184  289.97 0854.44
2009/04/23 13:19:54.5    -116   -382    138    400    424 196.9  19.1  34186  290.00 0854.44
2009/04/23 13:19:54.6    -108   -382     20    398    399 195.8   2.9  34186  290.01 0854.44
2009/04/23 13:19:54.7    -135   -449    -32    469    471 196.8  -3.9  34188  290.03 0854.44
2009/04/23 13:19:54.8    -110   -412    -44    427    430 195.1  -6.0  34188  290.05 0854.44
2009/04/23 13:19:54.9    -146   -402    -27    428    429 200.0  -3.7  34184  289.99 0854.44
2009/04/23 13:19:55.0     -78   -358     34    367    369 192.3   5.3  34186  290.01 0854.44
2009/04/23 13:19:55.1      25   -416     50    417    421 176.5   6.9  34190  290.07 0854.44
2009/04/23 13:19:55.2      54   -438    -13    442    443 172.9  -1.7  34188  290.04 0854.44
2009/04/23 13:19:55.3      33   -431     -5    433    434 175.6  -0.7  34188  290.04 0854.44
2009/04/23 13:19:55.4    -106   -452     57    465    469 193.3   7.1  34184  289.98 0854.44
2009/04/23 13:19:55.5     -94   -463    -44    473    476 191.6  -5.4  34188  290.03 0854.39
2009/04/23 13:19:55.6       0   -463    -88    464    473 179.9 -10.8  34188  290.05 0854.39
2009/04/23 13:19:55.7     -11   -481    -57    482    486 181.4  -6.8  34188  290.05 0854.39
2009/04/23 13:19:55.8      18   -480   -113    481    495 177.8 -13.3  34188  290.06 0854.39
2009/04/23 13:19:55.9      68   -443    -43    449    452 171.2  -5.6  34190  290.09 0854.39
2009/04/23 13:19:56.0      64   -433    -70    438    444 171.5  -9.1  34192  290.12 0854.39
2009/04/23 13:19:56.1     209   -449    -35    496    498 155.1  -4.1  34186  290.01 0854.39
2009/04/23 13:19:56.2     204   -374    -86    427    436 151.4 -11.5  34186  290.02 0854.39
2009/04/23 13:19:56.3     268   -420   -173    499    528 147.4 -24.3  34182  289.96 0854.39
2009/04/23 13:19:56.4     128   -380   -144    402    428 161.4 -19.8  34188  290.05 0854.39
2009/04/23 13:19:56.5      88   -397   -104    407    421 167.5 -14.4  34190  290.07 0854.39
2009/04/23 13:19:56.6     140   -389    -16    414    415 160.1  -2.2  34184  289.97 0854.39
2009/04/23 13:19:56.7     123   -455   -111    472    485 164.8 -13.3  34182  289.96 0854.39
2009/04/23 13:19:56.8     121   -601   -173    614    637 168.6 -20.4  34176  289.84 0854.39
2009/04/23 13:19:56.9     -45   -593   -165    595    618 184.4 -15.5  34184  289.98 0854.39
2009/04/23 13:19:57.0      -8   -560   -199    561    596 180.9 -19.6  34178  289.88 0854.39
2009/04/23 13:19:57.1    -115   -566    -14    578    579 191.6  -1.4  34182  289.93 0854.39
2009/04/23 13:19:57.2    -102   -549   -102    559    569 190.6 -10.4  34190  290.07 0854.39
2009/04/23 13:19:57.3     -55   -532    -23    535    536 186.0  -2.5  34190  290.07 0854.39
2009/04/23 13:19:57.4     -41   -582   -148    584    603 184.1 -14.3  34186  290.00 0854.39
2009/04/23 13:19:57.5     -76   -662   -185    667    693 186.6 -15.5  34180  289.92 0854.39
2009/04/23 13:19:57.6    -141   -640   -146    656    673 192.5 -12.6  34178  289.87 0854.39
2009/04/23 13:19:57.7     -89   -589   -121    596    608 188.6 -11.5  34180  289.90 0854.39
2009/04/23 13:19:57.8    -134   -596   -105    611    621 192.7  -9.8  34174  289.82 0854.39
2009/04/23 13:19:57.9    -174   -654   -106    677    686 194.9  -8.9  34178  289.88 0854.39
2009/04/23 13:19:58.0     -86   -656    -64    662    666 187.5  -5.6  34178  289.87 0854.39
2009/04/23 13:19:58.1     -71   -620    -68    625    629 186.6  -6.3  34178  289.87 0854.39
2009/04/23 13:19:58.2     -65   -500   -100    505    515 187.5 -11.2  34178  289.88 0854.39
2009/04/23 13:19:58.3    -137   -504    -91    523    531 195.3  -9.9  34176  289.85 0854.39
2009/04/23 13:19:58.4    -132   -519    -68    536    541 194.3  -7.3  34180  289.92 0854.39
2009/04/23 13:19:58.5     -99   -489    -67    499    504 191.5  -7.7  34178  289.88 0854.39
2009/04/23 13:19:58.6    -112   -450    -83    464    472 194.1 -10.2  34178  289.86 0854.39
2009/04/23 13:19:58.7    -133   -447   -101    467    479 196.6 -12.3  34182  289.95 0854.39
2009/04/23 13:19:58.8    -128   -406   -118    426    443 197.5 -15.5  34180  289.90 0854.39
2009/04/23 13:19:58.9    -144   -447    -55    470    474 197.9  -6.7  34178  289.89 0854.39
2009/04/23 13:19:59.0    -131   -435    -25    455    456 196.8  -3.2  34178  289.88 0854.39
2009/04/23 13:19:59.1     -75   -392    -42    400    403 190.9  -6.1  34178  289.89 0854.39
2009/04/23 13:19:59.2     -83   -391    -62    400    405 192.1  -8.8  34182  289.94 0854.39
2009/04/23 13:19:59.3     -78   -302   -101    312    327 194.5 -23.2  34178  289.88 0854.39
2009/04/23 13:19:59.4     -39   -283   -100    286    302 188.0 -24.4  34180  289.92 0854.38
2009/04/23 13:19:59.5     -83   -272    -87    285    297 197.0 -21.8  34180  289.92 0854.38
2009/04/23 13:19:59.6     -88   -194    -78    214    227 204.5 -25.3  34178  289.87 0854.38
2009/04/23 13:19:59.7     -95   -157    -71    184    197 211.4 -26.7  34178  289.89 0854.38
2009/04/23 13:19:59.8     -86   -107    -90    138    164 218.7 -40.4  34178  289.89 0854.38
2009/04/23 13:19:59.9    -178   -110    -66    210    221 238.2 -17.5  34176  289.84 0854.38
2009/04/23 13:20:00.0    -217   -130    -87    254    269 239.1 -19.1  34188  290.03 0854.38
2009/04/23 13:20:00.1    -172    -88   -101    194    218 242.9 -33.9  34180  289.91 0854.38
2009/04/23 13:20:00.2    -135    -59   -119    148    189 246.4 -47.7  34178  289.89 0854.38
2009/04/23 13:20:00.3    -154    -38   -170    159    232 255.8 -56.5  34178  289.89 0854.38
2009/04/23 13:20:00.4     -87    -36   -191     95    213 247.4 -76.1  34180  289.92 0854.38
2009/04/23 13:20:00.5     -13      5   -143     14    143 291.7 -90.0  34180  289.92 0854.38
2009/04/23 13:20:00.6     -57    -34   -178     67    190 239.3 -83.3  34180  289.91 0854.38
2009/04/23 13:20:00.7     -55      7   -189     56    197 277.9 -87.7  34186  290.01 0854.38
2009/04/23 13:20:00.8    -142    -66   -171    157    232 244.8 -56.6  34182  289.94 0854.38
2009/04/23 13:20:00.9     -59     -2   -163     60    173 267.4 -83.9  34180  289.92 0854.38
2009/04/23 13:20:01.0     -63    -38   -184     74    198 238.5 -81.5  34176  289.85 0854.38
2009/04/23 13:20:01.1      36    -93   -135    100    168 158.6 -64.4  34182  289.94 0854.38
2009/04/23 13:20:01.2     139    -68   -199    156    252 116.2 -62.6  34180  289.92 0854.38
2009/04/23 13:20:01.3     104   -135   -169    171    240 142.2 -54.4  34180  289.92 0854.38
2009/04/23 13:20:01.4     147   -141    -89    205    223 133.8 -29.3  34180  289.92 0854.39
2009/04/23 13:20:01.5     135   -212    -79    252    265 147.5 -17.5  34182  289.93 0854.39
2009/04/23 13:20:01.6     153   -269    -56    310    316 150.4 -10.3  34182  289.95 0854.39
2009/04/23 13:20:01.7     160   -297     -2    338    339 151.7  -0.5  34180  289.91 0854.39
2009/04/23 13:20:01.8     242   -251     72    349    357 136.1  11.8  34182  289.94 0854.39
2009/04/23 13:20:01.9     157   -279    157    321    357 150.6  28.0  34178  289.86 0854.39
2009/04/23 13:20:02.0      79   -305    218    316    383 165.5  37.9  34178  289.87 0854.39
2009/04/23 13:20:02.1      51   -130    201    140    244 158.6  61.7  34180  289.92 0854.39
2009/04/23 13:20:02.2      -4   -137    180    138    226 181.8  58.5  34184  289.97 0854.39
2009/04/23 13:20:02.3     -57   -170    254    180    311 198.7  61.3  34182  289.95 0854.39
2009/04/23 13:20:02.4     -57   -170    216    180    281 198.5  56.1  34184  289.98 0854.39
2009/04/23 13:20:02.5     -76   -168    209    185    279 204.5  54.2  34184  289.97 0854.39
2009/04/23 13:20:02.6    -102   -185    168    212    270 209.0  42.7  34186  290.00 0854.39
2009/04/23 13:20:02.7    -224   -213    143    310    341 226.4  26.4  34188  290.04 0854.39
2009/04/23 13:20:02.8    -228   -232    146    326    357 224.4  25.8  34182  289.96 0854.39
2009/04/23 13:20:02.9    -246   -258    131    357    380 223.7  21.0  34192  290.10 0854.39
2009/04/23 13:20:03.0    -277   -232    138    362    387 230.0  21.8  34198  290.21 0854.39
2009/04/23 13:20:03.1    -396   -200     28    444    445 243.2   3.7  34184  289.97 0854.39
2009/04/23 13:20:03.2    -436   -134    -57    457    461 252.9  -7.2  34186  290.02 0854.39
2009/04/23 13:20:03.3    -613   -403     -3    734    735 236.7  -0.3  34188  290.04 0854.39
2009/04/23 13:20:03.4    -519   -306    -76    603    608 239.5  -7.2  34188  290.03 0854.37
2009/04/23 13:20:03.5    -564   -195   -121    597    609 250.9 -11.5  34184  289.97 0854.37
2009/04/23 13:20:03.6    -559   -162     44    582    584 253.8   4.4  34190  290.08 0854.37
2009/04/23 13:20:03.7    -550   -325    125    640    653 239.4  11.1  34184  289.99 0854.37
2009/04/23 13:20:03.8    -513   -360     39    627    629 234.9   3.6  34184  289.98 0854.37
2009/04/23 13:20:03.9    -450   -155     25    477    478 251.0   3.0  34176  289.83 0854.37
2009/04/23 13:20:04.0     -46   -367    155    370    401 187.2  24.1  34184  289.99 0854.37
2009/04/23 13:20:04.1       4   -433    340    434    551 179.4  42.1  34180  289.91 0854.37
2009/04/23 13:20:04.2     139   -620    103    636    645 167.3   9.2  34174  289.81 0854.37
2009/04/23 13:20:04.3     135   -536     80    553    559 165.8   8.3  34186  290.01 0854.37
2009/04/23 13:20:04.4     167   -573    128    597    611 163.7  12.2  34182  289.93 0854.37
2009/04/23 13:20:04.5     147   -527    -79    548    554 164.4  -8.3  34184  289.97 0854.37
2009/04/23 13:20:04.6     139   -490     16    510    511 164.1   1.9  34184  289.98 0854.37
2009/04/23 13:20:04.7      29   -479    131    480    498 176.5  15.3  34186  290.01 0854.37
2009/04/23 13:20:04.8      19   -307    106    308    326 176.4  19.1  34186  290.02 0854.37
2009/04/23 13:20:04.9     152   -313    165    349    386 154.1  27.2  34186  290.01 0854.37
2009/04/23 13:20:05.0     206   -378    291    431    520 151.4  37.4  34176  289.84 0854.37
2009/04/23 13:20:05.1     382   -406    362    558    665 136.7  36.0  34180  289.91 0854.37
2009/04/23 13:20:05.2     337   -337    321    477    574 135.0  37.1  34180  289.90 0854.37
2009/04/23 13:20:05.3     183   -320    113    369    386 150.3  17.0  34186  290.01 0854.37
2009/04/23 13:20:05.4     112   -363    143    381    406 162.8  21.6  34188  290.06 0854.39
2009/04/23 13:20:05.5     159   -353     36    388    390 155.7   5.3  34182  289.96 0854.39
2009/04/23 13:20:05.6     119   -402    194    420    462 163.5  26.9  34180  289.92 0854.39
2009/04/23 13:20:05.7      14   -485    185    486    520 178.3  21.8  34186  290.01 0854.39
2009/04/23 13:20:05.8      -8   -524    183    525    555 180.9  20.0  34180  289.92 0854.39
2009/04/23 13:20:06.0    -100   -525    146    535    555 190.8  15.3  34178  289.87 0854.39
2009/04/23 13:20:06.1     -76   -515    184    521    553 188.5  19.5  34180  289.92 0854.39
2009/04/23 13:20:06.2    -193   -455    184    495    528 203.0  21.4  34186  290.00 0854.39
2009/04/23 13:20:06.3    -239   -563     66    612    616 203.1   6.2  34184  289.98 0854.39
2009/04/23 13:20:06.4    -109   -561     92    572    580 191.0   9.2  34182  289.95 0854.39
2009/04/23 13:20:06.5    -221   -553     45    596    598 201.9   4.4  34186  290.02 0854.39
2009/04/23 13:20:06.6    -154   -492    -31    516    517 197.4  -3.5  34184  289.98 0854.39
2009/04/23 13:20:06.7    -192   -301   -145    358    386 212.5 -27.5  34188  290.04 0854.39
2009/04/23 13:20:06.8     -97   -250   -151    269    308 201.2 -36.0  34186  290.02 0854.39
2009/04/23 13:20:06.9      27   -128    100    131    164 168.0  41.2  34192  290.13 0854.39
2009/04/23 13:20:07.0    -236    -19    104    237    258 265.2  25.2  34188  290.03 0854.39
2009/04/23 13:20:07.1    -284   -131     83    313    324 245.2  15.0  34192  290.12 0854.39
2009/04/23 13:20:07.2    -235   -113    105    261    281 244.2  23.0  34184  289.98 0854.39
2009/04/23 13:20:07.3     -95   -152    154    180    236 212.1  45.1  34192  290.11 0854.39
2009/04/23 13:20:07.4      16     34    138     38    143  25.3  84.8  34194  290.16 0854.39
2009/04/23 13:20:07.5     -18    -56    110     59    124 198.3  69.3  34192  290.11 0854.38
2009/04/23 13:20:07.6       9    -93    157     94    182 174.2  66.2  34194  290.16 0854.38
2009/04/23 13:20:07.7    -178   -343    166    387    421 207.4  24.8  34188  290.05 0854.38
2009/04/23 13:20:07.8    -219   -331    107    397    412 213.5  15.1  34190  290.07 0854.38
2009/04/23 13:20:07.9    -307   -377    134    487    506 219.1  15.4  34188  290.06 0854.38
2009/04/23 13:20:08.0    -297   -380    156    483    508 218.0  17.9  34188  290.06 0854.38
2009/04/23 13:20:08.1    -209   -326    208    388    440 212.6  30.5  34188  290.05 0854.38
2009/04/23 13:20:08.2    -182   -416    168    455    485 203.6  21.1  34186  290.00 0854.38
2009/04/23 13:20:08.3    -174   -416    133    452    472 202.7  16.4  34188  290.06 0854.38
2009/04/23 13:20:08.4    -146   -447     42    471    473 198.1   5.2  34188  290.05 0854.38
2009/04/23 13:20:08.5    -145   -399    170    425    457 200.0  23.0  34186  290.00 0854.38
2009/04/23 13:20:08.6    -112   -310    181    330    376 199.9  31.3  34192  290.11 0854.38
2009/04/23 13:20:08.7    -114   -262    156    287    326 203.6  30.8  34188  290.05 0854.38
2009/04/23 13:20:08.8     -48   -183    183    190    263 194.7  49.0  34192  290.10 0854.38
2009/04/23 13:20:08.9      21   -164    161    166    231 172.4  49.2  34186  290.02 0854.38
2009/04/23 13:20:09.0      40   -305    131    308    334 172.4  24.5  34184  289.98 0854.38
2009/04/23 13:20:09.1     -45   -129    149    137    202 199.2  52.5  34188  290.04 0854.38
2009/04/23 13:20:09.2     -94   -199    195    221    294 205.3  45.9  34192  290.10 0854.38
2009/04/23 13:20:09.3     -43   -256    152    260    301 189.6  33.4  34190  290.07 0854.38
2009/04/23 13:20:09.4     -23   -115    126    118    172 191.5  52.0  34194  290.16 0854.38
2009/04/23 13:20:09.5     -32   -234    172    237    292 187.8  39.5  34192  290.10 0854.38
2009/04/23 13:20:09.6     -81   -429    123    437    455 190.7  15.8  34190  290.07 0854.38
2009/04/23 13:20:09.7    -114   -458    101    473    484 194.0  12.1  34192  290.10 0854.38
2009/04/23 13:20:09.8     -87   -446    212    455    501 191.1  26.9  34188  290.05 0854.38
2009/04/23 13:20:09.9    -104   -387    199    401    447 195.1  28.2  34192  290.12 0854.38
2009/04/23 13:20:10.0     -48   -294    148    298    332 189.3  28.4  34192  290.10 0854.38
2009/04/23 13:20:10.1     -16   -266    213    267    341 183.5  42.9  34196  290.19 0854.38
2009/04/23 13:20:10.2     -37   -339    192    342    392 186.2  31.7  34192  290.11 0854.38
2009/04/23 13:20:10.3      69   -232    120    243    271 163.5  28.0  34190  290.09 0854.38
2009/04/23 13:20:10.4     -24   -291    184    293    345 184.9  35.3  34194  290.15 0854.38
2009/04/23 13:20:10.5     -98   -305    186    321    370 197.9  32.8  34192  290.13 0854.29
2009/04/23 13:20:10.6      23   -137    252    140    288 170.2  68.8  34202  290.29 0854.29
2009/04/23 13:20:10.7      23   -238    272    240    362 174.4  54.3  34198  290.22 0854.29
2009/04/23 13:20:10.8      62   -188    279    199    342 161.7  61.0  34190  290.07 0854.29
2009/04/23 13:20:10.9     -47   -215    230    221    318 192.5  51.2  34194  290.14 0854.29
2009/04/23 13:20:11.0      70    119     43    139    146  30.7  17.4  34188  290.06 0854.29
2009/04/23 13:20:11.1     -77    165      0    183    184 335.1   0.0  34204  290.33 0854.29
2009/04/23 13:20:11.2     101    101    135    144    197  45.1  48.0  34202  290.30 0854.29
2009/04/23 13:20:11.3     183    170     94    250    267  47.1  21.7  34200  290.24 0854.29
2009/04/23 13:20:11.4     146    127    164    194    254  48.9  44.5  34192  290.10 0854.29
2009/04/23 13:20:11.5      30    115    182    119    217  14.7  64.1  34210  290.41 0854.29
2009/04/23 13:20:11.6     -88    156     50    180    187 330.6  15.6  34212  290.45 0854.29
2009/04/23 13:20:11.7    -290    204    171    355    394 305.1  27.7  34208  290.40 0854.29
2009/04/23 13:20:11.8    -311    104    101    329    345 288.6  17.1  34218  290.57 0854.29
2009/04/23 13:20:11.9    -377     35     74    379    387 275.4  11.1  34206  290.35 0854.29
2009/04/23 13:20:12.0    -218     -9     73    219    232 267.6  18.6  34208  290.38 0854.29
2009/04/23 13:20:12.1    -107    -98     42    146    153 227.3  16.3  34194  290.16 0854.29
2009/04/23 13:20:12.2     -15    -93    -24     95     99 189.3 -14.5  34190  290.09 0854.29
2009/04/23 13:20:12.3    -148   -121     -7    192    193 230.9  -2.2  34192  290.13 0854.29
2009/04/23 13:20:12.4     -31    -31    -18     44     47 225.0 -27.4  34200  290.25 0854.29
2009/04/23 13:20:12.5      28    140    -10    143    144  11.6  -4.1  34194  290.14 0854.23
2009/04/23 13:20:12.6      20    240     16    241    242   4.9   3.8  34202  290.27 0854.23
2009/04/23 13:20:12.7     171     79     44    189    195  65.2  13.2  34200  290.25 0854.23
2009/04/23 13:20:12.8     285    135     51    316    321  64.6   9.2  34206  290.34 0854.23
2009/04/23 13:20:12.9     234    213     -6    317    318  47.7  -1.1  34198  290.22 0854.23
2009/04/23 13:20:13.0     172    183    -35    252    255  43.2  -8.0  34210  290.42 0854.23
2009/04/23 13:20:13.1     198    167     -5    260    261  49.8  -1.1  34202  290.27 0854.23
2009/04/23 13:20:13.2     424    268     13    502    503  57.7   1.5  34220  290.59 0854.23
2009/04/23 13:20:13.3     434    248      0    500    501  60.2   0.1  34222  290.62 0854.23
2009/04/23 13:20:13.4     365    210    116    422    438  60.1  15.4  34244  291.01 0854.23
2009/04/23 13:20:13.5     463    264    131    534    550  60.3  13.8  34222  290.63 0854.23
2009/04/23 13:20:13.6     499    258    201    562    596  62.6  20.4  34208  290.39 0854.23
2009/04/23 13:20:13.7     370    302    124    478    494  50.8  14.6  34204  290.32 0854.23
2009/04/23 13:20:13.8     470     99    273    481    553  78.1  32.3  34204  290.33 0854.23
2009/04/23 13:20:13.9     336      1    172    337    378  89.7  29.2  34194  290.16 0854.23
2009/04/23 13:20:14.0     386     82    163    395    427  77.9  23.7  34196  290.19 0854.23
2009/04/23 13:20:14.1     279     17    236    280    366  86.5  44.4  34202  290.28 0854.23
2009/04/23 13:20:14.2     324     47    231    328    401  81.7  38.6  34196  290.18 0854.23
2009/04/23 13:20:14.3     373    124    307    394    499  71.6  41.9  34198  290.22 0854.23
2009/04/23 13:20:14.4     474      4    194    475    513  89.4  23.5  34188  290.03 0854.23
2009/04/23 13:20:14.5     452    166    288    482    561  69.8  33.7  34190  290.07 0854.24
2009/04/23 13:20:14.6     303     92    241    317    398  73.1  41.1  34184  289.98 0854.24
2009/04/23 13:20:14.7     295    208    244    362    436  54.8  37.4  34194  290.14 0854.24
2009/04/23 13:20:14.8     234    159    203    284    349  55.8  39.2  34206  290.35 0854.24
2009/04/23 13:20:14.9     285    178    206    337    394  58.0  34.3  34230  290.77 0854.24
2009/04/23 13:20:15.0     153    113    230    191    298  53.6  56.3  34228  290.73 0854.24
2009/04/23 13:20:15.1     191    138    247    236    341  54.1  51.5  34260  291.26 0854.24
2009/04/23 13:20:15.2     166    137    225    216    311  50.5  51.2  34270  291.44 0854.24
2009/04/23 13:20:15.3     398    219    222    455    506  61.1  27.8  34272  291.46 0854.24
2009/04/23 13:20:15.4     510    123    227    525    571  76.4  25.0  34228  290.72 0854.24
2009/04/23 13:20:15.5     529    202    194    567    600  69.1  18.9  34252  291.15 0854.24
2009/04/23 13:20:15.6     435    204    258    481    545  64.9  30.5  34250  291.11 0854.24
2009/04/23 13:20:15.7     336    152    337    369    499  65.6  47.1  34272  291.46 0854.24
2009/04/23 13:20:15.8     371    155    294    403    498  67.3  39.7  34264  291.34 0854.24
2009/04/23 13:20:15.9     387    218    186    445    482  60.6  24.1  34218  290.54 0854.24
2009/04/23 13:20:16.0     411    229    144    471    493  60.8  17.1  34212  290.44 0854.24
2009/04/23 13:20:16.1     487    177    151    519    541  70.0  16.3  34216  290.52 0854.24
2009/04/23 13:20:16.2     412    279    180    498    530  55.9  19.9  34218  290.57 0854.24
2009/04/23 13:20:16.3     504    229    113    554    566  65.5  11.6  34206  290.35 0854.24
2009/04/23 13:20:16.4     564    259     97    621    629  65.3   8.9  34218  290.55 0854.24
2009/04/23 13:20:16.5     503    195    197    540    574  68.8  20.9  34274  291.50 0854.27
2009/04/23 13:20:16.6     575    242    219    624    662  67.2  19.4  34320  292.29 0854.27
2009/04/23 13:20:16.7     643    211     29    677    678  71.8   2.5  34226  290.68 0854.27
2009/04/23 13:20:16.8     547    276    168    613    636  63.2  15.4  34252  291.13 0854.27
2009/04/23 13:20:16.9     540    289    222    613    653  61.8  19.9  34262  291.30 0854.27
2009/04/23 13:20:17.0     519    202    146    557    576  68.7  14.7  34258  291.22 0854.27
2009/04/23 13:20:17.1     570    257    171    626    649  65.7  15.3  34230  290.76 0854.27
2009/04/23 13:20:17.2     561    339     85    656    662  58.8   7.4  34206  290.34 0854.27
2009/04/23 13:20:17.3     454    274    100    531    541  58.9  10.7  34212  290.46 0854.27
2009/04/23 13:20:17.4     429    241     67    493    498  60.7   7.8  34206  290.35 0854.27
2009/04/23 13:20:17.5     354    273    138    448    469  52.4  17.2  34224  290.65 0854.27
2009/04/23 13:20:17.6     356    325    137    483    503  47.6  15.9  34218  290.56 0854.27
2009/04/23 13:20:17.7     278    261    163    382    415  46.8  24.5  34224  290.65 0854.27
2009/04/23 13:20:17.8     275    264    117    382    400  46.2  17.1  34208  290.37 0854.27
2009/04/23 13:20:17.9     267    220    157    347    380  50.5  26.2  34240  290.93 0854.27
2009/04/23 13:20:18.0     203    141    279    248    373  55.1  54.0  34214  290.50 0854.27
2009/04/23 13:20:18.1     137    -48    204    146    250 109.5  61.1  34210  290.43 0854.27
2009/04/23 13:20:18.2     -53   -198    333    206    391 195.2  65.6  34220  290.59 0854.27
2009/04/23 13:20:18.3      18   -135    297    137    327 172.4  73.5  34220  290.58 0854.27
2009/04/23 13:20:18.4    -111   -295    214    316    381 200.7  37.4  34222  290.62 0854.27
2009/04/23 13:20:18.5     -90   -333    223    346    411 195.2  35.7  34228  290.72 0854.31
2009/04/23 13:20:18.6    -215   -316     33    383    385 214.3   5.0  34228  290.72 0854.31
2009/04/23 13:20:18.7    -262   -211     22    337    338 231.1   3.8  34232  290.81 0854.31
2009/04/23 13:20:18.8    -443   -294    -17    532    533 236.4  -1.9  34234  290.84 0854.31
2009/04/23 13:20:18.9    -471   -231    -79    525    531 243.9  -8.6  34240  290.94 0854.31
2009/04/23 13:20:19.0    -272   -310    -53    413    417 221.3  -7.4  34238  290.89 0854.31
2009/04/23 13:20:19.1    -369   -314   -120    485    500 229.6 -13.9  34202  290.30 0854.31
2009/04/23 13:20:19.2    -496   -220   -134    543    560 246.1 -13.9  34228  290.72 0854.31
2009/04/23 13:20:19.3    -465   -311   -131    560    576 236.2 -13.2  34202  290.27 0854.31
2009/04/23 13:20:19.4    -277   -434   -157    516    540 212.6 -17.0  34224  290.67 0854.31
2009/04/23 13:20:19.5     -85   -258     10    272    273 198.3   2.1  34218  290.56 0854.31
2009/04/23 13:20:19.6     -94   -174     47    199    205 208.5  13.5  34210  290.41 0854.31
2009/04/23 13:20:19.7    -356    -69    -62    363    369 259.0  -9.7  34204  290.33 0854.31
2009/04/23 13:20:19.8    -405   -124    -45    424    427 253.0  -6.1  34214  290.48 0854.31
2009/04/23 13:20:19.9    -410    -69   -123    416    433 260.4 -21.4  34216  290.53 0854.31
2009/04/23 13:20:20.0    -358    -31    -35    360    362 265.0  -5.6  34228  290.71 0854.31
2009/04/23 13:20:20.1    -356    -63     30    362    364 259.9   4.9  34224  290.67 0854.31
2009/04/23 13:20:20.2    -392     92     41    403    406 283.3   5.9  34216  290.53 0854.31
2009/04/23 13:20:20.3    -360    111    -54    377    381 287.2  -8.2  34204  290.33 0854.31
2009/04/23 13:20:20.4    -215     16   -173    216    276 274.3 -47.2  34218  290.56 0854.31
2009/04/23 13:20:20.5    -200    -96    -61    223    232 244.2 -15.4  34218  290.55 0854.34
2009/04/23 13:20:20.6     -87   -142    -46    167    174 211.4 -15.5  34214  290.48 0854.34
2009/04/23 13:20:20.7     -22   -111     65    114    131 191.5  32.4  34218  290.57 0854.34
2009/04/23 13:20:20.8    -127   -176    189    218    288 215.8  45.4  34196  290.19 0854.34
2009/04/23 13:20:20.9    -192    121    165    228    281 302.2  39.5  34202  290.29 0854.34
2009/04/23 13:20:21.0    -187    153    147    243    284 309.3  34.2  34212  290.46 0854.34
2009/04/23 13:20:21.1    -214     50    142    220    261 283.2  35.6  34214  290.49 0854.34
2009/04/23 13:20:21.2    -212     72     -4    224    225 288.8  -1.3  34208  290.38 0854.34
2009/04/23 13:20:21.3    -215    -30     -4    218    219 262.0  -1.3  34198  290.21 0854.34
2009/04/23 13:20:21.4    -161    -42    -59    167    178 255.4 -19.7  34200  290.25 0854.34
2009/04/23 13:20:21.5     -88    -13   -138     90    164 261.2 -68.5  34198  290.23 0854.34
2009/04/23 13:20:21.6      51   -144    -62    153    165 160.4 -27.4  34180  289.91 0854.34
2009/04/23 13:20:21.7     -58   -178    -23    188    190 198.0  -7.2  34182  289.96 0854.34
2009/04/23 13:20:21.8     -93   -187     23    209    211 206.5   6.5  34184  289.99 0854.34
2009/04/23 13:20:21.9      -9   -195    109    196    224 182.7  31.4  34186  290.02 0854.34
2009/04/23 13:20:22.0     -24   -232    139    234    272 186.0  33.5  34192  290.10 0854.34
2009/04/23 13:20:22.1      63   -237    173    246    300 165.1  38.6  34204  290.32 0854.34
2009/04/23 13:20:22.2      57   -356    123    361    382 170.9  18.8  34202  290.28 0854.34
2009/04/23 13:20:22.3     137   -288    147    320    352 154.5  26.4  34214  290.49 0854.34
2009/04/23 13:20:22.4     123   -307     53    332    337 158.1   9.2  34202  290.30 0854.34
2009/04/23 13:20:22.5      67   -406    -18    412    413 170.6  -2.6  34200  290.26 0854.36
2009/04/23 13:20:22.6     102   -397     80    411    419 165.5  11.1  34194  290.16 0854.36
2009/04/23 13:20:22.7     116   -462     23    477    478 165.8   2.8  34178  289.89 0854.36
2009/04/23 13:20:22.8     145   -488     80    510    517 163.4   9.0  34174  289.81 0854.36
2009/04/23 13:20:22.9      99   -368    230    382    445 164.9  33.8  34170  289.75 0854.36
2009/04/23 13:20:23.0     242   -330    137    410    433 143.8  18.5  34178  289.87 0854.36
2009/04/23 13:20:23.1     185   -355    162    401    432 152.5  23.1  34176  289.83 0854.36
2009/04/23 13:20:23.2     147   -265    214    304    371 151.0  38.8  34176  289.84 0854.36
2009/04/23 13:20:23.3     116   -152    186    192    267 142.8  49.0  34180  289.92 0854.36
2009/04/23 13:20:23.4     164    -67     65    178    189 112.2  20.7  34184  289.97 0854.36
2009/04/23 13:20:23.5      81     13    -26     83     86  80.3 -22.8  34186  290.02 0854.36
2009/04/23 13:20:23.6      84     53     35    100    107  57.6  19.4  34186  290.01 0854.36
2009/04/23 13:20:23.7      63     88     23    109    112  35.6  12.2  34188  290.04 0854.36
2009/04/23 13:20:23.8      35     81    -64     89    109  23.6 -43.9  34182  289.96 0854.36
2009/04/23 13:20:23.9      42     66    -83     79    114  32.6 -55.6  34190  290.08 0854.36
2009/04/23 13:20:24.0       0     60    -55     61     82 359.1 -51.9  34190  290.09 0854.36
2009/04/23 13:20:24.1      -8     30    -56     32     64 344.9 -72.1  34190  290.08 0854.36
2009/04/23 13:20:24.2       0     38    -55     39     67 359.1 -65.0  34192  290.11 0854.36
2009/04/23 13:20:24.3      -6     90    -54     91    105 356.0 -38.4  34190  290.08 0854.36
2009/04/23 13:20:24.4       3     38    -77     39     86   4.5 -75.2  34190  290.08 0854.37
2009/04/23 13:20:24.5      39     46    -20     61     65  40.5 -18.7  34188  290.06 0854.37
2009/04/23 13:20:24.6     114     67    -21    133    135  59.4  -9.3  34188  290.04 0854.37
2009/04/23 13:20:24.7     143    -56     23    154    156 111.7   8.8  34182  289.94 0854.37
2009/04/23 13:20:24.8      95    -84      6    128    129 131.4   2.8  34184  289.97 0854.37
2009/04/23 13:20:24.9      81   -125      8    150    151 147.0   3.3  34182  289.94 0854.37
2009/04/23 13:20:25.0     149      9      2    150    151  86.5   0.8  34180  289.92 0854.37
2009/04/23 13:20:25.1      83    -13     88     85    122  99.2  50.7  34184  289.99 0854.37
2009/04/23 13:20:25.2      70    -72    153    101    183 135.9  63.9  34182  289.96 0854.37
2009/04/23 13:20:25.3       3    -30    120     31    123 173.8  85.4  34186  290.01 0854.37
2009/04/23 13:20:25.4     -51    -88    106    102    147 210.3  51.2  34182  289.96 0854.37
2009/04/23 13:20:25.5    -175   -133     88    221    237 232.7  23.0  34176  289.85 0854.37
2009/04/23 13:20:25.6    -173    -86     -5    194    195 243.4  -1.6  34180  289.92 0854.37
2009/04/23 13:20:25.7    -175    -90    -67    197    209 242.7 -18.9  34180  289.91 0854.37
2009/04/23 13:20:25.8    -152   -114     34    190    194 233.1  10.1  34180  289.92 0854.37
2009/04/23 13:20:25.9    -135   -183     44    228    233 216.5  11.1  34176  289.84 0854.37
2009/04/23 13:20:26.0     -90   -189     72    210    223 205.4  18.9  34176  289.84 0854.37
2009/04/23 13:20:26.1       0   -227    107    228    251 179.8  27.1  34178  289.88 0854.37
2009/04/23 13:20:26.2     -15   -289     56    290    296 183.1  11.0  34178  289.88 0854.37
2009/04/23 13:20:26.3     -15   -276     97    277    294 183.1  19.4  34178  289.86 0854.37
2009/04/23 13:20:26.4     -79   -276    140    288    320 196.1  27.9  34180  289.90 0854.38
2009/04/23 13:20:26.5      18   -212     94    213    232 175.1  25.2  34178  289.87 0854.38
2009/04/23 13:20:26.6      -6   -192    122    193    228 181.8  35.5  34178  289.89 0854.38
2009/04/23 13:20:26.7     -59   -266    114    273    295 192.5  24.1  34180  289.92 0854.38
2009/04/23 13:20:26.8     -15   -254     56    255    262 183.5  12.4  34180  289.90 0854.38
2009/04/23 13:20:26.9      25   -245     93    247    263 174.0  21.7  34182  289.95 0854.38
2009/04/23 13:20:27.0     159   -159     70    226    237 135.0  17.3  34176  289.83 0854.38
2009/04/23 13:20:27.1     169   -152     11    228    229 132.0   2.9  34178  289.89 0854.38
2009/04/23 13:20:27.2      89   -132    -54    160    169 145.9 -18.7  34178  289.87 0854.38
2009/04/23 13:20:27.3       6   -149   -122    150    193 177.4 -48.1  34180  289.91 0854.38
2009/04/23 13:20:27.4     -79   -348    -15    357    358 192.9  -2.5  34178  289.87 0854.38
2009/04/23 13:20:27.5    -263   -229    -25    349    350 229.0  -4.2  34172  289.79 0854.38
2009/04/23 13:20:27.6    -255   -269    133    371    394 223.5  20.7  34174  289.81 0854.38
2009/04/23 13:20:27.7    -142   -278    152    313    347 207.0  27.7  34178  289.86 0854.38
2009/04/23 13:20:27.8    -276   -294     88    404    414 223.1  12.4  34174  289.80 0854.38
2009/04/23 13:20:27.9    -293   -199     67    355    362 235.8  10.7  34180  289.91 0854.38
2009/04/23 13:20:28.0    -334   -111    126    352    373 251.6  20.7  34180  289.91 0854.38
2009/04/23 13:20:28.1    -446   -148    166    470    499 251.6  19.5  34186  290.01 0854.38
2009/04/23 13:20:28.2    -419   -174    112    454    468 247.4  13.9  34180  289.90 0854.38
2009/04/23 13:20:28.3    -479   -205    -28    522    523 246.8  -3.1  34178  289.87 0854.38
2009/04/23 13:20:28.4    -412    -31   -131    414    434 265.7 -22.5  34194  290.14 0854.38
2009/04/23 13:20:28.5    -493    -82     25    500    501 260.5   2.9  34184  289.98 0854.38
2009/04/23 13:20:28.6    -241   -164    -36    292    295 235.8  -7.2  34182  289.95 0854.38
2009/04/23 13:20:28.7    -246   -162    -42    295    299 236.5  -8.2  34184  289.98 0854.38
2009/04/23 13:20:28.8    -400   -202   -125    449    466 243.2 -20.2  34188  290.04 0854.38
2009/04/23 13:20:28.9    -169   -144   -253    223    337 229.6 -58.4  34184  289.97 0854.38
2009/04/23 13:20:29.0     -73    -83   -217    111    243 221.4 -75.2  34186  290.02 0854.38
2009/04/23 13:20:29.1    -180    -34    -51    184    191 259.2 -15.5  34184  289.97 0854.38
2009/04/23 13:20:29.2    -118    -16      6    120    121 262.1   2.9  34192  290.13 0854.38
2009/04/23 13:20:29.3    -240   -116    -27    267    269 244.0  -6.0  34196  290.17 0854.38
2009/04/23 13:20:29.4    -344    -55   -104    349    364 260.8 -21.5  34198  290.21 0854.38
2009/04/23 13:20:29.5    -240    -33   -143    243    281 262.0 -37.8  34194  290.14 0854.38
2009/04/23 13:20:29.6    -102   -223   -196    246    314 204.5 -47.1  34188  290.03 0854.38
2009/04/23 13:20:29.7     -38   -325   -160    328    364 186.7 -32.2  34182  289.94 0854.38
2009/04/23 13:20:29.8     -49   -353   -173    357    396 188.0 -32.3  34178  289.89 0854.38
2009/04/23 13:20:29.9     132   -237   -189    272    331 150.8 -42.4  34180  289.92 0854.38
2009/04/23 13:20:30.0      44   -221     58    226    234 168.5  14.5  34180  289.92 0854.38
2009/04/23 13:20:30.1      56   -209    145    217    260 164.9  36.7  34188  290.03 0854.38
2009/04/23 13:20:30.2      78   -167    162    185    245 154.8  45.8  34188  290.04 0854.38
2009/04/23 13:20:30.3      14   -159    130    160    206 174.7  43.7  34182  289.96 0854.38
2009/04/23 13:20:30.4     123   -259    248    287    379 154.6  45.4  34180  289.91 0854.39
2009/04/23 13:20:30.5      84   -445    228    453    507 169.3  28.8  34178  289.88 0854.39
2009/04/23 13:20:30.6     -96   -402    165    414    445 193.4  23.0  34180  289.92 0854.39
2009/04/23 13:20:30.7    -212   -417     84    468    476 207.0  10.2  34182  289.93 0854.39
2009/04/23 13:20:30.8    -132   -397    106    419    433 198.4  14.3  34182  289.95 0854.39
2009/04/23 13:20:30.9    -263   -255     36    367    369 226.0   5.7  34182  289.93 0854.39
2009/04/23 13:20:31.0    -298   -385    142    487    508 217.8  16.3  34172  289.76 0854.39
2009/04/23 13:20:31.1    -373   -148    -67    402    408 248.3  -9.5  34144  289.31 0854.39
2009/04/23 13:20:31.2    -418   -149    -48    445    448 250.3  -6.2  34142  289.27 0854.39
2009/04/23 13:20:31.3    -390   -141    -16    415    416 250.1  -2.2  34156  289.49 0854.39
2009/04/23 13:20:31.4    -342   -164     73    380    388 244.3  11.0  34164  289.65 0854.40
2009/04/23 13:20:31.5    -452   -108      9    465    466 256.5   1.1  34166  289.67 0854.40
2009/04/23 13:20:31.6    -473   -107    -84    486    494 257.2  -9.9  34166  289.66 0854.40
2009/04/23 13:20:31.7    -474   -135    -63    493    498 254.1  -7.3  34176  289.83 0854.40
2009/04/23 13:20:31.8    -385    -42    -54    388    392 263.7  -8.0  34178  289.87 0854.40
2009/04/23 13:20:31.9    -389    -67     -1    395    396 260.1  -0.3  34172  289.76 0854.40
2009/04/23 13:20:32.0    -156   -147     60    215    224 226.7  15.8  34182  289.94 0854.40
2009/04/23 13:20:32.1    -185   -271     70    329    337 214.3  12.2  34178  289.87 0854.40
2009/04/23 13:20:32.2    -226   -273    141    355    381 219.7  23.0  34164  289.65 0854.40
2009/04/23 13:20:32.3    -157   -137     55    209    217 228.9  14.7  34178  289.89 0854.40
2009/04/23 13:20:32.4      40     13    189     43    193  72.3  87.7  34180  289.91 0854.40
2009/04/23 13:20:32.5    -135     86    140    161    213 302.6  45.8  34182  289.96 0854.40
2009/04/23 13:20:32.6    -142    117    135    184    228 309.5  39.7  34190  290.09 0854.40
2009/04/23 13:20:32.7      64    -85    223    107    247 142.6  72.8  34178  289.87 0854.40
2009/04/23 13:20:32.8      18   -128    209    130    246 172.0  65.1  34176  289.85 0854.40
2009/04/23 13:20:32.9    -121   -190    164    226    279 212.5  39.7  34170  289.73 0854.40
2009/04/23 13:20:33.0     -93   -102    217    139    257 222.3  64.6  34174  289.82 0854.40
2009/04/23 13:20:33.1    -173     32    187    176    256 280.6  52.1  34158  289.53 0854.40
2009/04/23 13:20:33.2    -262    151      4    303    304 300.0   0.8  34166  289.66 0854.40
2009/04/23 13:20:33.3    -254    153   -128    297    323 301.1 -29.2  34170  289.73 0854.40
2009/04/23 13:20:33.4    -307     74   -130    316    341 283.7 -28.1  34168  289.72 0854.41
2009/04/23 13:20:33.5    -427     -7   -152    428    455 269.0 -19.6  34170  289.75 0854.41
2009/04/23 13:20:33.7    -361    -51   -104    365    380 261.9 -15.9  34174  289.82 0854.41
2009/04/23 13:20:33.8    -392    -81   -140    401    425 258.3 -19.3  34174  289.80 0854.41
2009/04/23 13:20:33.9    -486   -114     -6    500    501 256.8  -0.7  34182  289.93 0854.41
2009/04/23 13:20:34.0    -370    -63    -24    376    377 260.3  -3.7  34182  289.93 0854.41
2009/04/23 13:20:34.1    -428    -82    -71    436    442 259.1  -9.3  34184  289.99 0854.41
2009/04/23 13:20:34.2    -461    -62   -138    466    487 262.3 -16.5  34182  289.96 0854.41
2009/04/23 13:20:34.3    -496     26   -152    497    519 273.0 -21.8  34178  289.86 0854.41
2009/04/23 13:20:34.4    -426     52   -228    430    486 277.0 -34.6  34178  289.86 0854.41
2009/04/23 13:20:34.5    -219    -69   -181    230    292 252.5 -46.6  34174  289.81 0854.41
2009/04/23 13:20:34.6     -48    -48   -131     69    148 225.1 -74.2  34172  289.79 0854.41
2009/04/23 13:20:34.7      34    -85   -151     92    176 158.2 -70.4  34178  289.87 0854.41
2009/04/23 13:20:34.8     186   -232   -131    298    325 141.3 -29.6  34174  289.80 0854.41
2009/04/23 13:20:34.9     224   -162    -71    277    287 125.9 -14.5  34176  289.85 0854.41
2009/04/23 13:20:35.0     250   -169    -38    303    306 124.1  -7.3  34170  289.75 0854.41
2009/04/23 13:20:35.1      17   -279    -10    280    281 176.4  -2.2  34170  289.73 0854.41
2009/04/23 13:20:35.2      99   -260    -69    279    288 159.1 -13.9  34170  289.75 0854.41
2009/04/23 13:20:35.3     156   -245     91    291    305 147.4  17.4  34164  289.63 0854.41
2009/04/23 13:20:35.4     100   -302     80    319    329 161.7  14.2  34170  289.73 0854.41
2009/04/23 13:20:35.5      62   -378     58    384    389 170.6   8.7  34168  289.72 0854.40
2009/04/23 13:20:35.6      62   -321    156    328    363 169.0  27.3  34166  289.67 0854.40
2009/04/23 13:20:35.7     109   -354    114    371    389 162.8  17.1  34168  289.72 0854.40
2009/04/23 13:20:35.8     231   -347     87    418    428 146.3  11.8  34172  289.78 0854.40
2009/04/23 13:20:35.9     300   -423     49    519    522 144.6   5.4  34168  289.72 0854.40
2009/04/23 13:20:36.0     223   -351   -121    417    435 147.5 -16.2  34176  289.85 0854.40
2009/04/23 13:20:36.1     195   -259    -65    325    332 143.0 -11.3  34176  289.84 0854.40
2009/04/23 13:20:36.2     251   -262   -126    364    386 136.2 -19.1  34174  289.82 0854.40
2009/04/23 13:20:36.3     271   -223   -105    352    368 129.5 -16.6  34172  289.77 0854.40
2009/04/23 13:20:36.4     303   -156    -25    342    343 117.3  -4.2  34172  289.79 0854.40
2009/04/23 13:20:36.5     289   -135    -69    320    328 115.1 -12.3  34176  289.85 0854.40
2009/04/23 13:20:36.6     225   -148    -81    270    283 123.5 -16.8  34174  289.81 0854.40
2009/04/23 13:20:36.7     187   -155    -60    243    251 129.6 -13.9  34168  289.71 0854.40
2009/04/23 13:20:36.8     177   -112     24    210    212 122.2   6.7  34170  289.75 0854.40
2009/04/23 13:20:36.9     141    -61     59    154    164 113.6  21.5  34170  289.75 0854.40
2009/04/23 13:20:37.0     127    -74     79    148    167 120.2  30.3  34174  289.80 0854.40
2009/04/23 13:20:37.1     203    -79    162    218    271 111.3  40.1  34174  289.80 0854.40
2009/04/23 13:20:37.2     131    -87    222    158    272 123.7  61.3  34176  289.85 0854.40
2009/04/23 13:20:37.3     246   -146    218    287    360 120.7  41.1  34172  289.76 0854.40
2009/04/23 13:20:37.4     277    -65    174    285    333 103.3  34.2  34166  289.68 0854.40
2009/04/23 13:20:37.5     188    -38    198    192    275 101.5  51.2  34170  289.73 0854.41
2009/04/23 13:20:37.6     256    -88    162    271    315 109.1  33.7  34172  289.76 0854.41
2009/04/23 13:20:37.7     244   -202    158    317    354 129.6  28.5  34172  289.79 0854.41
2009/04/23 13:20:37.8     153   -194    115    248    273 141.7  26.6  34168  289.71 0854.41
2009/04/23 13:20:37.9      75   -223    119    236    264 161.3  28.5  34170  289.73 0854.41
2009/04/23 13:20:38.0      83   -205    127    222    255 157.9  32.1  34166  289.66 0854.41
2009/04/23 13:20:38.1     142   -432    164    455    484 161.7  19.9  34170  289.73 0854.41
2009/04/23 13:20:38.2     172   -436    197    469    508 158.4  24.2  34166  289.67 0854.41
2009/04/23 13:20:38.3     142   -426    141    450    472 161.5  17.4  34166  289.66 0854.41
2009/04/23 13:20:38.4     210   -480     53    525    528 156.4   5.8  34168  289.70 0854.41
2009/04/23 13:20:38.5     160   -390     17    422    423 157.6   2.4  34168  289.70 0854.41
2009/04/23 13:20:38.6     112   -399    112    415    431 164.3  15.2  34168  289.72 0854.41
2009/04/23 13:20:38.7      47   -366    141    369    395 172.7  22.0  34168  289.72 0854.41
2009/04/23 13:20:38.8     114   -260    153    284    322 156.3  30.7  34168  289.71 0854.41
2009/04/23 13:20:38.9      87   -295    115    308    328 163.5  21.4  34168  289.71 0854.41
2009/04/23 13:20:39.0      51   -338    -54    342    347 171.4  -9.1  34166  289.67 0854.41
2009/04/23 13:20:39.1       1   -363    -26    364    365 179.8  -4.2  34174  289.81 0854.41
2009/04/23 13:20:39.2     106   -361    -20    377    378 163.6  -3.1  34172  289.76 0854.41
2009/04/23 13:20:39.3     235   -268     -3    357    358 138.7  -0.5  34166  289.69 0854.41
2009/04/23 13:20:39.4     164   -259    -56    307    313 147.7 -10.4  34174  289.81 0854.41
2009/04/23 13:20:39.5     179   -217    -10    282    283 140.4  -2.1  34174  289.80 0854.41
2009/04/23 13:20:39.6     147   -203     59    252    259 144.0  13.2  34176  289.85 0854.41
2009/04/23 13:20:39.7      24   -259     71    261    271 174.7  15.3  34176  289.83 0854.41
2009/04/23 13:20:39.8     100   -356      9    371    372 164.2   1.5  34178  289.86 0854.41
2009/04/23 13:20:39.9       4   -396     11    397    398 179.3   1.7  34178  289.87 0854.41
2009/04/23 13:20:40.0      72   -445    -22    451    452 170.8  -2.8  34180  289.90 0854.41
2009/04/23 13:20:40.1      66   -426     21    431    432 171.2   2.8  34180  289.90 0854.41
2009/04/23 13:20:40.2     179   -378    -28    419    420 154.7  -3.9  34178  289.88 0854.41
2009/04/23 13:20:40.3     229   -421     89    480    489 151.4  10.6  34172  289.79 0854.41
2009/04/23 13:20:40.4     283   -341    120    444    461 140.4  15.2  34174  289.82 0854.41
2009/04/23 13:20:40.5     174   -252    -47    307    311 145.3  -8.7  34174  289.81 0854.41
2009/04/23 13:20:40.6     251   -300    -12    392    393 140.1  -1.8  34180  289.91 0854.41
2009/04/23 13:20:40.7     157   -269    -65    312    319 149.7 -11.9  34182  289.95 0854.41
2009/04/23 13:20:40.8     186   -317    -14    368    369 149.5  -2.2  34178  289.89 0854.41
2009/04/23 13:20:40.9     162   -237     -3    288    289 145.7  -0.7  34178  289.88 0854.41
2009/04/23 13:20:41.0     134   -110    -42    174    180 129.5 -13.7  34182  289.94 0854.41
2009/04/23 13:20:41.1     149   -121    -25    193    195 129.1  -7.5  34180  289.91 0854.41
2009/04/23 13:20:41.2     154   -119     12    195    196 127.8   3.6  34180  289.91 0854.41
2009/04/23 13:20:41.3      76   -212     44    226    231 160.2  11.1  34178  289.89 0854.41
2009/04/23 13:20:41.4     -36   -192    104    196    221 190.7  30.6  34182  289.94 0854.41
2009/04/23 13:20:41.5     -23   -218     88    220    236 186.2  23.0  34178  289.89 0854.42
2009/04/23 13:20:41.6     -77   -193    117    209    239 201.8  31.6  34178  289.87 0854.42
2009/04/23 13:20:41.7      86   -131     81    157    176 146.6  29.3  34178  289.89 0854.42
2009/04/23 13:20:41.8     137   -166    121    216    247 140.4  31.6  34178  289.86 0854.42
2009/04/23 13:20:41.9     151   -247    -40    290    293 148.6  -8.0  34176  289.85 0854.42
2009/04/23 13:20:42.0      58   -215    -52    223    230 164.9 -13.3  34180  289.91 0854.42
2009/04/23 13:20:42.1      19   -260     -1    261    262 175.6  -0.3  34176  289.83 0854.42
2009/04/23 13:20:42.2      58   -369     -8    374    375 171.0  -1.3  34178  289.87 0854.42
2009/04/23 13:20:42.3      81   -432     53    440    444 169.3   6.9  34188  290.05 0854.42
2009/04/23 13:20:42.4     103   -470     85    482    490 167.6  10.1  34182  289.95 0854.42
2009/04/23 13:20:42.5     125   -416     67    435    441 163.2   8.8  34180  289.92 0854.42
2009/04/23 13:20:42.6       0   -325     49    326    330 180.1   8.7  34182  289.95 0854.42
2009/04/23 13:20:42.7      15   -276    100    277    295 176.9  19.9  34182  289.93 0854.42
2009/04/23 13:20:42.8      57   -239     73    246    257 166.6  16.6  34182  289.95 0854.42
2009/04/23 13:20:42.9      23   -197     36    199    203 173.1  10.3  34184  289.97 0854.42
2009/04/23 13:20:43.0      80   -109      5    136    137 143.9   2.3  34182  289.94 0854.42
2009/04/23 13:20:43.1      98    -99    151    140    205 135.5  52.5  34176  289.85 0854.42
2009/04/23 13:20:43.2     113    -30    125    118    171 105.0  51.6  34180  289.92 0854.42
2009/04/23 13:20:43.3     -26   -135    126    138    186 191.1  47.5  34184  289.97 0854.42
2009/04/23 13:20:43.4     -62   -103    -23    121    124 211.2 -10.9  34180  289.92 0854.42
2009/04/23 13:20:43.5      40    -33    -93     52    106 129.5 -73.2  34182  289.96 0854.42
2009/04/23 13:20:43.6       7     22    -70     24     74  18.3 -85.6  34180  289.92 0854.42
2009/04/23 13:20:43.7       8   -103    -31    104    108 175.1 -21.2  34178  289.87 0854.42
2009/04/23 13:20:43.8      87   -150     22    174    176 149.7   7.2  34178  289.87 0854.42
2009/04/23 13:20:43.9      88   -100     68    134    150 138.6  29.2  34178  289.87 0854.42
2009/04/23 13:20:44.0     119   -119     99    169    195 135.0  33.1  34178  289.89 0854.42
2009/04/23 13:20:44.1     117    -73     90    139    165 122.0  35.7  34176  289.85 0854.42
2009/04/23 13:20:44.2     155    -36    143    160    214 103.2  46.4  34172  289.79 0854.42
2009/04/23 13:20:44.3      -2   -131    146    132    196 181.0  53.3  34178  289.89 0854.42
2009/04/23 13:20:44.4     -67   -201    140    213    254 198.5  36.5  34176  289.83 0854.42
2009/04/23 13:20:44.5     -93   -197    102    218    240 205.3  27.0  34174  289.81 0854.42
2009/04/23 13:20:44.6     -60   -182    104    192    218 198.3  31.0  34176  289.84 0854.42
2009/04/23 13:20:44.7     -60   -127    105    141    175 205.5  40.4  34174  289.80 0854.42
2009/04/23 13:20:44.8     -73   -100    106    125    163 216.1  44.5  34172  289.79 0854.42
2009/04/23 13:20:44.9     -60    -59    111     85    139 225.6  58.5  34178  289.87 0854.42
2009/04/23 13:20:45.0     -60      8     50     61     78 277.9  43.7  34180  289.92 0854.42
2009/04/23 13:20:45.1     -18     90     67     92    113 348.5  39.7  34178  289.87 0854.42
2009/04/23 13:20:45.2     -32     79     83     86    119 337.7  49.4  34176  289.85 0854.42
2009/04/23 13:20:45.3    -138      4     77    139    158 271.7  31.6  34180  289.92 0854.42
2009/04/23 13:20:45.4    -160    -47     78    167    184 253.4  27.0  34178  289.89 0854.42
2009/04/23 13:20:45.5    -130     26     63    133    147 281.5  27.2  34180  289.91 0854.43
2009/04/23 13:20:45.6     -95     12     57     96    111 277.5  33.5  34180  289.91 0854.43
2009/04/23 13:20:45.7    -127     25     63    130    144 281.4  27.3  34178  289.89 0854.43
2009/04/23 13:20:45.8    -148     43     48    155    163 286.4  17.3  34184  289.97 0854.43
2009/04/23 13:20:45.9    -211     16     40    212    216 274.4  10.8  34188  290.04 0854.43
2009/04/23 13:20:46.0    -168    -96    -38    194    198 240.2 -11.3  34182  289.94 0854.43
2009/04/23 13:20:46.1     -93   -230     16    249    250 202.1   3.8  34178  289.88 0854.43
2009/04/23 13:20:46.2    -135   -124    -14    184    185 227.3  -4.4  34176  289.84 0854.43
2009/04/23 13:20:46.3     -74   -137     38    156    161 208.5  13.7  34186  290.01 0854.43
2009/04/23 13:20:46.4    -146    -15     28    147    150 263.9  11.1  34196  290.18 0854.43
2009/04/23 13:20:46.5    -139    -50     95    148    175 250.1  35.6  34194  290.16 0854.43
2009/04/23 13:20:46.6    -115    -68    152    134    202 239.3  54.0  34186  290.02 0854.43
2009/04/23 13:20:46.7      -6    -40    200     41    204 188.9  89.0  34186  290.01 0854.43
2009/04/23 13:20:46.8     -42   -141    247    148    287 196.5  66.7  34184  289.97 0854.43
2009/04/23 13:20:46.9     -85   -365    305    375    483 193.2  43.4  34174  289.80 0854.43
2009/04/23 13:20:47.0     -58   -379    346    384    516 188.8  46.8  34162  289.62 0854.43
2009/04/23 13:20:47.1     -48   -410    143    413    438 186.8  19.2  34178  289.88 0854.43
2009/04/23 13:20:47.2     -52   -375     45    379    382 187.9   6.8  34174  289.82 0854.43
2009/04/23 13:20:47.3      73   -305      2    314    315 166.4   0.4  34174  289.81 0854.43
2009/04/23 13:20:47.4      72   -218    -82    230    245 161.5 -19.6  34172  289.78 0854.43
2009/04/23 13:20:47.5     179   -173     30    250    252 134.0   6.9  34168  289.71 0854.43
2009/04/23 13:20:47.6     158    -63     75    171    186 112.0  25.3  34178  289.87 0854.43
2009/04/23 13:20:47.7      73    -63     18     97     99 130.9  10.6  34174  289.80 0854.43
2009/04/23 13:20:47.8      95   -183     84    207    223 152.6  23.0  34178  289.87 0854.43
2009/04/23 13:20:47.9     134   -274    128    306    331 153.9  23.9  34174  289.80 0854.43
2009/04/23 13:20:48.0    -139   -375    145    401    426 200.4  20.7  34170  289.75 0854.43
2009/04/23 13:20:48.1     -58   -412    270    417    496 188.0  35.9  34172  289.79 0854.43
2009/04/23 13:20:48.2      -7   -253    301    254    393 181.8  55.6  34178  289.87 0854.43
2009/04/23 13:20:48.3     -13   -464    290    465    548 181.6  34.9  34176  289.85 0854.43
2009/04/23 13:20:48.4     -92   -717    249    723    765 187.4  19.1  34168  289.70 0854.43
2009/04/23 13:20:48.5      69   -886    116    889    897 175.5   7.5  34174  289.81 0854.43
2009/04/23 13:20:48.6     183   -752    120    774    784 166.3   8.8  34180  289.90 0854.43
2009/04/23 13:20:48.7     300   -637    201    705    734 154.8  15.9  34172  289.78 0854.43
2009/04/23 13:20:48.8     525   -675    111    856    864 142.1   7.4  34180  289.90 0854.43
2009/04/23 13:20:48.9     443   -837     20    947    948 152.1   1.2  34166  289.69 0854.43
2009/04/23 13:20:49.0     400   -873    297    961   1006 155.4  17.2  34150  289.39 0854.43
2009/04/23 13:20:49.1     437   -885    264    988   1023 153.7  15.0  34164  289.63 0854.43
2009/04/23 13:20:49.2     497   -926     41   1051   1052 151.8   2.2  34168  289.72 0854.43
2009/04/23 13:20:49.3     185   -980    117    998   1005 169.3   6.7  34168  289.71 0854.43
2009/04/23 13:20:49.4     -82   -844    199    849    873 185.6  13.2  34166  289.66 0854.43
2009/04/23 13:20:49.5      23   -797    281    798    846 178.3  20.2  34162  289.62 0854.43
2009/04/23 13:20:49.6     -57   -905    194    907    928 183.6  12.1  34158  289.55 0854.43
2009/04/23 13:20:49.7    -224   -757    -53    790    792 196.5  -3.9  34166  289.66 0854.43
2009/04/23 13:20:49.8     -85   -730    -61    735    738 186.7  -4.8  34166  289.68 0854.43
2009/04/23 13:20:49.9      19   -684     -7    685    686 178.4  -0.6  34168  289.71 0854.43
2009/04/23 13:20:50.0      14   -755   -160    756    774 178.9 -12.0  34166  289.67 0854.43
2009/04/23 13:20:50.1     -13   -645    -84    646    652 181.2  -7.5  34166  289.67 0854.43
2009/04/23 13:20:50.2    -133   -655    -85    669    675 191.5  -7.3  34156  289.51 0854.43
2009/04/23 13:20:50.3    -172   -691   -207    713    743 194.0 -16.2  34162  289.61 0854.43
2009/04/23 13:20:50.4    -214   -701   -231    734    770 197.0 -17.5  34156  289.51 0854.43
2009/04/23 13:20:50.5    -367   -694   -287    786    836 207.9 -25.4  34164  289.64 0854.43
2009/04/23 13:20:50.6    -306   -857   -283    911    955 199.7 -17.3  34150  289.39 0854.43
2009/04/23 13:20:50.7    -517   -719   -364    886    957 215.7 -28.1  34156  289.51 0854.43
2009/04/23 13:20:50.8    -594   -706   -250    924    958 220.1 -15.2  34144  289.29 0854.43
2009/04/23 13:20:50.9   -1015   -581   -151   1170   1180 240.2  -7.4  34158  289.53 0854.43
2009/04/23 13:20:51.0    -775   -209    -31    803    804 254.9  -2.2  34134  289.13 0854.43
2009/04/23 13:20:51.1    -477   -587    171    757    777 219.1  12.8  34142  289.27 0854.43
2009/04/23 13:20:51.2    -350   -715    -23    797    798 206.1  -1.7  34154  289.46 0854.43
2009/04/23 13:20:51.3    -412   -449    -14    610    611 222.5  -1.4  34154  289.47 0854.43
2009/04/23 13:20:51.4    -283   -331   -131    436    456 220.5 -16.8  34152  289.44 0854.44
2009/04/23 13:20:51.5    -354   -639   -143    731    746 209.0 -11.1  34154  289.48 0854.44
2009/04/23 13:20:51.6    -434   -571   -113    718    728 217.2  -9.0  34154  289.47 0854.44
2009/04/23 13:20:51.7    -373   -497   -124    622    635 216.9 -11.3  34158  289.55 0854.44
2009/04/23 13:20:51.8    -247   -740    -98    781    788 198.5  -7.2  34146  289.32 0854.44
2009/04/23 13:20:51.9    -156   -742    -71    759    763 191.9  -5.4  34154  289.48 0854.44
2009/04/23 13:20:52.0    -201   -635   -148    667    684 197.6 -12.5  34156  289.51 0854.44
2009/04/23 13:20:52.1    -367   -649    -89    746    752 209.5  -6.9  34158  289.55 0854.44
2009/04/23 13:20:52.2    -524   -616   -116    809    818 220.4  -8.2  34152  289.42 0854.44
2009/04/23 13:20:52.3    -560   -628    -10    842    843 221.7  -0.7  34156  289.51 0854.44
2009/04/23 13:20:52.4    -396   -742      3    842    843 208.1   0.2  34156  289.51 0854.47
2009/04/23 13:20:52.5    -296   -582     52    654    657 207.0   4.6  34158  289.53 0854.47
2009/04/23 13:20:52.6    -416   -427   -167    597    621 224.2 -15.7  34156  289.52 0854.47
2009/04/23 13:20:52.7    -512   -285    -63    587    591 240.9  -6.2  34164  289.63 0854.47
2009/04/23 13:20:52.8    -286   -207   -189    354    401 234.1 -34.7  34156  289.50 0854.47
2009/04/23 13:20:52.9    -303   -177   -114    352    370 239.7 -23.3  34152  289.43 0854.47
2009/04/23 13:20:53.0    -186   -396   -154    438    465 205.2 -19.4  34160  289.58 0854.47
2009/04/23 13:20:53.1    -617   -589   -289    854    902 226.3 -18.7  34156  289.49 0854.47
2009/04/23 13:20:53.2    -527   -579   -223    784    816 222.3 -15.9  34154  289.48 0854.47
2009/04/23 13:20:53.3    -572   -601   -282    831    878 223.6 -18.8  34154  289.46 0854.47
2009/04/23 13:20:53.4    -536   -547   -261    766    809 224.4 -23.9  34152  289.42 0854.47
2009/04/23 13:20:53.5    -537   -433   -248    691    735 231.1 -19.8  34156  289.49 0854.47
2009/04/23 13:20:53.6    -422   -421   -167    597    619 225.1 -20.2  34148  289.36 0854.47
2009/04/23 13:20:53.7    -236   -415    -94    478    488 209.7 -11.2  34152  289.44 0854.47
2009/04/23 13:20:53.8    -421   -347    -71    546    551 230.5  -7.5  34154  289.48 0854.47
2009/04/23 13:20:53.9    -484   -401   -206    629    661 230.4 -23.3  34148  289.37 0854.47
2009/04/23 13:20:54.0    -657   -334   -203    738    766 243.0 -15.4  34158  289.53 0854.47
2009/04/23 13:20:54.1    -617   -301   -223    687    723 244.0 -18.0  34158  289.54 0854.47
2009/04/23 13:20:54.2    -641   -264   -197    694    721 247.6 -20.5  34156  289.50 0854.47
2009/04/23 13:20:54.3    -637   -298   -219    704    737 244.9 -22.3  34158  289.55 0854.47
2009/04/23 13:20:54.4    -689   -279   -239    744    781 247.9 -22.9  34160  289.58 0854.50
2009/04/23 13:20:54.5    -437   -434   -162    616    637 225.2 -14.8  34146  289.33 0854.50
2009/04/23 13:20:54.6    -250   -570   -142    623    640 203.7 -12.9  34160  289.57 0854.50
2009/04/23 13:20:54.7    -431   -738   -180    855    874 210.3 -11.9  34158  289.54 0854.50
2009/04/23 13:20:54.8    -242   -476   -216    535    576 207.0 -27.5  34154  289.46 0854.50
2009/04/23 13:20:54.9    -478   -420   -216    637    672 228.7 -23.8  34158  289.54 0854.50
2009/04/23 13:20:55.0    -368   -541   -186    655    682 214.3 -15.9  34146  289.34 0854.50
2009/04/23 13:20:55.1    -482   -588   -213    761    791 219.3 -15.7  34156  289.51 0854.50
2009/04/23 13:20:55.2    -586   -796   -233    989   1017 216.4 -13.3  34162  289.59 0854.50
2009/04/23 13:20:55.3    -556   -685   -256    883    919 219.1 -20.9  34152  289.45 0854.50
2009/04/23 13:20:55.4    -553   -636   -246    844    879 221.0 -21.0  34158  289.54 0854.50
2009/04/23 13:20:55.5    -629   -580   -252    856    893 227.3 -16.4  34136  289.16 0854.50
2009/04/23 13:20:55.6     136   -590   -175    606    630 167.0 -20.9  34144  289.31 0854.50
2009/04/23 13:20:55.7     291   -636   -255    700    745 155.4 -25.4  34162  289.62 0854.50
2009/04/23 13:20:55.8      17   -573   -225    574    616 178.2 -27.1  34162  289.59 0854.50
2009/04/23 13:20:55.9    -129   -387    -89    409    419 198.5 -12.4  34150  289.41 0854.50
2009/04/23 13:20:56.0     191   -551    -42    584    586 160.8  -4.1  34164  289.63 0854.50
2009/04/23 13:20:56.1       4   -401   -207    402    452 179.4 -33.7  34158  289.55 0854.50
2009/04/23 13:20:56.2    -145   -388   -201    415    461 200.6 -32.1  34164  289.63 0854.50
2009/04/23 13:20:56.3    -387   -445   -316    591    670 221.0 -34.9  34162  289.60 0854.50
2009/04/23 13:20:56.4    -246   -431   -282    497    571 209.7 -36.5  34156  289.51 0854.50
2009/04/23 13:20:56.5     -69   -528    419    533    677 187.5  42.1  34160  289.57 0854.50
2009/04/23 13:20:56.6     -90   -446    266    455    527 191.5  33.0  34162  289.59 0854.50
2009/04/23 13:20:56.7    -160   -433    312    462    557 200.3  37.3  34170  289.75 0854.50
2009/04/23 13:20:56.8    -263   -361    164    447    476 216.1  21.0  34172  289.76 0854.50
2009/04/23 13:20:56.9    -205   -457    174    501    530 204.2  20.0  34164  289.65 0854.50
2009/04/23 13:20:57.0     -25   -227    127    229    261 186.5  31.4  34150  289.39 0854.50
2009/04/23 13:20:57.1      -3   -167     -9    168    169 181.1  -3.1  34164  289.63 0854.50
2009/04/23 13:20:57.2    -105   -256     49    277    282 202.3  10.1  34162  289.59 0854.50
2009/04/23 13:20:57.3    -188   -268    -14    328    329 215.1  -2.5  34162  289.61 0854.50
2009/04/23 13:20:57.4    -190   -308    -64    363    369 211.7 -10.1  34156  289.52 0854.50
2009/04/23 13:20:57.5     -89   -510    -42    518    520 190.0  -4.7  34164  289.63 0854.50
2009/04/23 13:20:57.6    -202   -590    -73    624    629 198.9  -6.7  34166  289.69 0854.50
2009/04/23 13:20:57.7    -219   -412    -75    467    474 208.0  -9.1  34166  289.66 0854.50
2009/04/23 13:20:57.8     -87   -391    -42    401    404 192.7  -6.1  34162  289.60 0854.50
2009/04/23 13:20:57.9    -115   -244    -55    270    276 205.3 -11.6  34152  289.44 0854.50
2009/04/23 13:20:58.0    -148    -37     73    153    169 255.8  27.3  34162  289.60 0854.50
2009/04/23 13:20:58.1    -204   -101    -67    228    237 243.6 -21.0  34164  289.64 0854.50
2009/04/23 13:20:58.2    -326   -101   -131    342    366 252.8 -26.4  34166  289.69 0854.50
2009/04/23 13:20:58.3      22   -190    221    192    292 173.1  54.3  34172  289.76 0854.50
2009/04/23 13:20:58.4      46   -155      0    162    163 163.5   0.0  34160  289.57 0854.50
2009/04/23 13:20:58.5     221     74    -89    234    250  71.4 -26.1  34166  289.68 0854.50
2009/04/23 13:20:58.6       2    183    -59    184    193   0.9 -23.3  34164  289.63 0854.50
2009/04/23 13:20:58.7     105    225    -54    249    255  24.9 -12.4  34164  289.64 0854.50
2009/04/23 13:20:58.8     177    105     71    206    219  59.3  19.2  34166  289.69 0854.50
2009/04/23 13:20:58.9     172    -23     47    174    181  97.7  15.3  34166  289.67 0854.50
2009/04/23 13:20:59.0     178    -92     31    201    204 117.3   9.0  34164  289.65 0854.50
2009/04/23 13:20:59.1     115   -262   -104    287    305 156.3 -25.3  34168  289.70 0854.50
2009/04/23 13:20:59.2     249   -248    -18    352    353 134.9  -3.0  34162  289.62 0854.50
2009/04/23 13:20:59.3     277   -262     25    382    383 133.5   3.8  34170  289.74 0854.50
2009/04/23 13:20:59.4     403   -195     46    448    451 115.9   5.9  34168  289.72 0854.50
2009/04/23 13:20:59.5     342   -188    140    391    415 118.8  20.4  34168  289.72 0854.50
2009/04/23 13:20:59.6     287   -244     40    377    380 130.4   6.1  34168  289.71 0854.50
2009/04/23 13:20:59.7     232   -204     75    310    319 131.3  13.7  34162  289.61 0854.50
2009/04/23 13:20:59.8     168   -299    -13    344    345 150.6  -2.2  34164  289.64 0854.50
2009/04/23 13:20:59.9      -5   -324      8    325    326 180.9   1.5  34156  289.49 0854.50
2009/04/23 13:21:00.0    -199   -307    -35    367    369 213.0  -5.6  34168  289.71 0854.50
2009/04/23 13:21:00.1    -185   -262    -23    321    322 215.2  -4.2  34164  289.63 0854.50
2009/04/23 13:21:00.2    -158   -139   -155    211    261 228.7 -44.1  34166  289.66 0854.50
2009/04/23 13:21:00.3    -206   -206    -31    292    294 224.9  -6.2  34166  289.66 0854.50
2009/04/23 13:21:00.4       1   -441     37    442    444 179.8   4.9  34166  289.68 0854.51
2009/04/23 13:21:00.5     -41   -546    -12    548    549 184.4  -1.3  34154  289.46 0854.51
2009/04/23 13:21:00.6     105   -478    120    490    505 167.6  13.8  34164  289.64 0854.51
2009/04/23 13:21:00.7     160   -389     24    421    422 157.5   3.3  34168  289.70 0854.51
2009/04/23 13:21:00.8     -18   -287     89    288    302 183.6  17.3  34164  289.64 0854.51
2009/04/23 13:21:00.9    -171   -306     19    351    352 209.2   3.2  34168  289.71 0854.51
2009/04/23 13:21:01.0    -270   -289   -107    396    411 223.1 -15.2  34168  289.70 0854.51
2009/04/23 13:21:01.1    -386   -391    -90    550    558 224.6  -9.3  34168  289.70 0854.51
2009/04/23 13:21:01.2    -364   -485   -123    607    620 216.9 -11.5  34162  289.62 0854.51
2009/04/23 13:21:01.3    -449   -357    -41    574    576 231.5  -4.1  34166  289.68 0854.51
2009/04/23 13:21:01.5    -302   -361    107    471    484 219.9  12.8  34156  289.52 0854.51
2009/04/23 13:21:01.6    -225   -222     74    317    326 225.3  13.3  34160  289.58 0854.51
2009/04/23 13:21:01.7    -231   -169     61    287    294 233.8  12.0  34166  289.68 0854.51
2009/04/23 13:21:01.8    -331   -189     -7    382    383 240.3  -1.2  34168  289.72 0854.51
2009/04/23 13:21:01.9    -179   -245     50    304    309 216.1   9.3  34162  289.59 0854.51
2009/04/23 13:21:02.0     -69   -259     14    269    270 195.1   3.1  34168  289.70 0854.51
2009/04/23 13:21:02.1     -65   -453    194    458    497 188.3  24.2  34166  289.67 0854.51
2009/04/23 13:21:02.2    -139   -427    175    450    482 198.1  22.4  34170  289.74 0854.51
2009/04/23 13:21:02.3    -234   -436     77    495    502 208.2   8.9  34168  289.71 0854.51
2009/04/23 13:21:02.4    -107   -286     89    306    319 200.5  16.3  34158  289.54 0854.51
2009/04/23 13:21:02.5    -106   -174    174    205    268 211.4  44.5  34170  289.73 0854.45
2009/04/23 13:21:02.6    -234   -243    228    338    407 223.9  37.2  34174  289.82 0854.45
2009/04/23 13:21:02.7    -238   -253    123    348    370 223.3  19.5  34166  289.69 0854.45
2009/04/23 13:21:02.8      75   -398    187    406    446 169.3  26.5  34162  289.61 0854.45
2009/04/23 13:21:02.9    -121   -329    187    351    397 200.2  30.3  34166  289.69 0854.45
2009/04/23 13:21:03.0     -58   -267    127    274    302 192.3  26.6  34166  289.68 0854.45
2009/04/23 13:21:03.1    -204   -169    121    265    291 230.4  26.2  34166  289.66 0854.45
2009/04/23 13:21:03.2    -215   -157     76    267    278 233.8  16.0  34166  289.68 0854.45
2009/04/23 13:21:03.3    -326   -236     90    403    414 234.1  12.6  34164  289.65 0854.45
2009/04/23 13:21:03.4    -440   -378     49    581    584 229.4   4.9  34174  289.81 0854.45
2009/04/23 13:21:03.5    -467   -355     70    587    592 232.8   6.9  34166  289.68 0854.45
2009/04/23 13:21:03.6    -504   -365     78    623    628 234.1   7.2  34172  289.76 0854.45
2009/04/23 13:21:03.7    -421   -430    256    602    654 224.4  24.5  34170  289.74 0854.45
2009/04/23 13:21:03.8    -266   -572    249    631    678 204.9  22.8  34170  289.75 0854.45
2009/04/23 13:21:03.9    -196   -438    145    480    502 204.1  16.8  34170  289.73 0854.45
2009/04/23 13:21:04.0    -211   -539    152    580    600 201.4  14.7  34172  289.76 0854.45
2009/04/23 13:21:04.1    -110   -518    155    530    553 192.1  16.3  34172  289.77 0854.45
2009/04/23 13:21:04.2     -51   -410     88    414    424 187.2  12.1  34170  289.73 0854.45
2009/04/23 13:21:04.3    -108   -348   -131    365    387 197.3 -25.0  34166  289.69 0854.45
2009/04/23 13:21:04.4    -374   -368    -47    525    528 225.5  -5.2  34172  289.77 0854.45
2009/04/23 13:21:04.5     -42   -390    134    393    416 186.2  18.9  34176  289.83 0854.42
2009/04/23 13:21:04.6      -8   -256    126    257    286 181.8  27.8  34172  289.76 0854.42
2009/04/23 13:21:04.7    -152   -364     57    395    400 202.7   8.3  34170  289.74 0854.42
2009/04/23 13:21:04.8    -163    -93   -195    188    270 240.2 -55.6  34158  289.54 0854.42
2009/04/23 13:21:04.9     248   -104     41    270    274 112.8   8.8  34154  289.46 0854.42
2009/04/23 13:21:05.0     120   -180     79    217    230 146.4  20.7  34166  289.67 0854.42
2009/04/23 13:21:05.1      98   -223    225    244    331 156.3  47.7  34166  289.68 0854.42
2009/04/23 13:21:05.2      77   -233    195    246    313 161.5  42.4  34174  289.81 0854.42
2009/04/23 13:21:05.3     -13   -176    120    177    213 184.5  37.3  34170  289.75 0854.42
2009/04/23 13:21:05.4      86    -80    139    118    182 133.1  55.4  34174  289.80 0854.42
2009/04/23 13:21:05.5       2   -147    219    148    264 179.1  62.8  34174  289.80 0854.42
2009/04/23 13:21:05.6     150    -98    223    180    286 123.1  56.9  34176  289.83 0854.42
2009/04/23 13:21:05.7     103    -10    222    104    245  95.7  73.1  34170  289.75 0854.42
2009/04/23 13:21:05.8     -27     -2    173     28    175 265.6  90.0  34178  289.89 0854.42
2009/04/23 13:21:05.9      50   -100    170    113    204 153.3  63.4  34178  289.87 0854.42
2009/04/23 13:21:06.0     139   -151    222    206    302 137.5  52.2  34168  289.71 0854.42
2009/04/23 13:21:06.1     240   -310    197    393    439 142.3  28.6  34168  289.70 0854.42
2009/04/23 13:21:06.2     225   -354    160    420    449 147.5  22.0  34156  289.51 0854.42
2009/04/23 13:21:06.3     486   -314    126    579    593 122.9  12.3  34162  289.59 0854.42
2009/04/23 13:21:06.4     182   -299    218    351    413 148.6  34.9  34162  289.59 0854.42
2009/04/23 13:21:06.5      52   -198    290    205    355 165.1  61.4  34162  289.61 0854.41
2009/04/23 13:21:06.6      -3   -340    143    341    369 180.6  24.2  34162  289.60 0854.41
2009/04/23 13:21:06.7     -23   -226     29    228    230 186.0   7.5  34156  289.52 0854.41
2009/04/23 13:21:06.8     134    -63    -43    149    155 115.4 -21.7  34168  289.70 0854.41
2009/04/23 13:21:06.9     208    -85    -82    225    239 112.4 -25.3  34168  289.70 0854.41
2009/04/23 13:21:07.0     291    -40   -128    294    320  98.0 -29.4  34168  289.70 0854.41
2009/04/23 13:21:07.1     173      5    -57    174    184  88.3 -18.3  34166  289.69 0854.41
2009/04/23 13:21:07.2      40    -48     38     63     73 140.4  34.4  34170  289.75 0854.41
2009/04/23 13:21:07.3      -6   -131    209    132    247 182.7  64.7  34160  289.58 0854.41
2009/04/23 13:21:07.4     229   -179    256    291    387 128.0  45.8  34162  289.62 0854.41
2009/04/23 13:21:07.5     237   -179    278    298    407 127.1  47.9  34164  289.64 0854.41
2009/04/23 13:21:07.6     147   -298    304    333    450 153.8  47.1  34168  289.70 0854.41
2009/04/23 13:21:07.7     -63   -331     48    337    341 190.8   8.2  34168  289.71 0854.41
2009/04/23 13:21:07.8     -92   -286    -16    301    302 197.9  -3.1  34164  289.63 0854.41
2009/04/23 13:21:07.9     -68   -133    -41    150    156 207.2 -15.5  34164  289.65 0854.41
2009/04/23 13:21:08.0      36   -227    144    230    271 170.9  35.5  34166  289.66 0854.41
2009/04/23 13:21:08.1     185   -260     63    320    327 144.6  11.1  34168  289.70 0854.41
2009/04/23 13:21:08.2     324   -425     41    535    537 142.7   4.4  34164  289.63 0854.41
2009/04/23 13:21:08.3     425   -311    -17    527    528 126.2  -1.9  34156  289.51 0854.41
2009/04/23 13:21:08.4     382   -249     71    457    463 123.1   8.9  34164  289.63 0854.41
2009/04/23 13:21:08.5     300   -313    180    434    469 136.2  23.9  34166  289.66 0854.42
2009/04/23 13:21:08.6     271   -325    195    424    466 140.2  26.5  34164  289.63 0854.42
2009/04/23 13:21:08.7     287   -157    242    328    407 118.8  40.1  34162  289.60 0854.42
2009/04/23 13:21:08.8     120    -10    209    121    241  95.2  67.2  34162  289.60 0854.42
2009/04/23 13:21:08.9      36   -136    197    141    242 164.8  61.1  34172  289.77 0854.42
2009/04/23 13:21:09.0      93   -312    174    326    369 163.3  30.5  34168  289.71 0854.42
2009/04/23 13:21:09.1     149   -227    204    272    340 146.6  40.6  34164  289.64 0854.42
2009/04/23 13:21:09.2     198   -286    163    349    385 145.3  27.1  34164  289.65 0854.42
2009/04/23 13:21:09.3     145   -119    220    188    289 129.5  55.4  34164  289.63 0854.42
2009/04/23 13:21:09.4      -6    -70    212     71    223 185.3  81.0  34168  289.70 0854.42
2009/04/23 13:21:09.5       5     12    194     14    194  21.8  90.0  34170  289.74 0854.42
2009/04/23 13:21:09.6     143     -3    192    144    240  91.3  59.4  34166  289.69 0854.42
2009/04/23 13:21:09.7      71     14    233     73    244  78.6  81.8  34172  289.79 0854.42
2009/04/23 13:21:09.8     -33     36    204     50    210 317.7  86.7  34178  289.87 0854.42
2009/04/23 13:21:09.9     144    -79    282    165    326 118.8  67.1  34172  289.76 0854.42
2009/04/23 13:21:10.0     344    -41    249    347    427  96.8  39.3  34166  289.68 0854.42
2009/04/23 13:21:10.1     209   -142    205    253    325 124.2  43.4  34168  289.71 0854.42
2009/04/23 13:21:10.2     132   -222    248    259    358 149.3  48.7  34162  289.59 0854.42
2009/04/23 13:21:10.3     264   -213    234    340    412 128.9  37.9  34166  289.67 0854.42
2009/04/23 13:21:10.4      96   -346    294    360    464 164.5  43.7  34164  289.63 0854.42
2009/04/23 13:21:10.5     164   -335    272    374    462 153.9  39.7  34164  289.65 0854.43
2009/04/23 13:21:10.6     109   -329    294    347    454 161.6  44.7  34162  289.60 0854.43
2009/04/23 13:21:10.7     111   -333    284    352    452 161.5  43.1  34166  289.66 0854.43
2009/04/23 13:21:10.8      51   -163    243    171    297 162.6  61.5  34162  289.59 0854.43
2009/04/23 13:21:10.9      11   -238    283    239    370 177.3  55.7  34162  289.60 0854.43
2009/04/23 13:21:11.0     -57   -242    332    249    415 193.4  59.6  34166  289.69 0854.43
2009/04/23 13:21:11.1      24     52    240     58    246  24.5  86.7  34174  289.80 0854.43
2009/04/23 13:21:11.2      18    -68    222     71    233 164.9  81.2  34170  289.74 0854.43
2009/04/23 13:21:11.3     -72     31    218     79    231 293.5  79.5  34168  289.70 0854.43
2009/04/23 13:21:11.4     384   -167    272    419    499 113.5  35.9  34166  289.69 0854.43
2009/04/23 13:21:11.5     396   -246    151    467    491 121.8  17.9  34166  289.67 0854.43
2009/04/23 13:21:11.6     -16   -354    358    355    504 182.7  50.2  34146  289.34 0854.43
2009/04/23 13:21:11.7      50    -57    243     77    254 138.6  81.8  34166  289.67 0854.43
2009/04/23 13:21:11.8     -44   -349    -62    352    358 187.2 -10.1  34166  289.67 0854.43
2009/04/23 13:21:11.9      20   -199    -72    201    214 174.0 -19.7  34160  289.57 0854.43
2009/04/23 13:21:12.0      67   -141     57    157    167 154.5  20.7  34164  289.63 0854.43
2009/04/23 13:21:12.1      70   -130     17    148    150 151.5   6.9  34168  289.70 0854.43
2009/04/23 13:21:12.2      78    -56    -55     97    111 125.5 -36.3  34168  289.70 0854.43
2009/04/23 13:21:12.3     -38     31    -74     50     89 309.5 -67.6  34168  289.70 0854.43
2009/04/23 13:21:12.4     -29     32    -48     44     65 317.7 -56.6  34168  289.70 0854.43
2009/04/23 13:21:12.5     -19     58    -19     62     66 341.3 -17.6  34168  289.70 0854.43
2009/04/23 13:21:12.6      53     53    -81     76    111  45.0 -56.5  34170  289.75 0854.43
2009/04/23 13:21:12.7     -62     -8   -102     63    119 262.0 -70.1  34172  289.77 0854.43
2009/04/23 13:21:12.8     -49     31    -96     59    112 302.4 -69.5  34172  289.79 0854.43
2009/04/23 13:21:12.9    -102    129    -23    165    167 321.5  -8.0  34170  289.75 0854.43
2009/04/23 13:21:13.0     -18     49    -49     53     72 340.0 -52.3  34166  289.69 0854.43
2009/04/23 13:21:13.1     -16     -7    -44     18     47 244.7 -81.5  34172  289.77 0854.43
2009/04/23 13:21:13.2     -28    -75     -3     81     82 200.5  -2.2  34164  289.65 0854.43
2009/04/23 13:21:13.3      23   -121     43    124    132 168.9  19.4  34166  289.67 0854.43
2009/04/23 13:21:13.4      33   -122     89    127    155 164.9  38.6  34170  289.75 0854.43
2009/04/23 13:21:13.5      17     26     95     32    100  32.6  81.0  34170  289.75 0854.42
2009/04/23 13:21:13.6      14     46    -26     49     55  17.8 -34.7  34172  289.77 0854.42
2009/04/23 13:21:13.7      28      9   -107     30    111  71.8 -89.2  34170  289.74 0854.42
2009/04/23 13:21:13.8      81    158   -109    178    208  27.2 -38.8  34170  289.75 0854.42
2009/04/23 13:21:13.9      34    124   -108    129    168  15.6 -48.7  34172  289.77 0854.42
2009/04/23 13:21:14.0      56     87    -69    104    124  32.6 -40.9  34170  289.75 0854.42
2009/04/23 13:21:14.1     -13     99    -81    100    128 352.4 -48.1  34172  289.79 0854.42
2009/04/23 13:21:14.2      33     46    -28     57     63  36.1 -31.7  34176  289.85 0854.42
2009/04/23 13:21:14.3      37   -180     -7    184    185 168.2  -2.2  34164  289.65 0854.42
2009/04/23 13:21:14.4       2   -153     25    154    157 179.0   9.3  34168  289.72 0854.42
2009/04/23 13:21:14.5      12   -122     23    123    126 174.2  10.6  34170  289.74 0854.42
2009/04/23 13:21:14.6     -15    -31     48     35     59 207.2  60.5  34164  289.65 0854.42
2009/04/23 13:21:14.7      74   -107    -41    131    137 145.3 -22.3  34170  289.74 0854.42
2009/04/23 13:21:14.8     181   -101    -57    208    216 119.1 -15.4  34170  289.74 0854.42
2009/04/23 13:21:14.9     139    -46    -13    147    148 108.6  -5.2  34168  289.70 0854.42
2009/04/23 13:21:15.0     128    -21     60    130    143  99.6  26.6  34172  289.79 0854.42
2009/04/23 13:21:15.1     122      5     42    123    131  87.5  18.9  34170  289.75 0854.42
2009/04/23 13:21:15.2     161    141    -16    215    216  48.9  -4.4  34174  289.80 0854.42
2009/04/23 13:21:15.3     170    150    -22    228    230  48.6  -5.6  34170  289.75 0854.42
2009/04/23 13:21:15.4     188    118     69    223    234  57.8  17.3  34172  289.79 0854.42
2009/04/23 13:21:15.5     300    104    104    318    335  70.8  18.2  34178  289.86 0854.42
2009/04/23 13:21:15.6     271    114    156    295    333  67.2  30.1  34172  289.78 0854.42
2009/04/23 13:21:15.7     292      0    219    293    365  90.0  40.6  34166  289.67 0854.42
2009/04/23 13:21:15.8     219     64    113    229    255  73.6  28.2  34172  289.76 0854.42
2009/04/23 13:21:15.9     216     23    108    218    243  83.9  28.2  34170  289.73 0854.42
2009/04/23 13:21:16.0     210    -49    152    216    264 103.3  38.6  34170  289.75 0854.42
2009/04/23 13:21:16.1     192    -46    110    198    226 103.7  31.4  34166  289.67 0854.42
2009/04/23 13:21:16.2     180    -62    101    191    216 109.1  30.1  34168  289.70 0854.42
2009/04/23 13:21:16.3     184     60    158    194    250  71.8  43.7  34162  289.59 0854.42
2009/04/23 13:21:16.4      95     14    167     97    193  81.2  67.0  34170  289.74 0854.42
2009/04/23 13:21:16.5      31   -172    310    175    355 169.5  68.3  34160  289.56 0854.42
2009/04/23 13:21:16.6     143   -147    266    206    336 135.9  58.5  34170  289.75 0854.42
2009/04/23 13:21:16.7     289   -183    351    343    490 122.4  50.7  34170  289.73 0854.42
2009/04/23 13:21:16.8     218   -240    327    325    461 137.7  50.1  34160  289.56 0854.42
2009/04/23 13:21:16.9     515   -305    151    599    618 120.6  14.2  34162  289.61 0854.42
2009/04/23 13:21:17.0     369   -245     37    444    446 123.6   4.9  34162  289.60 0854.42
2009/04/23 13:21:17.1     370   -366     46    521    524 134.7   5.1  34164  289.63 0854.42
2009/04/23 13:21:17.2     363   -359    144    511    532 134.7  15.8  34156  289.50 0854.42
2009/04/23 13:21:17.3     273   -264     83    380    390 134.0  12.4  34160  289.57 0854.42
2009/04/23 13:21:17.4     273   -144    -16    309    310 117.9  -3.1  34160  289.58 0854.44
2009/04/23 13:21:17.5      51   -211     -4    218    219 166.2  -1.1  34158  289.55 0854.44
2009/04/23 13:21:17.6      88   -145    -60    170    181 148.6 -19.7  34158  289.53 0854.44
2009/04/23 13:21:17.7     227   -244   -181    334    379 137.1 -35.4  34164  289.65 0854.44
2009/04/23 13:21:17.8     167   -192    -71    255    264 139.0 -20.2  34164  289.63 0854.44
2009/04/23 13:21:17.9     243   -259     49    356    360 136.8   7.9  34166  289.69 0854.44
2009/04/23 13:21:18.0     228   -254     71    342    350 138.1  11.8  34168  289.71 0854.44
2009/04/23 13:21:18.1     112   -258     66    282    290 156.4  13.2  34162  289.61 0854.44
2009/04/23 13:21:18.2      -5   -323     65    324    331 181.0  11.5  34162  289.59 0854.44
2009/04/23 13:21:18.3      34   -319    144    321    351 173.8  25.7  34162  289.62 0854.44
2009/04/23 13:21:18.4     -96   -431    -16    442    443 192.6  -2.1  34156  289.51 0854.44
2009/04/23 13:21:18.5      52   -419     69    423    429 172.9   9.3  34160  289.58 0854.44
2009/04/23 13:21:18.6     229   -367    -54    433    437 148.0  -7.2  34162  289.61 0854.44
2009/04/23 13:21:18.7     181   -205    -84    274    286 138.5 -22.1  34166  289.66 0854.44
2009/04/23 13:21:18.8     121   -284   -125    309    333 156.8 -27.6  34160  289.56 0854.44
2009/04/23 13:21:18.9     334   -195   -128    388    408 120.3 -23.7  34164  289.65 0854.44
2009/04/23 13:21:19.0     408   -140    -34    432    434 109.0  -4.6  34152  289.44 0854.44
2009/04/23 13:21:19.1     281    -18    144    282    316  93.7  29.3  34164  289.63 0854.44
2009/04/23 13:21:19.2     -27    -25    295     38    297 226.9  90.0  34170  289.73 0854.44
2009/04/23 13:21:19.3     -83   -182    186    201    273 204.5  47.9  34162  289.61 0854.44
2009/04/23 13:21:19.4     -42   -232    209    236    315 190.5  46.2  34158  289.54 0854.43
2009/04/23 13:21:19.5     -42   -136    171    143    222 197.4  56.3  34162  289.60 0854.43
2009/04/23 13:21:19.6       5    -71    167     72    181 175.5  75.5  34158  289.53 0854.43
2009/04/23 13:21:19.7    -110    -32    197    115    228 253.6  67.0  34168  289.70 0854.43
2009/04/23 13:21:19.8      -5     17     89     18     90 341.5  89.1  34164  289.63 0854.43
2009/04/23 13:21:19.9    -262    273     39    379    382 316.1   6.0  34164  289.64 0854.43
2009/04/23 13:21:20.0    -129    273     86    302    315 334.7  15.9  34162  289.61 0854.43
2009/04/23 13:21:20.1      98    264    170    282    329  20.5  34.1  34160  289.56 0854.43
2009/04/23 13:21:20.2      -2    293    256    294    389 359.5  45.7  34168  289.71 0854.43
2009/04/23 13:21:20.3      -8    606    110    607    618 359.2  10.3  34188  290.03 0854.43
2009/04/23 13:21:20.4    -237    454    148    513    535 332.4  16.1  34180  289.90 0854.43
2009/04/23 13:21:20.5    -199    478   -101    518    528 337.4 -11.1  34180  289.92 0854.43
2009/04/23 13:21:20.6    -329    317    201    458    500 313.9  25.2  34178  289.86 0854.43
2009/04/23 13:21:20.7    -405    177    -10    443    444 293.6  -1.4  34174  289.80 0854.43
2009/04/23 13:21:20.8    -276    267    -74    385    393 314.1 -11.0  34158  289.54 0854.43
2009/04/23 13:21:20.9    -639    -83   -311    645    716 262.6 -32.1  34156  289.51 0854.43
2009/04/23 13:21:21.0    -435     87     17    444    445 281.4   2.2  34146  289.33 0854.43
2009/04/23 13:21:21.1    -575    419   -130    712    724 306.1 -10.4  34168  289.72 0854.43
2009/04/23 13:21:21.2    -612    242    153    659    677 291.6  13.1  34178  289.87 0854.43
2009/04/23 13:21:21.3    -679    190    209    706    737 285.7  16.5  34152  289.42 0854.43
2009/04/23 13:21:21.4    -691     67    -65    695    699 275.6  -5.4  34170  289.74 0854.41
2009/04/23 13:21:21.5    -721    -51    104    723    731 265.9   8.2  34156  289.49 0854.41
2009/04/23 13:21:21.6    -615   -104    166    624    646 260.4  14.9  34168  289.72 0854.41
2009/04/23 13:21:21.7    -791    -53   -158    793    809 266.1 -11.3  34146  289.33 0854.41
2009/04/23 13:21:21.8    -496    259    -65    560    564 297.6  -6.7  34154  289.48 0854.41
2009/04/23 13:21:21.9    -382    -53     -8    386    387 262.1  -1.3  34146  289.33 0854.41
2009/04/23 13:21:22.0    -216   -202    -21    296    297 226.9  -4.1  34164  289.63 0854.41
2009/04/23 13:21:22.1    -528     86    297    536    612 279.3  31.4  34164  289.63 0854.41
2009/04/23 13:21:22.2    -343   -477    103    588    598 215.7  10.0  34176  289.83 0854.41
2009/04/23 13:21:22.3    -212   -397    134    451    471 208.1  16.6  34172  289.77 0854.41
2009/04/23 13:21:22.4    -450   -406   -118    607    619 228.0 -11.0  34176  289.84 0854.41
2009/04/23 13:21:22.5    -239   -558     75    608    613 203.2   7.1  34174  289.81 0854.41
2009/04/23 13:21:22.6    -294   -666     22    729    730 203.8   1.8  34178  289.89 0854.41
2009/04/23 13:21:22.7    -350   -969    -96   1031   1036 199.9  -5.4  34168  289.72 0854.41
2009/04/23 13:21:22.8      -1  -1009   -172   1010   1025 180.1  -9.7  34162  289.62 0854.41
2009/04/23 13:21:22.9     275   -920   -160    961    975 163.3  -9.5  34160  289.58 0854.41
2009/04/23 13:21:23.0     260   -764     25    808    809 161.2   1.8  34168  289.70 0854.41
2009/04/23 13:21:23.1      89   -475    402    484    629 169.4  44.0  34172  289.78 0854.41
2009/04/23 13:21:23.2     398   -488     56    630    633 140.8   5.1  34172  289.76 0854.41
2009/04/23 13:21:23.3     410   -537    173    676    698 142.6  14.4  34168  289.71 0854.41
2009/04/23 13:21:23.4     114   -153    163    191    251 143.3  44.8  34160  289.56 0854.39
2009/04/23 13:21:23.5     156    166    230    228    323  43.2  50.1  34178  289.86 0854.39
2009/04/23 13:21:23.6    -156   -636    134    655    669 193.8  11.6  34160  289.56 0854.39
2009/04/23 13:21:23.7    -225   -642    160    681    700 199.3  13.3  34164  289.65 0854.39
2009/04/23 13:21:23.8    -413   -619   -223    745    778 213.7 -16.7  34164  289.65 0854.39
2009/04/23 13:21:23.9    -664   -521   -268    845    886 231.9 -22.8  34160  289.57 0854.39
2009/04/23 13:21:24.0    -523   -555   -241    763    801 223.3 -17.6  34130  289.08 0854.39
2009/04/23 13:21:24.1    -371   -755    -51    842    844 206.2  -3.5  34166  289.66 0854.39
2009/04/23 13:21:24.2    -385   -602   -198    715    743 212.6 -15.5  34164  289.64 0854.39
2009/04/23 13:21:24.3    -600   -524   -246    797    834 228.9 -22.1  34154  289.48 0854.39
2009/04/23 13:21:24.4    -449   -542   -410    704    814 219.6 -37.3  34156  289.51 0854.39
2009/04/23 13:21:24.5    -385   -322   -288    502    578 230.1 -36.8  34164  289.63 0854.39
2009/04/23 13:21:24.6    -128   -190    -77    230    243 214.1 -18.6  34170  289.73 0854.39
2009/04/23 13:21:24.7     -91   -312    -85    326    337 196.3 -14.6  34168  289.71 0854.39
2009/04/23 13:21:24.8    -333   -463   -223    571    613 215.7 -26.9  34174  289.81 0854.39
2009/04/23 13:21:24.9    -177   -593   -202    619    651 196.6 -23.2  34162  289.62 0854.39
2009/04/23 13:21:25.0    -149   -510   -244    532    585 196.3 -30.7  34160  289.58 0854.39
2009/04/23 13:21:25.1     -78   -499    -19    506    507 188.9  -2.2  34162  289.59 0854.39
2009/04/23 13:21:25.2     107   -563   -175    574    601 169.2 -17.0  34162  289.59 0854.39
2009/04/23 13:21:25.3      48   -633    -52    635    638 175.6  -4.7  34156  289.50 0854.39
2009/04/23 13:21:25.4      37   -587     17    589    590 176.4   1.7  34154  289.46 0854.42
2009/04/23 13:21:25.5     219   -660    163    696    715 161.6  13.2  34162  289.59 0854.42
2009/04/23 13:21:25.6      78   -553    156    559    581 171.9  15.6  34160  289.56 0854.42
2009/04/23 13:21:25.7      98   -572   -168    581    605 170.2 -16.2  34156  289.49 0854.42
2009/04/23 13:21:25.8     157   -521   -171    545    571 163.2 -22.4  34162  289.62 0854.42
2009/04/23 13:21:25.9      71   -281   -237    291    375 165.7 -48.0  34162  289.62 0854.42
2009/04/23 13:21:26.0     120   -264   -206    291    356 155.5 -43.2  34162  289.60 0854.42
2009/04/23 13:21:26.1     117   -271   -183    296    348 156.6 -39.3  34162  289.62 0854.42
2009/04/23 13:21:26.2     175   -151   -164    232    284 130.7 -43.2  34152  289.42 0854.42
2009/04/23 13:21:26.3     231    -80   -202    245    317 109.1 -48.0  34162  289.61 0854.42
2009/04/23 13:21:26.4     354   -216   -164    415    446 121.4 -27.2  34160  289.58 0854.42
2009/04/23 13:21:26.5     339    -87   -175    351    392 104.5 -32.9  34160  289.57 0854.42
2009/04/23 13:21:26.6     280   -215   -132    354    377 127.5 -25.8  34158  289.54 0854.42
2009/04/23 13:21:26.7     267   -142   -189    303    357 118.0 -39.4  34162  289.59 0854.42
2009/04/23 13:21:26.8     412   -293   -152    506    529 125.5 -16.8  34156  289.50 0854.42
2009/04/23 13:21:26.9     428   -169   -163    461    488 111.5 -24.7  34162  289.62 0854.42
2009/04/23 13:21:27.0     438   -141   -102    461    473 107.8 -12.5  34148  289.37 0854.42
2009/04/23 13:21:27.1     514     21     78    515    521  87.6   8.7  34156  289.51 0854.42
2009/04/23 13:21:27.2     420    141    197    444    485  71.4  25.6  34152  289.44 0854.42
2009/04/23 13:21:27.3     -77    328    -57    337    342 346.8  -9.6  34158  289.55 0854.42
2009/04/23 13:21:27.4    -440    -13   -161    441    469 268.2 -25.4  34144  289.29 0854.43
2009/04/23 13:21:27.5    -479   -615    147    780    794 217.9  10.7  34152  289.44 0854.43
2009/04/23 13:21:27.6     -38   -550    205    552    588 184.0  21.4  34154  289.47 0854.43
2009/04/23 13:21:27.7      42   -640     45    642    644 176.2   4.0  34154  289.48 0854.43
2009/04/23 13:21:27.8     -79   -133    -72    155    170 210.8 -31.0  34154  289.48 0854.43
2009/04/23 13:21:27.9    -169   -323   -125    365    385 207.6 -23.8  34158  289.55 0854.43
2009/04/23 13:21:28.0    -270   -528   -170    594    617 207.1 -20.7  34156  289.52 0854.43
2009/04/23 13:21:28.1     -87   -457   -350    466    582 190.8 -45.1  34158  289.53 0854.43
2009/04/23 13:21:28.2      65   -178    -22    190    192 160.0  -6.9  34150  289.40 0854.43
2009/04/23 13:21:28.3     394    -67   -143    400    425  99.7 -19.7  34154  289.48 0854.43
2009/04/23 13:21:28.4     367   -290   -141    468    488 128.3 -21.7  34158  289.54 0854.43
2009/04/23 13:21:28.5     291   -412    -22    505    506 144.8  -2.5  34156  289.50 0854.43
2009/04/23 13:21:28.6     -20   -268   -182    269    324 184.5 -41.7  34158  289.54 0854.43
2009/04/23 13:21:28.8     -39   -417   -149    419    445 185.4 -19.6  34162  289.60 0854.43
2009/04/23 13:21:28.9    -123   -634     -4    646    647 191.0  -0.4  34154  289.48 0854.43
2009/04/23 13:21:28.9     -33   -677   -221    678    714 182.8 -18.1  34162  289.61 0854.43
2009/04/23 13:21:29.1    -126   -693    -89    705    711 190.4  -7.2  34158  289.55 0854.43
2009/04/23 13:21:29.2    -164   -695    -39    715    717 193.3  -3.1  34158  289.55 0854.43
2009/04/23 13:21:29.3     -76   -638      2    643    644 186.9   0.2  34156  289.50 0854.43
2009/04/23 13:21:29.4     -31   -598    167    599    622 183.0  15.6  34162  289.60 0854.43
2009/04/23 13:21:29.5     -94   -627    112    635    645 188.6  10.0  34158  289.55 0854.45
2009/04/23 13:21:29.6    -216   -674     21    708    709 197.8   1.7  34156  289.49 0854.45
2009/04/23 13:21:29.7    -267   -604     17    661    662 203.8   1.5  34162  289.60 0854.45
2009/04/23 13:21:29.8    -188   -694     39    720    722 195.2   3.1  34156  289.49 0854.45
2009/04/23 13:21:29.9     -47   -679    160    681    700 184.0  13.3  34154  289.46 0854.45
2009/04/23 13:21:30.0      33   -745    116    746    756 177.4   8.9  34158  289.55 0854.45
2009/04/23 13:21:30.1     174   -793    245    813    850 167.6  16.8  34158  289.54 0854.45
2009/04/23 13:21:30.2     420   -799    316    903    957 152.3  19.3  34140  289.24 0854.45
2009/04/23 13:21:30.3     416   -681    142    799    812 148.6  10.1  34160  289.58 0854.45
2009/04/23 13:21:30.4     352   -680    -16    766    767 152.6  -1.3  34162  289.60 0854.45
2009/04/23 13:21:30.5     306   -656    -14    725    726 155.0  -1.2  34162  289.59 0854.45
2009/04/23 13:21:30.6     307   -529    -34    612    613 149.9  -3.2  34162  289.59 0854.45
2009/04/23 13:21:30.7     378   -534    -43    655    657 144.7  -3.8  34152  289.43 0854.45
2009/04/23 13:21:30.8     474   -632   -153    791    806 143.1 -11.0  34162  289.59 0854.45
2009/04/23 13:21:30.9     429   -721     20    839    840 149.3   1.4  34162  289.59 0854.45
2009/04/23 13:21:31.0     355   -603     87    701    707 149.5   7.1  34156  289.50 0854.45
2009/04/23 13:21:31.1     433   -321    -11    540    541 126.5  -1.3  34146  289.35 0854.45
2009/04/23 13:21:31.2     245   -252    -13    352    353 135.8  -2.2  34156  289.50 0854.45
2009/04/23 13:21:31.3     -43   -417    288    420    509 185.9  37.8  34162  289.62 0854.45
2009/04/23 13:21:31.4    -245   -518    204    573    608 205.3  20.4  34156  289.52 0854.45
2009/04/23 13:21:31.5    -272   -551     49    615    618 206.3   4.6  34162  289.59 0854.47
2009/04/23 13:21:31.6    -338   -281   -132    440    460 230.2 -16.8  34164  289.63 0854.47
2009/04/23 13:21:31.7    -377    -38   -259    379    459 264.1 -42.0  34162  289.61 0854.47
2009/04/23 13:21:31.8    -488   -125   -244    504    559 255.6 -32.2  34166  289.67 0854.47
2009/04/23 13:21:31.9    -309    -18   -180    310    358 266.5 -37.3  34158  289.55 0854.47
2009/04/23 13:21:32.0    -553   -114   -389    565    685 258.3 -42.3  34156  289.50 0854.47
2009/04/23 13:21:32.1    -665     -8    -96    666    674 269.3  -8.3  34170  289.75 0854.47
2009/04/23 13:21:32.2    -365   -233   -120    434    451 237.5 -15.5  34174  289.80 0854.47
2009/04/23 13:21:32.3     -49   -453   -218    456    505 186.2 -31.7  34170  289.74 0854.47
2009/04/23 13:21:32.4     356   -404   -213    539    579 138.6 -27.3  34136  289.18 0854.47
2009/04/23 13:21:32.5     487   -240   -198    544    578 116.3 -25.4  34160  289.58 0854.47
2009/04/23 13:21:32.6      73   -459    149    465    489 170.9  17.8  34156  289.49 0854.47
2009/04/23 13:21:32.7     -32   -583   -201    584    618 183.2 -19.1  34150  289.41 0854.47
2009/04/23 13:21:32.8      53   -685   -184    688    713 175.5 -15.0  34162  289.62 0854.47
2009/04/23 13:21:32.9     123   -886    106    895    902 172.1   6.8  34160  289.58 0854.47
2009/04/23 13:21:33.0      33  -1008    116   1009   1016 178.1   6.6  34162  289.59 0854.47
2009/04/23 13:21:33.1      11   -636    223    637    675 179.0  19.3  34130  289.07 0854.47
2009/04/23 13:21:33.2      36   -578    300    580    652 176.4  29.5  34164  289.64 0854.47
2009/04/23 13:21:33.3      17   -802    324    803    865 178.7  23.2  34162  289.61 0854.47
2009/04/23 13:21:33.4      47   -905    237    907    938 177.0  14.7  34164  289.63 0854.47
2009/04/23 13:21:33.5     195   -918    301    939    987 168.0  17.8  34162  289.62 0854.47
2009/04/23 13:21:33.6    -133   -505    142    523    542 194.8  15.2  34156  289.50 0854.47
2009/04/23 13:21:33.7     -71   -554   -201    559    594 187.3 -25.2  34162  289.61 0854.47
2009/04/23 13:21:33.8      52   -602   -109    605    615 175.0 -10.3  34164  289.64 0854.47
2009/04/23 13:21:33.9      90   -578   -104    586    596 171.1 -10.1  34164  289.64 0854.47
2009/04/23 13:21:34.0     179   -469   -102    503    514 159.1 -11.5  34166  289.67 0854.47
2009/04/23 13:21:34.1     194   -421   -132    464    483 155.2 -15.9  34164  289.64 0854.47
2009/04/23 13:21:34.2     248   -268   -101    366    380 137.2 -15.5  34164  289.65 0854.47
2009/04/23 13:21:34.3     348   -359      7    501    502 135.9   0.8  34166  289.69 0854.47
2009/04/23 13:21:34.4     465   -561     29    729    730 140.4   2.3  34162  289.62 0854.47
2009/04/23 13:21:34.5     341   -451     94    566    574 142.9   9.5  34164  289.64 0854.46
2009/04/23 13:21:34.6     208   -247     21    324    325 139.9   3.8  34154  289.47 0854.46
2009/04/23 13:21:34.7      84   -337    343    348    488 165.9  49.7  34162  289.61 0854.46
2009/04/23 13:21:34.8      68   -195    281    207    349 160.8  60.1  34166  289.68 0854.46
2009/04/23 13:21:34.9     211   -447    372    495    619 154.7  40.7  34162  289.61 0854.46
2009/04/23 13:21:35.0     141   -692    218    707    741 168.4  17.2  34164  289.64 0854.46
2009/04/23 13:21:35.1     138   -512    185    531    562 164.9  20.0  34162  289.62 0854.46
2009/04/23 13:21:35.2     205   -598    -38    633    635 161.1  -3.5  34166  289.67 0854.46
2009/04/23 13:21:35.3     198   -595    -20    627    628 161.6  -1.9  34166  289.67 0854.46
2009/04/23 13:21:35.4     177   -636     -8    661    662 164.4  -0.7  34158  289.54 0854.46
2009/04/23 13:21:35.5     228   -622    159    663    682 159.8  13.5  34162  289.61 0854.46
2009/04/23 13:21:35.6     239   -487    174    543    571 153.8  17.8  34164  289.65 0854.46
2009/04/23 13:21:35.7     275   -388    129    476    494 144.6  15.2  34162  289.61 0854.46
2009/04/23 13:21:35.8     138   -541     99    559    568 165.7  10.1  34162  289.60 0854.46
2009/04/23 13:21:35.9      80   -511     51    518    521 171.1   5.7  34162  289.62 0854.46
2009/04/23 13:21:36.0    -136   -300      6    330    331 204.5   1.1  34164  289.64 0854.46
2009/04/23 13:21:36.1    -243    -92    -89    260    274 249.2 -23.8  34164  289.64 0854.46
2009/04/23 13:21:36.2    -181      8     10    182    183 272.6   3.3  34160  289.57 0854.46
2009/04/23 13:21:36.3    -200    302     41    363    366 326.4   6.6  34156  289.50 0854.46
2009/04/23 13:21:36.4    -535    273   -204    601    635 297.1 -18.8  34172  289.79 0854.46
2009/04/23 13:21:36.5    -504    -77   -294    510    588 261.3 -36.8  34162  289.62 0854.44
2009/04/23 13:21:36.6    -481   -106     20    493    494 257.5   2.4  34160  289.56 0854.44
2009/04/23 13:21:36.7    -361    -55    301    366    473 261.3  43.7  34160  289.56 0854.44
2009/04/23 13:21:36.8    -175   -266    200    319    376 213.4  35.2  34170  289.74 0854.44
2009/04/23 13:21:36.9     324   -178    -51    370    374 118.9  -7.9  34162  289.60 0854.44
2009/04/23 13:21:37.0     233     62   -235    242    337  75.0 -53.5  34170  289.73 0854.44
2009/04/23 13:21:37.1     179   -105   -369    208    423 120.4 -72.7  34174  289.82 0854.44
2009/04/23 13:21:37.2     199    -57   -260    208    332 106.2 -61.7  34162  289.59 0854.44
2009/04/23 13:21:37.3      88    139   -183    165    246  32.5 -57.7  34170  289.75 0854.44
2009/04/23 13:21:37.4    -150    227   -132    273    303 326.6 -31.7  34168  289.70 0854.44
2009/04/23 13:21:37.5     188    332     43    382    385  29.6   6.5  34172  289.76 0854.44
2009/04/23 13:21:37.6      79     52    155     95    181  56.3  65.4  34172  289.77 0854.44
2009/04/23 13:21:37.7    -115     60    142    130    192 297.5  52.5  34174  289.80 0854.44
2009/04/23 13:21:37.8     -34    102    130    108    169 341.5  56.3  34174  289.82 0854.44
2009/04/23 13:21:37.9     -13     17     72     22     75 322.2  80.7  34176  289.84 0854.44
2009/04/23 13:21:38.0      52     -9     97     53    110 100.6  68.9  34174  289.80 0854.44
2009/04/23 13:21:38.1     191   -134    149    234    277 125.1  35.5  34170  289.75 0854.44
2009/04/23 13:21:38.2     110   -195    147    225    268 150.6  36.3  34170  289.73 0854.44
2009/04/23 13:21:38.3      34   -199    204    203    287 170.2  50.1  34168  289.71 0854.44
2009/04/23 13:21:38.4       6    -99    134    100    167 176.4  59.2  34166  289.67 0854.44
2009/04/23 13:21:38.5      46     68    259     83    271  33.8  81.2  34172  289.79 0854.45
2009/04/23 13:21:38.6      89    -29    167     94    191 108.6  68.5  34166  289.67 0854.45
2009/04/23 13:21:38.7     -58    -90    296    108    315 213.0  79.2  34180  289.90 0854.45
2009/04/23 13:21:38.8      -4     26    199     27    200 350.2  90.0  34176  289.84 0854.45
2009/04/23 13:21:38.9     -26   -367    442    368    575 184.1  56.3  34172  289.78 0854.45
2009/04/23 13:21:39.0    -128   -282    419    310    521 204.5  59.9  34172  289.78 0854.45
2009/04/23 13:21:39.1     371   -220    174    432    465 120.6  23.1  34170  289.75 0854.45
2009/04/23 13:21:39.2     136   -230    235    268    356 149.5  45.8  34168  289.72 0854.45
2009/04/23 13:21:39.3      17   -332    305    333    451 177.0  47.3  34170  289.75 0854.45
2009/04/23 13:21:39.4      25   -398    173    399    434 176.3  25.1  34164  289.63 0854.45
2009/04/23 13:21:39.5     186    -40    231    191    299 102.4  56.3  34170  289.75 0854.45
2009/04/23 13:21:39.6     172    -75    155    188    243 113.5  43.7  34166  289.67 0854.45
2009/04/23 13:21:39.7     -75   -227    188    240    304 198.3  42.2  34168  289.71 0854.45
2009/04/23 13:21:39.8    -237   -154     54    283    289 236.9  10.8  34166  289.66 0854.45
2009/04/23 13:21:39.9    -331   -425   -194    539    572 217.9 -25.0  34166  289.67 0854.45
2009/04/23 13:21:40.0    -328   -116    -44    349    352 250.4  -7.3  34162  289.60 0854.45
2009/04/23 13:21:40.1    -231     50     82    237    252 282.4  19.2  34170  289.73 0854.45
2009/04/23 13:21:40.2    -186     50    -53    193    200 285.1 -20.0  34168  289.70 0854.45
2009/04/23 13:21:40.3    -251     -7    -61    252    260 268.3 -13.7  34176  289.83 0854.45
2009/04/23 13:21:40.4    -129   -137   -117    189    222 223.2 -39.6  34176  289.85 0854.45
2009/04/23 13:21:40.5      -9   -202   -106    203    229 182.6 -33.9  34172  289.79 0854.44
2009/04/23 13:21:40.6      50   -158     17    166    167 162.2   6.1  34170  289.75 0854.44
2009/04/23 13:21:40.7     -28     40     94     50    106 324.8  69.3  34180  289.91 0854.44
2009/04/23 13:21:40.8       3      3     48      5     48  45.0  90.0  34178  289.89 0854.44
2009/04/23 13:21:40.9      31    -76    156     83    176 157.7  69.8  34172  289.79 0854.44
2009/04/23 13:21:41.0     -47   -233    110    238    262 191.6  26.4  34176  289.85 0854.44
2009/04/23 13:21:41.1     -85   -207    -12    224    225 202.3  -3.1  34174  289.80 0854.44
2009/04/23 13:21:41.2      -4   -112    -39    113    119 182.2 -23.8  34174  289.80 0854.44
2009/04/23 13:21:41.3      73   -108    -57    131    142 145.7 -29.5  34178  289.87 0854.44
2009/04/23 13:21:41.4      47   -137      7    146    147 160.8   2.8  34176  289.85 0854.44
2009/04/23 13:21:41.5     255   -196    122    322    344 127.5  21.7  34168  289.72 0854.44
2009/04/23 13:21:41.6     368   -258    129    450    469 125.0  16.0  34170  289.75 0854.44
2009/04/23 13:21:41.7     313   -421    158    525    549 143.4  16.8  34170  289.75 0854.44
2009/04/23 13:21:41.8     280   -432    140    516    535 147.0  15.2  34172  289.79 0854.44
2009/04/23 13:21:41.9     334   -447     42    559    561 143.3   4.4  34174  289.80 0854.44
2009/04/23 13:21:42.0     266   -526     33    590    591 153.2   3.2  34176  289.85 0854.44
2009/04/23 13:21:42.1     240   -432    135    495    514 151.0  15.3  34164  289.64 0854.44
2009/04/23 13:21:42.2     193   -462    241    501    555 157.3  27.4  34172  289.77 0854.44
2009/04/23 13:21:42.3     392   -417    187    573    603 136.8  18.1  34172  289.78 0854.44
2009/04/23 13:21:42.4     296   -381    241    483    539 142.1  28.5  34168  289.72 0854.44
2009/04/23 13:21:42.5     103   -429    294    442    530 166.4  36.9  34168  289.71 0854.46
2009/04/23 13:21:42.6     -88   -447    206    456    500 191.2  26.2  34172  289.76 0854.46
2009/04/23 13:21:42.7      28   -367    260    369    451 175.5  38.7  34172  289.77 0854.46
2009/04/23 13:21:42.8     136   -334    176    361    401 157.8  27.9  34172  289.76 0854.46
2009/04/23 13:21:42.9     123   -402    314    421    525 163.0  40.4  34172  289.78 0854.46
2009/04/23 13:21:43.0     170   -452    341    484    592 159.3  38.6  34178  289.87 0854.46
2009/04/23 13:21:43.1     287   -114    329    309    451 111.7  52.1  34160  289.58 0854.46
2009/04/23 13:21:43.2     443   -146    291    467    550 108.3  34.9  34168  289.72 0854.46
2009/04/23 13:21:43.3     404   -173    154    440    466 113.2  20.0  34166  289.68 0854.46
2009/04/23 13:21:43.4     400     18    184    401    441  87.4  26.3  34172  289.77 0854.46
2009/04/23 13:21:43.5     360    134     67    385    391  69.6   9.9  34180  289.91 0854.46
2009/04/23 13:21:43.6     408   -109     96    423    434 105.0  12.8  34174  289.80 0854.46
2009/04/23 13:21:43.7     304   -274    112    410    426 132.1  15.3  34156  289.49 0854.46
2009/04/23 13:21:43.8       8   -482    247    483    542 179.0  29.2  34170  289.74 0854.46
2009/04/23 13:21:43.9      46   -387    202    390    439 173.1  29.4  34170  289.73 0854.46
2009/04/23 13:21:44.0      99   -235    113    256    279 157.1  25.2  34172  289.76 0854.46
2009/04/23 13:21:44.1     170   -153     91    229    246 132.0  23.0  34176  289.83 0854.46
2009/04/23 13:21:44.2      91   -190     75    211    225 154.4  19.6  34174  289.82 0854.46
2009/04/23 13:21:44.3     208   -202    182    291    343 134.2  35.2  34176  289.85 0854.46
2009/04/23 13:21:44.4     142   -236    199    276    340 149.0  39.3  34166  289.68 0854.46
2009/04/23 13:21:44.5      34   -440    238    442    502 175.5  30.8  34160  289.57 0854.46
2009/04/23 13:21:44.6     -79   -482    160    489    515 189.3  18.1  34162  289.59 0854.46
2009/04/23 13:21:44.7     -40   -342    -52    345    349 186.7  -8.6  34164  289.65 0854.46
2009/04/23 13:21:44.8     118    -70   -179    138    226 120.7 -62.9  34172  289.77 0854.46
2009/04/23 13:21:44.9      80    -57   -135     99    167 125.5 -64.7  34170  289.75 0854.46
2009/04/23 13:21:45.0       5   -122   -115    123    168 177.4 -52.6  34174  289.80 0854.46
2009/04/23 13:21:45.1     -11   -355    -98    356    370 181.9 -15.4  34166  289.67 0854.46
2009/04/23 13:21:45.2      54   -371   -168    375    410 171.7 -30.2  34170  289.74 0854.46
2009/04/23 13:21:45.3      42   -274    -56    278    284 171.1 -11.5  34178  289.86 0854.46
2009/04/23 13:21:45.4     125   -222     65    256    265 150.6  14.3  34170  289.75 0854.46
2009/04/23 13:21:45.5      85    132    278    158    319  33.0  67.9  34166  289.66 0854.46
2009/04/23 13:21:45.6     344   -212    303    405    505 121.7  40.6  34156  289.52 0854.46
2009/04/23 13:21:45.7     140   -653    142    669    685 167.8  12.0  34164  289.65 0854.46
2009/04/23 13:21:45.8     197   -619    -12    650    651 162.3  -1.1  34158  289.53 0854.46
2009/04/23 13:21:45.9     296   -523    184    602    630 150.5  17.0  34164  289.64 0854.46
2009/04/23 13:21:46.0     625   -437    149    763    778 125.0  11.1  34166  289.68 0854.46
2009/04/23 13:21:46.1     448   -605    231    754    789 143.5  17.0  34158  289.54 0854.46
2009/04/23 13:21:46.2     144   -699    -27    714    715 168.3  -2.2  34170  289.74 0854.46
2009/04/23 13:21:46.3     152   -710   -121    727    738 167.9  -9.5  34162  289.61 0854.46
2009/04/23 13:21:46.4       6   -490    -35    491    493 179.2  -4.1  34168  289.71 0854.46
2009/04/23 13:21:46.5      33   -257    -93    260    276 172.7 -24.8  34154  289.47 0854.45
2009/04/23 13:21:46.6     150   -135    -41    202    207 132.0 -11.5  34160  289.57 0854.45
2009/04/23 13:21:46.7     -43   -310    305    314    437 188.0  49.2  34162  289.60 0854.45
2009/04/23 13:21:46.8     -62   -295    332    302    448 192.0  53.2  34162  289.60 0854.45
2009/04/23 13:21:46.9     -95   -287    272    303    407 198.5  46.6  34166  289.67 0854.45
2009/04/23 13:21:47.0    -174   -210    124    273    299 219.6  26.2  34164  289.64 0854.45
2009/04/23 13:21:47.1     -33    -89    190     96    212 200.5  71.1  34166  289.67 0854.45
2009/04/23 13:21:47.2    -130   -168    113    213    241 217.8  30.2  34162  289.62 0854.45
2009/04/23 13:21:47.3     -40   -148    113    154    191 195.2  39.9  34164  289.63 0854.45
2009/04/23 13:21:47.4      61    -92    110    111    156 146.6  50.0  34168  289.72 0854.45
2009/04/23 13:21:47.5     123    -79     -3    147    148 122.9  -1.3  34166  289.67 0854.45
2009/04/23 13:21:47.6     212    -22     49    214    220  96.1  12.9  34166  289.67 0854.45
2009/04/23 13:21:47.7     245    -38     29    249    251  99.0   6.7  34166  289.68 0854.45
2009/04/23 13:21:47.8     177    -56     79    186    202 107.5  24.3  34166  289.67 0854.45
2009/04/23 13:21:47.9     135    -48     55    144    154 109.5  21.5  34166  289.69 0854.45
2009/04/23 13:21:48.0     140   -116     49    182    189 129.6  15.2  34162  289.62 0854.45
2009/04/23 13:21:48.1     158   -174     59    236    244 137.7  14.2  34158  289.54 0854.45
2009/04/23 13:21:48.2     232    -19     72    233    245  94.8  17.3  34162  289.61 0854.45
2009/04/23 13:21:48.3     215    -24     72    217    229  96.4  18.6  34158  289.55 0854.45
2009/04/23 13:21:48.4     137     37    133    142    194  74.9  48.2  34164  289.63 0854.41
2009/04/23 13:21:48.5      17     67    102     70    123  14.3  62.6  34164  289.65 0854.41
2009/04/23 13:21:48.6     -20     80     65     83    105 345.7  42.2  34166  289.67 0854.41
2009/04/23 13:21:48.7     -62    112     79    129    151 331.1  35.0  34164  289.63 0854.41
2009/04/23 13:21:48.8     -43    128    112    136    176 341.3  43.7  34164  289.63 0854.41
2009/04/23 13:21:48.9     -52    -41    162     67    175 232.2  76.6  34168  289.72 0854.41
2009/04/23 13:21:49.0    -162    152     61    223    232 313.1  15.3  34162  289.62 0854.41
2009/04/23 13:21:49.1    -224    179     16    287    288 308.6   3.3  34164  289.64 0854.41
2009/04/23 13:21:49.2    -237     39    149    241    283 279.5  34.8  34168  289.70 0854.41
2009/04/23 13:21:49.3    -120   -180    269    217    345 213.8  56.9  34166  289.68 0854.41
2009/04/23 13:21:49.4    -156   -310    301    348    460 206.7  45.2  34170  289.75 0854.41
2009/04/23 13:21:49.5    -140   -273    159    308    346 207.2  29.4  34164  289.64 0854.41
2009/04/23 13:21:49.6    -139   -206    116    249    274 214.1  27.0  34164  289.63 0854.41
2009/04/23 13:21:49.7    -188   -220    101    290    308 220.5  19.2  34160  289.58 0854.41
2009/04/23 13:21:49.8    -200   -156     -5    254    255 232.0  -1.3  34160  289.58 0854.41
2009/04/23 13:21:49.9      66   -199     -4    210    211 161.5  -1.1  34160  289.58 0854.41
2009/04/23 13:21:50.0      94   -192   -107    214    239 153.9 -32.9  34162  289.62 0854.41
2009/04/23 13:21:50.1    -120    -99    -49    156    163 230.4 -22.5  34158  289.53 0854.41
2009/04/23 13:21:50.2    -209     -8    -32    210    213 267.6  -8.8  34166  289.69 0854.41
2009/04/23 13:21:50.3    -181    -41    -65    186    197 257.0 -24.6  34166  289.67 0854.41
2009/04/23 13:21:50.4    -187      2    -75    188    202 270.8 -27.4  34164  289.65 0854.47
2009/04/23 13:21:50.5    -192     70    -69    205    216 290.2 -23.3  34164  289.65 0854.47
2009/04/23 13:21:50.6    -167     20    -21    169    171 277.0  -7.3  34160  289.58 0854.47
2009/04/23 13:21:50.7    -225     20     89    226    242 275.2  22.5  34160  289.58 0854.47
2009/04/23 13:21:50.8    -287     44     75    291    301 278.8  14.5  34164  289.64 0854.47
2009/04/23 13:21:50.9    -227      3    123    228    259 271.0  30.8  34164  289.64 0854.47
2009/04/23 13:21:51.0    -137    -21    118    139    182 261.2  44.8  34164  289.63 0854.47
2009/04/23 13:21:51.1     -19   -208    206    209    293 185.3  49.9  34162  289.61 0854.47
2009/04/23 13:21:51.2    -182   -302    189    353    400 211.1  30.3  34162  289.59 0854.47
2009/04/23 13:21:51.3    -211   -364    179    421    457 210.1  24.3  34154  289.48 0854.47
2009/04/23 13:21:51.4     -73   -428    172    435    467 189.8  22.7  34162  289.60 0854.47
2009/04/23 13:21:51.5     -50   -434    154    437    464 186.6  19.4  34152  289.44 0854.47
2009/04/23 13:21:51.6       0   -300    105    301    318 180.0  20.0  34156  289.51 0854.47
2009/04/23 13:21:51.7      23   -212    129    214    249 173.8  34.0  34162  289.61 0854.47
2009/04/23 13:21:51.8     216   -263    239    341    416 140.7  38.6  34162  289.59 0854.47
2009/04/23 13:21:51.9      77   -268    258    279    380 163.9  47.8  34164  289.64 0854.47
2009/04/23 13:21:52.0      10   -224    253    225    338 177.3  53.9  34160  289.58 0854.47
2009/04/23 13:21:52.1       6   -182    238    183    300 178.0  58.5  34164  289.64 0854.47
2009/04/23 13:21:52.2     -74   -221    296    234    377 198.7  57.8  34164  289.64 0854.47
2009/04/23 13:21:52.3    -176   -188     96    258    275 223.2  21.3  34140  289.24 0854.47
2009/04/23 13:21:52.4    -156    -73     30    173    176 244.7  10.1  34162  289.60 0854.47
2009/04/23 13:21:52.5      79   -273    212    285    355 163.7  40.2  34156  289.50 0854.47
2009/04/23 13:21:52.6     109    -90    137    142    197 129.6  49.0  34150  289.41 0854.47
2009/04/23 13:21:52.7      57    131    142    144    202  23.7  50.0  34158  289.55 0854.47
2009/04/23 13:21:52.8     108    115    107    159    191  43.2  36.7  34166  289.67 0854.47
2009/04/23 13:21:52.9     132     72     29    151    154  61.2  11.1  34164  289.65 0854.47
2009/04/23 13:21:53.0     140     46     83    148    169  71.8  31.9  34166  289.67 0854.47
2009/04/23 13:21:53.1     161    -41    112    167    201 104.4  37.3  34164  289.65 0854.47
2009/04/23 13:21:53.2     175     -3     42    176    181  91.3  13.5  34162  289.62 0854.47
2009/04/23 13:21:53.3     302      4    -44    303    307  89.1  -8.3  34162  289.59 0854.47
2009/04/23 13:21:53.4     272    -54    116    278    301 101.4  24.1  34162  289.61 0854.47
2009/04/23 13:21:53.5     309    124    269    334    428  68.1  43.0  34160  289.57 0854.47
2009/04/23 13:21:53.6     358    115    156    377    408  72.2  23.8  34166  289.67 0854.47
2009/04/23 13:21:53.7     404    142    147    429    454  70.6  18.9  34168  289.72 0854.47
2009/04/23 13:21:53.8     257    -18    135    258    291  94.1  29.8  34160  289.58 0854.47
2009/04/23 13:21:53.9     153     16     98    154    182  83.9  35.5  34166  289.69 0854.47
2009/04/23 13:21:54.0     133      9    181    134    225  86.1  60.0  34166  289.69 0854.47
2009/04/23 13:21:54.1     232    -23    238    234    333  95.7  50.6  34162  289.61 0854.47
2009/04/23 13:21:54.2     242     18    256    243    352  85.7  51.9  34162  289.61 0854.47
2009/04/23 13:21:54.3     257     64    206    265    335  75.9  41.7  34166  289.66 0854.47
2009/04/23 13:21:54.4     232    -30    174    234    291  97.5  40.4  34170  289.73 0854.42
2009/04/23 13:21:54.5     244    125     41    275    279  62.9   8.5  34162  289.61 0854.42
2009/04/23 13:21:54.6     275     64     99    283    301  76.7  19.4  34164  289.63 0854.42
2009/04/23 13:21:54.7     -15     44    165     47    171 340.8  83.9  34174  289.82 0854.42
2009/04/23 13:21:54.8     -71     27    247     77    258 290.8  82.0  34172  289.79 0854.42
2009/04/23 13:21:54.9     136    166    224    215    310  39.4  51.2  34166  289.68 0854.42
2009/04/23 13:21:55.0     217    171    114    277    299  51.8  23.4  34190  290.09 0854.42
2009/04/23 13:21:55.1     118    110    148    162    219  46.8  47.5  34172  289.79 0854.42
2009/04/23 13:21:55.2      33     37    147     50    155  41.4  81.2  34166  289.69 0854.42
2009/04/23 13:21:55.3      32     39    163     51    170  39.6  81.8  34168  289.72 0854.42
2009/04/23 13:21:55.4     254    164    106    303    322  57.1  19.4  34176  289.83 0854.40
2009/04/23 13:21:55.6      48    179    145    186    235  15.1  42.0  34134  289.14 0854.40
2009/04/23 13:21:55.7     205    -68    239    217    322 108.4  53.2  34176  289.85 0854.40
2009/04/23 13:21:55.8     189    -33    182    192    264 100.1  48.5  34174  289.80 0854.40
2009/04/23 13:21:55.9     225      0    178    226    287  90.0  42.2  34172  289.76 0854.40
2009/04/23 13:21:56.0     133    -84    158    158    223 122.5  50.1  34174  289.80 0854.40
2009/04/23 13:21:56.1      38    -46    236     61    243 140.4  85.4  34166  289.67 0854.40
2009/04/23 13:21:56.2      62      0    193     63    203  90.9  81.0  34172  289.77 0854.40
2009/04/23 13:21:56.3     108    -15    297    110    316  97.9  78.9  34184  289.98 0854.40
2009/04/23 13:21:56.4     115     39    143    122    187  70.9  55.4  34188  290.04 0854.40
2009/04/23 13:21:56.5     135    -79     41    157    163 120.2  14.7  34184  289.97 0854.40
2009/04/23 13:21:56.6    -151   -280    289    319    430 208.3  46.9  34182  289.94 0854.40
2009/04/23 13:21:56.7     -60   -338    302    344    457 190.1  45.8  34174  289.80 0854.40
2009/04/23 13:21:56.8     -86   -368    319    378    494 193.2  44.4  34172  289.77 0854.40
2009/04/23 13:21:56.9     -89   -338    331    350    481 194.8  48.4  34184  289.97 0854.40
2009/04/23 13:21:57.0    -119   -256    337    283    440 204.9  55.8  34182  289.96 0854.40
2009/04/23 13:21:57.1    -119   -202    193    235    304 210.5  43.7  34184  289.97 0854.40
2009/04/23 13:21:57.2     -99    -93    183    136    228 226.8  60.0  34186  290.01 0854.40
2009/04/23 13:21:57.3      44   -116    174    125    214 159.1  60.8  34178  289.87 0854.40
2009/04/23 13:21:57.4      15   -198    209    199    288 175.5  51.4  34172  289.78 0854.40
2009/04/23 13:21:57.5    -142   -371     83    398    407 201.0  11.8  34162  289.60 0854.40
2009/04/23 13:21:57.6    -152   -398    234    427    486 201.0  31.0  34172  289.76 0854.40
2009/04/23 13:21:57.7    -122   -455     98    472    483 195.1  11.8  34174  289.81 0854.40
2009/04/23 13:21:57.8    -245   -315     87    400    410 217.9  12.4  34164  289.65 0854.40
2009/04/23 13:21:57.9      10   -214    232    215    316 177.3  52.5  34168  289.71 0854.40
2009/04/23 13:21:58.0     132   -354     90    378    389 159.5  13.5  34172  289.77 0854.40
2009/04/23 13:21:58.1     171   -356    116    396    413 154.3  16.4  34170  289.73 0854.40
2009/04/23 13:21:58.2      57   -270    123    277    303 168.0  25.7  34170  289.75 0854.40
2009/04/23 13:21:58.3     -51   -271    190    276    335 190.7  37.9  34172  289.76 0854.40
2009/04/23 13:21:58.4    -127   -382    105    403    417 198.5  14.7  34174  289.80 0854.40
2009/04/23 13:21:58.5     -62   -363     96    369    382 189.7  14.6  34166  289.67 0854.40
2009/04/23 13:21:58.6     -38   -290    -53    293    298 187.6 -10.3  34174  289.81 0854.40
2009/04/23 13:21:58.7     -56   -148    -76    159    176 200.9 -31.6  34176  289.84 0854.40
2009/04/23 13:21:58.8     -40   -199    -99    204    226 191.6 -31.7  34172  289.79 0854.40
2009/04/23 13:21:58.9     -89   -156    -71    180    193 209.9 -26.9  34176  289.85 0854.40
2009/04/23 13:21:59.0     -54   -149     29    159    162 200.0  10.6  34172  289.79 0854.40
2009/04/23 13:21:59.1    -376   -203    103    428    441 241.6  13.5  34168  289.70 0854.40
2009/04/23 13:21:59.2    -436   -147   -158    461    488 251.3 -19.0  34146  289.32 0854.40
2009/04/23 13:21:59.3    -679   -129    -53    692    694 259.2  -4.4  34168  289.71 0854.40
2009/04/23 13:21:59.4    -375    -13     56    376    381 268.0   8.5  34178  289.87 0854.40
2009/04/23 13:21:59.5    -305     43    135    309    337 278.1  25.1  34176  289.83 0854.41
2009/04/23 13:21:59.6    -306   -306    153    433    459 225.0  20.2  34176  289.83 0854.41
2009/04/23 13:21:59.7    -339   -314     35    463    465 227.2   4.3  34174  289.80 0854.41
2009/04/23 13:21:59.8    -372   -235    -92    441    451 237.7 -11.8  34174  289.80 0854.41
2009/04/23 13:21:59.9    -240   -192     32    308    310 231.3   6.0  34176  289.83 0854.41
2009/04/23 13:22:00.0     -12   -429    179    430    465 181.6  23.9  34174  289.80 0854.41
2009/04/23 13:22:00.1     172   -459    132    491    509 159.4  15.1  34168  289.71 0854.41
2009/04/23 13:22:00.2     200   -487    185    527    559 157.7  19.4  34172  289.77 0854.41
2009/04/23 13:22:00.3     203   -399    282    448    529 153.0  35.3  34170  289.74 0854.41
2009/04/23 13:22:00.4      82   -286    191    298    353 164.0  35.6  34172  289.77 0854.41
2009/04/23 13:22:00.5      35   -180    162    184    245 168.9  45.8  34174  289.80 0854.41
2009/04/23 13:22:00.6     -25   -241    282    243    372 186.0  54.9  34172  289.77 0854.41
2009/04/23 13:22:00.7      16   -251    217    252    332 176.2  45.2  34176  289.83 0854.41
2009/04/23 13:22:00.8     -84   -243    234    258    348 199.2  47.0  34172  289.76 0854.41
2009/04/23 13:22:00.9     -97   -181    234    206    311 208.3  54.0  34166  289.68 0854.41
2009/04/23 13:22:01.0     -81     -7    115     82    141 264.8  60.6  34174  289.82 0854.41
2009/04/23 13:22:01.1       4     58    111     59    125   4.5  69.8  34176  289.85 0854.41
2009/04/23 13:22:01.2     -24   -136    173    139    221 190.2  56.9  34172  289.79 0854.41
2009/04/23 13:22:01.3     -96    -90    172    132    216 226.8  58.7  34176  289.84 0854.41
2009/04/23 13:22:01.4       0     28     81     29     86   0.9  80.2  34172  289.79 0854.41
2009/04/23 13:22:01.5      53    -13     86     55    102 104.2  64.7  34168  289.72 0854.40
2009/04/23 13:22:01.6     117    -31    -96    122    155 105.0 -47.1  34174  289.82 0854.40
2009/04/23 13:22:01.7      91    -96    -76    133    153 136.7 -36.8  34172  289.77 0854.40
2009/04/23 13:22:01.8     127   -139     36    189    193 137.5  11.0  34170  289.75 0854.40
2009/04/23 13:22:01.9     155   -232    -25    280    282 146.2  -5.2  34172  289.76 0854.40
2009/04/23 13:22:02.0     138   -188      3    234    235 143.7   0.8  34170  289.73 0854.40
2009/04/23 13:22:02.1     251   -135    -47    286    290 118.4  -9.4  34178  289.86 0854.40
2009/04/23 13:22:02.2     245   -106    -33    268    271 113.5  -7.2  34174  289.80 0854.40
2009/04/23 13:22:02.3     247    -86    -20    262    263 109.3  -4.6  34174  289.80 0854.40
2009/04/23 13:22:02.4     273    -34    -38    276    279  97.1  -8.0  34172  289.76 0854.40
2009/04/23 13:22:02.5     291    -30     25    293    295  96.1   4.9  34170  289.75 0854.40
2009/04/23 13:22:02.6     270    -37    127    273    301  97.9  27.0  34172  289.78 0854.40
2009/04/23 13:22:02.7     281     87    -50    295    300  72.7  -9.8  34170  289.75 0854.40
2009/04/23 13:22:02.8     294     77    -16    305    306  75.2  -3.1  34176  289.83 0854.40
2009/04/23 13:22:02.9     270     76      4    281    282  74.1   0.8  34174  289.80 0854.40
2009/04/23 13:22:03.0     264     44     -1    268    269  80.5  -0.3  34168  289.70 0854.40
2009/04/23 13:22:03.1     259     -3     46    260    265  90.8  10.0  34174  289.80 0854.40
2009/04/23 13:22:03.2     136     17    159    138    210  82.5  54.6  34170  289.74 0854.40
2009/04/23 13:22:03.3      58      0    134     59    146  90.0  75.0  34176  289.84 0854.40
2009/04/23 13:22:03.4      99    -11    167    100    194  96.6  66.2  34174  289.80 0854.40
2009/04/23 13:22:03.5     187    -40    189    192    269 102.2  49.9  34176  289.85 0854.38
2009/04/23 13:22:03.6     247    -33    184    250    310  97.7  39.7  34174  289.80 0854.38
2009/04/23 13:22:03.7     289     17    155    290    328  86.5  30.3  34172  289.76 0854.38
2009/04/23 13:22:03.8     184      1    218    185    285  89.6  55.4  34178  289.86 0854.38
2009/04/23 13:22:03.9     217    -18    168    218    275  94.8  41.7  34174  289.81 0854.38
2009/04/23 13:22:04.0     142    -99    120    174    211 124.9  37.6  34178  289.89 0854.38
2009/04/23 13:22:04.1      48    -48    172     68    184 135.0  77.4  34176  289.85 0854.38
2009/04/23 13:22:04.2      93     18    230     95    248  78.5  76.6  34172  289.79 0854.38
2009/04/23 13:22:04.3      80    -66    240    104    261 129.5  75.3  34178  289.87 0854.38
2009/04/23 13:22:04.4     -47    -98    259    109    281 205.9  76.0  34180  289.92 0854.38
2009/04/23 13:22:04.5     -47    -57    206     75    219 219.7  79.2  34178  289.89 0854.38
2009/04/23 13:22:04.6    -103     -9    212    104    236 264.8  71.9  34180  289.92 0854.38
2009/04/23 13:22:04.7      79     83    216    115    244  43.7  69.9  34176  289.84 0854.38
2009/04/23 13:22:04.8     -42     66    248     79    260 327.4  81.8  34180  289.91 0854.38
2009/04/23 13:22:04.9     -51   -171    205    179    272 196.7  54.3  34170  289.75 0854.38
2009/04/23 13:22:05.0    -165   -246    237    297    379 213.8  42.7  34180  289.91 0854.38
2009/04/23 13:22:05.1    -146   -177    290    230    370 219.6  57.7  34186  290.01 0854.38
2009/04/23 13:22:05.2    -105   -249    338    271    433 202.8  57.3  34174  289.81 0854.38
2009/04/23 13:22:05.3     -73   -219    271    231    356 198.5  55.3  34184  289.97 0854.38
2009/04/23 13:22:05.4      17    -83    238     85    252 168.0  79.9  34178  289.89 0854.38
2009/04/23 13:22:05.5      -1    -96    233     97    252 180.9  76.1  34180  289.92 0854.38
2009/04/23 13:22:05.6     -73   -144    220    162    273 207.1  60.3  34178  289.86 0854.38
2009/04/23 13:22:05.7     -27    -87    155     92    180 197.4  66.8  34186  290.02 0854.38
2009/04/23 13:22:05.8    -184    -60     64    194    205 251.8  18.4  34180  289.92 0854.38
2009/04/23 13:22:05.9    -210      0    -24    211    213 270.0  -6.7  34188  290.06 0854.38
2009/04/23 13:22:06.0    -227    101     92    249    265 294.0  21.0  34188  290.05 0854.38
2009/04/23 13:22:06.1    -166    223     74    279    289 323.3  15.0  34194  290.15 0854.38
2009/04/23 13:22:06.2    -193    247    107    314    333 321.9  18.9  34202  290.29 0854.38
2009/04/23 13:22:06.3    -270    301     38    405    407 318.1   5.5  34190  290.07 0854.38
2009/04/23 13:22:06.4    -270    137    -92    303    316 297.0 -21.9  34178  289.86 0854.38
2009/04/23 13:22:06.5    -392     67    -46    398    401 279.7  -6.7  34170  289.74 0854.38
2009/04/23 13:22:06.6    -387    198    164    435    464 297.1  21.6  34194  290.16 0854.38
2009/04/23 13:22:06.7    -293    125     69    319    327 293.1  12.3  34188  290.03 0854.38
2009/04/23 13:22:06.8    -137    287    150    319    352 334.5  27.1  34194  290.16 0854.38
2009/04/23 13:22:06.9     -21    278      3    279    280 355.5   0.7  34190  290.07 0854.38
2009/04/23 13:22:07.0      91     58    -27    109    113  57.5 -13.9  34194  290.16 0854.38
2009/04/23 13:22:07.1      42    -88    -22     98    101 154.5 -12.9  34184  289.99 0854.38
2009/04/23 13:22:07.2     -80    -53     33     97    103 236.3  18.9  34178  289.89 0854.38
2009/04/23 13:22:07.3     -72    -73     49    103    114 224.5  27.3  34182  289.94 0854.38
2009/04/23 13:22:07.4     -57     15      6     60     61 285.0   5.9  34180  289.92 0854.38
2009/04/23 13:22:07.5     -54     78     40     95    103 325.3  23.6  34182  289.96 0854.37
2009/04/23 13:22:07.6      16     -3    152     17    152 101.5  90.0  34190  290.08 0854.37
2009/04/23 13:22:07.7      30      3    132     31    135  83.9  87.0  34194  290.14 0854.37
2009/04/23 13:22:07.8     117   -159    185    198    270 143.5  47.9  34192  290.12 0854.37
2009/04/23 13:22:07.9     -21   -312    125    313    337 184.0  23.0  34176  289.84 0854.37
2009/04/23 13:22:08.0       6   -391    102    392    406 179.1  14.6  34178  289.86 0854.37
2009/04/23 13:22:08.1     105   -390    140    405    429 164.9  19.1  34184  289.97 0854.37
2009/04/23 13:22:08.2     197   -404    144    450    473 154.0  17.8  34174  289.81 0854.37
2009/04/23 13:22:08.3      59   -356    131    361    385 170.6  19.9  34172  289.77 0854.37
2009/04/23 13:22:08.4      -4   -312    102    313    330 180.9  18.2  34174  289.81 0854.37
2009/04/23 13:22:08.5     -34   -280     70    283    292 187.1  13.9  34174  289.80 0854.37
2009/04/23 13:22:08.6    -116   -245     59    272    279 205.4  12.4  34174  289.80 0854.37
2009/04/23 13:22:08.7    -111   -188     17    219    220 210.7   4.6  34172  289.79 0854.37
2009/04/23 13:22:08.8    -202   -215     -1    296    297 223.2  -0.3  34176  289.83 0854.37
2009/04/23 13:22:08.9     -69   -283     19    292    293 193.8   3.9  34174  289.81 0854.37
2009/04/23 13:22:09.0     -66   -295    146    303    336 192.7  27.4  34176  289.85 0854.37
2009/04/23 13:22:09.1    -368   -333    -73    497    503 227.8  -8.4  34162  289.62 0854.37
2009/04/23 13:22:09.2    -233   -434    215    493    537 208.2  25.2  34170  289.75 0854.37
2009/04/23 13:22:09.3    -488   -339     39    595    597 235.2   3.8  34158  289.54 0854.37
2009/04/23 13:22:09.4    -287   -166    -12    332    333 240.0  -2.2  34178  289.86 0854.37
2009/04/23 13:22:09.5    -236    -69    109    247    269 253.6  25.3  34176  289.85 0854.38
2009/04/23 13:22:09.6      15     64    171     66    183  13.4  78.2  34182  289.94 0854.38
2009/04/23 13:22:09.7     -22   -178    249    180    307 187.3  60.6  34178  289.88 0854.38
2009/04/23 13:22:09.8      -8   -109    200    110    228 184.4  68.8  34172  289.79 0854.38
2009/04/23 13:22:09.9      50   -139    273    148    310 160.0  68.9  34178  289.88 0854.38
2009/04/23 13:22:10.0     120   -317    251    340    422 159.2  40.1  34174  289.82 0854.38
2009/04/23 13:22:10.1     222   -339    106    406    420 146.7  14.7  34180  289.92 0854.38
2009/04/23 13:22:10.2     139   -368    253    394    468 159.2  35.6  34172  289.78 0854.38
2009/04/23 13:22:10.3     147   -371    168    400    433 158.3  24.2  34176  289.85 0854.38
2009/04/23 13:22:10.4     258   -304    142    399    423 139.7  20.3  34180  289.92 0854.38
2009/04/23 13:22:10.5     196   -240    201    311    370 140.8  35.7  34178  289.89 0854.38
2009/04/23 13:22:10.6     255   -259    216    364    423 135.5  33.5  34180  289.90 0854.38
2009/04/23 13:22:10.7     213   -264    224    340    407 141.0  36.5  34178  289.86 0854.38
2009/04/23 13:22:10.8     180   -242    131    302    329 143.3  25.0  34172  289.78 0854.38
2009/04/23 13:22:10.9     255   -176    254    310    400 124.6  43.6  34178  289.89 0854.38
2009/04/23 13:22:11.0     198   -232    248    306    393 139.5  43.3  34174  289.82 0854.38
2009/04/23 13:22:11.1      82    -64    167    105    197 128.2  64.7  34184  289.99 0854.38
2009/04/23 13:22:11.2     108    -36    240    115    266 108.6  72.8  34182  289.96 0854.38
2009/04/23 13:22:11.3     161   -159    155    227    274 134.8  37.6  34178  289.88 0854.38
2009/04/23 13:22:11.4     160   -183    228    244    333 138.8  47.9  34180  289.92 0854.38
2009/04/23 13:22:11.5     324   -366    309    489    578 138.5  35.5  34182  289.94 0854.36
2009/04/23 13:22:11.6     216   -266    341    343    483 140.9  50.0  34178  289.88 0854.36
2009/04/23 13:22:11.7     144   -130    239    195    308 132.2  56.4  34178  289.86 0854.36
2009/04/23 13:22:11.8     283   -253    221    380    439 131.8  32.9  34178  289.87 0854.36
2009/04/23 13:22:11.9     129   -326    214    351    411 158.4  34.3  34176  289.84 0854.36
2009/04/23 13:22:12.0     232   -407    160    469    496 150.2  18.9  34176  289.84 0854.36
2009/04/23 13:22:12.1     113   -378     75    395    403 163.4  10.8  34164  289.64 0854.36
2009/04/23 13:22:12.2      55   -460    316    464    561 173.1  37.6  34170  289.75 0854.36
2009/04/23 13:22:12.3       0   -529    352    530    636 180.0  36.7  34174  289.81 0854.36
2009/04/23 13:22:12.4     -38   -444    197    446    487 185.0  25.3  34172  289.78 0854.36
2009/04/23 13:22:12.5    -148   -408    154    435    462 200.0  19.6  34176  289.85 0854.36
2009/04/23 13:22:12.6    -224   -319    -28    391    392 215.1  -4.1  34172  289.77 0854.36
2009/04/23 13:22:12.7    -300    -81   -154    311    347 254.9 -32.6  34172  289.79 0854.36
2009/04/23 13:22:12.8    -179   -174    -89    250    266 225.8 -19.6  34168  289.71 0854.36
2009/04/23 13:22:12.9      14   -191     27    192    194 175.5   8.0  34170  289.75 0854.36
2009/04/23 13:22:13.0      79   -187    100    204    227 157.1  27.8  34170  289.75 0854.36
2009/04/23 13:22:13.1     105    -65    171    124    211 122.0  60.5  34166  289.67 0854.36
2009/04/23 13:22:13.2    -108     72    116    131    174 303.7  46.2  34176  289.85 0854.36
2009/04/23 13:22:13.3    -158     71    131    174    217 294.2  40.7  34170  289.75 0854.36
2009/04/23 13:22:13.4    -162     60    109    173    204 290.4  35.5  34178  289.87 0854.36
2009/04/23 13:22:13.5      46    175    100    182    207  14.9  31.4  34172  289.77 0854.37
2009/04/23 13:22:13.6      25    183     65    185    197   7.8  19.4  34172  289.79 0854.37
2009/04/23 13:22:13.7     -14     82     60     84    103 350.2  39.1  34176  289.85 0854.37
2009/04/23 13:22:13.8     -32     50    -21     60     63 327.5 -23.3  34174  289.82 0854.37
2009/04/23 13:22:13.9    -146      6    -57    147    157 272.6 -26.7  34174  289.80 0854.37
2009/04/23 13:22:14.0    -240      0   -137    241    277 270.0 -36.7  34176  289.85 0854.37
2009/04/23 13:22:14.1    -236     19   -181    237    298 274.8 -45.8  34174  289.80 0854.37
2009/04/23 13:22:14.2    -127    -13    -34    128    133 263.8 -15.0  34176  289.84 0854.37
2009/04/23 13:22:14.3    -126    -17      1    128    129 262.1   0.7  34174  289.82 0854.37
2009/04/23 13:22:14.4     -69    -48   -109     85    138 234.9 -62.8  34174  289.82 0854.37
2009/04/23 13:22:14.5     -35    -82    -48     90    102 203.2 -35.2  34176  289.84 0854.37
2009/04/23 13:22:14.6      56    -26      3     62     63 115.2   2.9  34174  289.80 0854.37
2009/04/23 13:22:14.7      22     26     -1     35     36  39.7  -2.2  34178  289.87 0854.37
2009/04/23 13:22:14.8     -47    124     82    133    156 339.1  35.5  34174  289.82 0854.37
2009/04/23 13:22:14.9    -175   -122      6    214    215 235.1   1.8  34180  289.91 0854.37
2009/04/23 13:22:15.0    -409   -126     24    429    430 252.8   3.2  34184  289.99 0854.37
2009/04/23 13:22:15.1    -610    -36     52    612    615 266.6   4.9  34168  289.71 0854.37
2009/04/23 13:22:15.2    -657      2   -171    658    680 270.2 -14.6  34168  289.70 0854.37
2009/04/23 13:22:15.3    -585   -277    -18    648    649 244.6  -1.6  34168  289.72 0854.37
2009/04/23 13:22:15.4    -578   -212     74    617    622 249.8   6.9  34180  289.91 0854.35
2009/04/23 13:22:15.5    -443   -356     79    569    575 231.2   7.9  34164  289.63 0854.35
2009/04/23 13:22:15.6    -339   -164     49    377    381 244.1   7.4  34178  289.86 0854.35
2009/04/23 13:22:15.7    -208   -136   -105    249    270 236.7 -28.6  34178  289.86 0854.35
2009/04/23 13:22:15.8    -306   -121    166    330    369 248.3  28.7  34172  289.76 0854.35
2009/04/23 13:22:15.9    -449    -55    221    453    504 262.9  27.9  34180  289.91 0854.35
2009/04/23 13:22:16.0    -350   -275    197    446    487 231.8  25.3  34174  289.81 0854.35
2009/04/23 13:22:16.1    -317   -167    271    359    449 242.3  40.8  34170  289.73 0854.35
2009/04/23 13:22:16.2    -335   -126    171    359    397 249.3  27.3  34178  289.87 0854.35
2009/04/23 13:22:16.3     111    -60    347    127    369 118.4  79.2  34174  289.81 0854.35
2009/04/23 13:22:16.4     331   -370    397    497    636 138.2  42.7  34176  289.83 0854.33
2009/04/23 13:22:16.5     294   -128    388    322    504 113.6  56.3  34170  289.73 0854.33
2009/04/23 13:22:16.6     265   -359    396    447    597 143.5  45.9  34172  289.77 0854.33
2009/04/23 13:22:16.7      70   -510    429    515    670 172.1  44.1  34162  289.62 0854.33
2009/04/23 13:22:16.8     -16   -406    341    407    530 182.3  44.2  34164  289.64 0854.33
2009/04/23 13:22:16.9    -171   -473    186    504    537 200.0  21.0  34166  289.67 0854.33
2009/04/23 13:22:17.0    -178   -540    -60    569    573 198.3  -6.1  34164  289.64 0854.33
2009/04/23 13:22:17.1     -93   -542   -121    551    565 189.8 -12.4  34166  289.67 0854.33
2009/04/23 13:22:17.2      70   -494   -109    500    513 171.9 -12.4  34158  289.54 0854.33
2009/04/23 13:22:17.3     220   -327   -212    395    448 146.1 -35.1  34166  289.66 0854.33
2009/04/23 13:22:17.4     144   -219   -191    263    325 146.6 -44.1  34168  289.71 0854.33
2009/04/23 13:22:17.5       0   -132    -46    133    141 180.0 -19.1  34168  289.72 0854.33
2009/04/23 13:22:17.6      81      6    134     82    157  85.2  65.7  34162  289.60 0854.33
2009/04/23 13:22:17.7    -210   -179    251    277    373 229.6  46.9  34152  289.43 0854.33
2009/04/23 13:22:17.8    -242   -388     67    458    463 212.0   8.3  34164  289.63 0854.33
2009/04/23 13:22:17.9      -1   -319     35    320    323 180.2   6.4  34164  289.64 0854.33
2009/04/23 13:22:18.0     -15   -203    297    204    360 184.5  62.5  34162  289.61 0854.33
2009/04/23 13:22:18.1    -157   -423     84    452    460 200.4  10.6  34166  289.66 0854.33
2009/04/23 13:22:18.2    -241   -427     99    491    501 209.5  11.5  34162  289.62 0854.33
2009/04/23 13:22:18.3    -205   -400     12    450    451 207.2   1.6  34162  289.61 0854.33
2009/04/23 13:22:18.4    -171   -455    113    487    501 200.6  13.1  34164  289.64 0854.29
2009/04/23 13:22:18.5    -371   -479    -12    606    607 217.8  -1.2  34160  289.58 0854.29
2009/04/23 13:22:18.6    -613   -279   -122    674    685 245.5 -10.3  34148  289.36 0854.29
2009/04/23 13:22:18.7    -551   -167    -11    577    578 253.1  -1.2  34136  289.15 0854.29
2009/04/23 13:22:18.8    -209   -538    204    578    612 201.3  20.2  34160  289.58 0854.29
2009/04/23 13:22:18.9     102   -720    199    728    755 171.9  15.3  34154  289.48 0854.29
2009/04/23 13:22:19.0     158   -603    238    624    667 165.3  22.0  34154  289.48 0854.29
2009/04/23 13:22:19.1     118   -654    329    665    741 169.8  28.4  34158  289.54 0854.29
2009/04/23 13:22:19.2      90   -626    240    633    676 171.8  21.7  34156  289.49 0854.29
2009/04/23 13:22:19.3     -31   -286    234    288    371 186.3  43.4  34154  289.47 0854.29
2009/04/23 13:22:19.4     -35    -23    272     43    275 236.7  90.0  34168  289.70 0854.29
2009/04/23 13:22:19.5      22    -92    231     95    249 166.2  76.3  34158  289.55 0854.29
2009/04/23 13:22:19.6      96   -453     57    464    468 168.0   7.1  34160  289.57 0854.29
2009/04/23 13:22:19.7      93   -546     33    554    556 170.3   3.5  34160  289.57 0854.29
2009/04/23 13:22:19.8     -38   -443     -2    445    446 185.0  -0.3  34156  289.51 0854.29
2009/04/23 13:22:19.9       2   -236    -43    237    241 179.3 -10.4  34152  289.42 0854.29
2009/04/23 13:22:20.0    -131   -277     92    307    321 205.3  16.8  34160  289.58 0854.29
2009/04/23 13:22:20.1    -182   -206    100    276    293 221.5  20.9  34160  289.58 0854.29
2009/04/23 13:22:20.2    -181   -261    118    318    339 214.7  21.3  34162  289.59 0854.29
2009/04/23 13:22:20.3     -62   -313     70    320    328 191.2  12.5  34162  289.61 0854.29
2009/04/23 13:22:20.4    -101   -413    150    426    452 193.8  19.5  34158  289.55 0854.30
2009/04/23 13:22:20.5    -157   -329     70    365    372 205.6  11.0  34162  289.59 0854.30
2009/04/23 13:22:20.6    -241   -297    -91    383    394 219.1 -13.4  34158  289.55 0854.30
2009/04/23 13:22:20.7    -201   -377   -115    428    444 208.1 -15.1  34158  289.53 0854.30
2009/04/23 13:22:20.8    -168   -370     56    407    411 204.5   7.9  34158  289.55 0854.30
2009/04/23 13:22:20.9    -220   -383     75    443    450 209.9   9.7  34158  289.55 0854.30
2009/04/23 13:22:21.0     -63   -540     83    544    551 186.7   8.7  34158  289.53 0854.30
2009/04/23 13:22:21.1    -183   -468    136    503    522 201.4  15.2  34164  289.64 0854.30
2009/04/23 13:22:21.2    -182   -538     74    569    574 198.7   7.4  34160  289.56 0854.30
2009/04/23 13:22:21.4    -115   -572    -18    584    585 191.4  -1.8  34160  289.56 0854.30
2009/04/23 13:22:21.5     -58   -529    -96    533    542 186.3 -10.3  34162  289.60 0854.30
2009/04/23 13:22:21.6     -71   -459    -58    465    469 188.9  -7.2  34166  289.66 0854.30
2009/04/23 13:22:21.7     -10   -496     46    497    500 181.2   5.3  34158  289.54 0854.30
2009/04/23 13:22:21.8      -2   -482     79    483    490 180.3   9.3  34162  289.61 0854.30
2009/04/23 13:22:21.9     -51   -401     69    405    411 187.4   9.7  34162  289.61 0854.30
2009/04/23 13:22:22.0    -125   -327     22    351    352 200.9   3.6  34164  289.64 0854.30
2009/04/23 13:22:22.1      57   -303     35    309    311 169.3   6.5  34162  289.61 0854.30
2009/04/23 13:22:22.2      89   -251    140    267    301 160.4  30.1  34160  289.58 0854.30
2009/04/23 13:22:22.3      67   -226    179    236    296 163.5  40.9  34164  289.64 0854.30
2009/04/23 13:22:22.4      -1   -157    118    158    197 180.5  40.4  34162  289.62 0854.30
2009/04/23 13:22:22.5     -24   -126     84    129    153 191.1  35.6  34164  289.63 0854.34
2009/04/23 13:22:22.6     -19    -91     47     94    105 192.0  28.2  34164  289.65 0854.34
2009/04/23 13:22:22.7    -110   -107      7    154    155 225.6   2.8  34162  289.62 0854.34
2009/04/23 13:22:22.8     -75    -52     70     92    115 235.4  41.2  34168  289.70 0854.34
2009/04/23 13:22:22.9     -27    -71     61     77     98 200.9  43.3  34168  289.70 0854.34
2009/04/23 13:22:23.0     -31    -48     43     58     72 212.6  39.7  34166  289.69 0854.34
2009/04/23 13:22:23.1     -33    -70      6     78     79 205.3   4.9  34164  289.65 0854.34
2009/04/23 13:22:23.2      -5    -74    -15     75     77 184.5 -11.3  34166  289.69 0854.34
2009/04/23 13:22:23.3      23    -72    -28     76     81 161.7 -25.4  34162  289.62 0854.34
2009/04/23 13:22:23.4      45    -39     -3     60     61 131.3  -3.1  34168  289.70 0854.34
2009/04/23 13:22:23.5       1    -33     23     34     41 177.3  37.6  34168  289.72 0854.34
2009/04/23 13:22:23.6     -51     61     23     80     84 320.4  16.3  34164  289.65 0854.34
2009/04/23 13:22:23.7      -4     58     52     59     78 355.6  46.4  34168  289.70 0854.34
2009/04/23 13:22:23.8     -15     -1     65     16     66 265.7  85.9  34172  289.79 0854.34
2009/04/23 13:22:23.9      -3     42     70     43     82 355.5  65.7  34174  289.80 0854.34
2009/04/23 13:22:24.0       0     16     87     17     88   0.9  89.1  34174  289.80 0854.34
2009/04/23 13:22:24.1      57     26    124     63    139  65.6  71.0  34168  289.70 0854.34
2009/04/23 13:22:24.2       2    -25    154     26    156 173.8  90.0  34174  289.80 0854.34
2009/04/23 13:22:24.3     223   -101    235    245    339 114.4  48.8  34166  289.66 0854.34
2009/04/23 13:22:24.4     254   -186    249    316    402 126.2  42.3  34166  289.69 0854.34
2009/04/23 13:22:24.5     282   -179    251    335    418 122.5  40.6  34168  289.72 0854.37
2009/04/23 13:22:24.6     422   -277    145    505    526 123.3  16.0  34172  289.77 0854.37
2009/04/23 13:22:24.7     274   -505    246    575    625 151.5  24.6  34162  289.59 0854.37
2009/04/23 13:22:24.8     250   -511    318    569    651 153.9  31.6  34172  289.76 0854.37
2009/04/23 13:22:24.9     319   -393    179    507    538 140.9  19.5  34172  289.77 0854.37
2009/04/23 13:22:25.0     195   -628    139    658    673 162.7  12.0  34164  289.65 0854.37
2009/04/23 13:22:25.1     195   -465    166    505    532 157.3  18.2  34172  289.77 0854.37
2009/04/23 13:22:25.2     146   -480    118    502    516 163.1  13.2  34158  289.54 0854.37
2009/04/23 13:22:25.3      43   -513    360    516    629 175.1  38.4  34166  289.66 0854.37
2009/04/23 13:22:25.4     -13   -518    215    519    561 181.5  23.9  34168  289.72 0854.37
2009/04/23 13:22:25.5      53   -479     93    482    492 173.7  11.0  34172  289.79 0854.37
2009/04/23 13:22:25.6      96   -430    142    441    464 167.4  17.9  34174  289.82 0854.37
2009/04/23 13:22:25.7      78   -456    167    463    493 170.3  19.9  34176  289.83 0854.37
2009/04/23 13:22:25.8     -35   -451    172    453    484 184.5  21.7  34178  289.89 0854.37
2009/04/23 13:22:25.9     -69   -346    110    353    370 191.4  17.3  34168  289.71 0854.37
2009/04/23 13:22:26.0      83   -309    -29    321    323 164.9  -5.2  34170  289.73 0854.37
2009/04/23 13:22:26.1      41   -256     -5    260    261 170.9  -1.3  34166  289.66 0854.37
2009/04/23 13:22:26.2     -76   -382     41    390    393 191.3   6.1  34172  289.79 0854.37
2009/04/23 13:22:26.3    -259   -520    -59    582    586 206.5  -5.8  34178  289.86 0854.37
2009/04/23 13:22:26.4    -468   -499    -45    685    687 223.1  -3.8  34174  289.82 0854.37
2009/04/23 13:22:26.5    -311   -509    -23    597    598 211.4  -2.2  34176  289.85 0854.40
2009/04/23 13:22:26.6    -154   -404    156    433    460 201.0  20.7  34156  289.49 0854.40
2009/04/23 13:22:26.7       0   -203    232    204    308 180.2  54.3  34176  289.85 0854.40
2009/04/23 13:22:26.8     104   -110    214    152    262 136.8  61.3  34182  289.94 0854.40
2009/04/23 13:22:26.9     341   -188    178    390    428 118.9  26.2  34174  289.80 0854.40
2009/04/23 13:22:27.0     319   -219    116    388    406 124.5  16.7  34172  289.79 0854.40
2009/04/23 13:22:27.1     411   -224    178    469    501 118.6  21.8  34180  289.91 0854.40
2009/04/23 13:22:27.2     332   -173      7    375    376 117.5   1.2  34178  289.89 0854.40
2009/04/23 13:22:27.3     208   -153     91    259    275 126.2  19.4  34180  289.90 0854.40
2009/04/23 13:22:27.4      81   -235     10    249    250 160.8   2.3  34178  289.88 0854.40
2009/04/23 13:22:27.5      52   -109     60    121    135 154.5  28.2  34174  289.80 0854.40
2009/04/23 13:22:27.6       0   -104    206    105    231 179.5  71.1  34168  289.72 0854.40
2009/04/23 13:22:27.7    -111    -68    126    131    181 238.5  49.0  34176  289.84 0854.40
2009/04/23 13:22:27.8      60   -173     44    184    190 160.8  13.5  34176  289.84 0854.40
2009/04/23 13:22:27.9     149      0    165    150    222  90.0  52.7  34178  289.87 0854.40
2009/04/23 13:22:28.0     194      0    119    195    228  90.0  34.4  34178  289.87 0854.40
2009/04/23 13:22:28.1     185   -240    222    304    376 142.4  39.7  34178  289.86 0854.40
2009/04/23 13:22:28.2     121   -418    197    436    478 163.9  26.0  34172  289.78 0854.40
2009/04/23 13:22:28.3      27   -347    271    349    441 175.5  41.7  34176  289.83 0854.40
2009/04/23 13:22:28.4     330   -405    249    523    579 140.8  27.3  34176  289.84 0854.40
2009/04/23 13:22:28.5     284   -274    161    395    426 134.0  23.4  34176  289.85 0854.42
2009/04/23 13:22:28.6     292   -414    107    507    519 144.8  12.0  34176  289.84 0854.42
2009/04/23 13:22:28.7     312   -354     29    473    474 138.6   3.6  34180  289.91 0854.42
2009/04/23 13:22:28.8     314   -477    141    572    590 146.6  13.9  34172  289.76 0854.42
2009/04/23 13:22:28.9     274   -234    310    361    475 130.6  45.1  34172  289.78 0854.42
2009/04/23 13:22:29.0     366   -185    -69    411    417 116.8  -9.6  34178  289.87 0854.42
2009/04/23 13:22:29.1     261   -315    -18    410    411 140.4  -2.6  34172  289.77 0854.42
2009/04/23 13:22:29.2     329   -100    -13    345    346 107.0  -2.2  34182  289.93 0854.42
2009/04/23 13:22:29.3     211    -43    -55    216    223 101.5 -14.3  34176  289.85 0854.42
2009/04/23 13:22:29.4     130    -82     21    154    156 122.4   7.8  34176  289.85 0854.42
2009/04/23 13:22:29.5     -12   -238     93    239    256 182.9  22.5  34180  289.92 0854.42
2009/04/23 13:22:29.6      -7   -207     45    208    213 182.0  12.4  34180  289.92 0854.42
2009/04/23 13:22:29.7     -70   -329    142    337    365 192.0  24.2  34178  289.86 0854.42
2009/04/23 13:22:29.8      16   -357    131    358    381 177.3  20.9  34178  289.86 0854.42
2009/04/23 13:22:29.9       3   -192     -7    193    194 178.9  -2.2  34182  289.96 0854.42
2009/04/23 13:22:30.0     -57    -12    -60     59     84 257.6 -54.1  34182  289.96 0854.42
2009/04/23 13:22:30.1    -134     44    -12    142    143 288.2  -5.2  34178  289.87 0854.42
2009/04/23 13:22:30.2     -48    102     78    114    138 334.6  37.6  34180  289.92 0854.42
2009/04/23 13:22:30.3     -33    168     82    172    190 348.9  27.3  34176  289.85 0854.42
2009/04/23 13:22:30.4      57    239     27    246    248  13.4   6.5  34178  289.88 0854.42
2009/04/23 13:22:30.5     102    177     90    205    223  30.1  25.1  34180  289.92 0854.46
2009/04/23 13:22:30.6     162     83    228    183    292  62.9  57.3  34186  290.00 0854.46
2009/04/23 13:22:30.7     113     25    189    116    221  77.2  65.4  34182  289.94 0854.46
2009/04/23 13:22:30.8     202    -19    222    203    300  95.5  52.7  34180  289.92 0854.46
2009/04/23 13:22:30.9      55    -93    297    109    316 149.3  79.2  34160  289.56 0854.46
2009/04/23 13:22:31.0     408    -84    337    417    536 101.7  43.3  34176  289.83 0854.46
2009/04/23 13:22:31.1     452    -56    308    456    550  97.1  37.4  34178  289.89 0854.46
2009/04/23 13:22:31.2     582    -48    243    585    633  94.8  23.9  34180  289.92 0854.46
2009/04/23 13:22:31.3     630   -143    268    647    700 102.8  23.7  34182  289.95 0854.46
2009/04/23 13:22:31.4     361   -298    258    469    535 129.5  31.3  34178  289.86 0854.46
2009/04/23 13:22:31.5     437   -231    247    495    553 117.9  28.6  34182  289.94 0854.46
2009/04/23 13:22:31.6     182   -567    317    596    675 162.2  30.2  34178  289.87 0854.46
2009/04/23 13:22:31.7     269   -591    257    650    698 155.5  22.9  34176  289.83 0854.46
2009/04/23 13:22:31.8     467   -530    264    707    754 138.6  21.4  34176  289.84 0854.46
2009/04/23 13:22:31.9     337   -307    137    457    478 132.3  16.7  34174  289.81 0854.46
2009/04/23 13:22:32.0      69   -354   -119    361    380 168.9 -23.7  34178  289.86 0854.46
2009/04/23 13:22:32.1    -126   -289     62    316    323 203.6  11.1  34178  289.86 0854.46
2009/04/23 13:22:32.2    -317   -231    145    393    418 233.9  21.1  34180  289.92 0854.46
2009/04/23 13:22:32.3     -45   -328    295    332    444 187.9  46.1  34178  289.87 0854.46
2009/04/23 13:22:32.4      56   -450    243    454    514 172.8  30.5  34182  289.95 0854.46
2009/04/23 13:22:32.5      41   -417     98    420    432 174.3  13.2  34178  289.88 0854.45
2009/04/23 13:22:32.6     218   -235    319    321    452 137.2  49.9  34182  289.94 0854.45
2009/04/23 13:22:32.7     268   -429    403    507    647 148.0  42.6  34182  289.93 0854.45
2009/04/23 13:22:32.8      70   -707    304    711    773 174.3  24.6  34182  289.95 0854.45
2009/04/23 13:22:32.9     268   -749    232    796    830 160.3  16.3  34178  289.86 0854.45
2009/04/23 13:22:33.0     303   -700    145    763    777 156.6  10.8  34172  289.76 0854.45
2009/04/23 13:22:33.1     319   -666    178    739    761 154.4  13.6  34178  289.89 0854.45
2009/04/23 13:22:33.2     249   -561    191    614    643 156.0  17.3  34184  289.99 0854.45
2009/04/23 13:22:33.3     156   -531    282    554    621 163.6  29.2  34182  289.95 0854.45
2009/04/23 13:22:33.4     202   -546    414    583    715 159.7  38.8  34186  290.02 0854.45
2009/04/23 13:22:33.5     168   -536    384    562    680 162.6  37.7  34178  289.89 0854.45
2009/04/23 13:22:33.6     179   -639    -21    664    665 164.3  -1.9  34174  289.82 0854.45
2009/04/23 13:22:33.7     201   -500     65    540    544 158.1   6.9  34174  289.80 0854.45
2009/04/23 13:22:33.8     265   -496   -132    563    579 151.9 -13.3  34186  290.02 0854.45
2009/04/23 13:22:33.9     279   -295   -203    407    454 136.6 -32.9  34176  289.85 0854.45
2009/04/23 13:22:34.0     347     23   -203    348    402  86.2 -37.3  34184  289.98 0854.45
2009/04/23 13:22:34.1     291     90   -196    305    362  72.7 -40.0  34188  290.03 0854.45
2009/04/23 13:22:34.2     170    148   -194    226    297  48.9 -49.3  34188  290.05 0854.45
2009/04/23 13:22:34.3     232   -128   -218    265    343 118.9 -48.1  34186  290.00 0854.45
2009/04/23 13:22:34.4     155   -279    -12    320    321 151.0  -2.2  34184  289.98 0854.45
2009/04/23 13:22:34.5     230    -96    -86    250    265 112.7 -19.1  34178  289.86 0854.44
2009/04/23 13:22:34.6     221   -128    182    256    314 120.2  39.1  34182  289.95 0854.44
2009/04/23 13:22:34.7     292    -89    162    306    346 107.1  30.2  34184  289.98 0854.44
2009/04/23 13:22:34.8     272      9    120    273    298  88.1  25.1  34186  290.00 0854.44
2009/04/23 13:22:34.9     227     18    109    228    252  85.4  27.3  34184  289.98 0854.44
2009/04/23 13:22:35.0     246   -133    147    280    316 118.4  30.0  34186  290.00 0854.44
2009/04/23 13:22:35.1     120   -327     25    349    350 159.8   4.2  34188  290.04 0854.44
2009/04/23 13:22:35.2     198   -226     41    301    304 138.8   7.8  34180  289.92 0854.44
2009/04/23 13:22:35.3    -135   -417   -148    439    464 197.9 -18.7  34186  290.00 0854.44
2009/04/23 13:22:35.4     -54   -403   -203    407    454 187.7 -32.9  34176  289.85 0854.44
2009/04/23 13:22:35.5    -228   -184    -48    294    298 231.1  -9.3  34182  289.95 0854.44
2009/04/23 13:22:35.6    -242    101    -89    263    278 292.6 -18.7  34190  290.07 0854.44
2009/04/23 13:22:35.7     104     48   -117    115    164  65.2 -54.5  34186  290.02 0854.44
2009/04/23 13:22:35.8     295    118     18    318    319  68.2   3.2  34186  290.00 0854.44
2009/04/23 13:22:35.9     256    -42    -92    260    277  99.5 -19.6  34186  290.02 0854.44
2009/04/23 13:22:36.0     297   -164   -100    340    355 119.0 -16.5  34182  289.96 0854.44
2009/04/23 13:22:36.1     373    -40     11    376    377  96.3   1.8  34184  289.98 0854.44
2009/04/23 13:22:36.2     288    -38    147    291    326  97.7  28.9  34184  289.97 0854.44
2009/04/23 13:22:36.3     208   -122    125    242    272 120.4  29.3  34186  290.00 0854.44
2009/04/23 13:22:36.4     345   -123     75    367    375 109.7  11.6  34182  289.93 0854.44
2009/04/23 13:22:36.5     250   -108    125    273    300 113.5  26.2  34182  289.95 0854.45
2009/04/23 13:22:36.6     306   -461   -168    554    578 146.4 -21.7  34182  289.93 0854.45
2009/04/23 13:22:36.7     488   -455     19    668    669 133.0   1.7  34184  289.97 0854.45
2009/04/23 13:22:36.8     481   -359    122    601    614 126.8  11.5  34188  290.05 0854.45
2009/04/23 13:22:36.9     322   -272    163    422    452 130.2  22.3  34186  290.00 0854.45
2009/04/23 13:22:37.0     200   -250     99    321    337 141.3  17.2  34182  289.96 0854.45
2009/04/23 13:22:37.1     297   -326    117    442    458 137.7  14.9  34186  290.00 0854.45
2009/04/23 13:22:37.2     103   -312    160    329    365 161.6  27.7  34186  290.01 0854.45
2009/04/23 13:22:37.3     147   -231    107    275    295 147.5  22.5  34180  289.90 0854.45
2009/04/23 13:22:37.4      73   -359    177    367    407 168.4  27.7  34182  289.96 0854.45
2009/04/23 13:22:37.5      -6   -309     72    310    319 181.1  13.1  34186  290.00 0854.45
2009/04/23 13:22:37.6     -78   -291    -74    302    312 195.1 -13.9  34186  290.02 0854.45
2009/04/23 13:22:37.7       0   -304   -130    305    331 180.0 -28.7  34186  290.00 0854.45
2009/04/23 13:22:37.8       7   -305    -86    306    317 178.6 -20.4  34188  290.03 0854.45
2009/04/23 13:22:37.9      54   -345   -111    350    367 171.1 -22.8  34188  290.04 0854.45
2009/04/23 13:22:38.0      20   -334   -105    335    352 176.5 -17.5  34192  290.11 0854.45
2009/04/23 13:22:38.1      33   -474    -61    476    480 176.0  -7.3  34188  290.03 0854.45
2009/04/23 13:22:38.2      12   -346     71    347    355 178.0  11.6  34178  289.87 0854.45
2009/04/23 13:22:38.3     141   -139    211    199    290 134.7  52.1  34182  289.93 0854.45
2009/04/23 13:22:38.4      97   -500    147    510    531 169.0  16.1  34186  290.02 0854.45
2009/04/23 13:22:38.5     143   -403     24    428    429 160.4   3.3  34188  290.04 0854.45
2009/04/23 13:22:38.6     113   -448     73    462    468 165.8   9.0  34192  290.10 0854.45
2009/04/23 13:22:38.7      16   -421     32    422    424 177.8   4.3  34190  290.09 0854.45
2009/04/23 13:22:38.8      62   -520    -15    524    525 173.2  -1.7  34188  290.06 0854.45
2009/04/23 13:22:38.9      45   -396   -152    399    426 173.4 -26.4  34184  289.97 0854.45
2009/04/23 13:22:39.0     -21   -409   -105    410    424 183.0 -14.4  34194  290.14 0854.45
2009/04/23 13:22:39.1      47   -553    -49    556    559 175.1  -5.1  34190  290.09 0854.45
2009/04/23 13:22:39.2      15   -492      7    493    494 178.2   0.8  34192  290.12 0854.45
2009/04/23 13:22:39.3      62   -538    168    542    568 173.4  17.3  34186  290.02 0854.45
2009/04/23 13:22:39.4     -45   -532     21    535    536 184.9   2.3  34190  290.09 0854.45
2009/04/23 13:22:39.5     -29   -528    -20    529    530 183.2  -2.2  34174  289.82 0854.35
2009/04/23 13:22:39.6     -96   -290    -70    306    314 198.5 -12.9  34184  289.98 0854.35
2009/04/23 13:22:39.7     -11   -366    241    367    439 181.8  36.5  34180  289.92 0854.35
2009/04/23 13:22:39.8     -34   -534    324    536    626 183.7  34.1  34186  290.02 0854.35
2009/04/23 13:22:39.9      51   -462    311    465    559 173.7  37.0  34188  290.04 0854.35
2009/04/23 13:22:40.0      69   -522    321    527    617 172.4  34.4  34194  290.14 0854.35
2009/04/23 13:22:40.1     148   -268    292    307    423 151.1  48.5  34188  290.06 0854.35
2009/04/23 13:22:40.2      37   -143    233    148    276 165.3  64.7  34196  290.17 0854.35
2009/04/23 13:22:40.3    -120    -72    129    141    191 238.9  47.5  34182  289.96 0854.35
2009/04/23 13:22:40.4     106    106    286    151    323  45.0  70.3  34180  289.92 0854.35
2009/04/23 13:22:40.5    -154     68    222    169    279 294.0  59.0  34192  290.12 0854.35
2009/04/23 13:22:40.6    -260     10    229    261    347 272.4  45.8  34184  289.98 0854.35
2009/04/23 13:22:40.7    -197     79    270    213    343 291.8  57.7  34190  290.07 0854.35
2009/04/23 13:22:40.8      -8    -48    286     49    290 189.8  90.0  34194  290.15 0854.35
2009/04/23 13:22:40.9    -205   -118    241    237    338 240.0  50.6  34186  290.00 0854.35
2009/04/23 13:22:41.0      18    -35    202     40    205 152.8  89.1  34192  290.13 0854.35
2009/04/23 13:22:41.1     -36   -131    203    137    244 195.6  62.7  34190  290.09 0854.35
2009/04/23 13:22:41.2    -137    -54     52    148    157 248.3  19.4  34188  290.06 0854.35
2009/04/23 13:22:41.3    -156    -95    -64    183    193 238.7 -23.8  34182  289.96 0854.35
2009/04/23 13:22:41.4    -540     44     84    542    549 274.7   8.9  34190  290.07 0854.32
2009/04/23 13:22:41.5    -334    -86    -37    345    348 255.5  -6.2  34192  290.13 0854.32
2009/04/23 13:22:41.6    -315   -104    -70    332    340 251.6 -12.0  34196  290.18 0854.32
2009/04/23 13:22:41.7    -106   -152    -34    186    190 215.0 -10.5  34192  290.11 0854.32
2009/04/23 13:22:41.8     -81   -124     51    149    158 213.0  18.9  34190  290.09 0854.32
2009/04/23 13:22:41.9      -3   -144    -29    145    148 181.4 -11.3  34192  290.13 0854.32
2009/04/23 13:22:42.0     -72   -102    148    125    193 215.2  56.1  34190  290.09 0854.32
2009/04/23 13:22:42.1    -248     -3     48    249    254 269.2  11.0  34190  290.09 0854.32
2009/04/23 13:22:42.2    -270     40     11    274    275 278.6   2.3  34194  290.15 0854.32
2009/04/23 13:22:42.3    -160   -100    -37    189    193 238.0 -11.3  34190  290.09 0854.32
2009/04/23 13:22:42.4     -91    -58     74    108    130 237.5  37.6  34196  290.18 0854.32
2009/04/23 13:22:42.5     -46   -118    106    127    165 201.4  44.3  34196  290.18 0854.32
2009/04/23 13:22:42.6     -45   -264     13    268    269 189.8   2.9  34190  290.07 0854.32
2009/04/23 13:22:42.7    -264   -329     88    422    432 218.7  11.8  34194  290.16 0854.32
2009/04/23 13:22:42.8    -302   -238     30    385    387 231.7   4.5  34200  290.25 0854.32
2009/04/23 13:22:42.9    -236   -389    133    456    476 211.3  16.3  34190  290.08 0854.32
2009/04/23 13:22:43.0    -268   -369    230    457    511 216.0  28.7  34188  290.06 0854.32
2009/04/23 13:22:43.1      16   -359    261    360    444 177.4  39.5  34186  290.00 0854.32
2009/04/23 13:22:43.2      88   -401    222    411    467 167.5  30.8  34188  290.05 0854.32
2009/04/23 13:22:43.3     -49   -276    210    281    350 190.2  40.4  34200  290.25 0854.32
2009/04/23 13:22:43.4      88   -286    241    300    384 162.8  43.1  34192  290.13 0854.30
2009/04/23 13:22:43.5     -76   -376    114    384    401 191.6  16.6  34192  290.13 0854.30
2009/04/23 13:22:43.6     -39   -388    115    391    408 185.8  16.4  34190  290.08 0854.30
2009/04/23 13:22:43.7     -22   -291     34    292    294 184.4   6.7  34196  290.17 0854.30
2009/04/23 13:22:43.8     118   -373    -46    392    395 162.4  -6.8  34192  290.13 0854.30
2009/04/23 13:22:43.9      59   -332    -22    338    339 169.9  -3.7  34194  290.16 0854.30
2009/04/23 13:22:44.0     162   -261      4    308    309 148.1   0.8  34194  290.15 0854.30
2009/04/23 13:22:44.1     156   -275     35    317    319 150.4   6.4  34198  290.20 0854.30
2009/04/23 13:22:44.2     235   -281     96    367    380 140.0  14.7  34196  290.18 0854.30
2009/04/23 13:22:44.3     235   -197     60    307    313 130.0  11.1  34198  290.20 0854.30
2009/04/23 13:22:44.4     345   -234    281    418    503 124.2  37.1  34196  290.17 0854.30
2009/04/23 13:22:44.5     395   -313    281    504    577 128.4  31.4  34186  290.02 0854.30
2009/04/23 13:22:44.6     391   -256    359    468    589 123.3  41.4  34188  290.06 0854.30
2009/04/23 13:22:44.7     514   -155    199    537    572 106.8  21.4  34194  290.16 0854.30
2009/04/23 13:22:44.8     335   -165     53    374    378 116.3   8.1  34192  290.10 0854.30
2009/04/23 13:22:44.9     367   -189   -100    413    426 117.3 -13.7  34188  290.05 0854.30
2009/04/23 13:22:45.0     232   -106     94    256    272 114.6  21.0  34186  290.00 0854.30
2009/04/23 13:22:45.1     133   -417    218    438    489 162.2  28.5  34190  290.08 0854.30
2009/04/23 13:22:45.2     173   -459    296    491    573 159.3  34.0  34186  290.02 0854.30
2009/04/23 13:22:45.3      12   -379    152    380    409 178.1  23.0  34188  290.03 0854.30
2009/04/23 13:22:45.4      -8   -490    153    491    515 181.0  17.3  34188  290.03 0854.27
2009/04/23 13:22:45.5     -37   -223     -4    227    228 189.6  -1.2  34192  290.13 0854.27
2009/04/23 13:22:45.6      79   -156    -50    176    184 153.0 -16.0  34190  290.09 0854.27
2009/04/23 13:22:45.7     185   -103     82    212    227 119.1  22.5  34190  290.08 0854.27
2009/04/23 13:22:45.8     251   -109     92    274    290 113.5  18.6  34188  290.05 0854.27
2009/04/23 13:22:45.9     264    -67    104    273    292 104.4  21.7  34194  290.15 0854.27
2009/04/23 13:22:46.0     157   -118     87    197    215 126.9  25.3  34196  290.18 0854.27
2009/04/23 13:22:46.1      87   -184     24    204    206 154.6   6.7  34190  290.08 0854.27
2009/04/23 13:22:46.2     -14   -184     -3    185    186 184.5  -1.2  34188  290.04 0854.27
2009/04/23 13:22:46.3      95   -107     29    144    148 138.5  11.6  34192  290.13 0854.27
2009/04/23 13:22:46.4      66   -158    122    172    210 157.3  39.1  34194  290.14 0854.27
2009/04/23 13:22:46.5     229   -119    -87    259    274 117.5 -18.6  34192  290.12 0854.27
2009/04/23 13:22:46.6     153   -221     93    270    286 145.3  19.2  34192  290.10 0854.27
2009/04/23 13:22:46.7     216   -128      7    252    253 120.7   1.7  34196  290.19 0854.27
2009/04/23 13:22:46.8     190   -215    123    288    313 138.6  24.5  34186  290.02 0854.27
2009/04/23 13:22:46.9     209   -199    101    289    307 133.6  19.4  34192  290.12 0854.27
2009/04/23 13:22:47.0     194   -194     82    275    288 134.9  16.6  34194  290.14 0854.27
2009/04/23 13:22:47.1     -22   -163    115    165    201 187.8  38.4  34192  290.13 0854.27
2009/04/23 13:22:47.2      23   -156    166    158    229 171.5  51.6  34198  290.21 0854.27
2009/04/23 13:22:47.3      21     89    107     92    141  13.4  54.8  34196  290.19 0854.27
2009/04/23 13:22:47.4      57     65    131     87    157  41.0  63.4  34200  290.25 0854.24
2009/04/23 13:22:47.5      95    133    175    164    239  35.6  52.1  34196  290.18 0854.24
2009/04/23 13:22:47.6      89     42    154     99    183  64.6  64.6  34200  290.26 0854.24
2009/04/23 13:22:47.7      72     54     94     90    130  53.1  51.2  34198  290.21 0854.24
2009/04/23 13:22:47.8     -17     27     64     33     72 327.5  71.9  34200  290.25 0854.24
2009/04/23 13:22:47.9      25   -107     72    111    132 166.6  35.6  34198  290.21 0854.24
2009/04/23 13:22:48.1     206     82     95    222    241  68.3  24.3  34192  290.12 0854.24
2009/04/23 13:22:48.2     238     48    262    243    357  78.5  52.3  34198  290.20 0854.24
2009/04/23 13:22:48.3      76     25    250     81    262  71.6  81.6  34198  290.23 0854.24
2009/04/23 13:22:48.4      99    -53    307    113    327 118.4  79.0  34204  290.31 0854.24
2009/04/23 13:22:48.5      14    -83    285     85    297 170.2  82.8  34200  290.26 0854.24
2009/04/23 13:22:48.6      72    -64    312     97    326 131.3  82.1  34186  290.00 0854.24
2009/04/23 13:22:48.7    -139   -375    213    401    454 200.4  30.3  34192  290.11 0854.24
2009/04/23 13:22:48.8     -93   -318    117    332    353 196.4  19.4  34198  290.20 0854.24
2009/04/23 13:22:48.9    -158   -210    -31    264    266 217.0  -6.7  34196  290.19 0854.24
2009/04/23 13:22:49.0    -126    -80    -98    150    179 237.5 -40.7  34198  290.23 0854.24
2009/04/23 13:22:49.1      12      0    -98     13     98  94.4 -90.0  34194  290.14 0854.24
2009/04/23 13:22:49.2     149     62     68    162    175  67.2  24.1  34194  290.14 0854.24
2009/04/23 13:22:49.3     140     44    130    147    196  72.3  45.9  34200  290.25 0854.24
2009/04/23 13:22:49.4     112     33    153    117    192  73.6  59.0  34200  290.25 0854.24
2009/04/23 13:22:49.5      -2    152     59    153    163 359.1  22.0  34200  290.25 0854.25
2009/04/23 13:22:49.6     -28    150     44    153    160 349.3  16.0  34198  290.23 0854.25
2009/04/23 13:22:49.7     130    168     10    213    214  37.8   2.8  34194  290.16 0854.25
2009/04/23 13:22:49.8     168    188     59    253    260  41.7  13.1  34202  290.29 0854.25
2009/04/23 13:22:49.9     169     86    103    190    216  62.9  30.8  34202  290.28 0854.25
2009/04/23 13:22:50.0      63     55    125     84    150  48.7  63.2  34202  290.28 0854.25
2009/04/23 13:22:50.1     137    137     38    194    198  45.0  11.1  34202  290.30 0854.25
2009/04/23 13:22:50.2     -49     93    -21    106    109 332.4 -11.5  34204  290.31 0854.25
2009/04/23 13:22:50.3     -69     34      0     77     78 296.2  -0.3  34202  290.30 0854.25
2009/04/23 13:22:50.4     -32     98    -33    104    109 341.7 -23.3  34198  290.21 0854.25
2009/04/23 13:22:50.5    -143     42    -60    150    161 286.4 -27.4  34202  290.30 0854.25
2009/04/23 13:22:50.6    -126    -37    -64    132    146 253.6 -31.7  34206  290.36 0854.25
2009/04/23 13:22:50.7    -107   -123    -79    164    182 221.0 -31.7  34208  290.40 0854.25
2009/04/23 13:22:50.8    -120   -217    -36    249    252 209.0  -8.2  34204  290.32 0854.25
2009/04/23 13:22:50.9    -122   -247     -8    276    277 206.3  -1.8  34206  290.34 0854.25
2009/04/23 13:22:51.0       6   -249    -89    250    266 178.6 -19.6  34204  290.32 0854.25
2009/04/23 13:22:51.1    -135   -166    -39    215    219 219.2 -10.5  34194  290.14 0854.25
2009/04/23 13:22:51.2     -67   -228    -22    238    240 196.5  -5.4  34202  290.29 0854.25
2009/04/23 13:22:51.3    -102   -243     22    264    266 202.9   4.9  34200  290.24 0854.25
2009/04/23 13:22:51.4    -153   -205     20    257    258 216.7   4.6  34202  290.27 0854.25
2009/04/23 13:22:51.5    -139   -171     43    221    226 219.2  11.0  34202  290.30 0854.20
2009/04/23 13:22:51.6    -178   -166     66    244    253 227.1  15.2  34204  290.32 0854.20
2009/04/23 13:22:51.7    -207    -83     -8    224    225 248.0  -2.1  34196  290.18 0854.20
2009/04/23 13:22:51.8    -235     20    -84    236    251 275.0 -19.6  34184  289.98 0854.20
2009/04/23 13:22:51.9    -295     45    -50    299    304 278.8  -9.6  34182  289.93 0854.20
2009/04/23 13:22:52.0    -193    -64     61    204    214 251.6  16.8  34186  290.02 0854.20
2009/04/23 13:22:52.1    -208    -25     10    210    211 263.0   2.9  34192  290.13 0854.20
2009/04/23 13:22:52.2    -194    -64    108    205    231 251.6  29.8  34194  290.14 0854.20
2009/04/23 13:22:52.3    -180    -86     90    200    219 244.2  25.9  34194  290.14 0854.20
2009/04/23 13:22:52.4    -159    -61     85    171    190 248.9  28.2  34198  290.21 0854.20
2009/04/23 13:22:52.5     -31   -118     91    123    153 195.1  39.7  34198  290.21 0854.20
2009/04/23 13:22:52.6     -75   -148    115    167    202 207.0  37.6  34200  290.25 0854.20
2009/04/23 13:22:52.7     -82   -159    118    180    215 207.4  36.3  34198  290.21 0854.20
2009/04/23 13:22:52.8     -66   -173     89    186    206 200.9  27.3  34198  290.23 0854.20
2009/04/23 13:22:52.9     -38   -143    105    149    182 195.1  38.6  34198  290.23 0854.20
2009/04/23 13:22:53.0      -6   -196     92    197    217 181.8  27.0  34194  290.16 0854.20
2009/04/23 13:22:53.1      13   -294    108    295    314 177.4  21.0  34184  289.98 0854.20
2009/04/23 13:22:53.2      15   -246     87    247    261 176.4  20.0  34184  289.97 0854.20
2009/04/23 13:22:53.3     -59   -239    143    247    285 194.0  32.9  34184  289.97 0854.20
2009/04/23 13:22:53.4     -17   -231    136    232    268 184.4  33.1  34188  290.03 0854.20
2009/04/23 13:22:53.5      33   -143    131    147    196 166.7  46.4  34184  289.99 0854.24
2009/04/23 13:22:53.6      12   -158    174    159    235 175.6  53.2  34192  290.11 0854.24
2009/04/23 13:22:53.7      90   -174    181    196    266 152.6  47.7  34190  290.09 0854.24
2009/04/23 13:22:53.8      59   -210    119    219    249 164.2  30.8  34198  290.20 0854.24
2009/04/23 13:22:53.9      99   -180     89    206    224 151.3  24.9  34196  290.18 0854.24
2009/04/23 13:22:54.0     111   -120     60    164    174 137.2  20.4  34196  290.18 0854.24
2009/04/23 13:22:54.1     153   -153     75    217    230 135.0  19.2  34194  290.16 0854.24
2009/04/23 13:22:54.2     316   -201     30    375    377 122.5   4.6  34194  290.15 0854.24
2009/04/23 13:22:54.3     193   -218     14    292    293 138.5   2.8  34190  290.09 0854.24
2009/04/23 13:22:54.4     180    -45    151    186    239 104.2  43.3  34194  290.14 0854.24
2009/04/23 13:22:54.5     149    -35    132    154    202 103.2  45.4  34190  290.08 0854.24
2009/04/23 13:22:54.6     194    -59    174    203    267 107.1  44.9  34192  290.10 0854.24
2009/04/23 13:22:54.7     223    -94     61    243    251 112.8  14.2  34192  290.10 0854.24
2009/04/23 13:22:54.8     176   -142    145    227    269 128.9  35.6  34186  290.02 0854.24
2009/04/23 13:22:54.9     199    -87    200    218    295 113.5  47.7  34188  290.05 0854.24
2009/04/23 13:22:55.0     235   -131    154    270    310 119.1  32.4  34194  290.14 0854.24
2009/04/23 13:22:55.1     120   -127    113    175    208 136.6  35.7  34194  290.14 0854.24
2009/04/23 13:22:55.2     136    -91    124    164    205 123.7  41.2  34194  290.16 0854.24
2009/04/23 13:22:55.3      89   -215    198    233    305 157.5  44.5  34190  290.07 0854.24
2009/04/23 13:22:55.4      98   -243    110    263    285 157.9  24.1  34192  290.10 0854.24
2009/04/23 13:22:55.5     134   -256    128    289    316 152.4  25.3  34188  290.03 0854.24
2009/04/23 13:22:55.6      19   -198    170    199    261 174.4  44.9  34190  290.09 0854.24
2009/04/23 13:22:55.7      49   -202    178    208    273 166.2  44.9  34192  290.12 0854.24
2009/04/23 13:22:55.8      69   -209    134    221    258 161.5  34.2  34194  290.14 0854.24
2009/04/23 13:22:55.9      71   -264    102    274    292 164.9  21.3  34192  290.10 0854.24
2009/04/23 13:22:56.0     107   -237    135    261    293 155.7  29.3  34190  290.09 0854.24
2009/04/23 13:22:56.1      73   -270    153    280    319 164.8  30.9  34192  290.12 0854.24
2009/04/23 13:22:56.2     151   -230    131    276    305 146.6  27.2  34190  290.07 0854.24
2009/04/23 13:22:56.3     123   -140    206    187    278 138.8  53.2  34194  290.15 0854.24
2009/04/23 13:22:56.4     144   -262    192    300    356 151.1  35.6  34192  290.13 0854.24
2009/04/23 13:22:56.5     103   -251    205    272    340 157.7  40.7  34192  290.10 0854.24
2009/04/23 13:22:56.6      79   -239    227    252    339 161.7  46.8  34194  290.14 0854.24
2009/04/23 13:22:56.7     -47   -192    186    198    271 193.8  48.0  34196  290.17 0854.24
2009/04/23 13:22:56.8      25   -208    168    210    268 172.9  43.0  34194  290.14 0854.24
2009/04/23 13:22:56.9      15   -232    108    233    256 176.2  26.6  34194  290.15 0854.24
2009/04/23 13:22:57.0       4   -221    170    222    279 178.9  41.6  34194  290.15 0854.24
2009/04/23 13:22:57.1      39   -212    160    216    268 169.5  40.1  34194  290.14 0854.24
2009/04/23 13:22:57.2      43   -210    147    215    260 168.4  37.6  34196  290.17 0854.24
2009/04/23 13:22:57.3      -1   -166    142    167    219 180.5  44.5  34196  290.19 0854.24
2009/04/23 13:22:57.4      33   -197    121    200    233 170.2  34.2  34194  290.16 0854.24
2009/04/23 13:22:57.5      23   -189    117    191    223 172.9  34.8  34192  290.13 0854.21
2009/04/23 13:22:57.6      15   -186    111    187    217 175.3  33.5  34194  290.14 0854.21
2009/04/23 13:22:57.7       6   -109     38    110    117 176.9  19.4  34196  290.18 0854.21
2009/04/23 13:22:57.8      23    -40     77     47     90 150.1  65.1  34190  290.09 0854.21
2009/04/23 13:22:57.9       8    -63     70     64     94 172.0  52.7  34194  290.16 0854.21
2009/04/23 13:22:58.0       0   -102     81    103    131 180.4  42.7  34192  290.11 0854.21
2009/04/23 13:22:58.1     -37   -153     72    158    173 193.8  26.4  34192  290.11 0854.21
2009/04/23 13:22:58.2     -62   -174     99    186    210 199.8  30.1  34198  290.23 0854.21
2009/04/23 13:22:58.3     -49   -147     89    156    179 198.7  32.1  34198  290.23 0854.21
2009/04/23 13:22:58.4      22   -176     58    178    188 172.7  18.1  34196  290.18 0854.21
2009/04/23 13:22:58.5      21   -156     76    158    175 172.0  27.4  34192  290.13 0854.28
2009/04/23 13:22:58.6     -12   -184     82    185    202 184.0  25.2  34196  290.18 0854.28
2009/04/23 13:22:58.7     -52   -202     98    209    230 194.7  27.1  34194  290.16 0854.28
2009/04/23 13:22:58.8      32   -258     46    261    266 172.9  10.1  34192  290.10 0854.28
2009/04/23 13:22:58.9      52   -285     57    290    296 169.5  11.1  34196  290.17 0854.28
2009/04/23 13:22:59.0      16   -255    -45    256    261 176.4 -10.1  34196  290.17 0854.28
2009/04/23 13:22:59.1      85   -180     20    200    202 154.6   5.9  34192  290.11 0854.28
2009/04/23 13:22:59.2      96   -159    -44    186    192 148.8 -13.3  34192  290.13 0854.28
2009/04/23 13:22:59.3     116   -162     20    200    202 144.4   5.9  34192  290.13 0854.28
2009/04/23 13:22:59.4     129   -167     33    212    215 142.4   9.0  34192  290.13 0854.28
2009/04/23 13:22:59.5     -54   -173     47    182    188 197.6  14.5  34192  290.13 0854.28
2009/04/23 13:22:59.6    -105   -165     88    196    214 212.6  25.9  34186  290.02 0854.28
2009/04/23 13:22:59.7     -62   -133    138    147    201 204.9  48.0  34192  290.11 0854.28
2009/04/23 13:22:59.8     -53   -142    176    152    232 200.5  54.8  34188  290.06 0854.28
2009/04/23 13:22:59.9      25    -17     96     31    100 124.2  81.2  34190  290.08 0854.28
2009/04/23 13:23:00.0     158    -67    127    172    213 113.1  39.9  34186  290.02 0854.28
2009/04/23 13:23:00.1     187   -103    145    214    258 118.8  37.4  34188  290.03 0854.28
2009/04/23 13:23:00.2     156   -129    181    203    271 129.6  46.6  34178  289.86 0854.28
2009/04/23 13:23:00.3     149    -82    108    171    202 118.9  35.5  34180  289.91 0854.28
2009/04/23 13:23:00.4      30   -142     67    146    160 168.0  26.2  34186  290.01 0854.28
2009/04/23 13:23:00.5      92   -131     36    161    166 144.8  12.6  34186  290.01 0854.31
2009/04/23 13:23:00.6      -6   -135    103    136    170 182.6  41.2  34184  289.97 0854.31
2009/04/23 13:23:00.7      -7   -202     45    203    209 182.0  12.6  34188  290.04 0854.31
2009/04/23 13:23:00.8      25   -182     17    184    185 172.0   5.4  34188  290.06 0854.31
2009/04/23 13:23:00.9      39   -154     -3    159    160 165.7  -1.3  34188  290.04 0854.31
2009/04/23 13:23:01.0      49   -172     -1    180    181 164.0  -0.5  34180  289.91 0854.31
2009/04/23 13:23:01.1     -10   -162     -6    163    164 183.8  -2.2  34184  289.99 0854.31
2009/04/23 13:23:01.2      -8   -199    -44    200    205 182.5 -12.6  34182  289.96 0854.31
2009/04/23 13:23:01.3      -6   -181     31    182    185 182.0   9.9  34182  289.94 0854.31
2009/04/23 13:23:01.4     -25   -196     38    198    202 187.3  11.1  34182  289.96 0854.31
2009/04/23 13:23:01.5      46   -213    124    219    251 167.7  32.3  34176  289.85 0854.31
2009/04/23 13:23:01.6     105   -181    134    210    249 149.9  35.6  34184  289.98 0854.31
2009/04/23 13:23:01.7      58   -234    152    242    285 166.0  35.5  34186  290.00 0854.31
2009/04/23 13:23:01.8      31   -188    190    191    269 170.4  50.0  34188  290.05 0854.31
2009/04/23 13:23:01.9       3   -136    208    137    249 178.6  63.6  34192  290.11 0854.31
2009/04/23 13:23:02.0      94    -54    133    109    171 120.2  56.4  34188  290.06 0854.31
2009/04/23 13:23:02.1     124    -59    137    138    194 115.3  50.5  34186  290.01 0854.31
2009/04/23 13:23:02.2      26      0     84     27     88  90.0  81.2  34190  290.08 0854.31
2009/04/23 13:23:02.3      -7   -140    133    141    193 183.1  48.5  34186  290.02 0854.31
2009/04/23 13:23:02.4     -69   -194    134    206    245 199.6  36.0  34186  290.00 0854.31
2009/04/23 13:23:02.5     -61   -183    150    194    245 198.5  41.7  34186  290.02 0854.33
2009/04/23 13:23:02.6     -11   -150    128    151    197 184.5  44.8  34186  290.01 0854.33
2009/04/23 13:23:02.7     -52   -179     50    187    194 196.3  15.0  34184  289.99 0854.33
2009/04/23 13:23:02.8     -62   -114     82    130    153 208.5  35.5  34184  289.99 0854.33
2009/04/23 13:23:02.9     -66    -91     77    113    136 216.1  37.4  34188  290.04 0854.33
2009/04/23 13:23:03.0     -30    -91     99     97    138 198.5  50.2  34188  290.04 0854.33
2009/04/23 13:23:03.1      25    -76     45     81     92 161.3  31.4  34186  290.01 0854.33
2009/04/23 13:23:03.2     -14    -59     24     61     65 193.4  23.0  34188  290.04 0854.33
2009/04/23 13:23:03.3      32     55     96     64    115  30.7  64.1  34190  290.09 0854.33
2009/04/23 13:23:03.4      60     73    127     95    158  39.7  59.4  34194  290.14 0854.33
2009/04/23 13:23:03.5      48     57     53     75     91  40.5  39.1  34194  290.14 0854.33
2009/04/23 13:23:03.6      60    -28     13     67     69 115.3  11.1  34192  290.11 0854.33
2009/04/23 13:23:03.7     -47    -77    132     91    160 211.6  62.1  34194  290.16 0854.33
2009/04/23 13:23:03.8      66     32    106     74    129  63.8  62.1  34192  290.13 0854.33
2009/04/23 13:23:03.9       0    -20    143     21    144 182.7  90.0  34192  290.11 0854.33
2009/04/23 13:23:04.0     -22     35    169     42    174 328.4  86.2  34194  290.14 0854.33
2009/04/23 13:23:04.1     -80     23    112     84    140 285.9  59.4  34194  290.14 0854.33
2009/04/23 13:23:04.2      50      3     66     51     83  86.5  58.5  34192  290.13 0854.33
2009/04/23 13:23:04.3     136    -18     57    138    149  97.9  23.1  34188  290.06 0854.33
2009/04/23 13:23:04.4      78    -55    141     96    170 125.1  62.6  34192  290.13 0854.33
2009/04/23 13:23:04.5      74    -19     75     77    107 105.1  50.0  34192  290.13 0854.34
2009/04/23 13:23:04.6      32    -68     33     76     82 154.5  24.6  34192  290.11 0854.34
2009/04/23 13:23:04.7      58   -102     68    118    136 150.1  33.4  34188  290.06 0854.34
2009/04/23 13:23:04.8      88    -98     69    133    149 138.1  29.3  34192  290.11 0854.34
2009/04/23 13:23:04.9      82   -119     96    145    173 145.3  36.3  34190  290.09 0854.34
2009/04/23 13:23:05.0     156    -74     68    173    185 115.5  22.5  34194  290.16 0854.34
2009/04/23 13:23:05.1     103    -54    124    117    170 118.0  52.0  34194  290.14 0854.34
2009/04/23 13:23:05.2     127    -70    121    146    189 118.8  43.8  34194  290.16 0854.34
2009/04/23 13:23:05.3     117    -79    110    142    179 124.2  41.7  34194  290.14 0854.34
2009/04/23 13:23:05.4     146    -48     90    154    178 108.2  32.9  34194  290.16 0854.34
2009/04/23 13:23:05.5     136     -5    137    137    193  92.5  50.1  34192  290.13 0854.34
2009/04/23 13:23:05.6      44      1    101     45    110  88.3  74.0  34198  290.23 0854.34
2009/04/23 13:23:05.7      97     44    125    107    164  65.6  55.0  34198  290.23 0854.34
2009/04/23 13:23:05.8       0     91     92     92    130 359.6  50.1  34242  290.96 0854.34
2009/04/23 13:23:05.9     114     27    123    118    170  76.7  50.9  34250  291.11 0854.34
2009/04/23 13:23:06.0     129     82    186    153    240  57.5  56.4  34296  291.88 0854.34
2009/04/23 13:23:06.1     144    118    160    187    246  50.7  44.8  34298  291.91 0854.34
2009/04/23 13:23:06.2     135    127    151    186    239  46.9  43.3  34290  291.77 0854.34
2009/04/23 13:23:06.3      94    155    117    182    216  31.4  35.6  34288  291.74 0854.34
2009/04/23 13:23:06.4      36    173    124    177    216  11.8  38.8  34282  291.66 0854.34
2009/04/23 13:23:06.5      61    137    120    151    192  24.1  42.7  34284  291.67 0854.39
2009/04/23 13:23:06.6     -21    139     95    141    170 351.1  37.3  34282  291.66 0854.39
2009/04/23 13:23:06.7      29     60    104     67    123  26.3  64.6  34284  291.67 0854.39
2009/04/23 13:23:06.8       7     50    104     51    115   8.9  72.8  34282  291.66 0854.39
2009/04/23 13:23:06.9      84     53     79    100    127  57.6  42.7  34260  291.28 0854.39
2009/04/23 13:23:07.0      75     78     52    109    120  44.1  27.2  34256  291.21 0854.39
2009/04/23 13:23:07.1      70     65     74     96    121  47.3  41.7  34254  291.16 0854.39
2009/04/23 13:23:07.2      56     43     49     71     86  52.2  38.0  34254  291.18 0854.39
2009/04/23 13:23:07.3       0     62     83     63    104   0.9  59.4  34254  291.16 0854.39
2009/04/23 13:23:07.4      -1    103    105    104    147 359.1  50.1  34278  291.57 0854.39
2009/04/23 13:23:07.5      19    136    128    138    188   8.1  47.9  34274  291.50 0854.39
2009/04/23 13:23:07.6      55    209    105    217    241  14.7  27.8  34276  291.55 0854.39
2009/04/23 13:23:07.7     149    197     98    248    266  37.2  23.0  34288  291.73 0854.39
2009/04/23 13:23:07.8     152    242     95    286    302  32.1  18.5  34298  291.92 0854.39
2009/04/23 13:23:07.9     107    156     41    190    195  34.5  12.4  34292  291.81 0854.39
2009/04/23 13:23:08.0    -130    174     32    218    221 323.3   8.5  34288  291.76 0854.39
2009/04/23 13:23:08.1    -211    180    105    278    297 310.4  21.7  34288  291.73 0854.39
2009/04/23 13:23:08.2    -193    147     94    243    260 307.3  22.1  34292  291.82 0854.39
2009/04/23 13:23:08.3    -210    179     98    277    295 310.4  19.6  34282  291.65 0854.39
2009/04/23 13:23:08.4    -172    226    115    285    307 322.8  23.1  34276  291.55 0854.39
2009/04/23 13:23:08.5    -156    200    122    254    281 322.1  27.4  34268  291.39 0854.44
2009/04/23 13:23:08.6    -116     91    134    148    199 308.2  46.9  34268  291.42 0854.44
2009/04/23 13:23:08.7     -67     55    114     87    143 309.5  59.0  34266  291.38 0854.44
2009/04/23 13:23:08.8      22     75    115     79    139  16.9  62.6  34262  291.32 0854.44
2009/04/23 13:23:08.9      91     55    165    107    196  58.5  64.1  34262  291.30 0854.44
2009/04/23 13:23:09.0       0     60    160     61    171   0.9  78.4  34256  291.21 0854.44
2009/04/23 13:23:09.1       6     44    101     45    110   8.0  74.0  34260  291.26 0854.44
2009/04/23 13:23:09.2     -13     92    138     94    166 351.5  62.6  34258  291.25 0854.44
2009/04/23 13:23:09.3      64     29    126     71    144  65.6  68.8  34262  291.30 0854.44
2009/04/23 13:23:09.4     143    100    163    175    239  55.1  47.9  34268  291.40 0854.44
2009/04/23 13:23:09.5     173     91    183    196    268  62.2  47.9  34266  291.38 0854.44
2009/04/23 13:23:09.6     170    164    146    237    278  46.0  34.4  34264  291.33 0854.44
2009/04/23 13:23:09.7     156    214    196    265    329  36.1  40.2  34268  291.41 0854.44
2009/04/23 13:23:09.8      31    285    233    287    369   6.3  43.5  34308  292.08 0854.44
2009/04/23 13:23:09.9     -69    243    180    253    310 344.0  38.8  34304  292.02 0854.44
2009/04/23 13:23:10.0     -10    357    117    358    377 358.3  18.1  34278  291.57 0854.44
2009/04/23 13:23:10.1     130    510     61    527    531  14.3   6.7  34230  290.77 0854.44
2009/04/23 13:23:10.2     108    479     87    492    500  12.8  10.1  34238  290.90 0854.44
2009/04/23 13:23:10.3     178    503     23    534    535  19.6   2.5  34256  291.20 0854.44
2009/04/23 13:23:10.4     135    542     17    559    560  14.0   1.8  34216  290.52 0854.46
2009/04/23 13:23:10.5     226    439     21    495    496  27.3   2.5  34282  291.66 0854.46
2009/04/23 13:23:10.6     220    372     37    433    435  30.7   5.0  34304  292.03 0854.46
2009/04/23 13:23:10.7     300    332     74    448    455  42.1   9.4  34264  291.35 0854.46
2009/04/23 13:23:10.8     315    275    105    419    433  48.8  14.2  34258  291.24 0854.46
2009/04/23 13:23:10.9     175    229    101    289    307  37.4  19.4  34220  290.58 0854.46
2009/04/23 13:23:11.0      61    275     88    282    296  12.5  17.4  34216  290.51 0854.46
2009/04/23 13:23:11.1      88    200     39    219    223  23.7  10.3  34202  290.30 0854.46
2009/04/23 13:23:11.2      91    256     74    272    283  19.6  15.3  34200  290.24 0854.46
2009/04/23 13:23:11.3     -49    326    -18    330    331 351.3  -3.3  34198  290.23 0854.46
2009/04/23 13:23:11.4     -38    408    -12    410    411 354.6  -1.7  34200  290.24 0854.46
2009/04/23 13:23:11.5     123    488    102    504    515  14.2  11.4  34218  290.54 0854.46
2009/04/23 13:23:11.6     269    295    272    400    483  42.3  37.4  34306  292.06 0854.46
2009/04/23 13:23:11.7     288    288    256    408    481  45.0  35.1  34306  292.06 0854.46
2009/04/23 13:23:11.8     342    267    196    435    477  52.0  25.9  34262  291.29 0854.46
2009/04/23 13:23:11.9     368    221    101    430    442  59.0  13.2  34248  291.07 0854.46
2009/04/23 13:23:12.0     237    225    159    327    363  46.5  27.8  34238  290.91 0854.46
2009/04/23 13:23:12.1     502    235    193    555    588  64.9  19.2  34260  291.26 0854.46
2009/04/23 13:23:12.2     291    332    -56    442    446  41.3  -7.3  34266  291.36 0854.46
2009/04/23 13:23:12.3     229    533    139    581    598  23.3  13.5  34286  291.72 0854.46
2009/04/23 13:23:12.4     309    684    196    751    777  24.3  14.6  34236  290.87 0854.47
2009/04/23 13:23:12.5     271    634     39    690    692  23.2   3.2  34198  290.22 0854.47
2009/04/23 13:23:12.6     408    303    169    509    537  53.4  18.4  34246  291.04 0854.47
2009/04/23 13:23:12.7     468    272    217    542    583  59.8  23.0  34242  290.97 0854.47
2009/04/23 13:23:12.8     452    443    261    634    685  45.6  23.6  34220  290.58 0854.47
2009/04/23 13:23:12.9     320    498    184    593    622  32.8  17.3  34232  290.80 0854.47
2009/04/23 13:23:13.0     429    266    150    505    527  58.2  16.6  34264  291.33 0854.47
2009/04/23 13:23:13.1     644    268     73    698    702  67.4   6.0  34228  290.73 0854.47
2009/04/23 13:23:13.2     704    234    270    742    789  71.6  20.9  34258  291.24 0854.47
2009/04/23 13:23:13.3     816    401    -84    910    915  63.8  -5.3  34238  290.89 0854.47
2009/04/23 13:23:13.4     917    435    119   1015   1022  64.6   6.7  34248  291.08 0854.47
2009/04/23 13:23:13.5     876    389     26    959    960  66.0   1.6  34212  290.45 0854.47
2009/04/23 13:23:13.6     919    152    -36    932    933  80.6  -2.2  34220  290.59 0854.47
2009/04/23 13:23:13.7     287    182    100    340    355  57.6  16.5  34202  290.27 0854.47
2009/04/23 13:23:13.8     296     19    -88    297    309  86.3 -21.7  34214  290.48 0854.47
2009/04/23 13:23:13.9     322     88   -147    334    364  74.7 -29.6  34202  290.27 0854.47
2009/04/23 13:23:14.0     224    367    -16    431    432  31.4  -2.2  34196  290.17 0854.47
2009/04/23 13:23:14.1     253    356   -131    437    457  35.4 -16.7  34190  290.07 0854.47
2009/04/23 13:23:14.3     308    335    -91    456    466  42.6 -11.3  34186  290.02 0854.47
2009/04/23 13:23:14.4     286    273    -71    396    403  46.4 -10.3  34188  290.03 0854.47
2009/04/23 13:23:14.5     278    348    -27    446    447  38.6  -3.5  34186  290.00 0854.48
2009/04/23 13:23:14.6     357    285    -21    457    458  51.4  -2.7  34188  290.05 0854.48
2009/04/23 13:23:14.7     360    198   -147    411    437  61.2 -19.8  34186  290.00 0854.48
2009/04/23 13:23:14.8     324    247   -186    408    448  52.6 -30.6  34190  290.09 0854.48
2009/04/23 13:23:14.9     289    294   -140    413    437  44.6 -18.7  34196  290.19 0854.48
2009/04/23 13:23:15.0     287    338     21    444    445  40.4   2.8  34194  290.14 0854.48
2009/04/23 13:23:15.1     250    366     63    444    449  34.3   8.1  34220  290.60 0854.48
2009/04/23 13:23:15.2     321    301     53    441    445  46.9   6.9  34230  290.77 0854.48
2009/04/23 13:23:15.3     300    300      5    425    426  45.0   0.7  34246  291.02 0854.48
2009/04/23 13:23:15.4     288    135     71    319    327  64.8  12.6  34246  291.02 0854.48
2009/04/23 13:23:15.5     533     74    -25    539    540  82.1  -2.7  34240  290.92 0854.48
2009/04/23 13:23:15.6     464    125    186    481    515  74.9  22.2  34250  291.10 0854.48
2009/04/23 13:23:15.7     298    280    166    409    441  46.8  23.2  34232  290.80 0854.48
2009/04/23 13:23:15.8     238    315    116    396    413  37.1  16.4  34232  290.78 0854.48
2009/04/23 13:23:15.9     204    312     33    373    375  33.2   5.1  34230  290.76 0854.48
2009/04/23 13:23:16.0     340    -60    198    346    398 100.0  32.4  34256  291.20 0854.48
2009/04/23 13:23:16.1     289    -58     88    295    308 101.4  16.7  34258  291.24 0854.48
2009/04/23 13:23:16.2     197     -7     31    198    201  92.1   9.0  34250  291.09 0854.48
2009/04/23 13:23:16.3     286     15    113    287    308  87.0  23.0  34258  291.22 0854.48
2009/04/23 13:23:16.4     157      2    156    158    222  89.1  50.0  34258  291.23 0854.48
2009/04/23 13:23:16.5      79     55    164     97    190  55.4  66.8  34254  291.18 0854.51
2009/04/23 13:23:16.6     -16      5    105     17    106 288.6  90.0  34260  291.26 0854.51
2009/04/23 13:23:16.7     120    -43    114    128    171 110.0  46.4  34256  291.21 0854.51
2009/04/23 13:23:16.8       7     22    124     24    126  18.3  89.6  34260  291.28 0854.51
2009/04/23 13:23:16.9      29     21     98     36    104  54.0  79.7  34258  291.23 0854.51
2009/04/23 13:23:17.0     145     11     95    146    174  85.6  35.7  34260  291.26 0854.51
2009/04/23 13:23:17.1     100     47    161    111    195  64.7  62.4  34264  291.33 0854.51
2009/04/23 13:23:17.2      25    148    191    151    243   9.7  57.7  34324  292.37 0854.51
2009/04/23 13:23:17.3    -198    121    245    233    338 301.5  51.6  34282  291.63 0854.51
2009/04/23 13:23:17.4     129     19    150    131    199  81.6  54.3  34294  291.84 0854.51
2009/04/23 13:23:17.5     243     42    165    247    297  80.1  37.0  34290  291.77 0854.51
2009/04/23 13:23:17.6     187     30    228    190    296  80.8  56.3  34244  291.00 0854.51
2009/04/23 13:23:17.7     187     66    181    199    269  70.5  47.0  34250  291.09 0854.51
2009/04/23 13:23:17.8     177     86    228    197    301  64.0  54.8  34244  291.00 0854.51
2009/04/23 13:23:17.9     173    -40    273    178    325 103.0  64.0  34242  290.97 0854.51
2009/04/23 13:23:18.0     127     60    257    141    293  64.7  68.9  34250  291.09 0854.51
2009/04/23 13:23:18.1     215    169    226    274    355  51.8  43.7  34260  291.28 0854.51
2009/04/23 13:23:18.2     230     20    211    231    312  85.0  47.1  34248  291.05 0854.51
2009/04/23 13:23:18.3     360     42    205    363    416  83.2  32.0  34240  290.93 0854.51
2009/04/23 13:23:18.4     375    -41    186    378    421  96.3  28.1  34226  290.70 0854.51
2009/04/23 13:23:18.5     360    -20    178    361    402  93.2  28.2  34238  290.89 0854.50
2009/04/23 13:23:18.6     439     52    329    443    551  83.1  40.2  34260  291.27 0854.50
2009/04/23 13:23:18.7     364    136    387    389    548  69.4  49.9  34292  291.80 0854.50
2009/04/23 13:23:18.8     362    114    354    380    519  72.4  47.9  34302  291.97 0854.50
2009/04/23 13:23:18.9     367     58    359    372    516  80.9  49.0  34282  291.63 0854.50
2009/04/23 13:23:19.0     332    301    325    449    554  47.8  39.5  34234  290.82 0854.50
2009/04/23 13:23:19.1     400    426    206    585    621  43.2  19.4  34206  290.34 0854.50
2009/04/23 13:23:19.2     354    502    266    615    670  35.2  24.9  34208  290.40 0854.50
2009/04/23 13:23:19.3     204    474    101    517    527  23.3  11.1  34248  291.06 0854.50
2009/04/23 13:23:19.4     297    180    145    348    377  58.7  23.8  34262  291.30 0854.50
2009/04/23 13:23:19.5     341    263     92    431    441  52.4  12.1  34276  291.53 0854.50
2009/04/23 13:23:19.6     196    118    163    229    281  58.9  38.8  34292  291.80 0854.50
2009/04/23 13:23:19.7     398    153    227    427    483  69.0  30.3  34286  291.70 0854.50
2009/04/23 13:23:19.8     480    147    189    503    537  73.0  21.5  34282  291.64 0854.50
2009/04/23 13:23:19.9     321    193    253    375    452  58.9  37.4  34250  291.11 0854.50
2009/04/23 13:23:20.0     344    115    307    364    476  71.4  44.4  34252  291.12 0854.50
2009/04/23 13:23:20.1     300    167    140    344    371  60.8  23.4  34264  291.35 0854.50
2009/04/23 13:23:20.2     380    226    233    443    500  59.2  30.0  34262  291.32 0854.50
2009/04/23 13:23:20.3     474    258    204    540    577  61.4  21.8  34266  291.38 0854.50
2009/04/23 13:23:20.4     635     88    244    641    685  82.1  22.0  34230  290.75 0854.50
2009/04/23 13:23:20.5     510    209    143    552    571  67.7  14.5  34220  290.60 0854.50
2009/04/23 13:23:20.6     358    363     15    510    511  44.6   1.8  34198  290.23 0854.50
2009/04/23 13:23:20.7     501    190    -47    537    540  69.2  -5.1  34224  290.67 0854.50
2009/04/23 13:23:20.8     427    105     38    440    442  76.1   5.0  34218  290.56 0854.50
2009/04/23 13:23:20.9     309     96    127    324    348  72.6  22.5  34230  290.77 0854.50
2009/04/23 13:23:21.0     342     47    229    346    414  82.1  36.5  34214  290.49 0854.50
2009/04/23 13:23:21.1     447      0    138    448    470  90.0  17.2  34212  290.44 0854.50
2009/04/23 13:23:21.2     493     37    115    495    509  85.6  13.1  34226  290.69 0854.50
2009/04/23 13:23:21.3     429   -164    136    460    480 111.0  16.5  34238  290.88 0854.50
2009/04/23 13:23:21.4     374   -245    -37    448    450 123.2  -4.8  34234  290.84 0854.50
2009/04/23 13:23:21.5     391   -165     87    425    435 113.0  11.6  34234  290.82 0854.48
2009/04/23 13:23:21.6     390   -146     73    417    424 110.6  10.0  34234  290.82 0854.48
2009/04/23 13:23:21.7     354   -242    171    429    461 124.4  23.0  34214  290.48 0854.48
2009/04/23 13:23:21.8     519     25    162    520    545  87.2  17.3  34224  290.67 0854.48
2009/04/23 13:23:21.9     478     66     30    483    484  82.1   3.6  34222  290.61 0854.48
2009/04/23 13:23:22.0     379    -11    185    380    422  91.7  27.8  34238  290.90 0854.48
2009/04/23 13:23:22.1     133   -322    188    349    396 157.6  30.6  34228  290.72 0854.48
2009/04/23 13:23:22.2     190   -261    211    324    386 143.9  36.0  34228  290.74 0854.48
2009/04/23 13:23:22.3     199   -219    159    297    336 137.7  30.6  34230  290.76 0854.48
2009/04/23 13:23:22.4      86    -84    156    121    197 134.6  58.4  34234  290.82 0854.48
2009/04/23 13:23:22.5      -2   -150    122    151    194 180.9  43.5  34230  290.75 0854.48
2009/04/23 13:23:22.6     -21   -130    143    132    194 189.3  52.2  34230  290.77 0854.48
2009/04/23 13:23:22.7     -42   -161     68    167    180 194.9  23.1  34230  290.75 0854.48
2009/04/23 13:23:22.8     114   -142     78    183    198 141.3  24.3  34226  290.70 0854.48
2009/04/23 13:23:22.9     136   -111     83    176    194 129.1  27.1  34224  290.65 0854.48
2009/04/23 13:23:23.0     190    -11     -7    191    192  93.5  -2.2  34224  290.65 0854.48
2009/04/23 13:23:23.1     151      6     -3    152    153  87.5  -1.2  34224  290.65 0854.48
2009/04/23 13:23:23.2      88     -5     28     89     94  93.5  17.9  34224  290.67 0854.48
2009/04/23 13:23:23.3      60    -24     45     65     79 111.7  38.0  34222  290.64 0854.48
2009/04/23 13:23:23.4      45    -30     57     55     79 123.3  50.7  34228  290.72 0854.48
2009/04/23 13:23:23.5      31    -40     58     51     77 142.2  54.3  34226  290.70 0854.48
2009/04/23 13:23:23.6       7    -18     58     20     61 158.2  81.2  34230  290.75 0854.48
2009/04/23 13:23:23.7       0    -16     66     17     68 182.7  84.9  34230  290.77 0854.48
2009/04/23 13:23:23.8      27    -21     68     35     76 127.8  70.8  34230  290.77 0854.48
2009/04/23 13:23:23.9     -21     21     51     30     59 315.0  65.7  34230  290.77 0854.48
2009/04/23 13:23:24.0       5     27     67     28     72  11.6  77.0  34232  290.79 0854.48
2009/04/23 13:23:24.1      -2     44     30     45     54 356.4  36.5  34232  290.79 0854.48
2009/04/23 13:23:24.2     -33     31     23     46     51 314.0  27.3  34228  290.74 0854.48
2009/04/23 13:23:24.3     -47     18     32     51     60 291.7  35.5  34230  290.77 0854.48
2009/04/23 13:23:24.4     -12     11     34     17     38 313.3  72.8  34224  290.65 0854.48
2009/04/23 13:23:24.5       5     71     14     72     74   4.5  11.0  34218  290.57 0854.48
2009/04/23 13:23:24.6      -3     41     16     42     44 355.5  21.0  34218  290.57 0854.48
2009/04/23 13:23:24.7     -12     47    -24     49     54 344.9 -31.6  34218  290.55 0854.48
2009/04/23 13:23:24.8     -15      8    -57     18     59 298.9 -86.2  34222  290.62 0854.48
2009/04/23 13:23:24.9      -4    -40    -59     41     71 186.2 -65.9  34222  290.64 0854.48
2009/04/23 13:23:25.0      10    -52    -56     54     77 168.4 -53.5  34214  290.48 0854.48
2009/04/23 13:23:25.1      22    -12    -60     26     65 118.9 -79.4  34220  290.58 0854.48
2009/04/23 13:23:25.2      54    -55    -82     78    113 135.8 -55.6  34212  290.45 0854.48
2009/04/23 13:23:25.3     139    -59    -71    152    167 113.1 -31.4  34204  290.33 0854.48
2009/04/23 13:23:25.4     160    -56    -55    170    178 109.5 -23.0  34204  290.33 0854.48
2009/04/23 13:23:25.5     139      1   -125    140    187  89.2 -50.8  34216  290.52 0854.46
2009/04/23 13:23:25.6     158    -34    -31    162    166 102.4 -11.1  34202  290.30 0854.46
2009/04/23 13:23:25.7     143    -26     -4    146    147 100.6  -1.8  34200  290.26 0854.46
2009/04/23 13:23:25.8      87     57     17    105    107  56.7   9.5  34206  290.36 0854.46
2009/04/23 13:23:25.9      21     -8    -19     23     29 111.7 -48.1  34212  290.45 0854.46
2009/04/23 13:23:26.0       2     -4     -3      5      5 147.5 -39.9  34212  290.47 0854.46
2009/04/23 13:23:26.1     -69    -14    -22     71     75 258.5 -17.6  34212  290.47 0854.46
2009/04/23 13:23:26.2    -101      0    -30    102    106 270.0 -21.7  34212  290.47 0854.46
2009/04/23 13:23:26.3     -77    -33    -13     85     87 246.5  -8.8  34210  290.43 0854.46
2009/04/23 13:23:26.4     -68    -27    -44     74     86 248.3 -38.4  34216  290.53 0854.46
2009/04/23 13:23:26.5     -42    -13    -63     45     77 252.3 -65.0  34222  290.64 0854.46
2009/04/23 13:23:26.6     -28     40    -82     50     96 324.8 -69.5  34220  290.60 0854.46
2009/04/23 13:23:26.7     -20      4    -61     21     64 281.5 -85.6  34224  290.67 0854.46
2009/04/23 13:23:26.8     -10    -44    -32     46     56 193.4 -42.0  34226  290.69 0854.46
2009/04/23 13:23:26.9      -8    -75     -4     76     77 186.2  -3.2  34226  290.70 0854.46
2009/04/23 13:23:27.0     -36   -110     22    116    119 198.3  11.1  34226  290.69 0854.46
2009/04/23 13:23:27.1     -12   -186      9    187    188 183.8   2.9  34220  290.60 0854.46
2009/04/23 13:23:27.2     -15   -197     33    198    201 184.5   9.5  34220  290.60 0854.46
2009/04/23 13:23:27.3     -49   -225     27    231    233 192.5   6.9  34220  290.58 0854.46
2009/04/23 13:23:27.4     -41   -231     27    235    237 190.2   6.7  34222  290.61 0854.46
2009/04/23 13:23:27.5     -63   -253     27    261    263 194.2   6.1  34220  290.58 0854.46
2009/04/23 13:23:27.6     -41   -290      1    293    294 188.1   0.2  34222  290.63 0854.46
2009/04/23 13:23:27.7     -95   -298      0    313    314 197.8   0.1  34216  290.53 0854.46
2009/04/23 13:23:27.8     -44   -313     61    317    323 188.1  11.0  34212  290.44 0854.46
2009/04/23 13:23:27.9    -115   -393     -8    410    411 196.4  -1.2  34204  290.33 0854.46
2009/04/23 13:23:28.0    -171   -323    -93    366    378 208.0 -14.3  34192  290.13 0854.46
2009/04/23 13:23:28.1    -161   -269    -99    314    329 211.0 -22.6  34192  290.12 0854.46
2009/04/23 13:23:28.2    -141   -356   -121    384    403 201.7 -17.6  34200  290.25 0854.46
2009/04/23 13:23:28.3     -67   -371    -67    378    384 190.3 -10.1  34196  290.18 0854.46
2009/04/23 13:23:28.4     -89   -265    -91    280    295 198.7 -18.1  34210  290.41 0854.46
2009/04/23 13:23:28.5    -119   -272    -70    298    307 203.7 -13.3  34214  290.48 0854.46
2009/04/23 13:23:28.6     -66   -369     19    376    377 190.2   2.9  34212  290.47 0854.46
2009/04/23 13:23:28.7    -111   -432     52    447    451 194.5   6.7  34210  290.43 0854.46
2009/04/23 13:23:28.8    -141   -422    155    446    473 198.5  19.2  34206  290.34 0854.46
2009/04/23 13:23:28.9    -209   -448     82    495    502 205.0   9.4  34210  290.42 0854.46
2009/04/23 13:23:29.0    -236   -404     56    468    472 210.3   6.9  34202  290.30 0854.46
2009/04/23 13:23:29.1    -290   -272      1    398    399 226.8   0.2  34188  290.06 0854.46
2009/04/23 13:23:29.2    -236   -200    -79    310    320 229.6 -14.3  34192  290.12 0854.46
2009/04/23 13:23:29.3     -70    -99     -4    122    123 215.2  -2.2  34190  290.08 0854.46
2009/04/23 13:23:29.4     -67    -88     26    111    115 217.4  13.2  34194  290.16 0854.46
2009/04/23 13:23:29.5    -159   -290    -90    331    344 208.7 -15.2  34194  290.15 0854.43
2009/04/23 13:23:29.6    -362   -253   -155    442    469 235.0 -19.4  34192  290.12 0854.43
2009/04/23 13:23:29.7    -300   -329   -119    446    462 222.3 -15.1  34200  290.24 0854.43
2009/04/23 13:23:29.8    -354   -377    -94    518    527 223.2 -10.4  34196  290.18 0854.43
2009/04/23 13:23:29.9    -333   -294   -123    445    462 228.6 -15.5  34200  290.26 0854.43
2009/04/23 13:23:30.0    -252   -311    -30    401    403 219.0  -4.4  34204  290.33 0854.43
2009/04/23 13:23:30.1    -157   -330    -42    366    369 205.5  -6.6  34200  290.25 0854.43
2009/04/23 13:23:30.2    -172   -242    -97    298    313 215.4 -23.0  34192  290.12 0854.43
2009/04/23 13:23:30.3    -144   -290    -21    324    325 206.5  -3.7  34200  290.24 0854.43
2009/04/23 13:23:30.4    -236   -276     26    364    365 220.6   4.2  34192  290.13 0854.43
2009/04/23 13:23:30.5    -268   -367    -54    455    459 216.1  -6.9  34188  290.05 0854.43
2009/04/23 13:23:30.6    -163   -420    -25    451    452 201.3  -3.2  34190  290.07 0854.43
2009/04/23 13:23:30.7    -153   -324    -99    359    373 205.3 -15.4  34192  290.10 0854.43
2009/04/23 13:23:30.8    -123   -341   -130    363    386 200.0 -19.7  34194  290.15 0854.43
2009/04/23 13:23:30.9      -9   -296    -82    297    309 181.8 -15.5  34190  290.09 0854.43
2009/04/23 13:23:31.0      -4   -223      2    224    225 181.1   0.7  34180  289.92 0854.43
2009/04/23 13:23:31.1    -129   -197      5    236    237 213.4   1.2  34190  290.09 0854.43
2009/04/23 13:23:31.2    -165   -183     48    247    252 221.9  11.1  34188  290.05 0854.43
2009/04/23 13:23:31.3    -214   -166    -90    272    286 232.2 -23.8  34188  290.05 0854.43
2009/04/23 13:23:31.4    -186   -241    -16    305    306 217.8  -3.2  34186  290.02 0854.43
2009/04/23 13:23:31.5    -219   -281   -108    357    372 218.0 -21.7  34190  290.08 0854.45
2009/04/23 13:23:31.6    -250   -235   -101    344    358 226.8 -21.2  34192  290.11 0854.45
2009/04/23 13:23:31.7    -316   -292   -136    431    453 227.3 -17.6  34190  290.07 0854.45
2009/04/23 13:23:31.8    -276   -302    -16    410    411 222.4  -2.2  34188  290.05 0854.45
2009/04/23 13:23:31.9    -375   -255    -97    454    465 235.7 -12.2  34184  289.99 0854.45
2009/04/23 13:23:32.0    -408   -258   -189    483    518 237.7 -26.9  34192  290.12 0854.45
2009/04/23 13:23:32.1    -334   -163   -247    372    446 243.9 -41.0  34190  290.09 0854.45
2009/04/23 13:23:32.2    -215   -172   -195    276    337 231.4 -43.2  34186  290.00 0854.45
2009/04/23 13:23:32.3     -91   -317   -117    330    351 196.1 -19.5  34188  290.06 0854.45
2009/04/23 13:23:32.4     -65   -347     40    354    357 190.7   6.6  34186  290.01 0854.45
2009/04/23 13:23:32.5     -69   -356     17    363    364 191.0   2.8  34188  290.06 0854.45
2009/04/23 13:23:32.6    -212   -300    -43    368    371 215.3  -6.7  34188  290.06 0854.45
2009/04/23 13:23:32.7    -182   -383    -64    425    430 205.5  -8.6  34184  289.99 0854.45
2009/04/23 13:23:32.8    -170   -275    -85    324    336 211.7 -14.8  34188  290.03 0854.45
2009/04/23 13:23:32.9    -188   -128    -49    228    234 235.8 -12.2  34186  290.02 0854.45
2009/04/23 13:23:33.0    -200   -112     23    230    232 240.7   5.9  34182  289.96 0854.45
2009/04/23 13:23:33.1    -264    -88      1    279    280 251.4   0.2  34188  290.05 0854.45
2009/04/23 13:23:33.2    -258    -99     35    277    280 248.9   7.2  34188  290.05 0854.45
2009/04/23 13:23:33.3    -176   -153    164    234    285 228.9  38.5  34188  290.03 0854.45
2009/04/23 13:23:33.4      53   -108    147    121    190 153.7  56.4  34192  290.13 0854.45
2009/04/23 13:23:33.5     -98   -169     -1    196    197 210.3  -0.5  34188  290.06 0854.41
2009/04/23 13:23:33.6     -68    -82     63    107    124 219.7  33.5  34186  290.02 0854.41
2009/04/23 13:23:33.7      71    -43    115     84    142 121.5  60.5  34192  290.13 0854.41
2009/04/23 13:23:33.8     -34    -76    168     84    187 204.5  71.7  34190  290.09 0854.41
2009/04/23 13:23:33.9    -109   -182    189    213    284 210.8  45.9  34188  290.05 0854.41
2009/04/23 13:23:34.0    -127   -199    121    237    266 212.6  29.1  34188  290.05 0854.41
2009/04/23 13:23:34.1     -92   -146    116    173    208 212.3  37.0  34188  290.06 0854.41
2009/04/23 13:23:34.2     -45   -172    133    178    222 194.9  40.1  34186  290.02 0854.41
2009/04/23 13:23:34.3    -162   -250     29    299    301 213.0   5.7  34188  290.05 0854.41
2009/04/23 13:23:34.4    -166   -137     42    216    221 230.4  11.1  34182  289.96 0854.41
2009/04/23 13:23:34.5     -90     -6    -94     91    130 265.6 -55.1  34180  289.92 0854.41
2009/04/23 13:23:34.6    -302    -61    -43    309    313 258.6  -8.0  34182  289.93 0854.41
2009/04/23 13:23:34.7    -349     -9    -45    350    353 268.5  -7.5  34188  290.06 0854.41
2009/04/23 13:23:34.8    -281     35    -35    284    287 277.1  -7.2  34188  290.03 0854.41
2009/04/23 13:23:34.9    -191     11    -45    192    198 273.5 -13.4  34186  290.01 0854.41
2009/04/23 13:23:35.0    -154    -31     79    158    176 258.5  28.2  34188  290.06 0854.41
2009/04/23 13:23:35.1     -75   -118    160    141    213 212.5  54.2  34186  290.01 0854.41
2009/04/23 13:23:35.2    -132   -137    125    191    228 224.1  36.0  34186  290.02 0854.41
2009/04/23 13:23:35.3     -71   -140    109    158    191 207.1  37.8  34192  290.11 0854.41
2009/04/23 13:23:35.4    -130   -161     72    208    221 219.0  19.2  34190  290.08 0854.41
2009/04/23 13:23:35.5     -44   -135    104    143    176 198.3  39.7  34190  290.09 0854.37
2009/04/23 13:23:35.6     -23   -115    133    118    177 191.5  53.7  34194  290.14 0854.37
2009/04/23 13:23:35.7     -79    -14     18     81     84 259.4  12.6  34190  290.09 0854.37
2009/04/23 13:23:35.8     -37     55     72     67     98 325.7  52.2  34192  290.11 0854.37
2009/04/23 13:23:35.9       2     68    119     69    137   1.8  67.2  34196  290.19 0854.37
2009/04/23 13:23:36.0       0     66    115     67    133   0.0  66.8  34198  290.23 0854.37
2009/04/23 13:23:36.1     -30    -41    127     51    136 216.1  77.1  34196  290.18 0854.37
2009/04/23 13:23:36.2     -47   -221    161    226    277 192.0  39.1  34190  290.07 0854.37
2009/04/23 13:23:36.3     -85   -264    129    278    306 197.9  27.0  34188  290.05 0854.37
2009/04/23 13:23:36.4     -60   -293    106    300    319 191.6  19.6  34184  289.98 0854.37
2009/04/23 13:23:36.5     -47   -291     98    295    312 189.3  18.5  34186  290.02 0854.37
2009/04/23 13:23:36.6     -10   -217    128    218    252 182.7  33.5  34180  289.90 0854.37
2009/04/23 13:23:36.7      71   -271     44    281    285 165.3   8.9  34184  289.98 0854.37
2009/04/23 13:23:36.8     115   -369     37    387    389 162.7   5.5  34186  290.01 0854.37
2009/04/23 13:23:36.9     131   -405    154    426    454 162.1  19.9  34188  290.04 0854.37
2009/04/23 13:23:37.0     150   -380    163    409    440 158.4  23.0  34186  290.02 0854.37
2009/04/23 13:23:37.1      39   -454    119    456    472 175.0  14.7  34176  289.84 0854.37
2009/04/23 13:23:37.2     -47   -407    142    410    435 186.7  19.2  34186  290.00 0854.37
2009/04/23 13:23:37.3     -51   -384    254    388    463 187.6  36.3  34186  290.00 0854.37
2009/04/23 13:23:37.4      43   -391    204    394    443 173.7  29.4  34184  289.99 0854.41
2009/04/23 13:23:37.5      -5   -381    197    382    429 180.9  29.3  34188  290.04 0854.41
2009/04/23 13:23:37.6     -19   -276    220    277    353 184.0  42.4  34188  290.03 0854.41
2009/04/23 13:23:37.7    -168   -254    199    305    364 213.6  36.2  34188  290.03 0854.41
2009/04/23 13:23:37.8    -108   -153     83    188    205 215.2  25.3  34184  289.97 0854.41
2009/04/23 13:23:37.9      11   -152     49    153    161 175.5  17.9  34188  290.06 0854.41
2009/04/23 13:23:38.0      84   -261    -33    275    278 162.2  -6.9  34188  290.03 0854.41
2009/04/23 13:23:38.1      41   -250    -70    254    264 170.7 -15.5  34184  289.98 0854.41
2009/04/23 13:23:38.2      17   -245    -39    246    250 176.0  -9.0  34186  290.02 0854.41
2009/04/23 13:23:38.3      -2   -216    -32    217    220 180.7  -8.6  34184  289.99 0854.41
2009/04/23 13:23:38.4      -3   -180    -42    181    186 181.0 -13.2  34186  290.02 0854.41
2009/04/23 13:23:38.5      16   -158    -57    159    168 174.2 -24.8  34186  290.02 0854.41
2009/04/23 13:23:38.6       2   -135   -107    136    173 179.1 -46.6  34190  290.08 0854.41
2009/04/23 13:23:38.7     -24   -163    -10    165    166 188.5  -3.7  34188  290.04 0854.41
2009/04/23 13:23:38.8     -99   -104     53    144    153 223.7  20.9  34186  290.01 0854.41
2009/04/23 13:23:38.9    -105    -35     79    111    136 251.4  39.1  34190  290.08 0854.41
2009/04/23 13:23:39.0     -47   -116     93    126    156 202.3  40.4  34188  290.04 0854.41
2009/04/23 13:23:39.1    -133   -179    -34    224    227 216.7  -8.8  34186  290.02 0854.41
2009/04/23 13:23:39.2    -149   -382   -114    411    427 201.4 -15.5  34186  290.02 0854.41
2009/04/23 13:23:39.3     -55   -119    -94    132    162 204.9 -43.5  34192  290.11 0854.41
2009/04/23 13:23:39.4    -144    -39    -98    150    179 254.9 -40.7  34194  290.14 0854.43
2009/04/23 13:23:39.5     -76    -69    -37    103    109 227.8 -24.4  34192  290.13 0854.43
2009/04/23 13:23:39.6     -86   -103    -22    135    137 219.7  -9.3  34188  290.06 0854.43
2009/04/23 13:23:39.7    -113   -221    -16    249    250 207.2  -3.7  34188  290.03 0854.43
2009/04/23 13:23:39.8    -196   -296     -8    356    357 213.5  -1.4  34190  290.08 0854.43
2009/04/23 13:23:39.9    -196   -215    -26    292    294 222.3  -5.2  34188  290.05 0854.43
2009/04/23 13:23:40.0     -64   -209      4    219    220 197.2   1.2  34188  290.06 0854.43
2009/04/23 13:23:40.1     -20   -265      3    266    267 184.4   0.8  34190  290.07 0854.43
2009/04/23 13:23:40.2      30   -235     28    237    239 172.7   6.9  34186  290.02 0854.43
2009/04/23 13:23:40.3      22   -220    -48    222    228 174.2 -12.4  34184  289.99 0854.43
2009/04/23 13:23:40.4    -114   -214     16    243    244 208.0   3.8  34188  290.03 0854.44
2009/04/23 13:23:40.5    -123   -360    144    381    407 199.0  21.7  34184  289.99 0854.44
2009/04/23 13:23:40.6    -186   -409    170    450    481 204.5  21.6  34178  289.89 0854.44
2009/04/23 13:23:40.7    -240   -365    131    438    458 213.4  16.7  34170  289.73 0854.44
2009/04/23 13:23:40.8    -197   -303    126    362    384 213.0  19.2  34172  289.77 0854.44
2009/04/23 13:23:40.9     -54   -182    237    191    304 196.7  56.6  34180  289.92 0854.44
2009/04/23 13:23:41.0      16   -221    189    222    291 175.8  44.8  34178  289.88 0854.44
2009/04/23 13:23:41.1     -26   -243    160    245    292 186.3  36.0  34178  289.88 0854.44
2009/04/23 13:23:41.2    -144   -326    146    357    385 203.9  23.4  34172  289.76 0854.44
2009/04/23 13:23:41.3     -78   -285    197    296    355 195.4  36.9  34176  289.84 0854.44
2009/04/23 13:23:41.5     -20   -192    191    194    272 186.2  49.9  34176  289.85 0854.44
2009/04/23 13:23:41.6      -8   -161    127    162    205 182.9  42.2  34180  289.91 0854.44
2009/04/23 13:23:41.7      -4   -226    119    227    256 181.1  30.1  34180  289.90 0854.44
2009/04/23 13:23:41.8     -49   -289    131    294    321 189.6  25.6  34178  289.88 0854.44
2009/04/23 13:23:41.9       0   -227     56    228    235 179.8  13.9  34182  289.94 0854.44
2009/04/23 13:23:42.0      16   -147    101    148    179 173.8  37.6  34182  289.94 0854.44
2009/04/23 13:23:42.1      10    -62    107     63    124 170.2  66.8  34180  289.92 0854.44
2009/04/23 13:23:42.2     -34    -53    105     64    122 212.5  66.2  34186  290.01 0854.44
2009/04/23 13:23:42.3     -36      0     79     37     87 270.0  73.5  34182  289.96 0854.44
2009/04/23 13:23:42.4      -1    -37     82     38     90 182.6  73.1  34180  289.92 0854.44
2009/04/23 13:23:42.5      -3    -57     44     58     72 183.6  41.7  34178  289.87 0854.45
2009/04/23 13:23:42.6      15     15     42     22     47  45.0  69.8  34180  289.92 0854.45
2009/04/23 13:23:42.7     155    118    128    195    233  52.7  35.7  34176  289.85 0854.45
2009/04/23 13:23:42.8     128     34    168    133    214  75.0  57.7  34178  289.89 0854.45
2009/04/23 13:23:42.9      79     20     88     82    120  75.8  52.2  34178  289.89 0854.45
2009/04/23 13:23:43.0       9    -81    114     82    140 173.3  60.6  34182  289.94 0854.45
2009/04/23 13:23:43.1      95   -166     84    192    209 150.1  25.2  34176  289.84 0854.45
2009/04/23 13:23:43.2     222   -236    126    325    348 136.8  22.3  34172  289.76 0854.45
2009/04/23 13:23:43.3     181   -175     12    252    253 134.0   2.8  34172  289.76 0854.45
2009/04/23 13:23:43.4      62   -187    -42    198    203 161.5 -12.2  34174  289.82 0854.45
2009/04/23 13:23:43.5     125   -243    -62    274    282 152.8 -12.9  34162  289.61 0854.45
2009/04/23 13:23:43.6      14   -155    -33    156    160 174.7 -12.2  34160  289.58 0854.45
2009/04/23 13:23:43.7     -15   -163    -63    164    175 185.6 -26.4  34168  289.70 0854.45
2009/04/23 13:23:43.8     -66   -108    -45    127    134 211.6 -23.8  34168  289.70 0854.45
2009/04/23 13:23:43.9    -167   -138    -65    217    226 230.5 -21.7  34166  289.67 0854.45
2009/04/23 13:23:44.0    -317   -201    -41    376    379 237.5  -6.3  34168  289.71 0854.45
2009/04/23 13:23:44.1    -385   -126    -74    406    413 251.9 -10.4  34164  289.63 0854.45
2009/04/23 13:23:44.2    -251     -3    -90    252    268 269.2 -19.7  34160  289.56 0854.45
2009/04/23 13:23:44.3    -494    -32    -90    496    505 266.2 -10.4  34160  289.57 0854.45
2009/04/23 13:23:44.4    -267   -159      6    311    312 239.3   1.1  34158  289.53 0854.45
2009/04/23 13:23:44.5    -148   -108      3    184    185 234.0   1.0  34160  289.58 0854.46
2009/04/23 13:23:44.6    -168   -312     27    355    356 208.3   4.4  34154  289.47 0854.46
2009/04/23 13:23:44.7    -321   -307     69    445    451 226.3   8.9  34164  289.63 0854.46
2009/04/23 13:23:44.8    -480    -30    -80    481    488 266.4  -9.5  34156  289.52 0854.46
2009/04/23 13:23:44.9    -479   -113     64    493    498 256.7   7.5  34160  289.57 0854.46
2009/04/23 13:23:45.0    -358   -122    129    379    401 251.2  18.8  34156  289.50 0854.46
2009/04/23 13:23:45.1    -332      4    123    333    354 270.8  21.1  34164  289.65 0854.46
2009/04/23 13:23:45.2    -385    -22   -109    386    402 266.6 -15.8  34162  289.62 0854.46
2009/04/23 13:23:45.3    -412    -31    -16    414    415 265.6  -2.3  34152  289.43 0854.46
2009/04/23 13:23:45.4    -356    -94    -21    369    370 255.1  -3.3  34162  289.62 0854.46
2009/04/23 13:23:45.5    -428    -82    127    436    455 259.1  16.3  34162  289.61 0854.46
2009/04/23 13:23:45.6    -449    127      2    467    468 285.8   0.3  34156  289.50 0854.46
2009/04/23 13:23:45.7    -478    117     14    493    494 283.8   1.7  34162  289.61 0854.46
2009/04/23 13:23:45.8    -374    -33    -88    376    387 264.9 -13.3  34166  289.69 0854.46
2009/04/23 13:23:45.9    -415     47   -191    418    459 276.5 -30.7  34166  289.66 0854.46
2009/04/23 13:23:46.0    -484    183   -192    518    552 290.8 -25.8  34160  289.58 0854.46
2009/04/23 13:23:46.1    -602    276   -178    663    687 294.6 -15.1  34164  289.65 0854.46
2009/04/23 13:23:46.2    -468    299   -182    556    585 302.6 -23.3  34166  289.69 0854.46
2009/04/23 13:23:46.3    -523    337   -185    623    649 302.8 -21.4  34168  289.72 0854.46
2009/04/23 13:23:46.4    -446    249   -187    512    545 299.2 -25.3  34166  289.68 0854.46
2009/04/23 13:23:46.5    -362    171   -191    401    444 295.4 -31.7  34170  289.73 0854.42
2009/04/23 13:23:46.6    -325    207   -174    386    423 302.5 -30.6  34168  289.72 0854.42
2009/04/23 13:23:46.7    -254    244   -182    353    397 313.8 -33.7  34172  289.76 0854.42
2009/04/23 13:23:46.8    -251    312   -257    401    476 321.2 -40.0  34162  289.61 0854.42
2009/04/23 13:23:46.9    -178    412   -220    450    500 336.6 -32.3  34166  289.66 0854.42
2009/04/23 13:23:47.0    -308    368   -145    481    502 320.1 -21.7  34166  289.69 0854.42
2009/04/23 13:23:47.1    -347    259   -146    434    459 306.8 -18.6  34166  289.66 0854.42
2009/04/23 13:23:47.2    -316    280   -163    423    453 311.6 -26.6  34160  289.58 0854.42
2009/04/23 13:23:47.3    -335    269   -205    430    476 308.8 -31.7  34160  289.58 0854.42
2009/04/23 13:23:47.4    -289    186   -245    344    422 302.8 -43.5  34156  289.52 0854.42
2009/04/23 13:23:47.5    -349    102   -292    364    466 286.4 -47.3  34168  289.70 0854.42
2009/04/23 13:23:47.6    -235    102   -306    257    399 293.5 -60.1  34166  289.67 0854.42
2009/04/23 13:23:47.7    -164     46   -325    171    367 285.7 -74.7  34166  289.68 0854.42
2009/04/23 13:23:47.8    -432     33   -373    434    572 274.4 -49.4  34166  289.67 0854.42
2009/04/23 13:23:47.9    -254   -161   -163    301    342 237.6 -35.2  34174  289.82 0854.42
2009/04/23 13:23:48.0    -261    -31   -291    263    392 263.2 -57.7  34174  289.81 0854.42
2009/04/23 13:23:48.1    -132   -329    -49    355    359 201.9  -7.9  34176  289.84 0854.42
2009/04/23 13:23:48.2    -200   -597   -138    630    646 198.6 -12.4  34172  289.77 0854.42
2009/04/23 13:23:48.3      35   -539    -38    541    543 176.2  -4.1  34168  289.70 0854.42
2009/04/23 13:23:48.4     -29   -672     18    673    674 182.5   1.6  34166  289.68 0854.42
2009/04/23 13:23:48.5     106   -750     53    758    760 171.9   4.0  34166  289.67 0854.43
2009/04/23 13:23:48.6      25   -636    109    637    647 177.7   9.7  34166  289.69 0854.43
2009/04/23 13:23:48.7     251   -645     86    693    699 158.7   7.1  34166  289.66 0854.43
2009/04/23 13:23:48.8     379   -316    233    494    546 129.8  27.1  34176  289.85 0854.43
2009/04/23 13:23:48.9     507   -482    181    700    724 133.6  14.5  34166  289.69 0854.43
2009/04/23 13:23:49.0     581   -222    226    623    662 111.0  20.9  34172  289.76 0854.43
2009/04/23 13:23:49.1     451   -188    321    489    584 112.7  36.5  34164  289.63 0854.43
2009/04/23 13:23:49.2     170    -48    260    177    314 105.9  62.5  34170  289.73 0854.43
2009/04/23 13:23:49.3     -30    -18    264     36    266 239.3  90.0  34174  289.82 0854.43
2009/04/23 13:23:49.4      -6   -117    294    118    316 183.1  77.1  34182  289.95 0854.43
2009/04/23 13:23:49.5     165   -413    400    445    598 158.2  46.5  34170  289.74 0854.43
2009/04/23 13:23:49.6     277   -459    334    537    632 148.9  34.8  34164  289.64 0854.43
2009/04/23 13:23:49.7     285   -471    294    551    624 148.8  30.3  34174  289.81 0854.43
2009/04/23 13:23:49.8     437   -432      1    615    616 134.7   0.1  34164  289.65 0854.43
2009/04/23 13:23:49.9     248   -163    150    297    332 123.3  28.7  34166  289.68 0854.43
2009/04/23 13:23:50.0      27   -296    228    298    375 174.7  41.3  34164  289.65 0854.43
2009/04/23 13:23:50.1     188   -155    316    244    399 129.5  58.6  34178  289.89 0854.43
2009/04/23 13:23:50.2     -12   -190    347    191    396 183.6  68.9  34168  289.71 0854.43
2009/04/23 13:23:50.3     -63   -309    363    316    481 191.6  54.7  34168  289.72 0854.43
2009/04/23 13:23:50.4    -216   -404    398    459    607 208.1  45.4  34178  289.89 0854.43
2009/04/23 13:23:50.5    -259   -397    211    475    519 213.1  25.6  34178  289.89 0854.43
2009/04/23 13:23:50.6    -292   -435    230    525    573 213.9  25.2  34180  289.92 0854.43
2009/04/23 13:23:50.7    -354   -449    269    572    632 218.3  27.0  34174  289.81 0854.43
2009/04/23 13:23:50.8    -385   -536    277    661    716 215.7  24.2  34176  289.83 0854.43
2009/04/23 13:23:50.9    -479   -384    169    615    638 231.3  15.4  34188  290.03 0854.43
2009/04/23 13:23:51.0    -507   -323    106    602    612 237.5  10.0  34196  290.17 0854.43
2009/04/23 13:23:51.1    -495   -295    179    577    605 239.2  17.3  34190  290.07 0854.43
2009/04/23 13:23:51.2    -502   -330     94    601    609 236.7   8.9  34190  290.08 0854.43
2009/04/23 13:23:51.3    -549   -249     -2    603    604 245.6  -0.2  34194  290.15 0854.43
2009/04/23 13:23:51.4    -614   -164    -43    636    638 255.0  -3.9  34192  290.13 0854.43
2009/04/23 13:23:51.5    -599    -94     80    607    613 261.0   7.6  34196  290.17 0854.43
2009/04/23 13:23:51.6    -394    -24    -97    395    407 266.4 -13.9  34184  289.99 0854.43
2009/04/23 13:23:51.7    -396    104    -96    410    422 284.8 -13.3  34182  289.95 0854.43
2009/04/23 13:23:51.8    -245     22    -58    247    254 275.2 -13.3  34178  289.88 0854.43
2009/04/23 13:23:51.9    -454     13     -3    455    456 271.7  -0.5  34182  289.94 0854.43
2009/04/23 13:23:52.0    -430     52    -83    434    443 277.0 -10.9  34182  289.94 0854.43
2009/04/23 13:23:52.1    -321    116    -49    342    346 290.0  -8.2  34182  289.94 0854.43
2009/04/23 13:23:52.2    -405     64    -52    411    415 279.0  -7.3  34172  289.77 0854.43
2009/04/23 13:23:52.3     -15    187     54    188    196 355.1  16.3  34174  289.80 0854.43
2009/04/23 13:23:52.4    -304    206     61    368    374 304.2   9.5  34178  289.86 0854.43
2009/04/23 13:23:52.5    -319    172     34    363    365 298.4   5.4  34178  289.89 0854.47
2009/04/23 13:23:52.6    -230    118     51    259    265 297.3  11.1  34178  289.86 0854.47
2009/04/23 13:23:52.7    -217    197    109    294    313 312.2  21.4  34188  290.03 0854.47
2009/04/23 13:23:52.8    -234    190     73    302    311 309.1  13.7  34184  289.98 0854.47
2009/04/23 13:23:52.9    -129     88    -35    157    161 304.2 -12.6  34188  290.04 0854.47
2009/04/23 13:23:53.0     -89    258    -54    273    279 340.9 -11.3  34186  290.00 0854.47
2009/04/23 13:23:53.1     -86    104     49    136    144 320.4  20.0  34178  289.89 0854.47
2009/04/23 13:23:53.2     -52     17    127     55    138 288.2  75.0  34184  289.99 0854.47
2009/04/23 13:23:53.3    -178     87    130    199    237 296.2  36.5  34186  290.01 0854.47
2009/04/23 13:23:53.4    -193    -13     58    194    203 265.9  16.6  34184  289.97 0854.47
2009/04/23 13:23:53.5    -272    -37    -82    275    286 262.1 -21.7  34174  289.81 0854.47
2009/04/23 13:23:53.6    -235    -76    -31    248    250 252.1  -7.2  34180  289.92 0854.47
2009/04/23 13:23:53.7    -210   -149     25    258    260 234.7   5.7  34188  290.03 0854.47
2009/04/23 13:23:53.8    -220     -2    -12    221    222 269.4  -3.3  34192  290.11 0854.47
2009/04/23 13:23:53.9    -243     89    -61    259    267 290.2 -13.4  34182  289.95 0854.47
2009/04/23 13:23:54.0    -272     -6    -10    273    274 268.7  -2.2  34182  289.95 0854.47
2009/04/23 13:23:54.1    -151     63    -19    164    166 292.8  -6.9  34182  289.94 0854.47
2009/04/23 13:23:54.2    -174    -40    -22    179    181 257.0  -7.2  34186  290.01 0854.47
2009/04/23 13:23:54.3    -219    -16    -10    220    221 265.7  -2.6  34186  290.01 0854.47
2009/04/23 13:23:54.4    -172   -124     54    213    220 234.3  14.3  34194  290.14 0854.47
2009/04/23 13:23:54.5    -196   -246    -73    315    324 218.5 -13.2  34172  289.78 0854.45
2009/04/23 13:23:54.6    -228   -186    104    295    312 230.9  20.2  34170  289.75 0854.45
2009/04/23 13:23:54.7    -181   -131     58    224    232 234.0  14.5  34178  289.87 0854.45
2009/04/23 13:23:54.8    -133    -73     29    152    155 241.2  11.0  34182  289.94 0854.45
2009/04/23 13:23:54.9    -240    -28     15    242    243 263.2   3.6  34184  289.98 0854.45
2009/04/23 13:23:55.0    -263     59    109    270    291 282.8  23.1  34202  290.27 0854.45
2009/04/23 13:23:55.1    -280     20     36    281    284 274.3   7.5  34194  290.15 0854.45
2009/04/23 13:23:55.2    -154    -82     30    175    178 242.0   9.9  34182  289.96 0854.45
2009/04/23 13:23:55.3    -200      0     65    201    212 270.0  17.9  34176  289.85 0854.45
2009/04/23 13:23:55.4    -220     78    -25    234    236 289.5  -6.2  34190  290.07 0854.45
2009/04/23 13:23:55.5    -172   -117     78    209    223 235.8  21.0  34180  289.91 0854.45
2009/04/23 13:23:55.6    -125    -64    -45    141    148 242.9 -23.3  34182  289.96 0854.45
2009/04/23 13:23:55.7    -101   -173     26    201    203 210.3   7.5  34174  289.82 0854.45
2009/04/23 13:23:55.8    -146   -223     32    267    269 213.2   6.9  34176  289.83 0854.45
2009/04/23 13:23:55.9    -440   -284     45    524    527 237.1   5.0  34174  289.82 0854.45
2009/04/23 13:23:56.0    -595   -327   -159    679    698 241.2 -13.2  34166  289.66 0854.45
2009/04/23 13:23:56.1    -447    -59   -155    451    476 262.4 -24.0  34166  289.69 0854.45
2009/04/23 13:23:56.2    -517   -145   -148    538    559 254.3 -15.4  34178  289.89 0854.45
2009/04/23 13:23:56.3    -643   -235   -202    685    714 249.9 -21.2  34182  289.96 0854.45
2009/04/23 13:23:56.4    -723   -221   -221    757    788 253.0 -21.1  34176  289.83 0854.45
2009/04/23 13:23:56.5    -435   -362     89    567    575 230.2   9.0  34166  289.66 0854.47
2009/04/23 13:23:56.6    -426   -282    192    512    546 236.5  21.5  34182  289.94 0854.47
2009/04/23 13:23:56.7    -266    -67    277    275    390 255.9  50.1  34182  289.96 0854.47
2009/04/23 13:23:56.8    -186   -250    269    312    411 216.7  45.2  34182  289.94 0854.47
2009/04/23 13:23:56.9    -112    -87    291    142    323 232.2  72.2  34178  289.86 0854.47
2009/04/23 13:23:57.0    -544   -226    -19    590    591 247.4  -1.9  34186  290.00 0854.47
2009/04/23 13:23:57.1    -581   -206     57    617    620 250.5   5.3  34188  290.03 0854.47
2009/04/23 13:23:57.2    -721   -183     -3    745    746 255.7  -0.3  34186  290.01 0854.47
2009/04/23 13:23:57.3    -723   -298    163    782    799 247.6  11.8  34182  289.95 0854.47
2009/04/23 13:23:57.4    -611   -144    -55    628    631 256.7  -5.1  34180  289.91 0854.47
2009/04/23 13:23:57.5    -732    -43    -94    734    740 266.6  -7.3  34180  289.90 0854.47
2009/04/23 13:23:57.6    -667    -68    158    671    690 264.1  13.3  34182  289.95 0854.47
2009/04/23 13:23:57.7    -584   -309    -67    661    665 242.1  -5.8  34176  289.83 0854.47
2009/04/23 13:23:57.8    -667    134   -223    681    717 281.4 -18.2  34182  289.93 0854.47
2009/04/23 13:23:57.9    -485   -174    205    516    555 250.2  22.9  34178  289.87 0854.47
2009/04/23 13:23:58.0    -634    -48    -25    636    637 265.7  -2.3  34168  289.72 0854.47
2009/04/23 13:23:58.1    -599   -294   -110    668    678 243.8  -9.4  34174  289.80 0854.47
2009/04/23 13:23:58.2    -312   -428   -131    531    548 216.1 -13.9  34178  289.87 0854.47
2009/04/23 13:23:58.3    -357   -262    -73    443    450 233.7  -9.4  34178  289.87 0854.47
2009/04/23 13:23:58.4    -595   -359   -193    696    722 238.9 -20.1  34176  289.84 0854.47
2009/04/23 13:23:58.5    -602   -209    -97    638    646 250.8  -8.7  34174  289.82 0854.47
2009/04/23 13:23:58.6    -372   -435    -11    573    574 220.6  -1.2  34176  289.83 0854.47
2009/04/23 13:23:58.7    -316   -264   -205    413    461 230.1 -32.6  34162  289.60 0854.47
2009/04/23 13:23:58.8    -118   -365    -85    384    394 197.9 -12.5  34176  289.84 0854.47
2009/04/23 13:23:58.9    -302   -385   -160    490    515 218.1 -23.2  34178  289.88 0854.47
2009/04/23 13:23:59.0    -126   -449   -139    467    488 195.7 -16.6  34172  289.79 0854.47
2009/04/23 13:23:59.1    -329   -263    -12    422    423 231.4  -1.7  34180  289.90 0854.47
2009/04/23 13:23:59.2    -272   -327    -86    426    435 219.8 -11.5  34172  289.77 0854.47
2009/04/23 13:23:59.3    -179   -511    -10    542    543 199.3  -1.2  34160  289.58 0854.47
2009/04/23 13:23:59.4     -83   -463    -33    471    473 190.3  -4.1  34170  289.73 0854.47
2009/04/23 13:23:59.5     -79   -504    -19    511    512 188.9  -2.2  34178  289.86 0854.47
2009/04/23 13:23:59.6    -107   -430     -9    444    445 194.0  -1.3  34176  289.83 0854.47
2009/04/23 13:23:59.7      13   -486    184    487    520 178.4  21.6  34174  289.81 0854.47
2009/04/23 13:23:59.8    -102   -411    347    424    547 194.0  43.5  34162  289.62 0854.47
2009/04/23 13:23:59.9    -153   -289    155    327    361 207.9  27.2  34182  289.94 0854.47
2009/04/23 13:24:00.0     -94   -480     31    490    491 191.1   3.7  34176  289.83 0854.47
2009/04/23 13:24:00.1    -269   -546    -54    609    612 206.3  -5.1  34174  289.80 0854.47
2009/04/23 13:24:00.2    -207   -572    -39    609    611 200.0  -3.7  34174  289.81 0854.47
2009/04/23 13:24:00.3     -29   -466     24    467    468 183.6   3.0  34170  289.74 0854.47
2009/04/23 13:24:00.4      11   -513     43    514    517 178.7   4.9  34176  289.83 0854.47
2009/04/23 13:24:00.5      27   -588   -112    589    600 177.3 -10.8  34176  289.83 0854.45
2009/04/23 13:24:00.6      -7   -505   -103    506    517 180.9 -11.6  34166  289.67 0854.45
2009/04/23 13:24:00.7     190   -652    165    680    700 163.7  13.7  34178  289.87 0854.45
2009/04/23 13:24:00.8     220   -754    201    786    812 163.7  14.4  34172  289.78 0854.45
2009/04/23 13:24:00.9     543   -674    144    866    878 141.2   9.5  34168  289.72 0854.45
2009/04/23 13:24:01.0     278   -563     81    628    634 153.7   7.4  34172  289.79 0854.45
2009/04/23 13:24:01.1     258   -529    110    589    600 154.0  10.6  34178  289.86 0854.45
2009/04/23 13:24:01.2     198   -494    199    533    568 158.2  21.5  34176  289.84 0854.45
2009/04/23 13:24:01.3     184   -545    247    576    626 161.3  24.6  34172  289.76 0854.45
2009/04/23 13:24:01.4      69   -630    315    634    707 173.7  28.4  34172  289.78 0854.45
2009/04/23 13:24:01.5      68   -626    406    630    749 173.8  35.8  34172  289.78 0854.42
2009/04/23 13:24:01.6     252   -700    281    745    796 160.2  21.7  34172  289.78 0854.42
2009/04/23 13:24:01.7     129   -767    211    778    807 170.4  15.2  34170  289.74 0854.42
2009/04/23 13:24:01.8     209   -733    145    763    777 164.1  10.8  34172  289.76 0854.42
2009/04/23 13:24:01.9     278   -542    172    610    634 152.8  15.8  34162  289.59 0854.42
2009/04/23 13:24:02.0    -515   -233    -76    566    572 245.6  -7.7  34142  289.25 0854.42
2009/04/23 13:24:02.1    -775   -308   -107    835    842 248.3  -7.3  34164  289.63 0854.42
2009/04/23 13:24:02.2    -567   -565    -67    801    804 225.1  -4.8  34160  289.56 0854.42
2009/04/23 13:24:02.3    -414   -549    -38    688    690 217.0  -3.2  34168  289.70 0854.42
2009/04/23 13:24:02.4    -630   -456     50    778    780 234.1   3.7  34166  289.69 0854.42
2009/04/23 13:24:02.5    -396   -675   -166    783    801 210.4 -12.0  34156  289.52 0854.42
2009/04/23 13:24:02.6    -471   -683    166    830    847 214.6  11.3  34166  289.68 0854.42
2009/04/23 13:24:02.7    -545   -883     12   1038   1039 211.7   0.7  34162  289.60 0854.42
2009/04/23 13:24:02.8    -725   -698   -214   1007   1030 226.1 -12.0  34152  289.45 0854.42
2009/04/23 13:24:02.9    -547   -697    -69    887    890 218.1  -4.5  34164  289.64 0854.42
2009/04/23 13:24:03.0    -487   -656    -44    818    820 216.6  -3.1  34168  289.72 0854.42
2009/04/23 13:24:03.1    -506   -516   -170    723    743 224.4 -13.3  34144  289.29 0854.42
2009/04/23 13:24:03.2    -457   -604    -58    758    760 217.1  -4.4  34166  289.68 0854.42
2009/04/23 13:24:03.3    -512   -664   -138    839    851 217.6  -9.3  34154  289.48 0854.42
2009/04/23 13:24:03.4    -443   -401   -182    598    626 227.8 -16.9  34144  289.31 0854.42
2009/04/23 13:24:03.5    -468   -328   -261    572    628 235.0 -30.6  34148  289.37 0854.45
2009/04/23 13:24:03.6    -581   -359   -335    684    761 238.3 -32.4  34162  289.62 0854.45
2009/04/23 13:24:03.7    -549   -216   -362    591    693 248.5 -38.8  34142  289.26 0854.45
2009/04/23 13:24:03.8    -720    -98   -500    727    882 262.2 -42.3  34156  289.50 0854.45
2009/04/23 13:24:03.9    -477   -205   -408    520    660 246.7 -46.5  34160  289.57 0854.45
2009/04/23 13:24:04.0    -453    -41   -130    455    473 264.8 -20.7  34160  289.57 0854.45
2009/04/23 13:24:04.1    -463    -44   -151    466    489 264.5 -23.2  34166  289.66 0854.45
2009/04/23 13:24:04.2    -748    -51   -354    750    829 266.1 -31.5  34148  289.38 0854.45
2009/04/23 13:24:04.3    -602      8   -356    603    700 270.8 -37.8  34142  289.26 0854.45
2009/04/23 13:24:04.4    -567     26   -360    568    672 272.7 -39.9  34152  289.45 0854.45
2009/04/23 13:24:04.5    -458     42   -355    461    581 275.3 -45.9  34150  289.40 0854.45
2009/04/23 13:24:04.6    -653     -8   -305    654    721 269.3 -31.3  34152  289.45 0854.45
2009/04/23 13:24:04.7    -693     97   -387    701    800 278.0 -35.7  34146  289.34 0854.45
2009/04/23 13:24:04.8    -686    166   -385    706    804 283.7 -35.4  34148  289.37 0854.45
2009/04/23 13:24:04.9    -634     48   -303    636    704 274.4 -31.7  34158  289.53 0854.45
2009/04/23 13:24:05.0    -637     83   -374    643    743 277.5 -37.2  34150  289.39 0854.45
2009/04/23 13:24:05.1    -663    100   -392    671    777 278.6 -37.4  34148  289.36 0854.45
2009/04/23 13:24:05.2    -677     -7   -332    678    754 269.4 -32.4  34152  289.44 0854.45
2009/04/23 13:24:05.3    -614     45   -361    616    713 274.3 -37.5  34154  289.46 0854.45
2009/04/23 13:24:05.4    -636     14   -371    637    737 271.3 -37.3  34158  289.54 0854.46
2009/04/23 13:24:05.5    -628     42   -389    630    740 273.9 -38.9  34150  289.39 0854.46
2009/04/23 13:24:05.6    -755    -16   -329    756    824 268.7 -29.5  34156  289.52 0854.46
2009/04/23 13:24:05.7    -748    -71   -305    752    811 264.5 -27.8  34142  289.25 0854.46
2009/04/23 13:24:05.8    -500    340   -211    605    640 304.2 -24.4  34152  289.45 0854.46
2009/04/23 13:24:05.9    -387    157   -134    418    438 292.2 -22.9  34146  289.34 0854.46
2009/04/23 13:24:06.0    -205    255    140    328    356 321.3  24.6  34132  289.10 0854.46
2009/04/23 13:24:06.1      24    291     42    293    297   4.9   8.2  34158  289.53 0854.46
2009/04/23 13:24:06.2       9    157    166    158    229   3.6  51.6  34168  289.70 0854.46
2009/04/23 13:24:06.3     -67    113    174    132    218 329.2  59.0  34160  289.58 0854.46
2009/04/23 13:24:06.4    -133    132     43    188    193 314.7  12.9  34158  289.55 0854.46
2009/04/23 13:24:06.5    -176    202   -111    269    291 319.0 -28.2  34152  289.44 0854.46
2009/04/23 13:24:06.6      61     92   -247    111    270  33.8 -78.4  34160  289.57 0854.46
2009/04/23 13:24:06.7      91    139   -219    167    275  33.4 -63.1  34154  289.46 0854.46
2009/04/23 13:24:06.8    -125    154   -245    199    315 320.8 -61.2  34154  289.46 0854.46
2009/04/23 13:24:06.9    -194     69   -163    207    263 289.7 -46.8  34162  289.59 0854.46
2009/04/23 13:24:07.0     -90    -32   -150     96    178 250.0 -69.0  34160  289.57 0854.46
2009/04/23 13:24:07.1    -105    -57   -106    120    160 241.1 -50.6  34160  289.58 0854.46
2009/04/23 13:24:07.2     -56    -30     -3     64     65 242.0  -3.2  34162  289.62 0854.46
2009/04/23 13:24:07.3     -71    -23     -5     75     76 251.8  -4.1  34160  289.57 0854.46
2009/04/23 13:24:07.4     -45     18    -31     49     57 291.7 -39.9  34160  289.58 0854.47
2009/04/23 13:24:07.5      74     37     45     83     94  63.4  31.4  34162  289.62 0854.47
2009/04/23 13:24:07.6     126     59     66    140    154  64.8  27.2  34160  289.57 0854.47
2009/04/23 13:24:07.7      33    120     47    125    133  15.6  21.0  34158  289.55 0854.47
2009/04/23 13:24:07.8      96    191     33    214    217  26.7   8.8  34156  289.52 0854.47
2009/04/23 13:24:07.9     178    148     78    232    245  50.2  18.6  34156  289.49 0854.47
2009/04/23 13:24:08.0     245    125    102    276    294  62.9  21.0  34156  289.49 0854.47
2009/04/23 13:24:08.1     218    241    -73    326    335  42.2 -12.6  34152  289.43 0854.47
2009/04/23 13:24:08.2     179    173    -26    249    251  46.0  -6.1  34154  289.47 0854.47
2009/04/23 13:24:08.3     152    110    -65    188    198  54.1 -24.0  34156  289.50 0854.47
2009/04/23 13:24:08.4     154    114    -82    192    208  53.4 -29.0  34158  289.53 0854.47
2009/04/23 13:24:08.5     158    116    -66    197    209  53.8 -18.7  34152  289.43 0854.47
2009/04/23 13:24:08.6     216     86    -19    233    234  68.2  -4.9  34154  289.47 0854.47
2009/04/23 13:24:08.7     170     75    -28    187    190  66.0  -8.6  34156  289.50 0854.47
2009/04/23 13:24:08.8     -44    147     58    154    164 343.1  21.3  34152  289.43 0854.47
2009/04/23 13:24:08.9     -43    129     80    137    158 341.5  32.9  34156  289.50 0854.47
2009/04/23 13:24:09.0     -49     42     80     65    103 310.4  56.4  34158  289.53 0854.47
2009/04/23 13:24:09.1     -32     20     80     38     88 302.4  72.9  34156  289.50 0854.47
2009/04/23 13:24:09.3     131      0     36    132    137  90.0  15.3  34150  289.41 0854.47
2009/04/23 13:24:09.4     491    213    157    536    559  66.5  16.4  34152  289.45 0854.47
2009/04/23 13:24:09.5     568    215    334    608    693  69.2  31.3  34152  289.43 0854.47
2009/04/23 13:24:09.6     300    389   -146    492    514  37.6 -16.5  34152  289.42 0854.47
2009/04/23 13:24:09.7     346    157   -116    381    398  65.6 -21.8  34150  289.40 0854.47
2009/04/23 13:24:09.8     393    339    223    520    565  49.2  24.6  34150  289.40 0854.47
2009/04/23 13:24:09.9     300    307    189    430    469  44.3  25.2  34168  289.72 0854.47
2009/04/23 13:24:10.0     339    339    254    480    543  45.0  30.2  34186  290.01 0854.47
2009/04/23 13:24:10.1     133    305     76    334    343  23.6  12.9  34162  289.59 0854.47
2009/04/23 13:24:10.2      82    389     63    398    403  12.0   9.0  34166  289.67 0854.47
2009/04/23 13:24:10.3       0    389     23    390    391 359.9   3.5  34168  289.71 0854.47
2009/04/23 13:24:10.4     103    266     28    286    288  21.2   5.7  34168  289.71 0854.47
2009/04/23 13:24:10.5     304    280     51    414    418  47.4   7.1  34164  289.63 0854.47
2009/04/23 13:24:10.6     268    365      7    453    454  36.3   0.9  34164  289.63 0854.47
2009/04/23 13:24:10.7     190    303     41    358    361  32.1   6.6  34162  289.62 0854.47
2009/04/23 13:24:10.8     121    300     65    324    331  22.1  11.3  34166  289.66 0854.47
2009/04/23 13:24:10.9     147    230    111    274    295  32.6  23.1  34164  289.64 0854.47
2009/04/23 13:24:11.0     201    289    219    353    415  34.8  34.9  34166  289.67 0854.47
2009/04/23 13:24:11.1     336    311    180    458    492  47.2  22.7  34174  289.81 0854.47
2009/04/23 13:24:11.2     252    298    171    391    426  40.2  25.1  34176  289.83 0854.47
2009/04/23 13:24:11.3     253    194    240    319    399  52.5  40.7  34172  289.77 0854.47
2009/04/23 13:24:11.4     256    326    111    415    430  38.1  15.0  34170  289.73 0854.47
2009/04/23 13:24:11.5     212    188    189    284    341  48.4  36.6  34166  289.66 0854.47
2009/04/23 13:24:11.6     139    213    229    255    342  33.2  46.6  34176  289.83 0854.47
2009/04/23 13:24:11.7     103    130    214    167    271  38.5  58.2  34174  289.80 0854.47
2009/04/23 13:24:11.8     113    -88    223    144    265 127.7  64.6  34172  289.77 0854.47
2009/04/23 13:24:11.9     213    -93    211    233    314 113.7  46.9  34172  289.78 0854.47
2009/04/23 13:24:12.0     265     62    232    273    358  76.7  44.7  34170  289.74 0854.47
2009/04/23 13:24:12.1      72    -14    116     74    137 101.5  64.6  34168  289.72 0854.47
2009/04/23 13:24:12.2    -144   -234    176    275    326 211.6  35.6  34174  289.80 0854.47
2009/04/23 13:24:12.3     -98   -196    146    220    264 206.7  36.5  34162  289.59 0854.47
2009/04/23 13:24:12.4    -217   -157    136    269    301 234.1  29.2  34170  289.73 0854.47
2009/04/23 13:24:12.5     -99    -87    123    133    181 228.7  47.9  34170  289.74 0854.47
2009/04/23 13:24:12.6    -215     -1    -23    216    218 269.6  -6.2  34176  289.85 0854.47
2009/04/23 13:24:12.7      95    -24    110     99    147 104.6  53.3  34180  289.91 0854.47
2009/04/23 13:24:12.8    -108    -83     64    137    151 232.3  27.1  34184  289.97 0854.47
2009/04/23 13:24:12.9    -167    -64      5    180    181 248.9   1.8  34186  290.01 0854.47
2009/04/23 13:24:13.0     -59   -106    -77    122    144 209.0 -39.9  34186  290.02 0854.47
2009/04/23 13:24:13.1    -145   -239    -26    280    282 211.2  -5.4  34186  290.00 0854.47
2009/04/23 13:24:13.2    -224    -95   -161    244    292 246.9 -40.9  34174  289.80 0854.47
2009/04/23 13:24:13.3    -530    -27   -220    531    574 267.0 -28.2  34160  289.58 0854.47
2009/04/23 13:24:13.4    -652     64    -40    656    658 275.7  -3.5  34170  289.75 0854.47
2009/04/23 13:24:13.5    -687   -180   -133    711    724 255.3 -10.6  34168  289.72 0854.47
2009/04/23 13:24:13.6    -487   -394    174    627    651 231.0  15.6  34168  289.72 0854.47
2009/04/23 13:24:13.7    -375   -407     86    554    561 222.7   8.9  34166  289.68 0854.47
2009/04/23 13:24:13.8    -281   -426    115    511    524 213.4  12.8  34172  289.77 0854.47
2009/04/23 13:24:13.9    -169   -358    198    397    443 205.3  28.4  34170  289.75 0854.47
2009/04/23 13:24:14.0      19   -320    220    321    389 176.5  37.6  34174  289.81 0854.47
2009/04/23 13:24:14.1     -77   -429    222    436    489 190.2  29.2  34172  289.76 0854.47
2009/04/23 13:24:14.2    -142   -493    187    514    546 196.1  20.9  34174  289.80 0854.47
2009/04/23 13:24:14.3    -138   -346    132    373    396 201.9  19.6  34170  289.74 0854.47
2009/04/23 13:24:14.4    -284   -311     13    422    423 222.4   1.8  34170  289.73 0854.47
2009/04/23 13:24:14.5    -308   -217    -51    378    382 234.8  -7.7  34162  289.59 0854.47
2009/04/23 13:24:14.6    -233   -219     13    320    321 226.8   2.4  34170  289.73 0854.47
2009/04/23 13:24:14.7    -189   -230     15    298    299 219.4   2.9  34162  289.61 0854.47
2009/04/23 13:24:14.8    -195   -368    108    417    431 208.0  14.6  34168  289.70 0854.47
2009/04/23 13:24:14.9    -278   -359     76    454    461 217.8   9.6  34156  289.51 0854.47
2009/04/23 13:24:15.0    -258   -315     33    408    410 219.3   4.7  34168  289.70 0854.47
2009/04/23 13:24:15.1    -227   -310     34    385    387 216.3   5.1  34172  289.76 0854.47
2009/04/23 13:24:15.2    -100   -353     36    368    370 195.9   5.7  34168  289.71 0854.47
2009/04/23 13:24:15.3    -206   -266     12    337    338 217.7   2.1  34166  289.67 0854.47
2009/04/23 13:24:15.4    -198   -267     39    333    336 216.6   6.7  34170  289.74 0854.47
2009/04/23 13:24:15.5    -160   -336     68    373    380 205.5  10.3  34172  289.77 0854.48
2009/04/23 13:24:15.6    -133   -401     86    423    432 198.5  11.6  34168  289.70 0854.48
2009/04/23 13:24:15.7    -185   -567    -41    597    599 198.1  -4.0  34160  289.58 0854.48
2009/04/23 13:24:15.8    -190   -631   -190    660    687 196.8 -16.1  34166  289.66 0854.48
2009/04/23 13:24:15.9    -154   -628     26    647    648 193.8   2.4  34172  289.79 0854.48
2009/04/23 13:24:16.0    -156   -456    -47    483    486 199.0  -5.6  34178  289.86 0854.48
2009/04/23 13:24:16.1     -85   -428    -26    437    438 191.3  -3.5  34162  289.61 0854.48
2009/04/23 13:24:16.2    -183   -414    152    453    479 203.9  18.6  34168  289.71 0854.48
2009/04/23 13:24:16.3    -119   -394     59    412    417 196.9   8.2  34168  289.72 0854.48
2009/04/23 13:24:16.4    -310   -486     94    577    585 212.6   9.3  34166  289.69 0854.48
2009/04/23 13:24:16.5      23   -678    112    679    689 178.0   9.4  34162  289.60 0854.48
2009/04/23 13:24:16.6      86   -747    168    752    771 173.4  12.6  34168  289.70 0854.48
2009/04/23 13:24:16.7     -59   -805     86    808    813 184.2   6.1  34166  289.69 0854.48
2009/04/23 13:24:16.8    -197   -658     62    687    690 196.7   5.2  34156  289.51 0854.48
2009/04/23 13:24:16.9    -384   -537    -19    661    662 215.6  -1.7  34166  289.66 0854.48
2009/04/23 13:24:17.0    -345   -510    -52    616    619 214.1  -4.9  34162  289.62 0854.48
2009/04/23 13:24:17.1    -442   -439   -186    623    651 225.2 -16.6  34172  289.76 0854.48
2009/04/23 13:24:17.2    -655   -487   -282    817    865 233.4 -19.1  34170  289.75 0854.48
2009/04/23 13:24:17.3    -560   -621   -250    837    874 222.0 -16.6  34160  289.56 0854.48
2009/04/23 13:24:17.4    -641   -631   -217    900    926 225.5 -13.6  34162  289.61 0854.48
2009/04/23 13:24:17.5    -581   -498   -195    766    791 229.4 -14.3  34164  289.64 0854.48
2009/04/23 13:24:17.6    -786   -608   -343    994   1051 232.3 -24.3  34172  289.79 0854.48
2009/04/23 13:24:17.7    -669   -344   -306    753    812 242.8 -27.8  34164  289.64 0854.48
2009/04/23 13:24:17.8    -429   -556   -232    703    740 217.6 -23.5  34162  289.59 0854.48
2009/04/23 13:24:17.9    -453   -564   -426    724    840 218.7 -37.7  34148  289.37 0854.48
2009/04/23 13:24:18.0    -515   -374   -273    637    693 234.0 -29.2  34162  289.60 0854.48
2009/04/23 13:24:18.1    -324   -556   -207    644    676 210.3 -22.9  34160  289.58 0854.48
2009/04/23 13:24:18.2    -284   -845   -478    892   1012 198.6 -34.9  34162  289.60 0854.48
2009/04/23 13:24:18.3    -264   -388   -130    470    487 214.3 -20.2  34156  289.50 0854.48
2009/04/23 13:24:18.4    -211   -330   -165    392    425 212.6 -28.6  34168  289.70 0854.48
2009/04/23 13:24:18.5     -25   -385     -7    386    387 183.8  -1.2  34156  289.52 0854.48
2009/04/23 13:24:18.6    -217   -391   -404    448    603 209.0 -51.2  34156  289.50 0854.48
2009/04/23 13:24:18.7    -617   -775   -329    991   1044 218.5 -23.6  34148  289.38 0854.48
2009/04/23 13:24:18.8    -441   -525   -420    686    804 220.0 -38.8  34160  289.56 0854.48
2009/04/23 13:24:18.9    -542   -768   -354    940   1004 215.2 -26.1  34158  289.53 0854.48
2009/04/23 13:24:19.0    -453   -653   -236    796    831 214.8 -16.5  34152  289.42 0854.48
2009/04/23 13:24:19.1    -472   -449   -296    652    716 226.4 -30.6  34160  289.58 0854.48
2009/04/23 13:24:19.2    -663   -603   -310    897    950 227.7 -19.1  34164  289.64 0854.48
2009/04/23 13:24:19.3    -637   -622   -195    891    913 225.7 -12.4  34158  289.53 0854.48
2009/04/23 13:24:19.4   -1031   -483   -399   1139   1206 244.9 -24.5  34176  289.83 0854.48
2009/04/23 13:24:19.5    -855   -155   -527    870   1017 259.7 -38.5  34160  289.58 0854.50
2009/04/23 13:24:19.6    -757   -489   -269    902    941 237.1 -21.4  34170  289.73 0854.50
2009/04/23 13:24:19.7    -988   -329   -317   1042   1089 251.6 -21.8  34160  289.56 0854.50
2009/04/23 13:24:19.8    -883   -477   -371   1004   1070 241.6 -25.7  34144  289.31 0854.50
2009/04/23 13:24:19.9    -920   -295   -454    967   1068 252.2 -31.4  34176  289.84 0854.50
2009/04/23 13:24:20.0    -478   -566   -243    742    781 220.2 -18.2  34128  289.02 0854.50
2009/04/23 13:24:20.1    -355   -679   -192    767    791 207.6 -14.1  34166  289.69 0854.50
2009/04/23 13:24:20.2    -356   -203   -381    411    560 240.3 -52.1  34172  289.78 0854.50
2009/04/23 13:24:20.3    -198   -314   -251    372    448 212.3 -41.8  34166  289.68 0854.50
2009/04/23 13:24:20.4    -250   -390   -288    464    546 212.7 -39.2  34164  289.63 0854.50
2009/04/23 13:24:20.5    -246   -645   -257    691    737 200.9 -25.8  34164  289.64 0854.50
2009/04/23 13:24:20.6    -156   -672   -297    690    751 193.1 -29.3  34164  289.64 0854.50
2009/04/23 13:24:20.7    -135   -750   -224    763    796 190.2 -16.4  34166  289.68 0854.50
2009/04/23 13:24:20.8    -271   -750   -324    798    861 199.9 -27.9  34166  289.68 0854.50
2009/04/23 13:24:20.9    -191   -747   -381    772    860 194.4 -32.6  34170  289.75 0854.50
2009/04/23 13:24:21.0     -43   -830   -297    832    884 183.0 -19.7  34166  289.66 0854.50
2009/04/23 13:24:21.1      63   -881    262    884    923 175.9  16.5  34164  289.63 0854.50
2009/04/23 13:24:21.2     125   -765    115    776    785 170.7   8.5  34166  289.69 0854.50
2009/04/23 13:24:21.3     107   -444    136    457    477 166.4  16.6  34166  289.66 0854.50
2009/04/23 13:24:21.4     256   -467    149    533    554 151.3  15.7  34168  289.70 0854.50
2009/04/23 13:24:21.5     105    -60    257    122    284 119.8  72.9  34154  289.47 0854.50
2009/04/23 13:24:21.6    -145   -175    118    228    256 219.7  29.5  34170  289.73 0854.50
2009/04/23 13:24:21.7    -301   -273     92    407    418 227.8  12.8  34172  289.77 0854.50
2009/04/23 13:24:21.8    -409   -129     -8    430    431 252.4  -1.2  34168  289.72 0854.50
2009/04/23 13:24:21.9    -285    -24    -25    287    289 265.0  -5.1  34166  289.68 0854.50
2009/04/23 13:24:22.0    -504   -131   -124    521    536 255.4 -13.4  34162  289.62 0854.50
2009/04/23 13:24:22.1    -685   -165    120    705    716 256.4   9.7  34166  289.69 0854.50
2009/04/23 13:24:22.2    -631   -232     71    673    677 249.8   6.1  34168  289.71 0854.50
2009/04/23 13:24:22.3    -479   -285   -133    558    574 239.3 -13.4  34170  289.75 0854.50
2009/04/23 13:24:22.4    -630   -620     15    885    886 225.5   1.0  34176  289.83 0854.50
2009/04/23 13:24:22.5    -748   -786    -57   1086   1088 223.6  -3.0  34172  289.76 0854.49
2009/04/23 13:24:22.6    -655   -635     60    913    916 225.9   3.8  34160  289.56 0854.49
2009/04/23 13:24:22.7    -716   -549     55    903    905 232.5   3.5  34150  289.39 0854.49
2009/04/23 13:24:22.8    -571   -657    -81    871    876 221.0  -5.3  34168  289.72 0854.49
2009/04/23 13:24:22.9    -440   -406   -155    599    619 227.3 -14.5  34172  289.78 0854.49
2009/04/23 13:24:23.0    -184   -686   -154    711    728 195.0 -12.3  34152  289.42 0854.49
2009/04/23 13:24:23.1      24   -351   -102    352    367 176.0 -16.2  34150  289.40 0854.49
2009/04/23 13:24:23.2    -136   -518    206    536    574 194.8  22.1  34170  289.74 0854.49
2009/04/23 13:24:23.3    -213   -702     56    734    736 196.9   4.4  34164  289.65 0854.49
2009/04/23 13:24:23.4     -18   -576   -148    577    596 181.8 -14.4  34170  289.73 0854.49
2009/04/23 13:24:23.5     165   -494      0    521    522 161.5   0.1  34166  289.68 0854.49
2009/04/23 13:24:23.6     160   -322    117    360    379 153.6  18.1  34166  289.67 0854.49
2009/04/23 13:24:23.7     158   -357    264    391    471 156.1  37.3  34174  289.82 0854.49
2009/04/23 13:24:23.8     208   -299    328    365    490 145.2  46.6  34170  289.75 0854.49
2009/04/23 13:24:23.9     127   -247    278    278    393 152.8  50.1  34152  289.42 0854.49
2009/04/23 13:24:24.0     -14   -223    357    224    421 183.8  64.8  34168  289.71 0854.49
2009/04/23 13:24:24.1    -227   -521    233    569    614 203.6  23.6  34160  289.56 0854.49
2009/04/23 13:24:24.2    -420   -482     41    640    642 221.1   3.7  34154  289.47 0854.49
2009/04/23 13:24:24.3    -169   -528    271    555    617 197.8  27.9  34170  289.73 0854.49
2009/04/23 13:24:24.4    -204   -611    159    645    665 198.5  13.9  34168  289.71 0854.49
2009/04/23 13:24:24.5    -181   -530    180    561    590 198.9  17.8  34170  289.75 0854.50
2009/04/23 13:24:24.6    -119   -588    216    600    637 191.5  20.7  34166  289.69 0854.50
2009/04/23 13:24:24.7       3   -583    433    584    727 179.7  40.2  34168  289.70 0854.50
2009/04/23 13:24:24.8      39   -538    376    540    658 175.8  38.4  34166  289.67 0854.50
2009/04/23 13:24:24.9     178   -711    146    733    748 165.9  11.3  34168  289.72 0854.50
2009/04/23 13:24:25.0     182   -711     80    735    740 165.6   6.2  34168  289.72 0854.50
2009/04/23 13:24:25.1      14   -752    147    753    768 178.9  11.1  34166  289.67 0854.50
2009/04/23 13:24:25.2      28   -620    -15    621    622 177.4  -1.4  34168  289.70 0854.50
2009/04/23 13:24:25.3     202   -665    300    696    757 163.1  24.9  34156  289.50 0854.50
2009/04/23 13:24:25.4      13   -516    363    517    631 178.5  38.5  34166  289.69 0854.50
2009/04/23 13:24:25.5    -327   -587    248    673    717 209.1  21.1  34172  289.76 0854.50
2009/04/23 13:24:25.6      99   -635    321    643    718 171.1  28.5  34160  289.56 0854.50
2009/04/23 13:24:25.7      -2   -764    445    765    885 180.2  32.9  34166  289.68 0854.50
2009/04/23 13:24:25.8    -112   -848    325    856    915 187.6  22.0  34152  289.42 0854.50
2009/04/23 13:24:25.9    -165   -462    263    491    557 199.7  30.3  34158  289.53 0854.50
2009/04/23 13:24:26.0      -8   -515    175    516    546 181.0  18.8  34154  289.48 0854.50
2009/04/23 13:24:26.1     -47   -432    252    435    502 186.3  32.8  34156  289.49 0854.50
2009/04/23 13:24:26.2     133   -673    186    687    712 168.8  15.2  34166  289.67 0854.50
2009/04/23 13:24:26.3      72   -547     69    552    557 172.4   7.2  34156  289.50 0854.50
2009/04/23 13:24:26.4     111   -563   -120    574    587 168.8 -11.9  34154  289.47 0854.50
2009/04/23 13:24:26.5       9   -297   -108    298    316 178.2 -25.2  34148  289.37 0854.50
2009/04/23 13:24:26.6      99   -399    206    412    460 166.0  28.5  34150  289.41 0854.50
2009/04/23 13:24:26.7      81   -525    360    532    642 171.2  37.3  34154  289.46 0854.50
2009/04/23 13:24:26.8      84   -627    441    633    771 172.3  38.3  34158  289.54 0854.50
2009/04/23 13:24:26.9     154   -697    453    715    846 167.5  35.5  34148  289.36 0854.50
2009/04/23 13:24:27.0     136   -407    319    430    535 161.5  40.1  34146  289.32 0854.50
2009/04/23 13:24:27.1     -62   -337    355    343    493 190.5  51.2  34158  289.53 0854.50
2009/04/23 13:24:27.2     -84   -261    305    275    410 197.9  53.3  34162  289.59 0854.50
2009/04/23 13:24:27.3     -76   -191    251    206    324 201.9  56.4  34158  289.54 0854.50
2009/04/23 13:24:27.4    -181   -251    118    310    331 215.8  21.8  34154  289.47 0854.50
2009/04/23 13:24:27.5    -104   -173    -81    203    218 211.0 -27.4  34154  289.48 0854.50
2009/04/23 13:24:27.6     226   -143    -19    268    269 122.2  -4.1  34152  289.44 0854.50
2009/04/23 13:24:27.7     324   -179     36    371    373 118.9   5.7  34160  289.57 0854.50
2009/04/23 13:24:27.8     206   -553     24    591    592 159.6   2.4  34162  289.59 0854.50
2009/04/23 13:24:27.9     196   -588     35    621    622 161.5   3.3  34152  289.43 0854.50
2009/04/23 13:24:28.0      62   -562     84    566    573 173.7   8.5  34142  289.25 0854.50
2009/04/23 13:24:28.1     247   -346    198    426    469 144.5  26.6  34152  289.43 0854.50
2009/04/23 13:24:28.2     191    -74    -25    205    207 111.3  -7.2  34156  289.52 0854.50
2009/04/23 13:24:28.3     175   -130    101    219    241 126.6  26.4  34160  289.56 0854.50
2009/04/23 13:24:28.4     155   -146    171    214    273 133.3  42.7  34156  289.51 0854.50
2009/04/23 13:24:28.5      21   -175     76    177    192 173.1  24.6  34156  289.50 0854.49
2009/04/23 13:24:28.6     -33     70    172     78    188 334.6  73.8  34162  289.60 0854.49
2009/04/23 13:24:28.7    -101    114    308    153    343 318.6  71.9  34166  289.66 0854.49
2009/04/23 13:24:28.8      58    113    301    128    327  27.2  75.7  34156  289.49 0854.49
2009/04/23 13:24:28.9     -89     34    262     96    279 291.3  79.2  34160  289.58 0854.49
2009/04/23 13:24:29.0    -286   -189    173    344    385 236.5  28.6  34158  289.55 0854.49
2009/04/23 13:24:29.1    -238   -281    165    369    404 220.3  25.8  34156  289.52 0854.49
2009/04/23 13:24:29.2    -171   -252    234    305    384 214.3  41.5  34152  289.45 0854.49
2009/04/23 13:24:29.3    -145     63    352    159    386 293.5  74.1  34162  289.59 0854.49
2009/04/23 13:24:29.4      38    -21    363     44    365 119.8  90.0  34172  289.76 0854.49
2009/04/23 13:24:29.5    -111   -336    424    354    552 198.3  56.0  34158  289.54 0854.49
2009/04/23 13:24:29.6     -88   -291    316    305    439 196.9  51.2  34160  289.57 0854.49
2009/04/23 13:24:29.7      24   -176    215    178    279 172.0  56.3  34162  289.59 0854.49
2009/04/23 13:24:29.8     130   -195    190    235    302 146.2  43.3  34158  289.53 0854.49
2009/04/23 13:24:29.9      83   -344    298    355    463 166.3  44.1  34162  289.60 0854.49
2009/04/23 13:24:30.0     116   -422    449    438    627 164.6  50.9  34160  289.56 0854.49
2009/04/23 13:24:30.1     -37   -534    -64    536    540 184.0  -6.9  34148  289.36 0854.49
2009/04/23 13:24:30.2     -14   -741   -249    742    784 181.2 -18.6  34156  289.50 0854.49
2009/04/23 13:24:30.3      48   -614   -227    617    657 175.5 -25.5  34154  289.48 0854.49
2009/04/23 13:24:30.4      89   -520   -252    528    585 170.3 -31.7  34154  289.46 0854.49
2009/04/23 13:24:30.5     117   -473   -153    488    511 166.1 -22.3  34158  289.54 0854.49
2009/04/23 13:24:30.6     116   -570    -52    583    586 168.4  -5.2  34164  289.63 0854.49
2009/04/23 13:24:30.7      52   -629     33    632    633 175.2   3.0  34156  289.50 0854.49
2009/04/23 13:24:30.8      75   -537    -10    543    544 172.0  -1.2  34150  289.41 0854.49
2009/04/23 13:24:30.9       4   -380    202    381    431 179.3  30.2  34158  289.55 0854.49
2009/04/23 13:24:31.0      12   -361    224    362    425 178.0  34.9  34162  289.61 0854.49
2009/04/23 13:24:31.1      -7   -314    111    315    333 181.4  20.2  34160  289.56 0854.49
2009/04/23 13:24:31.2       6   -209    100    210    232 178.2  27.3  34154  289.48 0854.49
2009/04/23 13:24:31.3      54   -232    137    239    275 166.7  32.4  34164  289.64 0854.49
2009/04/23 13:24:31.4      62   -186    157    197    251 161.5  42.7  34164  289.64 0854.49
2009/04/23 13:24:31.5       8   -191    112    192    222 177.5  33.1  34164  289.63 0854.49
2009/04/23 13:24:31.6      10   -165    100    166    193 176.2  34.4  34162  289.60 0854.49
2009/04/23 13:24:31.7      58   -193    207    202    289 163.3  50.4  34158  289.54 0854.49
2009/04/23 13:24:31.8     -29   -317    257    319    409 185.3  43.1  34168  289.71 0854.49
2009/04/23 13:24:31.9     -24   -261     41    263    267 185.3   9.0  34154  289.46 0854.49
2009/04/23 13:24:32.0      20   -378    -36    379    381 176.9  -5.5  34164  289.65 0854.49
2009/04/23 13:24:32.1     182   -433     45    470    473 157.2   5.5  34166  289.66 0854.49
2009/04/23 13:24:32.2     162   -452     91    481    490 160.3  10.7  34164  289.64 0854.49
2009/04/23 13:24:32.3      78   -461     96    468    478 170.3  11.7  34166  289.67 0854.49
2009/04/23 13:24:32.4      47   -458    196    461    500 174.1  24.5  34162  289.62 0854.47
2009/04/23 13:24:32.5       9   -557     78    558    564 179.0   8.0  34160  289.58 0854.47
2009/04/23 13:24:32.6     -73   -493    221    499    545 188.5  25.3  34160  289.57 0854.47
2009/04/23 13:24:32.7      81   -431    265    439    512 169.3  34.0  34164  289.64 0854.47
2009/04/23 13:24:32.8      82   -453    219    461    510 169.7  27.3  34160  289.57 0854.47
2009/04/23 13:24:32.9      31   -376    158    378    409 175.2  24.1  34166  289.67 0854.47
2009/04/23 13:24:33.0     -38   -499    233    501    552 184.4  26.6  34166  289.68 0854.47
2009/04/23 13:24:33.1     -27   -669    450    670    807 182.4  37.1  34154  289.48 0854.47
2009/04/23 13:24:33.2      31   -690    324    691    763 177.4  27.1  34164  289.63 0854.47
2009/04/23 13:24:33.3    -120   -634     94    646    653 190.7   8.3  34168  289.70 0854.47
2009/04/23 13:24:33.4     -51   -644    203    647    679 184.6  17.4  34158  289.53 0854.47
2009/04/23 13:24:33.5     -20   -535     67    536    541 182.2   7.2  34164  289.63 0854.47
2009/04/23 13:24:33.6      93   -421    156    432    459 167.5  20.8  34160  289.56 0854.47
2009/04/23 13:24:33.7     113   -500    411    513    657 167.2  42.9  34158  289.54 0854.47
2009/04/23 13:24:33.8     167   -582    234    606    649 164.0  22.3  34162  289.60 0854.47
2009/04/23 13:24:33.9      19   -659    275    660    715 178.3  24.1  34166  289.69 0854.47
2009/04/23 13:24:34.0      18   -852    152    853    867 178.8  10.1  34164  289.65 0854.47
2009/04/23 13:24:34.1      39   -871     13    872    873 177.4   0.9  34156  289.49 0854.47
2009/04/23 13:24:34.2     -39  -1059    -41   1060   1061 182.1  -2.2  34156  289.50 0854.47
2009/04/23 13:24:34.3    -152   -928   -136    941    951 189.3  -8.3  34160  289.57 0854.47
2009/04/23 13:24:34.4     -69   -882     54    885    887 184.5   3.5  34154  289.47 0854.46
2009/04/23 13:24:34.5    -170   -858    311    875    929 191.2  19.6  34166  289.67 0854.46
2009/04/23 13:24:34.6    -283   -976    297   1017   1060 196.2  16.3  34166  289.68 0854.46
2009/04/23 13:24:34.7    -661   -870    -66   1093   1095 217.2  -3.5  34150  289.41 0854.46
2009/04/23 13:24:34.8    -780   -950   -175   1230   1243 219.4  -8.1  34166  289.66 0854.46
2009/04/23 13:24:34.9    -472   -739   -537    878   1029 212.6 -38.8  34152  289.45 0854.46
2009/04/23 13:24:35.0    -543   -576   -474    793    923 223.3 -38.0  34156  289.50 0854.46
2009/04/23 13:24:35.1    -569   -396   -511    694    861 235.1 -44.4  34158  289.55 0854.46
2009/04/23 13:24:35.2    -663   -309   -478    732    874 245.0 -40.7  34178  289.89 0854.46
2009/04/23 13:24:35.3    -827   -136   -439    839    946 260.7 -34.3  34160  289.56 0854.46
2009/04/23 13:24:35.4    -661    -83   -332    667    745 262.8 -32.9  34172  289.76 0854.46
2009/04/23 13:24:35.5    -293   -519   -399    597    718 209.4 -41.4  34154  289.46 0854.46
2009/04/23 13:24:35.6    -174   -667   -220    690    725 194.6 -17.7  34172  289.78 0854.46
2009/04/23 13:24:35.7    -142   -547   -193    566    598 194.6 -23.8  34170  289.75 0854.46
2009/04/23 13:24:35.8    -157   -552   -198    574    608 195.9 -19.1  34166  289.69 0854.46
2009/04/23 13:24:35.9    -138   -560   -171    577    602 193.9 -16.5  34170  289.73 0854.46
2009/04/23 13:24:36.0      42   -512    -28    514    515 175.3  -3.1  34170  289.73 0854.46
2009/04/23 13:24:36.1      68   -548     16    553    554 172.9   1.7  34160  289.58 0854.46
2009/04/23 13:24:36.2    -165   -488     73    516    522 198.7   8.1  34164  289.65 0854.46
2009/04/23 13:24:36.3    -411   -815      5    913    914 206.8   0.3  34158  289.55 0854.46
2009/04/23 13:24:36.4    -511   -647    199    825    849 218.3  13.6  34156  289.49 0854.46
2009/04/23 13:24:36.5    -362   -499    160    617    638 216.0  14.6  34138  289.21 0854.46
2009/04/23 13:24:36.6    -322   -408     82    520    527 218.3   9.0  34158  289.53 0854.46
2009/04/23 13:24:36.7    -293   -450     89    538    546 213.1   9.4  34156  289.51 0854.46
2009/04/23 13:24:36.8    -306   -642    172    712    733 205.5  13.6  34162  289.59 0854.46
2009/04/23 13:24:36.9    -330   -634     86    715    721 207.5   6.9  34166  289.66 0854.46
2009/04/23 13:24:37.1    -347   -623     76    714    719 209.1   6.1  34156  289.50 0854.46
2009/04/23 13:24:37.2    -212   -382    168    438    469 209.0  22.1  34166  289.66 0854.46
2009/04/23 13:24:37.3    -332   -527     86    623    629 212.2   7.9  34164  289.64 0854.46
2009/04/23 13:24:37.4    -297   -370     93    475    485 218.7  11.1  34162  289.62 0854.46
2009/04/23 13:24:37.5    -409   -486    -28    636    637 220.1  -2.6  34156  289.50 0854.46
2009/04/23 13:24:37.6    -330   -414    -47    530    533 218.6  -5.1  34158  289.55 0854.46
2009/04/23 13:24:37.7    -290   -418   -148    510    532 214.8 -16.2  34160  289.58 0854.46
2009/04/23 13:24:37.8    -271   -441    -41    518    520 211.6  -4.6  34156  289.50 0854.46
2009/04/23 13:24:37.9    -411   -318   -113    520    533 232.3 -12.3  34160  289.57 0854.46
2009/04/23 13:24:38.0    -268   -333   -151    428    453 218.8 -24.6  34166  289.66 0854.46
2009/04/23 13:24:38.1    -239   -257   -147    352    381 222.9 -28.3  34164  289.65 0854.46
2009/04/23 13:24:38.2    -393   -266   -122    475    491 235.9 -14.4  34156  289.49 0854.46
2009/04/23 13:24:38.3    -390   -135   -131    413    434 250.8 -17.6  34158  289.53 0854.46
2009/04/23 13:24:38.4    -223   -384   -144    445    468 210.1 -17.9  34160  289.56 0854.46
2009/04/23 13:24:38.5    -247   -219   -144    331    360 228.4 -29.4  34164  289.64 0854.45
2009/04/23 13:24:38.6    -422   -347   -166    547    572 230.6 -17.0  34160  289.57 0854.45
2009/04/23 13:24:38.7    -473   -331   -244    578    627 235.0 -28.7  34166  289.69 0854.45
2009/04/23 13:24:38.8    -413   -331   -272    530    595 231.3 -33.7  34162  289.59 0854.45
2009/04/23 13:24:38.9    -500   -334   -190    602    632 236.3 -17.5  34162  289.60 0854.45
2009/04/23 13:24:39.0    -453   -361   -159    580    602 231.4 -15.4  34164  289.64 0854.45
2009/04/23 13:24:39.1    -282   -346   -229    447    502 219.2 -33.6  34166  289.66 0854.45
2009/04/23 13:24:39.2    -130   -400   -209    421    470 198.0 -32.8  34168  289.70 0854.45
2009/04/23 13:24:39.3    -195   -338   -254    391    466 210.0 -40.3  34168  289.72 0854.45
2009/04/23 13:24:39.4    -479   -245   -305    538    618 242.9 -36.4  34148  289.37 0854.45
2009/04/23 13:24:39.5    -320   -128   -239    345    419 248.1 -42.4  34158  289.55 0854.45
2009/04/23 13:24:39.6    -196   -175   -165    264    311 228.2 -39.9  34160  289.58 0854.45
2009/04/23 13:24:39.7    -436   -288   -161    523    547 236.5 -22.2  34166  289.67 0854.45
2009/04/23 13:24:39.8    -526   -269   -183    591    618 242.9 -22.2  34160  289.56 0854.45
2009/04/23 13:24:39.9    -490   -284   -169    567    592 239.9 -16.6  34154  289.47 0854.45
2009/04/23 13:24:40.0    -438   -255   -156    507    530 239.8 -21.9  34160  289.58 0854.45
2009/04/23 13:24:40.1    -390   -303   -175    494    524 232.2 -24.6  34168  289.71 0854.45
2009/04/23 13:24:40.2    -450   -286   -274    534    600 237.5 -33.7  34160  289.58 0854.45
2009/04/23 13:24:40.3    -485    -98     37    495    497 258.6   4.3  34156  289.52 0854.45
2009/04/23 13:24:40.4    -146   -149   -119    209    240 224.3 -36.7  34170  289.74 0854.45
2009/04/23 13:24:40.5    -170   -282   -144    330    360 211.0 -29.5  34168  289.71 0854.45
2009/04/23 13:24:40.6    -231   -256   -168    346    384 222.1 -32.1  34160  289.57 0854.45
2009/04/23 13:24:40.7    -268   -272   -138    383    407 224.6 -25.0  34166  289.67 0854.45
2009/04/23 13:24:40.8    -221   -177   -108    284    303 231.3 -26.4  34164  289.64 0854.45
2009/04/23 13:24:40.9    -152    -63    -98    165    191 247.4 -38.1  34166  289.67 0854.45
2009/04/23 13:24:41.0    -268   -203   -156    337    371 232.9 -31.0  34162  289.60 0854.45
2009/04/23 13:24:41.1    -232   -152    -74    278    288 236.7 -15.0  34162  289.61 0854.45
2009/04/23 13:24:41.2    -285   -118    -87    309    321 247.4 -20.4  34162  289.59 0854.45
2009/04/23 13:24:41.3    -181   -152   -172    237    292 229.8 -43.9  34156  289.49 0854.45
2009/04/23 13:24:41.4    -212   -164   -106    269    289 232.3 -26.9  34164  289.64 0854.45
2009/04/23 13:24:41.5    -199   -259   -244    327    408 217.6 -45.0  34160  289.57 0854.45
2009/04/23 13:24:41.6    -200   -113   -217    230    316 240.5 -52.6  34154  289.46 0854.45
2009/04/23 13:24:41.7    -283    -66   -121    291    315 256.8 -28.3  34172  289.76 0854.45
2009/04/23 13:24:41.8    -163   -115    -67    200    210 234.7 -23.6  34168  289.72 0854.45
2009/04/23 13:24:41.9     -72   -158    -93    174    197 204.7 -35.0  34164  289.65 0854.45
2009/04/23 13:24:42.0      16   -142    -50    143    152 173.3 -19.6  34164  289.63 0854.45
2009/04/23 13:24:42.1      21   -115     62    118    133 169.3  29.8  34166  289.67 0854.45
2009/04/23 13:24:42.2     -67   -106      3    126    127 212.1   1.8  34168  289.70 0854.45
2009/04/23 13:24:42.3     -42   -143    -47    150    157 196.5 -22.3  34166  289.69 0854.45
2009/04/23 13:24:42.4     -46   -198    -98    204    226 193.1 -31.7  34164  289.65 0854.45
2009/04/23 13:24:42.5    -226   -169   -163    283    326 233.1 -37.1  34170  289.73 0854.45
2009/04/23 13:24:42.6    -185   -190   -186    266    324 224.3 -42.8  34168  289.70 0854.45
2009/04/23 13:24:42.7     -31   -248   -166    250    300 187.2 -40.9  34162  289.61 0854.45
2009/04/23 13:24:42.8    -148   -126   -202    195    280 229.6 -55.6  34166  289.68 0854.45
2009/04/23 13:24:42.9    -153   -262   -102    304    321 210.3 -18.7  34168  289.70 0854.45
2009/04/23 13:24:43.0    -130   -298    -51    326    331 203.6  -9.0  34164  289.64 0854.45
2009/04/23 13:24:43.1     -76   -217    -54    231    238 199.4 -13.2  34168  289.70 0854.45
2009/04/23 13:24:43.2     -70   -181   -115    195    226 201.2 -37.9  34166  289.69 0854.45
2009/04/23 13:24:43.3    -121   -198    -80    233    246 211.4 -23.8  34164  289.63 0854.45
2009/04/23 13:24:43.4    -174   -163    -94    239    256 226.9 -27.2  34168  289.71 0854.45
2009/04/23 13:24:43.5    -194   -188    -78    271    282 225.8 -20.8  34168  289.71 0854.45
2009/04/23 13:24:43.6    -147   -221   -160    266    310 213.6 -38.6  34166  289.68 0854.45
2009/04/23 13:24:43.7    -133   -355   -117    380    398 200.6 -17.2  34162  289.59 0854.45
2009/04/23 13:24:43.8    -103   -257    -66    277    285 201.9 -13.4  34164  289.64 0854.45
2009/04/23 13:24:43.9    -103   -220    -77    244    256 205.2 -17.6  34162  289.61 0854.45
2009/04/23 13:24:44.0    -129   -199    -93    238    255 213.0 -27.2  34166  289.66 0854.45
2009/04/23 13:24:44.1     -87   -219   -111    236    260 201.8 -31.5  34166  289.68 0854.45
2009/04/23 13:24:44.2     -62   -333   -121    339    359 190.6 -24.8  34164  289.65 0854.45
2009/04/23 13:24:44.3     -61   -230    -82    239    252 194.9 -23.6  34170  289.73 0854.45
2009/04/23 13:24:44.4       0   -273    -98    274    292 180.1 -19.7  34168  289.70 0854.45
2009/04/23 13:24:44.5      -3   -278   -111    279    300 180.7 -27.4  34166  289.68 0854.45
2009/04/23 13:24:44.6     -27   -324   -117    326    347 184.8 -19.8  34170  289.74 0854.45
2009/04/23 13:24:44.7    -145   -282    -44    318    322 207.2  -8.0  34168  289.71 0854.45
2009/04/23 13:24:44.8    -159   -215    -51    268    273 216.5 -10.9  34170  289.75 0854.45
2009/04/23 13:24:44.9    -120   -198    -22    232    234 211.4  -5.6  34170  289.73 0854.45
2009/04/23 13:24:45.0    -176   -176    -64    249    258 225.0 -14.4  34172  289.78 0854.45
2009/04/23 13:24:45.1     -78   -234    -82    247    260 198.5 -23.8  34168  289.71 0854.45
2009/04/23 13:24:45.2     -51   -230    -97    236    255 192.7 -28.0  34170  289.73 0854.45
2009/04/23 13:24:45.3    -100   -300    -69    317    325 198.5 -12.4  34168  289.71 0854.45
2009/04/23 13:24:45.4    -169   -155   -109    230    254 227.6 -31.6  34174  289.80 0854.45
2009/04/23 13:24:45.5    -120   -108    -86    162    183 227.8 -35.0  34170  289.75 0854.46
2009/04/23 13:24:45.6    -230    -67   -104    240    261 253.6 -29.3  34174  289.81 0854.46
2009/04/23 13:24:45.7    -313    -63   -137    320    348 258.6 -28.9  34174  289.81 0854.46
2009/04/23 13:24:45.8    -205    -81    -90    221    238 248.3 -27.5  34170  289.75 0854.46
2009/04/23 13:24:45.9    -160    -33    -23    164    166 258.3  -8.2  34176  289.85 0854.46
2009/04/23 13:24:46.0     -89    -64    -50    110    120 234.0 -30.6  34184  289.99 0854.46
2009/04/23 13:24:46.1     -76   -205    -52    219    226 200.5 -13.4  34174  289.80 0854.46
2009/04/23 13:24:46.2    -187   -299   -110    353    370 212.0 -17.3  34174  289.82 0854.46
2009/04/23 13:24:46.3    -171   -294   -119    341    361 210.1 -24.4  34178  289.89 0854.46
2009/04/23 13:24:46.4    -187   -235    -97    301    316 218.5 -23.0  34182  289.93 0854.46
2009/04/23 13:24:46.5    -238   -196   -114    309    329 230.5 -25.4  34182  289.93 0854.46
2009/04/23 13:24:46.6    -118   -199   -129    232    265 210.7 -35.8  34184  289.98 0854.46
2009/04/23 13:24:46.7     -65   -167   -145    180    231 201.2 -47.9  34184  289.99 0854.46
2009/04/23 13:24:46.8     -54   -179   -190    188    267 196.9 -54.5  34182  289.95 0854.46
2009/04/23 13:24:46.9    -138   -215   -112    256    279 212.7 -29.5  34178  289.88 0854.46
2009/04/23 13:24:47.0    -116   -186   -113    220    247 211.9 -33.7  34182  289.95 0854.46
2009/04/23 13:24:47.1     -74   -142   -116    161    198 207.6 -43.9  34180  289.91 0854.46
2009/04/23 13:24:47.2     -38   -248   -105    252    273 188.9 -28.2  34172  289.78 0854.46
2009/04/23 13:24:47.3      13   -231    -33    232    235 176.6  -8.3  34182  289.93 0854.46
2009/04/23 13:24:47.4      23   -212    -43    214    219 173.7 -11.6  34180  289.92 0854.46
2009/04/23 13:24:47.5      59   -231     42    239    243 165.7  10.1  34180  289.90 0854.47
2009/04/23 13:24:47.6      45   -222     66    227    237 168.5  16.3  34180  289.90 0854.47
2009/04/23 13:24:47.7      48   -194     47    200    206 166.0  13.2  34176  289.85 0854.47
2009/04/23 13:24:47.8      45   -201     73    207    220 167.3  19.4  34178  289.87 0854.47
2009/04/23 13:24:47.9       8   -193     58    194    203 177.5  16.6  34180  289.92 0854.47
2009/04/23 13:24:48.0     -17   -157     42    158    164 186.2  15.0  34178  289.89 0854.47
2009/04/23 13:24:48.1     -19   -137     68    139    154 188.1  27.3  34180  289.91 0854.47
2009/04/23 13:24:48.2     -26   -112     36    116    122 193.4  17.4  34178  289.87 0854.47
2009/04/23 13:24:48.3      17   -231      4    232    233 175.6   1.0  34178  289.87 0854.47
2009/04/23 13:24:48.4      16   -175     92    176    198 174.7  29.8  34180  289.92 0854.47
2009/04/23 13:24:48.5       3   -223     99    224    244 179.1  25.3  34176  289.83 0854.47
2009/04/23 13:24:48.6     -37   -143     53    148    157 194.7  20.4  34176  289.84 0854.47
2009/04/23 13:24:48.7     -97    -67     11    119    120 235.4   5.4  34174  289.82 0854.47
2009/04/23 13:24:48.8     -77    -64     83    101    130 230.0  43.7  34186  290.01 0854.47
2009/04/23 13:24:48.9     -51    -25    123     57    135 243.8  73.1  34186  290.01 0854.47
2009/04/23 13:24:49.0     -45      2     51     46     68 272.6  52.2  34178  289.89 0854.47
2009/04/23 13:24:49.1    -115     32    -36    120    125 285.9 -21.8  34178  289.87 0854.47
2009/04/23 13:24:49.2    -131     78    -14    153    154 300.7  -5.6  34176  289.84 0854.47
2009/04/23 13:24:49.3    -135    182    -65    227    237 323.5 -16.0  34182  289.93 0854.47
2009/04/23 13:24:49.4    -143    138    -63    199    208 314.0 -22.8  34178  289.87 0854.47
2009/04/23 13:24:49.5    -108    104    -81    151    171 314.0 -35.0  34182  289.94 0854.45
2009/04/23 13:24:49.6    -103    161    -37    192    196 327.5 -10.9  34180  289.91 0854.45
2009/04/23 13:24:49.7    -104    136      8    172    173 322.6   2.9  34176  289.85 0854.45
2009/04/23 13:24:49.8     -89     53     86    104    134 300.7  43.8  34178  289.89 0854.45
2009/04/23 13:24:49.9     -78    145     71    165    179 331.5  24.9  34176  289.85 0854.45
2009/04/23 13:24:50.0     -57    156      6    167    168 339.7   2.1  34178  289.89 0854.45
2009/04/23 13:24:50.1     -72    131     22    150    152 331.0   8.5  34180  289.92 0854.45
2009/04/23 13:24:50.2     -86    127     19    154    156 325.7   7.2  34180  289.92 0854.45
2009/04/23 13:24:50.3     -56    102     38    117    124 331.1  17.9  34180  289.92 0854.45
2009/04/23 13:24:50.4     -25    142     -4    145    146 349.8  -1.8  34182  289.94 0854.45
2009/04/23 13:24:50.5     -35    182     37    186    190 348.9  11.4  34178  289.87 0854.45
2009/04/23 13:24:50.6     -16    182     59    183    193 354.9  17.9  34178  289.89 0854.45
2009/04/23 13:24:50.7      -2    180     55    181    190 359.1  17.1  34180  289.92 0854.45
2009/04/23 13:24:50.8       0    130     43    131    139 359.6  18.4  34182  289.94 0854.45
2009/04/23 13:24:50.9     -13    114     27    115    119 353.3  13.1  34182  289.94 0854.45
2009/04/23 13:24:51.0     -12     96     35     97    103 352.4  20.4  34182  289.96 0854.45
2009/04/23 13:24:51.1     -39     80     47     90    101 334.1  29.8  34186  290.01 0854.45
2009/04/23 13:24:51.2     -21     21     10     31     33 315.0  19.2  34184  289.97 0854.45
2009/04/23 13:24:51.3      38     24    -43     46     62  57.5 -52.4  34182  289.96 0854.45
2009/04/23 13:24:51.4      36     10    -69     38     78  73.2 -73.7  34182  289.94 0854.45
2009/04/23 13:24:51.5      21     18    -87     28     91  48.7 -85.6  34186  290.02 0854.42
2009/04/23 13:24:51.6      45     32    -64     56     85  54.0 -58.7  34182  289.96 0854.42
2009/04/23 13:24:51.7      77     35    -32     85     90  65.6 -25.9  34184  289.97 0854.42
2009/04/23 13:24:51.8     110      0     30    111    116  90.0  15.3  34182  289.94 0854.42
2009/04/23 13:24:51.9     116    -45     10    125    126 111.3   4.9  34180  289.91 0854.42
2009/04/23 13:24:52.0     111    -47      3    121    122 113.1   1.8  34182  289.94 0854.42
2009/04/23 13:24:52.1     111    -61     15    127    128 118.9   6.9  34180  289.92 0854.42
2009/04/23 13:24:52.2     102    -49     53    114    125 115.8  26.6  34182  289.94 0854.42
2009/04/23 13:24:52.3     114    -72     46    135    143 122.4  18.9  34182  289.94 0854.42
2009/04/23 13:24:52.4      79    -85     10    117    118 137.2   4.9  34178  289.89 0854.42
2009/04/23 13:24:52.5      91   -112     15    145    146 140.8   5.9  34178  289.89 0854.42
2009/04/23 13:24:52.6      77   -113     44    137    144 145.7  17.9  34178  289.87 0854.42
2009/04/23 13:24:52.7      41   -110     51    118    128 159.5  25.1  34178  289.89 0854.42
2009/04/23 13:24:52.8       5   -167     47    168    175 178.2  15.6  34182  289.94 0854.42
2009/04/23 13:24:52.9      16   -182     10    183    184 174.9   3.3  34184  289.97 0854.42
2009/04/23 13:24:53.0      34   -189     -2    193    194 169.8  -0.7  34182  289.94 0854.42
2009/04/23 13:24:53.1      66   -209      9    220    221 162.4   2.5  34180  289.92 0854.42
2009/04/23 13:24:53.2      85   -195     10    213    214 156.3   2.9  34182  289.94 0854.42
2009/04/23 13:24:53.3      77   -176     22    193    195 156.4   6.7  34180  289.92 0854.42
2009/04/23 13:24:53.4      65   -135     23    151    153 154.1   9.0  34182  289.96 0854.42
2009/04/23 13:24:53.5      62   -121     26    137    140 152.8  11.1  34180  289.92 0854.42
2009/04/23 13:24:53.6      35   -109     35    115    121 162.2  17.3  34182  289.96 0854.42
2009/04/23 13:24:53.7      50   -105     40    117    124 154.5  18.9  34184  289.97 0854.42
2009/04/23 13:24:53.8      49   -134     59    143    154 159.9  23.1  34182  289.96 0854.42
2009/04/23 13:24:53.9      65   -158     60    171    182 157.5  19.6  34184  289.97 0854.42
2009/04/23 13:24:54.0      96   -166     71    193    205 149.9  20.9  34184  289.97 0854.42
2009/04/23 13:24:54.1      90   -170     67    193    205 152.1  19.2  34182  289.94 0854.42
2009/04/23 13:24:54.2      89   -144     85    170    190 148.1  28.2  34184  289.97 0854.42
2009/04/23 13:24:54.3      86   -138     92    163    187 147.9  31.9  34182  289.96 0854.42
2009/04/23 13:24:54.4      90   -108     47    141    149 140.3  18.4  34182  289.96 0854.42
2009/04/23 13:24:54.5     102    -90     37    137    143 131.3  15.3  34182  289.96 0854.42
2009/04/23 13:24:54.6      91   -100     66    136    151 137.7  27.3  34182  289.94 0854.42
2009/04/23 13:24:54.7      82    -82     86    116    144 135.0  39.7  34180  289.91 0854.42
2009/04/23 13:24:54.8     117    -74     58    139    150 122.4  23.6  34180  289.91 0854.42
2009/04/23 13:24:54.9     177    -63     73    189    202 109.7  22.0  34180  289.91 0854.42
2009/04/23 13:24:55.0     131    -23    117    134    177 100.1  45.8  34184  289.99 0854.42
2009/04/23 13:24:55.1     159    -54    105    168    198 108.8  35.0  34184  289.97 0854.42
2009/04/23 13:24:55.2     125    -79    125    149    194 122.4  44.1  34184  289.97 0854.42
2009/04/23 13:24:55.3     120    -55     94    133    162 114.8  38.6  34184  289.97 0854.42
2009/04/23 13:24:55.4     100   -110     11    149    150 137.7   4.4  34182  289.94 0854.42
2009/04/23 13:24:55.5      73   -142    -44    160    167 152.6 -15.4  34184  289.97 0854.42
2009/04/23 13:24:55.6      49   -183    -51    190    197 164.8 -15.0  34178  289.87 0854.42
2009/04/23 13:24:55.7      65   -219    -13    229    230 163.5  -3.3  34180  289.92 0854.42
2009/04/23 13:24:55.8      37   -215     18    219    220 170.2   4.9  34184  289.97 0854.42
2009/04/23 13:24:55.9      37   -249     40    252    256 171.5   9.0  34182  289.93 0854.42
2009/04/23 13:24:56.0     117   -193     51    226    232 148.8  12.9  34180  289.92 0854.42
2009/04/23 13:24:56.1     102   -197     81    222    236 152.6  20.9  34178  289.89 0854.42
2009/04/23 13:24:56.2      74   -211    101    224    245 160.6  26.2  34182  289.95 0854.42
2009/04/23 13:24:56.3      31   -193    126    196    233 170.9  35.6  34184  289.99 0854.42
2009/04/23 13:24:56.4      41   -216    168    221    277 169.1  41.2  34182  289.95 0854.42
2009/04/23 13:24:56.5      -7   -292    217    293    364 181.4  40.1  34182  289.96 0854.42
2009/04/23 13:24:56.6      26   -318    249    320    405 175.3  41.7  34182  289.96 0854.42
2009/04/23 13:24:56.7      52   -372    189    376    420 172.0  28.6  34184  289.97 0854.42
2009/04/23 13:24:56.8     102   -279    129    298    324 160.0  25.0  34182  289.93 0854.42
2009/04/23 13:24:56.9      92   -273     90    289    303 161.3  17.3  34182  289.93 0854.42
2009/04/23 13:24:57.0     136   -285     76    316    326 154.5  13.6  34184  289.97 0854.42
2009/04/23 13:24:57.1      70   -330     60    338    344 168.0  10.1  34184  289.99 0854.42
2009/04/23 13:24:57.2      66   -400     88    406    416 170.6  12.3  34188  290.04 0854.42
2009/04/23 13:24:57.3      33   -386     46    388    391 175.0   6.8  34184  289.98 0854.42
2009/04/23 13:24:57.4      19   -392     25    393    394 177.1   3.7  34188  290.03 0854.45
2009/04/23 13:24:57.5     106   -319     65    337    344 161.5  11.0  34188  290.04 0854.45
2009/04/23 13:24:57.6       3   -275     23    276    278 179.3   4.9  34188  290.03 0854.45
2009/04/23 13:24:57.7     -23   -251      3    253    254 185.3   0.8  34190  290.09 0854.45
2009/04/23 13:24:57.8     -34   -266     13    269    270 187.3   2.8  34188  290.03 0854.45
2009/04/23 13:24:57.9     -41   -326     73    329    338 187.2  12.5  34184  289.98 0854.45
2009/04/23 13:24:58.0     -58   -249    100    256    274 193.3  22.5  34188  290.03 0854.45
2009/04/23 13:24:58.1      -4   -267     95    268    284 180.9  20.2  34190  290.09 0854.45
2009/04/23 13:24:58.2      -9   -328     72    329    337 181.6  12.4  34188  290.04 0854.45
2009/04/23 13:24:58.3     -71   -373     88    380    391 190.8  13.1  34188  290.06 0854.45
2009/04/23 13:24:58.4     -11   -384     60    385    390 181.7   9.0  34194  290.15 0854.45
2009/04/23 13:24:58.5     -25   -397     58    398    403 183.6   8.3  34192  290.10 0854.45
2009/04/23 13:24:58.6     -30   -375     55    377    382 184.7   8.3  34192  290.10 0854.45
2009/04/23 13:24:58.7       0   -369     84    370    380 180.0  12.8  34192  290.11 0854.45
2009/04/23 13:24:58.8      23   -372     87    373    384 176.4  13.2  34194  290.15 0854.45
2009/04/23 13:24:58.9      53   -408     59    412    417 172.6   8.2  34192  290.12 0854.45
2009/04/23 13:24:59.0      77   -379     69    387    394 168.5  10.1  34192  290.10 0854.45
2009/04/23 13:24:59.1      73   -368     24    376    377 168.8   3.8  34190  290.08 0854.45
2009/04/23 13:24:59.2      97   -436     -9    447    448 167.4  -1.3  34190  290.07 0854.45
2009/04/23 13:24:59.3      63   -453    -25    458    459 172.0  -3.1  34190  290.07 0854.45
2009/04/23 13:24:59.4     -13   -343     14    344    345 182.2   2.3  34188  290.04 0854.46
2009/04/23 13:24:59.5      21   -355     83    356    366 176.6  13.2  34188  290.03 0854.46
2009/04/23 13:24:59.6      -6   -377     85    378    388 181.0  12.8  34188  290.04 0854.46
2009/04/23 13:24:59.7      33   -340    153    342    374 174.3  25.7  34190  290.08 0854.46
2009/04/23 13:24:59.8      59   -393     90    398    409 171.4  12.8  34190  290.09 0854.46
2009/04/23 13:24:59.9     107   -389     33    404    406 164.6   4.7  34188  290.05 0854.46
2009/04/23 13:25:00.0     145   -375     -8    403    404 158.8  -1.3  34190  290.07 0854.46
2009/04/23 13:25:00.1     108   -419     49    433    436 165.5   6.6  34190  290.07 0854.46
2009/04/23 13:25:00.2     147   -465     -2    488    489 162.4  -0.3  34192  290.13 0854.46
2009/04/23 13:25:00.3     189   -460    -19    498    499 157.7  -2.3  34202  290.27 0854.46
2009/04/23 13:25:00.4     187   -366    -19    412    413 152.9  -2.7  34194  290.14 0854.46
2009/04/23 13:25:00.5     133   -400    -69    422    428 161.6  -9.4  34196  290.17 0854.46
2009/04/23 13:25:00.6     184   -342    -78    389    397 151.6 -11.3  34192  290.13 0854.46
2009/04/23 13:25:00.7     232   -367      7    435    436 147.7   1.0  34186  290.00 0854.46
2009/04/23 13:25:00.8     208   -361     11    417    418 150.0   1.6  34186  290.02 0854.46
2009/04/23 13:25:00.9     198   -341    -21    395    396 149.8  -3.2  34190  290.08 0854.46
2009/04/23 13:25:01.0     227   -277    -11    359    360 140.6  -1.8  34192  290.11 0854.46
2009/04/23 13:25:01.1     231   -282    -17    365    366 140.6  -2.7  34186  290.01 0854.46
2009/04/23 13:25:01.2     166   -269    -33    317    319 148.4  -6.1  34194  290.15 0854.46
2009/04/23 13:25:01.3     132   -280    -26    310    312 154.7  -4.9  34190  290.09 0854.46
2009/04/23 13:25:01.4      66   -374    -44    380    383 169.9  -6.7  34188  290.04 0854.48
2009/04/23 13:25:01.5     135   -424    -53    446    450 162.3  -6.9  34186  290.02 0854.48
2009/04/23 13:25:01.6     248   -389   -114    462    476 147.5 -13.9  34186  290.00 0854.48
2009/04/23 13:25:01.7      97   -301   -109    317    336 162.1 -19.0  34192  290.13 0854.48
2009/04/23 13:25:01.8     -15   -450    -52    451    454 182.0  -6.6  34192  290.12 0854.48
2009/04/23 13:25:01.9    -112   -414      2    430    431 195.2   0.4  34190  290.09 0854.48
2009/04/23 13:25:02.1    -142   -378     51    404    408 200.6   7.2  34192  290.11 0854.48
2009/04/23 13:25:02.1    -167   -288     81    333    343 210.1  13.7  34192  290.13 0854.48
2009/04/23 13:25:02.2     -81   -279    -30    291    293 196.3  -6.0  34196  290.19 0854.48
2009/04/23 13:25:02.3      -6   -309     28    310    312 181.1   5.3  34190  290.09 0854.48
2009/04/23 13:25:02.4      21   -330    143    331    360 176.3  24.9  34192  290.11 0854.48
2009/04/23 13:25:02.5     -24   -384    110    385    401 183.6  16.0  34188  290.04 0854.48
2009/04/23 13:25:02.6     -97   -416     34    428    430 193.2   4.6  34186  290.02 0854.48
2009/04/23 13:25:02.7     -59   -392     49    397    401 188.6   7.1  34192  290.10 0854.48
2009/04/23 13:25:02.8    -138   -322     55    351    356 203.3   9.0  34186  290.01 0854.48
2009/04/23 13:25:02.9    -138   -213     50    255    260 213.0  11.1  34186  290.00 0854.48
2009/04/23 13:25:03.0     -99   -285    121    302    325 199.2  23.0  34188  290.05 0854.48
2009/04/23 13:25:03.1     -86   -251     96    266    283 199.1  19.9  34188  290.03 0854.48
2009/04/23 13:25:03.3    -106   -192     61    220    229 209.0  15.6  34190  290.08 0854.48
2009/04/23 13:25:03.3    -165   -196     50    257    262 220.1  11.1  34190  290.07 0854.48
2009/04/23 13:25:03.4    -146   -166     -4    222    223 221.4  -1.2  34186  290.01 0854.50
2009/04/23 13:25:03.6    -142   -217     23    260    262 213.2   5.2  34188  290.05 0854.50
2009/04/23 13:25:03.7    -146   -251     -9    291    292 210.3  -1.8  34188  290.05 0854.50
2009/04/23 13:25:03.7    -221   -364    -35    426    428 211.3  -4.8  34186  290.02 0854.50
2009/04/23 13:25:03.9    -251   -358    -80    438    446 215.0 -10.4  34180  289.92 0854.50
2009/04/23 13:25:04.0    -246   -294    -53    384    388 220.0  -7.9  34182  289.93 0854.50
2009/04/23 13:25:04.1    -228   -227    -63    322    329 225.1 -11.1  34178  289.88 0854.50
2009/04/23 13:25:04.2    -227   -141    -95    268    285 238.2 -19.7  34182  289.95 0854.50
2009/04/23 13:25:04.3    -267   -169    -85    317    329 237.6 -15.0  34178  289.86 0854.50
2009/04/23 13:25:04.4    -209   -107    -66    235    244 242.9 -20.7  34184  289.98 0854.50
2009/04/23 13:25:04.5    -180    -22    -47    182    189 263.0 -14.7  34182  289.94 0854.54
2009/04/23 13:25:04.6    -257    -43     -3    261    262 260.4  -0.7  34182  289.95 0854.54
2009/04/23 13:25:04.7    -191    -57    -42    200    205 253.2 -11.9  34188  290.06 0854.54
2009/04/23 13:25:04.8    -196   -285    -86    347    358 214.5 -13.9  34182  289.94 0854.54
2009/04/23 13:25:04.9    -192   -312   -101    367    381 211.7 -15.4  34184  289.99 0854.54
2009/04/23 13:25:05.0    -231   -270    -96    356    369 220.5 -15.2  34188  290.06 0854.54
2009/04/23 13:25:05.1    -155   -290    -79    329    339 208.1 -13.6  34182  289.94 0854.54
2009/04/23 13:25:05.2     -44   -313    -83    317    328 188.1 -14.8  34184  289.97 0854.54
2009/04/23 13:25:05.3    -150   -282    -98    320    335 208.1 -17.2  34184  289.98 0854.54
2009/04/23 13:25:05.4     -71   -298    -86    307    318 193.4 -20.3  34184  289.97 0854.54
2009/04/23 13:25:05.5     -91   -342   -116    355    373 195.0 -23.3  34184  289.98 0854.54
2009/04/23 13:25:05.6     -63   -313    -94    320    334 191.5 -16.4  34182  289.94 0854.54
2009/04/23 13:25:05.7     -78   -264    -92    276    290 196.5 -23.6  34184  289.97 0854.54
2009/04/23 13:25:05.8     -58   -246    -54    253    259 193.4 -12.2  34182  289.95 0854.54
2009/04/23 13:25:05.9       3   -237    -66    238    248 179.1 -15.5  34184  289.98 0854.54
2009/04/23 13:25:06.0      35   -283    -68    286    294 172.8 -13.4  34184  289.97 0854.54
2009/04/23 13:25:06.1      41   -297    -16    300    301 172.0  -3.2  34180  289.92 0854.54
2009/04/23 13:25:06.2       0   -337     17    338    339 180.1   2.9  34182  289.93 0854.54
2009/04/23 13:25:06.3       0   -436     38    437    439 180.1   5.0  34180  289.90 0854.54
2009/04/23 13:25:06.4     -10   -418    -53    419    423 181.5  -7.3  34180  289.90 0854.54
2009/04/23 13:25:06.5      59   -425    -86    430    439 172.0 -11.3  34182  289.94 0854.49
2009/04/23 13:25:06.6      64   -394    -36    400    402 170.7  -5.2  34184  289.99 0854.49
2009/04/23 13:25:06.7      59   -343    -50    349    353 170.2  -8.2  34186  290.01 0854.49
2009/04/23 13:25:06.8      46   -342   -117    346    366 172.3 -18.8  34180  289.91 0854.49
2009/04/23 13:25:06.9     -91   -328      7    341    342 195.5   1.2  34184  289.99 0854.49
2009/04/23 13:25:07.0     -54   -321     19    326    327 189.6   3.5  34180  289.90 0854.49
2009/04/23 13:25:07.1     -70   -325     39    333    336 192.3   6.8  34180  289.91 0854.49
2009/04/23 13:25:07.2     -32   -323     -7    325    326 185.7  -1.4  34180  289.92 0854.49
2009/04/23 13:25:07.3     128   -384    -54    405    409 161.5  -7.7  34176  289.85 0854.49
2009/04/23 13:25:07.4     -16   -339    111    340    358 182.8  18.2  34178  289.87 0854.49
2009/04/23 13:25:07.5     -32   -409     49    411    414 184.5   6.9  34180  289.90 0854.49
2009/04/23 13:25:07.6      48   -414     12    417    418 173.3   1.7  34176  289.83 0854.49
2009/04/23 13:25:07.7      64   -348     56    354    359 169.5   9.0  34174  289.82 0854.49
2009/04/23 13:25:07.8      81   -312    181    323    370 165.3  31.7  34180  289.91 0854.49
2009/04/23 13:25:07.9      69   -317    230    325    398 167.7  38.7  34182  289.93 0854.49
2009/04/23 13:25:08.0      68   -332    229    340    409 168.4  37.2  34178  289.86 0854.49
2009/04/23 13:25:08.1     123   -297    237    322    399 157.5  39.9  34182  289.94 0854.49
2009/04/23 13:25:08.2      41   -267    245    271    365 171.1  46.8  34188  290.06 0854.49
2009/04/23 13:25:08.3      66   -347    224    354    418 169.2  35.5  34186  290.01 0854.49
2009/04/23 13:25:08.4     148   -325    202    358    411 155.5  31.9  34180  289.91 0854.49
2009/04/23 13:25:08.5     156   -330    274    366    457 154.7  40.6  34182  289.95 0854.47
2009/04/23 13:25:08.6     190   -302    187    357    403 147.8  29.8  34176  289.84 0854.47
2009/04/23 13:25:08.7     222   -279    221    357    419 141.5  34.9  34174  289.82 0854.47
2009/04/23 13:25:08.8     152   -356    241    388    456 156.8  34.9  34172  289.77 0854.47
2009/04/23 13:25:08.9     204   -318    292    378    477 147.3  41.6  34172  289.77 0854.47
2009/04/23 13:25:09.0     220   -214    153    308    343 134.2  28.2  34178  289.86 0854.47
2009/04/23 13:25:09.1     291   -160    191    333    383 118.8  32.6  34182  289.93 0854.47
2009/04/23 13:25:09.2     277   -110    272    299    404 111.7  46.9  34174  289.81 0854.47
2009/04/23 13:25:09.3     256   -236     97    349    363 132.7  15.6  34170  289.74 0854.47
2009/04/23 13:25:09.4     300   -103     78    318    328 109.1  13.8  34174  289.81 0854.47
2009/04/23 13:25:09.5     266   -191    191    328    379 125.7  33.0  34172  289.79 0854.47
2009/04/23 13:25:09.6     148   -174    179    229    290 139.7  42.0  34176  289.83 0854.47
2009/04/23 13:25:09.7     105   -214    162    239    288 153.9  37.4  34180  289.92 0854.47
2009/04/23 13:25:09.8     206   -264    137    336    362 142.0  23.4  34170  289.74 0854.47
2009/04/23 13:25:09.9      87   -321    182    333    379 164.7  31.3  34174  289.81 0854.47
2009/04/23 13:25:10.0      70   -342    231    350    419 168.4  36.5  34172  289.77 0854.47
2009/04/23 13:25:10.1      51   -298    190    303    357 170.2  35.1  34174  289.81 0854.47
2009/04/23 13:25:10.2      58   -230    109    238    261 165.7  26.2  34174  289.81 0854.47
2009/04/23 13:25:10.3      69   -242     95    252    269 164.0  21.5  34176  289.83 0854.47
2009/04/23 13:25:10.4      67   -255     92    264    279 165.1  20.0  34178  289.88 0854.47
2009/04/23 13:25:10.5      27   -348    115    350    369 175.4  18.2  34188  290.06 0854.49
2009/04/23 13:25:10.6      76   -258    135    270    301 163.5  28.5  34188  290.05 0854.49
2009/04/23 13:25:10.7     160   -245    138    293    323 146.8  27.1  34184  289.98 0854.49
2009/04/23 13:25:10.8     194   -352    191    402    445 151.1  27.2  34172  289.77 0854.49
2009/04/23 13:25:10.9     132   -330    110    356    373 158.2  17.2  34188  290.06 0854.49
2009/04/23 13:25:11.0      34   -345     56    347    352 174.3   9.2  34188  290.03 0854.49
2009/04/23 13:25:11.1     116   -428    138    444    465 164.8  17.3  34176  289.83 0854.49
2009/04/23 13:25:11.2      99   -391    152    404    431 165.7  21.7  34170  289.75 0854.49
2009/04/23 13:25:11.3     166   -497     82    525    532 161.5   8.9  34172  289.77 0854.49
2009/04/23 13:25:11.4      24   -531     52    532    535 177.3   5.7  34174  289.80 0854.49
2009/04/23 13:25:11.5      42   -473     26    475    476 174.8   3.1  34176  289.83 0854.49
2009/04/23 13:25:11.6      64   -429    -22    434    435 171.5  -3.0  34176  289.83 0854.49
2009/04/23 13:25:11.7     109   -420     71    434    440 165.4   9.3  34170  289.75 0854.49
2009/04/23 13:25:11.8     -51   -394    120    398    416 187.4  16.8  34168  289.70 0854.49
2009/04/23 13:25:11.9    -171   -457    172    489    518 200.5  20.1  34166  289.67 0854.49
2009/04/23 13:25:12.0    -195   -440     54    482    486 203.9   6.5  34170  289.74 0854.49
2009/04/23 13:25:12.1    -176   -561     92    589    597 197.4   8.9  34160  289.56 0854.49
2009/04/23 13:25:12.2    -243   -527    142    581    599 204.8  13.8  34164  289.64 0854.49
2009/04/23 13:25:12.3    -232   -331     73    405    412 215.0  10.3  34168  289.70 0854.49
2009/04/23 13:25:12.4    -293   -294   -131    416    436 224.9 -22.5  34176  289.85 0854.49
2009/04/23 13:25:12.5    -276   -439    -14    519    520 212.2  -1.6  34166  289.67 0854.52
2009/04/23 13:25:12.6    -318   -483    -88    579    586 213.4  -8.7  34166  289.66 0854.52
2009/04/23 13:25:12.7    -451   -695   -159    829    845 213.0 -10.9  34166  289.68 0854.52
2009/04/23 13:25:12.8    -273   -427     82    508    515 212.6   9.2  34142  289.25 0854.52
2009/04/23 13:25:12.9    -546   -252    -58    602    605 245.2  -5.6  34144  289.29 0854.52
2009/04/23 13:25:13.0    -142   -312    118    343    363 204.5  19.1  34172  289.79 0854.52
2009/04/23 13:25:13.1    -138   -398    271    422    501 199.2  35.6  34172  289.78 0854.52
2009/04/23 13:25:13.2     -70   -346    115    353    372 191.5  18.1  34158  289.55 0854.52
2009/04/23 13:25:13.3    -242   -340    122    418    436 215.4  16.3  34178  289.87 0854.52
2009/04/23 13:25:13.4    -155    -11    101    156    185 265.7  35.6  34180  289.91 0854.52
2009/04/23 13:25:13.5    -223     82    105    238    260 290.4  25.2  34170  289.75 0854.52
2009/04/23 13:25:13.6    -391    129    144    412    436 288.3  20.0  34174  289.80 0854.52
2009/04/23 13:25:13.7    -340    120    233    361    429 289.5  35.9  34174  289.82 0854.52
2009/04/23 13:25:13.8    -260    132    151    292    328 296.9  29.4  34178  289.88 0854.52
2009/04/23 13:25:13.9    -462    -75    163    469    497 260.8  19.2  34186  290.01 0854.52
2009/04/23 13:25:14.0    -510    -48    -88    513    521 264.6  -9.8  34182  289.95 0854.52
2009/04/23 13:25:14.1    -381   -254   -126    459    475 236.3 -20.0  34178  289.89 0854.52
2009/04/23 13:25:14.2    -589   -257   -177    644    667 246.4 -20.0  34162  289.60 0854.52
2009/04/23 13:25:14.3    -452   -383   -183    593    621 229.7 -17.2  34166  289.66 0854.52
2009/04/23 13:25:14.4    -278   -320    -41    425    428 221.0  -5.6  34168  289.72 0854.52
2009/04/23 13:25:14.5    -341   -427    -95    547    556 218.6  -9.9  34168  289.70 0854.50
2009/04/23 13:25:14.6    -458    -20    -14    459    460 267.4  -1.8  34180  289.92 0854.50
2009/04/23 13:25:14.7    -337     -3    -30    338    340 269.4  -5.1  34176  289.84 0854.50
2009/04/23 13:25:14.8    -246    -26   -141    248    285 263.9 -36.5  34180  289.90 0854.50
2009/04/23 13:25:14.9    -413    131    109    434    448 287.6  14.2  34186  290.00 0854.50
2009/04/23 13:25:15.0    -505    113    156    518    542 282.6  16.8  34206  290.35 0854.50
2009/04/23 13:25:15.1    -435   -215     21    486    487 243.7   2.5  34176  289.83 0854.50
2009/04/23 13:25:15.2    -412   -278    -85    498    506 236.0  -9.7  34178  289.86 0854.50
2009/04/23 13:25:15.3    -360     99    -98    374    387 285.4 -14.8  34178  289.87 0854.50
2009/04/23 13:25:15.4    -546    -72     68    551    556 262.4   7.1  34188  290.06 0854.50
2009/04/23 13:25:15.5    -564   -300   -105    639    648 242.0  -9.3  34172  289.76 0854.50
2009/04/23 13:25:15.6    -541   -438    -45    697    699 231.0  -3.7  34176  289.83 0854.50
2009/04/23 13:25:15.7    -494   -190    127    530    546 248.9  13.5  34184  289.97 0854.50
2009/04/23 13:25:15.8    -314   -433     55    536    539 216.0   5.9  34178  289.89 0854.50
2009/04/23 13:25:15.9    -253   -426    197    496    533 210.7  23.0  34178  289.87 0854.50
2009/04/23 13:25:16.0    -465   -465    197    659    689 225.0  16.7  34172  289.77 0854.50
2009/04/23 13:25:16.1    -207   -554     73    592    597 200.5   7.1  34170  289.73 0854.50
2009/04/23 13:25:16.2    -188   -470    145    507    528 201.9  16.0  34164  289.63 0854.50
2009/04/23 13:25:16.3    -252   -409    141    481    502 211.7  16.4  34172  289.79 0854.50
2009/04/23 13:25:16.4    -416    -69     21    422    423 260.5   2.9  34176  289.83 0854.50
2009/04/23 13:25:16.5    -375   -164    143    410    434 246.3  20.0  34182  289.94 0854.43
2009/04/23 13:25:16.6     -32   -424     29    426    428 184.4   4.0  34170  289.73 0854.43
2009/04/23 13:25:16.7    -244   -325    -12    407    408 216.9  -1.7  34172  289.78 0854.43
2009/04/23 13:25:16.8    -177   -449     46    483    486 201.5   5.5  34176  289.84 0854.43
2009/04/23 13:25:16.9    -140   -312     82    343    353 204.2  13.5  34176  289.84 0854.43
2009/04/23 13:25:17.0     -78   -291    215    302    370 195.1  38.8  34178  289.89 0854.43
2009/04/23 13:25:17.1    -126   -536    142    551    570 193.3  14.5  34170  289.74 0854.43
2009/04/23 13:25:17.2     -95   -470     75    480    486 191.5   8.9  34172  289.79 0854.43
2009/04/23 13:25:17.3     -59   -335     82    341    351 190.1  13.6  34168  289.71 0854.43
2009/04/23 13:25:17.4     -39   -322    216    325    390 187.0  36.7  34172  289.76 0854.43
2009/04/23 13:25:17.5    -142   -279     97    314    329 207.0  17.2  34172  289.76 0854.43
2009/04/23 13:25:17.6     -67   -334    119    341    362 191.5  19.3  34166  289.67 0854.43
2009/04/23 13:25:17.7     -66   -386    173    392    428 189.7  25.3  34170  289.73 0854.43
2009/04/23 13:25:17.8    -134   -483    144    502    523 195.6  16.0  34166  289.69 0854.43
2009/04/23 13:25:17.9    -127   -475    140    492    512 195.1  15.9  34166  289.66 0854.43
2009/04/23 13:25:18.0    -205   -306    192    369    415 213.9  29.6  34166  289.69 0854.43
2009/04/23 13:25:18.1     -70   -335    180    343    387 191.8  29.8  34166  289.69 0854.43
2009/04/23 13:25:18.2    -202   -443    172    487    516 204.5  20.2  34164  289.64 0854.43
2009/04/23 13:25:18.3    -154   -391    134    421    442 201.6  17.7  34170  289.75 0854.43
2009/04/23 13:25:18.4     -99   -477     28    488    489 191.8   3.3  34168  289.71 0854.43
2009/04/23 13:25:18.5    -180   -508     80    540    547 199.6   8.5  34172  289.77 0854.39
2009/04/23 13:25:18.6    -179   -308     96    357    370 210.1  15.2  34168  289.72 0854.39
2009/04/23 13:25:18.7    -165   -362     14    398    399 204.5   2.1  34172  289.76 0854.39
2009/04/23 13:25:18.8    -217   -273    -44    349    352 218.5  -7.3  34170  289.74 0854.39
2009/04/23 13:25:18.9    -156   -355     99    388    401 203.7  14.3  34172  289.77 0854.39
2009/04/23 13:25:19.0    -158   -330     23    366    367 205.6   3.7  34172  289.79 0854.39
2009/04/23 13:25:19.1    -134   -306     59    335    341 203.6  10.1  34170  289.74 0854.39
2009/04/23 13:25:19.2    -190   -343     47    393    396 209.0   6.9  34174  289.82 0854.39
2009/04/23 13:25:19.3    -178   -407     58    445    449 203.7   7.5  34174  289.80 0854.39
2009/04/23 13:25:19.4    -226   -474    -22    526    527 205.5  -2.5  34176  289.84 0854.39
2009/04/23 13:25:19.5    -163   -408      1    440    441 201.9   0.2  34182  289.95 0854.39
2009/04/23 13:25:19.6    -246   -299     68    388    395 219.5  10.0  34178  289.86 0854.39
2009/04/23 13:25:19.7    -261   -266     78    373    382 224.4  11.8  34172  289.76 0854.39
2009/04/23 13:25:19.8    -281   -363     77    460    467 217.8   9.6  34170  289.75 0854.39
2009/04/23 13:25:19.9    -302   -443    -58    537    541 214.3  -6.3  34182  289.96 0854.39
2009/04/23 13:25:20.0    -295   -495   -137    577    594 210.8 -13.4  34170  289.73 0854.39
2009/04/23 13:25:20.1    -264   -421    -67    498    503 212.1  -7.7  34178  289.86 0854.39
2009/04/23 13:25:20.2    -325   -476    124    577    591 214.4  12.2  34170  289.75 0854.39
2009/04/23 13:25:20.3    -268   -544     51    607    610 206.3   4.9  34176  289.85 0854.39
2009/04/23 13:25:20.4    -228   -556     34    602    603 202.3   3.3  34172  289.78 0854.39
2009/04/23 13:25:20.5    -243   -420     84    486    494 210.1   9.9  34178  289.88 0854.44
2009/04/23 13:25:20.6    -225   -494    -53    543    546 204.5  -5.6  34174  289.80 0854.44
2009/04/23 13:25:20.7    -270   -456    148    531    552 210.7  15.6  34172  289.79 0854.44
2009/04/23 13:25:20.8    -224   -349     51    416    420 212.7   7.1  34176  289.85 0854.44
2009/04/23 13:25:20.9    -540   -219   -270    583    642 247.9 -31.0  34180  289.91 0854.44
2009/04/23 13:25:21.0    -301   -337   -177    453    486 221.8 -26.8  34178  289.89 0854.44
2009/04/23 13:25:21.1    -233   -416   -104    477    489 209.3 -12.4  34172  289.78 0854.44
2009/04/23 13:25:21.2    -275   -288    -31    399    401 223.7  -4.5  34178  289.89 0854.44
2009/04/23 13:25:21.3    -322   -254    -75    411    418 231.7 -10.4  34176  289.85 0854.44
2009/04/23 13:25:21.4    -435   -261    -87    508    516 239.1  -9.8  34176  289.84 0854.44
2009/04/23 13:25:21.5    -447   -238   -121    507    522 242.0 -13.4  34178  289.88 0854.44
2009/04/23 13:25:21.6    -531   -177   -171    560    585 251.5 -21.8  34176  289.83 0854.44
2009/04/23 13:25:21.7    -548   -258   -179    606    631 244.8 -21.2  34174  289.81 0854.44
2009/04/23 13:25:21.8    -505   -241   -180    560    588 244.5 -22.9  34174  289.80 0854.44
2009/04/23 13:25:21.9    -456   -289   -212    541    581 237.6 -26.9  34178  289.89 0854.44
2009/04/23 13:25:22.0    -496    -60   -270    500    568 263.0 -35.2  34174  289.80 0854.44
2009/04/23 13:25:22.1    -563    -27   -198    564    598 267.2 -19.4  34166  289.69 0854.44
2009/04/23 13:25:22.2    -462   -156    -70    488    494 251.3  -8.2  34166  289.67 0854.44
2009/04/23 13:25:22.3    -263    -77   -146    275    311 253.6 -34.7  34172  289.76 0854.44
2009/04/23 13:25:22.4    -325      0   -142    326    355 269.9 -29.5  34172  289.79 0854.44
2009/04/23 13:25:22.5    -328   -139    -73    357    365 247.0 -11.6  34182  289.96 0854.46
2009/04/23 13:25:22.6    -381    -75      3    389    390 258.8   0.5  34190  290.08 0854.46
2009/04/23 13:25:22.7    -366    -38    -84    369    379 264.0 -12.9  34194  290.15 0854.46
2009/04/23 13:25:22.8    -358   -167    -11    396    397 244.9  -1.7  34180  289.91 0854.46
2009/04/23 13:25:22.9    -332   -103    -91    348    360 252.7 -14.8  34178  289.86 0854.46
2009/04/23 13:25:23.0    -400     46    -90    403    413 276.7 -12.6  34172  289.78 0854.46
2009/04/23 13:25:23.1    -475     66   -173    480    510 278.0 -25.2  34172  289.78 0854.46
2009/04/23 13:25:23.2    -547    111   -201    559    595 281.5 -19.8  34178  289.88 0854.46
2009/04/23 13:25:23.3    -491     87   -172    499    529 280.1 -19.1  34176  289.83 0854.46
2009/04/23 13:25:23.4    -501    150   -187    524    557 286.7 -19.7  34168  289.72 0854.46
2009/04/23 13:25:23.5    -377    -11    -54    378    382 268.3  -8.2  34182  289.93 0854.46
2009/04/23 13:25:23.6    -423     12    -86    424    433 271.7 -11.6  34182  289.94 0854.46
2009/04/23 13:25:23.7    -275     83   -128    288    315 286.8 -30.0  34180  289.92 0854.46
2009/04/23 13:25:23.8    -353    -20    -99    354    367 266.8 -20.3  34182  289.93 0854.46
2009/04/23 13:25:23.9    -448    -37   -166    450    479 265.2 -25.7  34178  289.89 0854.46
2009/04/23 13:25:24.0    -400     77   -164    408    439 280.9 -27.5  34176  289.83 0854.46
2009/04/23 13:25:24.1    -414    154   -132    443    462 290.5 -21.5  34174  289.82 0854.46
2009/04/23 13:25:24.2    -443    178   -138    478    498 291.9 -16.2  34172  289.79 0854.46
2009/04/23 13:25:24.3    -316    -68     70    324    332 257.7  12.3  34182  289.96 0854.46
2009/04/23 13:25:24.4    -352    119   -112    372    388 288.7 -21.7  34178  289.89 0854.35
2009/04/23 13:25:24.5    -440     20   -130    441    460 272.6 -16.5  34176  289.83 0854.35
2009/04/23 13:25:24.6    -450     30   -129    451    470 273.9 -16.0  34174  289.82 0854.35
2009/04/23 13:25:24.7    -407     24   -122    408    425 273.4 -21.7  34178  289.88 0854.35
2009/04/23 13:25:24.8    -308     72   -162    317    355 283.3 -33.6  34178  289.89 0854.35
2009/04/23 13:25:24.9    -356     66    -76    363    371 280.5 -11.9  34178  289.89 0854.35
2009/04/23 13:25:25.0    -355     40   -121    358    379 276.5 -18.7  34178  289.87 0854.35
2009/04/23 13:25:25.1    -381    -52    -86    385    395 262.2 -12.7  34178  289.86 0854.35
2009/04/23 13:25:25.2    -470     22   -140    471    491 272.7 -21.4  34176  289.84 0854.35
2009/04/23 13:25:25.3    -374     29   -146    376    403 274.5 -26.7  34178  289.89 0854.35
2009/04/23 13:25:25.4    -399    -30   -172    401    436 265.6 -29.2  34178  289.87 0854.35
2009/04/23 13:25:25.5    -356     -5   -162    357    392 269.2 -30.6  34176  289.84 0854.35
2009/04/23 13:25:25.6    -320    -34   -194    322    375 263.9 -38.2  34178  289.87 0854.35
2009/04/23 13:25:25.7    -318    -44   -183    322    370 262.0 -36.7  34178  289.86 0854.35
2009/04/23 13:25:25.8    -256    -35   -224    259    342 262.1 -49.6  34176  289.85 0854.35
2009/04/23 13:25:25.9    -234    -61   -275    242    366 255.2 -58.7  34180  289.91 0854.35
2009/04/23 13:25:26.0    -284    -54   -296    290    414 259.2 -55.1  34182  289.96 0854.35
2009/04/23 13:25:26.1    -192    -64   -272    203    339 251.4 -64.2  34180  289.92 0854.35
2009/04/23 13:25:26.2     -99   -300   -183    316    365 198.3 -37.2  34192  290.11 0854.35
2009/04/23 13:25:26.3    -182   -355   -259    400    476 207.2 -40.3  34186  290.02 0854.35
2009/04/23 13:25:26.4     -68   -335   -101    343    357 191.6 -21.4  34184  289.98 0854.35
2009/04/23 13:25:26.5    -171   -398    -83    434    443 203.3 -10.9  34182  289.95 0854.35
2009/04/23 13:25:26.6    -276   -507    209    578    615 208.6  19.9  34174  289.80 0854.35
2009/04/23 13:25:26.7    -366   -374     54    524    527 224.3   6.0  34182  289.94 0854.35
2009/04/23 13:25:26.8    -317   -272   -101    419    431 229.4 -13.6  34182  289.94 0854.35
2009/04/23 13:25:26.9    -249   -282    126    377    398 221.4  18.6  34186  290.01 0854.35
2009/04/23 13:25:27.0    -185   -330    147    379    406 209.3  22.3  34192  290.10 0854.35
2009/04/23 13:25:27.1    -132   -375    105    398    412 199.4  14.9  34180  289.90 0854.35
2009/04/23 13:25:27.2    -204   -417     88    465    474 206.1  10.7  34182  289.95 0854.35
2009/04/23 13:25:27.3    -206   -435    -18    482    483 205.4  -2.2  34174  289.81 0854.35
2009/04/23 13:25:27.4     -41   -296   -108    299    317 188.0 -25.1  34178  289.86 0854.31
2009/04/23 13:25:27.5    -223   -348   -248    414    482 212.6 -38.2  34178  289.88 0854.31
2009/04/23 13:25:27.6    -295   -259   -146    393    419 228.7 -25.7  34178  289.87 0854.31
2009/04/23 13:25:27.7    -319   -330   -134    459    478 224.0 -21.1  34188  290.05 0854.31
2009/04/23 13:25:27.8    -369   -407   -163    550    573 222.2 -21.2  34178  289.87 0854.31
2009/04/23 13:25:27.9    -431   -451   -218    624    660 223.7 -24.4  34182  289.96 0854.31
2009/04/23 13:25:28.0    -187   -456   -137    493    511 202.3 -20.2  34182  289.93 0854.31
2009/04/23 13:25:28.1    -167   -516   -119    543    557 197.9 -12.4  34190  290.07 0854.31
2009/04/23 13:25:28.2    -300   -374   -147    480    502 218.8 -22.1  34176  289.83 0854.31
2009/04/23 13:25:28.3    -102   -463    -86    475    483 192.5 -10.4  34186  290.01 0854.31
2009/04/23 13:25:28.4    -254   -579   -170    633    656 203.7 -15.1  34178  289.86 0854.31
2009/04/23 13:25:28.5    -162   -417   -131    448    467 201.3 -16.4  34176  289.83 0854.31
2009/04/23 13:25:28.6    -142   -341   -103    370    384 202.7 -20.1  34176  289.84 0854.31
2009/04/23 13:25:28.7    -111   -471    -50    484    487 193.3  -6.0  34178  289.89 0854.31
2009/04/23 13:25:28.8    -116   -290    142    313    343 201.9  26.2  34192  290.11 0854.31
2009/04/23 13:25:28.9      15   -379    179    380    420 177.7  27.1  34182  289.95 0854.31
2009/04/23 13:25:29.0     -15   -385    198    386    433 182.3  29.3  34180  289.92 0854.31
2009/04/23 13:25:29.1    -217   -305    204    375    426 215.4  30.9  34198  290.22 0854.31
2009/04/23 13:25:29.2    -137   -297    129    328    352 204.8  22.7  34188  290.03 0854.31
2009/04/23 13:25:29.3     -93   -377    206    389    440 193.9  30.2  34182  289.94 0854.31
2009/04/23 13:25:29.4    -228   -359    263    426    500 212.5  34.6  34184  289.98 0854.32
2009/04/23 13:25:29.5    -112   -336    145    355    383 198.4  23.4  34166  289.67 0854.32
2009/04/23 13:25:29.6    -249   -230    211    340    400 227.2  34.9  34192  290.10 0854.32
2009/04/23 13:25:29.7    -218   -171    233    278    362 231.8  44.1  34184  289.98 0854.32
2009/04/23 13:25:29.8    -175   -172     16    246    247 225.6   3.8  34182  289.93 0854.32
2009/04/23 13:25:30.0    -125    -70    -40    144    150 240.7 -15.5  34182  289.96 0854.32
2009/04/23 13:25:30.0     -15   -230   -161    231    281 183.8 -42.8  34180  289.90 0854.32
2009/04/23 13:25:30.2     117   -238   -136    266    298 153.7 -33.7  34182  289.93 0854.32
2009/04/23 13:25:30.3     112   -295   -150    316    349 159.1 -31.6  34172  289.76 0854.32
2009/04/23 13:25:30.4     179   -264   -141    320    349 145.8 -29.7  34182  289.96 0854.32
2009/04/23 13:25:30.5     260   -225     62    344    350 130.9  10.3  34184  289.99 0854.32
2009/04/23 13:25:30.6     191   -138     94    236    254 126.0  23.0  34190  290.07 0854.32
2009/04/23 13:25:30.7      41    -26    113     49    123 122.4  75.0  34194  290.14 0854.32
2009/04/23 13:25:30.8      25     -2    173     26    174  96.1  90.0  34196  290.18 0854.32
2009/04/23 13:25:30.9     -23    -21    137     32    140 226.9  87.0  34192  290.13 0854.32
2009/04/23 13:25:31.0    -117    -55     69    130    147 244.6  29.8  34190  290.09 0854.32
2009/04/23 13:25:31.1    -162     23    -51    164    172 278.1 -17.3  34194  290.14 0854.32
2009/04/23 13:25:31.2    -214    -31   -122    217    248 261.6 -36.3  34194  290.15 0854.32
2009/04/23 13:25:31.3    -145    -23   -118    147    188 260.8 -47.7  34196  290.18 0854.32
2009/04/23 13:25:31.4    -160    -60    -55    172    180 249.4 -23.0  34198  290.23 0854.32
2009/04/23 13:25:31.5    -139    -50    -50    148    156 250.0 -23.3  34202  290.28 0854.33
2009/04/23 13:25:31.6    -105   -181    -60    210    219 210.1 -16.0  34194  290.16 0854.33
2009/04/23 13:25:31.7     -52   -169    -48    177    184 197.2 -15.4  34192  290.13 0854.33
2009/04/23 13:25:31.8     -44   -135    -33    143    147 198.3 -13.3  34194  290.16 0854.33
2009/04/23 13:25:31.9     -59   -178     38    188    192 198.5  11.6  34198  290.21 0854.33
2009/04/23 13:25:32.0    -129   -225    -12    260    261 209.8  -2.8  34194  290.15 0854.33
2009/04/23 13:25:32.1    -136   -147    -93    201    221 222.8 -31.0  34200  290.26 0854.33
2009/04/23 13:25:32.2    -117   -171    -26    208    210 214.3  -7.3  34196  290.18 0854.33
2009/04/23 13:25:32.3    -115   -132     -6    176    177 221.2  -2.2  34198  290.21 0854.33
2009/04/23 13:25:32.4    -117   -133     -5    178    179 221.4  -1.8  34198  290.21 0854.33
2009/04/23 13:25:32.5    -172   -110      0    205    206 237.5  -0.3  34200  290.25 0854.33
2009/04/23 13:25:32.6    -226    -75     -7    239    240 251.6  -1.8  34206  290.36 0854.33
2009/04/23 13:25:32.7     -42    -80   -164     91    187 208.1 -73.2  34214  290.50 0854.33
2009/04/23 13:25:32.8      -4   -164    -38    165    170 181.6 -13.2  34210  290.43 0854.33
2009/04/23 13:25:32.9    -109   -109    140    155    208 225.0  46.9  34200  290.26 0854.33
2009/04/23 13:25:33.0    -168     43     74    174    189 284.6  24.6  34204  290.31 0854.33
2009/04/23 13:25:33.1    -177     91     35    200    204 297.3   9.9  34204  290.31 0854.33
2009/04/23 13:25:33.2    -128     76    -14    149    150 300.7  -5.6  34208  290.38 0854.33
2009/04/23 13:25:33.3    -211    138    -84    253    266 303.3 -23.8  34198  290.22 0854.33
2009/04/23 13:25:33.4    -170     91    -61    193    202 298.2 -22.8  34196  290.19 0854.33
2009/04/23 13:25:33.5    -138     94   -121    168    207 304.4 -43.7  34184  289.97 0854.38
2009/04/23 13:25:33.6     -98    183    -74    208    220 331.7 -24.6  34186  290.02 0854.38
2009/04/23 13:25:33.7    -233     59   -127    241    272 284.4 -34.6  34194  290.14 0854.38
2009/04/23 13:25:33.8    -214    132    -46    252    257 301.6 -10.4  34186  290.00 0854.38
2009/04/23 13:25:33.9    -327    299   -115    444    459 312.4 -14.6  34194  290.16 0854.38
2009/04/23 13:25:34.0    -203    259   -145    330    360 321.9 -29.6  34176  289.84 0854.38
2009/04/23 13:25:34.1    -164    227   -108    281    301 324.2 -26.5  34178  289.86 0854.38
2009/04/23 13:25:34.2    -159    198    -92    255    271 321.2 -24.6  34178  289.88 0854.38
2009/04/23 13:25:34.3    -194    220    -93    294    309 318.6 -17.6  34178  289.86 0854.38
2009/04/23 13:25:34.4    -217    245   -105    328    344 318.5 -22.9  34178  289.89 0854.38
2009/04/23 13:25:34.5    -153    216   -212    265    339 324.6 -47.3  34174  289.81 0854.38
2009/04/23 13:25:34.6    -144    226   -160    269    312 327.4 -38.0  34174  289.80 0854.38
2009/04/23 13:25:34.7    -159    224   -148    275    312 324.6 -35.1  34176  289.83 0854.38
2009/04/23 13:25:34.8    -116    182   -193    216    289 327.5 -50.6  34180  289.92 0854.38
2009/04/23 13:25:34.9    -139    191   -195    237    306 323.9 -48.1  34180  289.92 0854.38
2009/04/23 13:25:35.0    -151    168   -125    227    259 318.1 -35.8  34186  290.02 0854.38
2009/04/23 13:25:35.1    -114    148   -150    188    240 322.4 -47.1  34180  289.92 0854.38
2009/04/23 13:25:35.2     -81    119   -168    145    221 325.7 -59.2  34178  289.87 0854.38
2009/04/23 13:25:35.3    -119    126   -139    174    222 316.6 -47.1  34180  289.91 0854.38
2009/04/23 13:25:35.4     -97    130   -156    163    225 323.3 -52.9  34182  289.94 0854.38
2009/04/23 13:25:35.5    -144    132   -128    196    234 312.7 -40.1  34184  289.97 0854.41
2009/04/23 13:25:35.6    -148    100   -124    179    217 304.0 -42.4  34188  290.04 0854.41
2009/04/23 13:25:35.7    -175     95   -131    200    239 298.6 -40.9  34186  290.01 0854.41
2009/04/23 13:25:35.8    -121    118   -160    170    233 314.2 -52.6  34184  289.99 0854.41
2009/04/23 13:25:35.9     -29    145   -180    149    233 348.4 -60.8  34188  290.04 0854.41
2009/04/23 13:25:36.0    -188     44   -144    194    241 283.3 -44.8  34180  289.91 0854.41
2009/04/23 13:25:36.1    -114     96   -148    150    210 310.0 -54.4  34186  290.01 0854.41
2009/04/23 13:25:36.2       0    108   -170    109    201 359.6 -69.0  34188  290.06 0854.41
2009/04/23 13:25:36.3     104    146   -150    180    234  35.6 -48.5  34188  290.04 0854.41
2009/04/23 13:25:36.4      82     56   -132    100    165  55.4 -63.6  34186  290.01 0854.41
2009/04/23 13:25:36.5      21     34    -84     41     93  31.6 -77.2  34186  290.01 0854.41
2009/04/23 13:25:36.6      32     21    -42     39     57  55.8 -55.6  34188  290.06 0854.41
2009/04/23 13:25:36.7      56     -4     -7     57     58  94.3  -7.3  34188  290.04 0854.41
2009/04/23 13:25:36.8      13    -53    -75     55     93 165.7 -64.4  34186  290.02 0854.41
2009/04/23 13:25:36.9     -36    -74   -117     83    143 206.3 -65.5  34186  290.01 0854.41
2009/04/23 13:25:37.0     -27    -31    -75     42     85 220.5 -72.7  34188  290.06 0854.41
2009/04/23 13:25:37.1     -51     63    -84     82    117 320.8 -54.6  34200  290.26 0854.41
2009/04/23 13:25:37.2    -182     93   -191    205    280 297.0 -52.3  34194  290.15 0854.41
2009/04/23 13:25:37.3    -136     53   -146    147    207 291.3 -54.4  34192  290.13 0854.41
2009/04/23 13:25:37.4    -187    127   -141    227    267 304.2 -39.6  34194  290.14 0854.41
2009/04/23 13:25:37.5    -359    169   -290    397    491 295.2 -44.1  34192  290.12 0854.33
2009/04/23 13:25:37.6    -371     74   -322    379    497 281.4 -49.1  34200  290.24 0854.33
2009/04/23 13:25:37.7    -292     54   -249    298    388 280.6 -48.4  34194  290.16 0854.33
2009/04/23 13:25:37.8    -222     30   -284    225    362 277.9 -62.1  34188  290.05 0854.33
2009/04/23 13:25:37.9    -326    -14   -239    327    405 267.4 -44.2  34202  290.30 0854.33
2009/04/23 13:25:38.0    -310    -99   -167    326    366 252.3 -33.6  34180  289.91 0854.33
2009/04/23 13:25:38.1    -621     -7   -159    622    643 269.3 -14.4  34188  290.06 0854.33
2009/04/23 13:25:38.2    -552     42     10    554    555 274.4   1.1  34196  290.19 0854.33
2009/04/23 13:25:38.3    -537     11    -38    538    540 271.3  -4.1  34186  290.01 0854.33
2009/04/23 13:25:38.4    -512    114    -29    525    526 282.6  -3.2  34188  290.04 0854.33
2009/04/23 13:25:38.5    -523    180    -39    554    556 289.1  -4.1  34182  289.96 0854.33
2009/04/23 13:25:38.6    -430    163    -54    461    465 290.8  -6.7  34178  289.88 0854.33
2009/04/23 13:25:38.7    -415    158    -31    445    447 290.9  -4.0  34180  289.90 0854.33
2009/04/23 13:25:38.8    -356    250    -65    436    441 305.1  -8.6  34200  290.24 0854.33
2009/04/23 13:25:38.9    -328    240    -68    407    413 306.2  -9.6  34196  290.17 0854.33
2009/04/23 13:25:39.0    -390    233    -41    455    457 300.9  -5.2  34186  290.02 0854.33
2009/04/23 13:25:39.1    -377    235    -80    445    453 301.9 -10.3  34184  289.97 0854.33
2009/04/23 13:25:39.2    -375    228    -81    440    448 301.3 -10.5  34184  289.99 0854.33
2009/04/23 13:25:39.3    -352    209   -111    410    425 300.7 -15.2  34184  289.97 0854.33
2009/04/23 13:25:39.4    -422    135   -132    444    464 287.8 -16.6  34182  289.94 0854.33
2009/04/23 13:25:39.5    -396    130   -119    417    434 288.2 -16.0  34182  289.95 0854.21
2009/04/23 13:25:39.6    -387    159   -117    419    435 292.4 -20.3  34184  289.97 0854.21
2009/04/23 13:25:39.7    -359    136   -136    385    409 290.8 -19.5  34184  289.99 0854.21
2009/04/23 13:25:39.8    -316    155    -72    353    361 296.2 -11.6  34184  289.98 0854.21
2009/04/23 13:25:39.9    -356    106   -112    372    388 286.7 -21.7  34182  289.96 0854.21
2009/04/23 13:25:40.0    -349     83   -160    359    393 283.4 -30.1  34178  289.89 0854.21
2009/04/23 13:25:40.1    -381     71   -206    388    439 280.6 -34.6  34184  289.97 0854.21
2009/04/23 13:25:40.2    -327     54   -203    332    389 279.5 -39.0  34182  289.93 0854.21
2009/04/23 13:25:40.3    -295      4   -156    296    334 270.8 -34.5  34180  289.92 0854.21
2009/04/23 13:25:40.4    -262    123   -117    290    312 295.2 -27.4  34184  289.97 0854.21
2009/04/23 13:25:40.5    -193     14   -158    194    250 274.3 -48.1  34184  289.97 0854.21
2009/04/23 13:25:40.6    -249    -15   -143    250    288 266.5 -36.8  34184  289.97 0854.21
2009/04/23 13:25:40.7    -234     55   -109    241    264 283.3 -30.6  34186  290.02 0854.21
2009/04/23 13:25:40.8    -229     87   -105    246    267 290.9 -28.7  34182  289.93 0854.21
2009/04/23 13:25:40.9    -253     91    -83    270    282 289.9 -21.8  34182  289.95 0854.21
2009/04/23 13:25:41.0    -268    100    -88    287    300 290.4 -21.8  34184  289.98 0854.21
2009/04/23 13:25:41.1    -240     72    -94    251    268 286.8 -25.9  34186  290.00 0854.21
2009/04/23 13:25:41.2    -316     99   -118    332    352 287.5 -24.7  34182  289.93 0854.21
2009/04/23 13:25:41.3    -318    198   -103    375    390 302.0 -15.4  34182  289.96 0854.21
2009/04/23 13:25:41.4    -271    177   -100    324    339 303.2 -22.3  34184  289.99 0854.21
2009/04/23 13:25:41.5    -182    221   -166    287    331 320.6 -37.2  34184  289.97 0854.13
2009/04/23 13:25:41.6    -159    192   -118    250    276 320.4 -31.5  34188  290.05 0854.13
2009/04/23 13:25:41.7    -202    182    -75    273    284 312.0 -15.5  34186  290.02 0854.13
2009/04/23 13:25:41.8    -213    150    -77    261    272 305.3 -21.5  34188  290.03 0854.13
2009/04/23 13:25:41.9    -192    118    -87    226    242 301.5 -26.4  34188  290.03 0854.13
2009/04/23 13:25:42.0    -178     74    -70    193    205 292.6 -24.8  34186  290.01 0854.13
2009/04/23 13:25:42.1    -153     50    -84    162    182 288.2 -34.2  34186  290.02 0854.13
2009/04/23 13:25:42.2    -170     70   -113    184    215 292.4 -38.8  34188  290.04 0854.13
2009/04/23 13:25:42.3    -171     81    -68    190    201 295.4 -25.1  34184  289.97 0854.13
2009/04/23 13:25:42.4    -192    104    -87    219    235 298.4 -27.4  34188  290.06 0854.13
2009/04/23 13:25:42.5    -169    101    -85    198    215 300.9 -29.3  34194  290.16 0854.13
2009/04/23 13:25:42.6    -201    145   -119    249    275 305.9 -31.7  34202  290.27 0854.13
2009/04/23 13:25:42.7    -213    170   -112    273    295 308.6 -27.8  34202  290.27 0854.13
2009/04/23 13:25:42.8    -280    169   -152    328    361 301.1 -31.3  34186  290.01 0854.13
2009/04/23 13:25:42.9    -347    159   -148    382    409 294.7 -26.7  34184  289.99 0854.13
2009/04/23 13:25:43.0    -248    127   -156    279    319 297.1 -36.0  34190  290.09 0854.13
2009/04/23 13:25:43.1    -404    115   -134    421    442 285.9 -17.7  34196  290.19 0854.13
2009/04/23 13:25:43.2    -355    120   -122    375    395 288.7 -18.0  34192  290.11 0854.13
2009/04/23 13:25:43.3    -382     30   -115    384    400 274.6 -21.7  34188  290.04 0854.13
2009/04/23 13:25:43.4    -357     57   -116    362    380 279.1 -23.0  34190  290.08 0854.13
2009/04/23 13:25:43.5    -375     66   -105    381    395 280.1 -20.1  34190  290.08 0854.18
2009/04/23 13:25:43.6    -332     19   -107    333    349 273.4 -23.2  34192  290.10 0854.18
2009/04/23 13:25:43.7    -363    -40   -131    366    388 263.6 -24.8  34188  290.04 0854.18
2009/04/23 13:25:43.8    -312      4   -115    313    333 270.8 -25.7  34188  290.05 0854.18
2009/04/23 13:25:43.9    -252     23   -118    254    280 275.3 -31.0  34186  290.02 0854.18
2009/04/23 13:25:44.0    -257     30    -87    259    274 276.8 -18.7  34186  290.00 0854.18
2009/04/23 13:25:44.1    -236     41    -83    240    253 279.9 -24.0  34188  290.05 0854.18
2009/04/23 13:25:44.2    -245     97   -108    264    285 291.7 -28.0  34188  290.03 0854.18
2009/04/23 13:25:44.3    -271    149   -170    310    353 298.8 -35.7  34188  290.03 0854.18
2009/04/23 13:25:44.4    -274    110   -163    296    337 292.0 -35.7  34186  290.02 0854.18
2009/04/23 13:25:44.5    -268     80   -116    280    303 286.8 -28.2  34186  290.00 0854.18
2009/04/23 13:25:44.6    -202    125   -160    238    286 301.8 -41.7  34190  290.07 0854.18
2009/04/23 13:25:44.7    -232     64    -97    241    259 285.5 -27.5  34192  290.10 0854.18
2009/04/23 13:25:44.8    -237     54    -71    244    254 283.0 -21.0  34190  290.07 0854.18
2009/04/23 13:25:44.9    -181     54   -105    189    216 286.6 -35.8  34188  290.04 0854.18
2009/04/23 13:25:45.0    -156     92    -24    182    184 300.7  -7.7  34194  290.14 0854.18
2009/04/23 13:25:45.1    -184     51    -95    191    213 285.5 -32.9  34188  290.04 0854.18
2009/04/23 13:25:45.2    -195     11    -98    196    219 273.5 -33.1  34188  290.06 0854.18
2009/04/23 13:25:45.3    -161     22   -108    163    195 278.0 -41.1  34188  290.04 0854.18
2009/04/23 13:25:45.4    -144     24   -118    147    188 279.7 -47.7  34190  290.08 0854.18
2009/04/23 13:25:45.5    -122     53   -106    134    170 293.5 -47.1  34186  290.02 0854.23
2009/04/23 13:25:45.6    -152    -16    -80    153    172 263.8 -33.9  34190  290.09 0854.23
2009/04/23 13:25:45.7    -185      5    -88    186    205 271.7 -31.6  34190  290.08 0854.23
2009/04/23 13:25:45.8    -204     32    -93    207    226 279.0 -30.3  34186  290.01 0854.23
2009/04/23 13:25:45.9    -232     32    -83    235    250 278.0 -19.6  34188  290.05 0854.23
2009/04/23 13:25:46.0    -234     39    -82    238    251 279.6 -23.8  34188  290.03 0854.23
2009/04/23 13:25:46.1    -242     25    -89    244    259 276.1 -25.3  34190  290.07 0854.23
2009/04/23 13:25:46.2    -218     42    -68    223    234 281.0 -17.0  34190  290.08 0854.23
2009/04/23 13:25:46.3    -237     47    -73    242    252 281.4 -21.7  34188  290.03 0854.23
2009/04/23 13:25:46.4    -216    -19    -35    217    220 264.8  -9.4  34190  290.08 0854.23
2009/04/23 13:25:46.5    -187     63    -99    198    221 288.6 -32.9  34184  289.99 0854.16
2009/04/23 13:25:46.6    -149     53   -124    159    201 289.5 -46.1  34188  290.04 0854.16
2009/04/23 13:25:46.7    -149     35   -125    154    198 283.2 -47.7  34188  290.06 0854.16
2009/04/23 13:25:46.8    -154      0   -100    155    184 270.0 -40.0  34186  290.02 0854.16
2009/04/23 13:25:46.9    -169     33    -87    173    193 281.2 -33.1  34188  290.06 0854.16
2009/04/23 13:25:47.0    -130     43    -88    137    162 288.4 -40.0  34188  290.04 0854.16
2009/04/23 13:25:47.1    -136     48    -68    145    160 289.5 -31.4  34186  290.02 0854.16
2009/04/23 13:25:47.2    -106     22    -61    109    124 281.9 -36.3  34188  290.06 0854.16
2009/04/23 13:25:47.3     -80     75    -69    110    129 313.1 -39.9  34192  290.11 0854.16
2009/04/23 13:25:47.4     -99     30    -55    104    117 286.8 -34.7  34192  290.11 0854.16
2009/04/23 13:25:47.5     -95     48    -49    107    117 297.1 -30.6  34194  290.16 0854.16
2009/04/23 13:25:47.6    -135     18    -79    137    158 277.9 -37.1  34196  290.18 0854.16
2009/04/23 13:25:47.7    -138      4    -71    139    156 271.7 -33.5  34194  290.16 0854.16
2009/04/23 13:25:47.8    -128      5    -54    129    139 272.5 -28.0  34198  290.23 0854.16
2009/04/23 13:25:47.9    -104     49    -44    116    124 295.2 -25.4  34194  290.16 0854.16
2009/04/23 13:25:48.0    -118     47    -84    128    153 291.8 -40.0  34190  290.09 0854.16
2009/04/23 13:25:48.1    -144     20    -68    146    161 277.9 -31.0  34194  290.16 0854.16
2009/04/23 13:25:48.2    -129     48    -73    138    156 290.4 -34.7  34192  290.13 0854.16
2009/04/23 13:25:48.3    -110     43    -44    119    126 291.7 -25.3  34194  290.16 0854.16
2009/04/23 13:25:48.4     -90     19    -60     93    110 282.4 -40.0  34192  290.11 0854.16
2009/04/23 13:25:48.5     -53     24    -66     59     88 294.4 -57.7  34190  290.09 0854.13
2009/04/23 13:25:48.6      14     50    -77     53     93  16.0 -67.0  34192  290.11 0854.13
2009/04/23 13:25:48.7       0     50    -67     51     84   0.9 -63.4  34194  290.16 0854.13
2009/04/23 13:25:48.8     -37     41    -74     56     92 317.7 -62.9  34192  290.11 0854.13
2009/04/23 13:25:48.9     -51     58    -74     78    107 318.6 -52.9  34190  290.09 0854.13
2009/04/23 13:25:49.0     -39     40    -74     57     93 315.8 -62.3  34190  290.08 0854.13
2009/04/23 13:25:49.1     -78     36    -57     87    104 294.8 -40.4  34194  290.14 0854.13
2009/04/23 13:25:49.2     -92     66    -39    114    120 306.0 -23.3  34194  290.14 0854.13
2009/04/23 13:25:49.3    -108     64    -29    126    130 300.7 -13.3  34192  290.13 0854.13
2009/04/23 13:25:49.4     -92     59    -52    110    121 302.5 -31.6  34192  290.11 0854.13
2009/04/23 13:25:49.5    -105     53    -62    118    133 297.1 -34.2  34194  290.16 0854.13
2009/04/23 13:25:49.6    -107     53    -88    120    148 296.6 -44.1  34194  290.16 0854.13
2009/04/23 13:25:49.7     -90     67    -83    113    140 306.4 -44.1  34194  290.16 0854.13
2009/04/23 13:25:49.8     -82     30    -80     88    118 290.4 -51.9  34194  290.16 0854.13
2009/04/23 13:25:49.9    -111     25    -82    114    140 282.8 -43.9  34194  290.14 0854.13
2009/04/23 13:25:50.0    -148     50    -62    157    168 288.6 -26.9  34194  290.16 0854.13
2009/04/23 13:25:50.1    -127     44    -89    135    161 289.1 -41.1  34198  290.21 0854.13
2009/04/23 13:25:50.2    -167     38    -73    172    186 283.0 -28.7  34196  290.18 0854.13
2009/04/23 13:25:50.3    -164     40    -76    169    185 283.9 -30.3  34194  290.16 0854.13
2009/04/23 13:25:50.4    -172      9    -36    173    177 273.0 -11.9  34196  290.19 0854.13
2009/04/23 13:25:50.5    -159     20    -50    161    168 277.5 -22.3  34198  290.21 0854.15
2009/04/23 13:25:50.6    -108     64   -106    126    164 300.7 -48.9  34196  290.19 0854.15
2009/04/23 13:25:50.7     -62     39   -103     74    126 302.4 -65.0  34200  290.26 0854.15
2009/04/23 13:25:50.8     -63     77   -136    100    168 320.8 -64.4  34194  290.16 0854.15
2009/04/23 13:25:50.9    -165     90   -100    189    213 298.6 -34.5  34198  290.23 0854.15
2009/04/23 13:25:51.0    -161     79   -123    180    218 296.2 -42.0  34196  290.19 0854.15
2009/04/23 13:25:51.1    -202     41   -181    207    274 281.5 -50.2  34194  290.14 0854.15
2009/04/23 13:25:51.2    -110     79   -155    136    206 306.0 -58.7  34196  290.19 0854.15
2009/04/23 13:25:51.3    -145    -11   -110    146    182 265.7 -45.1  34200  290.26 0854.15
2009/04/23 13:25:51.4    -182     40    -96    187    210 282.6 -33.6  34200  290.26 0854.15
2009/04/23 13:25:51.5    -162     51   -147    170    224 287.5 -49.8  34204  290.33 0854.15
2009/04/23 13:25:51.6    -156     16   -134    157    206 276.1 -49.2  34200  290.25 0854.15
2009/04/23 13:25:51.7     -98    -63    -94    117    150 237.1 -48.1  34202  290.28 0854.15
2009/04/23 13:25:51.8    -102    -14    -43    103    111 262.1 -28.0  34212  290.45 0854.15
2009/04/23 13:25:51.9    -147    -19   -104    149    181 262.5 -43.0  34212  290.45 0854.15
2009/04/23 13:25:52.0    -140    -37   -121    145    188 255.0 -48.2  34216  290.52 0854.15
2009/04/23 13:25:52.1    -145     79   -111    166    199 298.6 -41.4  34214  290.50 0854.15
2009/04/23 13:25:52.2    -116    100    -76    154    171 310.9 -32.4  34204  290.33 0854.15
2009/04/23 13:25:52.3    -109     22     16    112    114 281.4   8.5  34212  290.45 0854.15
2009/04/23 13:25:52.4    -135     41     49    142    151 286.8  19.2  34212  290.47 0854.17
2009/04/23 13:25:52.5    -147    -40    -37    153    158 254.5 -13.7  34206  290.35 0854.17
2009/04/23 13:25:52.6    -103     21    -20    106    108 281.5 -10.9  34206  290.36 0854.17
2009/04/23 13:25:52.7     -72     24     -6     76     77 288.6  -5.2  34210  290.43 0854.17
2009/04/23 13:25:52.8     -62     24     -2     67     68 291.8  -2.2  34208  290.38 0854.17
2009/04/23 13:25:52.9     -54     29     12     62     64 298.9  11.1  34208  290.40 0854.17
2009/04/23 13:25:53.0      -6     18     33     20     38 340.0  64.7  34218  290.57 0854.17
2009/04/23 13:25:53.1       0     -3     23      4     23 189.7  90.0  34218  290.57 0854.17
2009/04/23 13:25:53.2     -23    -19    -24     31     39 230.5 -48.1  34214  290.48 0854.17
2009/04/23 13:25:53.3     -79    -23    -35     83     90 253.2 -29.0  34210  290.43 0854.17
2009/04/23 13:25:53.4     -60    -38     -3     72     73 237.6  -3.1  34208  290.40 0854.17
2009/04/23 13:25:53.5     -53    -18    -17     57     59 250.9 -21.7  34206  290.36 0854.17
2009/04/23 13:25:53.6     -25   -107    -14    111    112 193.4  -7.2  34210  290.41 0854.17
2009/04/23 13:25:53.7      11    -55     33     57     65 168.4  33.5  34216  290.53 0854.17
2009/04/23 13:25:53.8      27    -48     71     56     90 151.0  57.5  34218  290.57 0854.17
2009/04/23 13:25:53.9      36    -27     73     46     86 126.9  64.7  34218  290.55 0854.17
2009/04/23 13:25:54.0      46    -38     65     60     88 129.5  52.2  34212  290.45 0854.17
2009/04/23 13:25:54.1      77      5     75     78    108  85.7  49.0  34212  290.47 0854.17
2009/04/23 13:25:54.2      86      3    103     87    134  87.9  55.8  34208  290.38 0854.17
2009/04/23 13:25:54.3      65     14    111     67    129  77.6  66.2  34206  290.36 0854.17
2009/04/23 13:25:54.4      18     17     82     26     86  46.9  81.2  34210  290.41 0854.20
2009/04/23 13:25:54.5      20     60     94     64    113  18.7  63.2  34208  290.38 0854.20
2009/04/23 13:25:54.6       1     68     90     69    113   0.9  58.5  34208  290.40 0854.20
2009/04/23 13:25:54.7     -28      9     80     30     85 288.2  78.6  34214  290.50 0854.20
2009/04/23 13:25:54.8       0     56     36     57     67 359.1  35.5  34210  290.43 0854.20
2009/04/23 13:25:54.9      -2     70     25     71     76 358.2  19.4  34202  290.30 0854.20
2009/04/23 13:25:55.0      -8     43     41     44     60 348.4  48.0  34206  290.35 0854.20
2009/04/23 13:25:55.1       2     28     29     29     41   4.4  50.1  34202  290.30 0854.20
2009/04/23 13:25:55.2       8     25     -1     27     28  18.3  -3.1  34202  290.30 0854.20
2009/04/23 13:25:55.3      37     40    -18     55     57  43.2 -23.8  34200  290.26 0854.20
2009/04/23 13:25:55.4      40     16    -15     44     46  68.3 -23.6  34202  290.28 0854.20
2009/04/23 13:25:55.5      27     31     -1     42     43  41.4  -2.2  34204  290.31 0854.20
2009/04/23 13:25:55.6      29     39      4     49     50  37.0   4.9  34204  290.33 0854.20
2009/04/23 13:25:55.7      10     31      6     33     34  18.3  11.1  34204  290.33 0854.20
2009/04/23 13:25:55.8      19     72    -36     75     83  15.1 -31.6  34200  290.26 0854.20
2009/04/23 13:25:55.9       8     48    -37     49     61   9.8 -45.1  34206  290.36 0854.20
2009/04/23 13:25:56.0      -2     45    -22     46     51 357.3 -31.6  34204  290.33 0854.20
2009/04/23 13:25:56.2     -20     28     -9     35     37 323.9 -15.4  34208  290.38 0854.20
2009/04/23 13:25:56.2     -77    -24     14     81     83 252.3  10.1  34214  290.50 0854.20
2009/04/23 13:25:56.3     -76    -61      9     98     99 230.9   5.4  34216  290.52 0854.20
2009/04/23 13:25:56.5     -53    -69     32     88     93 217.4  20.0  34222  290.62 0854.21
2009/04/23 13:25:56.6     -98    -46     31    109    114 244.7  15.8  34222  290.62 0854.21
2009/04/23 13:25:56.7     -75    -15     14     77     79 258.5  10.6  34224  290.65 0854.21
2009/04/23 13:25:56.8    -122    -33     43    127    135 254.5  18.9  34224  290.67 0854.21
2009/04/23 13:25:56.9    -123      1      3    124    125 270.8   1.8  34226  290.70 0854.21
2009/04/23 13:25:57.0    -119    -11     69    120    138 264.3  32.4  34228  290.72 0854.21
2009/04/23 13:25:57.1    -175    -35     80    179    196 258.5  25.3  34228  290.72 0854.21
2009/04/23 13:25:57.2    -171    -57     90    181    202 251.6  28.2  34222  290.64 0854.21
2009/04/23 13:25:57.3    -188    -45     91    194    214 256.5  27.1  34222  290.62 0854.21
2009/04/23 13:25:57.4    -150    -10     83    151    172 266.1  31.4  34222  290.64 0854.21
2009/04/23 13:25:57.5    -130     -6     83    131    155 267.0  35.5  34224  290.67 0854.21
2009/04/23 13:25:57.6    -135    -27     48    138    147 258.5  19.4  34222  290.64 0854.21
2009/04/23 13:25:57.7     -36     46     84     59    102 321.3  61.1  34236  290.86 0854.21
2009/04/23 13:25:57.8     -53    116     82    128    152 335.5  35.6  34236  290.86 0854.21
2009/04/23 13:25:57.9     -50    108    108    120    161 335.1  46.9  34240  290.92 0854.21
2009/04/23 13:25:58.0     -34     73     91     81    121 335.1  53.7  34240  290.94 0854.21
2009/04/23 13:25:58.1     -32     80    111     87    141 338.2  57.9  34244  290.99 0854.21
2009/04/23 13:25:58.2     -59     49     95     77    122 309.6  56.4  34248  291.06 0854.21
2009/04/23 13:25:58.3      -5     67     90     68    112 355.6  59.0  34242  290.98 0854.21
2009/04/23 13:25:58.4     -59     29     98     66    118 296.2  62.7  34252  291.15 0854.21
2009/04/23 13:25:58.5     -85     22     67     88    110 284.6  41.2  34248  291.06 0854.25
2009/04/23 13:25:58.6     -66     22     59     70     91 289.1  44.3  34238  290.91 0854.25
2009/04/23 13:25:58.7     -54      7     38     55     66 277.9  37.6  34236  290.87 0854.25
2009/04/23 13:25:58.8     -64     43     40     78     87 304.2  29.3  34226  290.69 0854.25
2009/04/23 13:25:58.9     -78     45     44     91    101 299.8  27.3  34238  290.91 0854.25
2009/04/23 13:25:59.0     -79     11     28     80     85 277.9  19.4  34248  291.06 0854.25
2009/04/23 13:25:59.1     -68    -23     58     72     92 250.9  43.7  34248  291.08 0854.25
2009/04/23 13:25:59.2    -105    -22     41    108    115 258.1  21.0  34242  290.98 0854.25
2009/04/23 13:25:59.3     -96    -31     58    102    117 251.8  31.9  34248  291.06 0854.25
2009/04/23 13:25:59.4     -88    -41     55     98    112 244.7  31.4  34248  291.08 0854.25
2009/04/23 13:25:59.5     -89    -40     80     98    126 245.6  43.7  34248  291.08 0854.25
2009/04/23 13:25:59.6     -86      3     74     87    114 272.1  44.8  34266  291.37 0854.25
2009/04/23 13:25:59.7     -83     -7     67     84    107 264.8  43.3  34254  291.18 0854.25
2009/04/23 13:25:59.8     -59    -37     51     70     86 237.6  39.7  34246  291.03 0854.25
2009/04/23 13:25:59.9     -58    -70     61     91    109 219.6  37.0  34238  290.89 0854.25
2009/04/23 13:26:00.0     -58    -74     86     95    128 218.3  46.9  34228  290.74 0854.25
2009/04/23 13:26:00.1     -61    -80     90    101    135 217.4  45.9  34232  290.81 0854.25
2009/04/23 13:26:00.2     -89    -50     41    103    110 240.7  23.0  34258  291.25 0854.25
2009/04/23 13:26:00.3     -61    -61     62     87    106 224.7  39.1  34248  291.08 0854.25
2009/04/23 13:26:00.4     -62    -54     55     83     99 229.1  36.5  34244  291.01 0854.25
2009/04/23 13:26:00.5     -71    -70     61    101    117 225.4  34.0  34240  290.94 0854.29
2009/04/23 13:26:00.6     -89    -77     80    118    142 229.1  37.4  34258  291.25 0854.29
2009/04/23 13:26:00.7    -108    -64     52    126    136 239.3  23.6  34266  291.38 0854.29
2009/04/23 13:26:00.8     -97    -54     48    112    121 240.7  24.6  34258  291.25 0854.29
2009/04/23 13:26:00.9     -97    -54     48    112    121 240.7  24.6  34260  291.26 0854.29
2009/04/23 13:26:01.0    -106    -58     68    122    139 241.2  31.4  34258  291.25 0854.29
2009/04/23 13:26:01.1    -102     -8     58    103    118 265.2  31.4  34254  291.18 0854.29
2009/04/23 13:26:01.2    -103     22     57    106    120 282.4  30.8  34256  291.20 0854.29
2009/04/23 13:26:01.3     -87     48     84    100    130 298.8  43.8  34262  291.32 0854.29
2009/04/23 13:26:01.4     -80     46     53     93    107 300.2  32.4  34258  291.23 0854.29
2009/04/23 13:26:01.5     -39     34     69     52     86 311.3  59.4  34256  291.20 0854.29
2009/04/23 13:26:01.6     -18     52     47     56     73 340.8  43.8  34268  291.42 0854.29
2009/04/23 13:26:01.7       5     52     40     53     66   6.2  40.7  34264  291.33 0854.29
2009/04/23 13:26:01.8      20     50     54     54     76  21.8  50.1  34264  291.35 0854.29
2009/04/23 13:26:01.9     138     32     95    142    170  76.8  36.7  34238  290.89 0854.29
2009/04/23 13:26:02.0     150     40    132    156    204  74.9  44.5  34250  291.09 0854.29
2009/04/23 13:26:02.1      11    -25    110     28    113 156.4  85.4  34250  291.11 0854.29
2009/04/23 13:26:02.2      12   -129    163    130    208 174.7  57.5  34226  290.70 0854.29
2009/04/23 13:26:02.3      43   -130    131    138    190 161.5  48.5  34220  290.60 0854.29
2009/04/23 13:26:02.4      23    -65    120     70    138 160.0  66.8  34224  290.67 0854.29
2009/04/23 13:26:02.5      60    -45    103     76    128 126.9  60.0  34230  290.75 0854.31
2009/04/23 13:26:02.6      85    -17     57     87    104 101.5  36.0  34240  290.92 0854.31
2009/04/23 13:26:02.7       8    -26     71     28     76 161.7  78.2  34238  290.91 0854.31
2009/04/23 13:26:02.8      11    -23     87     26     90 152.8  83.3  34248  291.06 0854.31
2009/04/23 13:26:02.9      50    -16     56     53     77 107.7  51.2  34262  291.30 0854.31
2009/04/23 13:26:03.0      35    -28     60     45     75 128.6  60.5  34274  291.52 0854.31
2009/04/23 13:26:03.1      59    -21     50     63     80 110.0  42.7  34306  292.05 0854.31
2009/04/23 13:26:03.2      22     -7     63     24     67 108.6  79.2  34306  292.06 0854.31
2009/04/23 13:26:03.3      -3    -65     51     66     83 182.7  41.7  34300  291.95 0854.31
2009/04/23 13:26:03.4     -54    -39      9     67     68 234.0   8.0  34276  291.54 0854.31
2009/04/23 13:26:03.5     -65      0     25     66     70 269.2  22.0  34276  291.54 0854.31
2009/04/23 13:26:03.6     -70     30     13     77     79 293.5   9.5  34282  291.66 0854.31
2009/04/23 13:26:03.7     -82      5     30     83     88 273.5  20.0  34278  291.59 0854.31
2009/04/23 13:26:03.8    -106     34     53    112    123 288.2  27.1  34292  291.83 0854.31
2009/04/23 13:26:03.9     -98     62     48    117    126 302.5  23.1  34294  291.86 0854.31
2009/04/23 13:26:04.0     -66     48     58     82    100 306.4  39.1  34308  292.10 0854.31
2009/04/23 13:26:04.1     -58     26     52     64     82 294.4  43.7  34304  292.03 0854.31
2009/04/23 13:26:04.2     -21      1     43     22     48 274.4  70.8  34310  292.12 0854.31
2009/04/23 13:26:04.3       0      0     68      0     68   0.0  90.0  34306  292.05 0854.31
2009/04/23 13:26:04.4      90    -10     54     91    105  96.6  34.0  34308  292.10 0854.31
2009/04/23 13:26:04.5     135     37     49    141    150  74.5  19.4  34314  292.20 0854.34
2009/04/23 13:26:04.6      40     38    129     56    140  45.9  75.0  34324  292.37 0854.34
2009/04/23 13:26:04.7     129     60    112    143    181  64.8  42.2  34312  292.15 0854.34
2009/04/23 13:26:04.8     175     83      7    194    195  64.5   2.1  34326  292.39 0854.34
2009/04/23 13:26:04.9     164     32    -40    168    173  78.8 -13.7  34366  293.07 0854.34
2009/04/23 13:26:05.0      98     38    -31    106    111  68.7 -16.6  34368  293.10 0854.34
2009/04/23 13:26:05.1      60     18     41     63     75  73.2  35.6  34340  292.64 0854.34
2009/04/23 13:26:05.2       2     72     71     73    101   1.8  49.4  34340  292.63 0854.34
2009/04/23 13:26:05.3      -1     48     66     49     82 358.2  59.4  34340  292.63 0854.34
2009/04/23 13:26:05.4     -51     22     68     56     88 293.5  56.3  34340  292.64 0854.34
2009/04/23 13:26:05.5      -5     46    104     47    114 353.8  74.0  34342  292.68 0854.34
2009/04/23 13:26:05.6      26     60     78     66    102  23.6  55.4  34358  292.93 0854.34
2009/04/23 13:26:05.7      57     36     56     68     88  57.6  43.8  34362  293.00 0854.34
2009/04/23 13:26:05.8      53    -16     69     56     88 106.8  56.4  34348  292.76 0854.34
2009/04/23 13:26:05.9      51    -54     52     75     91 136.8  38.0  34342  292.66 0854.34
2009/04/23 13:26:06.0      67    -20     31     70     76 106.8  25.1  34354  292.88 0854.34
2009/04/23 13:26:06.1     123     72      0    143    144  59.4  -0.3  34334  292.52 0854.34
2009/04/23 13:26:06.2      50    150     54    159    169  18.7  18.9  34302  291.98 0854.34
2009/04/23 13:26:06.3     -41    151     56    157    166 344.9  20.2  34284  291.69 0854.34
2009/04/23 13:26:06.4      14     83    -23     85     89   9.8 -15.5  34302  291.98 0854.34
2009/04/23 13:26:06.5      65     69    -23     96     99  43.2 -13.9  34314  292.20 0854.37
2009/04/23 13:26:06.6      66    139      3    154    155  25.4   1.2  34336  292.56 0854.37
2009/04/23 13:26:06.7      49    128     17    138    140  20.9   7.1  34316  292.23 0854.37
2009/04/23 13:26:06.8      45    111     20    121    123  22.3   9.5  34316  292.22 0854.37
2009/04/23 13:26:06.9     105    119     16    160    161  41.4   5.9  34320  292.29 0854.37
2009/04/23 13:26:07.0     123    118     25    171    173  46.2   8.5  34314  292.20 0854.37
2009/04/23 13:26:07.1      93     87     45    128    136  46.8  19.4  34312  292.17 0854.37
2009/04/23 13:26:07.2      67     85     38    109    116  38.3  19.2  34322  292.32 0854.37
2009/04/23 13:26:07.3      20    122     74    124    144   9.3  34.0  34330  292.47 0854.37
2009/04/23 13:26:07.4      48    119     18    129    131  22.3   8.0  34332  292.51 0854.37
2009/04/23 13:26:07.5      42    111    -40    119    126  20.9 -18.7  34332  292.49 0854.40
2009/04/23 13:26:07.6      56     94    -14    110    111  30.7  -7.3  34318  292.25 0854.40
2009/04/23 13:26:07.7     121     57    -70    134    151  64.6 -33.7  34316  292.22 0854.40
2009/04/23 13:26:07.8     129     71     -8    148    149  61.1  -3.1  34342  292.68 0854.40
2009/04/23 13:26:07.9      62     78     -5    100    101  38.7  -3.1  34346  292.75 0854.40
2009/04/23 13:26:08.0      33     93     -9     99    100  19.6  -5.6  34350  292.80 0854.40
2009/04/23 13:26:08.1      84    100     11    132    133  40.1   5.0  34348  292.78 0854.40
2009/04/23 13:26:08.2      99    105     55    145    155  43.2  21.0  34350  292.80 0854.40
2009/04/23 13:26:08.3     113    130     67    173    185  41.2  22.3  34324  292.35 0854.40
2009/04/23 13:26:08.4     111    123    -23    166    168  42.1  -8.0  34320  292.30 0854.40
2009/04/23 13:26:08.5     112    195     -8    225    226  29.9  -2.2  34318  292.27 0854.40
2009/04/23 13:26:08.6      82    171     -5    190    191  25.6  -1.8  34332  292.49 0854.40
2009/04/23 13:26:08.7     103     91      7    138    139  48.7   2.9  34342  292.68 0854.40
2009/04/23 13:26:08.8     102     64    108    121    162  57.5  46.6  34328  292.44 0854.40
2009/04/23 13:26:08.9     174     99     81    201    216  60.2  23.1  34342  292.66 0854.40
2009/04/23 13:26:09.0     167    121     73    207    219  54.1  20.2  34342  292.66 0854.40
2009/04/23 13:26:09.1     111    122    -24    166    168  42.3  -8.2  34342  292.66 0854.40
2009/04/23 13:26:09.2     131    131     22    186    188  45.0   6.9  34340  292.64 0854.40
2009/04/23 13:26:09.3     152     86    -72    175    189  60.5 -27.8  34312  292.17 0854.40
2009/04/23 13:26:09.4     181     45    -15    187    188  75.8  -4.6  34346  292.73 0854.40
2009/04/23 13:26:09.5     130     18    -53    132    142  82.0 -27.4  34336  292.56 0854.41
2009/04/23 13:26:09.6     159     41     76    165    181  75.4  26.4  34334  292.52 0854.41
2009/04/23 13:26:09.7     167     40     74    172    187  76.3  24.9  34318  292.27 0854.41
2009/04/23 13:26:09.8     157     51     45    166    173  71.8  15.3  34310  292.13 0854.41
2009/04/23 13:26:09.9     158     49     32    166    170  72.7  11.1  34284  291.69 0854.41
2009/04/23 13:26:10.0     152     30     32    156    160  78.6  11.6  34286  291.71 0854.41
2009/04/23 13:26:10.1     158    -45     59    165    175 105.9  20.0  34296  291.88 0854.41
2009/04/23 13:26:10.2     136    -83     88    160    182 121.5  31.4  34304  292.01 0854.41
2009/04/23 13:26:10.3     119   -134     82    180    197 138.6  26.2  34300  291.96 0854.41
2009/04/23 13:26:10.4      72   -106    128    129    181 145.7  50.0  34308  292.08 0854.41
2009/04/23 13:26:10.5      36    -47    134     60    146 143.0  74.0  34304  292.01 0854.41
2009/04/23 13:26:10.6      59    -82    139    102    172 144.0  60.0  34308  292.10 0854.41
2009/04/23 13:26:10.7      46    -58     92     75    118 141.3  56.4  34306  292.06 0854.41
2009/04/23 13:26:10.8      60   -148    131    160    206 157.7  43.7  34308  292.08 0854.41
2009/04/23 13:26:10.9      93   -245    187    263    322 159.1  39.0  34274  291.51 0854.41
2009/04/23 13:26:11.0     156   -211    179    263    318 143.5  37.6  34274  291.51 0854.41
2009/04/23 13:26:11.1      42   -188    208    193    283 167.3  52.2  34302  291.97 0854.41
2009/04/23 13:26:11.2      21   -279    183    280    334 175.5  36.3  34306  292.04 0854.41
2009/04/23 13:26:11.3     -15   -200    134    201    241 184.5  36.5  34302  292.00 0854.41
2009/04/23 13:26:11.4     -80   -144    135    165    213 209.2  43.7  34302  292.00 0854.41
2009/04/23 13:26:11.5     -36   -120    176    126    216 196.9  60.6  34280  291.60 0854.44
2009/04/23 13:26:11.6     -20   -101    134    104    169 191.6  58.2  34280  291.60 0854.44
2009/04/23 13:26:11.7      46     38    141     60    153  50.4  76.1  34266  291.38 0854.44
2009/04/23 13:26:11.8     -44      8     79     45     90 280.6  67.7  34264  291.33 0854.44
2009/04/23 13:26:11.9     -44     12     79     46     91 285.9  67.2  34262  291.30 0854.44
2009/04/23 13:26:12.0     -15    -35     55     39     67 203.6  60.6  34262  291.32 0854.44
2009/04/23 13:26:12.1       3     33     45     34     56   6.2  59.4  34262  291.30 0854.44
2009/04/23 13:26:12.2      70      5     88     71    113  85.6  56.4  34256  291.21 0854.44
2009/04/23 13:26:12.3      47    -29     68     56     88 121.5  56.3  34258  291.23 0854.44
2009/04/23 13:26:12.4       1     74     -2     75     76   1.0  -2.2  34250  291.09 0854.44
2009/04/23 13:26:12.5     -42     88    -97     98    137 334.5 -54.4  34266  291.38 0854.44
2009/04/23 13:26:12.6     -36    229     87    232    247 350.9  21.5  34252  291.14 0854.44
2009/04/23 13:26:12.7      17    221    157    222    271   4.5  38.6  34258  291.24 0854.44
2009/04/23 13:26:12.8      23    178    116    180    214   7.6  35.6  34258  291.25 0854.44
2009/04/23 13:26:12.9      52    119     65    130    145  23.6  28.7  34258  291.25 0854.44
2009/04/23 13:26:13.0      14     59     43     61     74  13.4  38.6  34262  291.32 0854.44
2009/04/23 13:26:13.1      46    -40     38     62     72 131.3  35.5  34268  291.40 0854.44
2009/04/23 13:26:13.2     160    -45     65    167    179 105.7  22.5  34256  291.21 0854.44
2009/04/23 13:26:13.3     195    -50     55    202    210 104.6  15.3  34266  291.37 0854.44
2009/04/23 13:26:13.4     219    -60     57    228    236 105.5  14.2  34276  291.54 0854.44
2009/04/23 13:26:13.5     231    -45     54    236    243 101.2  12.9  34288  291.73 0854.44
2009/04/23 13:26:13.6     232     -5     80    233    247  91.3  18.9  34274  291.51 0854.44
2009/04/23 13:26:13.7     318     59     33    324    326  79.4   5.9  34234  290.82 0854.44
2009/04/23 13:26:13.8     240    255    -83    351    361  43.3 -13.4  34248  291.05 0854.44
2009/04/23 13:26:13.9     335    126   -194    359    408  69.3 -35.1  34244  291.00 0854.44
2009/04/23 13:26:14.0     300    118    -95    323    337  68.4 -16.4  34256  291.20 0854.44
2009/04/23 13:26:14.1     296    209    -46    363    366  54.7  -7.4  34248  291.05 0854.44
2009/04/23 13:26:14.2     305    206     -5    369    370  55.9  -0.9  34244  291.00 0854.44
2009/04/23 13:26:14.3     248     79    158    261    305  72.2  34.2  34248  291.07 0854.44
2009/04/23 13:26:14.4     358     54      0    363    364  81.4   0.1  34236  290.86 0854.44
2009/04/23 13:26:14.5     319    112     49    339    343  70.6   8.2  34236  290.86 0854.44
2009/04/23 13:26:14.6     244    145     51    284    289  59.3  10.3  34242  290.97 0854.44
2009/04/23 13:26:14.7     240    197     93    311    325  50.5  16.8  34226  290.70 0854.44
2009/04/23 13:26:14.8     229     59    121    237    266  75.4  29.1  34250  291.10 0854.44
2009/04/23 13:26:14.9      88    -25     -7     92     93 105.9  -4.6  34250  291.09 0854.44
2009/04/23 13:26:15.0      64     21    -20     68     72  71.4 -16.6  34248  291.08 0854.44
2009/04/23 13:26:15.1     138     37      7    143    144  75.0   2.8  34250  291.11 0854.44
2009/04/23 13:26:15.2      90     26      4     94     95  73.6   2.8  34252  291.15 0854.44
2009/04/23 13:26:15.3     106    -54     41    120    127 117.1  18.9  34254  291.16 0854.44
2009/04/23 13:26:15.4      60    -53    116     81    141 131.3  61.5  34256  291.20 0854.44
2009/04/23 13:26:15.5       8   -115    121    116    167 175.6  51.2  34256  291.21 0854.46
2009/04/23 13:26:15.6     -16    -83    139     85    162 191.1  65.4  34270  291.45 0854.46
2009/04/23 13:26:15.7      28   -138     86    141    165 168.4  34.4  34264  291.35 0854.46
2009/04/23 13:26:15.8     -17   -159    136    160    209 186.2  44.5  34264  291.35 0854.46
2009/04/23 13:26:15.9       7   -100    118    101    155 175.5  55.4  34270  291.45 0854.46
2009/04/23 13:26:16.0      -5    -53     75     54     92 185.3  60.5  34272  291.47 0854.46
2009/04/23 13:26:16.1       5   -125    102    126    162 177.3  43.3  34264  291.35 0854.46
2009/04/23 13:26:16.2       4   -116    100    117    153 177.8  44.8  34268  291.42 0854.46
2009/04/23 13:26:16.3     -12    -87    123     88    151 188.5  60.6  34272  291.49 0854.46
2009/04/23 13:26:16.4     -23    -86     96     90    131 195.1  52.1  34266  291.38 0854.46
2009/04/23 13:26:16.5     -22   -108    116    111    160 191.5  51.4  34264  291.35 0854.46
2009/04/23 13:26:16.6     -87   -130     37    157    162 213.8  13.2  34276  291.55 0854.46
2009/04/23 13:26:16.7    -127   -137     44    187    193 222.8  13.2  34278  291.57 0854.46
2009/04/23 13:26:16.8     -85   -134    138    159    210 212.5  45.6  34264  291.33 0854.46
2009/04/23 13:26:16.9     -84   -157     95    179    202 208.3  30.3  34272  291.47 0854.46
2009/04/23 13:26:17.0    -101   -141     61    174    185 215.6  19.4  34280  291.60 0854.46
2009/04/23 13:26:17.1     -86   -189     63    208    218 204.5  16.8  34278  291.57 0854.46
2009/04/23 13:26:17.2    -165   -179     26    244    246 222.8   6.1  34280  291.61 0854.46
2009/04/23 13:26:17.3    -166   -153     58    227    235 227.3  14.5  34286  291.72 0854.46
2009/04/23 13:26:17.4    -176   -164     56    241    248 227.1  13.2  34292  291.80 0854.46
2009/04/23 13:26:17.5    -147   -144     55    206    214 225.6  15.0  34284  291.69 0854.46
2009/04/23 13:26:17.6     -68   -187     52    200    207 200.1  14.7  34270  291.45 0854.46
2009/04/23 13:26:17.7     -83   -211     94    228    246 201.6  23.8  34260  291.27 0854.46
2009/04/23 13:26:17.8     -42   -205    123    210    243 191.6  33.1  34252  291.14 0854.46
2009/04/23 13:26:17.9     -52   -182    106    190    217 196.0  31.4  34250  291.09 0854.46
2009/04/23 13:26:18.0      18   -212    135    213    252 175.1  35.5  34254  291.16 0854.46
2009/04/23 13:26:18.1      37   -185    143    189    237 168.4  40.9  34252  291.13 0854.46
2009/04/23 13:26:18.2      33   -217    157    220    270 171.3  39.1  34252  291.14 0854.46
2009/04/23 13:26:18.3      69   -259    116    269    292 165.1  24.6  34250  291.09 0854.46
2009/04/23 13:26:18.4      28   -180    151    183    237 170.9  43.8  34246  291.04 0854.46
2009/04/23 13:26:18.5      70   -231    172    242    296 163.1  39.1  34250  291.09 0854.46
2009/04/23 13:26:18.6      15   -186    139    187    233 175.3  40.1  34246  291.04 0854.46
2009/04/23 13:26:18.7       0   -190    154    191    245 180.0  43.3  34248  291.08 0854.46
2009/04/23 13:26:18.8       0   -259    124    260    288 179.8  27.3  34250  291.10 0854.46
2009/04/23 13:26:18.9     -35   -159    149    164    221 192.7  47.1  34248  291.06 0854.46
2009/04/23 13:26:19.0     -34   -171    130    175    218 191.3  40.1  34246  291.04 0854.46
2009/04/23 13:26:19.1       2   -175    113    176    209 179.3  35.6  34244  291.01 0854.46
2009/04/23 13:26:19.2       1   -111    113    112    159 179.1  50.1  34248  291.06 0854.46
2009/04/23 13:26:19.3      -7    -82     94     83    125 185.3  54.2  34250  291.09 0854.46
2009/04/23 13:26:19.4      -3   -103    125    104    162 181.8  55.8  34250  291.09 0854.46
2009/04/23 13:26:19.5      40   -203    155    208    259 168.7  40.4  34250  291.10 0854.46
2009/04/23 13:26:19.6     -13   -169    133    170    215 184.5  42.0  34248  291.06 0854.46
2009/04/23 13:26:19.7     -26   -241    148    243    284 186.2  34.2  34248  291.05 0854.46
2009/04/23 13:26:19.8     -62   -231    128    240    272 195.2  30.3  34244  291.00 0854.46
2009/04/23 13:26:19.9     -68   -227    106    237    259 196.7  25.7  34242  290.97 0854.46
2009/04/23 13:26:20.0     -60   -203    137    212    252 196.7  35.6  34242  290.97 0854.46
2009/04/23 13:26:20.1     -49   -206    151    212    260 193.4  39.1  34240  290.93 0854.46
2009/04/23 13:26:20.2     -35   -229     88    232    248 188.7  21.7  34242  290.97 0854.46
2009/04/23 13:26:20.3      19   -160    118    162    200 173.1  39.7  34242  290.98 0854.46
2009/04/23 13:26:20.4     -11   -151     85    152    174 184.4  31.9  34242  290.96 0854.46
2009/04/23 13:26:20.5      -4   -141     43    142    149 181.8  16.8  34240  290.94 0854.46
2009/04/23 13:26:20.6     -10   -153     21    154    156 184.0   7.8  34238  290.91 0854.46
2009/04/23 13:26:20.7      10   -134     21    135    137 175.6   9.0  34238  290.91 0854.46
2009/04/23 13:26:20.8      22   -134    -10    136    137 170.7  -4.6  34236  290.87 0854.46
2009/04/23 13:26:20.9      73   -101     49    125    134 144.0  22.0  34240  290.92 0854.46
2009/04/23 13:26:21.0       8   -112     57    113    126 175.6  29.2  34232  290.81 0854.46
2009/04/23 13:26:21.1     -60   -143    101    156    185 202.7  35.6  34236  290.87 0854.46
2009/04/23 13:26:21.2    -104   -152     64    185    196 214.5  19.2  34238  290.89 0854.46
2009/04/23 13:26:21.3     -84   -140     57    164    174 211.2  19.4  34236  290.87 0854.46
2009/04/23 13:26:21.4     -87   -112     39    142    148 217.9  15.3  34234  290.84 0854.46
2009/04/23 13:26:21.5     -74    -98     53    123    133 217.0  25.1  34234  290.82 0854.46
2009/04/23 13:26:21.6     -72    -87     35    114    120 219.7  17.3  34234  290.82 0854.46
2009/04/23 13:26:21.7     -49    -65     24     82     86 217.4  16.3  34234  290.84 0854.46
2009/04/23 13:26:21.8     -89     -8     57     90    106 264.8  35.5  34242  290.98 0854.46
2009/04/23 13:26:21.9    -119     11     69    120    138 275.7  32.4  34240  290.94 0854.46
2009/04/23 13:26:22.0    -135      8     57    136    147 273.5  23.6  34240  290.94 0854.46
2009/04/23 13:26:22.2    -112    -53     -3    125    126 244.6  -1.8  34244  290.99 0854.46
2009/04/23 13:26:22.3     -67     -1     37     68     77 269.1  31.3  34242  290.98 0854.46
2009/04/23 13:26:22.3     -70     68     16     98    100 314.0   9.5  34240  290.92 0854.46
2009/04/23 13:26:22.4     -99     61    -17    117    119 301.5  -8.2  34238  290.91 0854.46
2009/04/23 13:26:22.6     -81     99    -42    129    136 320.8 -18.1  34238  290.91 0854.46
2009/04/23 13:26:22.7     -46    115     -2    124    125 338.2  -1.3  34238  290.89 0854.46
2009/04/23 13:26:22.8     -60     38     28     72     77 302.4  22.0  34242  290.96 0854.46
2009/04/23 13:26:22.8    -123     44     31    131    135 290.0  13.7  34238  290.91 0854.46
2009/04/23 13:26:23.0    -170    159     32    234    237 313.1   7.8  34260  291.27 0854.46
2009/04/23 13:26:23.1     -80    185     85    202    219 336.4  23.8  34248  291.08 0854.46
2009/04/23 13:26:23.2    -147    147     37    209    213 315.0  10.1  34260  291.28 0854.46
2009/04/23 13:26:23.3    -120    175     50    213    219 325.5  13.2  34272  291.47 0854.46
2009/04/23 13:26:23.4    -138    145     25    201    203 316.6   7.1  34272  291.47 0854.46
2009/04/23 13:26:23.5    -129    105     79    167    184 309.3  27.2  34250  291.09 0854.44
2009/04/23 13:26:23.6    -156     86     19    179    181 298.8   6.1  34252  291.15 0854.44
2009/04/23 13:26:23.7    -124    115     11    170    171 312.9   3.8  34248  291.06 0854.44
2009/04/23 13:26:23.8    -119    116     34    167    171 314.2  11.6  34246  291.04 0854.44
2009/04/23 13:26:23.9     -85    118     27    146    149 324.0  10.6  34244  290.99 0854.44
2009/04/23 13:26:24.0     -63     83     92    105    139 322.6  45.8  34248  291.08 0854.44
2009/04/23 13:26:24.1     -84     81     68    117    135 314.0  33.4  34248  291.08 0854.44
2009/04/23 13:26:24.2     -78     72     21    107    110 312.7  11.1  34246  291.04 0854.44
2009/04/23 13:26:24.3     -69     64     34     95    100 312.7  20.0  34248  291.06 0854.44
2009/04/23 13:26:24.4     -20     62     22     66     70 341.5  18.9  34246  291.03 0854.44
2009/04/23 13:26:24.5     -35     54     17     65     68 327.4  15.2  34250  291.11 0854.44
2009/04/23 13:26:24.6     -51     12     41     53     67 283.3  41.7  34252  291.13 0854.44
2009/04/23 13:26:24.7     -32    -43     52     54     74 217.0  51.1  34256  291.20 0854.44
2009/04/23 13:26:24.8       2    -31     58     32     66 175.5  68.8  34264  291.33 0854.44
2009/04/23 13:26:24.9       6    -17     40     19     44 161.3  74.0  34258  291.25 0854.44
2009/04/23 13:26:25.0     -10    -62     41     63     75 189.8  35.6  34252  291.13 0854.44
2009/04/23 13:26:25.1      13    -99      2    100    101 172.0   1.2  34250  291.11 0854.44
2009/04/23 13:26:25.2      46   -128     16    137    138 160.0   6.9  34246  291.04 0854.44
2009/04/23 13:26:25.3      54   -152     39    162    167 160.4  13.5  34244  290.99 0854.44
2009/04/23 13:26:25.4      79   -117     59    142    153 145.8  23.1  34238  290.91 0854.44
2009/04/23 13:26:25.5      71   -101     95    124    156 144.8  41.6  34244  290.99 0854.42
2009/04/23 13:26:25.6      83    -71     99    110    147 130.4  46.9  34248  291.08 0854.42
2009/04/23 13:26:25.7      56    -70     92     90    128 141.3  50.1  34250  291.11 0854.42
2009/04/23 13:26:25.8      55    -33    102     65    120 121.5  64.7  34256  291.21 0854.42
2009/04/23 13:26:25.9      31   -114    111    119    162 164.9  48.2  34248  291.08 0854.42
2009/04/23 13:26:26.0      67   -115    129    134    186 149.7  49.0  34244  291.01 0854.42
2009/04/23 13:26:26.1      61    -96     99    114    150 147.5  45.4  34246  291.03 0854.42
2009/04/23 13:26:26.2      55    -97     94    112    146 150.1  43.8  34246  291.03 0854.42
2009/04/23 13:26:26.3      73    -99     91    124    153 143.5  39.7  34238  290.91 0854.42
2009/04/23 13:26:26.4      64    -92     73    113    134 145.3  35.6  34240  290.94 0854.42
2009/04/23 13:26:26.5      82    -58     42    101    109 125.5  23.1  34240  290.94 0854.42
2009/04/23 13:26:26.6      70    -44     33     83     89 122.4  22.5  34242  290.98 0854.42
2009/04/23 13:26:26.7      66    -10     32     67     74  98.8  27.1  34238  290.91 0854.42
2009/04/23 13:26:26.8      59    -28     23     66     71 115.3  19.4  34238  290.91 0854.42
2009/04/23 13:26:26.9      61    -20      3     65     66 108.6   2.9  34238  290.89 0854.42
2009/04/23 13:26:27.0     100     -7     14    101    103  94.4   8.0  34232  290.81 0854.42
2009/04/23 13:26:27.1      80      6     31     81     86  85.6  21.5  34232  290.79 0854.42
2009/04/23 13:26:27.2      55     35     64     66     91  57.5  50.0  34236  290.86 0854.42
2009/04/23 13:26:27.3      36     12     51     39     64  71.4  59.4  34240  290.94 0854.42
2009/04/23 13:26:27.4      20      8     55     22     59  68.3  77.1  34250  291.09 0854.42
2009/04/23 13:26:27.5      13     14     33     20     38  41.4  64.7  34250  291.09 0854.41
2009/04/23 13:26:27.6      32     32     51     46     68  44.2  52.2  34246  291.03 0854.41
2009/04/23 13:26:27.7      16     20     50     26     56  39.6  70.8  34254  291.18 0854.41
2009/04/23 13:26:27.8       7      6     42     10     43  46.9  85.9  34250  291.09 0854.41
2009/04/23 13:26:27.9       0     20     30     21     36 357.3  62.6  34252  291.15 0854.41
2009/04/23 13:26:28.0     -30     63     45     70     83 334.6  36.0  34244  291.01 0854.41
2009/04/23 13:26:28.1     -70     70     19     99    101 315.0  11.1  34234  290.82 0854.41
2009/04/23 13:26:28.2     -43     81      4     92     93 331.9   2.9  34236  290.87 0854.41
2009/04/23 13:26:28.3     -31     81     -1     87     88 339.1  -1.3  34238  290.89 0854.41
2009/04/23 13:26:28.4     -56     68    -30     89     93 320.4 -23.6  34238  290.91 0854.41
2009/04/23 13:26:28.5     -15     46    -44     49     65 341.7 -52.3  34238  290.91 0854.43
2009/04/23 13:26:28.6     -42     73    -10     85     86 329.7  -6.7  34230  290.75 0854.43
2009/04/23 13:26:28.7     -43     91      0    101    102 334.7   0.2  34236  290.86 0854.43
2009/04/23 13:26:28.8     -70    114    -12    134    135 328.4  -5.2  34238  290.89 0854.43
2009/04/23 13:26:28.9     -81    102     -7    131    132 321.7  -3.1  34238  290.91 0854.43
2009/04/23 13:26:29.0    -171     55    -68    180    192 287.9 -25.9  34254  291.16 0854.43
2009/04/23 13:26:29.1    -154    -21    -89    156    179 262.1 -36.5  34260  291.28 0854.43
2009/04/23 13:26:29.2       3     72    -85     73    112   2.7 -59.8  34258  291.25 0854.43
2009/04/23 13:26:29.3       2     55    -66     56     86   2.7 -59.2  34258  291.25 0854.43
2009/04/23 13:26:29.4     -29      0    -32     30     43 270.0 -54.5  34254  291.18 0854.43
2009/04/23 13:26:29.5      -4     56     15     57     60 355.6  15.2  34250  291.09 0854.43
2009/04/23 13:26:29.6     -15     48     -2     51     52 342.2  -2.2  34248  291.08 0854.43
2009/04/23 13:26:29.7      16     47     30     50     58  19.2  35.5  34252  291.15 0854.43
2009/04/23 13:26:29.8       0      0     74      1     74 270.0  90.0  34260  291.26 0854.43
2009/04/23 13:26:29.9      -8    -26     62     28     68 198.5  74.0  34260  291.26 0854.43
2009/04/23 13:26:30.0      33    -27     94     43    103 129.5  74.0  34262  291.30 0854.43
2009/04/23 13:26:30.1      28    -26     91     39     99 133.1  76.1  34254  291.18 0854.43
2009/04/23 13:26:30.2      10      0     77     11     77  90.0  90.0  34256  291.21 0854.43
2009/04/23 13:26:30.3     -73    -34     38     81     89 244.6  27.1  34254  291.16 0854.43
2009/04/23 13:26:30.4     -12    -71     14     73     75 189.8  11.0  34256  291.20 0854.43
2009/04/23 13:26:30.5     -11    -97     19     98    100 186.7  11.1  34252  291.15 0854.43
2009/04/23 13:26:30.6      55     -5     47     56     73  95.2  43.8  34246  291.03 0854.43
2009/04/23 13:26:30.7      59     -7     44     60     74  97.0  39.7  34244  291.01 0854.43
2009/04/23 13:26:30.8      44      0     58     45     73  90.0  57.5  34252  291.13 0854.43
2009/04/23 13:26:30.9      30    -31     53     44     68 135.9  56.3  34252  291.13 0854.43
2009/04/23 13:26:31.0      23    -37     44     44     62 148.4  50.1  34248  291.06 0854.43
2009/04/23 13:26:31.1      49    -19     74     53     91 111.7  61.1  34250  291.11 0854.43
2009/04/23 13:26:31.2      78     -6     76     79    109  94.4  49.0  34256  291.20 0854.43
2009/04/23 13:26:31.3      71      0     45     72     84  90.0  35.5  34250  291.11 0854.43
2009/04/23 13:26:31.4     -23     15     59     28     65 302.4  72.9  34262  291.30 0854.43
2009/04/23 13:26:31.5      28     32     47     43     63  41.4  52.2  34262  291.30 0854.43
2009/04/23 13:26:31.6      14     37     77     40     86  21.8  70.4  34272  291.49 0854.43
2009/04/23 13:26:31.7      19     15     64     25     68  50.5  79.2  34274  291.50 0854.43
2009/04/23 13:26:31.8       5   -116     67     53     85 360.0  57.5  34276  291.54 0854.43
2009/04/23 13:26:31.9     -24     33     44     42     60 323.9  51.2  34270  291.45 0854.43
2009/04/23 13:26:32.0     -51     73     45     90    100 324.8  28.2  34268  291.40 0854.43
2009/04/23 13:26:32.1     -69     90     45    114    122 322.2  22.5  34272  291.47 0854.43
2009/04/23 13:26:32.2     -87    130     66    157    170 326.2  24.1  34272  291.47 0854.43
2009/04/23 13:26:32.3    -103    147     38    180    185 324.8  12.0  34288  291.74 0854.43
2009/04/23 13:26:32.4    -126    140     51    189    196 318.1  15.2  34262  291.32 0854.43
2009/04/23 13:26:32.5    -140    139     17    198    199 314.8   5.2  34278  291.57 0854.38
2009/04/23 13:26:32.6    -144    137     -4    199    200 313.6  -1.3  34282  291.64 0854.38
2009/04/23 13:26:32.7    -133    162    -11    210    211 320.6  -3.1  34286  291.72 0854.38
2009/04/23 13:26:32.8    -145    144     10    205    206 314.7   2.8  34266  291.37 0854.38
2009/04/23 13:26:32.9    -131    152     17    202    203 319.2   5.0  34262  291.30 0854.38
2009/04/23 13:26:33.0    -111    194     -4    224    225 330.1  -1.2  34256  291.21 0854.38
2009/04/23 13:26:33.1     -70    203     16    215    216 340.8   4.4  34254  291.18 0854.38
2009/04/23 13:26:33.2    -128    177     -8    219    220 324.0  -2.2  34270  291.45 0854.38
2009/04/23 13:26:33.3    -139    167    -35    218    221 320.4  -9.3  34272  291.47 0854.38
2009/04/23 13:26:33.4    -103    175    -57    204    211 329.5 -20.2  34262  291.32 0854.38
2009/04/23 13:26:33.5       0    208    -97    209    230 359.8 -31.5  34254  291.18 0854.38
2009/04/23 13:26:33.6      58    211    -60    219    228 360.0 -15.5  34248  291.06 0854.38
2009/04/23 13:26:33.7     -85    158    -31    180    183 331.7  -9.8  34246  291.04 0854.38
2009/04/23 13:26:33.8     -99    141     38    173    178 324.8  12.6  34250  291.09 0854.38
2009/04/23 13:26:33.9     -32     69    115     77    138 334.7  62.7  34266  291.38 0854.38
2009/04/23 13:26:34.0     -37     59    121     70    139 327.5  67.7  34266  291.37 0854.38
2009/04/23 13:26:34.1     -47     57    139     75    157 320.4  69.3  34258  291.25 0854.38
2009/04/23 13:26:34.2     -99     23     95    102    139 283.3  47.9  34248  291.08 0854.38
2009/04/23 13:26:34.3    -111     12     80    112    137 276.6  39.5  34240  290.92 0854.38
2009/04/23 13:26:34.4     -93     29     48     98    109 287.3  27.8  34236  290.87 0854.38
2009/04/23 13:26:34.5     -54     34     52     65     83 302.4  43.3  34242  290.98 0854.34
2009/04/23 13:26:34.6      -3     75     99     76    124 357.3  58.5  34248  291.06 0854.34
2009/04/23 13:26:34.7     -27     64     61     70     92 337.3  45.8  34250  291.11 0854.34
2009/04/23 13:26:34.8      14     41     55     44     70  19.2  56.4  34254  291.18 0854.34
2009/04/23 13:26:34.9       0     73     70     74    101   0.0  48.5  34254  291.16 0854.34
2009/04/23 13:26:35.0     -14     94     57     96    111 351.1  33.5  34250  291.09 0854.34
2009/04/23 13:26:35.1      -6    135     63    136    149 357.3  27.1  34242  290.98 0854.34
2009/04/23 13:26:35.2      53    125     78    137    157  23.2  32.1  34250  291.11 0854.34
2009/04/23 13:26:35.3       7    114     92    115    147   3.6  43.7  34248  291.06 0854.34
2009/04/23 13:26:35.4      18    109     38    111    118   9.8  19.2  34244  291.01 0854.34
2009/04/23 13:26:35.5      39     97     55    105    118  21.9  29.8  34256  291.21 0854.34
2009/04/23 13:26:35.6      86     87     65    123    139  44.9  30.3  34266  291.38 0854.34
2009/04/23 13:26:35.7      59    107    124    123    174  29.0  49.7  34274  291.50 0854.34
2009/04/23 13:26:35.8     102     62    115    120    166  58.9  49.0  34288  291.76 0854.34
2009/04/23 13:26:35.9     120     80     98    145    175  56.3  37.0  34320  292.30 0854.34
2009/04/23 13:26:36.0      99     77     74    126    146  52.2  33.5  34336  292.56 0854.34
2009/04/23 13:26:36.1      81     38     83     90    122  64.7  47.9  34308  292.10 0854.34
2009/04/23 13:26:36.2      38     46     92     60    109  39.7  64.6  34316  292.23 0854.34
2009/04/23 13:26:36.3      69     15     91     71    115  77.6  57.9  34296  291.89 0854.34
2009/04/23 13:26:36.4      90    -59    134    108    172 123.3  56.6  34260  291.26 0854.34
2009/04/23 13:26:36.5      16     29     91     34     97  29.0  79.7  34268  291.42 0854.32
2009/04/23 13:26:36.6       8     26    100     28    103  16.9  83.9  34252  291.15 0854.32
2009/04/23 13:26:36.7      97    -40     79    106    132 112.6  40.7  34250  291.11 0854.32
2009/04/23 13:26:36.8     187    -63    126    198    234 108.6  35.5  34248  291.08 0854.32
2009/04/23 13:26:36.9     204    -22    131    206    244  96.4  35.5  34252  291.13 0854.32
2009/04/23 13:26:37.0     195    -29    157    198    252  98.6  42.7  34244  290.99 0854.32
2009/04/23 13:26:37.1     155    -36    198    160    254 103.2  56.9  34242  290.98 0854.32
2009/04/23 13:26:37.2     151    -13    187    152    240  95.2  56.9  34242  290.96 0854.32
2009/04/23 13:26:37.3     189    -13    192    190    270  94.1  50.1  34238  290.90 0854.32
2009/04/23 13:26:37.4     191    -64    160    202    257 108.6  42.7  34240  290.93 0854.32
2009/04/23 13:26:37.5     239    -52    186    245    307 102.3  40.9  34242  290.95 0854.32
2009/04/23 13:26:37.6     115   -135    196    178    264 139.7  53.2  34242  290.95 0854.32
2009/04/23 13:26:37.7     136   -152    152    205    255 138.1  40.4  34242  290.95 0854.32
2009/04/23 13:26:37.8      90   -120    125    151    196 143.0  43.8  34240  290.92 0854.32
2009/04/23 13:26:37.9      67    -51    115     85    143 127.3  60.5  34246  291.03 0854.32
2009/04/23 13:26:38.0      39    -54    113     67    131 143.9  66.7  34250  291.11 0854.32
2009/04/23 13:26:38.1      -2   -107    131    108    169 181.4  56.4  34254  291.18 0854.32
2009/04/23 13:26:38.2     -90   -106    157    140    210 220.5  54.0  34244  290.99 0854.32
2009/04/23 13:26:38.3     -82   -122    159    148    217 213.8  52.2  34252  291.13 0854.32
2009/04/23 13:26:38.4     -25   -134    146    137    200 190.7  52.1  34260  291.26 0854.32
2009/04/23 13:26:38.5     -81    -84    195    117    227 224.1  66.2  34264  291.33 0854.30
2009/04/23 13:26:38.6     -41   -121    156    128    201 198.7  56.4  34270  291.43 0854.30
2009/04/23 13:26:38.7     -40    -40    128     57    140 225.0  74.9  34254  291.16 0854.30
2009/04/23 13:26:38.8      13    -58    174     60    184 166.6  80.7  34272  291.49 0854.30
2009/04/23 13:26:38.9    -130   -168    165    213    269 217.8  41.7  34292  291.82 0854.30
2009/04/23 13:26:39.0     -78   -165    208    183    277 205.4  54.2  34284  291.67 0854.30
2009/04/23 13:26:39.1     -57   -179    163    189    249 197.8  45.1  34254  291.18 0854.30
2009/04/23 13:26:39.2      14   -123     77    124    145 173.3  35.5  34270  291.43 0854.30
2009/04/23 13:26:39.3     -28   -137    160    140    212 191.6  54.3  34266  291.37 0854.30
2009/04/23 13:26:39.4     -61   -100    133    118    177 211.2  53.7  34288  291.74 0854.30
2009/04/23 13:26:39.5    -157    -64     61    170    180 247.6  20.2  34348  292.76 0854.30
2009/04/23 13:26:39.6    -198    -10     73    199    211 267.0  21.0  34356  292.90 0854.30
2009/04/23 13:26:39.7    -162    -66    -26    176    179 247.8  -8.6  34270  291.43 0854.30
2009/04/23 13:26:39.8    -146    -41    124    152    196 254.1  43.7  34328  292.44 0854.30
2009/04/23 13:26:39.9     -59    -19    163     63    174 251.8  78.4  34318  292.27 0854.30
2009/04/23 13:26:40.0     -61    -27    134     67    149 245.6  71.9  34314  292.18 0854.30
2009/04/23 13:26:40.1     -64    -16    105     66    124 255.8  64.7  34310  292.12 0854.30
2009/04/23 13:26:40.2    -101      7     98    102    141 274.4  49.0  34294  291.84 0854.30
2009/04/23 13:26:40.3       1    -52    125     53    135 178.2  75.5  34264  291.35 0854.30
2009/04/23 13:26:40.4     -47    -50    131     69    148 223.3  69.8  34250  291.11 0854.30
2009/04/23 13:26:40.5     -80    -82    141    115    181 224.1  56.4  34264  291.35 0854.31
2009/04/23 13:26:40.6     -45    -23     83     51     97 242.0  64.7  34274  291.52 0854.31
2009/04/23 13:26:40.7      -6   -135    110    136    174 182.6  43.5  34274  291.50 0854.31
2009/04/23 13:26:40.8     -64   -150     21    164    166 203.2   7.5  34244  291.01 0854.31
2009/04/23 13:26:40.9     -57   -142     78    154    172 201.8  29.1  34272  291.49 0854.31
2009/04/23 13:26:41.0     -42   -128     59    135    147 198.5  25.1  34264  291.35 0854.31
2009/04/23 13:26:41.1     -35    -97    108    104    149 200.0  50.7  34272  291.49 0854.31
2009/04/23 13:26:41.2     -86    -91     91    126    155 223.2  39.5  34282  291.64 0854.31
2009/04/23 13:26:41.3    -135    -74     80    155    174 241.1  29.3  34280  291.62 0854.31
2009/04/23 13:26:41.4    -125    -85     71    152    167 235.8  27.0  34276  291.54 0854.31
2009/04/23 13:26:41.5     -77   -104     71    130    148 216.5  31.3  34262  291.30 0854.31
2009/04/23 13:26:41.6     -71   -139     61    157    168 207.1  22.3  34240  290.94 0854.31
2009/04/23 13:26:41.7     -80    -76     40    111    117 226.4  20.9  34246  291.04 0854.31
2009/04/23 13:26:41.8    -123   -165     28    207    209 216.7   7.8  34236  290.87 0854.31
2009/04/23 13:26:41.9     -41   -178     67    183    194 193.1  20.4  34238  290.89 0854.31
2009/04/23 13:26:42.0    -113   -202     13    232    233 209.2   3.3  34234  290.84 0854.31
2009/04/23 13:26:42.1     -74   -204     -1    218    219 200.1  -0.3  34234  290.84 0854.31
2009/04/23 13:26:42.2    -149   -226     51    271    276 213.4  10.8  34236  290.85 0854.31
2009/04/23 13:26:42.3    -110   -199     88    228    244 208.9  22.0  34238  290.90 0854.31
2009/04/23 13:26:42.4     -48   -208    106    214    238 193.1  28.2  34238  290.91 0854.31
2009/04/23 13:26:42.5       8   -112     84    113    140 175.5  40.1  34240  290.94 0854.32
2009/04/23 13:26:42.6       5    -83    115     84    142 176.0  60.5  34248  291.08 0854.32
2009/04/23 13:26:42.7     -58   -157    146    168    222 200.3  45.8  34230  290.77 0854.32
2009/04/23 13:26:42.8     -64   -169    107    181    210 200.9  33.5  34230  290.77 0854.32
2009/04/23 13:26:42.9     -64   -149    101    163    191 203.4  35.5  34234  290.84 0854.32
2009/04/23 13:26:43.0     -44   -147     64    154    166 196.9  24.1  34236  290.87 0854.32
2009/04/23 13:26:43.1     -67   -107     12    127    128 212.1   5.4  34234  290.84 0854.32
2009/04/23 13:26:43.2      13    -89     -1     91     92 171.5  -0.7  34228  290.72 0854.32
2009/04/23 13:26:43.3      54   -154     64    164    176 160.6  22.5  34236  290.86 0854.32
2009/04/23 13:26:43.4      43   -146     74    153    169 163.5  27.4  34240  290.92 0854.32
2009/04/23 13:26:43.5      96   -156     74    184    198 148.4  23.0  34234  290.82 0854.32
2009/04/23 13:26:43.6     109   -147    151    184    238 143.5  43.7  34238  290.91 0854.32
2009/04/23 13:26:43.7      65   -149    144    163    217 156.4  45.9  34242  290.96 0854.32
2009/04/23 13:26:43.8      27   -128    128    131    183 168.0  49.4  34240  290.94 0854.32
2009/04/23 13:26:43.9       7   -122    118    123    170 176.4  49.2  34240  290.94 0854.32
2009/04/23 13:26:44.0      58   -110     63    125    139 151.9  29.2  34236  290.87 0854.32
2009/04/23 13:26:44.1      59   -147     36    159    164 158.1  12.9  34236  290.86 0854.32
2009/04/23 13:26:44.2      77   -159     16    177    178 154.1   5.2  34234  290.84 0854.32
2009/04/23 13:26:44.3      52   -218     43    225    230 166.6  11.0  34230  290.77 0854.32
2009/04/23 13:26:44.4      42   -209     49    214    220 168.4  12.9  34232  290.81 0854.32
2009/04/23 13:26:44.5     111   -207     91    236    252 151.7  22.0  34228  290.73 0854.35
2009/04/23 13:26:44.6      64   -211     96    221    240 163.0  25.1  34232  290.80 0854.35
2009/04/23 13:26:44.7      21   -160     82    162    181 172.2  28.7  34232  290.81 0854.35
2009/04/23 13:26:44.8      45   -150     79    157    175 163.1  28.7  34232  290.81 0854.35
2009/04/23 13:26:44.9      63   -197     73    207    220 162.2  19.4  34228  290.72 0854.35
2009/04/23 13:26:45.0      17   -178     89    179    199 174.4  28.5  34226  290.70 0854.35
2009/04/23 13:26:45.1     -24   -174     71    176    189 188.0  23.0  34228  290.72 0854.35
2009/04/23 13:26:45.2     -22   -100     31    103    108 192.5  16.8  34230  290.75 0854.35
2009/04/23 13:26:45.3     -24    -89     14     93     95 195.6   8.5  34228  290.72 0854.35
2009/04/23 13:26:45.4     -31    -65      9     73     74 205.3   7.1  34228  290.72 0854.35
2009/04/23 13:26:45.5      -7    -35     19     36     40 191.6  30.3  34232  290.81 0854.35
2009/04/23 13:26:45.6      16    -47     28     50     57 161.3  32.4  34238  290.89 0854.35
2009/04/23 13:26:45.7       5    -42     47     43     63 172.0  52.2  34234  290.82 0854.35
2009/04/23 13:26:45.8      26    -64     26     70     74 158.1  20.0  34230  290.75 0854.35
2009/04/23 13:26:45.9      24    -60     17     65     68 158.1  15.3  34232  290.79 0854.35
2009/04/23 13:26:46.0       0    -56      2     57     58 180.9   2.9  34226  290.69 0854.35
2009/04/23 13:26:46.1     -10    -74     -1     75     76 188.0  -1.2  34232  290.79 0854.35
2009/04/23 13:26:46.2       7    -68     -8     69     70 173.8  -7.2  34232  290.79 0854.35
2009/04/23 13:26:46.3      -1    -39    -14     40     42 182.6 -24.4  34236  290.86 0854.35
2009/04/23 13:26:46.4       8    -13     -4     16     17 147.5 -15.5  34232  290.81 0854.35
2009/04/23 13:26:46.5       2     -3     -4      4      5 147.5 -54.5  34232  290.81 0854.37
2009/04/23 13:26:46.6     -17      7    -22     19     29 291.7 -56.6  34230  290.75 0854.37
2009/04/23 13:26:46.7     -43     27    -29     51     58 302.4 -37.9  34228  290.72 0854.37
2009/04/23 13:26:46.8     -59     56    -24     82     85 313.6 -21.2  34222  290.62 0854.37
2009/04/23 13:26:46.9     -87     71    -14    113    114 309.5  -7.3  34222  290.62 0854.37
2009/04/23 13:26:47.0     -73     73     51    104    115 315.0  27.3  34222  290.64 0854.37
2009/04/23 13:26:47.1    -106     63     52    124    134 300.7  24.1  34228  290.74 0854.37
2009/04/23 13:26:47.2    -147     86     37    171    176 300.4  12.4  34236  290.87 0854.37
2009/04/23 13:26:47.3    -138     46     -8    146    147 288.6  -3.2  34236  290.87 0854.37
2009/04/23 13:26:47.4    -125     59    -62    139    152 295.2 -30.1  34234  290.82 0854.37
2009/04/23 13:26:47.5     -37    -58    -63     69     93 212.5 -52.3  34236  290.86 0854.37
2009/04/23 13:26:47.6     -29    -75    -63     81    102 201.4 -46.6  34234  290.84 0854.37
2009/04/23 13:26:47.7     -11    -93    -40     94    102 187.1 -28.5  34230  290.77 0854.37
2009/04/23 13:26:47.8     -46    -96     -4    107    108 205.9  -2.2  34226  290.70 0854.37
2009/04/23 13:26:47.9    -133    -11     10    134    135 265.2   4.4  34232  290.79 0854.37
2009/04/23 13:26:48.0    -214    -65    -37    224    228 252.9  -9.4  34224  290.65 0854.37
2009/04/23 13:26:48.1    -279    -82   -122    291    315 253.6 -28.5  34220  290.58 0854.37
2009/04/23 13:26:48.2    -222    -69   -190    233    300 252.7 -48.1  34216  290.53 0854.37
2009/04/23 13:26:48.3    -397    -59   -180    402    440 261.5 -30.2  34216  290.53 0854.37
2009/04/23 13:26:48.4    -211   -290     53    359    363 216.1   8.5  34220  290.60 0854.36
2009/04/23 13:26:48.5    -177   -208    119    274    298 220.3  25.1  34222  290.61 0854.36
2009/04/23 13:26:48.6    -163    -21     82    165    184 262.5  28.2  34224  290.67 0854.36
2009/04/23 13:26:48.7    -122     -9     89    123    151 265.6  39.7  34228  290.72 0854.36
2009/04/23 13:26:48.8    -101    -65    115    121    166 237.1  48.7  34232  290.81 0854.36
2009/04/23 13:26:48.9     -81   -128    203    152    253 212.6  59.6  34224  290.67 0854.36
2009/04/23 13:26:49.0     -58   -184    196    194    275 197.6  50.1  34224  290.65 0854.36
2009/04/23 13:26:49.1     -18    -49    169     53    177 200.0  82.0  34226  290.69 0854.36
2009/04/23 13:26:49.3     -84   -156    203    178    269 208.3  54.3  34226  290.70 0854.36
2009/04/23 13:26:49.4     -33   -279    212    282    352 186.9  40.8  34216  290.52 0854.36
2009/04/23 13:26:49.5      18   -238    187    239    303 175.5  42.0  34226  290.68 0854.38
2009/04/23 13:26:49.6     -15   -207    231    208    310 184.2  53.3  34234  290.82 0854.38
2009/04/23 13:26:49.7     -48   -282    150    287    323 189.8  29.6  34216  290.51 0854.38
2009/04/23 13:26:49.8     -12   -297    138    298    328 182.5  26.6  34224  290.66 0854.38
2009/04/23 13:26:49.9    -120   -268    144    294    327 204.1  28.0  34224  290.65 0854.38
2009/04/23 13:26:50.0    -143   -338    227    368    432 203.0  34.5  34226  290.68 0854.38
2009/04/23 13:26:50.1    -173   -335    190    378    423 207.3  28.6  34220  290.58 0854.38
2009/04/23 13:26:50.2    -117   -258    266    284    389 204.5  48.0  34222  290.62 0854.38
2009/04/23 13:26:50.3     -94   -204    183    225    290 204.7  43.7  34220  290.59 0854.38
2009/04/23 13:26:50.4      67     20    158     70    172  73.2  74.8  34216  290.53 0854.38
2009/04/23 13:26:50.5     263    -37    328    266    422  98.0  56.8  34228  290.74 0854.38
2009/04/23 13:26:50.6      21     55    213     59    221  20.9  84.6  34240  290.92 0854.38
2009/04/23 13:26:50.7      -1    -24    186     25    187 184.5  90.0  34238  290.91 0854.38
2009/04/23 13:26:50.8     -24     -9    206     26    207 248.3  90.0  34238  290.89 0854.38
2009/04/23 13:26:50.9      -2   -252    341    253    424 180.5  59.9  34218  290.54 0854.38
2009/04/23 13:26:51.0     -52   -305    332    310    454 189.7  52.2  34214  290.48 0854.38
2009/04/23 13:26:51.1     -71   -333    302    341    455 192.1  46.1  34220  290.58 0854.38
2009/04/23 13:26:51.2      34   -305    108    307    326 173.5  19.5  34228  290.73 0854.38
2009/04/23 13:26:51.3      84   -288     46    301    305 163.7   8.8  34218  290.56 0854.38
2009/04/23 13:26:51.4      97   -320     65    335    342 163.1  11.0  34224  290.66 0854.38
2009/04/23 13:26:51.5     156   -303     16    342    343 152.7   2.8  34228  290.72 0854.41
2009/04/23 13:26:51.6     105   -304     17    322    323 160.8   3.1  34222  290.63 0854.41
2009/04/23 13:26:51.7     136   -305     94    335    348 155.9  15.7  34220  290.59 0854.41
2009/04/23 13:26:51.8      88   -139     98    165    191 147.7  33.7  34220  290.58 0854.41
2009/04/23 13:26:51.9     -40     16     11     44     46 291.7  14.3  34230  290.75 0854.41
2009/04/23 13:26:52.0    -153     13    -53    154    164 275.2 -19.1  34236  290.86 0854.41
2009/04/23 13:26:52.1    -199    -60     50    209    215 253.1  13.5  34236  290.86 0854.41
2009/04/23 13:26:52.2    -245    -43     -1    249    250 259.9  -0.3  34242  290.97 0854.41
2009/04/23 13:26:52.3    -131    -61     65    145    158 244.8  25.9  34236  290.86 0854.41
2009/04/23 13:26:52.4     -39      0    100     40    107 270.0  77.1  34236  290.86 0854.41
2009/04/23 13:26:52.5    -126    -69     99    144    174 241.1  37.6  34238  290.91 0854.41
2009/04/23 13:26:52.6    -112    -74     82    135    157 236.7  34.2  34236  290.86 0854.41
2009/04/23 13:26:52.7     -50    -44     56     67     87 228.7  44.3  34238  290.89 0854.41
2009/04/23 13:26:52.8     -83    -23     18     87     90 254.1  12.2  34234  290.84 0854.41
2009/04/23 13:26:52.9     -27      0     68     28     73 270.0  77.1  34240  290.92 0854.41
2009/04/23 13:26:53.0     -70   -118    178    138    225 210.7  58.4  34240  290.94 0854.41
2009/04/23 13:26:53.1    -157   -174    104    235    256 221.9  25.2  34230  290.76 0854.41
2009/04/23 13:26:53.2    -250   -211     75    328    337 229.8  12.9  34220  290.59 0854.41
2009/04/23 13:26:53.3    -295   -168     17    340    341 240.3   3.0  34222  290.62 0854.41
2009/04/23 13:26:53.4    -250    -42     64    254    262 260.3  14.2  34226  290.70 0854.41
2009/04/23 13:26:53.5    -169      3     64    170    181 271.3  21.7  34236  290.87 0854.43
2009/04/23 13:26:53.6    -211   -112     47    239    244 242.0  11.1  34246  291.04 0854.43
2009/04/23 13:26:53.7    -237   -121    125    267    294 242.9  27.1  34256  291.19 0854.43
2009/04/23 13:26:53.8    -120   -208     96    241    259 209.9  23.0  34232  290.80 0854.43
2009/04/23 13:26:53.9       0   -214    -27    215    217 180.2  -7.3  34244  291.01 0854.43
2009/04/23 13:26:54.0      25   -191     91    193    213 172.4  27.2  34244  290.99 0854.43
2009/04/23 13:26:54.1      24     38    121     46    129  32.5  79.1  34242  290.96 0854.43
2009/04/23 13:26:54.2     -14    -74    157     76    174 190.7  72.7  34246  291.03 0854.43
2009/04/23 13:26:54.3     -40   -133    104    140    174 196.9  40.4  34242  290.96 0854.43
2009/04/23 13:26:54.4    -145   -134     38    198    202 227.1  11.1  34238  290.91 0854.43
2009/04/23 13:26:54.5    -164    -75     94    181    203 245.4  29.5  34240  290.92 0854.43
2009/04/23 13:26:54.6    -260     96    -78    278    289 290.4 -15.8  34224  290.66 0854.43
2009/04/23 13:26:54.7    -291    -25    140    293    324 265.0  27.3  34236  290.85 0854.43
2009/04/23 13:26:54.8    -250   -131    178    283    334 242.2  35.2  34244  290.99 0854.43
2009/04/23 13:26:54.9    -269   -195    109    333    351 234.0  18.1  34248  291.06 0854.43
2009/04/23 13:26:55.0    -245   -154      6    290    291 237.8   1.2  34238  290.88 0854.43
2009/04/23 13:26:55.1    -221   -183    123    288    313 230.4  24.5  34226  290.70 0854.43
2009/04/23 13:26:55.2    -239    -76    107    251    272 252.3  24.3  34238  290.88 0854.43
2009/04/23 13:26:55.3    -114    -77    125    138    186 235.9  46.9  34236  290.86 0854.43
2009/04/23 13:26:55.4    -275   -169    100    324    340 238.4  17.2  34234  290.83 0854.43
2009/04/23 13:26:55.5    -274   -263     89    380    391 226.2  13.3  34214  290.50 0854.44
2009/04/23 13:26:55.6    -328   -287     43    436    439 228.8   5.7  34214  290.48 0854.44
2009/04/23 13:26:55.7    -261    -31     74    263    274 263.0  15.8  34226  290.68 0854.44
2009/04/23 13:26:55.8    -243    127    -87    275    289 297.5 -17.6  34228  290.73 0854.44
2009/04/23 13:26:55.9    -269     75   -123    280    305 285.7 -29.6  34226  290.68 0854.44
2009/04/23 13:26:56.0    -332     76   -113    341    359 283.0 -23.7  34220  290.59 0854.44
2009/04/23 13:26:56.1    -330     49   -110    334    351 278.6 -23.6  34224  290.67 0854.44
2009/04/23 13:26:56.2    -383     29   -120    385    404 274.4 -17.3  34220  290.60 0854.44
2009/04/23 13:26:56.3    -337     88   -120    349    370 284.6 -19.0  34218  290.55 0854.44
2009/04/23 13:26:56.4    -413    106   -156    427    454 284.5 -25.4  34218  290.56 0854.44
2009/04/23 13:26:56.5    -349     89    -80    361    370 284.4 -12.5  34232  290.79 0854.44
2009/04/23 13:26:56.6    -384     50    -93    388    400 277.5 -13.6  34224  290.66 0854.44
2009/04/23 13:26:56.7    -355     29   -148    357    386 274.7 -28.1  34210  290.42 0854.44
2009/04/23 13:26:56.8    -303     13    -98    304    319 272.6 -23.0  34218  290.56 0854.44
2009/04/23 13:26:56.9    -380    -15   -118    381    398 267.6 -22.2  34218  290.54 0854.44
2009/04/23 13:26:57.0    -328     79   -222    338    404 283.6 -40.9  34216  290.52 0854.44
2009/04/23 13:26:57.1    -225   -204    -64    304    311 227.8 -11.9  34226  290.70 0854.44
2009/04/23 13:26:57.2    -186   -149     46    239    244 231.4  11.0  34236  290.85 0854.44
2009/04/23 13:26:57.3    -194    -61     31    204    207 252.5   8.8  34242  290.98 0854.44
2009/04/23 13:26:57.4    -228     29     69    230    241 277.5  16.8  34246  291.04 0854.44
2009/04/23 13:26:57.5    -197     15    -46    198    204 274.6 -13.2  34240  290.92 0854.43
2009/04/23 13:26:57.6     -77     39     17     87     89 297.1  11.1  34250  291.11 0854.43
2009/04/23 13:26:57.7    -248     32    -50    251    257 277.5 -11.3  34246  291.02 0854.43
2009/04/23 13:26:57.8    -273    135     78    305    315 296.4  14.4  34238  290.90 0854.43
2009/04/23 13:26:57.9    -264    114    140    288    320 293.5  27.9  34250  291.09 0854.43
2009/04/23 13:26:58.0    -170     81     48    189    196 295.4  14.3  34248  291.06 0854.43
2009/04/23 13:26:58.1    -163    171     82    237    251 316.3  19.2  34250  291.09 0854.43
2009/04/23 13:26:58.2    -278    208    -70    348    356 306.8 -11.5  34248  291.05 0854.43
2009/04/23 13:26:58.3    -149    220    -13    266    267 325.9  -2.8  34246  291.02 0854.43
2009/04/23 13:26:58.4    -108    323    -39    341    344 341.4  -6.6  34254  291.17 0854.43
2009/04/23 13:26:58.5    -123    282    -20    308    309 336.4  -3.7  34248  291.07 0854.43
2009/04/23 13:26:58.6    -236    284   -102    370    383 320.4 -20.0  34222  290.62 0854.43
2009/04/23 13:26:58.7    -319    202    -75    378    386 302.3 -11.2  34232  290.81 0854.43
2009/04/23 13:26:58.8    -220    150    -90    267    281 304.2 -23.3  34238  290.90 0854.43
2009/04/23 13:26:58.9    -182    285     66    339    346 327.4  11.1  34244  291.01 0854.43
2009/04/23 13:26:59.0    -199    335     21    390    391 329.3   3.1  34242  290.98 0854.43
2009/04/23 13:26:59.1    -207    301     24    366    367 325.4   3.8  34252  291.15 0854.43
2009/04/23 13:26:59.2    -208    234    -12    314    315 318.3  -2.2  34248  291.07 0854.43
2009/04/23 13:26:59.3    -103    186    -85    213    229 331.0 -27.4  34250  291.09 0854.43
2009/04/23 13:26:59.4     -45     88    -58     99    114 332.8 -37.9  34230  290.77 0854.43
2009/04/23 13:26:59.5     -82    237     64    251    260 340.8  14.3  34252  291.14 0854.44
2009/04/23 13:26:59.6    -210    273    120    345    366 322.4  19.2  34242  290.96 0854.44
2009/04/23 13:26:59.7    -232    260     78    349    358 318.3  12.6  34242  290.96 0854.44
2009/04/23 13:26:59.8    -142    254     -5    292    293 330.8  -1.2  34242  290.95 0854.44
2009/04/23 13:26:59.9    -200    241    187    314    365 320.4  33.5  34240  290.94 0854.44
2009/04/23 13:27:00.0    -198    267     91    333    346 323.5  15.4  34242  290.96 0854.44
2009/04/23 13:27:00.1    -231    274    130    359    381 319.9  20.7  34236  290.86 0854.44
2009/04/23 13:27:00.2    -145    360    167    389    423 338.1  24.9  34230  290.77 0854.44
2009/04/23 13:27:00.3    -106    219    132    244    277 334.1  30.8  34224  290.66 0854.44
2009/04/23 13:27:00.4    -234    223    108    324    342 313.6  18.5  34238  290.88 0854.44
2009/04/23 13:27:00.5    -310    269    -70    411    417 310.9  -9.7  34244  290.99 0854.44
2009/04/23 13:27:00.6    -259    377   -132    458    476 325.5 -20.9  34242  290.95 0854.44
2009/04/23 13:27:00.7    -330    379   -142    503    523 319.0 -15.8  34236  290.86 0854.44
2009/04/23 13:27:00.8    -528    400    -25    663    664 307.2  -2.2  34240  290.92 0854.44
2009/04/23 13:27:00.9    -476    374    -64    606    610 308.1  -6.1  34234  290.83 0854.44
2009/04/23 13:27:01.0    -541    266    -87    604    611 296.2  -8.2  34240  290.93 0854.44
2009/04/23 13:27:01.1    -422    326     64    534    538 307.7   6.9  34220  290.60 0854.44
2009/04/23 13:27:01.2    -351    165    150    388    415 295.2  22.3  34230  290.77 0854.44
2009/04/23 13:27:01.3    -360    108     90    377    388 286.8  13.5  34230  290.77 0854.44
2009/04/23 13:27:01.4    -424    -65    110    429    443 261.2  14.4  34230  290.77 0854.44
2009/04/23 13:27:01.5    -277   -176     60    329    335 237.6  10.3  34234  290.83 0854.45
2009/04/23 13:27:01.6    -143   -226    150    268    307 212.3  31.4  34234  290.82 0854.45
2009/04/23 13:27:01.7    -189   -297    -40    353    356 212.5  -6.6  34242  290.96 0854.45
2009/04/23 13:27:01.8    -232   -294   -116    375    392 218.2 -22.2  34230  290.77 0854.45
2009/04/23 13:27:01.9     -63   -383     54    389    393 189.3   7.9  34234  290.84 0854.45
2009/04/23 13:27:02.0    -151   -281    170    320    362 208.3  30.2  34248  291.06 0854.45
2009/04/23 13:27:02.1     -48   -296    206    301    364 189.3  37.6  34240  290.94 0854.45
2009/04/23 13:27:02.2    -177   -423     61    459    464 202.7   7.6  34242  290.97 0854.45
2009/04/23 13:27:02.3     -77   -277   -115    288    310 195.6 -27.4  34244  291.00 0854.45
2009/04/23 13:27:02.4    -200   -187   -105    275    294 226.9 -26.4  34244  291.00 0854.45
2009/04/23 13:27:02.5    -137    -45     -1    145    146 251.8  -0.7  34252  291.13 0854.45
2009/04/23 13:27:02.6    -180   -211   -170    278    325 220.6 -38.8  34242  290.97 0854.45
2009/04/23 13:27:02.7    -212   -225    -28    310    312 223.2  -5.2  34250  291.10 0854.45
2009/04/23 13:27:02.8    -272   -173   -130    323    348 237.6 -27.4  34244  291.01 0854.45
2009/04/23 13:27:02.9    -297   -111   -157    318    354 249.4 -32.6  34256  291.20 0854.45
2009/04/23 13:27:03.0    -289   -192   -153    348    380 236.4 -29.6  34242  290.98 0854.45
2009/04/23 13:27:03.1    -379   -195   -124    427    444 242.8 -21.0  34246  291.02 0854.45
2009/04/23 13:27:03.2    -406   -220    -13    462    463 241.5  -1.7  34244  291.01 0854.45
2009/04/23 13:27:03.3    -405   -307     29    509    510 232.9   3.3  34240  290.93 0854.45
2009/04/23 13:27:03.4    -341   -339    -49    482    485 225.2  -5.9  34238  290.88 0854.45
2009/04/23 13:27:03.5    -323   -390    -27    507    508 219.7  -3.1  34228  290.74 0854.45
2009/04/23 13:27:03.6    -433   -247     24    499    500 240.2   2.8  34242  290.95 0854.45
2009/04/23 13:27:03.7    -363   -139   -131    389    411 248.9 -18.7  34246  291.02 0854.45
2009/04/23 13:27:03.8    -449   -141   -187    471    506 252.5 -27.3  34236  290.85 0854.45
2009/04/23 13:27:03.9    -514   -109   -204    526    564 258.0 -26.7  34224  290.67 0854.45
2009/04/23 13:27:04.0    -401   -241   -141    468    488 239.0 -21.7  34222  290.64 0854.45
2009/04/23 13:27:04.1    -281    -12    -18    282    283 267.4  -3.7  34258  291.22 0854.45
2009/04/23 13:27:04.2    -396     60    -72    401    408 278.7 -10.2  34234  290.82 0854.45
2009/04/23 13:27:04.3    -500     32   -100    502    512 273.7 -11.3  34226  290.68 0854.45
2009/04/23 13:27:04.4    -672     22   -163    673    693 271.9 -13.7  34222  290.61 0854.45
2009/04/23 13:27:04.5    -524    -51   -172    527    555 264.4 -18.1  34238  290.89 0854.45
2009/04/23 13:27:04.6    -510     12   -260    511    573 271.4 -33.6  34222  290.63 0854.45
2009/04/23 13:27:04.7    -458   -104   -195    470    508 257.1 -28.3  34228  290.71 0854.45
2009/04/23 13:27:04.8    -499      8   -145    500    521 271.0 -16.2  34210  290.42 0854.45
2009/04/23 13:27:04.9    -575     53   -178    578    604 275.4 -22.1  34234  290.83 0854.45
2009/04/23 13:27:05.0    -698     72   -245    702    744 275.9 -19.3  34220  290.59 0854.45
2009/04/23 13:27:05.1    -410   -322   -195    522    557 231.9 -25.8  34222  290.62 0854.45
2009/04/23 13:27:05.2    -415    -75   -226    422    478 259.7 -34.9  34230  290.77 0854.45
2009/04/23 13:27:05.3    -601   -146   -129    619    633 256.3 -11.8  34214  290.50 0854.45
2009/04/23 13:27:05.4    -460    112   -122    474    490 283.7 -14.5  34228  290.74 0854.45
2009/04/23 13:27:05.5    -536   -116    -49    549    552 257.7  -5.2  34234  290.82 0854.45
2009/04/23 13:27:05.6    -401     11    -73    402    409 271.7 -10.4  34230  290.77 0854.45
2009/04/23 13:27:05.7    -415    -62    -67    420    426 261.4  -9.1  34234  290.84 0854.45
2009/04/23 13:27:05.8    -648     90   -190    655    682 277.9 -16.2  34224  290.65 0854.45
2009/04/23 13:27:05.9    -462     35   -144    464    485 274.4 -22.3  34238  290.88 0854.45
2009/04/23 13:27:06.0    -387    -75   -142    395    419 259.0 -25.0  34242  290.95 0854.45
2009/04/23 13:27:06.1    -435    -74    -97    442    453 260.3 -12.4  34240  290.94 0854.45
2009/04/23 13:27:06.2    -357   -190   -140    405    428 241.9 -23.9  34238  290.89 0854.45
2009/04/23 13:27:06.3    -286   -116    -81    309    320 247.8 -14.8  34238  290.90 0854.45
2009/04/23 13:27:06.4    -292   -193   -107    351    366 236.5 -22.1  34242  290.96 0854.45
2009/04/23 13:27:06.5    -522    -77   -164    528    552 261.5 -22.3  34222  290.63 0854.45
2009/04/23 13:27:06.6    -416    -64   -167    421    452 261.2 -27.4  34228  290.72 0854.45
2009/04/23 13:27:06.7    -291    -57   -104    297    315 258.8 -19.4  34228  290.73 0854.45
2009/04/23 13:27:06.8    -256    -31     74    258    269 262.9  16.0  34228  290.71 0854.45
2009/04/23 13:27:06.9    -165    124    109    207    233 307.1  30.2  34246  291.03 0854.45
2009/04/23 13:27:07.0    -129     87     82    156    176 304.1  30.1  34252  291.15 0854.45
2009/04/23 13:27:07.1    -133    101     83    168    187 307.1  27.8  34248  291.08 0854.45
2009/04/23 13:27:07.2     -32     26     94     42    102 309.5  74.5  34258  291.23 0854.45
2009/04/23 13:27:07.3     -38     83    105     92    139 335.5  54.3  34246  291.03 0854.45
2009/04/23 13:27:07.4    -109     68    124    129    178 302.0  49.0  34258  291.25 0854.45
2009/04/23 13:27:07.5     -68     37     32     78     84 298.8  23.0  34260  291.26 0854.46
2009/04/23 13:27:07.6     -42     12     42     44     60 285.9  49.0  34262  291.32 0854.46
2009/04/23 13:27:07.7       4     13     17     14     22  18.7  56.4  34260  291.26 0854.46
2009/04/23 13:27:07.8      32     15     16     36     39  64.7  25.1  34260  291.28 0854.46
2009/04/23 13:27:07.9      19     23     26     30     39  39.6  45.8  34252  291.15 0854.46
2009/04/23 13:27:08.0      18     41     38     45     58  23.6  44.8  34250  291.09 0854.46
2009/04/23 13:27:08.1      -4     39     35     40     53 353.8  45.8  34252  291.15 0854.46
2009/04/23 13:27:08.2     -67     22     -1     71     72 288.2  -1.2  34250  291.11 0854.46
2009/04/23 13:27:08.3     -69     -7    -33     70     77 263.9 -31.5  34250  291.11 0854.46
2009/04/23 13:27:08.4    -111     25    -41    114    122 282.8 -19.7  34250  291.09 0854.46
2009/04/23 13:27:08.5    -130    -27    -38    133    139 258.1 -16.0  34246  291.03 0854.46
2009/04/23 13:27:08.6    -140    -10    -53    141    150 265.6 -25.9  34242  290.98 0854.46
2009/04/23 13:27:08.7    -220    -29   -146    222    265 262.3 -40.9  34224  290.65 0854.46
2009/04/23 13:27:08.8    -211    -38   -169    215    273 259.6 -46.6  34224  290.65 0854.46
2009/04/23 13:27:08.9    -198     15   -149    199    248 274.6 -45.1  34222  290.61 0854.46
2009/04/23 13:27:09.0    -132     22   -130    134    186 279.7 -53.6  34224  290.65 0854.46
2009/04/23 13:27:09.1     -50     48   -115     70    134 314.0 -69.5  34222  290.64 0854.46
2009/04/23 13:27:09.2     -20     94   -143     97    172 348.0 -67.2  34224  290.67 0854.46
2009/04/23 13:27:09.3      30     89   -131     95    161  18.7 -64.9  34224  290.67 0854.46
2009/04/23 13:27:09.4      72    186   -189    200    275  21.2 -52.6  34228  290.71 0854.46
2009/04/23 13:27:09.5      61    195   -153    205    255  17.4 -45.0  34230  290.75 0854.47
2009/04/23 13:27:09.6      96    194   -182    217    283  26.3 -48.2  34226  290.70 0854.47
2009/04/23 13:27:09.7     261    132   -100    293    309  63.1 -23.3  34220  290.59 0854.47
2009/04/23 13:27:09.8     262     32    -75    264    274  83.0 -20.7  34220  290.59 0854.47
2009/04/23 13:27:09.9     183    120    -69    219    229  56.7 -22.8  34222  290.64 0854.47
2009/04/23 13:27:10.0     211    145    -40    257    261  55.4  -9.0  34230  290.76 0854.47
2009/04/23 13:27:10.1     226    266     -8    350    351  40.4  -1.4  34230  290.77 0854.47
2009/04/23 13:27:10.2     220    289   -139    364    389  37.3 -26.2  34232  290.79 0854.47
2009/04/23 13:27:10.3     274    275    -28    389    390  44.8  -4.1  34230  290.76 0854.47
2009/04/23 13:27:10.4     290    213    -70    361    368  53.7 -11.1  34230  290.76 0854.47
2009/04/23 13:27:10.5     257    254     93    362    374  45.4  14.5  34228  290.71 0854.46
2009/04/23 13:27:10.6     296    135     66    326    333  65.4  11.6  34224  290.67 0854.46
2009/04/23 13:27:10.7     246    161    -88    295    307  56.7 -21.7  34230  290.75 0854.46
2009/04/23 13:27:10.8     218    147    -53    264    270  55.9 -11.5  34230  290.76 0854.46
2009/04/23 13:27:10.9     221    150     50    268    273  55.9  10.6  34226  290.68 0854.46
2009/04/23 13:27:11.0     177     30     44    180    186  80.3  13.9  34228  290.74 0854.46
2009/04/23 13:27:11.1     243    -25     -1    245    246  96.1  -0.3  34228  290.73 0854.46
2009/04/23 13:27:11.2     256     19    -65    257    266  85.6 -14.3  34224  290.65 0854.46
2009/04/23 13:27:11.3     150     50      9    159    160  71.4   3.3  34228  290.72 0854.46
2009/04/23 13:27:11.4     200    -33     -4    203    204  99.5  -1.3  34224  290.67 0854.46
2009/04/23 13:27:11.5     190     14     24    191    193  85.6   7.2  34226  290.70 0854.46
2009/04/23 13:27:11.6     190    -15     25    191    193  94.6   7.5  34228  290.72 0854.46
2009/04/23 13:27:11.7     149     16     18    150    152  83.8   6.9  34230  290.75 0854.46
2009/04/23 13:27:11.8     258     64    -68    266    275  75.9 -14.5  34220  290.59 0854.46
2009/04/23 13:27:11.9     334    -26   -110    336    354  94.6 -18.2  34228  290.71 0854.46
2009/04/23 13:27:12.0     181    160    -35    242    245  48.6  -8.2  34228  290.71 0854.46
2009/04/23 13:27:12.1     272    118     -2    297    298  66.5  -0.5  34220  290.59 0854.46
2009/04/23 13:27:12.2     250     61     56    258    265  76.1  12.4  34222  290.63 0854.46
2009/04/23 13:27:12.3     159    -41    118    165    202 104.6  39.1  34228  290.74 0854.46
2009/04/23 13:27:12.4     234     47    -62    239    248  78.5 -14.7  34228  290.73 0854.46
2009/04/23 13:27:12.5     279    -60      2    286    287 102.3   0.5  34228  290.73 0854.46
2009/04/23 13:27:12.6     239    -21    -39    240    244  95.2  -9.3  34228  290.71 0854.46
2009/04/23 13:27:12.7     347     90      0    359    360  75.4   0.1  34220  290.59 0854.46
2009/04/23 13:27:12.8     275    -33    -97    278    295  97.0 -19.4  34222  290.63 0854.46
2009/04/23 13:27:12.9     221   -101    -31    244    247 114.6  -7.3  34230  290.75 0854.46
2009/04/23 13:27:13.0     281   -178    -44    333    336 122.4  -7.7  34230  290.77 0854.46
2009/04/23 13:27:13.1     301    -91     28    315    317 106.8   5.2  34228  290.71 0854.46
2009/04/23 13:27:13.2     273   -182     13    329    330 123.7   2.4  34224  290.66 0854.46
2009/04/23 13:27:13.3     327   -209     18    389    390 122.6   2.8  34222  290.62 0854.46
2009/04/23 13:27:13.4     392   -137      0    416    417 109.3   0.0  34224  290.67 0854.46
2009/04/23 13:27:13.5     335   -100    -44    350    353 106.6  -7.3  34220  290.60 0854.46
2009/04/23 13:27:13.6     369   -147     17    398    399 111.7   2.5  34224  290.67 0854.46
2009/04/23 13:27:13.7     337    -38     53    340    345  96.6   9.0  34224  290.67 0854.46
2009/04/23 13:27:13.8     288    -77      8    299    300 105.1   1.6  34222  290.63 0854.46
2009/04/23 13:27:13.9     209   -126    -11    245    246 121.1  -2.6  34224  290.66 0854.46
2009/04/23 13:27:14.0     238   -219    -98    324    339 132.6 -16.9  34228  290.72 0854.46
2009/04/23 13:27:14.1     156   -145     -9    214    215 132.9  -2.6  34230  290.77 0854.46
2009/04/23 13:27:14.2     163   -228   -101    281    299 144.4 -19.8  34226  290.68 0854.46
2009/04/23 13:27:14.3      98   -276    -37    293    296 160.4  -7.2  34230  290.76 0854.46
2009/04/23 13:27:14.4      38   -297     46    300    304 172.7   8.9  34232  290.78 0854.45
2009/04/23 13:27:14.5      20   -267     62    268    276 175.5  13.1  34236  290.85 0854.45
2009/04/23 13:27:14.6     -15   -183     81    184    201 184.7  25.1  34232  290.79 0854.45
2009/04/23 13:27:14.7     -19   -169    119    171    208 186.7  38.0  34232  290.79 0854.45
2009/04/23 13:27:14.8      52   -204    136    211    251 165.5  35.6  34232  290.78 0854.45
2009/04/23 13:27:14.9      24   -192    142    194    240 172.7  39.9  34232  290.79 0854.45
2009/04/23 13:27:15.0      63   -171    137    183    228 159.5  40.7  34234  290.82 0854.45
2009/04/23 13:27:15.1     -16   -207    143    208    252 184.5  37.6  34236  290.85 0854.45
2009/04/23 13:27:15.2     -43   -211    114    216    244 191.6  30.1  34236  290.87 0854.45
2009/04/23 13:27:15.3       7   -244    140    245    282 178.2  32.4  34236  290.87 0854.45
2009/04/23 13:27:15.4      15   -266    148    267    305 176.6  31.4  34236  290.85 0854.45
2009/04/23 13:27:15.6     -44   -314    188    318    369 188.1  33.5  34240  290.93 0854.45
2009/04/23 13:27:15.6     -67   -251     90    260    276 195.1  19.2  34232  290.80 0854.45
2009/04/23 13:27:15.7    -131   -181     71    224    236 216.0  17.7  34226  290.69 0854.45
2009/04/23 13:27:15.8    -113   -229     99    256    274 206.3  22.1  34232  290.80 0854.45
2009/04/23 13:27:15.9    -145   -250    105    290    309 210.1  19.9  34236  290.87 0854.45
2009/04/23 13:27:16.0    -182   -220     30    286    288 219.6   6.1  34242  290.97 0854.45
2009/04/23 13:27:16.1    -138   -244     98    281    298 209.6  19.4  34236  290.85 0854.45
2009/04/23 13:27:16.2    -135   -169      9    217    218 218.7   2.5  34240  290.92 0854.45
2009/04/23 13:27:16.3     -77   -165     72    183    196 204.9  22.8  34242  290.96 0854.45
2009/04/23 13:27:16.4    -178   -362    201    404    451 206.3  28.4  34232  290.78 0854.45
2009/04/23 13:27:16.5      30   -385    -42    387    390 175.5  -6.2  34224  290.67 0854.45
2009/04/23 13:27:16.6      48   -365    -28    369    370 172.4  -4.4  34230  290.76 0854.45
2009/04/23 13:27:16.8     -11   -429     20    430    431 181.5   2.8  34238  290.89 0854.45
2009/04/23 13:27:16.8     -32   -403     16    405    406 184.6   2.3  34234  290.84 0854.45
2009/04/23 13:27:16.9    -283   -341   -147    444    467 219.6 -23.8  34242  290.97 0854.45
2009/04/23 13:27:17.1    -319   -404   -184    515    548 218.3 -19.7  34220  290.60 0854.45
2009/04/23 13:27:17.2     -76   -449   -137    456    476 189.6 -21.7  34228  290.74 0854.45
2009/04/23 13:27:17.3    -288   -450     46    535    538 212.6   5.0  34246  291.03 0854.45
2009/04/23 13:27:17.4    -455   -414    -60    616    620 227.7  -5.6  34226  290.69 0854.45
2009/04/23 13:27:17.5    -310   -284   -120    421    437 227.6 -20.7  34230  290.75 0854.45
2009/04/23 13:27:17.6    -378   -454    -84    591    598 219.8  -8.1  34220  290.58 0854.45
2009/04/23 13:27:17.7    -366   -457     32    586    587 218.7   3.1  34230  290.76 0854.45
2009/04/23 13:27:17.8    -279   -278     49    395    399 225.1   7.1  34238  290.89 0854.45
2009/04/23 13:27:17.9    -242   -218     82    327    338 228.0  14.2  34234  290.83 0854.45
2009/04/23 13:27:18.0     -79   -417     32    425    427 190.7   4.4  34230  290.75 0854.45
2009/04/23 13:27:18.1     121   -377     11    396    397 162.2   1.7  34220  290.60 0854.45
2009/04/23 13:27:18.2       0   -215    175    216    277 180.2  43.3  34234  290.82 0854.45
2009/04/23 13:27:18.3      26   -400    191    401    444 176.2  27.3  34230  290.77 0854.45
2009/04/23 13:27:18.4      69   -409    162    415    445 170.3  22.4  34234  290.84 0854.45
2009/04/23 13:27:18.5      63   -370    107    376    391 170.3  15.9  34228  290.72 0854.46
2009/04/23 13:27:18.6     220   -295    110    369    386 143.3  16.7  34232  290.79 0854.46
2009/04/23 13:27:18.7     229   -310    247    386    458 143.5  35.6  34230  290.77 0854.46
2009/04/23 13:27:18.8     270   -341     49    436    439 141.6   6.5  34232  290.78 0854.46
2009/04/23 13:27:18.9     162   -490    202    517    555 161.7  22.4  34230  290.77 0854.46
2009/04/23 13:27:19.0     119   -697    175    708    730 170.3  13.9  34232  290.79 0854.46
2009/04/23 13:27:19.1     283   -760    115    812    821 159.5   8.1  34232  290.79 0854.46
2009/04/23 13:27:19.2     104   -617    185    626    653 170.4  16.5  34238  290.88 0854.46
2009/04/23 13:27:19.3       5   -479    113    480    494 179.3  13.2  34218  290.56 0854.46
2009/04/23 13:27:19.4    -166   -604    -71    627    632 195.4  -6.5  34234  290.84 0854.46
2009/04/23 13:27:19.5    -222   -556    -93    600    608 201.8  -8.9  34228  290.73 0854.46
2009/04/23 13:27:19.6    -409   -505   -120    651    663 219.0 -10.5  34210  290.41 0854.46
2009/04/23 13:27:19.7    -340   -532   -130    632    646 212.6 -11.7  34210  290.43 0854.46
2009/04/23 13:27:19.8    -400   -514   -205    652    684 217.9 -17.5  34206  290.36 0854.46
2009/04/23 13:27:19.9    -355   -479   -201    597    629 216.5 -23.7  34208  290.40 0854.46
2009/04/23 13:27:20.0    -290   -554    -19    626    627 207.6  -1.8  34236  290.86 0854.46
2009/04/23 13:27:20.1    -344   -463   -160    577    599 216.6 -15.5  34202  290.29 0854.46
2009/04/23 13:27:20.2    -293   -414   -121    508    523 215.3 -13.4  34206  290.35 0854.46
2009/04/23 13:27:20.3    -315   -352   -149    473    495 221.8 -22.6  34232  290.81 0854.46
2009/04/23 13:27:20.4    -324   -399    -45    515    518 219.1  -5.1  34246  291.03 0854.46
2009/04/23 13:27:20.5    -252   -372   -134    450    470 214.2 -16.6  34230  290.77 0854.47
2009/04/23 13:27:20.6     -71   -405   -128    412    432 190.0 -17.3  34242  290.97 0854.47
2009/04/23 13:27:20.7      23   -458    -92    459    469 177.1 -11.3  34242  290.95 0854.47
2009/04/23 13:27:20.8     -89   -420   -128    430    448 192.1 -21.6  34224  290.65 0854.47
2009/04/23 13:27:20.9    -111   -394   -147    410    435 195.8 -25.0  34218  290.56 0854.47
2009/04/23 13:27:21.0    -120   -360   -110    380    395 198.5 -21.0  34216  290.52 0854.47
2009/04/23 13:27:21.1     -60   -470    -86    474    482 187.3 -10.4  34228  290.73 0854.47
2009/04/23 13:27:21.2    -158   -334    -89    370    381 205.3 -13.6  34212  290.47 0854.47
2009/04/23 13:27:21.3     -91   -328   -104    341    356 195.6 -21.8  34212  290.45 0854.47
2009/04/23 13:27:21.4    -124   -364   -114    385    401 198.9 -21.4  34214  290.49 0854.47
2009/04/23 13:27:21.5    -139   -333   -185    362    406 202.7 -33.6  34226  290.69 0854.47
2009/04/23 13:27:21.6     -22   -406   -139    407    430 183.2 -23.9  34228  290.72 0854.47
2009/04/23 13:27:21.7     175   -435     56    470    474 158.1   6.9  34232  290.78 0854.47
2009/04/23 13:27:21.8     100   -505    135    515    533 168.8  14.7  34234  290.82 0854.47
2009/04/23 13:27:21.9    -110   -493      7    506    507 192.6   0.9  34236  290.85 0854.47
2009/04/23 13:27:22.0    -182   -326    -31    374    376 209.1  -4.8  34230  290.76 0854.47
2009/04/23 13:27:22.1     -61   -490    -30    494    495 187.2  -3.5  34234  290.83 0854.47
2009/04/23 13:27:22.2      92   -490    -96    499    509 169.3 -10.9  34232  290.79 0854.47
2009/04/23 13:27:22.3     -42   -552   -188    554    585 184.4 -23.8  34232  290.78 0854.47
2009/04/23 13:27:22.4      -8   -488   -173    489    518 181.0 -24.6  34228  290.74 0854.47
2009/04/23 13:27:22.5     -79   -466   -179    473    505 189.7 -26.1  34232  290.79 0854.48
2009/04/23 13:27:22.6    -124   -532   -166    547    571 193.2 -21.7  34230  290.77 0854.48
2009/04/23 13:27:22.7    -278   -569    -58    634    637 206.1  -5.3  34224  290.67 0854.48
2009/04/23 13:27:22.8    -303   -533    -22    614    615 209.6  -2.1  34222  290.64 0854.48
2009/04/23 13:27:22.9    -240   -469    -35    527    529 207.1  -3.9  34222  290.63 0854.48
2009/04/23 13:27:23.0    -233   -501   -121    553    567 205.0 -12.4  34214  290.48 0854.48
2009/04/23 13:27:23.1    -190   -352   -171    401    435 208.4 -29.0  34210  290.43 0854.48
2009/04/23 13:27:23.2     -87   -427     54    437    441 191.6   7.1  34210  290.43 0854.48
2009/04/23 13:27:23.3     -90   -460     14    469    470 191.1   1.7  34218  290.56 0854.48
2009/04/23 13:27:23.4    -112   -487     -5    500    501 193.0  -0.6  34222  290.61 0854.48
2009/04/23 13:27:23.5     -75   -396    -62    404    409 190.7  -8.8  34216  290.51 0854.48
2009/04/23 13:27:23.6    -117   -386    -81    404    413 197.0 -11.3  34220  290.60 0854.48
2009/04/23 13:27:23.7    -143   -516   -126    536    551 195.6 -13.3  34222  290.63 0854.48
2009/04/23 13:27:23.8    -126   -496   -135    512    530 194.3 -14.8  34222  290.62 0854.48
2009/04/23 13:27:23.9     -69   -501   -120    506    521 187.9 -13.4  34220  290.59 0854.48
2009/04/23 13:27:24.0     -76   -489    -67    496    501 188.9  -7.7  34226  290.69 0854.48
2009/04/23 13:27:24.1    -179   -591    -60    618    622 196.9  -5.6  34220  290.60 0854.48
2009/04/23 13:27:24.2    -178   -502    -56    533    537 199.6  -6.1  34220  290.58 0854.48
2009/04/23 13:27:24.3    -176   -506   -111    536    548 199.2 -11.8  34220  290.58 0854.48
2009/04/23 13:27:24.4    -127   -489   -171    506    535 194.6 -18.7  34222  290.63 0854.48
2009/04/23 13:27:24.5     -96   -451   -155    462    488 192.0 -18.6  34224  290.66 0854.49
2009/04/23 13:27:24.6     -92   -491   -131    500    517 190.7 -14.7  34222  290.62 0854.49
2009/04/23 13:27:24.7     -53   -486    -62    489    494 186.3  -7.3  34218  290.54 0854.49
2009/04/23 13:27:24.8    -258   -493   -137    557    574 207.6 -13.9  34224  290.65 0854.49
2009/04/23 13:27:24.9    -227   -314   -107    388    402 215.9 -20.0  34220  290.59 0854.49
2009/04/23 13:27:25.0    -208   -465   -112    510    523 204.1 -12.4  34216  290.52 0854.49
2009/04/23 13:27:25.1    -232   -477    -68    531    536 206.0  -7.4  34218  290.55 0854.49
2009/04/23 13:27:25.2    -218   -462    -28    512    513 205.3  -3.2  34220  290.59 0854.49
2009/04/23 13:27:25.3    -278   -362   -134    457    477 217.6 -16.4  34216  290.51 0854.49
2009/04/23 13:27:25.4    -245   -319   -142    403    427 217.6 -24.4  34214  290.50 0854.49
2009/04/23 13:27:25.5    -148   -280   -148    317    349 207.9 -31.4  34218  290.54 0854.49
2009/04/23 13:27:25.6       0   -345   -118    346    366 180.0 -19.0  34220  290.59 0854.49
2009/04/23 13:27:25.7      18   -357    -94    358    371 177.1 -14.8  34220  290.60 0854.49
2009/04/23 13:27:25.8       8   -345    -68    346    353 178.6 -11.1  34220  290.59 0854.49
2009/04/23 13:27:25.9      22   -382    -92    383    394 176.6 -13.6  34218  290.54 0854.49
2009/04/23 13:27:26.0      99   -334   -137    349    374 163.5 -27.1  34218  290.55 0854.49
2009/04/23 13:27:26.1     135   -278   -111    310    330 154.1 -19.7  34216  290.51 0854.49
2009/04/23 13:27:26.2     151   -393    -92    422    433 159.0 -12.4  34212  290.44 0854.49
2009/04/23 13:27:26.3      98   -420    -60    432    437 166.8  -8.0  34214  290.50 0854.49
2009/04/23 13:27:26.4     207   -328    -63    388    394 147.7  -9.3  34218  290.54 0854.49
2009/04/23 13:27:26.5     233   -291    -47    373    376 141.3  -7.2  34218  290.55 0854.50
2009/04/23 13:27:26.6     133   -318    -56    345    350 157.3  -9.3  34210  290.43 0854.50
2009/04/23 13:27:26.7     149   -268     11    307    308 150.8   2.1  34216  290.51 0854.50
2009/04/23 13:27:26.8     193   -231      4    302    303 140.1   0.8  34220  290.58 0854.50
2009/04/23 13:27:26.9     168   -263      1    313    314 147.5   0.2  34214  290.49 0854.50
2009/04/23 13:27:27.0     168   -273    -47    321    325 148.4  -8.4  34218  290.56 0854.50
2009/04/23 13:27:27.1     -32   -208    -71    211    222 188.9 -23.3  34214  290.48 0854.50
2009/04/23 13:27:27.2     -87   -150    -45    174    180 210.1 -14.7  34218  290.57 0854.50
2009/04/23 13:27:27.3     -74   -251    -89    262    277 196.5 -18.9  34222  290.61 0854.50
2009/04/23 13:27:27.4    -122   -256   -101    284    302 205.5 -19.7  34224  290.65 0854.50
2009/04/23 13:27:27.5     -81   -217   -117    232    259 200.7 -33.1  34222  290.61 0854.50
2009/04/23 13:27:27.6     -85   -293   -104    306    324 196.3 -18.8  34220  290.59 0854.50
2009/04/23 13:27:27.7     -80   -241    -98    255    273 198.5 -26.4  34222  290.61 0854.50
2009/04/23 13:27:27.8    -134   -217   -142    256    292 211.6 -35.8  34220  290.58 0854.50
2009/04/23 13:27:27.9    -221   -188   -117    291    313 229.6 -27.6  34224  290.66 0854.50
2009/04/23 13:27:28.0    -214    -99    -69    236    246 245.2 -16.4  34224  290.66 0854.50
2009/04/23 13:27:28.1    -276   -125    -17    304    305 245.6  -3.3  34224  290.65 0854.50
2009/04/23 13:27:28.2    -213    -74     84    226    241 250.7  21.3  34222  290.61 0854.50
2009/04/23 13:27:28.3    -229   -183     46    294    298 231.3   9.0  34226  290.70 0854.50
2009/04/23 13:27:28.4    -182    -63    107    193    220 250.7  31.4  34228  290.72 0854.50
2009/04/23 13:27:28.5      37    -50    132     63    146 143.0  72.9  34244  290.99 0854.51
2009/04/23 13:27:28.6      60    -81     62    102    119 143.5  34.0  34230  290.75 0854.51
2009/04/23 13:27:28.7      56   -118     98    131    163 154.6  40.4  34226  290.70 0854.51
2009/04/23 13:27:28.8      35    -32     84     48     96 133.1  67.2  34226  290.69 0854.51
2009/04/23 13:27:28.9     -92     25      3     96     97 285.5   2.3  34230  290.77 0854.51
2009/04/23 13:27:29.0    -192    -60    -71    202    214 252.7 -24.0  34220  290.60 0854.51
2009/04/23 13:27:29.1    -251     28   -141    253    289 276.6 -35.8  34222  290.61 0854.51
2009/04/23 13:27:29.2    -263    144      3    301    302 298.8   0.7  34220  290.58 0854.51
2009/04/23 13:27:29.3    -247     70    123    257    284 286.0  27.3  34228  290.73 0854.51
2009/04/23 13:27:29.4    -229    156     43    278    282 304.2   8.9  34226  290.68 0854.51
2009/04/23 13:27:29.5    -303    115     56    325    330 290.8   9.9  34230  290.75 0854.51
2009/04/23 13:27:29.6    -324     13     54    325    330 272.4   9.5  34228  290.71 0854.51
2009/04/23 13:27:29.7    -324     -2    -11    325    326 269.6  -2.1  34224  290.66 0854.51
2009/04/23 13:27:29.8    -258    -73   -125    269    296 254.1 -31.4  34226  290.68 0854.51
2009/04/23 13:27:29.9    -306   -215   -155    375    405 234.9 -28.2  34222  290.64 0854.51
2009/04/23 13:27:30.0    -209    -52   -153    216    264 255.8 -43.2  34222  290.61 0854.51
2009/04/23 13:27:30.1    -107   -351     69    368    375 197.0  10.7  34226  290.69 0854.51
2009/04/23 13:27:30.2    -285   -195    -44    346    349 235.5  -7.3  34230  290.77 0854.51
2009/04/23 13:27:30.3    -159   -382    190    414    455 202.6  26.3  34224  290.65 0854.51
2009/04/23 13:27:30.4    -301   -221     37    374    376 233.6   5.7  34242  290.96 0854.51
2009/04/23 13:27:30.5    -282   -220     34    358    360 232.0   5.5  34234  290.84 0854.50
2009/04/23 13:27:30.6       0    -96     73     97    121 180.5  41.2  34228  290.72 0854.50
2009/04/23 13:27:30.7      86   -193    165    212    268 155.9  41.7  34226  290.68 0854.50
2009/04/23 13:27:30.8      40   -277    153    280    319 171.8  30.9  34230  290.75 0854.50
2009/04/23 13:27:30.9       4   -304     62    305    312 179.1  11.5  34228  290.71 0854.50
2009/04/23 13:27:31.0    -182   -385    -30    426    428 205.3  -4.1  34220  290.60 0854.50
2009/04/23 13:27:31.1    -145   -401     21    427    428 200.0   2.9  34228  290.72 0854.50
2009/04/23 13:27:31.2    -105   -291     32    310    312 200.0   6.0  34226  290.70 0854.50
2009/04/23 13:27:31.3     -67   -227     92    237    254 196.5  22.1  34228  290.71 0854.50
2009/04/23 13:27:31.4      30   -227    -55    229    236 172.4 -13.7  34224  290.66 0854.50
2009/04/23 13:27:31.5     -33   -305   -115    307    327 186.3 -25.9  34224  290.66 0854.48
2009/04/23 13:27:31.6     -29   -385   -125    387    407 184.4 -18.0  34232  290.81 0854.48
2009/04/23 13:27:31.7    -108   -270    -45    291    295 201.8  -8.8  34236  290.85 0854.48
2009/04/23 13:27:31.8    -151   -192    -57    245    252 218.1 -13.3  34228  290.73 0854.48
2009/04/23 13:27:31.9    -260   -360    -75    445    452 215.8  -9.6  34230  290.75 0854.48
2009/04/23 13:27:32.0    -112   -414   -112    430    445 195.2 -14.6  34230  290.77 0854.48
2009/04/23 13:27:32.1      24   -514    -35    515    517 177.3  -3.9  34228  290.74 0854.48
2009/04/23 13:27:32.2      74   -468    -18    474    475 171.0  -2.3  34232  290.78 0854.48
2009/04/23 13:27:32.3      50   -495     10    498    499 174.2   1.2  34218  290.56 0854.48
2009/04/23 13:27:32.4      93   -519     14    528    529 169.8   1.6  34232  290.80 0854.48
2009/04/23 13:27:32.5     224   -515     20    562    563 156.5   2.1  34222  290.62 0854.48
2009/04/23 13:27:32.6     107   -403    -83    417    426 165.1 -11.3  34220  290.58 0854.48
2009/04/23 13:27:32.7     220   -521     74    566    571 157.1   7.5  34224  290.66 0854.48
2009/04/23 13:27:32.8     201   -460    140    503    523 156.4  15.6  34222  290.64 0854.48
2009/04/23 13:27:32.9     -23   -517    110    518    530 182.6  12.0  34226  290.70 0854.48
2009/04/23 13:27:33.0     -54   -497    176    501    532 186.2  19.4  34226  290.70 0854.48
2009/04/23 13:27:33.1     179   -477    133    510    528 159.4  14.6  34224  290.67 0854.48
2009/04/23 13:27:33.2     161   -492     58    518    522 161.9   6.5  34232  290.80 0854.48
2009/04/23 13:27:33.3      92   -433     42    443    446 168.0   5.5  34230  290.77 0854.48
2009/04/23 13:27:33.4     116   -339      5    359    360 161.1   0.8  34228  290.71 0854.48
2009/04/23 13:27:33.5      59   -254    104    261    280 166.7  23.0  34228  290.73 0854.48
2009/04/23 13:27:33.6      83   -321    284    332    436 165.4  44.9  34236  290.85 0854.48
2009/04/23 13:27:33.7      49   -387    198    391    438 172.7  29.1  34232  290.78 0854.48
2009/04/23 13:27:33.8      39   -362    161    365    398 173.8  25.2  34224  290.67 0854.48
2009/04/23 13:27:33.9      15   -251    139    252    287 176.5  31.4  34230  290.76 0854.48
2009/04/23 13:27:34.0     -69   -423    226    429    484 189.3  30.0  34228  290.74 0854.48
2009/04/23 13:27:34.1    -137   -463    227    483    533 196.5  27.1  34228  290.71 0854.48
2009/04/23 13:27:34.2     -98   -384    206    397    447 194.4  29.4  34230  290.77 0854.48
2009/04/23 13:27:34.3    -262   -411    190    488    523 212.5  22.4  34228  290.73 0854.48
2009/04/23 13:27:34.4    -249   -300    171    391    426 219.7  25.1  34232  290.78 0854.48
2009/04/23 13:27:34.5    -109   -272    230    294    373 201.8  42.0  34238  290.88 0854.48
2009/04/23 13:27:34.6    -128   -326    161    351    386 201.4  26.5  34234  290.83 0854.48
2009/04/23 13:27:34.7    -126   -345    161    368    401 200.2  25.1  34232  290.81 0854.48
2009/04/23 13:27:34.8     -75   -371    110    379    395 191.5  16.3  34230  290.76 0854.48
2009/04/23 13:27:34.9    -163   -223     53    277    283 216.1  11.0  34230  290.75 0854.48
2009/04/23 13:27:35.0    -211    -21    114    213    241 264.1  30.3  34232  290.79 0854.48
2009/04/23 13:27:35.1    -254     67     79    263    275 284.8  16.8  34240  290.93 0854.48
2009/04/23 13:27:35.2    -266    -52     20    272    273 258.8   4.4  34234  290.82 0854.48
2009/04/23 13:27:35.3    -320     50     87    325    337 279.0  15.0  34234  290.83 0854.48
2009/04/23 13:27:35.4    -266     49    112    271    293 280.6  23.6  34234  290.83 0854.48
2009/04/23 13:27:35.5    -241   -110    105    266    285 245.4  23.0  34226  290.68 0854.48
2009/04/23 13:27:35.6    -304    -44      3    308    309 261.6   0.7  34220  290.58 0854.48
2009/04/23 13:27:35.7    -221   -100    -11    243    244 245.6  -2.6  34210  290.41 0854.48
2009/04/23 13:27:35.8    -126   -200     64    237    246 212.3  15.2  34212  290.46 0854.48
2009/04/23 13:27:35.9     -44   -216    148    221    265 191.5  36.7  34212  290.46 0854.48
2009/04/23 13:27:36.0     -70   -234    -47    245    250 196.7 -10.9  34210  290.42 0854.48
2009/04/23 13:27:36.1    -291   -132      8    320    321 245.6   1.5  34206  290.34 0854.48
2009/04/23 13:27:36.2    -120    -31    -27    125    129 255.4 -12.4  34208  290.40 0854.48
2009/04/23 13:27:36.3     -17   -141    148    143    205 187.1  51.2  34214  290.48 0854.48
2009/04/23 13:27:36.4       4   -217    137    218    257 178.9  35.5  34212  290.46 0854.48
2009/04/23 13:27:36.5     -59   -243    114    251    275 193.8  26.2  34212  290.46 0854.48
2009/04/23 13:27:36.6     -41   -224      2    228    229 190.5   0.7  34212  290.47 0854.48
2009/04/23 13:27:36.7     -40   -377     42    380    383 186.1   6.4  34218  290.55 0854.48
2009/04/23 13:27:36.8     -23   -311     25    312    314 184.4   4.7  34220  290.59 0854.48
2009/04/23 13:27:36.9      54   -192     70    200    213 164.2  19.4  34220  290.60 0854.48
2009/04/23 13:27:37.0      -1    -90     72     91    116 180.9  42.7  34224  290.65 0854.48
2009/04/23 13:27:37.1      30    -38     64     49     80 141.3  59.0  34228  290.72 0854.48
2009/04/23 13:27:37.2       8     -8     66     12     67 133.1  90.0  34230  290.77 0854.48
2009/04/23 13:27:37.3     -22    -26     59     35     68 219.7  65.7  34228  290.74 0854.48
2009/04/23 13:27:37.4       0    -41      7     42     43 180.0  10.1  34230  290.75 0854.48
2009/04/23 13:27:37.5      28    -47      2     55     56 149.3   2.9  34228  290.72 0854.47
2009/04/23 13:27:37.6      22      3     46     23     51  80.3  72.8  34226  290.69 0854.47
2009/04/23 13:27:37.7     -11     39     66     41     77 344.0  64.7  34228  290.74 0854.47
2009/04/23 13:27:37.8    -148     15      7    149    150 276.1   2.8  34228  290.72 0854.47
2009/04/23 13:27:37.9    -180    -22     64    182    194 263.0  19.4  34226  290.70 0854.47
2009/04/23 13:27:38.0    -130    -35    130    135    187 254.9  49.0  34228  290.72 0854.47
2009/04/23 13:27:38.1     -89    -56    172    106    202 237.6  65.1  34224  290.65 0854.47
2009/04/23 13:27:38.2     -21    -21     20     30     36 225.0  35.6  34226  290.70 0854.47
2009/04/23 13:27:38.3    -127     -1   -101    128    163 269.1 -46.8  34224  290.65 0854.47
2009/04/23 13:27:38.4      17    -65     40     68     78 164.9  33.5  34214  290.50 0854.47
2009/04/23 13:27:38.5     -52    -98    133    112    173 208.1  55.8  34216  290.52 0854.47
2009/04/23 13:27:38.6    -120    -72    126    141    189 238.9  46.6  34206  290.36 0854.47
2009/04/23 13:27:38.7     -32     17     44     37     57 298.9  56.3  34196  290.19 0854.47
2009/04/23 13:27:38.8     -73     17     88     76    116 283.3  54.8  34216  290.53 0854.47
2009/04/23 13:27:38.9      68    132     38    149    154  27.2  14.3  34208  290.40 0854.47
2009/04/23 13:27:39.0     144     25    158    147    215  79.9  52.2  34206  290.35 0854.47
2009/04/23 13:27:39.1      68      5    130     69    147  85.7  70.4  34216  290.53 0854.47
2009/04/23 13:27:39.2      66     31    107     74    130  64.8  62.6  34218  290.57 0854.47
2009/04/23 13:27:39.3     169    -25    149    171    226  98.6  45.8  34218  290.55 0854.47
2009/04/23 13:27:39.4     147      0    180    148    233  90.0  56.4  34218  290.57 0854.47
2009/04/23 13:27:39.5      37     13     90     40     98  70.0  74.5  34222  290.62 0854.46
2009/04/23 13:27:39.6      16    -60     95     63    113 164.8  64.1  34226  290.69 0854.46
2009/04/23 13:27:39.7      20    -64    115     68    133 162.2  66.7  34220  290.60 0854.46
2009/04/23 13:27:39.8       4     -5    180      7    180 136.6  90.0  34222  290.64 0854.46
2009/04/23 13:27:39.9      19   -232    236    233    331 175.1  50.2  34204  290.32 0854.46
2009/04/23 13:27:40.0      -4   -277    278    278    393 180.9  50.1  34204  290.32 0854.46
2009/04/23 13:27:40.1     -60   -259    232    266    352 193.1  45.7  34206  290.34 0854.46
2009/04/23 13:27:40.2     129    -12    272    130    301  95.7  72.8  34212  290.46 0854.46
2009/04/23 13:27:40.3     125   -137    204    186    276 137.7  53.0  34210  290.41 0854.46
2009/04/23 13:27:40.4      68   -179    126    192    229 159.1  36.3  34210  290.43 0854.46
2009/04/23 13:27:40.5     -26   -229    194    231    301 186.7  44.3  34202  290.29 0854.46
2009/04/23 13:27:40.6      78   -169    157    187    244 155.3  44.3  34198  290.21 0854.46
2009/04/23 13:27:40.7      86   -190    160    209    263 155.7  41.2  34192  290.12 0854.46
2009/04/23 13:27:40.8     206    -26    226    208    307  97.2  52.2  34200  290.24 0854.46
2009/04/23 13:27:40.9     145     44    189    152    242  73.1  57.3  34198  290.23 0854.46
2009/04/23 13:27:41.0      14     60    165     62    176  13.4  78.6  34204  290.33 0854.46
2009/04/23 13:27:41.1      43     45    168     63    179  44.1  78.6  34202  290.30 0854.46
2009/04/23 13:27:41.2     139    102    220    173    279  53.8  58.2  34190  290.09 0854.46
2009/04/23 13:27:41.3     251    144    335    290    443  60.2  54.8  34192  290.11 0854.46
2009/04/23 13:27:41.4     444   -128    198    463    503 106.1  24.6  34196  290.18 0854.45
2009/04/23 13:27:41.5     339   -109    210    357    414 107.9  33.1  34198  290.20 0854.45
2009/04/23 13:27:41.6     285     -4    150    286    322  90.9  29.8  34202  290.27 0854.45
2009/04/23 13:27:41.7     213    101    152    236    280  64.6  35.6  34226  290.70 0854.45
2009/04/23 13:27:41.8     146    -74    156    164    226 117.1  48.2  34214  290.48 0854.45
2009/04/23 13:27:41.9     259   -131    229    291    370 116.9  42.2  34202  290.28 0854.45
2009/04/23 13:27:42.0      47   -192    285    198    347 166.0  62.0  34200  290.26 0854.45
2009/04/23 13:27:42.1     167   -243    204    295    358 145.5  37.9  34196  290.18 0854.45
2009/04/23 13:27:42.2     265   -144    248    302    390 118.6  43.6  34202  290.27 0854.45
2009/04/23 13:27:42.3     119   -250    268    277    385 154.5  49.1  34200  290.25 0854.45
2009/04/23 13:27:42.4    -112   -232    101    258    277 205.9  22.5  34194  290.15 0854.45
2009/04/23 13:27:42.5       9   -296    187    297    350 178.2  35.3  34196  290.18 0854.45
2009/04/23 13:27:42.6     122   -291    229    316    390 157.3  39.5  34182  289.94 0854.45
2009/04/23 13:27:42.7     246   -254    139    354    380 136.0  22.5  34182  289.96 0854.45
2009/04/23 13:27:42.8     174   -371    189    410    451 154.8  26.5  34162  289.60 0854.45
2009/04/23 13:27:42.9     212   -363    252    421    490 149.7  33.6  34192  290.10 0854.45
2009/04/23 13:27:43.0      62   -470    404    475    623 172.4  44.8  34188  290.03 0854.45
2009/04/23 13:27:43.1       9   -456    354    457    578 178.8  41.7  34194  290.14 0854.45
2009/04/23 13:27:43.2      72   -413    236    420    481 170.1  31.9  34190  290.09 0854.45
2009/04/23 13:27:43.3      49   -447    173    450    482 173.7  22.1  34182  289.95 0854.45
2009/04/23 13:27:43.4     -40   -489    267    491    558 184.7  30.9  34178  289.89 0854.45
2009/04/23 13:27:43.5    -121   -442    239    459    517 195.4  29.6  34182  289.95 0854.45
2009/04/23 13:27:43.6    -221   -471    206    521    560 205.2  22.8  34186  290.02 0854.45
2009/04/23 13:27:43.7    -220   -397    116    455    470 209.0  14.4  34186  290.01 0854.45
2009/04/23 13:27:43.8    -166   -405    157    438    465 202.3  20.6  34184  289.97 0854.45
2009/04/23 13:27:43.9     -93   -401    145    412    436 193.1  20.1  34188  290.04 0854.45
2009/04/23 13:27:44.0     -68   -354     72    361    369 191.0  11.3  34188  290.06 0854.45
2009/04/23 13:27:44.1       0   -316     18    317    318 180.0   3.3  34190  290.09 0854.45
2009/04/23 13:27:44.2      18   -275    138    276    308 176.2  28.5  34184  289.98 0854.45
2009/04/23 13:27:44.3     -17   -231    156    232    279 184.2  37.4  34184  289.98 0854.45
2009/04/23 13:27:44.4     -97   -335    131    349    372 196.3  21.6  34188  290.03 0854.45
2009/04/23 13:27:44.5     -63   -256     38    264    267 194.0   8.2  34192  290.10 0854.45
2009/04/23 13:27:44.6    -145   -262     70    300    309 209.0  13.1  34184  289.98 0854.45
2009/04/23 13:27:44.7    -220   -414     48    469    472 208.0   5.9  34188  290.03 0854.45
2009/04/23 13:27:44.9    -453   -316   -115    553    565 235.1 -11.8  34180  289.90 0854.45
2009/04/23 13:27:45.0    -495   -307     14    583    584 238.2   1.4  34194  290.15 0854.45
2009/04/23 13:27:45.1    -344   -338    119    483    498 225.5  13.9  34198  290.22 0854.45
2009/04/23 13:27:45.2    -215   -344     32    406    408 212.0   4.6  34182  289.95 0854.45
2009/04/23 13:27:45.3    -103    -94    -13    140    141 227.8  -5.6  34186  290.02 0854.45
2009/04/23 13:27:45.4     -75    -16     54     77     94 257.6  38.0  34194  290.14 0854.45
2009/04/23 13:27:45.5     -58   -103    -80    119    143 209.4 -41.4  34192  290.13 0854.46
2009/04/23 13:27:45.6      12   -185     -2    186    187 176.2  -0.7  34190  290.09 0854.46
2009/04/23 13:27:45.7     105   -119     70    160    174 138.6  25.3  34200  290.26 0854.46
2009/04/23 13:27:45.8     117   -134    -35    179    183 138.8 -11.3  34178  289.89 0854.46
2009/04/23 13:27:45.9     -49   -449     48    452    455 186.3   6.1  34186  290.00 0854.46
2009/04/23 13:27:46.0    -174   -383     98    421    433 204.4  13.1  34186  290.00 0854.46
2009/04/23 13:27:46.1    -119   -458   -130    474    492 194.6 -15.4  34162  289.59 0854.46
2009/04/23 13:27:46.2    -140   -350   -159    378    410 201.9 -28.6  34166  289.67 0854.46
2009/04/23 13:27:46.3    -245   -240    -89    344    356 225.6 -14.6  34176  289.84 0854.46
2009/04/23 13:27:46.4    -201   -257    -52    327    332 218.1  -9.1  34192  290.10 0854.46
2009/04/23 13:27:46.5    -327   -208   -147    388    414 237.5 -26.2  34170  289.75 0854.46
2009/04/23 13:27:46.6    -249    -87    -87    264    279 250.7 -18.3  34186  290.00 0854.46
2009/04/23 13:27:46.7    -271     32   -125    273    300 276.8 -30.6  34186  290.00 0854.46
2009/04/23 13:27:46.8    -139     75    -55    158    167 298.4 -23.8  34188  290.04 0854.46
2009/04/23 13:27:46.9     -11     55    -60     57     82 348.4 -55.6  34190  290.08 0854.46
2009/04/23 13:27:47.0      68     46    -26     83     86  55.8 -22.8  34192  290.11 0854.46
2009/04/23 13:27:47.1      60     12     25     62     66  78.5  23.0  34190  290.09 0854.46
2009/04/23 13:27:47.2       2    -34     51     35     61 175.5  61.5  34190  290.09 0854.46
2009/04/23 13:27:47.3     -66    -94     78    116    139 215.2  37.4  34190  290.09 0854.46
2009/04/23 13:27:47.4    -138     14     80    139    160 276.1  32.4  34188  290.06 0854.46
2009/04/23 13:27:47.5      -6     95     66     96    116 356.4  37.6  34182  289.96 0854.46
2009/04/23 13:27:47.6    -358   -228    227    425    481 237.5  30.3  34184  289.97 0854.46
2009/04/23 13:27:47.7    -563   -194    192    596    627 251.0  17.9  34176  289.84 0854.46
2009/04/23 13:27:47.8    -483      0    133    484    503 270.0  15.4  34194  290.15 0854.46
2009/04/23 13:27:47.9    -338    -92    181    351    394 254.7  29.4  34172  289.79 0854.46
2009/04/23 13:27:48.0     -81   -342    129    352    374 193.4  21.0  34178  289.86 0854.46
2009/04/23 13:27:48.1    -103   -361    278    376    467 196.0  40.1  34186  290.00 0854.46
2009/04/23 13:27:48.2     -19   -198    206    199    286 185.6  51.2  34184  289.97 0854.46
2009/04/23 13:27:48.3      88   -213     64    231    240 157.5  15.6  34180  289.92 0854.46
2009/04/23 13:27:48.4      19   -137    142    139    198 172.0  50.4  34188  290.06 0854.46
2009/04/23 13:27:48.5     -64   -101     46    120    128 212.5  22.0  34182  289.96 0854.46
2009/04/23 13:27:48.6     -66    -94     48    116    125 215.2  23.6  34186  290.01 0854.46
2009/04/23 13:27:48.7    -117   -133     27    178    181 221.4   8.8  34184  289.97 0854.46
2009/04/23 13:27:48.8    -134    -80     58    157    167 239.3  21.0  34180  289.92 0854.46
2009/04/23 13:27:48.9    -104    -36     88    111    141 250.9  42.7  34176  289.84 0854.46
2009/04/23 13:27:49.0    -205    -39    107    209    234 259.2  29.3  34180  289.91 0854.46
2009/04/23 13:27:49.1    -326   -186    138    376    400 240.2  21.0  34178  289.89 0854.46
2009/04/23 13:27:49.2    -448     40    195    450    490 275.2  24.9  34182  289.96 0854.46
2009/04/23 13:27:49.3    -543    -53    275    546    611 264.4  28.7  34186  290.02 0854.46
2009/04/23 13:27:49.4    -437    -11    189    438    477 268.5  24.8  34188  290.05 0854.46
2009/04/23 13:27:49.5    -298    -55    104    304    322 259.4  18.9  34184  289.97 0854.47
2009/04/23 13:27:49.6    -292      4    245    293    381 270.8  44.0  34172  289.79 0854.47
2009/04/23 13:27:49.7    -449    183    263    485    551 292.2  30.9  34192  290.11 0854.47
2009/04/23 13:27:49.8    -393    262    184    473    507 303.7  22.4  34198  290.22 0854.47
2009/04/23 13:27:49.9    -378    326    366    500    619 310.8  39.7  34198  290.22 0854.47
2009/04/23 13:27:50.0    -354    359    286    505    580 315.5  32.0  34196  290.18 0854.47
2009/04/23 13:27:50.1    -418    305    363    518    632 306.1  38.5  34198  290.20 0854.47
2009/04/23 13:27:50.2    -325    357    296    483    566 317.7  34.4  34194  290.14 0854.47
2009/04/23 13:27:50.3    -286    140    346    319    470 296.2  52.7  34188  290.05 0854.47
2009/04/23 13:27:50.4     -57    -57    136     82    158 225.0  66.2  34192  290.11 0854.47
2009/04/23 13:27:50.5    -158   -201    200    256    324 218.1  42.1  34184  289.98 0854.47
2009/04/23 13:27:50.6    -203   -199    185    285    339 225.6  35.9  34180  289.90 0854.47
2009/04/23 13:27:50.7    -187   -175    219    257    337 226.8  44.8  34176  289.83 0854.47
2009/04/23 13:27:50.8    -377   -183    235    420    481 244.1  31.7  34174  289.82 0854.47
2009/04/23 13:27:50.9    -396    -30    280    398    486 265.6  38.5  34190  290.09 0854.47
2009/04/23 13:27:51.0    -285     80    336    297    448 285.7  54.2  34186  290.00 0854.47
2009/04/23 13:27:51.1    -321   -272    262    421    495 229.7  34.9  34186  290.01 0854.47
2009/04/23 13:27:51.2    -297   -271    236    403    467 227.6  33.3  34182  289.94 0854.47
2009/04/23 13:27:51.3    -217   -287    264    360    446 217.1  39.8  34190  290.07 0854.47
2009/04/23 13:27:51.4    -111   -313    297    333    446 199.5  46.3  34186  290.02 0854.47
2009/04/23 13:27:51.5    -228   -227    325    322    457 225.1  50.2  34192  290.11 0854.48
2009/04/23 13:27:51.6    -161   -145    258    217    337 228.0  55.8  34184  289.98 0854.48
2009/04/23 13:27:51.7      25   -180    270    182    325 172.0  63.1  34176  289.83 0854.48
2009/04/23 13:27:51.8    -195   -238    437    308    534 219.4  61.5  34178  289.89 0854.48
2009/04/23 13:27:51.9    -267   -141     82    303    314 242.1  15.1  34168  289.71 0854.48
2009/04/23 13:27:52.0    -285   -181    -99    338    353 237.6 -16.4  34170  289.74 0854.48
2009/04/23 13:27:52.1    -276   -176     34    328    330 237.4   6.1  34176  289.84 0854.48
2009/04/23 13:27:52.2    -146    -69    200    162    257 244.8  56.9  34178  289.87 0854.48
2009/04/23 13:27:52.3     -78    -17    161     81    180 257.2  71.4  34188  290.06 0854.48
2009/04/23 13:27:52.4     -53    -33     90     63    109 237.5  61.5  34184  289.99 0854.48
2009/04/23 13:27:52.5     134    -81    158    157    222 121.1  50.1  34178  289.89 0854.49
2009/04/23 13:27:52.6     -23    -58    260     63    267 201.8  86.7  34184  289.97 0854.49
2009/04/23 13:27:52.7     -18    -10    148     21    149 241.1  90.0  34178  289.87 0854.49
2009/04/23 13:27:52.8     -15   -111    167    113    201 188.1  62.7  34176  289.84 0854.49
2009/04/23 13:27:52.9       7    -82    218     83    233 175.1  78.6  34188  290.04 0854.49
2009/04/23 13:27:53.0      14   -114    138    115    179 172.9  56.3  34178  289.89 0854.49
2009/04/23 13:27:53.1      77    -75     61    108    124 134.0  31.9  34178  289.87 0854.49
2009/04/23 13:27:53.2     168    -65     88    181    201 111.1  27.8  34178  289.89 0854.49
2009/04/23 13:27:53.3     153    -66     70    167    181 113.5  23.8  34178  289.89 0854.49
2009/04/23 13:27:53.4     108     32    122    113    166  73.2  52.5  34184  289.99 0854.49
2009/04/23 13:27:53.5       0     51    163     52    171 359.1  81.6  34186  290.02 0854.49
2009/04/23 13:27:53.6     -96     97    173    137    220 315.5  57.7  34186  290.01 0854.49
2009/04/23 13:27:53.7    -105    -36    186    112    217 250.9  66.2  34188  290.04 0854.49
2009/04/23 13:27:53.8    -239    -55    111    246    269 257.0  26.2  34178  289.88 0854.49
2009/04/23 13:27:53.9    -277     65     50    285    290 283.3  10.0  34180  289.90 0854.49
2009/04/23 13:27:54.0    -398     23     20    399    400 273.4   2.9  34182  289.96 0854.49
2009/04/23 13:27:54.1    -347     85    -98    358    372 283.8 -15.4  34178  289.89 0854.49
2009/04/23 13:27:54.2    -387    -12   -143    388    413 268.2 -25.5  34176  289.85 0854.49
2009/04/23 13:27:54.3    -361    230     80    429    437 302.5  10.6  34174  289.82 0854.49
2009/04/23 13:27:54.4    -302    175     67    350    357 300.1  10.8  34178  289.89 0854.49
2009/04/23 13:27:54.5    -244    202    146    317    349 309.6  26.5  34184  289.99 0854.51
2009/04/23 13:27:54.6    -117    115    129    165    209 314.4  42.0  34190  290.09 0854.51
2009/04/23 13:27:54.7     -78    199     57    214    222 338.6  15.0  34190  290.08 0854.51
2009/04/23 13:27:54.8    -182    234    -16    297    298 322.2  -3.2  34200  290.26 0854.51
2009/04/23 13:27:54.9     -92    304    -14    318    319 343.1  -2.6  34202  290.27 0854.51
2009/04/23 13:27:55.0    -256    192     55    321    326 306.9   9.9  34212  290.46 0854.51
2009/04/23 13:27:55.1    -214     44    -52    219    226 281.7 -13.4  34210  290.43 0854.51
2009/04/23 13:27:55.2      34    -53    -62     64     89 147.5 -54.4  34192  290.13 0854.51
2009/04/23 13:27:55.3    -235    170      4    291    292 306.0   0.8  34206  290.36 0854.51
2009/04/23 13:27:55.4    -262   -121   -102    289    307 245.2 -19.6  34200  290.24 0854.51
2009/04/23 13:27:55.5    -354   -311    -68    472    477 228.7  -8.2  34186  290.00 0854.51
2009/04/23 13:27:55.6    -259   -297     36    395    397 221.1   5.3  34182  289.93 0854.51
2009/04/23 13:27:55.7     -80   -275    -11    287    288 196.3  -2.3  34178  289.88 0854.51
2009/04/23 13:27:55.8      46   -225     11    230    231 168.4   2.8  34172  289.79 0854.51
2009/04/23 13:27:55.9     -15   -256    127    257    286 183.5  28.2  34182  289.93 0854.51
2009/04/23 13:27:56.0     178   -422    209    459    504 157.1  26.2  34176  289.83 0854.51
2009/04/23 13:27:56.1     105   -422    -31    435    437 166.0  -4.1  34178  289.87 0854.51
2009/04/23 13:27:56.2     273   -237    320    362    483 130.9  46.1  34170  289.73 0854.51
2009/04/23 13:27:56.3     184   -422     22    461    462 156.4   2.8  34176  289.85 0854.51
2009/04/23 13:27:56.4     141   -539    120    558    571 165.3  12.2  34174  289.80 0854.51
2009/04/23 13:27:56.5      90   -580    -17    588    589 171.1  -1.7  34172  289.78 0854.52
2009/04/23 13:27:56.6      74   -478   -110    484    497 171.1 -12.9  34174  289.81 0854.52
2009/04/23 13:27:56.7     271   -334   -100    431    443 141.0 -13.1  34174  289.80 0854.52
2009/04/23 13:27:56.8     243   -293   -105    381    396 140.4 -15.4  34178  289.89 0854.52
2009/04/23 13:27:56.9     209   -341    -19    401    402 148.5  -2.8  34182  289.93 0854.52
2009/04/23 13:27:57.0     110   -371     36    388    390 163.5   5.4  34178  289.86 0854.52
2009/04/23 13:27:57.1      -7   -402    118    403    421 181.1  16.4  34178  289.88 0854.52
2009/04/23 13:27:57.2     102   -266    102    285    302 159.0  20.4  34180  289.92 0854.52
2009/04/23 13:27:57.3      59   -238    142    246    284 166.0  32.4  34178  289.86 0854.52
2009/04/23 13:27:57.4      99    -85    218    131    254 130.9  66.4  34180  289.91 0854.52
2009/04/23 13:27:57.5      -8    -26    216     28    217 198.7  90.0  34188  290.04 0854.52
2009/04/23 13:27:57.6      70    -24    263     75    273 109.1  83.8  34184  289.99 0854.52
2009/04/23 13:27:57.7      46    -40    195     62    204 131.3  81.8  34196  290.19 0854.52
2009/04/23 13:27:57.8     112   -224    189    251    314 153.5  40.9  34188  290.05 0854.52
2009/04/23 13:27:57.9     131   -265    195    296    354 153.7  36.5  34190  290.08 0854.52
2009/04/23 13:27:58.0     321   -343     37    470    472 136.9   4.6  34188  290.03 0854.52
2009/04/23 13:27:58.1     306   -296     66    426    432 134.0   8.8  34176  289.83 0854.52
2009/04/23 13:27:58.2     336   -243     -8    415    416 125.9  -1.2  34186  290.00 0854.52
2009/04/23 13:27:58.3     469   -129    -17    487    488 105.4  -2.1  34186  290.01 0854.52
2009/04/23 13:27:58.4     555    -69    196    560    594  97.1  19.3  34184  289.97 0854.52
2009/04/23 13:27:58.5      24   -413    317    414    521 176.6  41.4  34188  290.03 0854.52
2009/04/23 13:27:58.6      13   -398    308    399    504 178.0  41.5  34188  290.03 0854.52
2009/04/23 13:27:58.7     -74   -245    369    257    449 196.9  61.8  34188  290.03 0854.52
2009/04/23 13:27:58.8     -40   -122     82    129    152 198.3  35.5  34194  290.14 0854.52
2009/04/23 13:27:58.9      88     29     96     93    133  71.4  50.2  34192  290.11 0854.52
2009/04/23 13:27:59.0     128    111     63    170    181  49.1  21.3  34186  290.02 0854.52
2009/04/23 13:27:59.1     300    -40    220    303    374  97.7  39.5  34188  290.06 0854.52
2009/04/23 13:27:59.2     449    -14    235    450    507  91.8  29.8  34206  290.34 0854.52
2009/04/23 13:27:59.3     347    -25    198    348    400  94.3  32.3  34192  290.10 0854.52
2009/04/23 13:27:59.4     360     62    350    366    506  80.2  48.6  34198  290.20 0854.52
2009/04/23 13:27:59.5     249     42    294    253    387  80.3  55.0  34198  290.20 0854.52
2009/04/23 13:27:59.6     103     32    261    108    282  72.7  76.6  34202  290.27 0854.52
2009/04/23 13:27:59.7     -19     19     99     27    102 314.9  84.8  34200  290.25 0854.52
2009/04/23 13:27:59.8     160    -80      3    180    181 116.6   1.2  34200  290.26 0854.52
2009/04/23 13:27:59.9     152     45     96    159    185  73.2  34.2  34204  290.33 0854.52
2009/04/23 13:28:00.0       5     43    109     44    117   7.1  77.1  34206  290.35 0854.52
2009/04/23 13:28:00.1      45     10    156     47    162  76.7  82.8  34208  290.40 0854.52
2009/04/23 13:28:00.2     169     49    230    177    290  73.6  58.5  34190  290.09 0854.52
2009/04/23 13:28:00.3     209    174     99    273    291  50.2  19.9  34188  290.03 0854.52
2009/04/23 13:28:00.4      42    -51    218     67    228 140.4  82.5  34194  290.16 0854.52
2009/04/23 13:28:00.5    -197   -188     74    273    283 226.2  15.2  34200  290.24 0854.54
2009/04/23 13:28:00.6    -121   -204    -17    238    239 210.8  -4.1  34194  290.14 0854.54
2009/04/23 13:28:00.7     -39   -146     -3    152    153 195.1  -1.3  34194  290.16 0854.54
2009/04/23 13:28:00.8      49    -60    -67     78    102 140.3 -49.8  34192  290.11 0854.54
2009/04/23 13:28:00.9     198     80    -95    214    234  67.8 -29.7  34198  290.23 0854.54
2009/04/23 13:28:01.0     282    188     51    339    343  56.3   8.7  34204  290.32 0854.54
2009/04/23 13:28:01.1     267     41    102    271    289  81.2  21.3  34208  290.39 0854.54
2009/04/23 13:28:01.2     298     95    117    313    334  72.2  21.5  34208  290.37 0854.54
2009/04/23 13:28:01.3     343    128     86    367    378  69.5  13.3  34200  290.25 0854.54
2009/04/23 13:28:01.4     356     56    211    361    418  81.0  33.1  34196  290.18 0854.54
2009/04/23 13:28:01.5     237     86    156    253    297  70.1  34.5  34200  290.26 0854.54
2009/04/23 13:28:01.6     320     42     57    323    329  82.4  10.0  34196  290.19 0854.54
2009/04/23 13:28:01.7     349     66     78    356    365  79.2  12.4  34202  290.28 0854.54
2009/04/23 13:28:01.8     445    176     74    479    485  68.3   8.9  34256  291.19 0854.54
2009/04/23 13:28:01.9     526    259    136    587    603  63.8  13.1  34242  290.98 0854.54
2009/04/23 13:28:02.0     479    142    -40    500    502  73.5  -4.6  34212  290.47 0854.54
2009/04/23 13:28:02.1     512     18     43    513    516  87.9   4.9  34194  290.15 0854.54
2009/04/23 13:28:02.2     399     41     85    402    412  84.1  12.0  34208  290.38 0854.54
2009/04/23 13:28:02.3     356    169    141    395    419  64.6  20.4  34230  290.77 0854.54
2009/04/23 13:28:02.4     235    144      3    276    277  58.5   0.8  34204  290.32 0854.54
2009/04/23 13:28:02.5     128    110     70    169    182  49.3  23.4  34210  290.43 0854.55
2009/04/23 13:28:02.6     -40     38     82     56     99 314.0  62.1  34216  290.53 0854.55
2009/04/23 13:28:02.7       7    -91    -47     92    103 175.5 -33.1  34212  290.45 0854.55
2009/04/23 13:28:02.8     -58    -34    -91     68    113 239.3 -64.4  34206  290.36 0854.55
2009/04/23 13:28:02.9    -159    -50   -122    167    206 252.3 -44.3  34200  290.26 0854.55
2009/04/23 13:28:03.0     -61    140    -19    153    155 336.4  -7.3  34206  290.36 0854.55
2009/04/23 13:28:03.1    -142    161     56    215    223 318.6  14.7  34208  290.40 0854.55
2009/04/23 13:28:03.2      -4    180     35    181    185 358.6  11.0  34204  290.31 0854.55
2009/04/23 13:28:03.3      90     90     21    128    130  44.9   9.5  34206  290.36 0854.55
2009/04/23 13:28:03.4      85     17     63     87    107  78.5  39.7  34204  290.31 0854.55
2009/04/23 13:28:03.5      59   -134      1    147    148 156.3   0.7  34196  290.19 0854.55
2009/04/23 13:28:03.6      53    -71    -31     89     95 143.0 -19.1  34196  290.18 0854.55
2009/04/23 13:28:03.7     -98    -86    -39    131    137 228.6 -17.0  34196  290.18 0854.55
2009/04/23 13:28:03.8    -144    -25    -49    147    154 259.9 -23.6  34210  290.41 0854.55
2009/04/23 13:28:03.9     -94     27    -67     98    118 286.4 -42.0  34210  290.43 0854.55
2009/04/23 13:28:04.0     -90     29    -73     95    119 288.2 -46.1  34222  290.62 0854.55
2009/04/23 13:28:04.1     -59     30    -71     67     97 297.1 -55.6  34218  290.55 0854.55
2009/04/23 13:28:04.2     -35    132    -43    137    144 344.8 -17.5  34214  290.48 0854.55
2009/04/23 13:28:04.3     -91    270    -62    286    293 341.3 -12.4  34214  290.48 0854.55
2009/04/23 13:28:04.4    -124    339     11    362    363 339.8   1.9  34208  290.38 0854.55
2009/04/23 13:28:04.5     -96    205    -77    227    239 334.8 -23.8  34214  290.49 0854.55
2009/04/23 13:28:04.6    -255    354     77    437    444 324.2  10.0  34204  290.31 0854.55
2009/04/23 13:28:04.7    -200    340    -79    395    403 329.5 -11.3  34214  290.49 0854.55
2009/04/23 13:28:04.8    -117      2    -95    118    151 271.3 -48.1  34212  290.45 0854.55
2009/04/23 13:28:04.9    -228   -314   -140    389    413 216.0 -25.1  34204  290.33 0854.55
2009/04/23 13:28:05.0    -235   -294    -81    377    386 218.6 -12.2  34200  290.25 0854.55
2009/04/23 13:28:05.1     -72   -158   -145    174    226 204.5 -48.2  34202  290.28 0854.55
2009/04/23 13:28:05.2    -240   -132    142    275    309 241.1  29.3  34202  290.27 0854.55
2009/04/23 13:28:05.3    -311    -57     91    317    330 259.6  16.0  34208  290.37 0854.55
2009/04/23 13:28:05.4    -259    -45    199    263    329 260.1  41.1  34214  290.49 0854.55
2009/04/23 13:28:05.5    -184     40    126    189    227 282.4  36.7  34218  290.55 0854.55
2009/04/23 13:28:05.6     -40     25     76     48     89 302.5  64.7  34222  290.62 0854.55
2009/04/23 13:28:05.7      52     10     63     54     82  78.6  54.8  34218  290.55 0854.55
2009/04/23 13:28:05.8     131    193     87    234    249  34.3  21.0  34204  290.32 0854.55
2009/04/23 13:28:05.9     -54    295     56    300    306 349.5  10.6  34202  290.29 0854.55
2009/04/23 13:28:06.0      80    255    139    268    301  17.6  29.5  34206  290.34 0854.55
2009/04/23 13:28:06.1     -25    286     14    288    289 354.9   2.9  34204  290.32 0854.55
2009/04/23 13:28:06.2    -123    241     53    271    277 332.8  11.1  34198  290.20 0854.55
2009/04/23 13:28:06.3    -277    221    -75    355    363 308.5 -12.0  34198  290.23 0854.55
2009/04/23 13:28:06.4    -288    225   -124    366    387 308.0 -18.8  34192  290.13 0854.55
2009/04/23 13:28:06.5    -502    371   -114    625    636 306.5 -10.4  34188  290.03 0854.54
2009/04/23 13:28:06.6    -359    316    -73    479    485 311.4  -8.7  34186  290.00 0854.54
2009/04/23 13:28:06.7    -387    135   -163    411    442 289.3 -27.4  34200  290.26 0854.54
2009/04/23 13:28:06.8    -482    118   -247    497    554 283.8 -32.8  34198  290.23 0854.54
2009/04/23 13:28:06.9    -536     69   -239    541    591 277.4 -29.7  34198  290.20 0854.54
2009/04/23 13:28:07.0    -493     22   -146    494    516 272.6 -16.5  34198  290.20 0854.54
2009/04/23 13:28:07.1    -372    -75    -41    380    383 258.5  -6.3  34198  290.21 0854.54
2009/04/23 13:28:07.2    -379    -85   -124    389    408 257.3 -22.9  34192  290.11 0854.54
2009/04/23 13:28:07.3    -350     26   -210    351    409 274.4 -38.2  34192  290.10 0854.54
2009/04/23 13:28:07.4    -311     77   -243    321    402 284.1 -45.5  34198  290.20 0854.54
2009/04/23 13:28:07.5    -281     43   -186    285    340 278.8 -40.4  34190  290.09 0854.54
2009/04/23 13:28:07.6    -258     29   -255    260    364 276.6 -54.1  34192  290.10 0854.54
2009/04/23 13:28:07.7    -121    -32   -184    126    223 255.0 -67.0  34192  290.11 0854.54
2009/04/23 13:28:07.8     -52   -169   -137    177    223 197.2 -46.1  34194  290.16 0854.54
2009/04/23 13:28:07.9     117   -216   -159    246    292 151.5 -40.0  34194  290.14 0854.54
2009/04/23 13:28:08.0     -88   -335   -111    347    364 194.8 -22.9  34194  290.15 0854.54
2009/04/23 13:28:08.1    -194   -291   -111    350    368 213.7 -17.6  34202  290.28 0854.54
2009/04/23 13:28:08.2    -259   -322   -163    414    444 218.8 -27.1  34196  290.19 0854.54
2009/04/23 13:28:08.3    -112   -408   -262    424    498 195.4 -39.3  34202  290.29 0854.54
2009/04/23 13:28:08.4     116   -328   -254    349    431 160.5 -44.1  34214  290.50 0854.52
2009/04/23 13:28:08.5     147   -273   -242    311    394 151.7 -46.3  34208  290.37 0854.52
2009/04/23 13:28:08.6      85   -235   -280    251    376 160.0 -58.0  34218  290.54 0854.52
2009/04/23 13:28:08.7      41   -139   -233    146    274 163.5 -69.3  34224  290.66 0854.52
2009/04/23 13:28:08.8     144   -259   -122    297    321 150.8 -28.0  34208  290.39 0854.52
2009/04/23 13:28:08.9     236   -251   -112    345    362 136.8 -23.3  34208  290.40 0854.52
2009/04/23 13:28:09.0      73   -391   -113    398    413 169.3 -20.5  34216  290.51 0854.52
2009/04/23 13:28:09.1     211   -374    -28    430    431 150.5  -3.8  34206  290.36 0854.52
2009/04/23 13:28:09.2     154   -380    -58    411    416 157.9  -8.1  34202  290.29 0854.52
2009/04/23 13:28:09.3     118   -424     62    441    446 164.4   8.0  34224  290.65 0854.52
2009/04/23 13:28:09.4     164   -431   -189    462    499 159.1 -28.0  34220  290.59 0854.52
2009/04/23 13:28:09.5     245   -342   -156    421    448 144.4 -25.5  34216  290.51 0854.52
2009/04/23 13:28:09.6     313   -229   -122    388    407 126.2 -17.5  34220  290.60 0854.52
2009/04/23 13:28:09.7     388    -57     77    393    401  98.4  11.1  34232  290.81 0854.52
2009/04/23 13:28:09.8     405      0    103    406    420  90.0  14.3  34228  290.72 0854.52
2009/04/23 13:28:09.9     432     20    250    433    499  87.3  32.6  34228  290.73 0854.52
2009/04/23 13:28:10.0     474   -172    -63    505    510 110.0  -7.2  34228  290.74 0854.52
2009/04/23 13:28:10.1     426   -114     -8    442    443 105.1  -1.2  34226  290.68 0854.52
2009/04/23 13:28:10.2     483   -266   -153    552    573 118.9 -15.5  34228  290.72 0854.52
2009/04/23 13:28:10.3     587    -32    175    588    614  93.2  16.6  34196  290.17 0854.52
2009/04/23 13:28:10.4     626    110    -43    636    638  80.0  -3.9  34192  290.13 0854.53
2009/04/23 13:28:10.5     508     42   -112    510    523  85.2 -12.4  34206  290.34 0854.53
2009/04/23 13:28:10.6     526     56    -73    530    535  83.9  -7.9  34210  290.43 0854.53
2009/04/23 13:28:10.7     703    128     46    715    717  79.6   3.7  34208  290.39 0854.53
2009/04/23 13:28:10.8     698    251    -24    742    743  70.2  -1.9  34208  290.38 0854.53
2009/04/23 13:28:10.9     665    172     94    687    694  75.5   7.8  34200  290.24 0854.53
2009/04/23 13:28:11.0     562    101    115    572    584  79.8  11.4  34204  290.31 0854.53
2009/04/23 13:28:11.1     595    246    123    645    657  67.5  10.8  34228  290.72 0854.53
2009/04/23 13:28:11.2     605    298    129    675    688  63.7  10.8  34310  292.11 0854.53
2009/04/23 13:28:11.3     548    301    153    626    645  61.2  13.8  34318  292.27 0854.53
2009/04/23 13:28:11.4     519    302    172    601    626  59.8  16.0  34288  291.76 0854.53
2009/04/23 13:28:11.5     455    246    114    518    531  61.6  12.5  34282  291.64 0854.53
2009/04/23 13:28:11.6     570    279    -60    635    638  63.9  -5.5  34220  290.60 0854.53
2009/04/23 13:28:11.8     487    246   -128    546    561  63.1 -13.3  34208  290.38 0854.53
2009/04/23 13:28:11.9     496    283   -116    572    584  60.3 -11.5  34226  290.70 0854.53
2009/04/23 13:28:12.0     368    332    -33    496    498  47.9  -3.9  34222  290.61 0854.53
2009/04/23 13:28:12.1     351    380     44    518    521  42.8   4.9  34238  290.91 0854.53
2009/04/23 13:28:12.2     305    221    230    377    441  54.0  34.2  34232  290.78 0854.53
2009/04/23 13:28:12.3     330    171    260    372    453  62.6  38.5  34216  290.51 0854.53
2009/04/23 13:28:12.4     307    118    214    329    392  69.0  36.2  34208  290.37 0854.53
2009/04/23 13:28:12.5     104     85    257    135    290  50.5  70.4  34222  290.63 0854.55
2009/04/23 13:28:12.6      88     29    264     93    279  71.4  80.2  34222  290.61 0854.55
2009/04/23 13:28:12.7     180     72    351    194    401  68.2  68.8  34222  290.64 0854.55
2009/04/23 13:28:12.8      59   -134    298    147    332 156.3  72.0  34234  290.82 0854.55
2009/04/23 13:28:12.9      49   -235    380    241    449 168.2  64.7  34212  290.47 0854.55
2009/04/23 13:28:13.0     -55   -134    329    145    359 202.3  74.9  34218  290.54 0854.55
2009/04/23 13:28:13.1      59   -148    213    160    266 158.2  59.4  34226  290.68 0854.55
2009/04/23 13:28:13.2      26   -186    272    188    330 172.0  62.2  34232  290.80 0854.55
2009/04/23 13:28:13.3      13   -306    269    307    408 177.4  45.8  34226  290.69 0854.55
2009/04/23 13:28:13.4      50   -210    243    216    325 166.6  54.0  34228  290.73 0854.55
2009/04/23 13:28:13.5    -119   -123      4    172    173 224.1   1.6  34236  290.86 0854.56
2009/04/23 13:28:13.6     -92   -334   -100    347    362 195.5 -16.2  34218  290.55 0854.56
2009/04/23 13:28:13.7    -192   -325    199    378    427 210.7  30.1  34254  291.16 0854.56
2009/04/23 13:28:13.8    -125   -344    -42    367    370 200.1  -6.6  34244  291.01 0854.56
2009/04/23 13:28:13.9    -215   -251    -29    331    333 220.5  -5.1  34250  291.11 0854.56
2009/04/23 13:28:14.0    -216   -376     62    434    439 209.9   8.2  34258  291.24 0854.56
2009/04/23 13:28:14.1    -223   -328     40    397    400 214.2   5.8  34258  291.23 0854.56
2009/04/23 13:28:14.2    -324   -313    -40    451    453 226.0  -5.2  34254  291.18 0854.56
2009/04/23 13:28:14.3    -335   -331    -84    472    480 225.4 -10.1  34258  291.22 0854.56
2009/04/23 13:28:14.4    -320   -292   -147    434    459 227.7 -18.7  34256  291.21 0854.56
2009/04/23 13:28:14.5    -302   -301   -139    427    450 225.1 -18.1  34266  291.38 0854.56
2009/04/23 13:28:14.6    -425   -314   -145    529    549 233.5 -15.4  34252  291.13 0854.56
2009/04/23 13:28:14.7    -419   -298   -110    515    527 234.5 -12.2  34244  290.99 0854.56
2009/04/23 13:28:14.8    -431   -259    -91    504    513 239.0 -10.3  34252  291.13 0854.56
2009/04/23 13:28:14.9    -441   -467   -161    643    663 223.3 -14.1  34192  290.13 0854.56
2009/04/23 13:28:15.0    -423   -539   -166    686    706 218.1 -13.7  34166  289.69 0854.56
2009/04/23 13:28:15.1    -399   -539   -104    671    679 216.5  -8.8  34170  289.75 0854.56
2009/04/23 13:28:15.2    -423   -469   -192    632    661 222.0 -17.0  34158  289.53 0854.56
2009/04/23 13:28:15.3    -242   -446   -136    508    526 208.5 -15.0  34170  289.74 0854.56
2009/04/23 13:28:15.4    -218   -461     74    510    516 205.3   8.3  34198  290.20 0854.56
2009/04/23 13:28:15.5    -314   -530   -113    617    628 210.7 -10.4  34170  289.74 0854.54
2009/04/23 13:28:15.6    -314   -498   -139    589    606 212.2 -13.3  34164  289.64 0854.54
2009/04/23 13:28:15.7    -291   -467   -164    551    574 211.9 -21.5  34170  289.74 0854.54
2009/04/23 13:28:15.8    -300   -586    -76    659    664 207.1  -6.6  34200  290.24 0854.54
2009/04/23 13:28:15.9    -261   -358      9    444    445 216.1   1.2  34174  289.80 0854.54
2009/04/23 13:28:16.0    -411   -298   -157    508    532 234.0 -17.2  34188  290.06 0854.54
2009/04/23 13:28:16.1    -163   -280    -82    325    336 210.3 -14.3  34196  290.18 0854.54
2009/04/23 13:28:16.2    -235   -370    -55    439    443 212.5  -7.2  34198  290.22 0854.54
2009/04/23 13:28:16.3       6   -384    -21    385    386 179.0  -3.1  34206  290.35 0854.54
2009/04/23 13:28:16.4       9   -369      4    370    371 178.5   0.7  34206  290.35 0854.54
2009/04/23 13:28:16.5    -125   -426   -140    444    465 196.4 -22.8  34172  289.77 0854.54
2009/04/23 13:28:16.6    -300   -435   -209    529    568 214.6 -27.3  34170  289.75 0854.54
2009/04/23 13:28:16.7    -261   -518   -172    581    605 206.8 -21.4  34174  289.80 0854.54
2009/04/23 13:28:16.8    -258   -504   -201    567    602 207.1 -19.6  34162  289.59 0854.54
2009/04/23 13:28:16.9    -183   -334   -137    381    404 208.8 -25.0  34172  289.76 0854.54
2009/04/23 13:28:17.0    -204   -351    -17    407    408 210.2  -2.5  34202  290.29 0854.54
2009/04/23 13:28:17.1    -186   -407     38    448    450 204.6   4.9  34206  290.34 0854.54
2009/04/23 13:28:17.2    -273   -414     -7    497    498 213.4  -0.9  34188  290.06 0854.54
2009/04/23 13:28:17.3    -246   -316    -43    401    404 217.9  -6.2  34198  290.21 0854.54
2009/04/23 13:28:17.4    -203   -319    -48    379    383 212.5  -7.2  34196  290.18 0854.54
2009/04/23 13:28:17.5    -147   -396     -1    423    424 200.4  -0.3  34204  290.33 0854.55
2009/04/23 13:28:17.6    -141   -337     -7    366    367 202.7  -1.2  34208  290.37 0854.55
2009/04/23 13:28:17.7    -261   -197     31    328    330 232.9   5.5  34204  290.33 0854.55
2009/04/23 13:28:17.8    -125   -285    -90    312    324 203.7 -21.0  34196  290.19 0854.55
2009/04/23 13:28:17.9    -108   -324   -118    342    362 198.5 -19.1  34190  290.08 0854.55
2009/04/23 13:28:18.0      -2   -345     10    346    347 180.5   1.8  34194  290.16 0854.55
2009/04/23 13:28:18.1     -30   -365    -25    367    368 184.8  -3.9  34198  290.23 0854.55
2009/04/23 13:28:18.2     -76   -328     63    337    343 193.1  10.6  34192  290.13 0854.55
2009/04/23 13:28:18.3     -31   -350     93    352    365 185.1  14.9  34194  290.16 0854.55
2009/04/23 13:28:18.4     -82   -345     71    355    363 193.4  11.4  34198  290.20 0854.55
2009/04/23 13:28:18.5     -81   -328    -10    338    339 193.9  -1.7  34194  290.16 0854.55
2009/04/23 13:28:18.6     -47   -349      4    353    354 187.7   0.7  34198  290.21 0854.55
2009/04/23 13:28:18.7     -16   -369    -10    370    371 182.6  -1.6  34198  290.20 0854.55
2009/04/23 13:28:18.8      44   -373    -14    376    377 173.1  -2.2  34194  290.16 0854.55
2009/04/23 13:28:18.9      64   -356     45    362    365 169.7   7.1  34194  290.16 0854.55
2009/04/23 13:28:19.0     -34   -382    -15    384    385 185.2  -2.3  34194  290.15 0854.55
2009/04/23 13:28:19.1      54   -406     58    410    415 172.3   8.1  34194  290.14 0854.55
2009/04/23 13:28:19.2     131   -426     86    446    455 162.8  11.0  34186  290.02 0854.55
2009/04/23 13:28:19.3      53   -409    112    413    429 172.6  15.2  34196  290.17 0854.55
2009/04/23 13:28:19.4     -13   -405     67    406    412 181.9   9.5  34196  290.19 0854.55
2009/04/23 13:28:19.5      60   -337    124    343    364 169.8  20.7  34198  290.20 0854.53
2009/04/23 13:28:19.6     119   -383      5    402    403 162.7   0.8  34192  290.10 0854.53
2009/04/23 13:28:19.7     -16   -293     90    294    308 183.1  17.1  34182  289.95 0854.53
2009/04/23 13:28:19.8      50   -211    239    217    322 166.6  53.2  34194  290.14 0854.53
2009/04/23 13:28:19.9     120   -252    231    280    362 154.5  43.7  34188  290.06 0854.53
2009/04/23 13:28:20.0     166   -351    224    389    448 154.6  32.6  34182  289.95 0854.53
2009/04/23 13:28:20.1     134   -263    229    296    374 153.0  41.7  34188  290.03 0854.53
2009/04/23 13:28:20.2     120   -357    252    377    453 161.3  37.0  34188  290.04 0854.53
2009/04/23 13:28:20.3      65   -413    198    419    463 171.0  27.1  34186  290.02 0854.53
2009/04/23 13:28:20.4      88   -419    160    429    457 168.1  21.4  34190  290.07 0854.53
2009/04/23 13:28:20.5     147   -393    185    420    458 159.4  25.2  34186  290.00 0854.53
2009/04/23 13:28:20.6     177   -321    202    367    418 151.1  31.4  34190  290.07 0854.53
2009/04/23 13:28:20.7     230   -386    179    450    484 149.3  22.8  34188  290.05 0854.53
2009/04/23 13:28:20.8     381   -396    177    550    578 136.1  17.9  34186  290.02 0854.53
2009/04/23 13:28:20.9     368   -285    177    466    498 127.8  21.8  34186  290.00 0854.53
2009/04/23 13:28:21.0     345   -265     88    436    445 127.5  11.5  34188  290.04 0854.53
2009/04/23 13:28:21.1     222   -275    229    354    421 141.0  35.7  34186  290.01 0854.53
2009/04/23 13:28:21.2     159   -250    243    297    383 147.5  43.7  34186  290.01 0854.53
2009/04/23 13:28:21.3      63   -142    230    156    277 155.9  62.6  34190  290.07 0854.53
2009/04/23 13:28:21.4     102   -200    185    225    291 152.9  43.7  34192  290.12 0854.53
2009/04/23 13:28:21.5     257   -116    164    283    327 114.4  32.8  34192  290.12 0854.47
2009/04/23 13:28:21.6     160   -323    283    361    458 153.6  42.1  34198  290.22 0854.47
2009/04/23 13:28:21.7      61   -277    238    284    370 167.5  44.2  34192  290.11 0854.47
2009/04/23 13:28:21.8      88   -112    119    143    186 141.7  43.8  34196  290.19 0854.47
2009/04/23 13:28:21.9     216   -259    172    338    379 140.2  29.2  34192  290.10 0854.47
2009/04/23 13:28:22.0     132   -268    157    299    337 153.7  30.1  34192  290.10 0854.47
2009/04/23 13:28:22.1      93   -283    128    299    325 161.7  24.6  34190  290.07 0854.47
2009/04/23 13:28:22.2      94   -263    118    280    303 160.2  24.3  34194  290.15 0854.47
2009/04/23 13:28:22.3     103   -171     91    200    219 148.8  26.2  34190  290.08 0854.47
2009/04/23 13:28:22.4     119   -126     41    174    179 136.8  13.5  34192  290.11 0854.47
2009/04/23 13:28:22.5      48   -172    -55    179    187 164.4 -22.3  34200  290.25 0854.47
2009/04/23 13:28:22.6      51   -190    -60    197    205 164.9 -21.8  34196  290.18 0854.47
2009/04/23 13:28:22.7      38   -148    -64    153    165 165.3 -28.2  34196  290.19 0854.47
2009/04/23 13:28:22.8      60    -49    -44     78     89 129.6 -36.8  34200  290.26 0854.47
2009/04/23 13:28:22.9     -27    -17    -39     33     51 237.6 -59.8  34202  290.28 0854.47
2009/04/23 13:28:23.0      22     44    -40     50     64  27.2 -48.1  34200  290.26 0854.47
2009/04/23 13:28:23.1      48     85    -69     98    119  29.4 -43.0  34200  290.25 0854.47
2009/04/23 13:28:23.2       0     46    -24     47     52   0.0 -32.6  34200  290.25 0854.47
2009/04/23 13:28:23.3     -27     39    -14     48     50 325.7 -21.7  34200  290.26 0854.47
2009/04/23 13:28:23.4     -17     -7    -17     19     25 248.3 -52.3  34198  290.23 0854.47
2009/04/23 13:28:23.5     -12      4    -32     13     34 288.2 -83.6  34198  290.23 0854.48
2009/04/23 13:28:23.6     -72    -23     -9     76     77 251.8  -7.3  34198  290.23 0854.48
2009/04/23 13:28:23.7     -11    -10    -17     16     23 226.7 -54.5  34200  290.25 0854.48
2009/04/23 13:28:23.8      36    -24     40     44     59 123.3  47.9  34198  290.21 0854.48
2009/04/23 13:28:23.9      61    -22     89     65    110 110.0  60.5  34198  290.23 0854.48
2009/04/23 13:28:24.0       3    -43    108     44    116 175.5  77.1  34204  290.31 0854.48
2009/04/23 13:28:24.1       0    -74      3     75     76 180.0   2.9  34198  290.21 0854.48
2009/04/23 13:28:24.2      67    -10     64     68     93  98.8  49.0  34202  290.28 0854.48
2009/04/23 13:28:24.3      26     26     93     37    100  45.0  77.1  34204  290.31 0854.48
2009/04/23 13:28:24.4     -18     56     76     59     96 341.7  57.9  34206  290.36 0854.48
2009/04/23 13:28:24.5      72     35    112     81    138  63.8  60.6  34210  290.43 0854.48
2009/04/23 13:28:24.6      30     19    104     36    110  57.5  81.2  34212  290.45 0854.48
2009/04/23 13:28:24.7      53    -25     69     59     90 115.2  55.4  34210  290.41 0854.48
2009/04/23 13:28:24.8      34     11     94     36    100  71.4  77.6  34204  290.33 0854.48
2009/04/23 13:28:24.9      15     12    105     20    106  50.5  90.0  34210  290.41 0854.48
2009/04/23 13:28:25.0      32      2     91     33     96  85.6  80.2  34206  290.36 0854.48
2009/04/23 13:28:25.1      55     26    117     61    131  64.7  70.8  34200  290.26 0854.48
2009/04/23 13:28:25.2     121    107     65    162    174  48.4  22.8  34204  290.33 0854.48
2009/04/23 13:28:25.3     134     66     82    150    170  63.8  31.0  34224  290.65 0854.48
2009/04/23 13:28:25.4      79     31    -76     86    114  68.3 -50.8  34222  290.64 0854.48
2009/04/23 13:28:25.5     101     83     25    132    135  50.5  11.0  34220  290.60 0854.45
2009/04/23 13:28:25.6     114    156     50    194    201  36.1  14.7  34222  290.62 0854.45
2009/04/23 13:28:25.7     126    166    -17    209    210  37.2  -4.9  34268  291.40 0854.45
2009/04/23 13:28:25.8      77    174    -34    191    195  23.8 -10.1  34246  291.03 0854.45
2009/04/23 13:28:25.9      -8    107     74    108    130 355.5  37.6  34214  290.48 0854.45
2009/04/23 13:28:26.0      55     82     67     99    119  33.8  37.6  34216  290.53 0854.45
2009/04/23 13:28:26.1      44     87     43     98    107  27.2  24.6  34240  290.94 0854.45
2009/04/23 13:28:26.2      55     89     15    105    107  31.6   8.5  34246  291.03 0854.45
2009/04/23 13:28:26.3      47     13     39     49     62  74.1  43.7  34246  291.03 0854.45
2009/04/23 13:28:26.4      39      0     46     40     60  90.0  54.3  34240  290.94 0854.45
2009/04/23 13:28:26.5       1     -6     57      7     57 168.4  90.0  34240  290.94 0854.45
2009/04/23 13:28:26.6      17    -54     74     57     93 161.7  57.9  34238  290.91 0854.45
2009/04/23 13:28:26.7       1    -84     84     85    119 179.1  50.0  34232  290.81 0854.45
2009/04/23 13:28:26.8      57   -135     98    147    176 156.8  36.7  34220  290.60 0854.45
2009/04/23 13:28:26.9     108   -226     87    251    266 154.5  19.2  34196  290.19 0854.45
2009/04/23 13:28:27.0     125   -286    143    313    344 156.4  26.4  34192  290.10 0854.45
2009/04/23 13:28:27.1     135   -231    194    268    330 149.7  39.5  34192  290.12 0854.45
2009/04/23 13:28:27.2      51   -253    187    259    319 168.5  39.5  34194  290.15 0854.45
2009/04/23 13:28:27.3     122   -302    162    326    364 157.9  28.4  34194  290.16 0854.45
2009/04/23 13:28:27.4      48   -300    123    304    327 170.9  23.2  34198  290.20 0854.45
2009/04/23 13:28:27.5      85   -322    156    333    367 165.2  27.1  34192  290.13 0854.49
2009/04/23 13:28:27.6      69   -339    183    347    392 168.4  30.1  34192  290.10 0854.49
2009/04/23 13:28:27.7      49   -286    137    291    321 170.2  27.1  34192  290.10 0854.49
2009/04/23 13:28:27.8     -20   -277    145    278    313 184.2  29.6  34194  290.14 0854.49
2009/04/23 13:28:27.9      25   -208    148    210    256 173.1  38.6  34196  290.17 0854.49
2009/04/23 13:28:28.0      24   -211    158    213    265 173.5  40.4  34196  290.17 0854.49
2009/04/23 13:28:28.1      38   -190    125    194    230 168.7  35.6  34194  290.14 0854.49
2009/04/23 13:28:28.2      78   -214    122    228    258 160.0  30.6  34198  290.22 0854.49
2009/04/23 13:28:28.3       4   -295     57    296    302 179.1  11.0  34190  290.07 0854.49
2009/04/23 13:28:28.4     -69   -297     64    305    312 193.1  12.0  34192  290.12 0854.49
2009/04/23 13:28:28.5     -73   -413     79    420    428 190.1  10.7  34198  290.21 0854.49
2009/04/23 13:28:28.6     142   -350    140    378    403 157.9  21.3  34194  290.15 0854.49
2009/04/23 13:28:28.7     131   -328    242    354    428 158.2  37.6  34192  290.12 0854.49
2009/04/23 13:28:28.8      28   -369    232    370    436 175.6  35.2  34196  290.17 0854.49
2009/04/23 13:28:28.9     -73   -415    167    422    453 190.0  22.9  34194  290.14 0854.49
2009/04/23 13:28:29.0     -31   -379    174    381    418 184.7  26.2  34194  290.14 0854.49
2009/04/23 13:28:29.1      61   -350     55    356    361 170.0   8.8  34196  290.18 0854.49
2009/04/23 13:28:29.2      63   -229     83    238    253 164.6  19.2  34196  290.17 0854.49
2009/04/23 13:28:29.3     146   -230     70    273    282 147.5  14.5  34196  290.17 0854.49
2009/04/23 13:28:29.4      64   -326    182    333    379 168.8  31.3  34196  290.18 0854.49
2009/04/23 13:28:29.5     102   -307    160    324    361 161.5  28.2  34194  290.15 0854.50
2009/04/23 13:28:29.6      28   -304     75    306    316 174.7  13.8  34192  290.10 0854.50
2009/04/23 13:28:29.7     -52   -258    105    264    284 191.6  23.0  34192  290.12 0854.50
2009/04/23 13:28:29.8     -18   -243     78    244    257 184.2  17.7  34192  290.12 0854.50
2009/04/23 13:28:29.9      61   -180     56    191    200 161.3  16.3  34196  290.18 0854.50
2009/04/23 13:28:30.0     -16   -228     36    229    232 184.2   9.0  34194  290.14 0854.50
2009/04/23 13:28:30.1      55   -273     23    279    281 168.4   4.9  34196  290.19 0854.50
2009/04/23 13:28:30.2      23   -296    -38    297    300 175.5  -7.3  34186  290.00 0854.50
2009/04/23 13:28:30.3      96   -147     -7    176    177 146.8  -2.3  34192  290.11 0854.50
2009/04/23 13:28:30.4      95   -145     67    174    186 146.8  22.3  34192  290.13 0854.50
2009/04/23 13:28:30.5      72   -183     46    197    203 158.4  13.2  34196  290.18 0854.50
2009/04/23 13:28:30.6      36   -277    106    280    299 172.4  21.7  34182  289.95 0854.50
2009/04/23 13:28:30.7      50   -321     -2    325    326 171.1  -0.5  34176  289.85 0854.50
2009/04/23 13:28:30.8    -106   -318     31    336    338 198.5   5.4  34178  289.86 0854.50
2009/04/23 13:28:30.9     -56   -240     62    247    255 193.1  14.3  34178  289.88 0854.50
2009/04/23 13:28:31.0     -22   -291     24    292    294 184.5   4.9  34178  289.86 0854.50
2009/04/23 13:28:31.1    -101   -264     82    283    295 200.9  16.3  34176  289.85 0854.50
2009/04/23 13:28:31.2    -123   -149     69    194    206 219.6  19.6  34180  289.91 0854.50
2009/04/23 13:28:31.3     -53    -94     44    109    117 209.4  23.0  34180  289.92 0854.50
2009/04/23 13:28:31.4      11    -55     67     57     87 168.4  55.4  34186  290.02 0854.50
2009/04/23 13:28:31.5       4    -57     55     58     79 175.6  49.0  34184  289.97 0854.51
2009/04/23 13:28:31.6      41    -34     39     54     66 130.4  39.5  34182  289.96 0854.51
2009/04/23 13:28:31.7     117    -16     72    119    139  98.0  34.0  34180  289.92 0854.51
2009/04/23 13:28:31.8     124    -41    119    131    176 108.6  47.1  34188  290.04 0854.51
2009/04/23 13:28:31.9     112    -43    119    121    169 111.3  50.0  34188  290.04 0854.51
2009/04/23 13:28:32.0       3     33     92     34     98   6.2  78.6  34194  290.16 0854.51
2009/04/23 13:28:32.1     -11     47     73     49     87 346.6  63.2  34196  290.19 0854.51
2009/04/23 13:28:32.2     -19     20     61     28     67 316.6  74.0  34196  290.19 0854.51
2009/04/23 13:28:32.3    -158    -58    103    169    197 249.6  34.2  34188  290.04 0854.51
2009/04/23 13:28:32.4    -202   -134    -77    243    254 236.5 -22.8  34180  289.90 0854.51
2009/04/23 13:28:32.5    -105      7     41    106    113 274.3  22.0  34172  289.77 0854.51
2009/04/23 13:28:32.6      25     74     85     79    116  18.7  52.1  34184  289.97 0854.51
2009/04/23 13:28:32.7      16     22     79     28     83  36.1  80.7  34188  290.06 0854.51
2009/04/23 13:28:32.8     -84    -69    109    110    154 230.5  50.5  34188  290.06 0854.51
2009/04/23 13:28:32.9     -93      4     74     94    119 273.0  42.2  34190  290.08 0854.51
2009/04/23 13:28:33.0     -95     -5     51     96    108 267.0  30.3  34194  290.14 0854.51
2009/04/23 13:28:33.1     -63    -12    -15     65     67 258.5 -13.4  34194  290.14 0854.51
2009/04/23 13:28:33.2     -90    -46      0    102    103 242.9  -0.3  34192  290.11 0854.51
2009/04/23 13:28:33.3     -55      0     27     56     62 270.0  27.2  34194  290.14 0854.51
2009/04/23 13:28:33.4      51      2     30     52     60  87.4  32.4  34196  290.18 0854.51
2009/04/23 13:28:33.5     111     22    -14    114    115  78.6  -7.2  34204  290.31 0854.52
2009/04/23 13:28:33.6      77      5    -10     78     79  85.6  -7.3  34228  290.74 0854.52
2009/04/23 13:28:33.7      92     21      4     95     96  77.2   2.8  34254  291.18 0854.52
2009/04/23 13:28:33.8     191     -8     68    192    203  92.6  20.2  34254  291.16 0854.52
2009/04/23 13:28:33.9     158    -66    100    172    198 112.6  32.9  34224  290.65 0854.52
2009/04/23 13:28:34.0     110    -26     23    114    117 103.7  11.6  34264  291.35 0854.52
2009/04/23 13:28:34.1     123    -15     24    124    127  97.0  11.1  34296  291.88 0854.52
2009/04/23 13:28:34.2     159    -40     -5    164    165 104.2  -1.8  34304  292.03 0854.52
2009/04/23 13:28:34.3     225    -51    -54    231    238 102.8 -13.2  34298  291.90 0854.52
2009/04/23 13:28:34.4     225    -35     11    228    229  99.0   2.8  34312  292.17 0854.55
2009/04/23 13:28:34.5     336    -77     45    345    348 102.9   7.5  34312  292.14 0854.55
2009/04/23 13:28:34.6     307   -113     65    328    335 110.3  11.3  34314  292.20 0854.55
2009/04/23 13:28:34.7     264    -49     75    269    280 100.6  15.6  34320  292.30 0854.55
2009/04/23 13:28:34.8     222     25    141    224    264  83.4  35.5  34322  292.31 0854.55
2009/04/23 13:28:34.9     267    126    148    296    330  64.8  28.6  34312  292.16 0854.55
2009/04/23 13:28:35.0     322     84    200    333    388  75.3  34.0  34270  291.45 0854.55
2009/04/23 13:28:35.1     197     64    315    208    377  71.8  63.6  34282  291.66 0854.55
2009/04/23 13:28:35.2      83    -17    187     85    205 101.9  73.8  34302  292.00 0854.55
2009/04/23 13:28:35.3     107    -11    224    108    248  96.1  72.7  34264  291.33 0854.55
2009/04/23 13:28:35.4     164      1    202    165    260  89.4  56.4  34254  291.16 0854.55
2009/04/23 13:28:35.5      92     76    236    120    264  50.4  71.1  34250  291.11 0854.55
2009/04/23 13:28:35.6    -100   -272    200    291    353 200.3  37.8  34258  291.23 0854.55
2009/04/23 13:28:35.7    -104   -272    189    292    347 201.0  35.7  34232  290.81 0854.55
2009/04/23 13:28:35.8      -8   -332    133    333    358 181.4  23.0  34190  290.08 0854.55
2009/04/23 13:28:35.9      20   -312     77    313    323 176.2  13.8  34188  290.05 0854.55
2009/04/23 13:28:36.0      18   -359     93    360    372 177.0  14.5  34192  290.10 0854.55
2009/04/23 13:28:36.1      82   -401     83    410    419 168.4  11.6  34188  290.04 0854.55
2009/04/23 13:28:36.2      56   -282    101    288    305 168.7  20.0  34188  290.05 0854.55
2009/04/23 13:28:36.3     120   -216     56    248    255 151.0  12.9  34192  290.10 0854.55
2009/04/23 13:28:36.4     113   -137     -3    178    179 140.4  -1.3  34192  290.13 0854.55
2009/04/23 13:28:36.5     127   -187     27    227    229 145.8   6.9  34188  290.06 0854.55
2009/04/23 13:28:36.7      87   -199     71    218    230 156.4  18.1  34184  289.97 0854.55
2009/04/23 13:28:36.7      -1   -128     59    129    141 180.5  26.6  34180  289.91 0854.55
2009/04/23 13:28:36.8     -44   -134    119    142    185 198.3  44.1  34184  289.97 0854.55
2009/04/23 13:28:36.9    -114   -146     64    186    197 218.1  19.2  34184  289.99 0854.55
2009/04/23 13:28:37.0     -85   -179     74    199    212 205.5  21.0  34190  290.08 0854.55
2009/04/23 13:28:37.1    -112   -176     96    209    229 212.6  26.6  34190  290.09 0854.55
2009/04/23 13:28:37.2     -94   -217      2    237    238 203.4   0.7  34188  290.03 0854.55
2009/04/23 13:28:37.3     -37    -80     72     89    114 204.9  43.7  34186  290.02 0854.55
2009/04/23 13:28:37.4      26     14    107     30    111  61.1  84.8  34196  290.19 0854.55
2009/04/23 13:28:37.5     -41      9     88     43     97 283.3  72.8  34198  290.21 0854.55
2009/04/23 13:28:37.6     -45    -48     97     66    117 223.2  63.2  34194  290.16 0854.55
2009/04/23 13:28:37.7     -42    -83     74     94    119 206.7  42.2  34188  290.06 0854.55
2009/04/23 13:28:37.8       3    -40     66     41     77 174.7  64.7  34194  290.14 0854.55
2009/04/23 13:28:37.9       5    -76    102     77    127 175.6  58.5  34188  290.06 0854.55
2009/04/23 13:28:38.0    -110     54     33    123    128 296.2  15.3  34192  290.11 0854.55
2009/04/23 13:28:38.2     -96     52      5    110    111 298.8   2.9  34188  290.06 0854.55
2009/04/23 13:28:38.2      55     30    -27     63     68  61.1 -28.5  34192  290.11 0854.55
2009/04/23 13:28:38.3      64     -6    -45     65     79  96.1 -42.4  34190  290.09 0854.55
2009/04/23 13:28:38.4      99      7    -26    100    104  85.6 -14.5  34188  290.06 0854.56
2009/04/23 13:28:38.6      84     25     48     88    100  73.2  31.3  34188  290.04 0854.56
2009/04/23 13:28:38.7      78    -52     40     94    102 123.7  24.1  34184  289.99 0854.56
2009/04/23 13:28:38.8      23   -113     62    116    131 168.5  30.3  34180  289.91 0854.56
2009/04/23 13:28:38.9      31   -130     31    134    138 166.2  13.1  34182  289.94 0854.56
2009/04/23 13:28:39.0      21   -129     39    131    137 170.7  16.8  34182  289.94 0854.56
2009/04/23 13:28:39.1      49   -158     64    166    177 162.6  22.3  34182  289.94 0854.56
2009/04/23 13:28:39.2     -11   -145     65    146    159 184.4  25.7  34178  289.89 0854.56
2009/04/23 13:28:39.3      -7    -99     75    100    125 184.5  40.7  34182  289.94 0854.56
2009/04/23 13:28:39.4     -17    -38    105     42    113 204.5  77.1  34190  290.09 0854.56
2009/04/23 13:28:39.5     -69     15     76     71    104 282.4  52.1  34194  290.16 0854.56
2009/04/23 13:28:39.6     -69     34     96     77    123 296.2  56.9  34192  290.13 0854.56
2009/04/23 13:28:39.7     -95     85    145    128    193 311.8  54.0  34188  290.04 0854.56
2009/04/23 13:28:39.8     -56     69    109     90    141 320.8  56.4  34190  290.09 0854.56
2009/04/23 13:28:39.9     -99    120    171    156    231 320.3  52.7  34190  290.09 0854.56
2009/04/23 13:28:40.0    -235    -18     99    236    255 265.6  24.1  34190  290.09 0854.56
2009/04/23 13:28:40.1    -153    213    139    263    297 324.2  30.2  34238  290.88 0854.56
2009/04/23 13:28:40.2    -141    247    105    285    303 330.2  21.0  34216  290.51 0854.56
2009/04/23 13:28:40.3     -95     95     69    135    151 315.0  29.2  34206  290.36 0854.56
2009/04/23 13:28:40.4     -49    -87     85    100    131 209.4  44.3  34214  290.48 0854.56
2009/04/23 13:28:40.5    -205     31    -16    208    209 278.8  -4.6  34202  290.30 0854.56
2009/04/23 13:28:40.6    -190    112    -63    221    230 300.7 -16.0  34198  290.23 0854.56
2009/04/23 13:28:40.7      31    221     37    224    228   8.1   9.5  34228  290.74 0854.56
2009/04/23 13:28:40.8      22    290    151    291    327   4.5  29.5  34226  290.68 0854.56
2009/04/23 13:28:40.9     -60    222    146    231    273 344.9  35.5  34244  290.99 0854.56
2009/04/23 13:28:41.0     -19    214    145    215    259 354.9  37.4  34234  290.83 0854.56
2009/04/23 13:28:41.1      -7    -22    110     24    112 198.7  88.5  34226  290.70 0854.56
2009/04/23 13:28:41.2     -37    -49     25     62     66 217.0  23.0  34200  290.26 0854.56
2009/04/23 13:28:41.3     178     12     79    179    195  86.1  25.2  34176  289.85 0854.56
2009/04/23 13:28:41.4     311   -143    173    343    384 114.7  28.7  34182  289.94 0854.56
2009/04/23 13:28:41.5     415    -88    111    425    440 102.1  14.7  34174  289.80 0854.56
2009/04/23 13:28:41.6     472   -232    190    527    561 116.2  19.9  34164  289.63 0854.56
2009/04/23 13:28:41.7     402    -47    126    405    425  96.7  17.3  34168  289.70 0854.56
2009/04/23 13:28:41.8     345    -85    286    356    456 103.9  42.9  34172  289.78 0854.56
2009/04/23 13:28:41.9     188   -216    201    287    350 138.8  38.5  34166  289.67 0854.56
2009/04/23 13:28:42.0      89   -318    194    331    383 164.3  33.1  34168  289.71 0854.56
2009/04/23 13:28:42.1     296   -221    202    370    421 126.8  31.0  34158  289.55 0854.56
2009/04/23 13:28:42.2     137   -165     22    215    217 140.4   5.9  34168  289.72 0854.56
2009/04/23 13:28:42.3      73   -182     19    197    198 158.2   5.7  34168  289.72 0854.56
2009/04/23 13:28:42.4      37   -315    155    318    353 173.3  27.9  34156  289.52 0854.56
2009/04/23 13:28:42.5     122   -411    167    429    460 163.5  22.7  34160  289.58 0854.54
2009/04/23 13:28:42.6     -33   -279    272    282    391 186.9  49.0  34164  289.65 0854.54
2009/04/23 13:28:42.7    -182   -218    117    285    308 219.9  23.4  34170  289.73 0854.54
2009/04/23 13:28:42.8    -249   -204    230    323    396 230.7  39.0  34174  289.81 0854.54
2009/04/23 13:28:42.9    -175   -134    298    221    371 232.5  60.1  34172  289.76 0854.54
2009/04/23 13:28:43.0    -273   -147    250    311    399 241.6  42.9  34172  289.76 0854.54
2009/04/23 13:28:43.1    -142    -67    222    158    272 244.7  61.3  34178  289.86 0854.54
2009/04/23 13:28:43.2     -45    -58    120     74    140 217.8  65.1  34170  289.74 0854.54
2009/04/23 13:28:43.3     118    -51    163    129    207 113.5  57.7  34178  289.89 0854.54
2009/04/23 13:28:43.4      40    -17    188     44    193 113.5  86.9  34184  289.97 0854.54
2009/04/23 13:28:43.5     -21   -128    208    130    245 189.3  64.9  34176  289.85 0854.54
2009/04/23 13:28:43.6     -78    115    124    140    187 325.8  46.2  34180  289.92 0854.54
2009/04/23 13:28:43.7      20     45    137     50    145  24.5  79.7  34182  289.94 0854.54
2009/04/23 13:28:43.8      13   -141    256    142    292 174.7  68.8  34176  289.83 0854.54
2009/04/23 13:28:43.9     -54   -227    287    234    370 193.4  56.5  34174  289.81 0854.54
2009/04/23 13:28:44.0      -2   -168    208    169    268 180.7  56.6  34178  289.86 0854.54
2009/04/23 13:28:44.1     151   -193    189    246    310 141.9  41.6  34174  289.81 0854.54
2009/04/23 13:28:44.2      40   -364    227    367    431 173.7  34.5  34170  289.73 0854.54
2009/04/23 13:28:44.3     168   -304    276    348    444 151.0  42.4  34168  289.72 0854.54
2009/04/23 13:28:44.4      76   -297    203    307    368 165.5  36.6  34164  289.65 0854.54
2009/04/23 13:28:44.5      22   -305    223    306    378 175.8  39.7  34166  289.69 0854.55
2009/04/23 13:28:44.6     -32   -634    247    635    681 182.9  22.4  34168  289.70 0854.55
2009/04/23 13:28:44.7     -55   -538    214    541    581 185.9  22.9  34170  289.75 0854.55
2009/04/23 13:28:44.8      70   -662    206    666    698 173.9  17.2  34168  289.71 0854.55
2009/04/23 13:28:44.9     171   -712    307    733    794 166.5  24.2  34158  289.54 0854.55
2009/04/23 13:28:45.0     325   -544    188    634    662 149.1  16.5  34162  289.60 0854.55
2009/04/23 13:28:45.1     312   -535    116    620    631 149.7  10.6  34164  289.64 0854.55
2009/04/23 13:28:45.2     337   -400    163    524    549 139.9  17.3  34164  289.63 0854.55
2009/04/23 13:28:45.3     234   -492     86    546    553 154.5   9.0  34170  289.75 0854.55
2009/04/23 13:28:45.4      53   -425    173    429    462 172.9  23.1  34164  289.63 0854.55
2009/04/23 13:28:45.5     256   -542     93    600    608 154.7   8.9  34162  289.61 0854.55
2009/04/23 13:28:45.6     323   -446    190    551    584 144.0  19.1  34168  289.71 0854.55
2009/04/23 13:28:45.7     419   -455    165    619    641 137.4  15.0  34158  289.55 0854.55
2009/04/23 13:28:45.8     173   -296    186    343    390 149.7  30.9  34154  289.48 0854.55
2009/04/23 13:28:45.9     -74   -215    200    228    303 199.2  45.8  34172  289.76 0854.55
2009/04/23 13:28:46.0    -119   -277    244    302    388 203.2  43.4  34172  289.79 0854.55
2009/04/23 13:28:46.1    -213   -105     27    238    240 243.6   6.7  34178  289.86 0854.55
2009/04/23 13:28:46.2    -266     24      0    268    269 275.3   0.0  34176  289.85 0854.55
2009/04/23 13:28:46.3    -388     24    -50    389    393 273.6  -7.3  34152  289.42 0854.55
2009/04/23 13:28:46.4    -395     73    -80    402    411 280.5 -11.3  34154  289.48 0854.55
2009/04/23 13:28:46.5    -458      7   -131    459    477 270.9 -20.7  34162  289.59 0854.56
2009/04/23 13:28:46.6    -362    -27   -114    363    381 265.6 -17.5  34178  289.87 0854.56
2009/04/23 13:28:46.7    -309    -39    -62    312    319 262.8 -11.2  34172  289.78 0854.56
2009/04/23 13:28:46.8    -354   -112   -128    372    394 252.4 -19.1  34170  289.74 0854.56
2009/04/23 13:28:46.9    -206   -213     83    297    309 224.1  15.7  34182  289.95 0854.56
2009/04/23 13:28:47.0    -293   -217      5    365    366 233.5   0.8  34178  289.89 0854.56
2009/04/23 13:28:47.1    -312   -239     54    394    398 232.5   7.9  34180  289.91 0854.56
2009/04/23 13:28:47.2    -366   -183    101    410    423 243.4  13.9  34182  289.95 0854.56
2009/04/23 13:28:47.3    -228   -194    186    300    352 229.6  34.9  34178  289.87 0854.56
2009/04/23 13:28:47.4    -118   -147    166    189    251 218.7  45.8  34180  289.90 0854.56
2009/04/23 13:28:47.5    -198   -143    101    245    265 234.3  23.8  34182  289.95 0854.56
2009/04/23 13:28:47.6    -281   -145     31    317    319 242.7   5.7  34178  289.88 0854.56
2009/04/23 13:28:47.7    -191    -90     -5    212    213 244.6  -1.6  34168  289.72 0854.56
2009/04/23 13:28:47.8    -144   -149     73    208    221 223.9  19.4  34174  289.80 0854.56
2009/04/23 13:28:47.9     -96   -148     70    177    190 213.0  22.8  34178  289.89 0854.56
2009/04/23 13:28:48.0      -9   -108     61    109    124 184.9  31.9  34178  289.87 0854.56
2009/04/23 13:28:48.1     -50    -59     52     78     93 220.5  36.5  34180  289.91 0854.56
2009/04/23 13:28:48.2     -81     11     28     82     87 277.9  19.4  34184  289.99 0854.56
2009/04/23 13:28:48.3     -28    -13     34     31     46 244.6  52.2  34188  290.04 0854.56
2009/04/23 13:28:48.4      -5    -40     92     41    100 188.0  74.5  34184  289.99 0854.56
2009/04/23 13:28:48.5     -81   -101     95    130    161 218.7  39.9  34180  289.92 0854.55
2009/04/23 13:28:48.6     -94    -99     -4    137    138 223.7  -1.8  34180  289.91 0854.55
2009/04/23 13:28:48.7    -208   -116     17    239    240 240.7   4.2  34174  289.81 0854.55
2009/04/23 13:28:48.8    -248   -152     99    291    308 238.5  18.9  34176  289.83 0854.55
2009/04/23 13:28:48.9    -305   -139    -43    336    339 245.4  -7.3  34172  289.79 0854.55
2009/04/23 13:28:49.0    -419   -105     36    432    434 255.9   4.9  34178  289.88 0854.55
2009/04/23 13:28:49.1    -413   -112     83    429    438 254.8  11.0  34172  289.77 0854.55
2009/04/23 13:28:49.2    -413   -138     21    436    437 251.4   2.8  34174  289.82 0854.55
2009/04/23 13:28:49.3    -477   -251    -33    540    541 242.2  -3.5  34164  289.63 0854.55
2009/04/23 13:28:49.4    -641   -193   -163    670    690 253.2 -13.7  34166  289.68 0854.55
2009/04/23 13:28:49.5    -588   -257   -166    642    664 246.4 -14.5  34160  289.56 0854.55
2009/04/23 13:28:49.6    -536   -258   -202    595    629 244.3 -18.8  34162  289.62 0854.55
2009/04/23 13:28:49.7    -307   -318   -183    443    479 224.0 -28.2  34152  289.42 0854.55
2009/04/23 13:28:49.8    -346   -101   -124    361    382 253.6 -19.0  34160  289.57 0854.55
2009/04/23 13:28:49.9    -581   -216      0    620    621 249.6   0.0  34162  289.60 0854.55
2009/04/23 13:28:50.0    -608    -55    -33    611    612 264.8  -3.2  34162  289.59 0854.55
2009/04/23 13:28:50.1    -582   -136     74    598    603 256.8   7.1  34174  289.80 0854.55
2009/04/23 13:28:50.2    -388   -291      2    486    487 233.1   0.3  34166  289.69 0854.55
2009/04/23 13:28:50.3    -181   -412    -25    451    452 203.7  -3.2  34164  289.63 0854.55
2009/04/23 13:28:50.4     -15   -403    139    404    428 182.2  19.1  34170  289.75 0854.55
2009/04/23 13:28:50.5    -117   -326    179    347    390 199.8  29.4  34162  289.62 0854.54
2009/04/23 13:28:50.6     -77   -254     67    266    275 196.9  14.3  34170  289.75 0854.54
2009/04/23 13:28:50.7    -177   -126     77    218    232 234.5  19.4  34182  289.94 0854.54
2009/04/23 13:28:50.8    -203   -203     26    288    290 225.0   5.2  34184  289.97 0854.54
2009/04/23 13:28:50.9    -184   -117    -16    219    220 237.6  -4.4  34166  289.69 0854.54
2009/04/23 13:28:51.0    -103    -43    -60    112    127 247.4 -35.2  34176  289.84 0854.54
2009/04/23 13:28:51.1     -59    -80     24    100    103 216.5  13.7  34178  289.87 0854.54
2009/04/23 13:28:51.2    -144   -281    -96    316    330 207.2 -22.1  34164  289.64 0854.54
2009/04/23 13:28:51.3    -142   -329    -31    359    361 203.3  -5.1  34158  289.54 0854.54
2009/04/23 13:28:51.4    -102   -409    -33    422    424 194.1  -4.5  34160  289.56 0854.54
2009/04/23 13:28:51.5     -73   -357    -12    365    366 191.7  -1.9  34152  289.42 0854.54
2009/04/23 13:28:51.6    -107   -302    -14    321    322 199.6  -2.5  34154  289.47 0854.54
2009/04/23 13:28:51.7     -77   -214     -8    228    229 200.0  -2.2  34156  289.50 0854.54
2009/04/23 13:28:51.8     -94   -240     17    258    259 201.4   3.8  34160  289.58 0854.54
2009/04/23 13:28:51.9     -82   -246     12    260    261 198.5   2.8  34162  289.59 0854.54
2009/04/23 13:28:52.0      15   -189     87    190    208 175.3  26.4  34156  289.52 0854.54
2009/04/23 13:28:52.1     -41   -183    -28    188    191 192.9  -8.6  34160  289.57 0854.54
2009/04/23 13:28:52.2     -72   -217     -8    229    230 198.5  -2.2  34160  289.57 0854.54
2009/04/23 13:28:52.3     -37   -271    -85    274    287 187.8 -17.3  34160  289.58 0854.54
2009/04/23 13:28:52.4     118   -231    -88    260    275 152.8 -18.7  34162  289.59 0854.54
2009/04/23 13:28:52.5     110   -166      4    200    201 146.6   1.2  34156  289.50 0854.55
2009/04/23 13:28:52.6     111   -124     -4    167    168 138.1  -1.6  34158  289.55 0854.55
2009/04/23 13:28:52.7      47   -121    -16    131    133 158.6  -7.3  34158  289.53 0854.55
2009/04/23 13:28:52.8      53    -96     37    110    117 151.1  18.9  34160  289.58 0854.55
2009/04/23 13:28:52.9     -55     37    -20     67     69 304.2 -21.7  34158  289.55 0854.55
2009/04/23 13:28:53.0     -69    -38   -100     79    127 241.1 -61.9  34166  289.67 0854.55
2009/04/23 13:28:53.1    -115    -81   -149    141    205 234.9 -56.4  34166  289.69 0854.55
2009/04/23 13:28:53.2     -92   -231   -254    249    355 201.9 -55.0  34174  289.81 0854.55
2009/04/23 13:28:53.3     100   -355   -131    369    392 164.2 -19.6  34164  289.65 0854.55
2009/04/23 13:28:53.4    -178   -383   -162    423    452 204.9 -26.5  34158  289.53 0854.55
2009/04/23 13:28:53.5    -229   -360   -229    428    485 212.5 -34.7  34162  289.61 0854.55
2009/04/23 13:28:53.6      -9   -584   -162    585    608 180.9 -15.5  34162  289.59 0854.55
2009/04/23 13:28:53.7     -27   -505   -176    506    535 183.1 -24.4  34166  289.67 0854.55
2009/04/23 13:28:53.8      59   -560   -102    564    574 173.9 -10.3  34166  289.66 0854.55
2009/04/23 13:28:53.9     174   -556     32    583    584 162.6   3.2  34160  289.56 0854.55
2009/04/23 13:28:54.0      36   -577     17    579    580 176.4   1.7  34164  289.63 0854.55
2009/04/23 13:28:54.1      88   -397    159    407    436 167.5  22.5  34162  289.60 0854.55
2009/04/23 13:28:54.2      81   -478    225    485    534 170.3  26.6  34162  289.62 0854.55
2009/04/23 13:28:54.3      45   -434     96    437    448 174.0  12.4  34164  289.63 0854.55
2009/04/23 13:28:54.4      60   -467    111    471    484 172.6  13.3  34168  289.71 0854.55
2009/04/23 13:28:54.5      25   -564    -11    565    566 177.4  -1.2  34166  289.67 0854.56
2009/04/23 13:28:54.6     -80   -607    -34    613    614 187.6  -3.2  34166  289.66 0854.56
2009/04/23 13:28:54.7     -45   -628    -45    630    632 184.1  -4.1  34162  289.62 0854.56
2009/04/23 13:28:54.8       4   -637    -29    638    639 179.6  -2.6  34162  289.62 0854.56
2009/04/23 13:28:54.9      51   -647     72    650    655 175.4   6.4  34164  289.65 0854.56
2009/04/23 13:28:55.0      27   -696    -68    697    701 177.8  -5.6  34166  289.69 0854.56
2009/04/23 13:28:55.1      83   -748    -35    753    754 173.6  -2.7  34162  289.62 0854.56
2009/04/23 13:28:55.2      82   -771    107    776    784 173.9   7.9  34164  289.63 0854.56
2009/04/23 13:28:55.3      45   -805     12    807    808 176.8   0.9  34166  289.69 0854.56
2009/04/23 13:28:55.4      67   -799     52    802    804 175.2   3.7  34162  289.61 0854.56
2009/04/23 13:28:55.5     187   -796     10    818    819 166.8   0.7  34164  289.65 0854.52
2009/04/23 13:28:55.6     134   -782     34    794    795 170.2   2.5  34158  289.54 0854.52
2009/04/23 13:28:55.7      76   -749     23    753    754 174.2   1.8  34166  289.67 0854.52
2009/04/23 13:28:55.8     143   -659     76    675    680 167.7   6.5  34166  289.68 0854.52
2009/04/23 13:28:55.9      80   -673    118    678    689 173.2   9.9  34166  289.68 0854.52
2009/04/23 13:28:56.0      37   -580    123    582    596 176.3  12.0  34164  289.64 0854.52
2009/04/23 13:28:56.1     -34   -442    377    444    582 184.5  44.7  34164  289.65 0854.52
2009/04/23 13:28:56.2     -33   -432    411    434    597 184.4  48.2  34160  289.57 0854.52
2009/04/23 13:28:56.3      36   -350    346    352    493 174.1  49.5  34166  289.66 0854.52
2009/04/23 13:28:56.4     -89   -464    336    473    580 190.9  39.0  34170  289.75 0854.52
2009/04/23 13:28:56.5    -214   -428    286    479    557 206.6  33.6  34166  289.68 0854.52
2009/04/23 13:28:56.6      55   -469    247    473    533 173.3  29.8  34166  289.66 0854.52
2009/04/23 13:28:56.7      36   -528    204    530    567 176.1  22.2  34164  289.63 0854.52
2009/04/23 13:28:56.8     -47   -396    288    399    492 186.8  39.5  34168  289.72 0854.52
2009/04/23 13:28:56.9     -85   -489    319    497    590 189.9  35.6  34170  289.75 0854.52
2009/04/23 13:28:57.0     -77   -497    252    504    563 188.9  28.6  34166  289.68 0854.52
2009/04/23 13:28:57.1    -117   -441    299    457    546 194.9  36.5  34168  289.71 0854.52
2009/04/23 13:28:57.2    -161   -402    234    434    493 201.8  30.8  34166  289.66 0854.52
2009/04/23 13:28:57.3    -172   -424    209    458    503 202.1  26.3  34166  289.69 0854.52
2009/04/23 13:28:57.4    -214   -478    211    524    564 204.2  23.1  34168  289.70 0854.52
2009/04/23 13:28:57.5    -261   -432    227    505    553 211.2  25.9  34174  289.80 0854.53
2009/04/23 13:28:57.6    -286   -362    294    462    547 218.4  35.5  34170  289.74 0854.53
2009/04/23 13:28:57.7    -300   -106    155    319    354 250.5  27.8  34176  289.84 0854.53
2009/04/23 13:28:57.8    -317   -350    379    473    606 222.2  42.8  34174  289.80 0854.53
2009/04/23 13:28:57.9    -410    -77     21    418    419 259.3   2.9  34170  289.75 0854.53
2009/04/23 13:28:58.0    -434    -91     58    444    448 258.1   7.5  34184  289.97 0854.53
2009/04/23 13:28:58.1    -388    -78      1    396    397 258.6   0.2  34172  289.76 0854.53
2009/04/23 13:28:58.2    -293   -319     -8    434    435 222.5  -1.2  34162  289.60 0854.53
2009/04/23 13:28:58.3    -125   -262    100    291    308 205.5  19.1  34164  289.63 0854.53
2009/04/23 13:28:58.4    -267   -147     43    305    309 241.2   8.0  34168  289.70 0854.53
2009/04/23 13:28:58.5    -233   -150    -35    278    281 237.1  -7.3  34172  289.78 0854.53
2009/04/23 13:28:58.6    -334   -201   -137    390    413 239.0 -24.4  34170  289.73 0854.53
2009/04/23 13:28:58.7    -336   -170    138    377    401 243.1  20.9  34166  289.69 0854.53
2009/04/23 13:28:58.8    -211   -156    198    263    329 233.4  40.8  34172  289.78 0854.53
2009/04/23 13:28:58.9     -57   -162    171    172    242 199.4  50.0  34166  289.67 0854.53
2009/04/23 13:28:59.0     -88   -212    248    230    338 202.7  52.2  34172  289.78 0854.53
2009/04/23 13:28:59.1    -162   -244    204    293    357 213.6  38.3  34168  289.72 0854.53
2009/04/23 13:28:59.2    -392    -84    -89    402    412 257.8 -12.5  34166  289.66 0854.53
2009/04/23 13:28:59.3    -194   -192     28    274    276 225.3   5.9  34170  289.73 0854.53
2009/04/23 13:28:59.4    -189   -346    188    395    437 208.6  27.3  34168  289.72 0854.53
2009/04/23 13:28:59.5    -332   -269    -73    428    435 230.9  -9.7  34170  289.75 0854.57
2009/04/23 13:28:59.6    -297   -295   -153    419    446 225.2 -25.3  34168  289.70 0854.57
2009/04/23 13:28:59.7    -283   -296   -129    410    430 223.7 -17.5  34168  289.70 0854.57
2009/04/23 13:28:59.8    -141   -247    -83    285    296 209.8 -21.0  34170  289.75 0854.57
2009/04/23 13:28:59.9    -245   -246     69    348    355 224.8  11.3  34178  289.87 0854.57
2009/04/23 13:29:00.0    -197   -362    268    413    492 208.5  36.0  34172  289.78 0854.57
2009/04/23 13:29:00.1    -283   -369    205    466    509 217.5  25.2  34172  289.79 0854.57
2009/04/23 13:29:00.2    -228   -424    169    482    510 208.3  20.2  34170  289.73 0854.57
2009/04/23 13:29:00.3    -150   -501    263    524    586 196.7  28.7  34178  289.89 0854.57
2009/04/23 13:29:00.4     -70   -559     37    564    566 187.2   3.8  34170  289.74 0854.57
2009/04/23 13:29:00.5     -22   -574     59    575    579 182.2   5.9  34166  289.68 0854.57
2009/04/23 13:29:00.6      56   -545     47    548    551 174.1   5.0  34172  289.77 0854.57
2009/04/23 13:29:00.7      52   -383    227    387    448 172.2  33.3  34174  289.82 0854.57
2009/04/23 13:29:00.8      14   -320    145    321    352 177.4  26.0  34178  289.86 0854.57
2009/04/23 13:29:00.9      71   -214    162    226    278 161.5  39.3  34178  289.86 0854.57
2009/04/23 13:29:01.0     202   -205    216    288    360 135.5  40.6  34172  289.79 0854.57
2009/04/23 13:29:01.1     249   -242    123    348    369 134.1  20.2  34166  289.67 0854.57
2009/04/23 13:29:01.2     126   -412     40    431    434 163.0   5.3  34164  289.65 0854.57
2009/04/23 13:29:01.3     219   -393    230    450    505 150.9  29.2  34168  289.71 0854.57
2009/04/23 13:29:01.4     192   -269    136    331    357 144.5  23.5  34166  289.69 0854.61
2009/04/23 13:29:01.5     -69   -289    119    298    320 193.6  22.9  34162  289.61 0854.61
2009/04/23 13:29:01.6     -47   -321    133    325    351 188.5  23.5  34164  289.65 0854.61
2009/04/23 13:29:01.7      15   -497    129    498    515 178.2  14.5  34166  289.69 0854.61
2009/04/23 13:29:01.8      87   -596    176    603    629 171.6  16.3  34168  289.70 0854.61
2009/04/23 13:29:01.9     -42   -505    209    507    548 184.9  23.8  34170  289.74 0854.61
2009/04/23 13:29:02.0    -133   -424     33    445    447 197.5   4.3  34164  289.65 0854.61
2009/04/23 13:29:02.1       8   -265    113    266    289 178.2  24.6  34168  289.71 0854.61
2009/04/23 13:29:02.2     -61     -4      3     62     63 265.6   2.9  34174  289.80 0854.61
2009/04/23 13:29:02.3     -95     67    -19    117    119 305.1  -9.3  34174  289.80 0854.61
2009/04/23 13:29:02.4    -112      5   -165    113    199 272.6 -67.0  34168  289.72 0854.61
2009/04/23 13:29:02.5    -150    -11    -93    151    177 265.7 -39.2  34174  289.82 0854.61
2009/04/23 13:29:02.6    -219      0   -128    220    254 270.0 -37.1  34172  289.78 0854.61
2009/04/23 13:29:02.7     -90   -224   -148    242    283 201.9 -38.8  34174  289.81 0854.61
2009/04/23 13:29:02.8    -141   -296   -118    329    350 205.5 -19.8  34170  289.74 0854.61
2009/04/23 13:29:02.9     -64   -238   -111    247    270 195.1 -30.6  34172  289.76 0854.61
2009/04/23 13:29:03.0     -16   -266    -54    267    273 183.5 -11.5  34172  289.76 0854.61
2009/04/23 13:29:03.1    -242   -252     10    350    351 223.8   1.7  34172  289.76 0854.61
2009/04/23 13:29:03.2    -227   -200     32    303    305 228.6   6.1  34170  289.75 0854.61
2009/04/23 13:29:03.3    -149   -138     98    204    226 227.3  27.3  34174  289.80 0854.61
2009/04/23 13:29:03.4     -70   -109     35    130    135 212.6  15.2  34176  289.85 0854.61
2009/04/23 13:29:03.5      59     23     44     64     77  68.3  37.6  34178  289.89 0854.61
2009/04/23 13:29:03.6     110    -24    153    113    190 102.8  60.0  34174  289.82 0854.61
2009/04/23 13:29:03.7      19    -38    210     43    214 152.8  89.0  34182  289.94 0854.61
2009/04/23 13:29:03.8     131    -61    192    145    240 115.2  59.4  34172  289.77 0854.61
2009/04/23 13:29:03.9     199    -65    199    210    289 108.2  48.5  34176  289.83 0854.61
2009/04/23 13:29:04.0     191    -69    198    204    284 110.0  49.2  34180  289.90 0854.61
2009/04/23 13:29:04.1     178     21    229    180    291  83.2  57.9  34176  289.83 0854.61
2009/04/23 13:29:04.2     298     64    187    305    357  77.8  34.4  34176  289.84 0854.61
2009/04/23 13:29:04.3     311    109    201    330    386  70.6  34.3  34172  289.77 0854.61
2009/04/23 13:29:04.4     346    -27    120    348    369  94.5  19.1  34174  289.81 0854.61
2009/04/23 13:29:04.6     176   -136    186    223    290 127.8  43.8  34176  289.83 0854.61
2009/04/23 13:29:04.6     113    -89    141    145    202 128.2  49.4  34176  289.85 0854.61
2009/04/23 13:29:04.7      91    -30    147     97    176 108.6  63.6  34176  289.84 0854.61
2009/04/23 13:29:04.9      28     -7    113     29    116 105.1  84.9  34176  289.85 0854.61
2009/04/23 13:29:05.0     -86      3     87     87    123 272.1  50.1  34178  289.87 0854.61
2009/04/23 13:29:05.0    -117    -85      7    145    146 234.1   2.8  34176  289.85 0854.61
2009/04/23 13:29:05.2    -116    -29   -102    120    157 255.8 -49.5  34176  289.85 0854.61
2009/04/23 13:29:05.3     -60     95    -19    113    115 327.5  -9.8  34166  289.69 0854.61
2009/04/23 13:29:05.4      15    196     69    197    209   4.5  19.4  34170  289.75 0854.61
2009/04/23 13:29:05.5     -83    248     41    262    266 341.3   8.9  34178  289.88 0854.60
2009/04/23 13:29:05.6    -156    164     80    227    241 316.3  19.4  34178  289.86 0854.60
2009/04/23 13:29:05.7     -54     17    193     57    201 288.2  83.1  34182  289.96 0854.60
2009/04/23 13:29:05.8    -219     93    165    239    290 293.1  37.6  34182  289.93 0854.60
2009/04/23 13:29:05.9       9     46    108     47    117  11.6  75.0  34180  289.92 0854.60
2009/04/23 13:29:06.0    -117     39     12    124    125 288.4   5.9  34180  289.92 0854.60
2009/04/23 13:29:06.1    -287    114     54    309    314 291.7  10.0  34172  289.76 0854.60
2009/04/23 13:29:06.2    -247    194     -6    315    316 308.2  -1.3  34176  289.85 0854.60
2009/04/23 13:29:06.3    -451     49      7    454    455 276.2   0.9  34184  289.97 0854.60
2009/04/23 13:29:06.4    -436   -159     77    465    472 250.0   9.4  34178  289.89 0854.60
2009/04/23 13:29:06.5    -394   -211     45    448    451 241.8   5.8  34188  290.04 0854.60
2009/04/23 13:29:06.6    -308   -131    127    335    358 246.9  21.7  34182  289.93 0854.60
2009/04/23 13:29:06.7    -298    -78    114    309    329 255.2  21.0  34180  289.92 0854.60
2009/04/23 13:29:06.8    -165     -3     15    166    167 268.7   5.2  34178  289.87 0854.60
2009/04/23 13:29:06.9    -144    -88    155    169    229 238.5  47.7  34176  289.84 0854.60
2009/04/23 13:29:07.0    -274   -292    199    401    447 223.2  28.2  34174  289.80 0854.60
2009/04/23 13:29:07.1    -409   -417    158    585    607 224.4  15.1  34168  289.71 0854.60
2009/04/23 13:29:07.2    -362   -483    103    604    613 216.9   9.7  34178  289.88 0854.60
2009/04/23 13:29:07.3    -150   -374    105    404    418 201.9  14.7  34162  289.60 0854.60
2009/04/23 13:29:07.4    -191   -501    -97    537    546 200.9 -10.3  34172  289.79 0854.60
2009/04/23 13:29:07.5    -189   -452   -314    491    582 202.7 -40.0  34164  289.65 0854.55
2009/04/23 13:29:07.6    -165   -107    -62    197    207 236.9 -17.5  34184  289.99 0854.55
2009/04/23 13:29:07.7     -10   -320   -208    321    382 181.9 -40.1  34178  289.89 0854.55
2009/04/23 13:29:07.8     202    -44     64    207    217 102.4  17.3  34162  289.62 0854.55
2009/04/23 13:29:07.9     132    141    -57    194    203  43.2 -16.4  34178  289.87 0854.55
2009/04/23 13:29:08.0    -159     76   -137    177    223 295.8 -46.1  34162  289.62 0854.55
2009/04/23 13:29:08.1    -383    165   -162    418    448 293.3 -26.7  34186  290.02 0854.55
2009/04/23 13:29:08.2    -134     35   -300    139    330 284.6 -77.9  34190  290.09 0854.55
2009/04/23 13:29:08.3      92   -276   -259    292    390 161.5 -50.7  34190  290.08 0854.55
2009/04/23 13:29:08.4    -242   -204   -123    317    340 229.8 -26.7  34178  289.89 0854.55
2009/04/23 13:29:08.5    -322     44   -117    326    346 277.9 -24.8  34176  289.84 0854.55
2009/04/23 13:29:08.6    -281    -74    -99    291    307 255.2 -23.3  34176  289.85 0854.55
2009/04/23 13:29:08.7    -239   -328   -232    407    468 216.1 -36.7  34176  289.85 0854.55
2009/04/23 13:29:08.8    -111    -36   -131    117    175 251.8 -57.9  34182  289.94 0854.55
2009/04/23 13:29:08.9    -378    243   -152    450    476 302.8 -18.7  34178  289.86 0854.55
2009/04/23 13:29:09.0    -380    141   -112    406    422 290.4 -15.4  34172  289.78 0854.55
2009/04/23 13:29:09.1    -299    152    -62    336    342 297.0 -10.5  34178  289.87 0854.55
2009/04/23 13:29:09.2    -345     70    -38    353    356 281.6  -6.2  34172  289.76 0854.55
2009/04/23 13:29:09.3    -367    153     41    398    401 292.7   5.9  34174  289.81 0854.55
2009/04/23 13:29:09.4    -192    197    118    276    300 315.7  24.6  34180  289.90 0854.55
2009/04/23 13:29:09.5    -277    140    173    311    355 296.9  31.5  34176  289.84 0854.51
2009/04/23 13:29:09.6    -205     34    181    208    275 279.5  45.8  34178  289.88 0854.51
2009/04/23 13:29:09.7       2    159    137    160    210   0.9  44.8  34180  289.92 0854.51
2009/04/23 13:29:09.8     112    238    188    264    324  25.2  39.1  34176  289.85 0854.51
2009/04/23 13:29:09.9     326    328     57    463    467  44.8   7.1  34176  289.83 0854.51
2009/04/23 13:29:10.0     342    317    -18    467    468  47.2  -2.3  34198  290.22 0854.51
2009/04/23 13:29:10.1     352    429     87    555    562  39.4   9.0  34228  290.74 0854.51
2009/04/23 13:29:10.2     630    308    163    702    721  63.9  13.1  34186  290.00 0854.51
2009/04/23 13:29:10.3     468     13    -25    469    470  88.3  -3.1  34182  289.95 0854.51
2009/04/23 13:29:10.4     402    -64   -228    408    467  99.1 -36.3  34182  289.94 0854.51
2009/04/23 13:29:10.5     589    382    230    703    740  57.0  18.2  34172  289.79 0854.51
2009/04/23 13:29:10.6     587    328    383    673    774  60.8  32.2  34182  289.95 0854.51
2009/04/23 13:29:10.7     576    409    260    707    753  54.6  21.0  34170  289.75 0854.51
2009/04/23 13:29:10.8     616    193     75    646    651  72.6   6.7  34164  289.65 0854.51
2009/04/23 13:29:10.9     595    108   -167    605    627  79.6 -20.1  34158  289.55 0854.51
2009/04/23 13:29:11.0     224    219    114    314    335  45.6  19.9  34182  289.95 0854.51
2009/04/23 13:29:11.1     277    407    242    493    549  34.3  28.2  34206  290.35 0854.51
2009/04/23 13:29:11.2     247    448    149    512    534  28.9  16.3  34198  290.21 0854.51
2009/04/23 13:29:11.3     134    263     41    296    299  27.1   8.0  34174  289.81 0854.51
2009/04/23 13:29:11.4     -41    222    115    226    253 349.5  29.1  34204  290.31 0854.51
2009/04/23 13:29:11.5     -72    170    146    185    235 337.1  42.4  34204  290.31 0854.51
2009/04/23 13:29:11.6     249    187     71    312    321  53.2  12.9  34200  290.24 0854.51
2009/04/23 13:29:11.7     334    211     20    396    397  57.7   2.9  34188  290.03 0854.51
2009/04/23 13:29:11.8     323    151   -110    357    374  64.9 -17.2  34194  290.15 0854.51
2009/04/23 13:29:11.9     291    232     16    373    374  51.4   2.5  34240  290.94 0854.51
2009/04/23 13:29:12.0     200    213     74    293    303  43.3  14.3  34242  290.95 0854.51
2009/04/23 13:29:12.1     110    110     34    156    160  45.1  12.4  34244  290.99 0854.51
2009/04/23 13:29:12.2      89      1      1     90     91  89.2   1.2  34224  290.65 0854.51
2009/04/23 13:29:12.3     150    -54     15    160    161 110.0   5.4  34240  290.92 0854.51
2009/04/23 13:29:12.4     225    149     89    271    286  56.5  18.1  34258  291.24 0854.51
2009/04/23 13:29:12.5     197    192    165    276    321  45.8  33.7  34254  291.16 0854.51
2009/04/23 13:29:12.6     263    125    112    292    312  64.5  22.0  34242  290.97 0854.51
2009/04/23 13:29:12.7     428    194    133    471    490  65.6  15.8  34212  290.44 0854.51
2009/04/23 13:29:12.8     321    361     60    484    488  41.7   7.1  34212  290.45 0854.51
2009/04/23 13:29:12.9     292    114    109    314    333  68.6  19.2  34192  290.10 0854.51
2009/04/23 13:29:13.0     289    104     24    308    310  70.1   4.6  34196  290.19 0854.51
2009/04/23 13:29:13.1     301   -121    113    325    345 111.9  19.2  34192  290.11 0854.51
2009/04/23 13:29:13.2     351    -81    186    361    406 103.0  29.3  34188  290.04 0854.51
2009/04/23 13:29:13.3     232   -197    212    305    371 130.4  38.3  34198  290.23 0854.51
2009/04/23 13:29:13.4     114   -215    173    244    299 152.1  38.8  34186  290.02 0854.51
2009/04/23 13:29:13.5     172   -363    280    402    489 154.6  38.5  34194  290.16 0854.50
2009/04/23 13:29:13.6     125   -376    262    397    475 161.5  36.5  34202  290.29 0854.50
2009/04/23 13:29:13.7      61   -313    295    320    435 168.9  47.6  34200  290.25 0854.50
2009/04/23 13:29:13.8     223   -299    197    374    422 143.3  30.1  34184  289.97 0854.50
2009/04/23 13:29:13.9     260   -132    197    292    352 116.9  37.3  34180  289.91 0854.50
2009/04/23 13:29:14.0     268   -111    221    291    365 112.6  41.2  34184  289.98 0854.50
2009/04/23 13:29:14.1     141     17    119    143    186  83.0  43.8  34186  290.01 0854.50
2009/04/23 13:29:14.2     109     32    140    114    180  73.6  56.4  34188  290.06 0854.50
2009/04/23 13:29:14.3     324    266     -9    420    421  50.7  -1.3  34182  289.94 0854.50
2009/04/23 13:29:14.4     139    295    -94    327    340  25.3 -20.9  34208  290.40 0854.50
2009/04/23 13:29:14.5     139    348     19    375    376  21.8   2.9  34220  290.59 0854.50
2009/04/23 13:29:14.6     180    280    229    334    404  32.7  37.7  34210  290.43 0854.50
2009/04/23 13:29:14.7     291    263    141    393    417  48.0  20.4  34208  290.38 0854.50
2009/04/23 13:29:14.8     107    294     35    314    317  20.1   6.5  34212  290.46 0854.50
2009/04/23 13:29:14.9     119    233    130    262    292  27.1  28.2  34218  290.56 0854.50
2009/04/23 13:29:15.0      62    261    145    269    305  13.4  30.8  34214  290.49 0854.50
2009/04/23 13:29:15.1     132     72    116    151    190  61.2  41.4  34204  290.31 0854.50
2009/04/23 13:29:15.2     154     12     72    155    170  85.2  26.6  34200  290.26 0854.50
2009/04/23 13:29:15.3     203    129   -123    241    270  57.5 -33.6  34206  290.36 0854.50
2009/04/23 13:29:15.4     283    265   -154    389    418  46.9 -27.2  34196  290.19 0854.50
2009/04/23 13:29:15.5     165    345     46    383    386  25.6   6.9  34214  290.49 0854.49
2009/04/23 13:29:15.6     529    184    122    561    575  70.8  12.3  34196  290.19 0854.49
2009/04/23 13:29:15.7     450    138    235    471    526  72.9  28.5  34198  290.22 0854.49
2009/04/23 13:29:15.8     129     40    253    136    287  72.7  69.6  34220  290.59 0854.49
2009/04/23 13:29:15.9     149    213    124    260    288  35.0  27.3  34210  290.41 0854.49
2009/04/23 13:29:16.0     296    374    230    478    530  38.4  27.4  34172  289.76 0854.49
2009/04/23 13:29:16.1     303    110    142    323    352  70.0  25.2  34184  289.99 0854.49
2009/04/23 13:29:16.2     365     68    190    372    417  79.4  29.2  34180  289.90 0854.49
2009/04/23 13:29:16.3     197     15    215    198    292  85.6  52.5  34186  290.00 0854.49
2009/04/23 13:29:16.4      91    -67    160    114    196 126.4  60.8  34192  290.13 0854.49
2009/04/23 13:29:16.5     342    -87    247    353    430 104.3  38.5  34196  290.19 0854.46
2009/04/23 13:29:16.6     249    -77    324    261    416 107.3  57.3  34198  290.23 0854.46
2009/04/23 13:29:16.7     308   -137    204    338    394 114.0  34.0  34194  290.16 0854.46
2009/04/23 13:29:16.8     342    -32    214    344    405  95.4  35.0  34198  290.21 0854.46
2009/04/23 13:29:16.9     296    -22    202    297    359  94.3  37.4  34198  290.23 0854.46
2009/04/23 13:29:17.0     277      8    260    278    380  88.3  48.0  34202  290.30 0854.46
2009/04/23 13:29:17.1      41     15    201     44    205  69.2  88.5  34202  290.30 0854.46
2009/04/23 13:29:17.2     232     74    295    244    382  72.3  56.4  34202  290.27 0854.46
2009/04/23 13:29:17.3     454    151    304    479    567  71.6  35.5  34198  290.21 0854.46
2009/04/23 13:29:17.4     407    224    234    465    520  61.1  28.7  34196  290.17 0854.46
2009/04/23 13:29:17.5     364    337    246    497    554  47.2  28.2  34194  290.14 0854.46
2009/04/23 13:29:17.6     321    330    195    461    500  44.2  24.3  34230  290.76 0854.46
2009/04/23 13:29:17.7     337    300    205    452    496  48.3  26.2  34222  290.62 0854.46
2009/04/23 13:29:17.8     275    393     98    480    491  35.0  11.6  34218  290.56 0854.46
2009/04/23 13:29:17.9     322    383     33    501    503  40.1   3.8  34208  290.39 0854.46
2009/04/23 13:29:18.0     274    351     62    446    451  38.0   8.0  34270  291.45 0854.46
2009/04/23 13:29:18.1     193    445     45    486    489  23.5   5.3  34262  291.30 0854.46
2009/04/23 13:29:18.2     196    443    -25    485    486  23.9  -3.0  34232  290.78 0854.46
2009/04/23 13:29:18.3     176    343     -3    386    387  27.2  -0.5  34228  290.74 0854.46
2009/04/23 13:29:18.4     186    245     -6    308    309  37.2  -1.2  34228  290.71 0854.46
2009/04/23 13:29:18.5      49    240     -3    246    247  11.6  -0.7  34244  291.00 0854.46
2009/04/23 13:29:18.6     113    191    -15    222    223  30.7  -3.9  34266  291.37 0854.46
2009/04/23 13:29:18.7      23    153    -87    155    177   8.9 -36.0  34246  291.03 0854.46
2009/04/23 13:29:18.8      -5     69    -35     70     78 355.5 -31.7  34278  291.59 0854.46
2009/04/23 13:29:18.9       8    151    -80    152    171   3.1 -34.2  34258  291.23 0854.46
2009/04/23 13:29:19.0      62     84   -100    105    145  36.5 -53.4  34250  291.09 0854.46
2009/04/23 13:29:19.1      34     15    -57     38     68  66.5 -69.0  34242  290.98 0854.46
2009/04/23 13:29:19.2      43    -44     -1     62     63 135.9  -1.3  34250  291.09 0854.46
2009/04/23 13:29:19.3     139   -113     42    180    185 129.1  13.2  34252  291.13 0854.46
2009/04/23 13:29:19.4     181    -83    151    200    250 114.8  40.9  34244  290.99 0854.46
2009/04/23 13:29:19.5     124    -47     82    133    156 110.8  35.5  34230  290.75 0854.46
2009/04/23 13:29:19.6      95     72    136    120    181  52.7  54.0  34224  290.65 0854.46
2009/04/23 13:29:19.7      24     64    134     69    150  20.9  70.8  34232  290.81 0854.46
2009/04/23 13:29:19.8     253     46    128    258    288  79.6  28.2  34216  290.53 0854.46
2009/04/23 13:29:19.9     294    139    149    326    358  64.7  26.3  34220  290.59 0854.46
2009/04/23 13:29:20.0      69     92    194    116    226  37.0  66.4  34238  290.89 0854.46
2009/04/23 13:29:20.1      66    -83    107    107    151 141.7  50.1  34224  290.67 0854.46
2009/04/23 13:29:20.2     123    -78    131    146    196 122.4  46.4  34198  290.23 0854.46
2009/04/23 13:29:20.3     -47      8    148     48    155 280.6  80.7  34214  290.50 0854.46
2009/04/23 13:29:20.4     -33   -142     99    146    176 193.4  37.3  34222  290.62 0854.46
2009/04/23 13:29:20.5     103   -217    175    241    297 154.6  39.7  34208  290.37 0854.46
2009/04/23 13:29:20.6      59   -273     50    280    285 167.7  10.1  34206  290.36 0854.46
2009/04/23 13:29:20.7      77   -193    193    208    283 158.2  47.9  34200  290.24 0854.46
2009/04/23 13:29:20.8      94   -314    227    328    398 163.2  37.9  34198  290.20 0854.46
2009/04/23 13:29:20.9     -16   -373    207    374    427 182.6  31.4  34206  290.34 0854.46
2009/04/23 13:29:21.0     -51   -454    265    457    528 186.5  32.8  34204  290.32 0854.46
2009/04/23 13:29:21.1      41   -276    216    280    353 171.5  41.6  34200  290.25 0854.46
2009/04/23 13:29:21.2      29   -247    148    249    289 173.3  33.5  34202  290.29 0854.46
2009/04/23 13:29:21.3     -81   -136    189    159    246 210.7  55.6  34202  290.28 0854.46
2009/04/23 13:29:21.4     -92   -257    209    274    344 199.8  41.3  34190  290.07 0854.46
2009/04/23 13:29:21.5    -245   -261    148    359    388 223.2  23.5  34190  290.08 0854.46
2009/04/23 13:29:21.6    -231   -225    169    323    364 225.8  29.8  34198  290.20 0854.46
2009/04/23 13:29:21.7      31   -134    102    138    171 166.7  40.4  34198  290.23 0854.46
2009/04/23 13:29:21.8      79     -3     87     80    118  92.6  52.2  34202  290.28 0854.46
2009/04/23 13:29:21.9      92    -53     20    107    109 120.2  11.0  34196  290.19 0854.46
2009/04/23 13:29:22.0     113    -82     13    140    141 125.9   5.4  34198  290.21 0854.46
2009/04/23 13:29:22.1      36      6    -93     37    100  80.3 -81.5  34198  290.23 0854.46
2009/04/23 13:29:22.2     -74    -81    -95    110    145 222.3 -49.8  34228  290.74 0854.46
2009/04/23 13:29:22.3      58    -91     91    109    141 147.4  43.8  34198  290.21 0854.46
2009/04/23 13:29:22.4      32     11    114     35    119  70.0  82.7  34204  290.31 0854.46
2009/04/23 13:29:22.5     -50    -16    -15     53     55 251.8 -20.7  34204  290.31 0854.47
2009/04/23 13:29:22.6      32    -21    -10     39     41 124.2 -14.5  34200  290.26 0854.47
2009/04/23 13:29:22.7     116   -165     -4    202    203 144.8  -1.3  34190  290.09 0854.47
2009/04/23 13:29:22.8     110   -207     83    235    250 151.9  19.6  34190  290.07 0854.47
2009/04/23 13:29:22.9      68   -143     73    159    174 154.6  26.6  34196  290.19 0854.47
2009/04/23 13:29:23.0      26   -197   -118    199    231 172.4 -37.9  34212  290.47 0854.47
2009/04/23 13:29:23.1      82   -156    -51    177    184 152.4 -21.0  34206  290.35 0854.47
2009/04/23 13:29:23.2     -18   -187     76    188    202 185.6  23.0  34208  290.38 0854.47
2009/04/23 13:29:23.3     -99   -145     56    176    185 214.3  17.9  34212  290.47 0854.47
2009/04/23 13:29:23.4    -198   -152    112    250    273 232.5  25.9  34210  290.41 0854.47
2009/04/23 13:29:23.5    -193    -71    131    206    244 249.6  35.5  34202  290.28 0854.47
2009/04/23 13:29:23.6    -130   -107    122    169    208 230.5  39.5  34206  290.36 0854.47
2009/04/23 13:29:23.7     -79    -43    118     91    149 241.1  58.5  34206  290.35 0854.47
2009/04/23 13:29:23.8     -39    -28    157     49    164 234.0  81.8  34216  290.53 0854.47
2009/04/23 13:29:23.9      34    -84    116     91    147 157.7  57.5  34210  290.43 0854.47
2009/04/23 13:29:24.0     -66   -202     77    213    226 198.3  20.9  34206  290.36 0854.47
2009/04/23 13:29:24.1    -126   -169     76    211    224 216.7  20.4  34204  290.33 0854.47
2009/04/23 13:29:24.2     -99   -237     46    258    263 202.7  10.1  34204  290.32 0854.47
2009/04/23 13:29:24.3    -114   -206    100    236    256 208.9  24.2  34206  290.36 0854.47
2009/04/23 13:29:24.4    -145   -178    209    230    310 219.2  47.0  34216  290.53 0854.47
2009/04/23 13:29:24.5    -203   -160     90    259    275 231.6  19.2  34214  290.49 0854.51
2009/04/23 13:29:24.6    -193   -205    186    282    337 223.2  36.5  34216  290.53 0854.51
2009/04/23 13:29:24.7    -219   -227    158    316    353 223.9  28.6  34208  290.40 0854.51
2009/04/23 13:29:24.8    -231   -217    214    317    382 226.8  37.4  34210  290.43 0854.51
2009/04/23 13:29:24.9    -257   -205    144    330    360 231.4  25.1  34206  290.35 0854.51
2009/04/23 13:29:25.0    -322   -199     89    379    390 238.2  13.3  34218  290.55 0854.51
2009/04/23 13:29:25.1    -152   -239    199    284    346 212.6  38.5  34188  290.05 0854.51
2009/04/23 13:29:25.2    -162   -322    182    361    404 206.7  28.6  34198  290.20 0854.51
2009/04/23 13:29:25.3     -96   -289    174    305    351 198.5  32.3  34198  290.21 0854.51
2009/04/23 13:29:25.4    -245   -260    110    358    375 223.2  17.2  34210  290.43 0854.51
2009/04/23 13:29:25.5    -153   -311    140    347    374 206.2  23.1  34202  290.28 0854.51
2009/04/23 13:29:25.6    -190   -257    197    320    375 216.5  34.6  34206  290.35 0854.51
2009/04/23 13:29:25.7    -338   -318    125    465    482 226.8  15.1  34198  290.22 0854.51
2009/04/23 13:29:25.8    -197   -298    129    358    381 213.5  19.9  34208  290.37 0854.51
2009/04/23 13:29:25.9     -57   -277    126    284    310 191.8  25.3  34204  290.32 0854.51
2009/04/23 13:29:26.0    -192   -327    151    380    408 210.4  22.8  34204  290.32 0854.51
2009/04/23 13:29:26.1    -200   -245    106    317    335 219.3  18.5  34198  290.23 0854.51
2009/04/23 13:29:26.2    -205   -279    133    347    371 216.3  22.3  34204  290.33 0854.51
2009/04/23 13:29:26.3    -181   -283    211    337    397 212.6  35.2  34206  290.35 0854.51
2009/04/23 13:29:26.4    -101   -261    141    280    313 201.2  28.7  34188  290.03 0854.51
2009/04/23 13:29:26.5    -164   -213    210    270    342 217.6  42.0  34198  290.22 0854.52
2009/04/23 13:29:26.6    -127   -215    206    250    323 210.7  43.7  34196  290.19 0854.52
2009/04/23 13:29:26.7     -89   -245    213    261    336 200.0  43.5  34196  290.19 0854.52
2009/04/23 13:29:26.8     -40   -286    176    289    338 188.0  34.2  34198  290.20 0854.52
2009/04/23 13:29:26.9     -34   -273     33    276    279 187.2   6.9  34198  290.20 0854.52
2009/04/23 13:29:27.0      -4   -292     68    293    301 180.9  13.1  34200  290.24 0854.52
2009/04/23 13:29:27.1     -23   -270     98    272    290 184.9  19.9  34198  290.20 0854.52
2009/04/23 13:29:27.2     -72   -265    121    275    300 195.2  25.2  34194  290.15 0854.52
2009/04/23 13:29:27.3    -171   -268    186    319    369 212.6  33.1  34194  290.16 0854.52
2009/04/23 13:29:27.4    -297   -245    210    386    439 230.5  30.9  34204  290.31 0854.52
2009/04/23 13:29:27.5    -362   -227     83    428    436 237.9  11.0  34194  290.14 0854.52
2009/04/23 13:29:27.6    -429   -169    -33    462    464 248.4  -4.1  34194  290.14 0854.52
2009/04/23 13:29:27.7    -475    -49    -31    478    479 264.0  -3.7  34190  290.08 0854.52
2009/04/23 13:29:27.8    -228     17     65    229    239 274.4  15.8  34192  290.10 0854.52
2009/04/23 13:29:27.9    -240    -45     25    245    247 259.2   5.9  34190  290.07 0854.52
2009/04/23 13:29:28.0    -195   -187     85    271    285 226.2  17.4  34190  290.09 0854.52
2009/04/23 13:29:28.1    -147   -207     88    254    269 215.4  19.2  34192  290.12 0854.52
2009/04/23 13:29:28.2     -31   -253    146    255    293 187.1  32.4  34184  289.98 0854.52
2009/04/23 13:29:28.3    -115   -136    -36    179    183 220.1 -11.5  34190  290.08 0854.52
2009/04/23 13:29:28.4    -222   -148      8    268    269 236.3   1.7  34194  290.14 0854.49
2009/04/23 13:29:28.5    -237   -155    -37    284    287 236.7  -7.5  34202  290.27 0854.49
2009/04/23 13:29:28.6    -124   -219    -80    252    265 209.6 -17.6  34192  290.12 0854.49
2009/04/23 13:29:28.7      -4   -279     38    280    283 181.0   7.8  34192  290.10 0854.49
2009/04/23 13:29:28.8      64   -272     -5    280    281 166.7  -1.1  34192  290.12 0854.49
2009/04/23 13:29:28.9     -13   -296     82    297    309 182.7  15.6  34194  290.14 0854.49
2009/04/23 13:29:29.0      -9   -209     45    210    215 182.7  12.2  34190  290.08 0854.49
2009/04/23 13:29:29.1      -2   -187     -4    188    189 180.9  -1.3  34190  290.08 0854.49
2009/04/23 13:29:29.3      62   -235    -22    244    246 165.1  -5.4  34190  290.07 0854.49
2009/04/23 13:29:29.3      77   -180    -17    196    197 156.8  -5.2  34182  289.94 0854.49
2009/04/23 13:29:29.4     113   -192     36    224    228 149.5   9.3  34192  290.11 0854.49
2009/04/23 13:29:29.5      81   -179    -10    197    198 155.5  -3.1  34196  290.18 0854.49
2009/04/23 13:29:29.6     106   -137    -31    174    177 142.2 -10.1  34194  290.14 0854.49
2009/04/23 13:29:29.7     209    -83      4    225    226 111.7   1.2  34186  290.02 0854.49
2009/04/23 13:29:29.8     262   -123     61    290    297 115.1  12.0  34192  290.10 0854.49
2009/04/23 13:29:29.9     215   -102     84    238    253 115.4  19.4  34190  290.09 0854.49
2009/04/23 13:29:30.0     192    -79    108    208    234 112.4  29.5  34192  290.13 0854.49
2009/04/23 13:29:30.1     163    -62    126    175    215 111.1  39.5  34192  290.13 0854.49
2009/04/23 13:29:30.2      99    -70    150    122    193 125.1  56.4  34192  290.11 0854.49
2009/04/23 13:29:30.3      28    -35     97     46    107 141.3  73.1  34192  290.11 0854.49
2009/04/23 13:29:30.5      93   -232     98    251    269 158.2  22.3  34188  290.05 0854.51
2009/04/23 13:29:30.5     119   -267    100    293    310 155.9  18.9  34188  290.03 0854.51
2009/04/23 13:29:30.7     132   -206    142    245    283 147.3  32.9  34188  290.03 0854.51
2009/04/23 13:29:30.7     151   -229    138    275    307 146.6  28.5  34184  289.98 0854.51
2009/04/23 13:29:30.8     138   -314    115    344    363 156.3  18.6  34184  289.98 0854.51
2009/04/23 13:29:31.0     218   -231    101    318    334 136.7  17.7  34182  289.94 0854.51
2009/04/23 13:29:31.1     203    -72    135    216    254 109.5  35.2  34180  289.92 0854.51
2009/04/23 13:29:31.2     199    -96    190    221    291 115.8  45.1  34186  290.00 0854.51
2009/04/23 13:29:31.3     183   -236    160    299    339 142.2  30.5  34184  289.97 0854.51
2009/04/23 13:29:31.4     148   -241    101    284    302 148.4  19.6  34184  289.97 0854.51
2009/04/23 13:29:31.5     158   -204     81    259    272 142.2  17.4  34182  289.95 0854.51
2009/04/23 13:29:31.6     160   -289    101    331    347 151.0  17.1  34178  289.87 0854.51
2009/04/23 13:29:31.7     139   -195     87    240    256 144.4  19.9  34182  289.93 0854.51
2009/04/23 13:29:31.8     140   -172     53    222    229 140.8  13.5  34178  289.89 0854.51
2009/04/23 13:29:31.9      88   -178     67    199    211 153.5  18.6  34180  289.92 0854.51
2009/04/23 13:29:32.0      36   -177     83    181    199 168.4  26.4  34180  289.91 0854.51
2009/04/23 13:29:32.1     107   -234     75    258    269 155.3  16.4  34174  289.80 0854.51
2009/04/23 13:29:32.2     103   -189     59    216    224 151.3  15.3  34174  289.80 0854.51
2009/04/23 13:29:32.3     113   -190     77    222    236 149.3  19.2  34174  289.82 0854.51
2009/04/23 13:29:32.4     135   -151     88    203    221 138.3  24.9  34174  289.82 0854.51
2009/04/23 13:29:32.5      91   -143    105    170    199 147.4  34.8  34176  289.85 0854.51
2009/04/23 13:29:32.6      41   -153     93    159    184 164.8  33.1  34176  289.84 0854.51
2009/04/23 13:29:32.7      13   -132     83    133    156 174.2  35.0  34176  289.85 0854.51
2009/04/23 13:29:32.8       0   -114     84    115    142 180.5  39.7  34182  289.94 0854.51
2009/04/23 13:29:32.9      72   -131     82    150    170 151.1  31.0  34176  289.85 0854.51
2009/04/23 13:29:33.0      36   -107     84    113    140 161.3  40.1  34188  290.04 0854.51
2009/04/23 13:29:33.1      45    -94     91    105    138 154.6  45.8  34190  290.09 0854.51
2009/04/23 13:29:33.2      34   -111     77    117    140 163.1  36.5  34180  289.91 0854.51
2009/04/23 13:29:33.3      64   -177     69    189    201 160.0  21.0  34172  289.79 0854.51
2009/04/23 13:29:33.4      66   -171     53    184    192 158.8  16.3  34172  289.77 0854.51
2009/04/23 13:29:33.5      37   -139     72    145    161 164.9  28.2  34172  289.79 0854.51
2009/04/23 13:29:33.6      42   -128     47    135    144 161.7  19.4  34172  289.79 0854.51
2009/04/23 13:29:33.7      39   -115     57    122    134 161.3  27.1  34174  289.80 0854.51
2009/04/23 13:29:33.8      10   -138     51    139    148 175.6  21.0  34174  289.80 0854.51
2009/04/23 13:29:33.9      46   -170     91    177    199 164.9  29.3  34174  289.82 0854.51
2009/04/23 13:29:34.0      31   -232     98    235    254 172.2  24.1  34180  289.90 0854.51
2009/04/23 13:29:34.1       4   -235    113    236    261 178.9  27.3  34180  289.92 0854.51
2009/04/23 13:29:34.2      46   -269    130    273    302 170.3  27.3  34180  289.92 0854.51
2009/04/23 13:29:34.3      75   -307    158    317    354 166.2  28.5  34178  289.86 0854.51
2009/04/23 13:29:34.4     119   -352    121    372    392 161.3  18.0  34170  289.74 0854.51
2009/04/23 13:29:34.5     103   -338    136    354    379 163.1  22.2  34174  289.81 0854.50
2009/04/23 13:29:34.6      76   -329    125    338    360 166.9  21.0  34174  289.82 0854.50
2009/04/23 13:29:34.7     105   -309    106    327    344 161.1  18.0  34178  289.87 0854.50
2009/04/23 13:29:34.8      97   -266    119    284    307 160.0  24.1  34176  289.83 0854.50
2009/04/23 13:29:34.9       4   -260     87    261    276 179.0  18.4  34188  290.05 0854.50
2009/04/23 13:29:35.0      54   -292    107    297    315 169.5  20.7  34182  289.95 0854.50
2009/04/23 13:29:35.1      34   -258    130    261    291 172.4  28.2  34180  289.92 0854.50
2009/04/23 13:29:35.2      14   -211     81    212    226 176.2  22.0  34184  289.97 0854.50
2009/04/23 13:29:35.3      54   -246     44    252    256 167.6  10.1  34188  290.03 0854.50
2009/04/23 13:29:35.4      68   -227      4    237    238 163.3   1.0  34184  289.97 0854.50
2009/04/23 13:29:35.5      72   -304    108    313    332 166.6  19.1  34174  289.80 0854.50
2009/04/23 13:29:35.6     112   -354     58    372    377 162.5   9.0  34170  289.74 0854.50
2009/04/23 13:29:35.7     122   -347    -35    368    370 160.6  -5.5  34176  289.84 0854.50
2009/04/23 13:29:35.8     102   -327    -13    343    344 162.6  -2.2  34174  289.81 0854.50
2009/04/23 13:29:35.9      93   -292     19    307    308 162.2   3.6  34174  289.80 0854.50
2009/04/23 13:29:36.0     140   -358    103    385    399 158.6  15.0  34184  289.98 0854.50
2009/04/23 13:29:36.1     123   -339     77    362    371 160.0  12.0  34182  289.96 0854.50
2009/04/23 13:29:36.2     200   -288    181    351    394 145.2  29.4  34180  289.91 0854.50
2009/04/23 13:29:36.3     147   -239    157    281    321 148.4  31.7  34178  289.88 0854.50
2009/04/23 13:29:36.4     146   -120    150    190    242 129.3  42.2  34182  289.96 0854.50
2009/04/23 13:29:36.5     115   -115     82    163    182 135.0  28.5  34182  289.96 0854.48
2009/04/23 13:29:36.6     152    -65    -41    166    171 113.1 -13.9  34182  289.96 0854.48
2009/04/23 13:29:36.7     212   -176    -46    276    280 129.8  -9.6  34178  289.86 0854.48
2009/04/23 13:29:36.8     138   -211    -27    253    255 146.8  -6.2  34174  289.81 0854.48
2009/04/23 13:29:36.9      79   -201     59    217    225 158.4  15.3  34174  289.80 0854.48
2009/04/23 13:29:37.0      19   -240     62    241    249 175.3  14.5  34176  289.85 0854.48
2009/04/23 13:29:37.1      45   -214    -78    219    233 168.0 -19.7  34176  289.85 0854.48
2009/04/23 13:29:37.2      76   -206    -61    220    228 159.5 -20.0  34176  289.85 0854.48
2009/04/23 13:29:37.3     -54   -201     40    209    213 195.1  11.0  34174  289.82 0854.48
2009/04/23 13:29:37.4      -4   -278    102    279    297 180.9  21.0  34178  289.86 0854.48
2009/04/23 13:29:37.5      77   -262    -55    274    280 163.5 -11.5  34174  289.81 0854.50
2009/04/23 13:29:37.6     -27   -309      1    311    312 185.1   0.2  34178  289.86 0854.50
2009/04/23 13:29:37.7     -61   -330    104    336    352 190.5  17.2  34178  289.87 0854.50
2009/04/23 13:29:37.8       2   -320    102    321    337 179.5  17.7  34174  289.82 0854.50
2009/04/23 13:29:37.9      48   -280      8    285    286 170.3   1.7  34176  289.85 0854.50
2009/04/23 13:29:38.0      59   -221    -33    229    232 164.9  -8.3  34174  289.80 0854.50
2009/04/23 13:29:38.1      31   -291    -53    293    298 173.8 -10.3  34180  289.90 0854.50
2009/04/23 13:29:38.2      99   -248    -95    268    285 158.2 -19.6  34174  289.81 0854.50
2009/04/23 13:29:38.3      21   -277    -30    278    280 175.5  -6.2  34180  289.90 0854.50
2009/04/23 13:29:38.4     -20   -286    -24    287    289 184.0  -4.9  34184  289.98 0854.50
2009/04/23 13:29:38.5     -32   -401    -90    403    414 184.6 -12.6  34182  289.95 0854.50
2009/04/23 13:29:38.6    -113   -373    -60    391    396 196.9  -8.8  34178  289.87 0854.50
2009/04/23 13:29:38.7     -36   -333    -38    336    339 186.2  -6.6  34184  289.98 0854.50
2009/04/23 13:29:38.8     -43   -275    -77    279    290 188.9 -15.4  34176  289.85 0854.50
2009/04/23 13:29:38.9     -59   -305    -91    311    324 191.1 -21.2  34178  289.88 0854.50
2009/04/23 13:29:39.0     -87   -372    -71    383    390 193.2 -10.5  34182  289.93 0854.50
2009/04/23 13:29:39.1     -16   -292    -71    293    302 183.1 -13.7  34180  289.90 0854.50
2009/04/23 13:29:39.2    -102   -215    -75    239    251 205.5 -17.6  34178  289.88 0854.50
2009/04/23 13:29:39.3     -62   -132    -18    147    149 205.3  -7.3  34176  289.85 0854.50
2009/04/23 13:29:39.4     -51   -157     63    166    177 198.0  21.7  34178  289.89 0854.50
2009/04/23 13:29:39.5     -15   -210     68    211    222 184.2  17.9  34178  289.87 0854.51
2009/04/23 13:29:39.6     -16   -202     33    203    206 184.7   9.3  34174  289.82 0854.51
2009/04/23 13:29:39.7      13   -210     -4    211    212 176.2  -1.3  34172  289.77 0854.51
2009/04/23 13:29:39.8      42   -252     21    256    258 170.4   4.9  34176  289.85 0854.51
2009/04/23 13:29:39.9      83   -273     24    286    288 163.1   4.9  34176  289.83 0854.51
2009/04/23 13:29:40.0      79   -306     84    317    329 165.5  14.9  34174  289.81 0854.51
2009/04/23 13:29:40.1      43   -279     29    283    285 171.1   5.9  34174  289.80 0854.51
2009/04/23 13:29:40.2      54   -306     73    311    320 170.0  13.2  34176  289.83 0854.51
2009/04/23 13:29:40.3      32   -288     -9    290    291 173.5  -1.8  34176  289.83 0854.51
2009/04/23 13:29:40.4      68   -292    -11    300    301 166.7  -2.2  34172  289.78 0854.51
2009/04/23 13:29:40.5      49   -252     11    257    258 168.9   2.5  34176  289.83 0854.51
2009/04/23 13:29:40.6      81   -246     31    260    262 161.7   6.9  34176  289.85 0854.51
2009/04/23 13:29:40.7      81   -244     37    258    261 161.7   8.2  34178  289.86 0854.51
2009/04/23 13:29:40.8      83   -245     41    259    263 161.3   9.0  34178  289.86 0854.51
2009/04/23 13:29:40.9      72   -218     24    230    232 161.7   6.1  34176  289.84 0854.51
2009/04/23 13:29:41.0      74   -198     25    212    214 159.5   6.9  34178  289.87 0854.51
2009/04/23 13:29:41.1      70   -212     29    224    226 161.5   7.5  34178  289.87 0854.51
2009/04/23 13:29:41.2      74   -185     40    200    205 158.2  11.4  34178  289.87 0854.51
2009/04/23 13:29:41.3      88   -178     57    199    208 153.5  16.0  34176  289.85 0854.51
2009/04/23 13:29:41.4     107   -228     26    253    255 154.8   6.0  34176  289.85 0854.51
2009/04/23 13:29:41.5     130   -204     35    243    246 147.5   8.2  34180  289.90 0854.51
2009/04/23 13:29:41.6     108   -194     45    223    228 151.0  11.6  34176  289.85 0854.51
2009/04/23 13:29:41.7     103   -186     58    213    221 151.0  15.3  34176  289.84 0854.51
2009/04/23 13:29:41.8     110   -172     49    205    211 147.5  13.5  34178  289.87 0854.51
2009/04/23 13:29:41.9      94   -130     64    161    173 143.9  22.5  34178  289.87 0854.51
2009/04/23 13:29:42.0      74   -125     42    146    153 149.3  16.3  34180  289.91 0854.51
2009/04/23 13:29:42.1      55   -138     23    149    151 158.1   9.0  34176  289.85 0854.51
2009/04/23 13:29:42.2      73   -134     10    153    154 151.5   3.8  34176  289.85 0854.51
2009/04/23 13:29:42.3      71    -97     -2    121    122 143.5  -1.3  34176  289.85 0854.51
2009/04/23 13:29:42.4      56    -84     33    102    108 146.2  17.9  34180  289.91 0854.51
2009/04/23 13:29:42.5      54   -111     40    124    131 153.7  17.9  34180  289.91 0854.51
2009/04/23 13:29:42.6      43   -118     22    126    129 160.0  10.1  34182  289.94 0854.51
2009/04/23 13:29:42.7      45   -101     21    111    114 155.9  11.1  34182  289.94 0854.51
2009/04/23 13:29:42.8      43   -102      5    111    112 156.8   2.9  34180  289.92 0854.51
2009/04/23 13:29:42.9      47    -88     -5    100    101 151.9  -3.1  34180  289.91 0854.51
2009/04/23 13:29:43.0      30    -92      3     97     98 161.7   2.3  34180  289.92 0854.51
2009/04/23 13:29:43.1      57    -80     19     99    101 144.4  11.1  34182  289.96 0854.51
2009/04/23 13:29:43.2      52    -59     37     80     88 138.6  26.2  34180  289.91 0854.51
2009/04/23 13:29:43.3      76    -25     67     81    105 108.2  43.8  34182  289.94 0854.51
2009/04/23 13:29:43.4      81    -13     72     83    109  99.2  44.8  34182  289.96 0854.51
2009/04/23 13:29:43.5     110    -32     74    115    136 106.4  35.6  34182  289.94 0854.50
2009/04/23 13:29:43.6     114     -1     49    115    125  90.8  24.6  34180  289.92 0854.50
2009/04/23 13:29:43.7     120     18     58    122    135  81.2  27.2  34188  290.06 0854.50
2009/04/23 13:29:43.8      80    -18     51     83     97 102.8  35.5  34190  290.08 0854.50
2009/04/23 13:29:43.9      49    -37     74     62     96 126.9  55.8  34192  290.11 0854.50
2009/04/23 13:29:44.0      66     -9     65     67     93  97.9  50.0  34188  290.06 0854.50
2009/04/23 13:29:44.1      64    -21     58     68     89 108.6  44.8  34186  290.02 0854.50
2009/04/23 13:29:44.2      52    -22     49     57     75 113.5  44.8  34184  289.99 0854.50
2009/04/23 13:29:44.3      44    -51     24     68     73 139.5  19.4  34184  289.97 0854.50
2009/04/23 13:29:44.4      -9    -44     67     46     81 192.5  62.1  34184  289.97 0854.50
2009/04/23 13:29:44.5      29     34     90     46    101  40.5  70.8  34190  290.08 0854.50
2009/04/23 13:29:44.6      16     18     35     25     43  41.4  60.5  34192  290.11 0854.50
2009/04/23 13:29:44.7      35    -22     19     42     46 122.4  25.1  34186  290.02 0854.50
2009/04/23 13:29:44.8      34    -54     -5     65     66 147.5  -5.2  34184  289.97 0854.50
2009/04/23 13:29:44.9      64    -73     41     98    106 138.6  23.6  34180  289.91 0854.50
2009/04/23 13:29:45.0     123   -131     58    180    190 136.8  17.9  34182  289.96 0854.50
2009/04/23 13:29:45.1     139   -108     69    177    189 127.8  22.3  34184  289.97 0854.50
2009/04/23 13:29:45.2     156    -84     76    178    193 118.2  24.3  34188  290.06 0854.50
2009/04/23 13:29:45.3     176    -67     77    189    204 111.1  23.1  34190  290.08 0854.50
2009/04/23 13:29:45.4     148    -53     54    158    168 110.0  18.9  34190  290.08 0854.50
2009/04/23 13:29:45.5     152    -11     77    153    171  94.3  28.5  34202  290.30 0854.50
2009/04/23 13:29:45.6      83    -83     65    118    134 134.9  31.4  34206  290.36 0854.50
2009/04/23 13:29:45.7      56    -94     88    110    140 148.8  43.3  34192  290.13 0854.50
2009/04/23 13:29:45.8     126    -72    148    146    207 119.8  50.1  34208  290.38 0854.50
2009/04/23 13:29:45.9     159    -80    132    179    222 116.9  39.7  34190  290.08 0854.50
2009/04/23 13:29:46.0      79    -36    141     88    166 114.8  64.9  34222  290.62 0854.50
2009/04/23 13:29:46.1     146     20    168    148    223  82.1  54.2  34244  291.01 0854.50
2009/04/23 13:29:46.2     147     67    140    162    214  65.4  45.4  34220  290.58 0854.50
2009/04/23 13:29:46.3      37    -89    130     97    162 157.3  59.4  34228  290.74 0854.50
2009/04/23 13:29:46.4      43   -130    168    138    217 161.5  56.4  34240  290.92 0854.50
2009/04/23 13:29:46.5      29    -48    138     57    149 148.4  77.0  34230  290.75 0854.50
2009/04/23 13:29:46.6     -50   -150    146    159    215 198.7  47.7  34220  290.60 0854.50
2009/04/23 13:29:46.7     -85   -177     42    197    202 205.6  12.2  34206  290.36 0854.50
2009/04/23 13:29:46.8     -85   -176     78    196    210 205.9  23.0  34206  290.36 0854.50
2009/04/23 13:29:46.9     -36   -134     58    139    150 195.2  23.6  34210  290.41 0854.50
2009/04/23 13:29:47.0      -8   -109     52    110    121 184.5  27.2  34206  290.36 0854.50
2009/04/23 13:29:47.1      -1    -72     40     73     83 180.9  30.8  34210  290.41 0854.50
2009/04/23 13:29:47.2     -23    -71    -35     75     82 198.5 -31.0  34206  290.35 0854.50
2009/04/23 13:29:47.3      29   -106    -40    111    117 164.4 -25.3  34204  290.31 0854.50
2009/04/23 13:29:47.4      64   -103    -21    122    124 148.4  -9.8  34204  290.33 0854.50
2009/04/23 13:29:47.5      65    -68     70     95    118 136.3  40.1  34208  290.40 0854.49
2009/04/23 13:29:47.6      49    -69     67     85    108 144.4  43.3  34208  290.38 0854.49
2009/04/23 13:29:47.7      83    -30     95     89    130 110.0  52.1  34204  290.31 0854.49
2009/04/23 13:29:47.8      69    -52     78     87    116 127.3  46.9  34192  290.11 0854.49
2009/04/23 13:29:47.9      -8    -62     66     63     91 188.1  51.2  34202  290.28 0854.49
2009/04/23 13:29:48.0      -1   -100     73    101    124 180.9  39.5  34210  290.41 0854.49
2009/04/23 13:29:48.1      -2   -138     58    139    150 181.0  23.6  34192  290.11 0854.49
2009/04/23 13:29:48.2     -13   -159     55    160    170 184.7  18.9  34196  290.19 0854.49
2009/04/23 13:29:48.3      -7   -164     73    165    180 182.7  25.3  34198  290.21 0854.49
2009/04/23 13:29:48.4     -16   -166     58    167    177 185.8  19.2  34196  290.18 0854.49
2009/04/23 13:29:48.5      -2   -122     65    123    139 181.0  30.3  34196  290.19 0854.49
2009/04/23 13:29:48.6      10   -139     49    140    149 175.5  19.4  34196  290.18 0854.49
2009/04/23 13:29:48.7     -21   -179     63    181    192 186.7  19.2  34188  290.06 0854.49
2009/04/23 13:29:48.8     -28   -203     21    206    208 188.0   5.9  34188  290.04 0854.49
2009/04/23 13:29:48.9     -43   -204     58    209    218 192.0  15.6  34190  290.08 0854.49
2009/04/23 13:29:49.0     -81   -223     74    238    250 200.0  17.4  34188  290.03 0854.49
2009/04/23 13:29:49.1    -182   -245     47    306    310 216.7   8.9  34206  290.34 0854.49
2009/04/23 13:29:49.2    -157   -240    101    288    305 213.2  20.0  34192  290.10 0854.49
2009/04/23 13:29:49.3    -124   -332    173    355    394 200.5  28.0  34194  290.16 0854.49
2009/04/23 13:29:49.4     -65   -273    147    281    317 193.6  30.0  34198  290.20 0854.49
2009/04/23 13:29:49.5     -74   -264    185    275    331 195.8  37.2  34202  290.29 0854.50
2009/04/23 13:29:49.6    -154   -282    236    322    399 208.7  39.8  34206  290.35 0854.50
2009/04/23 13:29:49.7    -108   -205     77    232    245 207.9  18.4  34210  290.41 0854.50
2009/04/23 13:29:49.8    -109   -163     91    197    217 213.8  26.6  34208  290.38 0854.50
2009/04/23 13:29:49.9    -205   -131     90    244    260 237.4  21.0  34228  290.73 0854.50
2009/04/23 13:29:50.0    -117   -106     91    159    183 227.8  32.4  34214  290.48 0854.50
2009/04/23 13:29:50.1     -48   -201    167    207    265 193.4  43.5  34192  290.12 0854.50
2009/04/23 13:29:50.2    -102   -271    126    290    316 200.7  25.0  34192  290.12 0854.50
2009/04/23 13:29:50.3     -60   -232    -28    240    242 194.7  -6.7  34198  290.22 0854.50
2009/04/23 13:29:50.4     -13   -187      0    188    189 184.0   0.0  34188  290.06 0854.50
2009/04/23 13:29:50.5      -3   -176     -3    177    178 181.1  -1.3  34190  290.08 0854.50
2009/04/23 13:29:50.6      77   -158    -48    177    184 153.9 -15.4  34186  290.01 0854.50
2009/04/23 13:29:50.7      50   -139     62    148    160 160.0  24.1  34186  290.02 0854.50
2009/04/23 13:29:50.8     131   -100     74    165    180 127.3  25.7  34188  290.06 0854.50
2009/04/23 13:29:50.9      68   -124    -12    142    143 151.0  -5.2  34186  290.01 0854.50
2009/04/23 13:29:51.0      98   -119     -6    155    156 140.3  -2.2  34188  290.04 0854.50
2009/04/23 13:29:51.1     100   -134     -6    168    169 143.3  -2.2  34188  290.04 0854.50
2009/04/23 13:29:51.2      59   -177      3    187    188 161.5   1.2  34186  290.01 0854.50
2009/04/23 13:29:51.3     -12   -155     44    156    163 184.5  15.8  34184  289.97 0854.50
2009/04/23 13:29:51.4    -137   -201    -35    244    247 214.2  -8.2  34204  290.32 0854.50
2009/04/23 13:29:51.5    -148   -232     -6    276    277 212.6  -1.3  34194  290.15 0854.53
2009/04/23 13:29:51.6    -100   -242     26    262    264 202.5   5.7  34190  290.09 0854.53
2009/04/23 13:29:51.7    -118   -200     32    233    236 210.7   8.0  34198  290.22 0854.53
2009/04/23 13:29:51.8    -136   -234    -17    271    272 210.1  -3.7  34212  290.44 0854.53
2009/04/23 13:29:51.9    -214   -214    -83    304    316 225.0 -15.4  34212  290.44 0854.53
2009/04/23 13:29:52.0    -168   -192    -52    256    262 221.2 -11.6  34212  290.46 0854.53
2009/04/23 13:29:52.1    -129   -178    -29    220    222 216.0  -7.7  34218  290.57 0854.53
2009/04/23 13:29:52.2     -86   -217    -21    234    235 201.8  -5.2  34214  290.48 0854.53
2009/04/23 13:29:52.3     -61   -300      4    307    308 191.6   0.8  34208  290.37 0854.53
2009/04/23 13:29:52.4     -51   -303     15    308    309 189.7   2.9  34212  290.46 0854.53
2009/04/23 13:29:52.5     -79   -238    -39    251    255 198.5  -9.0  34202  290.29 0854.53
2009/04/23 13:29:52.6    -105   -233    -47    256    261 204.3 -10.5  34204  290.31 0854.53
2009/04/23 13:29:52.7     -59   -193    -66    203    213 197.2 -23.6  34198  290.21 0854.53
2009/04/23 13:29:52.8     -23   -137    -40    140    145 189.8 -20.7  34190  290.08 0854.53
2009/04/23 13:29:52.9     -55   -209    -57    217    225 194.7 -14.7  34188  290.04 0854.53
2009/04/23 13:29:53.0     -79   -260    -23    272    274 196.9  -4.9  34194  290.15 0854.53
2009/04/23 13:29:53.1      13   -287    -11    288    289 177.3  -2.2  34188  290.05 0854.53
2009/04/23 13:29:53.2     -74   -281      0    291    292 194.9   0.0  34190  290.07 0854.53
2009/04/23 13:29:53.3    -114   -231     54    258    264 206.3  12.0  34192  290.10 0854.53
2009/04/23 13:29:53.4    -196   -292    -13    352    353 213.9  -2.2  34182  289.96 0854.53
2009/04/23 13:29:53.5    -287   -270    -42    395    398 226.8  -6.1  34184  289.98 0854.55
2009/04/23 13:29:53.6    -192   -230   -106    300    319 219.9 -19.6  34180  289.92 0854.55
2009/04/23 13:29:53.7    -215   -183   -149    283    319 229.6 -34.5  34162  289.61 0854.55
2009/04/23 13:29:53.8    -158   -169   -152    232    277 223.2 -40.9  34162  289.61 0854.55
2009/04/23 13:29:53.9     -46   -268   -168    273    320 189.8 -39.0  34170  289.73 0854.55
2009/04/23 13:29:54.0     -24   -319   -169    320    361 184.4 -34.4  34166  289.67 0854.55
2009/04/23 13:29:54.1      19   -328   -188    329    378 176.6 -36.8  34170  289.74 0854.55
2009/04/23 13:29:54.2    -101   -352   -142    367    393 196.0 -26.6  34182  289.94 0854.55
2009/04/23 13:29:54.3      17   -404   -194    405    449 177.5 -31.7  34172  289.78 0854.55
2009/04/23 13:29:54.4      38   -427   -145    429    452 174.8 -23.6  34174  289.80 0854.55
2009/04/23 13:29:54.5      57   -409   -127    414    433 172.0 -21.8  34174  289.80 0854.55
2009/04/23 13:29:54.6      73   -364   -115    372    390 168.6 -17.3  34172  289.79 0854.55
2009/04/23 13:29:54.7      52   -368   -117    372    391 171.9 -17.5  34166  289.69 0854.55
2009/04/23 13:29:54.8      18   -394    -35    395    397 177.3  -5.2  34174  289.81 0854.55
2009/04/23 13:29:54.9      56   -388    -50    393    397 171.7  -7.3  34174  289.81 0854.55
2009/04/23 13:29:55.0     143   -430     40    454    456 161.6   5.1  34162  289.61 0854.55
2009/04/23 13:29:55.1     127   -469     -2    487    488 164.8  -0.3  34166  289.69 0854.55
2009/04/23 13:29:55.2     120   -449     22    465    466 165.0   2.8  34170  289.73 0854.55
2009/04/23 13:29:55.3      88   -352     45    363    366 165.9   7.2  34158  289.55 0854.55
2009/04/23 13:29:55.4      49   -327    122    331    352 171.4  21.1  34166  289.67 0854.54
2009/04/23 13:29:55.5      76   -358    126    367    389 168.0  18.9  34166  289.69 0854.54
2009/04/23 13:29:55.6      85   -408     81    417    425 168.1  11.0  34172  289.78 0854.54
2009/04/23 13:29:55.7      75   -388     61    396    401 169.0   8.9  34172  289.79 0854.54
2009/04/23 13:29:55.8      72   -435    112    442    457 170.6  14.3  34180  289.90 0854.54
2009/04/23 13:29:55.9      81   -437    104    445    458 169.4  13.2  34176  289.85 0854.54
2009/04/23 13:29:56.0      43   -385    146    388    414 173.5  21.7  34176  289.85 0854.54
2009/04/23 13:29:56.1     123   -413     80    431    439 163.4  10.6  34168  289.72 0854.54
2009/04/23 13:29:56.2     134   -435     89    456    465 162.8  11.1  34172  289.78 0854.54
2009/04/23 13:29:56.3     202   -474    120    516    530 156.9  13.1  34176  289.85 0854.54
2009/04/23 13:29:56.4     175   -542    177    570    597 162.1  17.3  34176  289.83 0854.54
2009/04/23 13:29:56.5     198   -492    189    531    563 158.1  20.4  34174  289.82 0854.54
2009/04/23 13:29:56.6     191   -506    211    542    581 159.3  22.4  34174  289.82 0854.54
2009/04/23 13:29:56.7     202   -556    177    592    619 160.0  16.7  34174  289.81 0854.54
2009/04/23 13:29:56.8     249   -567    160    620    641 156.3  14.5  34174  289.81 0854.54
2009/04/23 13:29:56.9     221   -463    152    514    537 154.5  16.5  34174  289.82 0854.54
2009/04/23 13:29:57.0     156   -427    163    455    483 159.9  20.4  34172  289.76 0854.54
2009/04/23 13:29:57.1      46   -463    117    466    481 174.3  14.2  34172  289.79 0854.54
2009/04/23 13:29:57.3      32   -441    101    443    455 175.8  12.9  34174  289.80 0854.54
2009/04/23 13:29:57.4    -107   -394    139    409    433 195.3  18.8  34178  289.88 0854.54
2009/04/23 13:29:57.5      19   -412    268    413    492 177.3  36.0  34178  289.89 0854.52
2009/04/23 13:29:57.6      87   -424    195    434    475 168.3  25.7  34178  289.87 0854.52
2009/04/23 13:29:57.7     132   -434     71    454    460 163.0   9.0  34178  289.87 0854.52
2009/04/23 13:29:57.8     175   -381    214    420    471 155.3  29.2  34174  289.80 0854.52
2009/04/23 13:29:57.9     264   -435     63    510    514 148.7   7.1  34170  289.73 0854.52
2009/04/23 13:29:58.0     204   -493    124    534    549 157.5  13.1  34176  289.84 0854.52
2009/04/23 13:29:58.1     155   -459    132    485    503 161.3  15.3  34176  289.84 0854.52
2009/04/23 13:29:58.2      70   -446    124    452    469 171.0  15.4  34178  289.87 0854.52
2009/04/23 13:29:58.3     127   -401    129    421    441 162.3  17.0  34178  289.87 0854.52
2009/04/23 13:29:58.4     141   -394    177    419    454 160.2  24.2  34182  289.94 0854.52
2009/04/23 13:29:58.5     196   -366    128    416    436 151.8  17.2  34178  289.88 0854.50
2009/04/23 13:29:58.6     250   -226    130    338    362 132.1  22.2  34178  289.89 0854.50
2009/04/23 13:29:58.7      45   -319    182    323    370 171.9  31.9  34182  289.94 0854.50
2009/04/23 13:29:58.8      16   -370    157    371    402 177.4  24.3  34178  289.86 0854.50
2009/04/23 13:29:58.9      17   -339    233    340    412 177.1  37.8  34182  289.94 0854.50
2009/04/23 13:29:59.0      92   -332    241    345    420 164.5  38.5  34178  289.87 0854.50
2009/04/23 13:29:59.1    -138   -437    312    459    555 197.5  37.4  34172  289.77 0854.50
2009/04/23 13:29:59.2    -134   -324    252    351    432 202.5  39.3  34174  289.82 0854.50
2009/04/23 13:29:59.3    -173    -88    189    195    271 243.1  49.2  34178  289.88 0854.50
2009/04/23 13:29:59.4       4     29    151     30    153   8.0  89.1  34190  290.09 0854.50
2009/04/23 13:29:59.5      83     11    140     84    163  82.1  66.2  34184  289.99 0854.50
2009/04/23 13:29:59.6     176    128    197    218    293  54.0  46.9  34186  290.00 0854.50
2009/04/23 13:29:59.7     261    146    -37    300    303  60.7  -7.2  34176  289.83 0854.50
2009/04/23 13:29:59.8     238    112    -83    264    276  64.8 -22.5  34182  289.93 0854.50
2009/04/23 13:29:59.9     345    151    -84    377    387  66.4 -12.6  34192  290.11 0854.50
2009/04/23 13:30:00.0     385     86     47    395    398  77.3   6.9  34234  290.83 0854.50
2009/04/23 13:30:00.1     330     70    120    338    358  77.9  20.4  34248  291.05 0854.50
2009/04/23 13:30:00.2     243    115     63    270    278  64.6  13.2  34270  291.43 0854.50
2009/04/23 13:30:00.3     221    122     56    253    260  61.1  12.6  34280  291.61 0854.50
2009/04/23 13:30:00.4      41     17     79     45     90  67.4  67.7  34202  290.30 0854.50
2009/04/23 13:30:00.5     -49   -110     85    121    147 204.1  38.6  34210  290.41 0854.50
2009/04/23 13:30:00.6     -99    -99     95    141    170 225.1  37.3  34184  289.97 0854.50
2009/04/23 13:30:00.7    -138      4     12    139    140 271.7   5.0  34184  289.97 0854.50
2009/04/23 13:30:00.8     -18     56    -74     59     94 341.7 -61.9  34208  290.38 0854.50
2009/04/23 13:30:00.9      21     60   -149     64    162  19.2 -79.9  34242  290.96 0854.50
2009/04/23 13:30:01.0      60     97   -171    115    206  31.6 -67.1  34212  290.47 0854.50
2009/04/23 13:30:01.1     126     33    -57    131    142  75.4 -29.5  34212  290.45 0854.50
2009/04/23 13:30:01.2     133    -84    -67    158    171 122.5 -28.7  34206  290.36 0854.50
2009/04/23 13:30:01.3      48    -75    -86     90    124 147.5 -53.8  34204  290.31 0854.50
2009/04/23 13:30:01.4      55    -99    -80    114    139 151.1 -43.5  34210  290.43 0854.50
2009/04/23 13:30:01.5     300   -153     74    337    346 117.1  12.5  34188  290.06 0854.50
2009/04/23 13:30:01.6     276   -131    181    306    355 115.5  33.4  34194  290.15 0854.50
2009/04/23 13:30:01.7     176    -74    183    191    264 112.8  49.0  34200  290.24 0854.50
2009/04/23 13:30:01.8     128     44    172    136    219  70.9  57.7  34206  290.36 0854.50
2009/04/23 13:30:01.9      27     32    194     43    198  40.5  88.0  34214  290.50 0854.50
2009/04/23 13:30:02.0     -16     47    149     50    157 341.3  81.0  34218  290.57 0854.50
2009/04/23 13:30:02.1      44    -12    105     46    114 105.9  75.0  34216  290.53 0854.50
2009/04/23 13:30:02.2    -116    -86    178    145    229 233.6  56.4  34202  290.28 0854.50
2009/04/23 13:30:02.3    -123   -159    206    202    288 217.8  50.2  34196  290.19 0854.50
2009/04/23 13:30:02.4    -222   -142    147    264    302 237.4  31.4  34202  290.29 0854.50
2009/04/23 13:30:02.5    -222    -60     93    231    249 254.9  23.0  34210  290.42 0854.51
2009/04/23 13:30:02.6    -290    -40     85    293    306 262.0  16.3  34210  290.41 0854.51
2009/04/23 13:30:02.7    -271     -4     42    272    276 269.1   8.8  34212  290.46 0854.51
2009/04/23 13:30:02.8    -170    -56    154    180    236 251.6  45.1  34206  290.36 0854.51
2009/04/23 13:30:02.9    -119     23    111    122    164 281.0  47.1  34204  290.33 0854.51
2009/04/23 13:30:03.0     -81     43     90     92    128 298.0  50.0  34212  290.47 0854.51
2009/04/23 13:30:03.1    -108    108     35    153    157 315.1  12.9  34208  290.40 0854.51
2009/04/23 13:30:03.2     -75    136      4    156    157 331.1   1.6  34202  290.30 0854.51
2009/04/23 13:30:03.3     -65    170     73    183    197 339.1  23.0  34208  290.38 0854.51
2009/04/23 13:30:03.4     -98    156     48    185    192 327.7  14.5  34208  290.38 0854.51
2009/04/23 13:30:03.5    -128     40     82    135    157 287.3  34.2  34210  290.41 0854.51
2009/04/23 13:30:03.6    -143    125     94    191    212 311.1  28.0  34208  290.40 0854.51
2009/04/23 13:30:03.7    -118    198     99    231    251 329.3  24.6  34236  290.87 0854.51
2009/04/23 13:30:03.8     -83    190    165    208    265 336.4  42.7  34264  291.33 0854.51
2009/04/23 13:30:03.9     -42    174    141    180    228 346.4  42.0  34270  291.43 0854.51
2009/04/23 13:30:04.0    -109    142     88    180    200 322.6  28.0  34252  291.13 0854.51
2009/04/23 13:30:04.1    -163    191    141    252    288 319.5  31.4  34270  291.44 0854.51
2009/04/23 13:30:04.2    -197    180     54    267    273 312.4  11.6  34230  290.76 0854.51
2009/04/23 13:30:04.3    -151    157     33    218    221 316.1   8.8  34230  290.75 0854.51
2009/04/23 13:30:04.4    -157    177     -9    237    238 318.5  -2.2  34234  290.82 0854.51
2009/04/23 13:30:04.5    -200    206    -36    288    291 315.9  -7.2  34262  291.31 0854.52
2009/04/23 13:30:04.6    -123    262    -52    290    295 334.8 -10.3  34264  291.34 0854.52
2009/04/23 13:30:04.7     -87    216     84    234    248 337.9  20.4  34260  291.27 0854.52
2009/04/23 13:30:04.8      59    164    124    175    214  19.8  38.6  34242  290.98 0854.52
2009/04/23 13:30:04.9     161    252     88    300    313  32.5  16.4  34220  290.59 0854.52
2009/04/23 13:30:05.0      11    245    100    246    265   2.7  23.4  34222  290.63 0854.52
2009/04/23 13:30:05.1     136     41    126    143    190  73.2  45.8  34226  290.69 0854.52
2009/04/23 13:30:05.2     208    131     42    246    250  57.8   9.9  34228  290.73 0854.52
2009/04/23 13:30:05.3     133    197     74    239    251  34.1  17.3  34232  290.80 0854.52
2009/04/23 13:30:05.4      75    160     85    177    196  25.2  27.3  34224  290.67 0854.52
2009/04/23 13:30:05.5      86     90     79    125    147  43.7  35.5  34220  290.60 0854.52
2009/04/23 13:30:05.6     151     30     30    155    158  78.6  11.1  34230  290.77 0854.52
2009/04/23 13:30:05.7     205     48     41    211    216  76.7  11.1  34236  290.86 0854.52
2009/04/23 13:30:05.8     289     67     23    297    298  76.8   4.6  34232  290.80 0854.52
2009/04/23 13:30:05.9     311     52     69    316    324  80.5  12.4  34216  290.51 0854.52
2009/04/23 13:30:06.0     385     59    -12    390    391  81.3  -1.8  34244  291.01 0854.52
2009/04/23 13:30:06.1     300     13     53    301    306  87.5  10.0  34238  290.88 0854.52
2009/04/23 13:30:06.2     287     46    131    291    319  80.8  25.9  34220  290.58 0854.52
2009/04/23 13:30:06.3     385     21    170    386    421  86.8  25.2  34224  290.65 0854.52
2009/04/23 13:30:06.4     323     14    234    324    399  87.5  39.5  34228  290.71 0854.52
2009/04/23 13:30:06.5     388    108    232    403    465  74.3  32.4  34244  290.99 0854.51
2009/04/23 13:30:06.6     438     46    156    441    467  83.9  20.2  34248  291.06 0854.51
2009/04/23 13:30:06.7     521    191    254    556    611  69.8  26.2  34232  290.80 0854.51
2009/04/23 13:30:06.8     532    207    256    571    625  68.7  25.8  34220  290.58 0854.51
2009/04/23 13:30:06.9     566    216    327    606    688  69.1  30.7  34220  290.58 0854.51
2009/04/23 13:30:07.0     473    237    167    530    556  63.4  17.5  34238  290.89 0854.51
2009/04/23 13:30:07.1     238    308    178    390    428  37.7  26.2  34260  291.26 0854.51
2009/04/23 13:30:07.2     284    244    269    375    461  49.4  39.5  34250  291.11 0854.51
2009/04/23 13:30:07.3     120    533    104    547    557  12.7  10.8  34256  291.21 0854.51
2009/04/23 13:30:07.4      92    513    129    522    538  10.2  13.9  34264  291.33 0854.51
2009/04/23 13:30:07.5     132    464    112    483    496  15.9  13.1  34256  291.19 0854.51
2009/04/23 13:30:07.6      28    446     86    447    456   3.6  11.0  34254  291.16 0854.51
2009/04/23 13:30:07.7      27    411    137    412    435   3.8  18.5  34260  291.28 0854.51
2009/04/23 13:30:07.8     111    334    164    353    389  18.5  27.0  34304  292.02 0854.51
2009/04/23 13:30:07.9     117    352    104    371    386  18.4  15.7  34298  291.91 0854.51
2009/04/23 13:30:08.0      91    326     64    339    346  15.7  10.7  34326  292.39 0854.51
2009/04/23 13:30:08.1      96    320    276    335    434  16.7  43.7  34314  292.18 0854.51
2009/04/23 13:30:08.2     208    141    242    252    349  55.8  49.0  34306  292.04 0854.51
2009/04/23 13:30:08.3     428    267    192    505    540  58.0  21.8  34294  291.86 0854.51
2009/04/23 13:30:08.4     541    418    113    684    694  52.3   9.4  34254  291.17 0854.51
2009/04/23 13:30:08.5     553    534    151    769    784  46.0  11.1  34214  290.49 0854.47
2009/04/23 13:30:08.6     399    459    282    609    671  41.0  26.6  34214  290.48 0854.47
2009/04/23 13:30:08.7     279    730    308    782    840  21.0  22.9  34204  290.31 0854.47
2009/04/23 13:30:08.8     451    365    248    581    631  51.0  24.5  34240  290.93 0854.47
2009/04/23 13:30:08.9     292    535    187    610    639  28.6  17.1  34216  290.52 0854.47
2009/04/23 13:30:09.0     509    414     86    657    663  50.9   7.5  34208  290.39 0854.47
2009/04/23 13:30:09.1     276    448    134    527    544  31.6  14.3  34208  290.38 0854.47
2009/04/23 13:30:09.2     357    323    174    482    513  47.9  19.9  34202  290.29 0854.47
2009/04/23 13:30:09.3     380    226     95    443    454  59.3  12.1  34202  290.28 0854.47
2009/04/23 13:30:09.4     359    250    140    438    460  55.2  17.8  34206  290.36 0854.47
2009/04/23 13:30:09.5     474    260    101    541    551  61.2  10.6  34222  290.63 0854.47
2009/04/23 13:30:09.6     724    356    280    807    855  63.8  19.2  34218  290.56 0854.47
2009/04/23 13:30:09.7     724    341    195    801    825  64.8  13.7  34200  290.26 0854.47
2009/04/23 13:30:09.8     656    436     44    788    790  56.4   3.2  34208  290.37 0854.47
2009/04/23 13:30:09.9     643    294    123    708    719  65.4   9.9  34276  291.54 0854.47
2009/04/23 13:30:10.0     567    172    203    593    627  73.1  18.9  34264  291.35 0854.47
2009/04/23 13:30:10.1     459    315    101    557    567  55.5  10.3  34204  290.31 0854.47
2009/04/23 13:30:10.2     327    358    -26    485    486  42.4  -3.2  34184  289.98 0854.47
2009/04/23 13:30:10.3     342    387    140    517    536  41.5  15.1  34204  290.31 0854.47
2009/04/23 13:30:10.4     434    344    201    554    589  51.6  20.9  34174  289.80 0854.47
2009/04/23 13:30:10.5     464    371    127    595    609  51.4  12.1  34186  290.02 0854.45
2009/04/23 13:30:10.6     270    440    114    517    530  31.5  12.5  34208  290.38 0854.45
2009/04/23 13:30:10.7     418    116    114    435    450  74.4  14.7  34226  290.68 0854.45
2009/04/23 13:30:10.8     506    232    385    557    677  65.3  38.0  34258  291.23 0854.45
2009/04/23 13:30:10.9     437    107    332    450    559  76.2  40.1  34268  291.40 0854.45
2009/04/23 13:30:11.0     387    246    259    459    527  57.6  32.0  34254  291.17 0854.45
2009/04/23 13:30:11.1     264    382    345    465    579  34.6  40.2  34194  290.14 0854.45
2009/04/23 13:30:11.2     352    354    317    500    592  44.8  35.5  34180  289.92 0854.45
2009/04/23 13:30:11.3     369    142    320    396    509  69.0  43.1  34226  290.69 0854.45
2009/04/23 13:30:11.4     435    295    327    526    619  55.8  34.9  34160  289.56 0854.45
2009/04/23 13:30:11.5     396    315    312    507    595  51.5  34.5  34176  289.84 0854.45
2009/04/23 13:30:11.6     316    233    105    393    407  53.6  15.0  34180  289.92 0854.45
2009/04/23 13:30:11.7     267    291     20    396    397  42.6   3.0  34192  290.13 0854.45
2009/04/23 13:30:11.8     250    321     26    407    408  37.9   3.7  34198  290.21 0854.45
2009/04/23 13:30:11.9      72    342    168    350    388  12.0  27.3  34174  289.82 0854.45
2009/04/23 13:30:12.0     173    283    225    332    401  31.5  37.4  34230  290.77 0854.45
2009/04/23 13:30:12.1     278    357    173    453    484  37.9  22.0  34226  290.68 0854.45
2009/04/23 13:30:12.2     271    373     -1    462    463  36.0  -0.2  34258  291.23 0854.45
2009/04/23 13:30:12.3     246    317    216    402    456  37.8  30.7  34250  291.09 0854.45
2009/04/23 13:30:12.4     312     21    210    313    376  86.1  37.2  34248  291.06 0854.45
2009/04/23 13:30:12.5     156    214    197    266    331  36.1  40.1  34258  291.24 0854.42
2009/04/23 13:30:12.6     183    143    163    233    284  52.0  38.6  34254  291.16 0854.42
2009/04/23 13:30:12.7     394    136    154    417    444  70.9  21.0  34248  291.06 0854.42
2009/04/23 13:30:12.8     469    174    192    501    536  69.6  22.1  34266  291.38 0854.42
2009/04/23 13:30:12.9     341    137    353    368    509  68.0  48.7  34248  291.07 0854.42
2009/04/23 13:30:13.0     119    142    202    186    274  40.1  52.7  34254  291.17 0854.42
2009/04/23 13:30:13.1       3    349    262    350    437   0.5  40.6  34258  291.23 0854.42
2009/04/23 13:30:13.2     -77    268    358    279    453 344.0  58.4  34244  290.99 0854.42
2009/04/23 13:30:13.3    1221     47    261    388    467 360.0  37.0  34246  291.02 0854.42
2009/04/23 13:30:13.4      99    366    204    380    431  15.2  30.5  34276  291.53 0854.42
2009/04/23 13:30:13.5     161    304    239    345    419  27.9  38.0  34282  291.66 0854.42
2009/04/23 13:30:13.6     293    326    213    439    487  42.0  27.8  34244  291.00 0854.42
2009/04/23 13:30:13.7     332    323    206    464    507  45.8  25.6  34232  290.78 0854.42
2009/04/23 13:30:13.8     456    246    172    519    547  61.6  18.4  34242  290.96 0854.42
2009/04/23 13:30:13.9     572    319    169    656    678  60.8  14.5  34254  291.16 0854.42
2009/04/23 13:30:14.0      67    372    283    379    473  10.2  40.6  34256  291.19 0854.42
2009/04/23 13:30:14.1     249    317    292    404    498  38.2  39.5  34232  290.79 0854.42
2009/04/23 13:30:14.2     253    160    263    300    398  57.8  45.8  34246  291.03 0854.42
2009/04/23 13:30:14.3     237    127    283    270    391  61.8  51.4  34246  291.03 0854.42
2009/04/23 13:30:14.4       9    124    156    125    199   4.5  57.5  34254  291.18 0854.42
2009/04/23 13:30:14.5     192     71    193    205    281  69.6  48.0  34234  290.82 0854.38
2009/04/23 13:30:14.6     237    196    311    308    437  50.4  50.2  34240  290.94 0854.38
2009/04/23 13:30:14.7      43     75    247     87    261  29.9  80.2  34250  291.11 0854.38
2009/04/23 13:30:14.8     170     67    156    184    241  68.3  44.8  34238  290.89 0854.38
2009/04/23 13:30:14.9     293    300    358    420    551  44.4  44.8  34208  290.37 0854.38
2009/04/23 13:30:15.0     105    392    380    406    556  15.1  48.0  34248  291.08 0854.38
2009/04/23 13:30:15.1      14    461    195    462    501   1.8  24.2  34252  291.12 0854.38
2009/04/23 13:30:15.2      39    507    235    509    560   4.5  26.6  34276  291.55 0854.38
2009/04/23 13:30:15.3     178    569    287    597    662  17.4  27.7  34298  291.91 0854.38
2009/04/23 13:30:15.4     184    446    276    483    556  22.4  32.4  34250  291.11 0854.38
2009/04/23 13:30:15.5      87    426    205    436    481  11.6  27.1  34252  291.12 0854.38
2009/04/23 13:30:15.6      30     38     63     49     79  38.7  57.9  34268  291.42 0854.38
2009/04/23 13:30:15.7     267   -131    244    298    385 116.2  43.7  34258  291.23 0854.38
2009/04/23 13:30:15.8     303    -79    175    314    359 104.6  31.6  34230  290.76 0854.38
2009/04/23 13:30:15.9     298     13    191    299    354  87.5  35.6  34238  290.88 0854.38
2009/04/23 13:30:16.0     198    -55    187    206    278 105.7  47.0  34246  291.02 0854.38
2009/04/23 13:30:16.1     138    -85    147    163    219 121.5  46.9  34240  290.92 0854.38
2009/04/23 13:30:16.2      72     59    130     94    160  50.4  60.5  34236  290.86 0854.38
2009/04/23 13:30:16.3     108     42    141    116    182  68.7  56.4  34246  291.03 0854.38
2009/04/23 13:30:16.4      28    105    140    109    177  15.2  58.2  34258  291.23 0854.38
2009/04/23 13:30:16.5       4     68    -29     69     74   3.6 -28.5  34246  291.04 0854.37
2009/04/23 13:30:16.6    -132     22   -199    134    239 279.7 -67.2  34208  290.40 0854.37
2009/04/23 13:30:16.7    -133   -129   -184    186    261 226.0 -54.4  34192  290.12 0854.37
2009/04/23 13:30:16.8     -44    -95   -118    105    157 204.9 -58.1  34204  290.31 0854.37
2009/04/23 13:30:16.9    -187   -143     11    236    237 232.7   2.8  34226  290.70 0854.37
2009/04/23 13:30:17.0    -182    -31    -32    185    188 260.1 -10.1  34250  291.09 0854.37
2009/04/23 13:30:17.1    -224      3    -20    225    226 271.0  -5.1  34256  291.20 0854.37
2009/04/23 13:30:17.2    -399     13    101    400    413 271.9  14.3  34236  290.85 0854.37
2009/04/23 13:30:17.3    -331    -85      0    342    343 255.6   0.1  34202  290.28 0854.37
2009/04/23 13:30:17.4    -363     71    -38    370    373 281.1  -6.0  34208  290.37 0854.37
2009/04/23 13:30:17.5    -538    105   -166    549    573 281.1 -21.7  34162  289.60 0854.37
2009/04/23 13:30:17.6    -493    147   -186    515    547 286.7 -25.1  34160  289.57 0854.37
2009/04/23 13:30:17.7    -522     84   -231    529    577 279.2 -29.6  34166  289.68 0854.37
2009/04/23 13:30:17.8    -664    129   -270    677    728 281.0 -27.4  34176  289.84 0854.37
2009/04/23 13:30:17.9    -756    126   -222    767    798 279.5 -20.9  34154  289.47 0854.37
2009/04/23 13:30:18.0    -563     16   -103    564    574 271.7 -10.4  34164  289.64 0854.37
2009/04/23 13:30:18.1    -649     29   -209    650    682 272.6 -22.9  34158  289.53 0854.37
2009/04/23 13:30:18.2    -681    139   -282    696    750 281.6 -27.6  34134  289.13 0854.37
2009/04/23 13:30:18.3    -706    157   -239    724    762 282.6 -23.5  34158  289.53 0854.37
2009/04/23 13:30:18.4    -534    159    -12    558    559 286.6  -1.3  34182  289.94 0854.37
2009/04/23 13:30:18.5    -390    229   -118    453    469 300.4 -14.6  34176  289.83 0854.39
2009/04/23 13:30:18.6    -375    238   -175    445    478 302.4 -26.9  34152  289.42 0854.39
2009/04/23 13:30:18.7    -426    252   -139    495    515 300.6 -15.7  34140  289.22 0854.39
2009/04/23 13:30:18.8    -359    283   -129    458    477 308.2 -15.8  34140  289.23 0854.39
2009/04/23 13:30:18.9    -269    241   -131    362    384 311.8 -25.1  34156  289.50 0854.39
2009/04/23 13:30:19.0    -226    227   -142    321    351 315.1 -29.6  34152  289.42 0854.39
2009/04/23 13:30:19.1     -78     40   -103     88    135 297.5 -59.8  34180  289.92 0854.39
2009/04/23 13:30:19.2    -119      5     86    120    147 272.6  39.5  34188  290.06 0854.39
2009/04/23 13:30:19.3    -190     28    114    193    224 278.6  33.5  34202  290.28 0854.39
2009/04/23 13:30:19.4    -101    -10    106    102    147 263.9  51.2  34212  290.45 0854.39
2009/04/23 13:30:19.5     -16     -6    109     18    110 248.3  90.0  34206  290.36 0854.40
2009/04/23 13:30:19.6      50    -18     32     54     62 110.0  33.5  34208  290.40 0854.40
2009/04/23 13:30:19.7     -18     -6     57     20     60 251.4  81.2  34214  290.48 0854.40
2009/04/23 13:30:19.8     -33     52     86     62    106 327.4  60.6  34216  290.53 0854.40
2009/04/23 13:30:19.9       6     85     56     86    102   4.5  36.0  34218  290.57 0854.40
2009/04/23 13:30:20.0      23     75    -22     79     83  17.4 -16.0  34224  290.67 0854.40
2009/04/23 13:30:20.1      39     44    -34     59     68  41.4 -36.8  34226  290.69 0854.40
2009/04/23 13:30:20.2       9      4    -14     11     17  64.7 -60.8  34224  290.65 0854.40
2009/04/23 13:30:20.3     -24    -92     11     96     97 195.1   7.1  34194  290.16 0854.40
2009/04/23 13:30:20.4     -28   -140     -3    143    144 191.5  -1.3  34198  290.21 0854.40
2009/04/23 13:30:20.5     124   -123    -23    175    177 134.8  -7.5  34206  290.35 0854.40
2009/04/23 13:30:20.6     200   -135     38    242    246 124.0   8.9  34192  290.12 0854.40
2009/04/23 13:30:20.7     113   -124   -137    168    216 137.7 -48.1  34186  290.02 0854.40
2009/04/23 13:30:20.8     133   -160    -40    209    213 140.3 -10.9  34182  289.96 0854.40
2009/04/23 13:30:20.9     129   -146    -21    196    198 138.6  -6.2  34184  289.99 0854.40
2009/04/23 13:30:21.0     212   -101    -61    235    243 115.5 -14.7  34188  290.03 0854.40
2009/04/23 13:30:21.1     216    -55    -77    224    236 104.4 -24.0  34186  290.01 0854.40
2009/04/23 13:30:21.2     172   -145     27    226    228 130.2   6.9  34178  289.87 0854.40
2009/04/23 13:30:21.3     148   -151     29    212    214 135.5   7.8  34176  289.85 0854.40
2009/04/23 13:30:21.4      96    -63     46    115    123 123.3  23.0  34178  289.87 0854.40
2009/04/23 13:30:21.5       0    -98     47     99    109 180.4  27.2  34184  289.97 0854.39
2009/04/23 13:30:21.6       0      2     61      3     61 350.3  90.0  34178  289.87 0854.39
2009/04/23 13:30:21.7     -38    -14     31     41     51 250.0  41.7  34178  289.89 0854.39
2009/04/23 13:30:21.8      41     -7     58     42     71 100.6  60.5  34184  289.97 0854.39
2009/04/23 13:30:21.9      19    -10     96     22     98 117.1  87.5  34184  289.97 0854.39
2009/04/23 13:30:22.0     168   -147    161    224    275 131.1  39.3  34180  289.92 0854.39
2009/04/23 13:30:22.1     107   -181    214    211    300 149.3  50.2  34186  290.02 0854.39
2009/04/23 13:30:22.2      27   -123    176    127    217 167.5  60.6  34178  289.89 0854.39
2009/04/23 13:30:22.3     -15   -176     81    177    194 185.1  26.6  34186  290.01 0854.39
2009/04/23 13:30:22.4     142     -7    169    143    221  93.0  55.6  34170  289.75 0854.39
2009/04/23 13:30:22.5      78     -6    165     79    182  94.4  72.7  34184  289.97 0854.39
2009/04/23 13:30:22.6      32    -51    129     61    142 147.5  73.1  34184  289.99 0854.39
2009/04/23 13:30:22.7     150   -178    132    233    267 139.9  32.1  34178  289.88 0854.39
2009/04/23 13:30:22.8     258     56     47    265    270  77.6  10.1  34176  289.85 0854.39
2009/04/23 13:30:22.9     335     46     80    339    349  82.2  13.3  34168  289.72 0854.39
2009/04/23 13:30:23.0     279     53     68    285    294  79.2  13.5  34180  289.92 0854.39
2009/04/23 13:30:23.1     179     12     39    180    185  85.9  12.4  34176  289.84 0854.39
2009/04/23 13:30:23.2     150   -122     98    194    217 129.1  29.1  34166  289.69 0854.39
2009/04/23 13:30:23.3     -21    -89    -82     92    123 193.4 -51.3  34162  289.60 0854.39
2009/04/23 13:30:23.4      82   -106    -87    135    160 142.2 -40.4  34170  289.74 0854.39
2009/04/23 13:30:23.5     136    -36    -40    141    147 105.1 -16.0  34178  289.87 0854.39
2009/04/23 13:30:23.6     123     14     11    124    125  83.4   5.4  34182  289.94 0854.39
2009/04/23 13:30:23.7      63    -19     28     66     71 106.8  24.1  34176  289.84 0854.39
2009/04/23 13:30:23.8      84    -39    107     93    141 114.8  54.3  34170  289.74 0854.39
2009/04/23 13:30:23.9      42    -41    100     59    116 134.0  66.2  34184  289.99 0854.39
2009/04/23 13:30:24.0    -108    -29    134    112    174 254.9  56.1  34198  290.23 0854.39
2009/04/23 13:30:24.1    -119   -133     40    179    184 221.7  12.6  34196  290.19 0854.39
2009/04/23 13:30:24.2    -175   -182     35    253    256 223.9   8.0  34196  290.17 0854.39
2009/04/23 13:30:24.3    -200   -200    142    283    316 225.0  28.7  34208  290.37 0854.39
2009/04/23 13:30:24.4    -162   -173    188    238    303 223.2  42.7  34192  290.10 0854.39
2009/04/23 13:30:24.5    -170   -170    224    241    329 225.0  47.8  34178  289.88 0854.39
2009/04/23 13:30:24.6     -87   -218    255    235    346 201.9  52.6  34170  289.75 0854.39
2009/04/23 13:30:24.8    -108   -327    253    345    427 198.4  39.8  34170  289.75 0854.39
2009/04/23 13:30:24.9      71   -395    130    402    423 169.8  18.0  34168  289.70 0854.39
2009/04/23 13:30:25.0     123   -344     74    366    374 160.2  11.4  34168  289.71 0854.39
2009/04/23 13:30:25.1     101   -300     33    317    319 161.3   6.1  34166  289.68 0854.39
2009/04/23 13:30:25.2      31   -418    -54    420    424 175.7  -7.3  34156  289.51 0854.39
2009/04/23 13:30:25.3      66   -454     35    459    461 171.7   4.4  34166  289.66 0854.39
2009/04/23 13:30:25.4     -31   -322     31    324    326 185.6   5.5  34162  289.59 0854.39
2009/04/23 13:30:25.5       2   -251     34    252    255 179.5   7.8  34168  289.71 0854.38
2009/04/23 13:30:25.6     -82   -224    141    239    277 200.1  33.4  34162  289.59 0854.38
2009/04/23 13:30:25.7    -127   -199    242    237    338 212.5  50.7  34168  289.71 0854.38
2009/04/23 13:30:25.8    -209   -249    180    326    372 220.0  31.4  34168  289.71 0854.38
2009/04/23 13:30:25.9    -194   -328    -39    382    384 210.7  -5.9  34164  289.65 0854.38
2009/04/23 13:30:26.0    -135   -147    101    200    224 222.5  29.1  34166  289.69 0854.38
2009/04/23 13:30:26.1    -187   -185    137    264    297 225.3  29.3  34172  289.76 0854.38
2009/04/23 13:30:26.2    -185   -177     66    257    266 226.2  14.5  34174  289.80 0854.38
2009/04/23 13:30:26.3    -187   -139    -76    234    246 233.4 -23.3  34170  289.75 0854.38
2009/04/23 13:30:26.4    -305    -93    -40    320    323 252.9  -7.2  34182  289.93 0854.38
2009/04/23 13:30:26.5    -286    -57    -31    292    294 258.6  -6.2  34186  290.02 0854.38
2009/04/23 13:30:26.6    -292   -115    -77    314    324 248.5 -13.9  34188  290.05 0854.38
2009/04/23 13:30:26.7    -303   -161   -151    344    375 242.0 -29.6  34188  290.04 0854.38
2009/04/23 13:30:26.8    -257   -147   -180    297    347 240.2 -38.6  34188  290.03 0854.38
2009/04/23 13:30:26.9    -208   -136   -118    249    275 236.7 -31.5  34192  290.10 0854.38
2009/04/23 13:30:27.0    -337   -217    -47    402    405 237.2  -6.7  34196  290.17 0854.38
2009/04/23 13:30:27.1    -350    -51    -95    354    367 261.6 -15.0  34192  290.11 0854.38
2009/04/23 13:30:27.2    -311     13    -60    312    318 272.5 -10.9  34192  290.10 0854.38
2009/04/23 13:30:27.3    -219   -122     30    251    253 240.9   6.9  34188  290.03 0854.38
2009/04/23 13:30:27.4     -86   -151     16    174    175 209.6   5.4  34190  290.08 0854.38
2009/04/23 13:30:27.5    -144    -75    -53    163    172 242.5 -18.1  34186  290.01 0854.34
2009/04/23 13:30:27.6    -234     17     95    235    253 274.4  23.0  34186  290.00 0854.34
2009/04/23 13:30:27.7    -252    -56     91    259    275 257.4  19.4  34180  289.92 0854.34
2009/04/23 13:30:27.8    -193     23     61    195    205 277.0  17.4  34184  289.97 0854.34
2009/04/23 13:30:27.9    -101     84    -36    132    137 309.6 -15.5  34190  290.09 0854.34
2009/04/23 13:30:28.0     -68     63    -64     93    112 312.7 -42.4  34192  290.13 0854.34
2009/04/23 13:30:28.1     -83     68    -65    108    126 309.1 -38.4  34196  290.19 0854.34
2009/04/23 13:30:28.2     -94    141    -49    170    176 326.2 -20.4  34200  290.25 0854.34
2009/04/23 13:30:28.3      19    101   -159    103    189  11.1 -68.8  34198  290.21 0854.34
2009/04/23 13:30:28.4     114      1   -159    115    196  89.1 -64.9  34188  290.04 0854.34
2009/04/23 13:30:28.5    -108     15   -107    110    153 277.9 -54.3  34186  290.01 0854.34
2009/04/23 13:30:28.6    -179     -4   -152    180    235 268.5 -49.2  34186  290.02 0854.34
2009/04/23 13:30:28.7    -341     10   -108    342    359 271.7 -17.5  34188  290.06 0854.34
2009/04/23 13:30:28.8    -292     22   -169    293    338 274.4 -37.0  34178  289.88 0854.34
2009/04/23 13:30:28.9    -205    -42   -255    210    330 258.3 -60.8  34180  289.90 0854.34
2009/04/23 13:30:29.0    -125     -9   -200    126    236 265.7 -69.1  34184  289.99 0854.34
2009/04/23 13:30:29.1     136      0   -134    137    191  89.6 -53.8  34188  290.06 0854.34
2009/04/23 13:30:29.2      60     67    -54     91    105  41.9 -38.4  34184  289.99 0854.34
2009/04/23 13:30:29.3      57    203     59    211    220  15.8  15.6  34188  290.04 0854.34
2009/04/23 13:30:29.4     113    180    132    213    250  32.1  34.8  34188  290.03 0854.34
2009/04/23 13:30:29.5     134    143    132    197    237  43.2  37.0  34188  290.04 0854.34
2009/04/23 13:30:29.6     116    134    142    178    227  41.0  43.0  34188  290.04 0854.34
2009/04/23 13:30:29.7      24    137     85    140    163  10.2  34.2  34190  290.09 0854.34
2009/04/23 13:30:29.8      99     77     89    126    154  52.2  38.6  34184  289.99 0854.34
2009/04/23 13:30:29.9     150     39    131    155    202  75.4  44.8  34184  289.99 0854.34
2009/04/23 13:30:30.0     178     55    147    187    237  72.7  42.2  34182  289.96 0854.34
2009/04/23 13:30:30.1     149    -16    150    150    212  96.2  50.1  34186  290.02 0854.34
2009/04/23 13:30:30.2     176      7     77    177    193  87.6  24.9  34186  290.02 0854.34
2009/04/23 13:30:30.3     276     -4    125    277    303  90.9  26.2  34180  289.92 0854.34
2009/04/23 13:30:30.4     311      0    127    312    336  90.0  23.4  34174  289.82 0854.34
2009/04/23 13:30:30.5     235     53      4    241    242  77.2   1.0  34180  289.90 0854.34
2009/04/23 13:30:30.6     318   -150    -13    352    353 115.4  -2.2  34188  290.04 0854.34
2009/04/23 13:30:30.7     302   -183   -112    354    372 121.3 -17.6  34188  290.03 0854.34
2009/04/23 13:30:30.8     166   -171    -98    239    258 135.7 -27.8  34180  289.90 0854.34
2009/04/23 13:30:30.9      66   -135    -88    151    174 153.7 -37.5  34182  289.94 0854.34
2009/04/23 13:30:31.0      53    -94   -105    109    151 150.6 -53.4  34180  289.91 0854.34
2009/04/23 13:30:31.1      37    -74    -66     83    106 153.3 -47.1  34178  289.89 0854.34
2009/04/23 13:30:31.2      91    -61    -31    110    114 124.2 -20.7  34182  289.94 0854.34
2009/04/23 13:30:31.3      43   -120    -67    128    144 160.0 -34.2  34178  289.89 0854.34
2009/04/23 13:30:31.4      69   -184   -123    197    232 159.3 -39.9  34176  289.84 0854.34
2009/04/23 13:30:31.5     139   -122     36    185    189 131.3  11.1  34174  289.82 0854.34
2009/04/23 13:30:31.6     196    -30    140    199    243  98.8  38.5  34164  289.65 0854.34
2009/04/23 13:30:31.7      74     -1    110     75    133  90.8  62.7  34168  289.70 0854.34
2009/04/23 13:30:31.8     -21   -103     57    106    120 191.6  30.8  34176  289.85 0854.34
2009/04/23 13:30:31.9     -34   -145     63    149    161 193.3  24.3  34176  289.84 0854.34
2009/04/23 13:30:32.0      -6   -121     81    122    146 183.1  36.5  34170  289.74 0854.34
2009/04/23 13:30:32.1     -17   -207     55    208    216 184.9  15.0  34168  289.72 0854.34
2009/04/23 13:30:32.2       0   -295     23    296    297 180.1   4.6  34170  289.73 0854.34
2009/04/23 13:30:32.3     104   -285     71    304    313 160.0  13.2  34166  289.68 0854.34
2009/04/23 13:30:32.4     159   -250    146    297    330 147.5  28.0  34168  289.70 0854.34
2009/04/23 13:30:32.5     136   -237    137    274    306 150.1  28.5  34172  289.76 0854.34
2009/04/23 13:30:32.6     184   -214    163    283    326 139.2  32.7  34168  289.70 0854.34
2009/04/23 13:30:32.7     105   -295    123    314    337 160.4  22.5  34168  289.72 0854.34
2009/04/23 13:30:32.8     200   -309     51    369    373 147.0   7.9  34166  289.69 0854.34
2009/04/23 13:30:32.9     231   -292     47    373    376 141.6   7.2  34168  289.72 0854.34
2009/04/23 13:30:33.0     134   -243    -24    278    280 151.0  -5.1  34166  289.66 0854.34
2009/04/23 13:30:33.1      71   -247     31    258    260 164.0   6.9  34166  289.66 0854.34
2009/04/23 13:30:33.2     134   -234     60    270    277 150.2  12.6  34166  289.66 0854.34
2009/04/23 13:30:33.3     185   -279     60    336    342 146.4  10.1  34170  289.74 0854.34
2009/04/23 13:30:33.4     230   -288     81    369    378 141.4  12.4  34164  289.65 0854.34
2009/04/23 13:30:33.5     260   -325     32    417    419 141.4   4.5  34166  289.68 0854.32
2009/04/23 13:30:33.6     315   -209    111    379    396 123.6  16.4  34164  289.65 0854.32
2009/04/23 13:30:33.7     338   -186    139    386    411 118.9  19.9  34160  289.56 0854.32
2009/04/23 13:30:33.8     316   -149    189    350    397 115.3  30.7  34164  289.64 0854.32
2009/04/23 13:30:33.9     231    -96    169    251    302 112.6  37.3  34166  289.68 0854.32
2009/04/23 13:30:34.0     212    -85    113    229    255 112.0  28.2  34166  289.68 0854.32
2009/04/23 13:30:34.1     196    -74    206    210    294 110.8  49.8  34170  289.73 0854.32
2009/04/23 13:30:34.2     143    -73    187    161    246 117.0  55.0  34170  289.75 0854.32
2009/04/23 13:30:34.3       0   -110    144    111    181 180.0  58.5  34174  289.82 0854.32
2009/04/23 13:30:34.4       7   -158    106    159    191 177.4  36.7  34168  289.72 0854.32
2009/04/23 13:30:34.5      30   -258    160    260    305 173.3  34.8  34168  289.71 0854.32
2009/04/23 13:30:34.6     -23   -363    141    364    390 183.6  22.1  34172  289.77 0854.32
2009/04/23 13:30:34.7       9   -392    227    393    453 178.6  32.7  34172  289.78 0854.32
2009/04/23 13:30:34.8     -73   -347    102    355    370 191.9  16.1  34166  289.69 0854.32
2009/04/23 13:30:34.9     -74   -268    118    279    302 195.6  24.2  34168  289.71 0854.32
2009/04/23 13:30:35.0     -98   -344     47    358    362 195.9   7.5  34170  289.74 0854.32
2009/04/23 13:30:35.1     -18   -386     84    387    397 182.8  12.3  34180  289.91 0854.32
2009/04/23 13:30:35.2    -153   -348    -33    381    383 203.7  -5.1  34182  289.96 0854.32
2009/04/23 13:30:35.3    -188   -295   -121    351    371 212.5 -24.0  34188  290.03 0854.32
2009/04/23 13:30:35.4    -220   -241    -86    327    339 222.3 -14.8  34196  290.18 0854.32
2009/04/23 13:30:35.5    -183   -244   -125    306    330 216.9 -27.9  34176  289.83 0854.32
2009/04/23 13:30:35.6    -184   -202   -119    274    298 222.4 -29.5  34174  289.81 0854.32
2009/04/23 13:30:35.7    -255   -132   -115    288    310 242.7 -27.4  34186  290.02 0854.32
2009/04/23 13:30:35.8    -238   -151   -100    283    301 237.6 -19.6  34182  289.93 0854.32
2009/04/23 13:30:35.9    -199   -235      2    309    310 220.3   0.5  34176  289.85 0854.32
2009/04/23 13:30:36.0    -174   -364   -100    404    417 205.6 -13.9  34166  289.68 0854.32
2009/04/23 13:30:36.1    -191   -388    -24    433    434 206.3  -3.2  34166  289.66 0854.32
2009/04/23 13:30:36.2    -181   -383    -16    424    425 205.3  -2.2  34166  289.68 0854.32
2009/04/23 13:30:36.3    -215   -340    -15    403    404 212.2  -2.2  34168  289.72 0854.32
2009/04/23 13:30:36.4    -198   -357    -43    409    412 209.0  -6.1  34168  289.72 0854.32
2009/04/23 13:30:36.5    -222   -310    -48    382    386 215.7  -7.2  34162  289.62 0854.32
2009/04/23 13:30:36.6    -214   -246   -100    327    341 221.0 -22.2  34170  289.74 0854.32
2009/04/23 13:30:36.7    -142   -243    -87    282    295 210.3 -21.8  34170  289.75 0854.32
2009/04/23 13:30:36.8    -205   -214   -104    297    315 223.7 -19.4  34168  289.71 0854.32
2009/04/23 13:30:36.9    -283   -113    -89    305    318 248.2 -16.4  34164  289.63 0854.32
2009/04/23 13:30:37.0    -287   -170    -39    334    337 239.3  -6.8  34170  289.74 0854.32
2009/04/23 13:30:37.1    -299   -160     40    340    343 241.8   6.8  34172  289.77 0854.32
2009/04/23 13:30:37.2    -217   -173     86    278    292 231.4  17.3  34172  289.78 0854.32
2009/04/23 13:30:37.3    -155   -150    153    216    264 226.0  38.8  34172  289.78 0854.32
2009/04/23 13:30:37.4     -97   -139    185    170    251 215.0  52.7  34174  289.82 0854.32
2009/04/23 13:30:37.5    -139    -88    125    165    207 237.5  41.2  34176  289.85 0854.34
2009/04/23 13:30:37.6    -103    -14     70    105    126 262.0  36.5  34178  289.89 0854.34
2009/04/23 13:30:37.7     -67    -10     42     68     79 261.2  35.0  34176  289.84 0854.34
2009/04/23 13:30:37.8     -37     -1     98     38    105 267.4  77.6  34176  289.85 0854.34
2009/04/23 13:30:37.9      60    -66    102     90    136 138.1  54.2  34178  289.87 0854.34
2009/04/23 13:30:38.0     123    -53     54    135    145 113.5  23.0  34174  289.80 0854.34
2009/04/23 13:30:38.1     126   -151     11    197    198 140.1   3.3  34166  289.69 0854.34
2009/04/23 13:30:38.2     103   -145     74    179    193 144.6  23.4  34162  289.62 0854.34
2009/04/23 13:30:38.3     188   -103    101    215    237 118.9  27.1  34166  289.69 0854.34
2009/04/23 13:30:38.4     215   -101     61    238    246 115.2  14.5  34166  289.68 0854.34
2009/04/23 13:30:38.5      77   -120    131    143    193 147.4  47.7  34166  289.69 0854.34
2009/04/23 13:30:38.6     -13   -145    142    146    203 185.3  49.8  34170  289.75 0854.34
2009/04/23 13:30:38.7      11     23    115     26    117  25.4  87.5  34178  289.89 0854.34
2009/04/23 13:30:38.8     -43     48     60     65     88 317.7  47.9  34182  289.96 0854.34
2009/04/23 13:30:38.9     -34    -45     94     57    109 217.0  65.7  34172  289.77 0854.34
2009/04/23 13:30:39.0      22    -39    104     45    113 150.1  75.5  34178  289.89 0854.34
2009/04/23 13:30:39.1      29     22     65     37     74  52.2  67.7  34178  289.89 0854.34
2009/04/23 13:30:39.2       4     -1     53      5     53 108.4  90.0  34180  289.92 0854.34
2009/04/23 13:30:39.3      64     21     56     68     88  71.8  43.8  34172  289.79 0854.34
2009/04/23 13:30:39.4      47     30     63     56     84  57.5  53.3  34172  289.77 0854.34
2009/04/23 13:30:39.5       5    -12     54     14     55 158.2  84.9  34176  289.85 0854.37
2009/04/23 13:30:39.6     -29    125     52    129    139 346.6  23.0  34174  289.80 0854.37
2009/04/23 13:30:39.7      31     48     73     58     93  32.5  56.9  34180  289.91 0854.37
2009/04/23 13:30:39.8      55    -41     61     69     92 126.9  46.4  34182  289.96 0854.37
2009/04/23 13:30:39.9      -7   -102     35    103    109 184.0  18.9  34174  289.82 0854.37
2009/04/23 13:30:40.0     -23   -113     21    116    118 191.6  10.6  34172  289.77 0854.37
2009/04/23 13:30:40.1     -25   -141     12    144    145 190.2   5.0  34166  289.67 0854.37
2009/04/23 13:30:40.2     -37   -183    -61    187    197 191.6 -18.3  34168  289.72 0854.37
2009/04/23 13:30:40.3     115   -190    -71    223    234 148.8 -23.3  34170  289.74 0854.37
2009/04/23 13:30:40.4      25   -274    -18    276    277 174.7  -3.9  34170  289.75 0854.37
2009/04/23 13:30:40.5     -34   -349     -8    351    352 185.7  -1.4  34170  289.74 0854.35
2009/04/23 13:30:40.6     -83   -407      0    416    417 191.6   0.0  34174  289.80 0854.35
2009/04/23 13:30:40.7      11   -402    -24    403    404 178.4  -3.5  34176  289.83 0854.35
2009/04/23 13:30:40.8     -65   -395    -62    401    406 189.4  -8.9  34180  289.92 0854.35
2009/04/23 13:30:40.9    -138   -362    -42    388    391 201.0  -6.3  34176  289.84 0854.35
2009/04/23 13:30:41.0    -155   -298    -40    337    340 207.5  -6.8  34166  289.67 0854.35
2009/04/23 13:30:41.1    -221   -233     27    322    324 223.4   4.9  34168  289.70 0854.35
2009/04/23 13:30:41.2    -190   -323   -113    375    392 210.5 -16.8  34164  289.65 0854.35
2009/04/23 13:30:41.3     -80   -277     14    289    290 196.1   2.8  34162  289.61 0854.35
2009/04/23 13:30:41.4    -149   -224     61    270    277 213.6  12.9  34170  289.75 0854.35
2009/04/23 13:30:41.5    -208   -136    106    249    270 236.7  24.3  34172  289.76 0854.35
2009/04/23 13:30:41.6    -199   -152     18    251    252 232.7   4.2  34172  289.78 0854.35
2009/04/23 13:30:41.7    -224   -191     41    295    298 229.6   8.0  34170  289.73 0854.35
2009/04/23 13:30:41.8    -201   -221    104    299    317 222.3  19.2  34172  289.76 0854.35
2009/04/23 13:30:41.9    -193   -235     44    305    309 219.4   8.2  34170  289.75 0854.35
2009/04/23 13:30:42.0    -223   -209    -27    306    308 226.8  -5.2  34172  289.78 0854.35
2009/04/23 13:30:42.1    -269   -241   -124    362    383 228.1 -19.0  34178  289.86 0854.35
2009/04/23 13:30:42.2    -291   -188    -27    347    349 237.0  -4.6  34186  290.01 0854.35
2009/04/23 13:30:42.3    -266   -158    -93    310    323 239.3 -21.5  34186  290.00 0854.35
2009/04/23 13:30:42.4    -127   -255    -86    286    299 206.5 -16.8  34168  289.71 0854.35
2009/04/23 13:30:42.5     -19   -289    -82    290    301 183.8 -20.7  34178  289.88 0854.36
2009/04/23 13:30:42.6     -41   -233    -13    237    238 190.0  -3.1  34176  289.83 0854.36
2009/04/23 13:30:42.7     -52    -90     20    105    108 210.3  11.1  34174  289.82 0854.36
2009/04/23 13:30:42.8    -124   -114    -51    169    177 227.6 -16.8  34178  289.89 0854.36
2009/04/23 13:30:42.9    -192   -122    -78    228    240 237.6 -23.8  34186  290.00 0854.36
2009/04/23 13:30:43.0     -91    -77    -39    120    126 229.6 -23.8  34178  289.87 0854.36
2009/04/23 13:30:43.1      -8    -48     70     49     85 189.8  62.1  34180  289.92 0854.36
2009/04/23 13:30:43.2      41    -57     42     71     82 144.0  33.5  34182  289.94 0854.36
2009/04/23 13:30:43.3       9    -27    -36     29     46 160.0 -61.9  34182  289.94 0854.36
2009/04/23 13:30:43.4       6    -78    -60     79     99 175.5 -45.1  34180  289.92 0854.36
2009/04/23 13:30:43.5     -17    -72    -44     75     86 193.4 -37.9  34182  289.94 0854.36
2009/04/23 13:30:43.6       0   -125    -75    126    146 180.4 -37.9  34180  289.91 0854.36
2009/04/23 13:30:43.7      95   -159    -35    186    190 149.3 -10.9  34174  289.80 0854.36
2009/04/23 13:30:43.8      40   -197    -72    202    215 168.4 -19.7  34176  289.84 0854.36
2009/04/23 13:30:43.9       0   -202    -69    203    214 180.2 -23.3  34174  289.80 0854.36
2009/04/23 13:30:44.0     -52   -227    -67    233    242 192.9 -20.8  34178  289.86 0854.36
2009/04/23 13:30:44.1    -114   -185    -27    218    220 211.6  -7.2  34172  289.77 0854.36
2009/04/23 13:30:44.2    -191   -113     10    222    223 239.4   2.8  34174  289.80 0854.36
2009/04/23 13:30:44.3    -259   -293    -51    392    396 221.4  -7.5  34174  289.82 0854.36
2009/04/23 13:30:44.4    -303   -366    -50    476    479 219.6  -6.1  34168  289.71 0854.36
2009/04/23 13:30:44.5    -229   -316    -85    391    401 215.9 -12.4  34168  289.72 0854.37
2009/04/23 13:30:44.6    -109   -326    -44    345    348 198.6  -7.3  34170  289.74 0854.37
2009/04/23 13:30:44.7     -99   -272     14    290    291 200.1   2.8  34166  289.66 0854.37
2009/04/23 13:30:44.8     -49   -240     60    246    254 191.6  13.7  34170  289.73 0854.37
2009/04/23 13:30:44.9     -98   -153     35    183    187 212.7  11.0  34166  289.69 0854.37
2009/04/23 13:30:45.0    -102   -159     95    190    212 212.7  28.2  34168  289.72 0854.37
2009/04/23 13:30:45.1     -24   -303    144    305    337 184.7  27.1  34168  289.71 0854.37
2009/04/23 13:30:45.2     -31   -288    132    290    318 186.2  26.2  34170  289.73 0854.37
2009/04/23 13:30:45.3    -105   -304    115    322    341 199.1  20.2  34166  289.67 0854.37
2009/04/23 13:30:45.4    -166   -338     63    377    383 206.2   9.5  34164  289.65 0854.37
2009/04/23 13:30:45.5    -182   -327     99    375    388 209.2  14.9  34172  289.77 0854.37
2009/04/23 13:30:45.6    -249   -253     72    356    364 224.5  11.5  34174  289.82 0854.37
2009/04/23 13:30:45.7    -278   -197      2    341    342 234.6   0.5  34172  289.79 0854.37
2009/04/23 13:30:45.8    -295   -123    107    320    338 247.3  18.6  34172  289.79 0854.37
2009/04/23 13:30:45.9    -296    -74     97    306    322 255.8  17.7  34168  289.71 0854.37
2009/04/23 13:30:46.0    -301    -13     71    302    311 267.4  13.2  34172  289.76 0854.37
2009/04/23 13:30:46.1    -242    -41   -184    246    307 260.3 -45.0  34172  289.76 0854.37
2009/04/23 13:30:46.2    -157   -128   -171    203    265 230.7 -48.7  34170  289.75 0854.37
2009/04/23 13:30:46.3    -145     20   -104    147    180 278.0 -43.2  34168  289.72 0854.37
2009/04/23 13:30:46.4     -70     66    -35     97    104 313.1 -19.7  34168  289.70 0854.37
2009/04/23 13:30:46.5     -26    -17     16     32     35 235.8  27.3  34170  289.74 0854.37
2009/04/23 13:30:46.6     -60   -224     32    232    235 195.1   8.0  34176  289.83 0854.37
2009/04/23 13:30:46.7    -121   -255    -11    283    284 205.3  -2.2  34174  289.81 0854.37
2009/04/23 13:30:46.8    -159   -218   -114    270    293 216.1 -28.6  34170  289.75 0854.37
2009/04/23 13:30:46.9     -31   -289    -59    291    298 186.2 -11.6  34168  289.70 0854.37
2009/04/23 13:30:47.0     -35   -316    -78    319    329 186.5 -13.8  34170  289.73 0854.37
2009/04/23 13:30:47.1     -45   -316    -85    320    332 188.1 -15.0  34170  289.75 0854.37
2009/04/23 13:30:47.2     -76   -359   -119    368    387 192.0 -17.9  34172  289.76 0854.37
2009/04/23 13:30:47.3     -48   -333    -24    337    338 188.2  -4.2  34172  289.76 0854.37
2009/04/23 13:30:47.4     -32   -281    -25    283    285 186.7  -5.2  34172  289.78 0854.37
2009/04/23 13:30:47.5     -97   -291     14    307    308 198.5   2.8  34174  289.80 0854.37
2009/04/23 13:30:47.6     -51   -240     67    246    256 192.0  15.3  34172  289.78 0854.37
2009/04/23 13:30:47.7      27   -239     95    241    259 173.5  22.8  34170  289.73 0854.37
2009/04/23 13:30:47.8      35   -249    110    252    274 171.9  25.1  34172  289.76 0854.37
2009/04/23 13:30:47.9      43   -349     91    352    364 172.9  14.6  34168  289.72 0854.37
2009/04/23 13:30:48.0     115   -379     47    397    400 163.1   6.8  34166  289.67 0854.37
2009/04/23 13:30:48.1      86   -351     17    362    363 166.2   2.8  34166  289.67 0854.37
2009/04/23 13:30:48.2      15   -251     65    252    261 176.4  14.5  34166  289.66 0854.37
2009/04/23 13:30:48.3     -37   -359    141    361    387 186.0  22.5  34166  289.69 0854.37
2009/04/23 13:30:48.4     -55   -391    118    396    414 188.1  16.7  34166  289.68 0854.37
2009/04/23 13:30:48.5      30   -120    200    124    235 165.7  65.4  34186  290.01 0854.37
2009/04/23 13:30:48.6      -4   -301    145    302    335 180.9  27.3  34168  289.71 0854.37
2009/04/23 13:30:48.7     -43   -226    233    231    328 190.9  50.1  34184  289.97 0854.37
2009/04/23 13:30:48.8     -50   -243    181    249    307 191.8  39.7  34178  289.86 0854.37
2009/04/23 13:30:48.9     -76   -230    167    243    294 198.5  37.6  34180  289.90 0854.37
2009/04/23 13:30:49.0     -51   -276    224    281    359 190.5  42.6  34178  289.89 0854.37
2009/04/23 13:30:49.1       0   -317    224    318    388 180.0  38.6  34174  289.82 0854.37
2009/04/23 13:30:49.2     -24   -265    282    267    388 185.3  52.0  34176  289.84 0854.37
2009/04/23 13:30:49.3       2   -290    217    291    363 179.5  40.6  34172  289.76 0854.37
2009/04/23 13:30:49.4      31   -262    146    264    301 173.1  31.4  34172  289.78 0854.37
2009/04/23 13:30:49.5     145   -173    118    226    254 140.1  29.8  34174  289.80 0854.37
2009/04/23 13:30:49.6     184    -98     13    209    210 118.2   3.8  34174  289.80 0854.37
2009/04/23 13:30:49.7     129   -133     77    186    201 136.1  23.6  34170  289.75 0854.37
2009/04/23 13:30:49.8     122   -115     70    168    182 133.3  23.8  34170  289.75 0854.37
2009/04/23 13:30:49.9     122   -183    151    221    267 146.2  37.6  34170  289.75 0854.37
2009/04/23 13:30:50.0     179   -139     56    227    234 127.8  13.9  34172  289.77 0854.37
2009/04/23 13:30:50.1     181   -161     -9    243    244 131.6  -2.2  34172  289.76 0854.37
2009/04/23 13:30:50.2      68   -143     29    159    162 154.5  10.6  34174  289.82 0854.37
2009/04/23 13:30:50.3     116   -113     -3    163    164 134.2  -1.3  34174  289.82 0854.37
2009/04/23 13:30:50.4      18   -275    -50    276    281 176.2 -10.4  34176  289.85 0854.38
2009/04/23 13:30:50.5      20   -254    -79    255    266 175.3 -22.3  34174  289.80 0854.38
2009/04/23 13:30:50.6     -41   -241    -31    245    248 189.8  -7.3  34176  289.83 0854.38
2009/04/23 13:30:50.7    -121   -322     26    345    346 200.6   4.4  34166  289.69 0854.38
2009/04/23 13:30:50.8    -116   -291     82    314    325 201.9  14.7  34176  289.85 0854.38
2009/04/23 13:30:50.9     -70   -277     95    286    302 194.3  18.4  34176  289.85 0854.38
2009/04/23 13:30:51.0     -59   -338     89    344    356 190.0  14.5  34178  289.86 0854.38
2009/04/23 13:30:51.1    -103   -309    -12    326    327 198.5  -2.2  34176  289.85 0854.38
2009/04/23 13:30:51.2    -156   -282    -12    323    324 208.9  -2.2  34172  289.78 0854.38
2009/04/23 13:30:51.3    -171   -224     24    283    285 217.4   4.9  34182  289.95 0854.38
2009/04/23 13:30:51.4    -131   -196     70    237    248 213.8  16.4  34176  289.85 0854.38
2009/04/23 13:30:51.5    -120   -285     88    310    323 202.8  15.9  34172  289.78 0854.38
2009/04/23 13:30:51.6     -92   -264    173    280    329 199.2  34.8  34174  289.81 0854.38
2009/04/23 13:30:51.7     -18   -207    188    208    280 185.1  46.9  34178  289.88 0854.38
2009/04/23 13:30:51.8     -93   -161    159    187    245 210.1  44.8  34178  289.89 0854.38
2009/04/23 13:30:51.9     -42   -159    143    165    218 195.1  45.6  34176  289.84 0854.38
2009/04/23 13:30:52.0     -39   -216    186    220    288 190.2  44.5  34172  289.78 0854.38
2009/04/23 13:30:52.1       0   -352    230    353    421 180.0  36.0  34174  289.82 0854.38
2009/04/23 13:30:52.2     103   -394    140    408    432 165.3  18.9  34178  289.88 0854.38
2009/04/23 13:30:52.3     105   -477    -87    489    497 167.5 -10.1  34172  289.78 0854.38
2009/04/23 13:30:52.4     168   -545   -125    571    585 162.8 -12.4  34170  289.75 0854.40
2009/04/23 13:30:52.5     168   -549   -106    575    585 163.0 -10.5  34174  289.81 0854.40
2009/04/23 13:30:52.7     231   -576    -13    621    622 158.1  -1.3  34174  289.81 0854.40
2009/04/23 13:30:52.8     298   -408    -83    506    513 143.8  -9.3  34170  289.74 0854.40
2009/04/23 13:30:52.9     295   -373    -31    476    477 141.6  -3.7  34172  289.76 0854.40
2009/04/23 13:30:53.0     236   -287     16    372    373 140.5   2.5  34164  289.65 0854.40
2009/04/23 13:30:53.1     317   -318     -2    450    451 135.1  -0.3  34168  289.70 0854.40
2009/04/23 13:30:53.2     343   -331     71    477    483 134.0   8.5  34174  289.81 0854.40
2009/04/23 13:30:53.3     302   -282     58    414    419 133.0   8.0  34172  289.77 0854.40
2009/04/23 13:30:53.4     263   -367    158    452    478 144.3  20.0  34172  289.79 0854.40
2009/04/23 13:30:53.5     224   -380    281    442    523 149.5  35.5  34166  289.66 0854.40
2009/04/23 13:30:53.6     204   -484    223    526    571 157.1  24.2  34168  289.72 0854.40
2009/04/23 13:30:53.7     147   -497    181    519    549 163.5  20.0  34170  289.74 0854.40
2009/04/23 13:30:53.8     169   -521     93    548    556 162.0   9.7  34168  289.70 0854.40
2009/04/23 13:30:53.9     107   -522     49    534    537 168.4   5.3  34170  289.75 0854.40
2009/04/23 13:30:54.0     193   -392    116    438    454 153.7  14.9  34166  289.68 0854.40
2009/04/23 13:30:54.1     204   -309    -26    371    372 146.5  -4.0  34162  289.62 0854.40
2009/04/23 13:30:54.2     188   -619    118    648    659 163.1  10.3  34170  289.74 0854.40
2009/04/23 13:30:54.3     -64   -269    -60    277    284 193.4 -12.4  34170  289.75 0854.40
2009/04/23 13:30:54.4     -74   -130   -107    150    184 209.9 -43.5  34174  289.80 0854.40
2009/04/23 13:30:54.5     -63   -126    -18    142    144 206.7  -7.3  34170  289.75 0854.41
2009/04/23 13:30:54.6      58   -166     61    176    187 160.6  19.2  34174  289.80 0854.41
2009/04/23 13:30:54.7     176   -338     74    382    390 152.5  11.0  34182  289.93 0854.41
2009/04/23 13:30:54.8     244   -404    222    473    522 148.9  27.1  34170  289.74 0854.41
2009/04/23 13:30:54.9     225   -442    197    497    534 153.0  22.9  34172  289.79 0854.41
2009/04/23 13:30:55.0     319   -470    244    569    619 145.8  24.8  34166  289.69 0854.41
2009/04/23 13:30:55.1     271   -411    169    493    522 146.5  18.9  34178  289.89 0854.41
2009/04/23 13:30:55.2     238   -456     -3    515    516 152.4  -0.4  34178  289.89 0854.41
2009/04/23 13:30:55.3     -47   -644    116    646    657 184.2  10.2  34168  289.72 0854.41
2009/04/23 13:30:55.4     -23   -526   -244    527    580 182.6 -31.0  34166  289.67 0854.41
2009/04/23 13:30:55.5    -107   -419   -148    433    457 194.4 -23.8  34176  289.83 0854.41
2009/04/23 13:30:55.6     148   -266   -202    305    365 150.8 -41.0  34182  289.93 0854.41
2009/04/23 13:30:55.7     -95   -260   -149    277    314 200.1 -35.0  34178  289.88 0854.41
2009/04/23 13:30:55.8    -252   -292   -181    386    426 220.8 -31.5  34184  289.99 0854.41
2009/04/23 13:30:55.9    -104   -384   -237    398    463 195.2 -37.9  34178  289.87 0854.41
2009/04/23 13:30:56.0    -120   -526   -222    540    583 192.9 -28.0  34176  289.83 0854.41
2009/04/23 13:30:56.1    -169   -566   -176    591    617 196.6 -16.6  34174  289.81 0854.41
2009/04/23 13:30:56.2     -60   -596    -36    600    602 185.8  -3.5  34176  289.83 0854.41
2009/04/23 13:30:56.3    -126   -445   -160    463    490 195.8 -19.1  34180  289.91 0854.41
2009/04/23 13:30:56.4    -137   -575   -138    592    608 193.4 -13.2  34180  289.90 0854.41
2009/04/23 13:30:56.5     -80   -539   -201    545    580 188.5 -25.5  34180  289.90 0854.42
2009/04/23 13:30:56.6    -106   -562   -232    573    618 190.7 -27.5  34178  289.86 0854.42
2009/04/23 13:30:56.7    -207   -462   -280    507    579 204.2 -35.7  34170  289.74 0854.42
2009/04/23 13:30:56.8    -360   -348   -264    501    566 226.0 -34.5  34182  289.94 0854.42
2009/04/23 13:30:56.9    -330   -331   -162    468    495 224.9 -24.3  34182  289.95 0854.42
2009/04/23 13:30:57.0    -100   -260    -83    279    292 201.2 -16.6  34174  289.80 0854.42
2009/04/23 13:30:57.1     -83   -119     80    146    166 214.7  31.0  34180  289.91 0854.42
2009/04/23 13:30:57.2     -92     -4      0     93     94 267.0  -0.3  34182  289.96 0854.42
2009/04/23 13:30:57.3    -110    -89      7    142    143 230.9   2.9  34186  290.01 0854.42
2009/04/23 13:30:57.4      46   -143    -45    151    157 162.2 -21.5  34186  290.02 0854.42
2009/04/23 13:30:57.5     131    -62    -66    146    160 115.3 -30.3  34182  289.96 0854.42
2009/04/23 13:30:57.6     133   -183     -1    227    228 144.0  -0.5  34180  289.92 0854.42
2009/04/23 13:30:57.7     184   -194     11    268    269 136.6   2.5  34178  289.88 0854.42
2009/04/23 13:30:57.8     282   -197    -18    345    346 125.0  -3.1  34182  289.93 0854.42
2009/04/23 13:30:57.9     216   -445     47    495    498 154.1   5.5  34174  289.81 0854.42
2009/04/23 13:30:58.0     119   -589    -33    601    602 168.5  -3.2  34178  289.86 0854.42
2009/04/23 13:30:58.1     175   -470   -139    502    521 159.6 -15.5  34176  289.84 0854.42
2009/04/23 13:30:58.2     289   -463    -75    546    552 148.0  -7.9  34172  289.77 0854.42
2009/04/23 13:30:58.3     277   -458    -81    536    543 148.8  -8.6  34170  289.74 0854.42
2009/04/23 13:30:58.4     173   -463    -62    495    499 159.5  -7.2  34174  289.81 0854.42
2009/04/23 13:30:58.5      55   -281     32    287    289 168.9   6.5  34178  289.86 0854.43
2009/04/23 13:30:58.6     103   -256     87    277    291 158.1  17.4  34180  289.90 0854.43
2009/04/23 13:30:58.7     -65   -276     66    284    292 193.3  13.2  34174  289.81 0854.43
2009/04/23 13:30:58.8    -116   -310     78    332    342 200.5  13.3  34178  289.87 0854.43
2009/04/23 13:30:58.9      -4   -316    -64    317    324 180.9 -11.6  34174  289.80 0854.43
2009/04/23 13:30:59.0    -141   -333   -101    362    375 202.9 -20.1  34178  289.86 0854.43
2009/04/23 13:30:59.1     -67   -475     36    480    482 188.1   4.4  34178  289.86 0854.43
2009/04/23 13:30:59.2     -26   -324    191    326    377 184.7  33.0  34174  289.81 0854.43
2009/04/23 13:30:59.3      74   -275    119    285    308 164.8  24.1  34174  289.81 0854.43
2009/04/23 13:30:59.4      42   -352    223    355    419 173.2  35.3  34182  289.94 0854.43
2009/04/23 13:30:59.5     147   -335     54    367    372 156.3   8.5  34180  289.91 0854.43
2009/04/23 13:30:59.6      74   -531     -2    537    538 172.0  -0.3  34182  289.94 0854.43
2009/04/23 13:30:59.7     136   -385    -27    409    410 160.5  -3.9  34178  289.88 0854.43
2009/04/23 13:30:59.8      85   -280    167    293    337 163.1  32.3  34178  289.88 0854.43
2009/04/23 13:30:59.9      56   -388    263    393    472 171.8  37.0  34180  289.90 0854.43
2009/04/23 13:31:00.0      -5   -426    254    427    496 180.7  33.6  34182  289.96 0854.43
2009/04/23 13:31:00.1     -99   -451    207    462    506 192.5  25.7  34180  289.91 0854.43
2009/04/23 13:31:00.2    -118   -336    211    357    414 199.4  33.4  34178  289.87 0854.43
2009/04/23 13:31:00.3     -26   -180    158    182    241 188.2  45.6  34176  289.84 0854.43
2009/04/23 13:31:00.4     -32   -290    216    292    363 186.5  40.2  34180  289.91 0854.43
2009/04/23 13:31:00.5     -39   -315    122    318    340 187.1  22.2  34182  289.96 0854.43
2009/04/23 13:31:00.6     -66   -275     24    283    285 193.6   4.9  34174  289.81 0854.43
2009/04/23 13:31:00.7    -120   -343      3    364    365 199.4   0.5  34182  289.94 0854.43
2009/04/23 13:31:00.8    -147   -445    -25    469    470 198.3  -3.1  34178  289.86 0854.43
2009/04/23 13:31:00.9    -239   -507    -46    561    563 205.3  -4.7  34180  289.90 0854.43
2009/04/23 13:31:01.0    -301   -449    -89    541    549 213.9  -9.3  34180  289.90 0854.43
2009/04/23 13:31:01.1    -148   -456    -49    480    483 198.0  -5.9  34180  289.91 0854.43
2009/04/23 13:31:01.2    -127   -579      7    593    594 192.4   0.7  34182  289.93 0854.43
2009/04/23 13:31:01.3     -81   -562     12    568    569 188.2   1.2  34176  289.83 0854.43
2009/04/23 13:31:01.4     -48   -519     82    522    529 185.3   9.0  34180  289.90 0854.43
2009/04/23 13:31:01.5    -146   -545     89    565    573 195.1   9.0  34184  289.97 0854.44
2009/04/23 13:31:01.6    -148   -491      0    513    514 196.8   0.1  34178  289.88 0854.44
2009/04/23 13:31:01.7    -130   -545    -78    561    567 193.4  -7.9  34178  289.89 0854.44
2009/04/23 13:31:01.8      28   -517    -95    518    527 176.9 -10.5  34182  289.94 0854.44
2009/04/23 13:31:01.9      -4   -537   -116    538    551 180.5 -12.2  34180  289.90 0854.44
2009/04/23 13:31:02.0    -103   -444   -173    456    487 193.1 -26.2  34184  289.98 0854.44
2009/04/23 13:31:02.1    -157   -485   -167    510    536 198.0 -23.3  34176  289.84 0854.44
2009/04/23 13:31:02.2    -233   -592   -198    637    668 201.5 -17.3  34172  289.78 0854.44
2009/04/23 13:31:02.3    -234   -585   -137    631    646 201.9 -12.3  34172  289.79 0854.44
2009/04/23 13:31:02.4    -220   -563   -134    605    620 201.4 -12.5  34180  289.92 0854.44
2009/04/23 13:31:02.5    -161   -529   -137    554    571 197.0 -13.9  34186  290.01 0854.44
2009/04/23 13:31:02.6    -206   -464   -174    508    536 204.0 -23.9  34180  289.90 0854.44
2009/04/23 13:31:02.7    -196   -481   -184    520    551 202.2 -24.7  34172  289.79 0854.44
2009/04/23 13:31:02.8    -237   -488   -188    543    574 206.0 -24.3  34170  289.74 0854.44
2009/04/23 13:31:02.9    -279   -470   -272    547    610 210.7 -32.6  34168  289.71 0854.44
2009/04/23 13:31:03.0    -210   -425   -275    475    548 206.3 -37.1  34172  289.77 0854.44
2009/04/23 13:31:03.1    -309   -454   -281    550    617 214.3 -33.6  34170  289.73 0854.44
2009/04/23 13:31:03.2    -292   -454   -239    540    590 212.8 -29.6  34170  289.73 0854.44
2009/04/23 13:31:03.3    -265   -440   -167    514    541 211.1 -18.1  34172  289.77 0854.44
2009/04/23 13:31:03.4    -198   -435   -145    479    501 204.5 -16.9  34176  289.84 0854.44
2009/04/23 13:31:03.5    -103   -427    -88    440    449 193.6 -11.3  34172  289.77 0854.45
2009/04/23 13:31:03.6     -97   -396   -139    408    432 193.8 -18.8  34176  289.85 0854.45
2009/04/23 13:31:03.7    -212   -391   -181    446    481 208.5 -27.9  34170  289.74 0854.45
2009/04/23 13:31:03.8    -199   -456   -214    498    542 203.6 -29.3  34172  289.77 0854.45
2009/04/23 13:31:03.9    -122   -495   -171    510    537 193.9 -23.3  34168  289.70 0854.45
2009/04/23 13:31:04.0    -158   -519   -194    543    576 196.9 -24.8  34166  289.67 0854.45
2009/04/23 13:31:04.1    -195   -518   -127    554    569 200.7 -12.9  34166  289.67 0854.45
2009/04/23 13:31:04.2    -247   -453   -168    516    543 208.6 -18.1  34168  289.72 0854.45
2009/04/23 13:31:04.3    -233   -421   -133    482    501 209.0 -15.5  34170  289.74 0854.45
2009/04/23 13:31:04.4    -241   -343   -142    420    444 215.1 -18.7  34170  289.73 0854.45
2009/04/23 13:31:04.5    -149   -314    -99    348    361 205.5 -20.5  34168  289.71 0854.45
2009/04/23 13:31:04.6       6   -359   -109    360    376 179.0 -21.7  34168  289.72 0854.45
2009/04/23 13:31:04.7    -209   -506   -156    548    570 202.5 -15.9  34168  289.72 0854.45
2009/04/23 13:31:04.8    -206   -476   -101    519    529 203.4 -11.1  34170  289.74 0854.45
2009/04/23 13:31:04.9    -269   -310    -75    411    418 220.9 -10.4  34170  289.73 0854.45
2009/04/23 13:31:05.0    -202   -506   -101    546    556 201.8 -10.5  34172  289.79 0854.45
2009/04/23 13:31:05.1    -208   -520   -135    561    578 201.8 -13.6  34172  289.78 0854.45
2009/04/23 13:31:05.2    -178   -552   -138    581    598 197.9 -13.4  34172  289.78 0854.45
2009/04/23 13:31:05.3    -175   -552   -173    580    606 197.6 -16.6  34174  289.80 0854.45
2009/04/23 13:31:05.4    -163   -608    -12    630    631 195.1  -1.2  34172  289.77 0854.45
2009/04/23 13:31:05.5    -194   -631     34    661    662 197.1   3.0  34174  289.80 0854.47
2009/04/23 13:31:05.6    -194   -579     85    612    618 198.6   7.9  34176  289.84 0854.47
2009/04/23 13:31:05.7       6   -654     59    655    658 179.4   5.2  34170  289.75 0854.47
2009/04/23 13:31:05.8     -14   -641     60    642    646 181.3   5.4  34172  289.79 0854.47
2009/04/23 13:31:05.9    -158   -566     98    588    597 195.7   9.5  34160  289.58 0854.47
2009/04/23 13:31:06.0    -147   -452    -42    476    478 198.1  -5.1  34174  289.81 0854.47
2009/04/23 13:31:06.1    -208   -270    -48    342    346 217.6  -8.1  34174  289.81 0854.47
2009/04/23 13:31:06.2    -279   -287    -15    401    402 224.2  -2.2  34180  289.91 0854.47
2009/04/23 13:31:06.3    -211   -359   -122    417    435 210.5 -16.4  34176  289.85 0854.47
2009/04/23 13:31:06.4    -147   -328   -114    360    377 204.2 -22.8  34174  289.82 0854.47
2009/04/23 13:31:06.5    -114   -397   -123    414    431 196.0 -21.5  34178  289.87 0854.47
2009/04/23 13:31:06.6    -169   -316   -122    359    380 208.1 -18.8  34176  289.84 0854.47
2009/04/23 13:31:06.7    -146   -342    -89    373    384 203.2 -13.4  34180  289.91 0854.47
2009/04/23 13:31:06.8     -76   -378    -28    386    388 191.5  -4.2  34172  289.79 0854.47
2009/04/23 13:31:06.9     -14   -304    -14    305    306 182.7  -2.8  34174  289.80 0854.47
2009/04/23 13:31:07.0      35   -248      0    251    252 171.9   0.0  34172  289.78 0854.47
2009/04/23 13:31:07.1      46   -271     -6    276    277 170.2  -1.3  34172  289.78 0854.47
2009/04/23 13:31:07.2      38   -225    -41    229    233 170.3 -10.3  34174  289.80 0854.47
2009/04/23 13:31:07.3      43   -203    -19    208    209 168.0  -5.4  34174  289.80 0854.47
2009/04/23 13:31:07.4      49   -206    -27    212    214 166.4  -7.3  34172  289.77 0854.47
2009/04/23 13:31:07.5      30   -203     34    206    209 171.5   9.5  34168  289.72 0854.48
2009/04/23 13:31:07.6      89   -189     56    209    217 154.8  15.0  34170  289.74 0854.48
2009/04/23 13:31:07.7     127   -187     60    227    235 145.7  15.0  34166  289.67 0854.48
2009/04/23 13:31:07.8     113   -177    113    211    239 147.5  30.3  34168  289.72 0854.48
2009/04/23 13:31:07.9     128   -156    140    203    246 140.6  37.8  34168  289.71 0854.48
2009/04/23 13:31:08.0     162   -178    148    242    283 137.7  34.4  34170  289.73 0854.48
2009/04/23 13:31:08.1     160   -227    217    279    353 144.8  41.9  34170  289.74 0854.48
2009/04/23 13:31:08.2     155   -213    166    264    311 144.0  35.5  34168  289.71 0854.48
2009/04/23 13:31:08.3     131   -181    169    224    280 144.2  40.7  34174  289.80 0854.48
2009/04/23 13:31:08.4     103   -190    119    217    247 151.5  31.3  34172  289.76 0854.48
2009/04/23 13:31:08.5      60   -209    111    218    244 164.0  29.1  34174  289.80 0854.48
2009/04/23 13:31:08.6      49   -251     70    256    266 168.9  15.3  34172  289.76 0854.48
2009/04/23 13:31:08.7      72   -275    107    285    304 165.3  21.5  34172  289.76 0854.48
2009/04/23 13:31:08.8     101   -267     67    286    294 159.3  13.2  34172  289.78 0854.48
2009/04/23 13:31:08.9      96   -285     59    301    307 161.3  11.1  34172  289.76 0854.48
2009/04/23 13:31:09.0      54   -268    -10    274    275 168.4  -2.2  34172  289.78 0854.48
2009/04/23 13:31:09.1      63   -229     -9    238    239 164.6  -2.2  34174  289.81 0854.48
2009/04/23 13:31:09.2     167   -294     63    339    345 150.5  10.6  34176  289.84 0854.48
2009/04/23 13:31:09.3      80   -298     67    309    317 164.8  12.4  34178  289.88 0854.48
2009/04/23 13:31:09.4      91   -273     90    288    302 161.5  17.4  34182  289.93 0854.48
2009/04/23 13:31:09.5      90   -199     73    219    232 155.5  18.6  34180  289.92 0854.48
2009/04/23 13:31:09.6      77   -162     49    180    187 154.6  15.3  34180  289.91 0854.48
2009/04/23 13:31:09.7       0   -202     63    203    213 180.0  17.3  34176  289.85 0854.48
2009/04/23 13:31:09.8     -61   -189     59    199    208 198.0  16.6  34174  289.80 0854.48
2009/04/23 13:31:09.9     -76   -174      0    190    191 203.6   0.2  34170  289.75 0854.48
2009/04/23 13:31:10.0    -105   -214    130    239    272 206.1  31.3  34176  289.83 0854.48
2009/04/23 13:31:10.1    -136   -207     95    249    266 213.4  22.0  34178  289.88 0854.48
2009/04/23 13:31:10.2    -124   -232    103    264    283 208.1  22.3  34172  289.78 0854.48
2009/04/23 13:31:10.3    -196   -257     17    324    325 217.3   3.0  34174  289.80 0854.48
2009/04/23 13:31:10.4    -136   -209     -5    250    251 213.0  -1.3  34172  289.78 0854.48
2009/04/23 13:31:10.5    -175   -213    126    276    303 219.4  26.4  34174  289.80 0854.48
2009/04/23 13:31:10.6    -153   -361     27    393    394 203.0   4.0  34172  289.79 0854.48
2009/04/23 13:31:10.7    -114   -328    -25    348    349 199.3  -4.1  34174  289.81 0854.48
2009/04/23 13:31:10.8      31   -286    -67    288    296 173.7 -13.2  34172  289.76 0854.48
2009/04/23 13:31:10.9       9   -310    -40    311    314 178.2  -7.3  34168  289.71 0854.48
2009/04/23 13:31:11.0      62   -331     46    337    341 169.3   7.9  34172  289.77 0854.48
2009/04/23 13:31:11.1      30   -345     53    347    352 174.9   8.8  34172  289.79 0854.48
2009/04/23 13:31:11.2      29   -372     66    374    380 175.5  10.0  34176  289.84 0854.48
2009/04/23 13:31:11.3      66   -399     57    405    410 170.6   8.0  34176  289.85 0854.48
2009/04/23 13:31:11.4      77   -377     11    385    386 168.4   1.7  34172  289.77 0854.48
2009/04/23 13:31:11.5      26   -389     51    390    394 176.1   7.5  34174  289.82 0854.48
2009/04/23 13:31:11.6     -47   -386    101    389    402 187.0  14.6  34174  289.81 0854.48
2009/04/23 13:31:11.7     -15   -339     66    340    347 182.6  11.0  34174  289.81 0854.48
2009/04/23 13:31:11.8     -34   -356     37    358    360 185.6   6.0  34174  289.82 0854.48
2009/04/23 13:31:11.9     -37   -409     10    411    412 185.2   1.5  34170  289.73 0854.48
2009/04/23 13:31:12.0     -34   -388     61    390    395 185.1   8.9  34170  289.74 0854.48
2009/04/23 13:31:12.1     -86   -324    113    336    355 194.9  18.6  34172  289.76 0854.48
2009/04/23 13:31:12.2    -173   -277     40    327    330 212.1   7.1  34174  289.82 0854.48
2009/04/23 13:31:12.3    -164   -243    -87    294    307 214.1 -16.6  34170  289.73 0854.48
2009/04/23 13:31:12.4    -173   -223    -67    283    291 217.8 -13.4  34170  289.75 0854.48
2009/04/23 13:31:12.5    -184   -197     13    270    271 223.0   2.8  34168  289.71 0854.48
2009/04/23 13:31:12.6    -138   -260     45    295    299 208.0   8.8  34170  289.73 0854.48
2009/04/23 13:31:12.7    -147   -370     24    399    400 201.7   3.5  34172  289.79 0854.48
2009/04/23 13:31:12.8     -97   -342      6    356    357 195.9   1.1  34172  289.76 0854.48
2009/04/23 13:31:12.9     -63   -337     13    343    344 190.6   2.2  34174  289.81 0854.48
2009/04/23 13:31:13.0     -29   -320     56    322    327 185.2   9.9  34174  289.80 0854.48
2009/04/23 13:31:13.1     -12   -375    109    376    392 181.9  16.3  34174  289.82 0854.48
2009/04/23 13:31:13.2     -60   -376    133    381    404 189.1  19.3  34178  289.86 0854.48
2009/04/23 13:31:13.3     -35   -352     86    354    365 185.7  13.7  34172  289.76 0854.48
2009/04/23 13:31:13.4     -83   -462    162    470    498 190.3  19.1  34178  289.89 0854.48
2009/04/23 13:31:13.5     -36   -429    115    431    447 184.8  15.0  34176  289.83 0854.44
2009/04/23 13:31:13.6     -31   -397    144    399    425 184.5  19.9  34178  289.88 0854.44
2009/04/23 13:31:13.7     -23   -363     41    364    367 183.6   6.5  34174  289.82 0854.44
2009/04/23 13:31:13.8       4   -331     31    332    334 179.2   5.4  34174  289.82 0854.44
2009/04/23 13:31:13.9      12   -313    -80    314    325 177.8 -14.4  34176  289.85 0854.44
2009/04/23 13:31:14.0      -9   -289    -88    290    304 181.8 -17.0  34178  289.86 0854.44
2009/04/23 13:31:14.1     -80   -346    -39    356    359 193.0  -6.3  34178  289.86 0854.44
2009/04/23 13:31:14.2     -70   -333    -13    341    342 191.9  -2.2  34178  289.86 0854.44
2009/04/23 13:31:14.3     -17   -374      7    375    376 182.6   1.1  34178  289.86 0854.44
2009/04/23 13:31:14.4     -14   -400    -15    401    402 182.1  -2.2  34174  289.82 0854.44
2009/04/23 13:31:14.5      13   -428    -31    429    431 178.2  -4.2  34176  289.85 0854.44
2009/04/23 13:31:14.6      12   -408    -56    409    413 178.3  -7.9  34176  289.85 0854.44
2009/04/23 13:31:14.7    -109   -434    -46    448    451 194.2  -6.0  34182  289.95 0854.44
2009/04/23 13:31:14.8     -38   -410    -67    412    418 185.3  -9.3  34182  289.94 0854.44
2009/04/23 13:31:14.9     -87   -436    -53    445    449 191.3  -6.9  34180  289.90 0854.44
2009/04/23 13:31:15.0     -58   -402    -97    407    419 188.2 -13.4  34184  289.99 0854.44
2009/04/23 13:31:15.1     -31   -370   -106    372    387 184.9 -15.9  34182  289.94 0854.44
2009/04/23 13:31:15.2     -30   -358   -117    360    379 184.9 -18.0  34182  289.93 0854.44
2009/04/23 13:31:15.3     -25   -321    -80    323    333 184.5 -13.9  34180  289.91 0854.44
2009/04/23 13:31:15.4      -4   -311   -102    312    329 180.9 -18.1  34178  289.88 0854.44
2009/04/23 13:31:15.5      61   -326    -44    332    335 169.4  -7.7  34172  289.76 0854.43
2009/04/23 13:31:15.6      63   -358     34    364    366 170.0   5.4  34174  289.81 0854.43
2009/04/23 13:31:15.7      65   -344     58    351    356 169.2   9.4  34176  289.84 0854.43
2009/04/23 13:31:15.8     118   -386     55    404    408 163.0   7.8  34178  289.87 0854.43
2009/04/23 13:31:15.9     140   -396     42    421    424 160.5   5.8  34180  289.90 0854.43
2009/04/23 13:31:16.0     131   -402     59    424    429 161.9   8.0  34178  289.88 0854.43
2009/04/23 13:31:16.1      94   -369    105    381    396 165.6  15.4  34178  289.89 0854.43
2009/04/23 13:31:16.2      22   -352     66    353    360 176.4  10.7  34178  289.89 0854.43
2009/04/23 13:31:16.3      61   -332    103    338    354 169.5  17.0  34180  289.91 0854.43
2009/04/23 13:31:16.4      38   -342    119    345    366 173.5  19.1  34182  289.93 0854.43
2009/04/23 13:31:16.5      41   -325    105    328    345 172.7  17.8  34178  289.89 0854.43
2009/04/23 13:31:16.6       9   -292    103    293    311 178.2  19.4  34180  289.90 0854.43
2009/04/23 13:31:16.7       0   -246    132    247    280 180.2  30.3  34182  289.93 0854.43
2009/04/23 13:31:16.8      13   -249    146    250    289 176.9  33.1  34184  289.98 0854.43
2009/04/23 13:31:16.9      25   -228    145    230    271 173.5  35.5  34178  289.88 0854.43
2009/04/23 13:31:17.0     -26   -247    207    249    323 186.2  44.0  34180  289.90 0854.43
2009/04/23 13:31:17.1     -76   -283    181    293    344 195.1  34.9  34178  289.89 0854.43
2009/04/23 13:31:17.2     -62   -351     32    357    359 190.0   5.2  34178  289.89 0854.43
2009/04/23 13:31:17.3     -35   -320    -58    322    328 186.3 -10.3  34180  289.90 0854.43
2009/04/23 13:31:17.4       1   -369    -78    370    379 179.8 -12.0  34178  289.87 0854.42
2009/04/23 13:31:17.5     -22   -396    -55    397    401 183.2  -7.9  34180  289.91 0854.42
2009/04/23 13:31:17.6     -74   -392    -26    399    400 190.7  -3.7  34182  289.93 0854.42
2009/04/23 13:31:17.7       7   -432    -23    433    434 179.0  -3.1  34178  289.88 0854.42
2009/04/23 13:31:17.8      -7   -416    -48    417    420 181.0  -6.7  34180  289.92 0854.42
2009/04/23 13:31:17.9     -62   -441    -76    446    453 188.1  -9.8  34182  289.94 0854.42
2009/04/23 13:31:18.0     -53   -426    -45    430    433 187.2  -6.0  34178  289.88 0854.42
2009/04/23 13:31:18.1     -58   -435    -40    439    442 187.7  -5.3  34178  289.88 0854.42
2009/04/23 13:31:18.2     -25   -387    -35    388    390 183.8  -5.2  34180  289.91 0854.42
2009/04/23 13:31:18.3     -47   -439     -2    442    443 186.2  -0.3  34180  289.90 0854.42
2009/04/23 13:31:18.4     -18   -468    115    469    483 182.2  13.8  34174  289.81 0854.42
2009/04/23 13:31:18.5     -97   -498     71    508    514 191.1   8.0  34178  289.89 0854.42
2009/04/23 13:31:18.6     -17   -462    142    463    485 182.1  17.0  34178  289.89 0854.42
2009/04/23 13:31:18.7       8   -535     90    536    544 179.1   9.6  34180  289.92 0854.42
2009/04/23 13:31:18.8     144   -552     31    571    572 165.3   3.1  34180  289.90 0854.42
2009/04/23 13:31:18.9     150   -424     71    450    456 160.5   9.0  34178  289.87 0854.42
2009/04/23 13:31:19.0     109   -422    142    436    459 165.5  18.0  34180  289.90 0854.42
2009/04/23 13:31:19.1     135   -441    123    462    479 163.0  14.9  34180  289.91 0854.42
2009/04/23 13:31:19.2     146   -431     88    456    465 161.3  11.0  34178  289.88 0854.42
2009/04/23 13:31:19.3      33   -423     56    425    429 175.5   7.6  34180  289.92 0854.42
2009/04/23 13:31:19.4      59   -373     34    378    380 171.0   5.2  34178  289.89 0854.40
2009/04/23 13:31:19.5      72   -395     22    402    403 169.7   3.1  34182  289.95 0854.40
2009/04/23 13:31:19.6     114   -461     27    475    476 166.1   3.3  34186  290.01 0854.40
2009/04/23 13:31:19.7      44   -477     74    480    486 174.7   8.8  34182  289.93 0854.40
2009/04/23 13:31:19.8      75   -458     -1    465    466 170.7  -0.2  34186  290.00 0854.40
2009/04/23 13:31:19.9      49   -470     27    473    474 174.0   3.3  34182  289.96 0854.40
2009/04/23 13:31:20.0      15   -507     13    508    509 178.2   1.5  34188  290.03 0854.40
2009/04/23 13:31:20.2      45   -492     28    495    496 174.7   3.3  34188  290.05 0854.40
2009/04/23 13:31:20.2      -6   -431      6    432    433 180.8   0.8  34188  290.04 0854.40
2009/04/23 13:31:20.3      14   -399      6    400    401 178.0   0.9  34188  290.04 0854.40
2009/04/23 13:31:20.5      57   -365     36    370    372 171.0   5.7  34188  290.04 0854.40
2009/04/23 13:31:20.6     -16   -359     59    360    365 182.7   9.3  34188  290.03 0854.40
2009/04/23 13:31:20.7     -20   -307    -30    308    310 183.8  -5.6  34184  289.98 0854.40
2009/04/23 13:31:20.8    -127   -317    -43    342    345 201.9  -7.2  34188  290.03 0854.40
2009/04/23 13:31:20.9     -47   -277     60    282    289 189.7  12.0  34186  290.02 0854.40
2009/04/23 13:31:21.0     -70   -235     66    246    255 196.7  15.2  34188  290.05 0854.40
2009/04/23 13:31:21.1      10   -291     -6    292    293 178.0  -1.3  34190  290.07 0854.40
2009/04/23 13:31:21.2       0   -340     20    341    342 179.9   3.5  34188  290.03 0854.40
2009/04/23 13:31:21.3     -14   -300    -27    301    303 182.7  -5.2  34186  290.00 0854.40
2009/04/23 13:31:21.4     -30   -389     31    391    393 184.5   4.6  34186  290.01 0854.40
2009/04/23 13:31:21.5      50   -324     70    329    337 171.1  12.2  34184  289.99 0854.40
2009/04/23 13:31:21.6     137   -287     83    319    330 154.4  14.7  34188  290.05 0854.40
2009/04/23 13:31:21.7     162   -333     10    371    372 154.0   1.6  34188  290.04 0854.40
2009/04/23 13:31:21.8     158   -305     83    344    355 152.6  13.7  34188  290.04 0854.40
2009/04/23 13:31:21.9     155   -236    133    283    312 146.6  27.1  34188  290.03 0854.40
2009/04/23 13:31:22.0     136   -198    189    241    306 145.5  42.0  34188  290.03 0854.40
2009/04/23 13:31:22.1     145   -155    151    213    261 136.8  38.8  34188  290.03 0854.40
2009/04/23 13:31:22.2     222   -105    124    246    275 115.4  29.1  34188  290.05 0854.40
2009/04/23 13:31:22.3     187    -77     71    203    216 112.4  19.4  34182  289.96 0854.40
2009/04/23 13:31:22.4     173   -103    143    202    247 120.7  38.6  34190  290.09 0854.40
2009/04/23 13:31:22.5     146    -74    129    164    208 117.1  42.2  34188  290.04 0854.41
2009/04/23 13:31:22.6     272    -33    119    275    299  97.0  25.1  34190  290.09 0854.41
2009/04/23 13:31:22.7     248     26     53    250    256  83.9  12.2  34194  290.15 0854.41
2009/04/23 13:31:22.8     195      0      4    196    197  89.9   1.2  34216  290.53 0854.41
2009/04/23 13:31:22.9     188    115    160    221    272  58.5  39.5  34204  290.31 0854.41
2009/04/23 13:31:23.0     250     97    126    269    297  68.7  27.1  34234  290.82 0854.41
2009/04/23 13:31:23.1     200     48    110    206    233  76.5  30.6  34234  290.84 0854.41
2009/04/23 13:31:23.2      89     33     73     96    120  69.6  41.2  34228  290.72 0854.41
2009/04/23 13:31:23.3      19     72     98     75    123  15.1  58.5  34218  290.57 0854.41
2009/04/23 13:31:23.4     -66     79     67    104    123 319.9  35.6  34218  290.55 0854.41
2009/04/23 13:31:23.5    -120     84     21    147    149 305.1   8.5  34232  290.79 0854.41
2009/04/23 13:31:23.6    -113    -45    107    122    162 248.2  45.8  34214  290.48 0854.41
2009/04/23 13:31:23.7     -84    -36     85     92    125 246.5  47.9  34206  290.36 0854.41
2009/04/23 13:31:23.8     -49    -46     77     68    102 226.9  53.7  34200  290.26 0854.41
2009/04/23 13:31:23.9      14    -61    115     63    131 166.6  68.9  34196  290.19 0854.41
2009/04/23 13:31:24.0      28   -118    136    122    182 166.6  53.3  34192  290.13 0854.41
2009/04/23 13:31:24.1      -2   -158    155    159    222 180.9  49.4  34188  290.06 0854.41
2009/04/23 13:31:24.2      50   -149    157    158    222 161.5  50.0  34192  290.13 0854.41
2009/04/23 13:31:24.3      66    -92    140    114    180 144.4  56.4  34202  290.28 0854.41
2009/04/23 13:31:24.4     125   -124    139    177    225 134.8  42.4  34194  290.16 0854.41
2009/04/23 13:31:24.5     259   -193    113    324    344 126.8  19.3  34196  290.18 0854.41
2009/04/23 13:31:24.6     190    -87     74    210    222 114.6  20.0  34194  290.16 0854.41
2009/04/23 13:31:24.7     191    -90     37    212    216 115.3  10.1  34194  290.16 0854.41
2009/04/23 13:31:24.8     252   -106     98    274    291 112.8  20.2  34192  290.12 0854.41
2009/04/23 13:31:24.9     116   -126    148    172    226 137.5  45.1  34188  290.06 0854.41
2009/04/23 13:31:25.0     103   -110    147    151    210 136.8  49.4  34194  290.16 0854.41
2009/04/23 13:31:25.1      28    -70    105     76    129 158.1  60.5  34194  290.16 0854.41
2009/04/23 13:31:25.2      33    -80     91     87    125 157.7  51.2  34194  290.14 0854.41
2009/04/23 13:31:25.3     -24   -204    252    206    325 186.9  56.5  34192  290.12 0854.41
2009/04/23 13:31:25.4    -112   -282    289    304    419 201.8  48.5  34188  290.06 0854.41
2009/04/23 13:31:25.5     -74   -234    215    246    326 197.6  45.6  34192  290.12 0854.41
2009/04/23 13:31:25.6      72   -167    164    182    244 156.6  46.9  34190  290.09 0854.41
2009/04/23 13:31:25.7     -78   -181     81    198    213 203.4  23.1  34188  290.06 0854.41
2009/04/23 13:31:25.8    -186   -241     61    305    312 217.8  11.4  34190  290.09 0854.41
2009/04/23 13:31:25.9    -115   -223     89    252    268 207.4  19.6  34188  290.05 0854.41
2009/04/23 13:31:26.0      32   -226    162    229    280 171.9  38.6  34192  290.10 0854.41
2009/04/23 13:31:26.1      -8   -259    170    260    310 181.8  36.0  34190  290.09 0854.41
2009/04/23 13:31:26.2      93   -392    148    403    429 166.6  21.0  34190  290.07 0854.41
2009/04/23 13:31:26.3     120   -432     88    449    458 164.5  11.1  34190  290.07 0854.41
2009/04/23 13:31:26.4     237   -415    -17    479    480 150.2  -2.1  34192  290.10 0854.41
2009/04/23 13:31:26.5     192   -543     57    577    580 160.5   5.7  34192  290.10 0854.41
2009/04/23 13:31:26.6     187   -546      1    578    579 161.1   0.1  34190  290.08 0854.41
2009/04/23 13:31:26.7     268   -575    -30    635    636 155.0  -2.8  34192  290.11 0854.41
2009/04/23 13:31:26.8     155   -582    -54    603    606 165.1  -5.2  34192  290.10 0854.41
2009/04/23 13:31:26.9      48   -646    -93    648    655 175.7  -8.2  34188  290.04 0854.41
2009/04/23 13:31:27.0      31   -509   -160    510    534 176.5 -22.4  34188  290.06 0854.41
2009/04/23 13:31:27.1      72   -575    -76    580    585 172.8  -7.5  34186  290.02 0854.41
2009/04/23 13:31:27.2     -86   -557    -36    564    566 188.8  -3.7  34194  290.14 0854.41
2009/04/23 13:31:27.3    -108   -667    -63    676    680 189.2  -5.4  34190  290.07 0854.41
2009/04/23 13:31:27.4    -113   -569   -119    581    594 191.2 -11.6  34188  290.03 0854.41
2009/04/23 13:31:27.5     -72   -515   -152    521    542 188.0 -21.1  34174  289.82 0854.41
2009/04/23 13:31:27.6      -8   -532   -148    533    554 180.9 -15.5  34170  289.74 0854.41
2009/04/23 13:31:27.7    -104   -558    -18    568    569 190.6  -1.9  34182  289.94 0854.41
2009/04/23 13:31:27.8     -12   -613    -44    614    616 181.2  -4.1  34174  289.81 0854.41
2009/04/23 13:31:27.9     -22   -681    -88    682    688 181.9  -7.4  34148  289.38 0854.41
2009/04/23 13:31:28.0      68   -741    -67    745    749 174.7  -5.2  34148  289.36 0854.41
2009/04/23 13:31:28.1      -9   -725    -64    726    729 180.7  -5.1  34140  289.23 0854.41
2009/04/23 13:31:28.2      29   -710   -104    711    719 177.6  -8.4  34144  289.30 0854.41
2009/04/23 13:31:28.3      21   -702    -62    703    706 178.2  -5.1  34156  289.50 0854.41
2009/04/23 13:31:28.4      15   -620    -96    621    629 178.6  -8.8  34146  289.35 0854.41
2009/04/23 13:31:28.5      33   -610    -92    611    618 176.9  -8.6  34164  289.64 0854.38
2009/04/23 13:31:28.6      74   -737    -38    741    742 174.2  -3.0  34152  289.45 0854.38
2009/04/23 13:31:28.7      70   -665     36    669    671 173.9   3.1  34160  289.56 0854.38
2009/04/23 13:31:28.8      -1   -580     68    581    585 180.1   6.7  34166  289.68 0854.38
2009/04/23 13:31:28.9      18   -586     61    587    591 178.2   6.0  34152  289.44 0854.38
2009/04/23 13:31:29.0     -44   -676     29    678    679 183.8   2.5  34142  289.26 0854.38
2009/04/23 13:31:29.1    -104   -723    -26    731    732 188.2  -2.1  34138  289.20 0854.38
2009/04/23 13:31:29.2     -71   -623     27    628    629 186.6   2.5  34138  289.21 0854.38
2009/04/23 13:31:29.3    -142   -509    -76    529    535 195.6  -8.2  34148  289.36 0854.38
2009/04/23 13:31:29.4     -75   -464     14    471    472 189.2   1.7  34146  289.32 0854.38
2009/04/23 13:31:29.5     -91   -467     49    476    479 191.1   6.0  34150  289.39 0854.38
2009/04/23 13:31:29.6    -140   -391     51    416    420 199.7   7.1  34152  289.43 0854.38
2009/04/23 13:31:29.7    -161   -336     -7    373    374 205.6  -1.1  34150  289.40 0854.38
2009/04/23 13:31:29.8    -185   -235      9    300    301 218.3   1.8  34148  289.37 0854.38
2009/04/23 13:31:29.9    -238   -281    -89    369    380 220.3 -13.7  34148  289.38 0854.38
2009/04/23 13:31:30.0    -182   -270    -47    326    330 214.1  -8.2  34156  289.50 0854.38
2009/04/23 13:31:30.1    -180   -414   -127    452    470 203.5 -15.8  34158  289.53 0854.38
2009/04/23 13:31:30.2    -234   -287    -61    371    377 219.2  -9.3  34152  289.45 0854.38
2009/04/23 13:31:30.3     -32   -324   -112    326    345 185.8 -19.0  34152  289.45 0854.38
2009/04/23 13:31:30.4    -136   -213   -149    253    293 212.6 -37.8  34168  289.70 0854.38
2009/04/23 13:31:30.5     -75   -235    -96    247    265 197.8 -26.7  34168  289.71 0854.38
2009/04/23 13:31:30.6    -105    -99    -88    145    169 226.9 -38.6  34168  289.70 0854.38
2009/04/23 13:31:30.7    -336   -112   -122    355    375 251.6 -23.9  34142  289.25 0854.38
2009/04/23 13:31:30.8    -350    -59   -144    355    383 260.4 -27.5  34138  289.20 0854.38
2009/04/23 13:31:30.9    -345   -105   -177    361    402 253.0 -32.5  34152  289.42 0854.38
2009/04/23 13:31:31.0    -364    -64   -161    370    403 260.0 -29.5  34158  289.55 0854.38
2009/04/23 13:31:31.1    -333   -107   -175    350    391 252.2 -32.9  34162  289.62 0854.38
2009/04/23 13:31:31.2    -395    -87   -194    405    449 257.5 -31.7  34170  289.73 0854.38
2009/04/23 13:31:31.3    -455    -61   -132    460    478 262.3 -20.9  34176  289.83 0854.38
2009/04/23 13:31:31.4    -412    -56   -121    416    433 262.2 -21.0  34178  289.87 0854.38
2009/04/23 13:31:31.5    -350    -64   -215    356    415 259.5 -38.4  34164  289.65 0854.38
2009/04/23 13:31:31.6    -317    -24   -107    318    335 265.6 -23.6  34178  289.86 0854.38
2009/04/23 13:31:31.7    -330    124   -146    353    382 290.7 -28.1  34180  289.91 0854.38
2009/04/23 13:31:31.8    -292    128   -127    320    344 293.7 -27.3  34178  289.87 0854.38
2009/04/23 13:31:31.9    -407   -115   -101    424    436 254.2 -13.4  34170  289.75 0854.38
2009/04/23 13:31:32.0    -351     27   -141    353    380 274.5 -27.4  34168  289.71 0854.38
2009/04/23 13:31:32.1    -313    172    -17    358    359 298.8  -2.8  34170  289.74 0854.38
2009/04/23 13:31:32.2    -285     71    -35    294    297 284.2  -6.9  34174  289.80 0854.38
2009/04/23 13:31:32.3    -193    192    107    273    293 314.9  23.0  34166  289.66 0854.38
2009/04/23 13:31:32.4    -183     32    173    186    254 280.1  47.9  34160  289.58 0854.38
2009/04/23 13:31:32.5    -110     47    120    120    169 293.1  50.1  34158  289.55 0854.40
2009/04/23 13:31:32.6    -223    -10    143    224    265 267.4  35.6  34170  289.73 0854.40
2009/04/23 13:31:32.7    -430   -137    -25    452    453 252.3  -3.2  34162  289.61 0854.40
2009/04/23 13:31:32.8    -512   -149    -10    534    535 253.7  -1.2  34162  289.62 0854.40
2009/04/23 13:31:32.9    -554     -3    -18    555    556 269.6  -1.9  34166  289.67 0854.40
2009/04/23 13:31:33.0    -409    165    -48    442    445 292.0  -6.3  34168  289.72 0854.40
2009/04/23 13:31:33.1    -459   -287    -70    542    547 238.0  -7.4  34164  289.63 0854.40
2009/04/23 13:31:33.2    -408   -239    181    473    506 239.6  22.0  34172  289.76 0854.40
2009/04/23 13:31:33.3    -495   -456    -20    674    675 227.4  -1.7  34166  289.66 0854.40
2009/04/23 13:31:33.4    -561   -438    -77    712    717 232.0  -6.2  34162  289.61 0854.40
2009/04/23 13:31:33.5    -451   -376   -107    588    598 230.2 -10.4  34168  289.71 0854.40
2009/04/23 13:31:33.6    -435   -240    -75    497    503 241.1  -8.6  34162  289.61 0854.40
2009/04/23 13:31:33.7    -601   -318    -90    680    686 242.1  -7.6  34170  289.73 0854.40
2009/04/23 13:31:33.8    -540   -344    -67    641    645 237.5  -6.0  34164  289.65 0854.40
2009/04/23 13:31:33.9    -449   -310    -18    546    547 235.4  -1.9  34160  289.58 0854.40
2009/04/23 13:31:34.0    -379   -269    -14    466    467 234.6  -1.8  34168  289.71 0854.40
2009/04/23 13:31:34.1    -315   -207     -1    378    379 236.6  -0.3  34168  289.71 0854.40
2009/04/23 13:31:34.2    -300   -175     70    348    355 239.7  11.4  34162  289.59 0854.40
2009/04/23 13:31:34.3    -255   -143     36    293    296 240.7   7.1  34166  289.68 0854.40
2009/04/23 13:31:34.4    -164   -289    156    333    367 209.6  27.1  34172  289.76 0854.40
2009/04/23 13:31:34.5     -61   -329     78    335    344 190.5  13.1  34188  290.04 0854.41
2009/04/23 13:31:34.6    -107   -277     69    298    306 201.2  13.1  34192  290.12 0854.41
2009/04/23 13:31:34.7      -9    -44     81     46     93 192.5  68.3  34186  290.01 0854.41
2009/04/23 13:31:34.8      19   -116     60    118    132 170.7  29.2  34192  290.11 0854.41
2009/04/23 13:31:34.9      56   -146    -28    157    160 159.1 -10.3  34184  289.99 0854.41
2009/04/23 13:31:35.0      89    -84     -4    123    124 133.1  -2.2  34186  290.02 0854.41
2009/04/23 13:31:35.1     102    -55     31    116    121 118.4  15.2  34184  289.99 0854.41
2009/04/23 13:31:35.2     101      0    146    102    178  90.0  61.5  34188  290.04 0854.41
2009/04/23 13:31:35.3     -99    -98    127    140    189 225.2  47.1  34188  290.04 0854.41
2009/04/23 13:31:35.4    -126   -104    104    164    194 230.5  35.5  34194  290.14 0854.41
2009/04/23 13:31:35.5    -125    -34     91    130    158 254.5  38.4  34194  290.14 0854.41
2009/04/23 13:31:35.6    -155    -98     86    184    203 237.6  27.1  34198  290.21 0854.41
2009/04/23 13:31:35.7    -270    -73    -36    280    283 254.9  -7.3  34162  289.61 0854.41
2009/04/23 13:31:35.8    -321   -101    -84    337    348 252.5 -14.1  34146  289.35 0854.41
2009/04/23 13:31:35.9    -382   -121   -112    401    416 252.4 -20.2  34150  289.41 0854.41
2009/04/23 13:31:36.0    -500   -143   -114    521    534 254.0 -12.4  34160  289.58 0854.41
2009/04/23 13:31:36.1    -472   -117   -168    487    516 256.1 -19.1  34160  289.57 0854.41
2009/04/23 13:31:36.2    -446   -100   -151    458    482 257.3 -23.3  34158  289.54 0854.41
2009/04/23 13:31:36.3    -386     38   -170    388    423 275.7 -29.6  34166  289.66 0854.41
2009/04/23 13:31:36.4    -430     73   -106    437    450 279.7 -13.7  34180  289.90 0854.41
2009/04/23 13:31:36.5    -492     49   -173    495    525 275.7 -19.3  34166  289.69 0854.40
2009/04/23 13:31:36.6    -378     64      6    384    385 279.6   1.0  34188  290.06 0854.40
2009/04/23 13:31:36.7    -366    101    -12    380    381 285.5  -1.9  34180  289.91 0854.40
2009/04/23 13:31:36.8    -378    125   -110    399    415 288.3 -15.5  34178  289.87 0854.40
2009/04/23 13:31:36.9    -388    129     27    409    410 288.4   3.9  34188  290.05 0854.40
2009/04/23 13:31:37.0    -283    -62   -179    290    340 257.6 -39.2  34180  289.92 0854.40
2009/04/23 13:31:37.1    -272   -144   -214    308    375 242.1 -42.7  34174  289.81 0854.40
2009/04/23 13:31:37.2    -309    -21   -109    310    329 266.0 -19.5  34174  289.81 0854.40
2009/04/23 13:31:37.3    -171   -207    -25    269    271 219.6  -5.4  34176  289.85 0854.40
2009/04/23 13:31:37.4     -71   -264    -18    274    275 195.1  -3.9  34180  289.90 0854.40
2009/04/23 13:31:37.5    -200   -343    -96    398    410 210.2 -13.6  34180  289.92 0854.40
2009/04/23 13:31:37.6    -185   -158     -6    244    245 229.6  -1.6  34182  289.95 0854.40
2009/04/23 13:31:37.7    -130   -211    143    248    286 211.7  32.7  34176  289.85 0854.40
2009/04/23 13:31:37.8    -102   -309    130    326    350 198.3  23.0  34178  289.86 0854.40
2009/04/23 13:31:37.9     -37   -341    120    344    364 186.2  20.0  34164  289.64 0854.40
2009/04/23 13:31:38.0    -118   -362     85    381    391 198.1  12.6  34176  289.84 0854.40
2009/04/23 13:31:38.1     -83   -391     81    400    409 192.0  11.6  34172  289.78 0854.40
2009/04/23 13:31:38.2    -116   -484    137    498    517 193.5  15.4  34166  289.66 0854.40
2009/04/23 13:31:38.3    -133   -446   -160    466    493 196.7 -19.0  34166  289.66 0854.40
2009/04/23 13:31:38.4    -138   -373   -127    398    417 200.4 -22.9  34160  289.56 0854.40
2009/04/23 13:31:38.5    -262   -456    -80    527    534 209.9  -8.7  34162  289.60 0854.38
2009/04/23 13:31:38.6    -274   -439   -180    518    548 212.0 -24.4  34158  289.53 0854.38
2009/04/23 13:31:38.7    -328   -481   -190    583    614 214.3 -18.0  34156  289.51 0854.38
2009/04/23 13:31:38.8    -319   -488   -152    584    604 213.2 -14.6  34160  289.58 0854.38
2009/04/23 13:31:38.9    -276   -499   -141    571    589 209.0 -13.9  34164  289.63 0854.38
2009/04/23 13:31:39.0    -267   -489   -112    558    570 208.6 -11.3  34158  289.55 0854.38
2009/04/23 13:31:39.1    -308   -523   -100    608    617 210.5  -9.3  34166  289.68 0854.38
2009/04/23 13:31:39.2    -414   -459   -124    619    632 222.1 -11.3  34166  289.67 0854.38
2009/04/23 13:31:39.3    -345   -586   -208    681    713 210.5 -17.0  34166  289.69 0854.38
2009/04/23 13:31:39.4    -367   -538   -126    652    665 214.3 -11.0  34166  289.66 0854.38
2009/04/23 13:31:39.5    -358   -487   -134    605    620 216.4 -12.5  34166  289.67 0854.38
2009/04/23 13:31:39.6    -306   -434    -32    532    533 215.2  -3.5  34160  289.57 0854.38
2009/04/23 13:31:39.7    -272   -414   -136    496    515 213.4 -15.4  34166  289.67 0854.38
2009/04/23 13:31:39.8    -340   -318   -132    466    485 226.9 -15.9  34168  289.71 0854.38
2009/04/23 13:31:39.9    -149   -448    -62    473    477 198.4  -7.5  34166  289.66 0854.38
2009/04/23 13:31:40.0     -83   -321    -82    332    343 194.6 -13.9  34166  289.67 0854.38
2009/04/23 13:31:40.1     -82   -303    -70    315    323 195.2 -12.6  34166  289.66 0854.38
2009/04/23 13:31:40.2     -85   -357    -84    368    378 193.4 -12.9  34164  289.65 0854.38
2009/04/23 13:31:40.3    -108   -334   -110    351    367 197.9 -22.5  34168  289.71 0854.38
2009/04/23 13:31:40.4    -173   -338    -16    380    381 207.2  -2.5  34166  289.67 0854.38
2009/04/23 13:31:40.5    -187   -219   -133    289    318 220.6 -30.8  34170  289.73 0854.42
2009/04/23 13:31:40.6    -127   -280   -136    308    336 204.5 -29.7  34164  289.64 0854.42
2009/04/23 13:31:40.7    -112   -236   -128    262    291 205.5 -32.4  34168  289.70 0854.42
2009/04/23 13:31:40.8    -180   -149   -139    234    272 230.4 -37.9  34170  289.75 0854.42
2009/04/23 13:31:40.9     -39   -174   -195    179    264 192.7 -57.1  34168  289.70 0854.42
2009/04/23 13:31:41.0     -84   -153   -167    175    241 209.0 -53.4  34168  289.72 0854.42
2009/04/23 13:31:41.1    -140    -77   -102    160    189 241.1 -40.0  34176  289.84 0854.42
2009/04/23 13:31:41.2    -174   -116   -104    210    234 236.3 -32.6  34174  289.80 0854.42
2009/04/23 13:31:41.3    -173    -69    -70    187    199 248.3 -25.7  34172  289.77 0854.42
2009/04/23 13:31:41.4    -211    -21    -82    213    228 264.3 -26.4  34174  289.82 0854.42
2009/04/23 13:31:41.5    -159    -41    -49    165    173 255.6 -16.8  34172  289.77 0854.42
2009/04/23 13:31:41.6    -188    -26      0    190    191 262.1   0.2  34170  289.75 0854.42
2009/04/23 13:31:41.7    -128     26    -56    131    142 281.5 -28.5  34174  289.80 0854.42
2009/04/23 13:31:41.8    -107     49     -1    118    119 294.8  -0.7  34174  289.82 0854.42
2009/04/23 13:31:41.9    -141     40    -24    147    150 285.9  -9.4  34174  289.82 0854.42
2009/04/23 13:31:42.0    -169     -4   -172    170    241 268.5 -54.5  34170  289.75 0854.42
2009/04/23 13:31:42.1     -80      6   -119     81    143 274.4 -67.0  34172  289.79 0854.42
2009/04/23 13:31:42.2     -39    -44    -76     60     96 221.4 -61.9  34174  289.80 0854.42
2009/04/23 13:31:42.3    -100    -63   -125    119    172 237.6 -55.6  34172  289.77 0854.42
2009/04/23 13:31:42.4     -66    -13    -71     68     98 258.6 -55.1  34176  289.85 0854.42
2009/04/23 13:31:42.5    -109      3     56    110    123 271.7  29.3  34174  289.80 0854.42
2009/04/23 13:31:42.6     -33   -143    185    147    236 193.3  57.5  34174  289.82 0854.42
2009/04/23 13:31:42.7    -120   -219    158    250    295 208.7  35.5  34174  289.80 0854.42
2009/04/23 13:31:42.8    -122   -208    163    242    291 210.5  37.0  34172  289.78 0854.42
2009/04/23 13:31:43.0    -120   -233    108    263    284 207.2  23.4  34170  289.75 0854.42
2009/04/23 13:31:43.0     -92   -190    135    212    251 205.9  35.5  34172  289.76 0854.42
2009/04/23 13:31:43.1    -143   -199    144    246    285 215.8  33.4  34176  289.83 0854.42
2009/04/23 13:31:43.2    -170   -181     86    249    264 223.2  19.2  34178  289.86 0854.42
2009/04/23 13:31:43.3    -210   -190     16    284    285 227.8   3.3  34170  289.75 0854.42
2009/04/23 13:31:43.4    -218   -180     29    283    285 230.5   6.0  34170  289.73 0854.42
2009/04/23 13:31:43.5    -202   -135     66    244    253 236.3  15.2  34168  289.71 0854.42
2009/04/23 13:31:43.6    -123   -121     33    173    177 225.6  10.8  34166  289.67 0854.42
2009/04/23 13:31:43.7    -203    -88     57    222    230 246.4  14.5  34166  289.69 0854.42
2009/04/23 13:31:43.8    -323   -205     59    383    388 237.6   8.9  34164  289.65 0854.42
2009/04/23 13:31:43.9    -253   -239     82    349    359 226.7  13.2  34168  289.72 0854.42
2009/04/23 13:31:44.0    -206   -271     40    341    344 217.2   6.8  34168  289.71 0854.42
2009/04/23 13:31:44.2    -165   -413     69    446    452 201.8   8.9  34170  289.75 0854.42
2009/04/23 13:31:44.2    -190   -169      0    255    256 228.4   0.2  34166  289.68 0854.42
2009/04/23 13:31:44.3    -181   -172     58    250    257 226.4  13.2  34174  289.80 0854.42
2009/04/23 13:31:44.4    -320   -187    130    371    394 239.6  19.4  34176  289.84 0854.42
2009/04/23 13:31:44.5    -288   -198    230    350    418 235.5  36.4  34188  290.06 0854.42
2009/04/23 13:31:44.6       0     19    140     20    141 357.3  90.0  34178  289.89 0854.42
2009/04/23 13:31:44.7      50   -102    199    114    229 153.7  67.7  34186  290.01 0854.42
2009/04/23 13:31:44.8     156   -208    119    261    286 143.1  26.2  34178  289.86 0854.42
2009/04/23 13:31:44.9     500   -180      7    532    533 109.8   0.8  34174  289.82 0854.42
2009/04/23 13:31:45.0     543    -76      3    549    550  98.0   0.4  34170  289.75 0854.42
2009/04/23 13:31:45.1     414    -57     49    418    421  97.9   6.8  34164  289.65 0854.42
2009/04/23 13:31:45.2     341   -113     -3    360    361 108.4  -0.5  34176  289.84 0854.42
2009/04/23 13:31:45.4     208    -35    -16    211    212  99.6  -4.4  34174  289.80 0854.42
2009/04/23 13:31:45.4     346    -21   -114    347    365  93.5 -23.5  34174  289.82 0854.40
2009/04/23 13:31:45.5     450   -160    -64    478    483 109.6  -7.7  34172  289.78 0854.40
2009/04/23 13:31:45.6     343   -127     -2    367    368 110.4  -0.4  34178  289.86 0854.40
2009/04/23 13:31:45.7     356   -109     21    373    374 107.1   3.2  34172  289.77 0854.40
2009/04/23 13:31:45.8     389    -91     -1    400    401 103.3  -0.3  34176  289.84 0854.40
2009/04/23 13:31:45.9     340   -137     -4    367    368 112.0  -0.7  34178  289.87 0854.40
2009/04/23 13:31:46.0     379   -158    -32    411    413 112.7  -4.5  34182  289.95 0854.40
2009/04/23 13:31:46.1     398   -169    -39    433    435 113.0  -5.2  34180  289.90 0854.40
2009/04/23 13:31:46.2     421   -139     21    444    445 108.3   2.8  34184  289.99 0854.40
2009/04/23 13:31:46.4     424   -103     33    437    439 103.7   4.3  34178  289.87 0854.40
2009/04/23 13:31:46.4     348    -28     10    350    351  94.7   1.8  34184  289.98 0854.40
2009/04/23 13:31:46.6     216   -128     16    252    253 120.7   3.8  34182  289.93 0854.40
2009/04/23 13:31:46.6     220   -188    -40    290    293 130.5  -8.0  34180  289.90 0854.40
2009/04/23 13:31:46.8     292   -105     45    311    315 109.9   8.3  34194  290.14 0854.40
2009/04/23 13:31:46.8      89   -169     71    192    204 152.1  21.0  34188  290.06 0854.40
2009/04/23 13:31:46.9     192    -29     53    195    203  98.6  15.3  34192  290.11 0854.40
2009/04/23 13:31:47.1     192    -70     31    205    208 110.2   8.8  34194  290.16 0854.40
2009/04/23 13:31:47.2     139    -45    -19    147    149 108.2  -7.7  34194  290.16 0854.40
2009/04/23 13:31:47.3     123    -57     50    136    144 115.2  20.9  34200  290.25 0854.40
2009/04/23 13:31:47.4     129    -51     43    139    146 111.7  17.3  34200  290.26 0854.40
2009/04/23 13:31:47.5      60    -94     39    112    119 147.5  19.4  34196  290.18 0854.39
2009/04/23 13:31:47.6      30    -86      0     92     93 160.4   0.2  34194  290.16 0854.39
2009/04/23 13:31:47.7      -8   -111    -24    112    115 184.4 -12.4  34202  290.28 0854.39
2009/04/23 13:31:47.8      -5   -112     10    113    114 182.7   5.4  34194  290.14 0854.39
2009/04/23 13:31:47.9      75   -144     65    163    175 152.4  23.0  34186  290.02 0854.39
2009/04/23 13:31:48.0     195   -220    -37    295    298 138.5  -7.3  34188  290.03 0854.39
2009/04/23 13:31:48.1     268   -150    102    308    325 119.3  18.4  34198  290.22 0854.39
2009/04/23 13:31:48.2     228    -31     35    231    234  97.9   8.8  34190  290.07 0854.39
2009/04/23 13:31:48.3      67    -33   -115     75    137 116.2 -68.5  34198  290.23 0854.39
2009/04/23 13:31:48.4    -254   -101   -175    274    325 248.3 -40.0  34218  290.54 0854.39
2009/04/23 13:31:48.5    -416   -238   -302    480    567 240.3 -39.7  34184  289.97 0854.39
2009/04/23 13:31:48.6    -420   -138   -256    443    511 251.8 -37.1  34186  290.00 0854.39
2009/04/23 13:31:48.7    -258   -373     24    454    455 214.7   3.1  34214  290.48 0854.39
2009/04/23 13:31:48.8     -76   -378    159    386    417 191.5  23.6  34194  290.14 0854.39
2009/04/23 13:31:48.9    -145   -380    306    407    509 200.9  40.7  34220  290.59 0854.39
2009/04/23 13:31:49.0    -235   -421    100    483    494 209.2  11.8  34198  290.20 0854.39
2009/04/23 13:31:49.1    -251   -458     71    523    528 208.7   7.8  34184  289.99 0854.39
2009/04/23 13:31:49.2    -224   -422     25    478    479 208.0   3.0  34190  290.08 0854.39
2009/04/23 13:31:49.3     -67   -444      7    450    451 188.6   0.9  34184  289.97 0854.39
2009/04/23 13:31:49.4    -117   -385    -72    403    410 196.9 -10.2  34196  290.19 0854.39
2009/04/23 13:31:49.5     -56   -342     14    347    348 189.4   2.3  34192  290.10 0854.39
2009/04/23 13:31:49.6     -57   -368      7    373    374 188.8   1.2  34182  289.93 0854.39
2009/04/23 13:31:49.7     -69   -362     41    369    372 190.9   6.4  34182  289.94 0854.39
2009/04/23 13:31:49.8     -77   -403     88    411    421 190.8  12.1  34178  289.88 0854.39
2009/04/23 13:31:49.9     -25   -360     -7    361    362 184.1  -1.1  34182  289.96 0854.39
2009/04/23 13:31:50.0      -6   -339    105    340    356 181.1  17.2  34184  289.99 0854.39
2009/04/23 13:31:50.1      30   -335     20    337    338 174.8   3.5  34182  289.96 0854.39
2009/04/23 13:31:50.2      37   -266     47    269    274 172.0   9.9  34182  289.93 0854.39
2009/04/23 13:31:50.3     108   -327     -6    345    346 161.7  -1.2  34174  289.82 0854.39
2009/04/23 13:31:50.4     -27   -235     76    237    250 186.7  17.9  34182  289.93 0854.39
2009/04/23 13:31:50.5      39   -192     29    197    200 168.4   8.5  34178  289.87 0854.39
2009/04/23 13:31:50.6      47   -218     63    224    233 167.7  15.8  34172  289.77 0854.39
2009/04/23 13:31:50.7      35   -218     64    221    231 170.7  16.3  34174  289.82 0854.39
2009/04/23 13:31:50.8     -28   -202     17    205    206 188.0   4.9  34174  289.82 0854.39
2009/04/23 13:31:50.9     -62   -111     40    128    135 209.0  17.4  34172  289.77 0854.39
2009/04/23 13:31:51.0     -83    -53     40     99    106 237.6  23.0  34176  289.84 0854.39
2009/04/23 13:31:51.1     -24    -24     63     34     71 225.1  68.9  34176  289.85 0854.39
2009/04/23 13:31:51.2    -108      1     90    109    141 270.8  43.7  34184  289.97 0854.39
2009/04/23 13:31:51.3    -169    -80    -32    188    191 244.7  -9.8  34182  289.94 0854.39
2009/04/23 13:31:51.4    -337    -25    -80    338    348 265.7 -13.4  34174  289.82 0854.39
2009/04/23 13:31:51.5    -237   -139    -96    275    291 239.6 -24.0  34178  289.88 0854.40
2009/04/23 13:31:51.6    -279   -195      8    341    342 235.1   1.5  34182  289.96 0854.40
2009/04/23 13:31:51.7    -393   -193    -67    439    445 243.8  -8.7  34176  289.85 0854.40
2009/04/23 13:31:51.8    -407   -177   -130    444    462 246.5 -21.1  34172  289.77 0854.40
2009/04/23 13:31:51.9    -386   -133   -115    409    424 251.0 -20.4  34172  289.78 0854.40
2009/04/23 13:31:52.0    -282    -12    -94    283    298 267.4 -23.8  34176  289.83 0854.40
2009/04/23 13:31:52.1    -187    -56    -54    196    203 253.2 -20.2  34174  289.80 0854.40
2009/04/23 13:31:52.2     -95   -250    181    268    323 200.9  37.2  34170  289.73 0854.40
2009/04/23 13:31:52.3    -187   -230    121    297    320 219.2  23.5  34174  289.81 0854.40
2009/04/23 13:31:52.4    -189   -113     30    221    224 239.3   7.8  34166  289.67 0854.40
2009/04/23 13:31:52.5    -215     56     83    223    237 284.6  21.3  34178  289.86 0854.40
2009/04/23 13:31:52.6    -392     41    151    395    422 276.1  22.0  34180  289.90 0854.40
2009/04/23 13:31:52.7    -426    140     55    449    453 288.2   7.1  34182  289.94 0854.40
2009/04/23 13:31:52.8    -367    116     39    385    388 287.6   5.9  34182  289.96 0854.40
2009/04/23 13:31:52.9    -257    -62    -52    265    271 256.3 -11.1  34166  289.66 0854.40
2009/04/23 13:31:53.0    -452     -9     24    453    454 268.8   3.1  34172  289.78 0854.40
2009/04/23 13:31:53.1    -294   -138    109    325    343 244.8  18.6  34176  289.84 0854.40
2009/04/23 13:31:53.2    -248    -96    121    267    293 248.7  26.2  34180  289.90 0854.40
2009/04/23 13:31:53.3    -284   -174     78    334    344 238.5  13.2  34182  289.96 0854.40
2009/04/23 13:31:53.4    -326   -113    -68    346    353 250.8 -11.1  34182  289.93 0854.40
2009/04/23 13:31:53.5    -297   -163      2    340    341 241.2   0.4  34182  289.94 0854.41
2009/04/23 13:31:53.6     -71   -264    -85    274    286 195.1 -22.3  34180  289.92 0854.41
2009/04/23 13:31:53.7     -39   -191     32    196    199 191.6   9.5  34176  289.85 0854.41
2009/04/23 13:31:53.8    -134   -205     95    246    263 213.2  22.0  34180  289.90 0854.41
2009/04/23 13:31:53.9    -133   -120    131    180    222 228.0  39.7  34182  289.94 0854.41
2009/04/23 13:31:54.0    -273    -20    -59    274    281 265.6 -12.2  34180  289.92 0854.41
2009/04/23 13:31:54.1    -339    -89    -97    351    365 255.2 -15.5  34182  289.96 0854.41
2009/04/23 13:31:54.2    -417    -64   -143    422    446 261.2 -18.8  34182  289.94 0854.41
2009/04/23 13:31:54.3    -249   -137     -1    285    286 241.2  -0.3  34182  289.95 0854.41
2009/04/23 13:31:54.4    -307   -161    -15    347    348 242.2  -2.5  34192  290.11 0854.41
2009/04/23 13:31:54.5    -299    -90     64    313    320 253.2  11.6  34186  290.02 0854.41
2009/04/23 13:31:54.6    -316   -229     99    391    404 234.1  14.3  34188  290.04 0854.41
2009/04/23 13:31:54.7    -306   -311     12    437    438 224.5   1.6  34188  290.04 0854.41
2009/04/23 13:31:54.8    -295   -160    -95    336    350 241.4 -15.9  34192  290.11 0854.41
2009/04/23 13:31:54.9    -122   -202   -100    237    257 211.2 -28.5  34178  289.86 0854.41
2009/04/23 13:31:55.0     -21   -158    190    160    248 187.6  55.8  34190  290.08 0854.41
2009/04/23 13:31:55.1      -9    -65    168     66    180 188.0  77.4  34192  290.13 0854.41
2009/04/23 13:31:55.2     -54      4    137     55    147 274.3  77.1  34192  290.11 0854.41
2009/04/23 13:31:55.3     -55    -77    166     95    191 215.6  68.1  34194  290.14 0854.41
2009/04/23 13:31:55.4     -21   -273    167    274    320 184.5  34.3  34190  290.07 0854.41
2009/04/23 13:31:55.5     119   -284    172    309    353 157.3  31.4  34180  289.91 0854.41
2009/04/23 13:31:55.6      21   -287    198    288    349 175.8  37.8  34184  289.98 0854.41
2009/04/23 13:31:55.7     -39   -277    247    280    373 188.1  45.9  34178  289.87 0854.41
2009/04/23 13:31:55.8     -83   -231    199    246    316 199.8  43.1  34180  289.92 0854.41
2009/04/23 13:31:55.9     -60   -226    224    234    323 195.1  48.8  34176  289.85 0854.41
2009/04/23 13:31:56.0    -182    -31    157    185    242 260.1  44.8  34176  289.84 0854.41
2009/04/23 13:31:56.1       0    -68    156     69    170 180.0  74.8  34184  289.97 0854.41
2009/04/23 13:31:56.2    -241   -202    172    315    358 230.0  31.0  34174  289.82 0854.41
2009/04/23 13:31:56.3     -21   -151    173    153    230 188.1  54.2  34172  289.79 0854.41
2009/04/23 13:31:56.4      21   -156    127    158    202 172.0  43.0  34178  289.89 0854.41
2009/04/23 13:31:56.5      76   -119     85    142    165 147.5  34.0  34178  289.87 0854.41
2009/04/23 13:31:56.6     100   -125    178    161    240 141.3  53.3  34184  289.97 0854.41
2009/04/23 13:31:56.7       7   -302    176    303    350 178.6  32.9  34184  289.98 0854.41
2009/04/23 13:31:56.8      73   -225    216    237    320 162.0  47.1  34186  290.00 0854.41
2009/04/23 13:31:56.9     104   -309    229    327    399 161.3  38.5  34188  290.03 0854.41
2009/04/23 13:31:57.0      22   -303    144    304    336 175.8  27.2  34182  289.93 0854.41
2009/04/23 13:31:57.1     -26   -297    136    299    328 185.1  26.2  34184  289.98 0854.41
2009/04/23 13:31:57.2     -85   -381    156    391    420 192.6  23.0  34184  289.99 0854.41
2009/04/23 13:31:57.3       6   -320    196    321    376 178.8  34.3  34182  289.96 0854.41
2009/04/23 13:31:57.4    -206   -311     91    374    385 213.5  13.7  34198  290.21 0854.41
2009/04/23 13:31:57.5    -153   -399    128    428    447 201.0  16.7  34196  290.17 0854.42
2009/04/23 13:31:57.6    -161   -403     17    435    436 201.8   2.2  34196  290.19 0854.42
2009/04/23 13:31:57.7    -311   -309     37    439    441 225.2   4.9  34206  290.36 0854.42
2009/04/23 13:31:57.8    -216   -319   -174    386    423 214.2 -30.6  34192  290.11 0854.42
2009/04/23 13:31:57.9    -175   -488    150    519    541 199.8  16.1  34182  289.96 0854.42
2009/04/23 13:31:58.0     -14   -398    119    399    417 182.1  16.6  34186  290.00 0854.42
2009/04/23 13:31:58.1    -110   -330   -121    348    369 198.5 -19.3  34194  290.15 0854.42
2009/04/23 13:31:58.2      34   -276    -89    279    292 172.9 -22.8  34186  290.00 0854.42
2009/04/23 13:31:58.3      94   -199    -36    221    225 154.6  -9.4  34188  290.04 0854.42
2009/04/23 13:31:58.4     129   -220    -50    256    261 149.5 -11.1  34188  290.05 0854.42
2009/04/23 13:31:58.5     157   -295    -50    335    339 152.0  -8.6  34188  290.06 0854.42
2009/04/23 13:31:58.6     278   -246     -7    372    373 131.4  -1.2  34182  289.93 0854.42
2009/04/23 13:31:58.7     249   -196     28    317    319 128.2   5.1  34184  289.98 0854.42
2009/04/23 13:31:58.8     324   -313    110    451    465 134.0  13.8  34182  289.94 0854.42
2009/04/23 13:31:58.9     233   -271    -27    358    359 139.4  -4.4  34182  289.93 0854.42
2009/04/23 13:31:59.0     159   -208     21    263    264 142.6   4.6  34184  289.97 0854.42
2009/04/23 13:31:59.1     106   -275    119    295    318 158.8  23.2  34184  289.97 0854.42
2009/04/23 13:31:59.2      70   -323    126    331    354 167.6  21.8  34186  290.01 0854.42
2009/04/23 13:31:59.3      94   -271    151    287    324 160.8  30.0  34184  289.98 0854.42
2009/04/23 13:31:59.4     177   -406    164    444    473 156.4  21.3  34186  290.02 0854.42
2009/04/23 13:31:59.5     138   -480    157    500    525 164.0  17.4  34182  289.95 0854.42
2009/04/23 13:31:59.6      32   -469    128    471    489 176.0  15.3  34192  290.13 0854.42
2009/04/23 13:31:59.7     -86   -460    191    468    505 190.6  23.5  34198  290.22 0854.42
2009/04/23 13:31:59.8    -184   -402    248    443    507 204.6  31.7  34182  289.96 0854.42
2009/04/23 13:31:59.9     -83   -285    249    297    387 196.3  44.1  34182  289.96 0854.42
2009/04/23 13:32:00.0    -288   -421    297    511    591 214.4  32.9  34204  290.33 0854.42
2009/04/23 13:32:00.1    -410   -323     26    523    524 231.8   2.9  34186  290.01 0854.42
2009/04/23 13:32:00.2    -654   -310     -3    724    725 244.6  -0.3  34190  290.08 0854.42
2009/04/23 13:32:00.3    -657   -412    -54    776    778 237.9  -4.0  34174  289.80 0854.42
2009/04/23 13:32:00.4    -761   -376   -146    849    862 243.7  -9.8  34200  290.24 0854.42
2009/04/23 13:32:00.5    -748   -315   -229    812    844 247.2 -15.8  34184  289.97 0854.42
2009/04/23 13:32:00.6    -532   -322   -193    622    652 238.8 -17.3  34172  289.76 0854.42
2009/04/23 13:32:00.7    -520    -39   -180    522    553 265.6 -19.1  34198  290.21 0854.42
2009/04/23 13:32:00.8    -672   -190   -187    699    724 254.2 -15.0  34184  289.98 0854.42
2009/04/23 13:32:00.9    -498   -180   -147    530    551 250.1 -15.5  34182  289.96 0854.42
2009/04/23 13:32:01.0    -627   -121   -143    639    656 259.0 -12.7  34178  289.87 0854.42
2009/04/23 13:32:01.1    -432   -238    -56    494    498 241.2  -6.5  34188  290.05 0854.42
2009/04/23 13:32:01.2    -226   -268    -13    351    352 220.1  -2.2  34182  289.96 0854.42
2009/04/23 13:32:01.3    -135   -328     18    355    356 202.4   3.0  34188  290.03 0854.42
2009/04/23 13:32:01.4    -101   -347      0    362    363 196.3   0.1  34188  290.06 0854.42
2009/04/23 13:32:01.5    -131   -256     18    288    289 207.2   3.6  34186  290.00 0854.41
2009/04/23 13:32:01.6    -412   -180    -91    450    460 246.4 -11.5  34182  289.95 0854.41
2009/04/23 13:32:01.7    -357   -140    -89    384    395 248.6 -13.1  34182  289.93 0854.41
2009/04/23 13:32:01.8    -250   -148    -37    291    294 239.3  -7.3  34188  290.05 0854.41
2009/04/23 13:32:01.9    -251     -7    -89    252    268 268.3 -19.6  34190  290.09 0854.41
2009/04/23 13:32:02.0    -267     -3    -58    268    275 269.2 -12.4  34208  290.37 0854.41
2009/04/23 13:32:02.1    -195    -41    -10    200    201 258.1  -3.1  34204  290.33 0854.41
2009/04/23 13:32:02.2    -178    -24     10    180    181 262.3   3.3  34210  290.41 0854.41
2009/04/23 13:32:02.3    -154     -2     30    155    158 269.1  11.0  34210  290.43 0854.41
2009/04/23 13:32:02.4    -187    -44      9    193    194 256.7   2.9  34214  290.48 0854.41
2009/04/23 13:32:02.5    -293    -47    -66    297    305 260.8 -12.6  34218  290.56 0854.41
2009/04/23 13:32:02.6    -326   -107   -122    344    366 251.9 -19.5  34174  289.81 0854.41
2009/04/23 13:32:02.7    -522    -76   -173    528    555 261.6 -23.3  34180  289.90 0854.41
2009/04/23 13:32:02.8    -393   -175   -154    431    458 246.0 -19.7  34192  290.12 0854.41
2009/04/23 13:32:02.9    -332     68   -222    340    406 281.7 -40.7  34212  290.45 0854.41
2009/04/23 13:32:03.0    -305    124   -172    330    372 292.2 -34.0  34206  290.35 0854.41
2009/04/23 13:32:03.1    -157    212    -47    264    269 323.5 -10.3  34218  290.56 0854.41
2009/04/23 13:32:03.2    -117    294     27    317    319 338.2   4.9  34244  290.99 0854.41
2009/04/23 13:32:03.3    -123    281     22    307    308 336.3   4.2  34232  290.78 0854.41
2009/04/23 13:32:03.4     -69    297     -6    305    306 346.9  -1.3  34230  290.75 0854.41
2009/04/23 13:32:03.5    -173    322     44    366    369 331.8   6.9  34238  290.89 0854.41
2009/04/23 13:32:03.6    -197    209      6    288    289 316.8   1.2  34228  290.71 0854.41
2009/04/23 13:32:03.7    -206    203    -58    290    296 314.7 -11.3  34234  290.83 0854.41
2009/04/23 13:32:03.8    -114     52    -50    126    135 294.8 -27.4  34222  290.62 0854.41
2009/04/23 13:32:03.9       4      5   -102      7    102  43.4 -90.0  34196  290.19 0854.41
2009/04/23 13:32:04.0    -165     81   -164    184    246 296.2 -50.8  34216  290.52 0854.41
2009/04/23 13:32:04.1    -204     81   -115    220    248 291.7 -34.2  34214  290.49 0854.41
2009/04/23 13:32:04.2    -154    178   -138    236    273 319.2 -37.8  34222  290.63 0854.41
2009/04/23 13:32:04.3    -351    147   -189    381    425 292.8 -32.6  34186  290.00 0854.41
2009/04/23 13:32:04.4    -315    180   -196    364    413 299.8 -35.1  34174  289.82 0854.41
2009/04/23 13:32:04.5    -249     -3   -221    250    333 269.2 -50.5  34192  290.10 0854.38
2009/04/23 13:32:04.6    -241    139    -80    279    290 300.0 -20.8  34216  290.51 0854.38
2009/04/23 13:32:04.7    -233    123   -115    264    287 297.9 -29.5  34228  290.71 0854.38
2009/04/23 13:32:04.8    -264    109   -102    286    303 292.6 -24.6  34220  290.58 0854.38
2009/04/23 13:32:04.9    -204     19   -143    205    249 275.5 -42.9  34212  290.46 0854.38
2009/04/23 13:32:05.0    -295     74   -243    305    389 284.2 -47.1  34204  290.33 0854.38
2009/04/23 13:32:05.1    -364    117   -185    383    425 287.8 -32.1  34214  290.50 0854.38
2009/04/23 13:32:05.2    -365    282   -150    462    485 307.7 -23.2  34212  290.44 0854.38
2009/04/23 13:32:05.3    -284    217   -120    358    378 307.3 -18.6  34208  290.37 0854.38
2009/04/23 13:32:05.4    -346     -2   -108    347    363 269.5 -22.2  34212  290.47 0854.38
2009/04/23 13:32:05.5    -318    -69   -138    326    354 257.6 -28.9  34204  290.33 0854.38
2009/04/23 13:32:05.6    -228   -126   -134    261    293 241.1 -33.7  34198  290.20 0854.38
2009/04/23 13:32:05.7    -340   -174     75    382    390 242.9  11.1  34212  290.47 0854.38
2009/04/23 13:32:05.8    -490   -277      3    564    565 240.5   0.4  34204  290.31 0854.38
2009/04/23 13:32:05.9    -572   -369     87    681    687 237.2   7.3  34204  290.31 0854.38
2009/04/23 13:32:06.0    -517   -515    -57    730    733 225.1  -4.5  34190  290.08 0854.38
2009/04/23 13:32:06.1    -326   -519    -97    613    621 212.1  -9.0  34196  290.18 0854.38
2009/04/23 13:32:06.2    -374   -326   -133    497    515 228.9 -15.1  34196  290.18 0854.38
2009/04/23 13:32:06.3    -518   -395   -166    652    673 232.7 -14.3  34198  290.21 0854.38
2009/04/23 13:32:06.4    -412   -386   -133    565    581 226.9 -13.3  34190  290.08 0854.38
2009/04/23 13:32:06.5    -352   -362    225    506    553 224.2  25.6  34202  290.30 0854.36
2009/04/23 13:32:06.6    -221   -449   -101    501    512 206.3 -11.5  34196  290.17 0854.36
2009/04/23 13:32:06.7    -202   -314   -104    374    389 212.8 -15.5  34196  290.18 0854.36
2009/04/23 13:32:06.8    -192   -373     -1    420    421 207.3  -0.3  34200  290.24 0854.36
2009/04/23 13:32:06.9    -321   -191   -104    374    388 239.3 -20.2  34188  290.06 0854.36
2009/04/23 13:32:07.0    -469   -165   -153    498    520 250.6 -21.9  34178  289.88 0854.36
2009/04/23 13:32:07.1    -537   -157   -193    560    593 253.7 -19.1  34188  290.03 0854.36
2009/04/23 13:32:07.2    -491   -301    -62    576    580 238.5  -6.2  34196  290.19 0854.36
2009/04/23 13:32:07.3    -174   -368    111    408    423 205.4  15.3  34192  290.12 0854.36
2009/04/23 13:32:07.4    -223   -414     56    471    475 208.4   6.8  34188  290.03 0854.36
2009/04/23 13:32:07.5    -233   -314    -15    392    393 216.6  -2.2  34188  290.06 0854.36
2009/04/23 13:32:07.6    -222   -184     19    289    290 230.4   3.8  34184  289.97 0854.36
2009/04/23 13:32:07.7    -284   -113    142    306    337 248.3  26.9  34190  290.07 0854.36
2009/04/23 13:32:07.8    -215   -238     22    321    322 222.1   4.0  34188  290.05 0854.36
2009/04/23 13:32:07.9    -193   -285     97    345    359 214.1  15.8  34188  290.04 0854.36
2009/04/23 13:32:08.0    -150   -306    129    341    364 206.1  21.6  34186  290.01 0854.36
2009/04/23 13:32:08.1    -170   -305     70    350    357 209.1  11.3  34192  290.13 0854.36
2009/04/23 13:32:08.2    -145   -289     53    324    329 206.6   9.4  34186  290.02 0854.36
2009/04/23 13:32:08.3      27   -238    103    240    261 173.3  24.6  34190  290.07 0854.36
2009/04/23 13:32:08.4      -9   -212    249    213    327 182.7  55.4  34192  290.10 0854.36
2009/04/23 13:32:08.5      79   -357    222    366    428 167.5  34.3  34188  290.04 0854.37
2009/04/23 13:32:08.6     114   -406    214    422    473 164.3  28.9  34182  289.94 0854.37
2009/04/23 13:32:08.7     146   -496    169    517    544 163.6  18.1  34184  289.97 0854.37
2009/04/23 13:32:08.8      97   -292    187    308    360 161.5  34.2  34174  289.82 0854.37
2009/04/23 13:32:08.9     101   -388    165    402    434 165.3  23.6  34186  290.02 0854.37
2009/04/23 13:32:09.0     129   -466     36    484    486 164.5   4.3  34186  290.01 0854.37
2009/04/23 13:32:09.1     150   -528    161    549    573 164.1  16.4  34186  290.01 0854.37
2009/04/23 13:32:09.2     125   -406    213    425    475 162.8  28.7  34184  289.97 0854.37
2009/04/23 13:32:09.3     173   -428    206    462    505 157.9  25.7  34190  290.08 0854.37
2009/04/23 13:32:09.4     232   -391    122    455    472 149.3  15.0  34186  290.01 0854.37
2009/04/23 13:32:09.5     320   -401    171    514    543 141.4  18.5  34190  290.07 0854.37
2009/04/23 13:32:09.6     216   -329    222    394    452 146.7  31.9  34184  289.99 0854.37
2009/04/23 13:32:09.7     279   -278    171    395    430 134.9  25.1  34188  290.05 0854.37
2009/04/23 13:32:09.8     247   -238    210    344    403 133.9  34.4  34192  290.11 0854.37
2009/04/23 13:32:09.9     225   -244    284    333    437 137.4  44.8  34190  290.09 0854.37
2009/04/23 13:32:10.0      70   -359    216    366    424 168.9  33.4  34178  289.88 0854.37
2009/04/23 13:32:10.1     140   -149    212    205    294 136.8  51.2  34190  290.07 0854.37
2009/04/23 13:32:10.2     134   -256    227    290    368 152.4  42.0  34184  289.99 0854.37
2009/04/23 13:32:10.3      94   -162    228    188    295 149.9  56.4  34188  290.05 0854.37
2009/04/23 13:32:10.4      76   -190    215    205    297 158.2  51.6  34188  290.03 0854.37
2009/04/23 13:32:10.5     104   -203    267    229    351 152.9  54.9  34184  289.97 0854.38
2009/04/23 13:32:10.6      48   -154    184    162    245 162.6  54.3  34188  290.04 0854.38
2009/04/23 13:32:10.7      80   -133    142    156    210 148.8  47.1  34184  289.99 0854.38
2009/04/23 13:32:10.8      33     40    117     52    128  39.6  74.9  34188  290.04 0854.38
2009/04/23 13:32:10.9     -44     44     93     63    112 315.0  62.6  34192  290.13 0854.38
2009/04/23 13:32:11.0    -109    -48     31    120    125 246.0  14.7  34188  290.04 0854.38
2009/04/23 13:32:11.1     -90    132     69    160    174 325.7  24.6  34186  290.02 0854.38
2009/04/23 13:32:11.2    -166    175    -13    242    243 316.6  -3.1  34190  290.07 0854.38
2009/04/23 13:32:11.3    -159     53    -28    168    171 288.6  -9.6  34190  290.08 0854.38
2009/04/23 13:32:11.4    -202   -146    146    250    289 234.0  33.1  34190  290.09 0854.38
2009/04/23 13:32:11.5    -193   -159    137    251    285 230.5  31.3  34188  290.05 0854.38
2009/04/23 13:32:11.6    -222    -42     85    227    242 259.2  21.5  34192  290.12 0854.38
2009/04/23 13:32:11.7    -299    -22     15    300    301 265.7   2.9  34202  290.27 0854.38
2009/04/23 13:32:11.8    -373     11    114    374    392 271.7  17.0  34192  290.13 0854.38
2009/04/23 13:32:11.9    -267    -45    160    271    314 260.3  33.3  34190  290.07 0854.38
2009/04/23 13:32:12.0    -260      8     27    261    263 271.9   6.0  34204  290.32 0854.38
2009/04/23 13:32:12.1    -211   -123    117    245    271 239.8  27.3  34184  289.98 0854.38
2009/04/23 13:32:12.2    -206    -21    134    208    247 264.1  35.7  34186  290.00 0854.38
2009/04/23 13:32:12.3    -164    -54    123    173    212 251.6  38.8  34192  290.11 0854.38
2009/04/23 13:32:12.4    -100     45    111    110    156 294.4  50.1  34190  290.09 0854.40
2009/04/23 13:32:12.5     -77      5     64     78    100 274.3  43.7  34190  290.08 0854.40
2009/04/23 13:32:12.6     -28     19     84     34     90 304.2  76.6  34192  290.13 0854.40
2009/04/23 13:32:12.7     -20     88     57     91    107 347.1  35.5  34196  290.18 0854.40
2009/04/23 13:32:12.8     -41    168     -6    174    175 346.2  -2.2  34192  290.11 0854.40
2009/04/23 13:32:12.9      18    170    -77    172    188   6.2 -30.1  34194  290.16 0854.40
2009/04/23 13:32:13.0    -133    109    -82    173    191 309.3 -31.5  34192  290.11 0854.40
2009/04/23 13:32:13.2    -167     91    -26    191    193 298.8  -8.0  34192  290.13 0854.40
2009/04/23 13:32:13.3    -178    125    -44    218    223 305.1 -11.5  34194  290.16 0854.40
2009/04/23 13:32:13.4    -168    -26     37    170    175 261.2  12.4  34198  290.21 0854.40
2009/04/23 13:32:13.5    -186     50    -73    193    206 285.1 -26.1  34194  290.16 0854.40
2009/04/23 13:32:13.6    -192     23     52    194    202 277.0  15.2  34200  290.25 0854.40
2009/04/23 13:32:13.7    -144     53     32    154    158 290.4  12.0  34202  290.30 0854.40
2009/04/23 13:32:13.8    -191     69    -24    204    206 290.0  -6.7  34202  290.28 0854.40
2009/04/23 13:32:13.9     -86     81     21    119    121 313.2  10.1  34196  290.18 0854.40
2009/04/23 13:32:14.0    -132    109     75    172    187 309.5  25.1  34206  290.36 0854.40
2009/04/23 13:32:14.1    -167    102      0    196    197 301.5   0.2  34208  290.40 0854.40
2009/04/23 13:32:14.2    -173    283     48    332    336 328.5   8.2  34210  290.42 0854.40
2009/04/23 13:32:14.3    -150    346     73    378    386 336.6  11.0  34214  290.49 0854.40
2009/04/23 13:32:14.4    -122    331     95    354    367 339.7  15.1  34202  290.30 0854.40
2009/04/23 13:32:14.5    -174    347    168    389    423 333.4  25.0  34216  290.53 0854.41
2009/04/23 13:32:14.6    -252    319    136    407    430 321.7  18.5  34216  290.51 0854.41
2009/04/23 13:32:14.7    -395    283    107    487    499 305.6  12.5  34236  290.85 0854.41
2009/04/23 13:32:14.8    -200    265    109    333    351 322.9  18.1  34244  291.00 0854.41
2009/04/23 13:32:14.9    -224    164     25    278    280 306.2   5.2  34246  291.02 0854.41
2009/04/23 13:32:15.0    -306    184    -45    358    361 301.0  -7.3  34304  292.03 0854.41
2009/04/23 13:32:15.1    -236    130    -81    270    281 298.8 -21.7  34268  291.39 0854.41
2009/04/23 13:32:15.2    -208    100    -79    231    245 295.8 -18.9  34264  291.33 0854.41
2009/04/23 13:32:15.3    -267     51     50    272    277 280.8  10.6  34264  291.34 0854.41
2009/04/23 13:32:15.4    -257    -13    -32    258    261 267.0  -7.2  34286  291.72 0854.41
2009/04/23 13:32:15.5    -116   -109    -44    160    167 226.9 -15.5  34280  291.60 0854.41
2009/04/23 13:32:15.6      28    -42    143     51    151 146.6  80.2  34270  291.45 0854.41
2009/04/23 13:32:15.7      89     28    135     94    164  72.3  62.1  34274  291.50 0854.41
2009/04/23 13:32:15.8      96     63    139    115    180  56.7  56.3  34274  291.52 0854.41
2009/04/23 13:32:15.9     189    119    173    224    283  57.8  41.6  34252  291.14 0854.41
2009/04/23 13:32:16.0     309    133    222    337    403  66.6  36.5  34224  290.67 0854.41
2009/04/23 13:32:16.1     394     42    238    397    462  83.8  33.7  34230  290.77 0854.41
2009/04/23 13:32:16.2     236     79    173    250    304  71.4  38.0  34240  290.93 0854.41
2009/04/23 13:32:16.3      28     70    146     76    164  21.8  70.4  34240  290.94 0854.41
2009/04/23 13:32:16.4     -30     14     85     34     91 295.2  77.6  34244  291.01 0854.41
2009/04/23 13:32:16.5       6     55     41     56     69   7.1  39.7  34250  291.09 0854.38
2009/04/23 13:32:16.6      18    -29     28     35     44 147.4  42.7  34252  291.15 0854.38
2009/04/23 13:32:16.7     -21     21    177     30    179 315.0  90.0  34248  291.06 0854.38
2009/04/23 13:32:16.8      42    -66    265     79    276 147.5  82.8  34242  290.98 0854.38
2009/04/23 13:32:16.9     147    -48    272    155    313 108.2  68.1  34234  290.82 0854.38
2009/04/23 13:32:17.0     241    -24    273    243    365  95.9  53.9  34228  290.71 0854.38
2009/04/23 13:32:17.1     281    -26    304    283    415  95.5  52.2  34238  290.91 0854.38
2009/04/23 13:32:17.2     220    -76    244    233    337 109.1  51.5  34248  291.07 0854.38
2009/04/23 13:32:17.3      30    -64    165     72    180 154.5  75.0  34244  290.99 0854.38
2009/04/23 13:32:17.4      39   -165    160    170    233 166.6  48.2  34240  290.94 0854.38
2009/04/23 13:32:17.5      72    -82    127    110    168 139.0  54.8  34240  290.94 0854.38
2009/04/23 13:32:17.6     178    -41    199    183    270 103.0  52.5  34214  290.49 0854.38
2009/04/23 13:32:17.7      32    -20    182     39    186 122.4  88.8  34208  290.38 0854.38
2009/04/23 13:32:17.8     127    -73    279    147    315 119.8  70.0  34210  290.41 0854.38
2009/04/23 13:32:17.9     157   -114    235    195    305 126.0  56.3  34222  290.61 0854.38
2009/04/23 13:32:18.0     222   -115    273    251    370 117.5  52.6  34212  290.45 0854.38
2009/04/23 13:32:18.1     294     -6    256    295    390  91.3  45.5  34228  290.74 0854.38
2009/04/23 13:32:18.2     369    -12    179    370    411  92.0  27.7  34228  290.74 0854.38
2009/04/23 13:32:18.3     323    -24    187    324    374  94.4  32.7  34228  290.74 0854.38
2009/04/23 13:32:18.4     256   -150    165    297    339 120.4  31.5  34218  290.56 0854.38
2009/04/23 13:32:18.5     234    -84    180    249    307 110.0  39.5  34226  290.68 0854.40
2009/04/23 13:32:18.6     219    -69    260    230    347 107.5  54.0  34224  290.66 0854.40
2009/04/23 13:32:18.7     115    -38    215    122    247 108.4  67.8  34212  290.45 0854.40
2009/04/23 13:32:18.8      23   -138    222    141    262 170.2  64.7  34208  290.40 0854.40
2009/04/23 13:32:18.9     -50   -267    289    272    396 190.6  52.1  34208  290.40 0854.40
2009/04/23 13:32:19.0      75   -223    240    236    336 161.3  50.6  34210  290.41 0854.40
2009/04/23 13:32:19.1     133   -172    223    218    311 142.2  50.4  34212  290.44 0854.40
2009/04/23 13:32:19.2      32   -169    229    173    287 169.1  59.2  34208  290.37 0854.40
2009/04/23 13:32:19.3      92    -66    225    114    252 126.0  71.1  34210  290.41 0854.40
2009/04/23 13:32:19.4      -2   -287    209    288    355 180.5  39.5  34210  290.42 0854.40
2009/04/23 13:32:19.5      19   -254    211    255    330 175.5  43.8  34212  290.44 0854.40
2009/04/23 13:32:19.6     103   -197    191    223    293 152.4  44.9  34212  290.46 0854.40
2009/04/23 13:32:19.7    -107   -299    129    318    343 199.8  23.2  34204  290.33 0854.40
2009/04/23 13:32:19.8     -53   -189    343    197    395 195.8  67.7  34212  290.45 0854.40
2009/04/23 13:32:19.9    -150   -332    111    365    382 204.4  17.0  34216  290.52 0854.40
2009/04/23 13:32:20.0    -224   -288    254    366    445 217.9  38.0  34204  290.31 0854.40
2009/04/23 13:32:20.1    -376   -313    171    490    520 230.2  19.3  34212  290.47 0854.40
2009/04/23 13:32:20.2    -545   -202   -190    582    613 249.6 -18.1  34182  289.95 0854.40
2009/04/23 13:32:20.3    -506     40   -237    508    560 274.6 -31.3  34204  290.33 0854.40
2009/04/23 13:32:20.4    -318   -145      9    350    351 245.5   1.5  34218  290.54 0854.40
2009/04/23 13:32:20.5    -313   -422    -19    526    527 216.6  -2.1  34212  290.45 0854.37
2009/04/23 13:32:20.6    -447   -454     64    638    642 224.6   5.8  34208  290.37 0854.37
2009/04/23 13:32:20.7    -289   -373     20    472    473 217.8   2.5  34192  290.13 0854.37
2009/04/23 13:32:20.8    -169   -279     53    327    332 211.1   9.3  34202  290.28 0854.37
2009/04/23 13:32:20.9    -285   -104   -123    304    327 249.8 -27.6  34188  290.03 0854.37
2009/04/23 13:32:21.0    -203   -164    187    262    321 231.1  39.0  34196  290.19 0854.37
2009/04/23 13:32:21.1    -214   -299    243    368    440 215.6  36.5  34204  290.31 0854.37
2009/04/23 13:32:21.2    -236   -317    152    396    424 216.6  22.1  34202  290.28 0854.37
2009/04/23 13:32:21.3    -284   -284     82    403    412 225.0  11.5  34202  290.29 0854.37
2009/04/23 13:32:21.4    -242   -241     35    342    344 225.2   6.0  34200  290.25 0854.37
2009/04/23 13:32:21.5    -243   -173    108    299    319 234.5  19.9  34198  290.22 0854.37
2009/04/23 13:32:21.6    -316   -283     74    425    432 228.1   9.9  34206  290.34 0854.37
2009/04/23 13:32:21.7    -355   -310     44    472    475 228.8   5.4  34198  290.23 0854.37
2009/04/23 13:32:21.8    -316   -270    102    416    429 229.5  13.8  34206  290.34 0854.37
2009/04/23 13:32:21.9    -361   -167      6    398    399 245.2   1.0  34218  290.57 0854.37
2009/04/23 13:32:22.0    -231   -123     83    262    275 242.0  17.7  34208  290.37 0854.37
2009/04/23 13:32:22.1    -158   -193    121    250    277 219.2  27.8  34202  290.27 0854.37
2009/04/23 13:32:22.2     -94    -48    166    106    196 242.9  64.6  34206  290.35 0854.37
2009/04/23 13:32:22.3    -355      0    115    356    375 270.0  17.9  34208  290.38 0854.37
2009/04/23 13:32:22.4    -324    -82     55    335    340 255.7   9.4  34208  290.37 0854.37
2009/04/23 13:32:22.5    -277    -69     13    286    287 255.9   2.8  34212  290.44 0854.37
2009/04/23 13:32:22.6    -220    -16     35    221    224 265.6   9.0  34214  290.50 0854.37
2009/04/23 13:32:22.7    -275    -82     21    287    288 253.4   4.2  34220  290.59 0854.37
2009/04/23 13:32:22.8    -329   -115    -26    349    350 250.7  -4.4  34210  290.42 0854.37
2009/04/23 13:32:22.9    -281   -117    -76    305    315 247.4 -14.1  34208  290.37 0854.37
2009/04/23 13:32:23.0    -191   -150    -87    244    260 231.8 -19.6  34208  290.37 0854.37
2009/04/23 13:32:23.1    -237   -142    -56    277    283 239.1 -11.6  34214  290.49 0854.37
2009/04/23 13:32:23.2    -225    -15    -70    226    236 266.1 -22.1  34224  290.65 0854.37
2009/04/23 13:32:23.3    -263      7   -131    264    294 271.7 -32.6  34218  290.54 0854.37
2009/04/23 13:32:23.4    -176    -77    -38    193    197 246.3 -11.3  34220  290.58 0854.37
2009/04/23 13:32:23.5    -169   -184     31    251    254 222.5   7.2  34220  290.58 0854.37
2009/04/23 13:32:23.6    -260   -294    -17    393    394 221.4  -2.6  34222  290.62 0854.37
2009/04/23 13:32:23.7    -367   -325    -19    491    492 228.4  -2.2  34210  290.42 0854.37
2009/04/23 13:32:23.8    -285   -281      0    401    402 225.4   0.0  34218  290.55 0854.37
2009/04/23 13:32:23.9    -327   -151    -50    361    365 245.2  -8.0  34206  290.35 0854.37
2009/04/23 13:32:24.0    -325   -156    125    361    383 244.3  19.1  34212  290.45 0854.37
2009/04/23 13:32:24.1    -438   -304    224    534    579 235.3  24.2  34204  290.33 0854.37
2009/04/23 13:32:24.2    -361   -467    272    591    650 217.8  26.5  34208  290.40 0854.37
2009/04/23 13:32:24.3    -319   -427    -39    534    536 216.8  -4.2  34188  290.06 0854.37
2009/04/23 13:32:24.4    -299   -270    222    403    460 227.9  31.3  34204  290.33 0854.37
2009/04/23 13:32:24.5    -517   -334     -7    616    617 237.1  -0.7  34192  290.11 0854.35
2009/04/23 13:32:24.6    -532   -287     76    605    610 241.6   7.2  34206  290.36 0854.35
2009/04/23 13:32:24.7    -329   -296     13    443    444 228.0   1.8  34182  289.94 0854.35
2009/04/23 13:32:24.8    -222   -349    215    415    467 212.5  29.4  34200  290.26 0854.35
2009/04/23 13:32:24.9    -375   -293    217    476    523 232.0  26.2  34212  290.44 0854.35
2009/04/23 13:32:25.0    -253   -253     68    359    366 225.0  10.7  34220  290.59 0854.35
2009/04/23 13:32:25.1    -208   -316     53    379    383 213.4   8.0  34222  290.64 0854.35
2009/04/23 13:32:25.2    -215   -273     82    348    358 218.2  13.3  34214  290.49 0854.35
2009/04/23 13:32:25.3    -278   -211    -28    350    352 232.8  -4.6  34196  290.18 0854.35
2009/04/23 13:32:25.4    -300   -253    -41    393    396 229.8  -6.1  34202  290.27 0854.35
2009/04/23 13:32:25.5    -383   -455    -21    595    596 220.1  -2.1  34208  290.39 0854.37
2009/04/23 13:32:25.6    -371   -465    -40    596    598 218.6  -3.9  34198  290.22 0854.37
2009/04/23 13:32:25.7    -396   -543     32    673    674 216.1   2.8  34210  290.43 0854.37
2009/04/23 13:32:25.8    -403   -502    -21    645    646 218.8  -1.9  34214  290.48 0854.37
2009/04/23 13:32:25.9    -416   -512     -4    661    662 219.1  -0.4  34208  290.38 0854.37
2009/04/23 13:32:26.0    -603   -389    -63    718    721 237.2  -5.1  34210  290.42 0854.37
2009/04/23 13:32:26.1    -637   -266     12    691    692 247.3   1.0  34214  290.49 0854.37
2009/04/23 13:32:26.2    -569   -186    -76    599    604 251.9  -7.3  34202  290.29 0854.37
2009/04/23 13:32:26.3    -244   -382   -179    454    488 212.6 -27.1  34188  290.06 0854.37
2009/04/23 13:32:26.4     -99   -427   -222    439    491 193.1 -33.2  34192  290.12 0854.37
2009/04/23 13:32:26.5    -286   -392   -134    486    505 216.1 -15.4  34198  290.20 0854.37
2009/04/23 13:32:26.6    -456   -294    -98    543    552 237.1 -10.3  34200  290.26 0854.37
2009/04/23 13:32:26.7    -159   -418   -133    448    467 200.9 -21.5  34200  290.26 0854.37
2009/04/23 13:32:26.8    -278   -409   -104    495    506 214.3 -11.9  34194  290.15 0854.37
2009/04/23 13:32:26.9    -303   -334   -124    452    469 222.2 -15.4  34196  290.19 0854.37
2009/04/23 13:32:27.0    -340   -323   -131    469    488 226.5 -15.7  34196  290.18 0854.37
2009/04/23 13:32:27.1    -391   -186   -150    434    460 244.5 -19.1  34194  290.16 0854.37
2009/04/23 13:32:27.2    -523   -124   -230    538    585 256.6 -29.0  34188  290.03 0854.37
2009/04/23 13:32:27.3    -470   -194   -176    509    539 247.6 -19.1  34182  289.94 0854.37
2009/04/23 13:32:27.4    -361   -235     -9    432    433 236.9  -1.3  34192  290.12 0854.37
2009/04/23 13:32:27.5    -371    -76   -273    379    467 258.3 -43.6  34198  290.21 0854.38
2009/04/23 13:32:27.6    -597     49   -255    600    651 274.7 -28.8  34194  290.15 0854.38
2009/04/23 13:32:27.7    -557    -78   -182    563    591 262.0 -22.9  34196  290.19 0854.38
2009/04/23 13:32:27.8    -393     56   -170    398    432 278.1 -29.2  34196  290.19 0854.38
2009/04/23 13:32:27.9    -275    -72   -127    285    312 255.2 -30.1  34198  290.20 0854.38
2009/04/23 13:32:28.0    -306   -183   -152    357    388 239.1 -28.9  34198  290.20 0854.38
2009/04/23 13:32:28.1    -288   -265    -12    392    393 227.4  -1.9  34198  290.20 0854.38
2009/04/23 13:32:28.2    -302   -221     18    375    376 233.9   2.8  34198  290.21 0854.38
2009/04/23 13:32:28.3    -239   -302     29    386    388 218.4   4.3  34196  290.18 0854.38
2009/04/23 13:32:28.4    -201   -406    158    454    481 206.4  19.2  34196  290.17 0854.38
2009/04/23 13:32:28.5    -212   -414    180    466    499 207.1  22.3  34194  290.15 0854.38
2009/04/23 13:32:28.6    -119   -401    164    419    449 196.6  22.7  34196  290.17 0854.38
2009/04/23 13:32:28.7    -163   -408    157    440    467 201.8  20.3  34190  290.09 0854.38
2009/04/23 13:32:28.8    -129   -327     83    352    362 201.6  13.3  34196  290.18 0854.38
2009/04/23 13:32:28.9     -84   -263     75    277    288 197.8  15.2  34194  290.14 0854.38
2009/04/23 13:32:29.0      20   -228     83    229    243 174.9  20.7  34192  290.12 0854.38
2009/04/23 13:32:29.1     -27   -382     32    383    385 184.1   4.9  34198  290.20 0854.38
2009/04/23 13:32:29.2     -39   -345     62    348    354 186.5  10.2  34194  290.16 0854.38
2009/04/23 13:32:29.3      11   -356     72    357    365 178.2  11.5  34194  290.16 0854.38
2009/04/23 13:32:29.4       0   -373     94    374    386 180.1  14.2  34192  290.13 0854.38
2009/04/23 13:32:29.5     -46   -370     70    373    380 187.1  10.7  34198  290.23 0854.38
2009/04/23 13:32:29.6     -54   -380     80    384    393 188.1  11.8  34198  290.20 0854.38
2009/04/23 13:32:29.7     -81   -363     82    373    383 192.6  12.5  34192  290.13 0854.38
2009/04/23 13:32:29.8     -77   -370     45    379    382 191.8   6.9  34192  290.13 0854.38
2009/04/23 13:32:29.9     -74   -370     49    378    382 191.4   7.5  34192  290.10 0854.38
2009/04/23 13:32:30.0     -70   -329     21    337    338 192.0   3.7  34192  290.13 0854.38
2009/04/23 13:32:30.1     -35   -279     72    282    292 187.2  14.3  34188  290.05 0854.38
2009/04/23 13:32:30.2     -72   -297     85    306    318 193.8  15.7  34190  290.09 0854.38
2009/04/23 13:32:30.3     -70   -280    117    289    311 194.2  23.1  34188  290.05 0854.38
2009/04/23 13:32:30.4      -8   -211    141    212    254 182.2  36.5  34194  290.15 0854.38
2009/04/23 13:32:30.5      -5   -223    116    224    252 181.4  29.5  34194  290.15 0854.38
2009/04/23 13:32:30.6      16   -215    106    216    240 175.6  28.2  34196  290.19 0854.38
2009/04/23 13:32:30.7      70   -175    149    189    240 158.2  42.4  34192  290.13 0854.38
2009/04/23 13:32:30.8     -21   -170    147    172    226 187.1  44.8  34196  290.18 0854.38
2009/04/23 13:32:30.9       3   -193    157    194    249 179.1  43.3  34196  290.18 0854.38
2009/04/23 13:32:31.0       0   -190    148    191    241 180.2  41.7  34196  290.18 0854.38
2009/04/23 13:32:31.1    -106   -265    130    286    314 201.8  26.2  34188  290.03 0854.38
2009/04/23 13:32:31.2    -164   -198     98    258    275 219.6  22.0  34190  290.09 0854.38
2009/04/23 13:32:31.3    -157   -223    138    273    305 215.2  28.7  34194  290.14 0854.38
2009/04/23 13:32:31.4    -126   -255    147    285    320 206.3  29.5  34192  290.10 0854.38
2009/04/23 13:32:31.5     -89   -328    187    341    388 195.3  31.3  34192  290.11 0854.39
2009/04/23 13:32:31.6      10   -332    229    333    404 178.1  37.8  34192  290.13 0854.39
2009/04/23 13:32:31.7      81   -380    219    389    446 167.9  31.9  34194  290.16 0854.39
2009/04/23 13:32:31.8     172   -331    130    374    395 152.5  20.0  34190  290.08 0854.39
2009/04/23 13:32:31.9     120   -299    142    323    352 158.1  25.2  34192  290.13 0854.39
2009/04/23 13:32:32.0     147   -287    133    323    349 152.9  23.7  34192  290.10 0854.39
2009/04/23 13:32:32.1     150   -271    185    310    361 151.0  33.6  34192  290.13 0854.39
2009/04/23 13:32:32.2      95   -300    247    315    400 162.4  42.1  34190  290.08 0854.39
2009/04/23 13:32:32.3      98   -298    144    314    345 161.7  26.5  34198  290.20 0854.39
2009/04/23 13:32:32.4     156   -360    107    393    408 156.6  15.3  34194  290.14 0854.39
2009/04/23 13:32:32.5     188   -257    111    319    338 143.9  19.3  34194  290.15 0854.39
2009/04/23 13:32:32.6     184   -191    163    266    311 136.1  34.5  34194  290.14 0854.39
2009/04/23 13:32:32.7     172   -191     70    258    268 138.1  15.3  34192  290.10 0854.39
2009/04/23 13:32:32.8     158   -319     30    357    359 153.6   4.9  34194  290.15 0854.39
2009/04/23 13:32:32.9      72   -358     46    366    369 168.6   7.2  34192  290.13 0854.39
2009/04/23 13:32:33.0     -56   -348    -11    353    354 189.2  -1.9  34196  290.18 0854.39
2009/04/23 13:32:33.1     -73   -350     47    358    362 191.9   7.5  34194  290.16 0854.39
2009/04/23 13:32:33.2     -96   -344   -116    358    377 195.6 -18.0  34192  290.13 0854.39
2009/04/23 13:32:33.3     -13   -433    -75    434    441 181.8  -9.9  34198  290.21 0854.39
2009/04/23 13:32:33.4     -16   -347    135    348    373 182.7  22.4  34182  289.93 0854.39
2009/04/23 13:32:33.5     -23   -310    156    311    347 184.4  28.5  34198  290.20 0854.41
2009/04/23 13:32:33.6     -69   -304     85    312    324 192.9  15.3  34196  290.17 0854.41
2009/04/23 13:32:33.7    -183   -252     36    312    315 216.0   6.6  34198  290.20 0854.41
2009/04/23 13:32:33.8    -235   -373      5    441    442 212.2   0.7  34196  290.19 0854.41
2009/04/23 13:32:33.9    -221   -471    -23    521    522 205.2  -2.6  34198  290.21 0854.41
2009/04/23 13:32:34.0    -233   -398    -55    462    466 210.4  -6.9  34194  290.14 0854.41
2009/04/23 13:32:34.1    -209   -364    -12    421    422 209.9  -1.7  34196  290.17 0854.41
2009/04/23 13:32:34.2    -196   -374     -1    423    424 207.6  -0.3  34196  290.19 0854.41
2009/04/23 13:32:34.3    -115   -322    -88    343    355 199.7 -14.4  34200  290.25 0854.41
2009/04/23 13:32:34.4     -87   -261   -152    276    315 198.5 -35.8  34194  290.14 0854.41
2009/04/23 13:32:34.5    -119   -112   -107    164    195 226.7 -40.7  34194  290.16 0854.41
2009/04/23 13:32:34.6    -157   -152   -140    219    259 226.0 -40.0  34190  290.09 0854.41
2009/04/23 13:32:34.7    -279    -12   -140    280    313 267.4 -33.0  34196  290.19 0854.41
2009/04/23 13:32:34.8    -310    -62   -149    317    350 258.6 -31.5  34202  290.27 0854.41
2009/04/23 13:32:34.9    -250    -59   -131    257    288 256.7 -33.6  34200  290.26 0854.41
2009/04/23 13:32:35.0    -189    -13   -153    190    243 265.9 -47.2  34198  290.23 0854.41
2009/04/23 13:32:35.1    -184    -12   -129    185    225 266.3 -43.0  34200  290.26 0854.41
2009/04/23 13:32:35.2    -145    -47   -115    153    191 251.8 -45.3  34202  290.30 0854.41
2009/04/23 13:32:35.3    -116   -134    -63    178    190 221.0 -19.6  34204  290.33 0854.41
2009/04/23 13:32:35.4    -135   -126     45    185    191 226.9  13.9  34202  290.28 0854.41
2009/04/23 13:32:35.5    -178    -45     74    184    198 255.8  23.0  34202  290.28 0854.41
2009/04/23 13:32:35.6     -81   -175     -4    194    195 204.9  -1.3  34198  290.23 0854.41
2009/04/23 13:32:35.7     -91    -67     61    114    129 233.6  30.3  34192  290.11 0854.41
2009/04/23 13:32:35.8    -147     37    -37    152    157 284.2 -13.7  34204  290.33 0854.41
2009/04/23 13:32:35.9    -217    -92    -21    236    237 246.9  -5.2  34204  290.32 0854.41
2009/04/23 13:32:36.0     -80    -82    -64    115    131 224.1 -35.8  34202  290.28 0854.41
2009/04/23 13:32:36.1     -25    -87   -101     91    135 196.5 -57.7  34204  290.33 0854.41
2009/04/23 13:32:36.2     -57    -81   -101    100    142 215.2 -54.5  34196  290.19 0854.41
2009/04/23 13:32:36.3       0    -65   -144     66    158 180.0 -78.4  34194  290.16 0854.41
2009/04/23 13:32:36.4    -117    -73    -49    139    147 238.0 -24.4  34198  290.21 0854.41
2009/04/23 13:32:36.5     -60    -57    -11     83     84 226.4  -7.7  34202  290.30 0854.41
2009/04/23 13:32:36.6     -75     42    -37     86     93 299.3 -29.0  34204  290.31 0854.41
2009/04/23 13:32:36.7     -76     77    -86    109    138 315.5 -46.6  34194  290.14 0854.41
2009/04/23 13:32:36.8      57     65    -10     87     88  41.4  -6.7  34194  290.14 0854.41
2009/04/23 13:32:36.9     128      0     25    129    132  90.0  11.1  34194  290.16 0854.41
2009/04/23 13:32:37.0      53     12    134     55    144  76.7  77.1  34196  290.18 0854.41
2009/04/23 13:32:37.1     -64     13     93     66    114 281.5  61.5  34202  290.30 0854.41
2009/04/23 13:32:37.2    -131    -24     89    134    160 259.4  36.7  34200  290.26 0854.41
2009/04/23 13:32:37.3    -165    -83     74    185    199 243.1  23.0  34196  290.18 0854.41
2009/04/23 13:32:37.4    -151    -88     -3    175    176 239.8  -1.3  34192  290.13 0854.41
2009/04/23 13:32:37.5    -161    -36    -46    165    171 257.4 -20.2  34188  290.06 0854.42
2009/04/23 13:32:37.6    -183   -125    -77    222    234 235.6 -24.3  34182  289.96 0854.42
2009/04/23 13:32:37.7    -136     10    111    137    176 274.3  43.5  34194  290.14 0854.42
2009/04/23 13:32:37.8    -257      3    123    258    285 270.8  27.2  34192  290.10 0854.42
2009/04/23 13:32:37.9    -167     57     91    177    199 289.1  29.3  34194  290.14 0854.42
2009/04/23 13:32:38.0    -113    -13     58    114    127 263.0  28.7  34196  290.18 0854.42
2009/04/23 13:32:38.1    -109    -24     92    112    144 257.6  43.7  34192  290.13 0854.42
2009/04/23 13:32:38.2    -126    -42     87    134    159 251.4  36.0  34194  290.16 0854.42
2009/04/23 13:32:38.3    -108    -36    -13    115    116 251.4  -6.7  34192  290.13 0854.42
2009/04/23 13:32:38.4      -4    -57    -54     58     79 184.5 -52.9  34194  290.14 0854.42
2009/04/23 13:32:38.5       6    -97    -38     98    105 176.4 -26.9  34192  290.11 0854.42
2009/04/23 13:32:38.6      67    -60    -12     91     92 131.8  -7.7  34194  290.16 0854.42
2009/04/23 13:32:38.7       9    -64    -20     65     68 172.0 -22.8  34194  290.16 0854.42
2009/04/23 13:32:38.8      -5   -100    -65    101    120 183.1 -40.0  34192  290.11 0854.42
2009/04/23 13:32:38.9      40    -91    -84    100    130 156.4 -48.2  34192  290.11 0854.42
2009/04/23 13:32:39.0      20    -81    -35     84     91 166.2 -28.5  34194  290.14 0854.42
2009/04/23 13:32:39.1     -42   -142    -56    149    159 196.5 -25.9  34190  290.08 0854.42
2009/04/23 13:32:39.2     -76   -119   -107    142    177 212.5 -45.1  34190  290.09 0854.42
2009/04/23 13:32:39.3     -77   -105   -102    131    166 216.1 -46.4  34194  290.14 0854.42
2009/04/23 13:32:39.4     -45   -184    -63    190    200 193.8 -23.8  34198  290.21 0854.42
2009/04/23 13:32:39.5     -66   -201    -63    212    221 198.3 -21.5  34200  290.26 0854.42
2009/04/23 13:32:39.7      40   -210    -33    214    217 169.1  -9.0  34194  290.16 0854.42
2009/04/23 13:32:39.8      84   -226     -4    242    243 159.5  -1.1  34190  290.09 0854.42
2009/04/23 13:32:39.9      94   -204     11    225    226 155.3   2.9  34192  290.13 0854.42
2009/04/23 13:32:40.0      23   -243     -5    245    246 174.4  -1.3  34188  290.03 0854.42
2009/04/23 13:32:40.1      32   -231     43    234    239 171.9  10.6  34190  290.07 0854.42
2009/04/23 13:32:40.2      35   -301     34    304    306 173.3   6.5  34188  290.05 0854.42
2009/04/23 13:32:40.3      33   -353     83    355    365 174.6  13.2  34188  290.03 0854.42
2009/04/23 13:32:40.4      -2   -293     52    294    299 180.5  10.1  34186  290.02 0854.42
2009/04/23 13:32:40.5      42   -265     77    269    280 170.9  16.0  34182  289.95 0854.42
2009/04/23 13:32:40.6      53   -311    111    316    336 170.2  19.4  34192  290.10 0854.42
2009/04/23 13:32:40.7      32   -296    104    298    316 173.7  19.3  34190  290.07 0854.42
2009/04/23 13:32:40.8      35   -272     13    275    276 172.7   2.8  34188  290.03 0854.42
2009/04/23 13:32:40.9      28   -120    148    124    193 166.7  56.3  34186  290.02 0854.42
2009/04/23 13:32:41.0     -13   -175    167    176    242 184.4  48.7  34190  290.09 0854.42
2009/04/23 13:32:41.1     -93   -302    109    317    336 197.2  19.1  34192  290.10 0854.42
2009/04/23 13:32:41.2     -91   -182     60    204    213 206.5  16.6  34188  290.04 0854.42
2009/04/23 13:32:41.3    -140   -116     68    183    195 230.4  20.7  34188  290.06 0854.42
2009/04/23 13:32:41.4    -134   -116    106    178    207 229.1  33.5  34190  290.09 0854.42
2009/04/23 13:32:41.5    -139   -138     71    196    208 225.2  20.7  34188  290.06 0854.42
2009/04/23 13:32:41.6    -131   -128     70    184    196 225.8  22.0  34190  290.08 0854.42
2009/04/23 13:32:41.7    -157   -138    115    210    239 228.7  31.0  34190  290.08 0854.42
2009/04/23 13:32:41.8    -153    -69     96    169    194 245.6  32.1  34196  290.19 0854.42
2009/04/23 13:32:41.9    -124   -128     92    179    201 224.1  29.3  34198  290.21 0854.42
2009/04/23 13:32:42.0    -190    -76     -4    205    206 248.2  -1.3  34194  290.16 0854.42
2009/04/23 13:32:42.1    -283   -123    -96    309    323 246.5 -22.3  34204  290.31 0854.42
2009/04/23 13:32:42.2    -265   -126    -87    294    306 244.6 -21.5  34202  290.29 0854.42
2009/04/23 13:32:42.3    -232   -100    -90    253    269 246.5 -19.7  34202  290.29 0854.42
2009/04/23 13:32:42.4    -219   -108    -69    245    254 243.6 -20.4  34196  290.19 0854.42
2009/04/23 13:32:42.5    -132    -84    -96    157    184 237.6 -39.2  34202  290.28 0854.42
2009/04/23 13:32:42.6    -215    -65   -100    225    246 253.1 -30.1  34206  290.36 0854.42
2009/04/23 13:32:42.7    -185    -83    -88    203    221 245.8 -29.3  34204  290.31 0854.42
2009/04/23 13:32:42.8    -188    -35    -93    192    213 259.4 -31.8  34200  290.26 0854.42
2009/04/23 13:32:42.9    -179    -37    -80    183    199 258.3 -29.5  34206  290.35 0854.42
2009/04/23 13:32:43.0    -130     28    -84    134    158 282.4 -39.6  34202  290.30 0854.42
2009/04/23 13:32:43.1     -46    -19    -17     50     52 247.4 -23.6  34198  290.21 0854.42
2009/04/23 13:32:43.2      52    -33     21     62     66 122.4  18.9  34200  290.26 0854.42
2009/04/23 13:32:43.3      24    -54    -45     60     75 156.4 -44.1  34202  290.30 0854.42
2009/04/23 13:32:43.4      -9   -139    -80    140    161 184.0 -36.8  34204  290.33 0854.42
2009/04/23 13:32:43.5     -11   -200      8    201    202 183.4   2.5  34210  290.43 0854.43
2009/04/23 13:32:43.6    -104   -163    -58    194    203 212.6 -16.6  34214  290.48 0854.43
2009/04/23 13:32:43.7    -116   -116    -33    165    169 225.1 -11.6  34216  290.52 0854.43
2009/04/23 13:32:43.8    -210    -77     22    224    226 249.8   5.7  34228  290.74 0854.43
2009/04/23 13:32:43.9    -192    -84    -23    210    212 246.3  -6.5  34220  290.60 0854.43
2009/04/23 13:32:44.0    -236    -94      3    255    256 248.3   0.8  34226  290.68 0854.43
2009/04/23 13:32:44.1    -232   -184     64    297    304 231.6  12.2  34222  290.63 0854.43
2009/04/23 13:32:44.2    -327    -92     13    340    341 254.2   2.3  34204  290.33 0854.43
2009/04/23 13:32:44.3    -314    -31    -40    316    319 264.3  -7.2  34206  290.36 0854.43
2009/04/23 13:32:44.4    -337      7    -39    338    341 271.3  -6.6  34210  290.43 0854.43
2009/04/23 13:32:44.5    -313   -102     32    330    332 251.8   5.7  34202  290.30 0854.43
2009/04/23 13:32:44.6    -318   -163    -73    358    366 242.8 -11.6  34200  290.25 0854.43
2009/04/23 13:32:44.7    -231   -241   -232    334    406 223.8 -42.7  34192  290.13 0854.43
2009/04/23 13:32:44.8     -82   -176   -157    195    250 204.9 -47.7  34194  290.14 0854.43
2009/04/23 13:32:44.9       5   -206   -123    207    240 178.4 -37.9  34196  290.18 0854.43
2009/04/23 13:32:45.0     -38   -112   -108    119    160 198.7 -51.3  34188  290.04 0854.43
2009/04/23 13:32:45.1     -59      2    -16     60     63 272.6 -15.4  34198  290.21 0854.43
2009/04/23 13:32:45.2     -84     53     -2    100    101 302.4  -1.3  34202  290.28 0854.43
2009/04/23 13:32:45.3     -16    -47    108     50    119 198.7  73.1  34206  290.35 0854.43
2009/04/23 13:32:45.4    -179    -43    -10    185    186 256.3  -3.1  34202  290.30 0854.43
2009/04/23 13:32:45.5    -215    -58   -144    223    265 254.7 -40.0  34200  290.26 0854.43
2009/04/23 13:32:45.6    -158    -60    -46    170    177 249.2 -15.2  34198  290.23 0854.43
2009/04/23 13:32:45.7    -278     21    -25    279    281 274.4  -5.2  34204  290.31 0854.43
2009/04/23 13:32:45.8    -238     79    -78    251    262 288.4 -22.3  34210  290.41 0854.43
2009/04/23 13:32:45.9    -269     71   -106    279    298 284.8 -26.4  34200  290.26 0854.43
2009/04/23 13:32:46.0    -358    -88    -26    369    370 256.1  -4.1  34202  290.30 0854.43
2009/04/23 13:32:46.1    -235   -339    181    413    450 214.8  25.2  34196  290.19 0854.43
2009/04/23 13:32:46.2    -162   -237      1    288    289 214.3   0.2  34192  290.10 0854.43
2009/04/23 13:32:46.3     -82   -313     40    324    327 194.8   7.1  34198  290.20 0854.43
2009/04/23 13:32:46.4    -117   -180    159    215    267 213.0  40.1  34184  289.98 0854.43
2009/04/23 13:32:46.5    -263   -172    185    315    365 236.7  33.3  34202  290.28 0854.45
2009/04/23 13:32:46.6    -269    -61     23    276    278 257.2   4.9  34202  290.29 0854.45
2009/04/23 13:32:46.7    -325    -61     14    331    332 259.3   2.5  34208  290.38 0854.45
2009/04/23 13:32:46.8    -273    -57      7    280    281 258.1   1.6  34206  290.34 0854.45
2009/04/23 13:32:46.9    -282    128    -39    310    313 294.4  -7.2  34192  290.12 0854.45
2009/04/23 13:32:47.0    -262     17     94    263    279 273.7  20.4  34210  290.41 0854.45
2009/04/23 13:32:47.1    -143     42    107    150    184 286.4  39.1  34210  290.43 0854.45
2009/04/23 13:32:47.2    -113   -112     11    160    161 225.3   4.2  34206  290.36 0854.45
2009/04/23 13:32:47.3    -149    -78     75    169    184 242.5  25.7  34214  290.50 0854.45
2009/04/23 13:32:47.4    -197    -32     70    200    211 260.8  20.0  34204  290.33 0854.45
2009/04/23 13:32:47.5    -243     37    -40    246    250 278.8  -9.3  34210  290.41 0854.45
2009/04/23 13:32:47.6    -309     73    -40    318    321 283.3  -7.3  34202  290.27 0854.45
2009/04/23 13:32:47.7    -256     62    -31    264    266 283.7  -6.7  34202  290.27 0854.45
2009/04/23 13:32:47.8    -312     68     30    320    322 282.4   5.5  34206  290.36 0854.45
2009/04/23 13:32:47.9    -301      4    -38    302    305 270.8  -7.3  34180  289.92 0854.45
2009/04/23 13:32:48.0    -376    -42    -39    379    382 263.5  -6.0  34198  290.23 0854.45
2009/04/23 13:32:48.1    -301      0    -67    302    310 270.0 -12.5  34206  290.34 0854.45
2009/04/23 13:32:48.2    -314    -11    -92    315    329 268.0 -16.4  34200  290.26 0854.45
2009/04/23 13:32:48.3    -307     34    -92    309    322 276.4 -21.5  34202  290.27 0854.45
2009/04/23 13:32:48.4    -185     14     50    186    193 274.6  15.3  34202  290.30 0854.45
2009/04/23 13:32:48.5    -188     26     -7    190    191 277.9  -2.1  34206  290.35 0854.50
2009/04/23 13:32:48.6    -186     14     15    187    188 274.4   4.6  34206  290.35 0854.50
2009/04/23 13:32:48.7    -181    -26     65    183    195 261.6  19.6  34204  290.31 0854.50
2009/04/23 13:32:48.8    -167    -55     54    177    186 251.6  17.1  34208  290.40 0854.50
2009/04/23 13:32:48.9    -168    -72     76    183    198 246.7  23.6  34210  290.41 0854.50
2009/04/23 13:32:49.0    -156    -76     44    174    180 244.0  14.3  34210  290.41 0854.50
2009/04/23 13:32:49.1      31   -153     20    157    159 168.5   7.5  34198  290.21 0854.50
2009/04/23 13:32:49.2      41   -179     32    184    187 167.1   9.9  34196  290.19 0854.50
2009/04/23 13:32:49.3      62   -133      7    147    148 155.1   2.8  34198  290.23 0854.50
2009/04/23 13:32:49.4      58   -104     46    120    128 151.0  22.0  34196  290.18 0854.50
2009/04/23 13:32:49.5      36   -104     56    111    124 160.8  29.2  34196  290.18 0854.50
2009/04/23 13:32:49.6      50    -42     65     66     92 129.6  50.5  34194  290.14 0854.50
2009/04/23 13:32:49.7      34    -21     59     41     71 122.4  61.5  34198  290.23 0854.50
2009/04/23 13:32:49.8      53    -68     30     87     93 141.7  19.4  34198  290.21 0854.50
2009/04/23 13:32:49.9      71    -68     49     99    110 134.0  27.8  34196  290.18 0854.50
2009/04/23 13:32:50.0      92   -110     24    144    146 139.9   9.5  34198  290.21 0854.50
2009/04/23 13:32:50.1      73    -72     51    103    114 134.4  27.8  34196  290.18 0854.50
2009/04/23 13:32:50.2      78    -56     57     97    112 126.0  33.5  34196  290.19 0854.50
2009/04/23 13:32:50.3      17    -52    100     55    114 161.7  68.8  34202  290.30 0854.50
2009/04/23 13:32:50.4      33    -88     77     95    122 159.1  43.7  34200  290.26 0854.50
2009/04/23 13:32:50.5      14   -111     66    112    130 172.4  33.5  34196  290.19 0854.48
2009/04/23 13:32:50.6     -36    -92    101     99    141 201.4  50.2  34200  290.25 0854.48
2009/04/23 13:32:50.7     -64   -136     93    151    177 205.5  34.8  34198  290.21 0854.48
2009/04/23 13:32:50.8     -74   -184     98    199    221 202.1  28.0  34198  290.21 0854.48
2009/04/23 13:32:50.9    -146   -144    182    206    274 225.3  45.9  34200  290.26 0854.48
2009/04/23 13:32:51.0    -191   -105    134    218    255 241.2  34.5  34200  290.24 0854.48
2009/04/23 13:32:51.1    -197   -108    108    225    249 241.2  27.3  34200  290.24 0854.48
2009/04/23 13:32:51.2    -178    -27    115    181    214 261.2  35.5  34196  290.18 0854.48
2009/04/23 13:32:51.3    -269     41     95    273    290 278.8  19.2  34198  290.22 0854.48
2009/04/23 13:32:51.4    -256     35     50    259    264 277.9  11.1  34204  290.32 0854.48
2009/04/23 13:32:51.5    -205     67     52    216    223 288.2  13.5  34200  290.26 0854.48
2009/04/23 13:32:51.6    -274    -21      0    275    276 265.4   0.0  34204  290.32 0854.48
2009/04/23 13:32:51.7    -416    -34   -132    418    439 265.2 -17.6  34188  290.05 0854.48
2009/04/23 13:32:51.8    -423    323    -10    533    534 307.3  -1.2  34194  290.14 0854.48
2009/04/23 13:32:51.9    -512    142   -101    532    542 285.5 -10.8  34196  290.18 0854.48
2009/04/23 13:32:52.0    -458    131   -163    477    505 286.0 -18.9  34200  290.25 0854.48
2009/04/23 13:32:52.1    -555    171   -151    582    602 287.2 -14.6  34194  290.14 0854.48
2009/04/23 13:32:52.2    -667     77   -280    672    728 276.6 -28.5  34198  290.20 0854.48
2009/04/23 13:32:52.3    -587    -57    -64    590    594 264.4  -6.2  34196  290.19 0854.48
2009/04/23 13:32:52.4    -342   -166    -21    381    382 244.1  -3.2  34198  290.23 0854.48
2009/04/23 13:32:52.5    -277   -176     34    329    331 237.6   6.0  34198  290.23 0854.47
2009/04/23 13:32:52.6    -318     48    119    322    343 278.6  21.3  34196  290.18 0854.47
2009/04/23 13:32:52.7    -139     14    168    140    218 276.1  56.3  34200  290.26 0854.47
2009/04/23 13:32:52.8    -140     66     68    155    169 295.4  25.3  34202  290.30 0854.47
2009/04/23 13:32:52.9    -176      0     16    177    178 270.0   5.2  34200  290.26 0854.47
2009/04/23 13:32:53.0    -346    -81    -55    356    361 256.8  -8.9  34202  290.27 0854.47
2009/04/23 13:32:53.1    -419   -197    -25    464    465 244.8  -3.2  34198  290.22 0854.47
2009/04/23 13:32:53.2    -240    -48     25    245    247 258.5   5.9  34196  290.19 0854.47
2009/04/23 13:32:53.3     -78    272    -46    284    288 344.0  -9.3  34202  290.27 0854.47
2009/04/23 13:32:53.4    -239    168   -117    293    315 305.1 -27.4  34204  290.31 0854.47
2009/04/23 13:32:53.5    -133    323   -118    350    370 337.5 -18.7  34204  290.32 0854.47
2009/04/23 13:32:53.6    -214    244    -35    325    327 318.8  -6.3  34206  290.36 0854.47
2009/04/23 13:32:53.7    -289    -28    -19    291    292 264.3  -3.9  34208  290.37 0854.47
2009/04/23 13:32:53.8    -343    -34    -59    345    351 264.3  -9.8  34206  290.35 0854.47
2009/04/23 13:32:53.9    -375   -113    -22    392    393 253.2  -3.3  34208  290.40 0854.47
2009/04/23 13:32:54.0    -433   -238     12    495    496 241.2   1.4  34212  290.47 0854.47
2009/04/23 13:32:54.1    -377   -380   -166    536    562 224.8 -17.2  34210  290.41 0854.47
2009/04/23 13:32:54.2    -294   -282   -187    408    448 226.2 -30.7  34210  290.43 0854.47
2009/04/23 13:32:54.3    -213   -180    -94    280    296 229.8 -18.6  34208  290.37 0854.47
2009/04/23 13:32:54.4    -409    -69     35    415    417 260.4   4.9  34204  290.33 0854.47
2009/04/23 13:32:54.5    -359   -272     30    451    452 232.9   3.9  34202  290.29 0854.46
2009/04/23 13:32:54.6    -218   -325     70    392    399 213.8  10.1  34214  290.49 0854.46
2009/04/23 13:32:54.7    -335   -404   -105    526    537 219.7 -11.3  34204  290.31 0854.46
2009/04/23 13:32:54.8    -403   -430     33    590    591 223.1   3.2  34200  290.25 0854.46
2009/04/23 13:32:54.9    -270   -287    -53    395    399 223.3  -7.7  34184  289.98 0854.46
2009/04/23 13:32:55.0    -274   -413   -208    496    537 213.6 -28.6  34198  290.23 0854.46
2009/04/23 13:32:55.1    -243   -492   -149    549    569 206.3 -15.2  34198  290.23 0854.46
2009/04/23 13:32:55.2    -286   -383   -197    479    517 216.8 -28.0  34198  290.20 0854.46
2009/04/23 13:32:55.3    -199   -429   -160    474    501 204.9 -18.7  34192  290.12 0854.46
2009/04/23 13:32:55.4    -102   -384    -31    398    400 194.9  -4.6  34198  290.20 0854.46
2009/04/23 13:32:55.5     -13   -297    -60    298    305 182.7 -11.5  34194  290.14 0854.46
2009/04/23 13:32:55.6     -68   -398    -58    404    409 189.7  -8.2  34206  290.34 0854.46
2009/04/23 13:32:55.7     -51   -366    -83    370    380 188.0 -12.7  34194  290.15 0854.46
2009/04/23 13:32:55.8    -101   -363   -135    377    401 195.6 -19.7  34198  290.21 0854.46
2009/04/23 13:32:55.9     -72   -346   -118    354    373 191.8 -23.6  34198  290.21 0854.46
2009/04/23 13:32:56.0     109   -328    -70    346    353 161.5 -11.5  34196  290.18 0854.46
2009/04/23 13:32:56.1      34   -286    -96    289    304 173.1 -23.8  34198  290.22 0854.46
2009/04/23 13:32:56.2      12   -337   -102    338    354 177.9 -16.8  34202  290.28 0854.46
2009/04/23 13:32:56.3      16   -323    -25    324    326 177.1  -4.5  34200  290.24 0854.46
2009/04/23 13:32:56.4      90   -443     -7    453    454 168.4  -0.9  34200  290.24 0854.46
2009/04/23 13:32:56.5     217   -456     57    506    510 154.5   6.5  34198  290.20 0854.44
2009/04/23 13:32:56.6     394   -516     36    650    652 142.6   3.2  34192  290.13 0854.44
2009/04/23 13:32:56.7     217   -431     67    483    488 153.3   8.0  34196  290.18 0854.44
2009/04/23 13:32:56.8      68   -379    133    386    409 169.8  19.1  34198  290.23 0854.44
2009/04/23 13:32:56.9      61   -460     44    465    468 172.4   5.5  34198  290.20 0854.44
2009/04/23 13:32:57.0      56   -209    -56    217    225 164.9 -14.5  34198  290.21 0854.44
2009/04/23 13:32:57.1    -251   -257    -71    360    368 224.3 -11.2  34196  290.18 0854.44
2009/04/23 13:32:57.2    -262   -119   -203    288    352 245.6 -43.1  34198  290.23 0854.44
2009/04/23 13:32:57.3    -247    -71   -221    258    339 253.8 -49.4  34200  290.24 0854.44
2009/04/23 13:32:57.4    -288     22   -145    289    323 274.4 -33.0  34196  290.19 0854.44
2009/04/23 13:32:57.5    -241    -19     -9    242    243 265.4  -2.2  34204  290.31 0854.44
2009/04/23 13:32:57.6     -84    -70     34    110    116 230.4  17.4  34200  290.25 0854.44
2009/04/23 13:32:57.7     -15   -182    109    183    213 184.9  33.7  34202  290.28 0854.44
2009/04/23 13:32:57.8     121   -124     74    174    189 135.9  24.6  34198  290.23 0854.44
2009/04/23 13:32:57.9     142   -125    184    190    264 131.3  49.0  34192  290.10 0854.44
2009/04/23 13:32:58.0     258   -326    219    416    470 141.6  30.0  34194  290.14 0854.44
2009/04/23 13:32:58.1     225   -376    187    439    477 149.1  24.5  34190  290.08 0854.44
2009/04/23 13:32:58.2     183   -330    205    378    430 151.0  30.8  34200  290.26 0854.44
2009/04/23 13:32:58.3     148   -337    149    369    397 156.3  23.1  34198  290.20 0854.44
2009/04/23 13:32:58.4     170   -276    115    325    345 148.4  19.5  34198  290.20 0854.44
2009/04/23 13:32:58.5     112   -167    111    202    230 146.2  31.3  34200  290.25 0854.44
2009/04/23 13:32:58.6     209   -123    117    243    269 120.7  27.3  34204  290.31 0854.44
2009/04/23 13:32:58.7     249   -109    126    272    299 113.7  27.0  34202  290.29 0854.44
2009/04/23 13:32:58.8     194    -80     92    210    229 112.4  25.2  34204  290.31 0854.44
2009/04/23 13:32:58.9     194    -50     55    201    209 104.6  15.3  34202  290.30 0854.44
2009/04/23 13:32:59.0     110    -84     59    139    151 127.3  24.6  34200  290.26 0854.44
2009/04/23 13:32:59.1     -32    -96     69    102    123 198.3  37.4  34204  290.33 0854.44
2009/04/23 13:32:59.2     -89    -91     90    128    156 224.5  38.6  34202  290.30 0854.44
2009/04/23 13:32:59.3      14   -192    201    193    278 175.8  51.2  34202  290.29 0854.44
2009/04/23 13:32:59.4      54   -203    198    211    289 165.1  48.0  34204  290.32 0854.44
2009/04/23 13:32:59.5      94   -106    189    142    236 138.5  59.4  34204  290.33 0854.44
2009/04/23 13:32:59.6     -31    -35     58     47     74 221.4  56.4  34206  290.35 0854.44
2009/04/23 13:32:59.7      53   -112    120    125    173 154.6  49.2  34202  290.30 0854.44
2009/04/23 13:32:59.8      49   -178    117    185    218 164.4  35.5  34202  290.30 0854.44
2009/04/23 13:32:59.9      -5   -119     34    120    125 182.7  15.8  34198  290.23 0854.44
2009/04/23 13:33:00.0     -16    -86    110     88    140 190.7  56.9  34204  290.33 0854.44
2009/04/23 13:33:00.1      12     20     95     24     97  32.5  85.9  34208  290.38 0854.44
2009/04/23 13:33:00.2     106     45     56    116    128  66.9  27.3  34204  290.33 0854.44
2009/04/23 13:33:00.3      86     53    102    102    144  58.5  50.1  34202  290.30 0854.44
2009/04/23 13:33:00.4      66     54    143     86    166  50.5  66.2  34208  290.40 0854.44
2009/04/23 13:33:00.5       0    -16     96     17     97 182.7  90.0  34212  290.45 0854.44
2009/04/23 13:33:00.6      44     40    119     60    133  47.8  71.9  34206  290.35 0854.44
2009/04/23 13:33:00.7     133     59    123    146    190  66.0  44.1  34204  290.33 0854.44
2009/04/23 13:33:00.8     181     13    162    182    243  85.6  46.2  34202  290.28 0854.44
2009/04/23 13:33:00.9      15     40    116     43    123  20.9  79.2  34208  290.38 0854.44
2009/04/23 13:33:01.0      15    -58    116     61    131 164.9  70.8  34208  290.40 0854.44
2009/04/23 13:33:01.1     -61    -28    187     68    198 245.6  79.2  34202  290.30 0854.44
2009/04/23 13:33:01.2    -105   -241    274    264    380 203.6  51.1  34198  290.21 0854.44
2009/04/23 13:33:01.3     -58   -209    264    218    342 195.6  56.4  34202  290.27 0854.44
2009/04/23 13:33:01.4    -103   -157    194    189    270 213.4  50.7  34204  290.31 0854.44
2009/04/23 13:33:01.5    -207     59    142    216    258 285.9  36.5  34190  290.07 0854.44
2009/04/23 13:33:01.6      45    201    115    207    236  12.7  31.4  34200  290.25 0854.44
2009/04/23 13:33:01.7     -19      4    119     20    120 283.3  90.0  34210  290.43 0854.44
2009/04/23 13:33:01.8    -108     35    164    114    199 288.2  61.8  34204  290.31 0854.44
2009/04/23 13:33:01.9    -107    185    146    215    259 329.9  37.6  34206  290.36 0854.44
2009/04/23 13:33:02.0    -142   -151    211    208    296 223.4  50.2  34210  290.41 0854.44
2009/04/23 13:33:02.1     138     49    165    147    220  70.5  53.7  34212  290.47 0854.44
2009/04/23 13:33:02.2      69     63    180     94    203  47.3  70.4  34208  290.38 0854.44
2009/04/23 13:33:02.3      16   -120    230    122    260 172.0  69.8  34206  290.35 0854.44
2009/04/23 13:33:02.4      60   -296    180    302    351 168.5  33.6  34202  290.30 0854.44
2009/04/23 13:33:02.5     137   -255    280    290    403 151.7  49.0  34188  290.06 0854.41
2009/04/23 13:33:02.6     134    -97    199    166    259 125.9  56.3  34202  290.29 0854.41
2009/04/23 13:33:02.7      53   -223    140    230    269 166.6  34.4  34196  290.17 0854.41
2009/04/23 13:33:02.8    -141   -361    199    388    436 201.4  29.3  34202  290.28 0854.41
2009/04/23 13:33:02.9     -71   -510    191    516    550 188.0  21.3  34200  290.24 0854.41
2009/04/23 13:33:03.0      99   -397    112    410    426 165.9  15.3  34202  290.29 0854.41
2009/04/23 13:33:03.1     102   -317     42    334    337 162.1   7.2  34198  290.21 0854.41
2009/04/23 13:33:03.2      51   -415     23    419    420 172.9   3.2  34198  290.21 0854.41
2009/04/23 13:33:03.3      -2   -328    127    329    352 180.5  22.3  34198  290.23 0854.41
2009/04/23 13:33:03.4     202   -259    -38    329    332 142.0  -6.6  34196  290.18 0854.41
2009/04/23 13:33:03.5     272   -296     33    403    405 137.5   4.7  34198  290.21 0854.41
2009/04/23 13:33:03.6     209   -376    100    431    443 151.0  13.1  34196  290.19 0854.41
2009/04/23 13:33:03.7     129   -422     69    442    448 163.0   8.9  34198  290.21 0854.41
2009/04/23 13:33:03.8     103   -357    195    372    420 163.9  30.0  34196  290.17 0854.41
2009/04/23 13:33:03.9      11   -370     70    371    378 178.3  10.8  34196  290.18 0854.41
2009/04/23 13:33:04.0    -143   -289    125    323    346 206.3  22.4  34198  290.21 0854.41
2009/04/23 13:33:04.1    -102   -235     80    257    270 203.4  17.4  34198  290.22 0854.41
2009/04/23 13:33:04.2    -105   -289    -37    308    311 200.0  -6.9  34202  290.27 0854.41
2009/04/23 13:33:04.3      -2   -272    -48    273    278 180.5 -10.1  34200  290.24 0854.41
2009/04/23 13:33:04.4     -74   -336     18    345    346 192.5   3.0  34198  290.21 0854.39
2009/04/23 13:33:04.5     149   -328     65    361    367 155.6  10.2  34200  290.25 0854.39
2009/04/23 13:33:04.6     131   -367      1    390    391 160.3   0.2  34196  290.18 0854.39
2009/04/23 13:33:04.7      60   -296    187    303    356 168.4  34.6  34198  290.20 0854.39
2009/04/23 13:33:04.8      64   -283    271    291    397 167.1  47.9  34202  290.27 0854.39
2009/04/23 13:33:04.9     -18   -164    267    166    314 186.5  65.3  34200  290.26 0854.39
2009/04/23 13:33:05.0     -68   -152    236    167    289 204.1  61.5  34206  290.36 0854.39
2009/04/23 13:33:05.1    -189   -279    152    338    370 214.1  25.9  34208  290.37 0854.39
2009/04/23 13:33:05.2      51   -398    138    402    426 172.6  18.9  34202  290.29 0854.39
2009/04/23 13:33:05.4      -7   -371     -8    372    373 181.1  -1.3  34204  290.32 0854.39
2009/04/23 13:33:05.4     -27   -382    -53    383    387 184.1  -7.9  34200  290.25 0854.39
2009/04/23 13:33:05.5     155   -187    -48    244    249 140.4 -11.3  34202  290.27 0854.39
2009/04/23 13:33:05.7     204   -223    -21    303    304 137.5  -4.1  34200  290.26 0854.39
2009/04/23 13:33:05.8     207   -251    -87    326    338 140.5 -15.0  34206  290.35 0854.39
2009/04/23 13:33:05.9     178   -182    -51    255    261 135.7 -11.3  34202  290.27 0854.39
2009/04/23 13:33:06.0     137   -135     -4    193    194 134.4  -1.3  34202  290.30 0854.39
2009/04/23 13:33:06.1     171    -68    -50    185    192 111.7 -15.4  34204  290.31 0854.39
2009/04/23 13:33:06.2     173    -57   -123    183    220 108.4 -41.7  34202  290.28 0854.39
2009/04/23 13:33:06.3     189   -187   -145    267    303 134.7 -35.4  34206  290.34 0854.39
2009/04/23 13:33:06.4    -137   -426   -239    448    507 197.8 -34.9  34200  290.25 0854.39
2009/04/23 13:33:06.5     -32   -404   -122    406    423 184.6 -21.7  34206  290.34 0854.38
2009/04/23 13:33:06.6      -3   -378   -112    379    395 180.6 -21.4  34202  290.30 0854.38
2009/04/23 13:33:06.7      24   -407    -52    408    412 176.5  -7.3  34202  290.29 0854.38
2009/04/23 13:33:06.8      57   -357   -114    362    380 170.8 -17.5  34190  290.08 0854.38
2009/04/23 13:33:06.9    -135   -377   -160    401    431 199.7 -27.4  34198  290.22 0854.38
2009/04/23 13:33:07.0    -147   -373   -146    401    426 201.5 -25.2  34200  290.24 0854.38
2009/04/23 13:33:07.1    -120   -393   -121    412    429 197.0 -21.2  34198  290.21 0854.38
2009/04/23 13:33:07.2     -47   -378   -271    381    467 187.1 -43.4  34184  289.97 0854.38
2009/04/23 13:33:07.3    -218   -140   -154    260    302 237.4 -37.9  34198  290.22 0854.38
2009/04/23 13:33:07.4      -9   -284   -154    285    323 182.0 -35.0  34196  290.17 0854.38
2009/04/23 13:33:07.5     -12   -172    -61    173    184 184.2 -19.4  34194  290.16 0854.37
2009/04/23 13:33:07.6    -141    -46     30    149    153 251.8  11.6  34196  290.18 0854.37
2009/04/23 13:33:07.7    -197   -125     82    234    249 237.5  19.4  34202  290.29 0854.37
2009/04/23 13:33:07.8    -202   -175     -2    268    269 229.1  -0.5  34202  290.27 0854.37
2009/04/23 13:33:07.9    -160   -299     -2    340    341 208.1  -0.4  34194  290.16 0854.37
2009/04/23 13:33:08.0    -181   -140     94    229    247 232.3  23.6  34202  290.27 0854.37
2009/04/23 13:33:08.1     -68   -111    139    131    191 211.6  52.0  34202  290.28 0854.37
2009/04/23 13:33:08.2      40   -286    165    289    332 171.9  32.1  34202  290.27 0854.37
2009/04/23 13:33:08.3     207   -439    276    486    558 154.7  32.3  34196  290.19 0854.37
2009/04/23 13:33:08.4     331   -443    222    554    596 143.3  23.1  34198  290.20 0854.37
2009/04/23 13:33:08.5     318   -390    232    504    554 140.8  26.4  34192  290.11 0854.37
2009/04/23 13:33:08.6     266   -521    285    586    651 152.9  27.8  34192  290.11 0854.37
2009/04/23 13:33:08.7     391   -613    214    728    759 147.5  16.4  34198  290.23 0854.37
2009/04/23 13:33:08.8     303   -489    199    576    610 148.3  19.1  34194  290.14 0854.37
2009/04/23 13:33:08.9     242   -497    287    553    623 154.0  29.6  34192  290.12 0854.37
2009/04/23 13:33:09.0     165   -365    252    401    473 155.7  35.1  34192  290.12 0854.37
2009/04/23 13:33:09.1      96   -151     46    180    186 147.5  14.5  34194  290.16 0854.37
2009/04/23 13:33:09.2     125    -91    -32    155    159 126.0 -11.9  34196  290.18 0854.37
2009/04/23 13:33:09.3      68   -134   -105    151    183 152.9 -42.8  34196  290.19 0854.37
2009/04/23 13:33:09.4      12   -118   -197    119    230 173.8 -70.4  34196  290.18 0854.37
2009/04/23 13:33:09.5    -117    -17   -124    119    171 261.6 -55.6  34192  290.13 0854.37
2009/04/23 13:33:09.6    -103   -167   -173    197    262 211.6 -50.3  34198  290.22 0854.37
2009/04/23 13:33:09.7      26   -419   -145    420    444 176.4 -24.0  34186  290.02 0854.37
2009/04/23 13:33:09.8      68   -321   -169    329    369 168.0 -33.7  34202  290.30 0854.37
2009/04/23 13:33:09.9     197   -234     44    307    311 139.9   8.2  34190  290.07 0854.37
2009/04/23 13:33:10.0     242   -164     14    293    294 124.1   2.9  34198  290.22 0854.37
2009/04/23 13:33:10.1     198    -25    -68    200    211  97.2 -23.3  34200  290.26 0854.37
2009/04/23 13:33:10.2     162     56     57    172    182  70.7  18.4  34194  290.14 0854.37
2009/04/23 13:33:10.3     126    110    138    168    217  48.9  43.7  34200  290.25 0854.37
2009/04/23 13:33:10.4      -1     49     63     50     80 358.2  57.5  34200  290.26 0854.37
2009/04/23 13:33:10.5      56     22     -2     61     62  68.3  -2.2  34200  290.26 0854.37
2009/04/23 13:33:10.6     113      8     54    114    126  85.6  27.2  34202  290.30 0854.37
2009/04/23 13:33:10.7     182   -115    160    216    268 122.4  40.1  34200  290.24 0854.37
2009/04/23 13:33:10.8     154    -41    118    160    198 105.1  40.1  34202  290.28 0854.37
2009/04/23 13:33:10.9     154     98      8    183    184  57.6   2.8  34196  290.18 0854.37
2009/04/23 13:33:11.0      13    170    -31    171    174   4.4 -10.5  34196  290.18 0854.37
2009/04/23 13:33:11.1     154    278    -88    318    329  29.0 -20.3  34200  290.26 0854.37
2009/04/23 13:33:11.2      37    141   -108    146    181  15.1 -44.5  34204  290.33 0854.37
2009/04/23 13:33:11.3      16     87    -30     89     94  10.7 -18.7  34202  290.30 0854.37
2009/04/23 13:33:11.4     -64     17      3     67     68 285.1   2.9  34204  290.31 0854.37
2009/04/23 13:33:11.5    -158   -131     94    206    226 230.5  26.4  34200  290.25 0854.32
2009/04/23 13:33:11.6    -131   -154      9    203    204 220.3   2.8  34192  290.11 0854.32
2009/04/23 13:33:11.7    -219   -139   -123    260    287 237.6 -31.6  34196  290.19 0854.32
2009/04/23 13:33:11.8      -2   -530     84    531    538 180.3   9.0  34198  290.21 0854.32
2009/04/23 13:33:11.9    -310   -556   -184    637    663 209.1 -20.9  34200  290.25 0854.32
2009/04/23 13:33:12.0    -276   -507   -171    578    602 208.6 -21.4  34182  289.95 0854.32
2009/04/23 13:33:12.1       0   -555   -160    556    578 180.0 -20.8  34178  289.88 0854.32
2009/04/23 13:33:12.2     -71   -228   -123    239    268 197.4 -33.7  34194  290.14 0854.32
2009/04/23 13:33:12.3    -378   -421   -366    566    674 221.9 -40.3  34198  290.20 0854.32
2009/04/23 13:33:12.4    -250   -623   -238    672    712 201.9 -24.7  34198  290.22 0854.32
2009/04/23 13:33:12.5    -112   -567   -349    579    676 191.2 -38.2  34194  290.16 0854.32
2009/04/23 13:33:12.6    -108   -457   -259    470    536 193.4 -35.8  34194  290.15 0854.32
2009/04/23 13:33:12.7    -110   -520   -168    532    557 192.0 -22.8  34196  290.19 0854.32
2009/04/23 13:33:12.8    -156   -543   -183    565    593 196.0 -23.0  34196  290.19 0854.32
2009/04/23 13:33:12.9     -10   -598   -179    599    626 181.0 -16.7  34192  290.13 0854.32
2009/04/23 13:33:13.0      22   -507   -156    508    531 177.5 -22.1  34196  290.18 0854.32
2009/04/23 13:33:13.1     117   -429   -148    445    468 164.7 -23.6  34196  290.17 0854.32
2009/04/23 13:33:13.2      63   -374   -156    380    410 170.4 -28.0  34192  290.13 0854.32
2009/04/23 13:33:13.3      40   -428   -144    431    455 174.6 -18.6  34192  290.12 0854.32
2009/04/23 13:33:13.4      66   -546   -164    551    575 173.0 -16.6  34194  290.14 0854.32
2009/04/23 13:33:13.5     102   -406    -53    419    423 165.9  -7.3  34192  290.12 0854.28
2009/04/23 13:33:13.6     165   -496   -179    524    554 161.5 -18.9  34196  290.19 0854.28
2009/04/23 13:33:13.7     260   -494   -173    559    585 152.3 -22.2  34196  290.19 0854.28
2009/04/23 13:33:13.8      18   -239   -179    240    299 175.5 -44.8  34192  290.12 0854.28
2009/04/23 13:33:13.9      98   -207   -126    230    262 154.5 -35.7  34200  290.24 0854.28
2009/04/23 13:33:14.0     187   -368   -179    413    450 153.0 -29.5  34194  290.16 0854.28
2009/04/23 13:33:14.1      85   -307    -90    319    331 164.4 -20.3  34198  290.22 0854.28
2009/04/23 13:33:14.2      73   -325    -72    334    342 167.2 -12.3  34198  290.21 0854.28
2009/04/23 13:33:14.3     105   -440    -48    453    456 166.6  -6.1  34196  290.19 0854.28
2009/04/23 13:33:14.4     158   -482     43    508    510 161.8   4.9  34196  290.17 0854.28
2009/04/23 13:33:14.5     276   -591    209    653    686 155.0  17.8  34194  290.14 0854.28
2009/04/23 13:33:14.6     268   -474    222    545    588 150.5  23.4  34194  290.14 0854.28
2009/04/23 13:33:14.7     251   -541    251    597    647 155.1  24.2  34192  290.13 0854.28
2009/04/23 13:33:14.8     263   -634     82    687    692 157.4   6.9  34196  290.17 0854.28
2009/04/23 13:33:14.9     172   -596    113    621    632 163.9  10.4  34200  290.26 0854.28
2009/04/23 13:33:15.0     218   -680     46    715    717 162.2   3.7  34202  290.27 0854.28
2009/04/23 13:33:15.1     198   -706     37    734    735 164.3   2.9  34206  290.36 0854.28
2009/04/23 13:33:15.2     180   -562    197    591    624 162.2  18.5  34198  290.20 0854.28
2009/04/23 13:33:15.3     164   -538    225    563    606 163.0  23.0  34198  290.20 0854.28
2009/04/23 13:33:15.4     109   -541    313    552    634 168.5  32.1  34210  290.41 0854.28
2009/04/23 13:33:15.5     -23   -522    332    523    619 182.6  35.5  34188  290.05 0854.25
2009/04/23 13:33:15.6     -46   -689    230    691    729 183.9  18.4  34194  290.15 0854.25
2009/04/23 13:33:15.7    -134   -581    305    597    670 193.0  29.2  34192  290.11 0854.25
2009/04/23 13:33:15.8     -56   -669    295    672    733 184.8  25.2  34198  290.22 0854.25
2009/04/23 13:33:15.9     141   -345    278    373    465 157.7  40.4  34184  289.99 0854.25
2009/04/23 13:33:16.0      27   -273    279    275    391 174.2  50.6  34192  290.11 0854.25
2009/04/23 13:33:16.1     -47   -200    285    206    351 193.4  60.7  34200  290.26 0854.25
2009/04/23 13:33:16.2     104    -32    246    109    269 107.3  74.5  34198  290.23 0854.25
2009/04/23 13:33:16.3     148   -231    208    275    344 147.4  40.9  34200  290.24 0854.25
2009/04/23 13:33:16.4     106   -319    251    337    420 161.5  40.6  34198  290.23 0854.25
2009/04/23 13:33:16.5     -28   -305    213    307    373 185.3  38.3  34202  290.28 0854.25
2009/04/23 13:33:16.6      55   -125    239    137    275 156.3  67.7  34206  290.36 0854.25
2009/04/23 13:33:16.7     107    -33    187    113    218 107.3  66.2  34204  290.31 0854.25
2009/04/23 13:33:16.8     176   -185    165    256    304 136.3  35.6  34206  290.36 0854.25
2009/04/23 13:33:16.9     343   -303    301    459    548 131.5  36.5  34196  290.18 0854.25
2009/04/23 13:33:17.0     503   -342    290    609    674 124.3  27.3  34200  290.26 0854.25
2009/04/23 13:33:17.1     438   -180    335    474    580 112.4  38.6  34202  290.28 0854.25
2009/04/23 13:33:17.2     464   -109    431    477    642 103.3  46.9  34202  290.27 0854.25
2009/04/23 13:33:17.3     288     -1    307    289    421  90.4  52.1  34204  290.33 0854.25
2009/04/23 13:33:17.4     328   -260    215    419    470 128.4  29.3  34204  290.33 0854.25
2009/04/23 13:33:17.5     422    101    275    435    514  76.5  35.5  34202  290.30 0854.24
2009/04/23 13:33:17.6     363   -301    256    472    536 129.6  30.9  34206  290.34 0854.24
2009/04/23 13:33:17.7     174   -210    247    273    368 140.4  46.9  34202  290.30 0854.24
2009/04/23 13:33:17.8     175   -203    161    269    313 139.2  33.7  34212  290.44 0854.24
2009/04/23 13:33:17.9     198   -321    276    378    468 148.4  39.7  34200  290.26 0854.24
2009/04/23 13:33:18.0     216   -286    285    359    458 142.9  42.7  34204  290.33 0854.24
2009/04/23 13:33:18.1     161   -259    286    306    418 148.1  48.0  34198  290.20 0854.24
2009/04/23 13:33:18.2      56   -300    181    306    355 169.3  33.4  34208  290.38 0854.24
2009/04/23 13:33:18.3     227   -143    149    269    307 122.2  31.4  34206  290.34 0854.24
2009/04/23 13:33:18.4     275   -103    188    294    348 110.6  35.6  34208  290.38 0854.24
2009/04/23 13:33:18.5     316   -114    289    337    443 110.0  45.0  34204  290.31 0854.24
2009/04/23 13:33:18.6     253   -114    170    278    325 114.4  34.4  34208  290.37 0854.24
2009/04/23 13:33:18.7     277   -137    192    310    364 116.4  34.9  34208  290.38 0854.24
2009/04/23 13:33:18.8      94   -107    178    143    228 138.5  56.9  34206  290.36 0854.24
2009/04/23 13:33:18.9     215    -65    214    225    310 106.9  48.2  34210  290.41 0854.24
2009/04/23 13:33:19.0     265    -49    163    270    315 100.5  34.0  34208  290.37 0854.24
2009/04/23 13:33:19.1     163    -71    144    178    228 113.5  43.7  34210  290.41 0854.24
2009/04/23 13:33:19.2      49     20    141     54    150  67.4  78.2  34212  290.47 0854.24
2009/04/23 13:33:19.3     -38    -14    134     41    140 250.0  82.7  34216  290.53 0854.24
2009/04/23 13:33:19.4     -48     30    104     57    118 302.5  68.9  34214  290.48 0854.24
2009/04/23 13:33:19.5     -35     55     37     66     75 327.5  31.4  34214  290.50 0854.28
2009/04/23 13:33:19.6      -5     66      5     67     68 355.6   4.9  34208  290.40 0854.28
2009/04/23 13:33:19.7       7    202     -7    203    204   2.2  -2.2  34212  290.47 0854.28
2009/04/23 13:33:19.8     -77    169    -55    186    193 335.5 -21.5  34208  290.40 0854.28
2009/04/23 13:33:19.9     -91    144     15    171    172 327.5   5.2  34210  290.43 0854.28
2009/04/23 13:33:20.0     -48    131     77    140    159 339.9  31.0  34210  290.43 0854.28
2009/04/23 13:33:20.1     -80    140    107    162    194 330.1  36.0  34214  290.48 0854.28
2009/04/23 13:33:20.2     -80    110     83    137    160 323.9  34.2  34210  290.43 0854.28
2009/04/23 13:33:20.3      -2    141     49    142    151 359.1  19.2  34208  290.38 0854.28
2009/04/23 13:33:20.4      46    167     62    174    184  15.6  20.0  34226  290.69 0854.28
2009/04/23 13:33:20.5      97     97    116    138    180  45.0  44.3  34236  290.87 0854.28
2009/04/23 13:33:20.6     112     39    194    119    227  70.5  65.4  34260  291.26 0854.28
2009/04/23 13:33:20.7       7     36     37     37     52  11.6  50.1  34256  291.20 0854.28
2009/04/23 13:33:20.8     -29    110    160    114    196 344.8  60.8  34272  291.49 0854.28
2009/04/23 13:33:20.9      67     92    183    114    215  36.1  64.9  34284  291.67 0854.28
2009/04/23 13:33:21.0    -135   -274    133    306    333 206.3  25.0  34272  291.46 0854.28
2009/04/23 13:33:21.1    -312   -183    -14    362    363 239.6  -2.2  34270  291.44 0854.28
2009/04/23 13:33:21.2    -267   -192    -18    330    331 234.3  -3.1  34268  291.40 0854.28
2009/04/23 13:33:21.3    -250   -159    -27    297    299 237.6  -5.2  34258  291.24 0854.28
2009/04/23 13:33:21.4    -332    -48    -36    336    339 261.7  -6.3  34286  291.71 0854.28
2009/04/23 13:33:21.5    -518     17     55    519    522 271.9   6.1  34300  291.96 0854.31
2009/04/23 13:33:21.6    -454    -43     -8    457    458 264.6  -1.1  34268  291.41 0854.31
2009/04/23 13:33:21.7    -196     -9    -17    197    198 267.2  -5.2  34260  291.26 0854.31
2009/04/23 13:33:21.8      13    167    117    168    204   4.5  38.0  34268  291.42 0854.31
2009/04/23 13:33:21.9      70    295     25    304    306  13.4   4.9  34282  291.65 0854.31
2009/04/23 13:33:22.0     259    148     81    299    310  60.2  15.3  34270  291.44 0854.31
2009/04/23 13:33:22.1     387    104    163    401    432  74.9  23.4  34266  291.38 0854.31
2009/04/23 13:33:22.2     372     59    148    377    405  80.9  22.5  34278  291.59 0854.31
2009/04/23 13:33:22.3     241     -8    222    242    328  92.1  47.5  34268  291.41 0854.31
2009/04/23 13:33:22.4      74    -25    155     79    173 108.6  71.1  34276  291.55 0854.31
2009/04/23 13:33:22.5     312      0    223    313    384  89.9  39.1  34258  291.23 0854.31
2009/04/23 13:33:22.6     232     17    134    233    268  85.7  32.4  34246  291.02 0854.31
2009/04/23 13:33:22.7      48    -47    167     68    180 134.0  77.0  34260  291.28 0854.31
2009/04/23 13:33:22.8     -13      9    174     17    174 306.0  90.0  34256  291.20 0854.31
2009/04/23 13:33:22.9      -2      9    148     10    148 344.9  90.0  34256  291.21 0854.31
2009/04/23 13:33:23.0     160    -32    100    164    192 101.5  34.8  34252  291.15 0854.31
2009/04/23 13:33:23.1     250     -3     12    251    252  90.9   2.8  34254  291.17 0854.31
2009/04/23 13:33:23.2     310    -23    -17    311    312  94.3  -3.3  34246  291.02 0854.31
2009/04/23 13:33:23.3     244    -18    -51    245    251  94.3 -11.9  34244  291.00 0854.31
2009/04/23 13:33:23.4     161    -52    -30    170    173 107.9 -10.1  34240  290.94 0854.31
2009/04/23 13:33:23.5      72    -48    -63     87    107 123.7 -44.1  34244  290.99 0854.31
2009/04/23 13:33:23.6      33     11    -41     35     53  71.6 -58.7  34236  290.86 0854.31
2009/04/23 13:33:23.7      71     37     15     81     83  62.5  10.6  34238  290.89 0854.31
2009/04/23 13:33:23.8      69      0    114     70    133  90.0  64.7  34226  290.69 0854.31
2009/04/23 13:33:23.9     176     72    224    191    294  67.8  55.4  34222  290.61 0854.31
2009/04/23 13:33:24.0     122     24    193    125    229  78.5  64.6  34224  290.67 0854.31
2009/04/23 13:33:24.1     152    125    211    197    288  50.5  52.1  34220  290.59 0854.31
2009/04/23 13:33:24.2     192     25    221    194    294  82.5  54.3  34222  290.63 0854.31
2009/04/23 13:33:24.3     130     12    217    131    253  84.3  66.0  34220  290.58 0854.31
2009/04/23 13:33:24.4      70     33    187     78    202  64.6  76.3  34224  290.65 0854.31
2009/04/23 13:33:24.5      -5     42    153     43    158 352.0  84.1  34226  290.69 0854.31
2009/04/23 13:33:24.6      39    -89    141     98    171 156.4  62.1  34224  290.67 0854.31
2009/04/23 13:33:24.7      90      4    128     91    157  87.4  61.1  34218  290.57 0854.31
2009/04/23 13:33:24.8       0     52    124     53    134   0.9  75.5  34220  290.60 0854.31
2009/04/23 13:33:24.9      31      3     75     32     81  83.9  76.1  34220  290.60 0854.31
2009/04/23 13:33:25.0     144     37    136    149    201  75.4  47.5  34218  290.57 0854.31
2009/04/23 13:33:25.1      20    -67    125     71    143 163.1  67.7  34222  290.64 0854.31
2009/04/23 13:33:25.2       7    -99    129    100    163 175.5  58.5  34222  290.62 0854.31
2009/04/23 13:33:25.3      -2      5     75      6     75 334.6  90.0  34228  290.74 0854.31
2009/04/23 13:33:25.4      67     47    143     82    164  54.9  67.5  34228  290.74 0854.31
2009/04/23 13:33:25.5      93      2    121     94    153  88.7  58.5  34232  290.79 0854.25
2009/04/23 13:33:25.6      39    -22    111     45    119 119.8  77.0  34236  290.86 0854.25
2009/04/23 13:33:25.7      59     22    112     64    128  69.2  67.7  34230  290.77 0854.25
2009/04/23 13:33:25.8      28     26     83     39     91  46.9  73.1  34232  290.79 0854.25
2009/04/23 13:33:25.9      39      0     80     40     89  90.0  71.9  34226  290.70 0854.25
2009/04/23 13:33:26.0     102    -34    112    108    155 108.6  50.7  34228  290.72 0854.25
2009/04/23 13:33:26.1     144     -2    100    145    176  90.8  38.0  34226  290.70 0854.25
2009/04/23 13:33:26.2      -5    -13     44     15     46 201.8  81.0  34222  290.64 0854.25
2009/04/23 13:33:26.3    -110    -44    -19    119    121 247.8  -9.3  34220  290.60 0854.25
2009/04/23 13:33:26.4     -63     25     13     68     70 291.8  11.1  34230  290.77 0854.25
2009/04/23 13:33:26.5     121     74     97    142    171  58.5  37.6  34234  290.84 0854.25
2009/04/23 13:33:26.6     108     69    116    129    173  57.5  46.9  34234  290.82 0854.25
2009/04/23 13:33:26.7     107    -68     84    127    152 122.4  36.0  34238  290.89 0854.25
2009/04/23 13:33:26.8     129     31     94    133    162  76.3  38.6  34250  291.11 0854.25
2009/04/23 13:33:26.9      32     86     71     92    116  20.5  41.7  34246  291.04 0854.25
2009/04/23 13:33:27.0    -121    204    124    238    268 329.3  29.8  34274  291.50 0854.25
2009/04/23 13:33:27.1      31    115    132    120    178  15.1  52.7  34282  291.64 0854.25
2009/04/23 13:33:27.2     226     86    248    243    347  69.1  50.7  34282  291.63 0854.25
2009/04/23 13:33:27.3     206    141    178    250    306  55.6  39.1  34304  292.01 0854.25
2009/04/23 13:33:27.4     143     87    181    168    246  58.7  52.2  34312  292.17 0854.25
2009/04/23 13:33:27.5      97     30    174    102    201  72.3  66.8  34312  292.15 0854.27
2009/04/23 13:33:27.6     158     83    216    179    280  62.2  56.3  34310  292.11 0854.27
2009/04/23 13:33:27.7     248    117    176    275    326  64.8  35.6  34310  292.11 0854.27
2009/04/23 13:33:27.8     268     60    154    275    315  77.4  31.7  34284  291.68 0854.27
2009/04/23 13:33:27.9     109      3    194    110    223  88.3  68.1  34276  291.55 0854.27
2009/04/23 13:33:28.0     310    -32    161    312    351  95.9  29.4  34248  291.05 0854.27
2009/04/23 13:33:28.1     277    -11    170    278    325  92.4  34.4  34264  291.33 0854.27
2009/04/23 13:33:28.2     266     64    152    274    313  76.3  31.5  34290  291.78 0854.27
2009/04/23 13:33:28.3     339    126    157    362    394  69.5  25.0  34322  292.32 0854.27
2009/04/23 13:33:28.4     369    203     77    422    429  61.1  10.4  34332  292.49 0854.27
2009/04/23 13:33:28.5     297    207    101    363    377  55.1  15.6  34300  291.95 0854.29
2009/04/23 13:33:28.6     232    286     32    369    371  39.0   5.1  34290  291.78 0854.29
2009/04/23 13:33:28.7     283    247    152    376    405  48.9  23.2  34266  291.37 0854.29
2009/04/23 13:33:28.8     276    273    112    389    405  45.3  16.1  34260  291.27 0854.29
2009/04/23 13:33:28.9     355    251    144    435    459  54.7  18.4  34284  291.67 0854.29
2009/04/23 13:33:29.0     306    188      5    360    361  58.5   0.8  34276  291.54 0854.29
2009/04/23 13:33:29.1     382    165     89    417    427  66.6  12.1  34274  291.50 0854.29
2009/04/23 13:33:29.2     449     67     59    455    459  81.4   7.4  34300  291.96 0854.29
2009/04/23 13:33:29.3     374    206    102    427    440  61.1  13.5  34242  290.97 0854.29
2009/04/23 13:33:29.4     157    312    -39    350    353  26.8  -6.5  34278  291.56 0854.29
2009/04/23 13:33:29.5     -20    329      6    330    331 356.4   1.1  34270  291.44 0854.29
2009/04/23 13:33:29.6      81    314   -110    325    344  14.5 -18.8  34284  291.68 0854.29
2009/04/23 13:33:29.7     369     89    114    380    397  76.3  16.8  34270  291.44 0854.29
2009/04/23 13:33:29.8     160    170    -21    234    235  43.3  -5.2  34272  291.48 0854.29
2009/04/23 13:33:29.9     124    171     85    212    228  36.1  23.0  34262  291.32 0854.29
2009/04/23 13:33:30.0     281     55     51    287    292  78.8  10.1  34252  291.12 0854.29
2009/04/23 13:33:30.1     340    -26    -26    341    343  94.4  -4.5  34232  290.79 0854.29
2009/04/23 13:33:30.2      46     51    -56     69     88  42.3 -48.1  34242  290.96 0854.29
2009/04/23 13:33:30.3     153    -23     -7    155    156  98.8  -2.6  34248  291.06 0854.29
2009/04/23 13:33:30.4     130   -269   -151    299    334 154.1 -33.1  34242  290.97 0854.29
2009/04/23 13:33:30.5     186   -236   -140    301    331 141.7 -31.0  34236  290.87 0854.29
2009/04/23 13:33:30.6     220   -132   -111    257    279 121.1 -29.5  34226  290.68 0854.29
2009/04/23 13:33:30.7     239   -185   -186    303    355 127.7 -38.8  34230  290.77 0854.29
2009/04/23 13:33:30.8      61    -84   -114    105    154 143.9 -56.6  34236  290.86 0854.29
2009/04/23 13:33:30.9     147    -28    -28    150    153 101.0 -10.9  34236  290.86 0854.29
2009/04/23 13:33:31.0     150     11     69    151    166  85.7  26.4  34232  290.79 0854.29
2009/04/23 13:33:31.1      29     77     35     83     90  20.5  24.6  34224  290.67 0854.29
2009/04/23 13:33:31.2     -73      0     -1     74     75 270.0  -1.2  34226  290.70 0854.29
2009/04/23 13:33:31.3     -80    -42     24     91     95 242.5  14.7  34228  290.74 0854.29
2009/04/23 13:33:31.4      95   -166     98    192    215 150.1  29.2  34224  290.65 0854.29
2009/04/23 13:33:31.5      66   -167    146    180    231 158.2  43.7  34232  290.79 0854.29
2009/04/23 13:33:31.6      53    -55    143     77    162 135.9  69.3  34226  290.70 0854.29
2009/04/23 13:33:31.7      12    122    162    123    203   5.8  59.2  34230  290.77 0854.29
2009/04/23 13:33:31.8     -20    -45    121     50    130 204.5  76.6  34236  290.86 0854.29
2009/04/23 13:33:31.9     -75   -167    113    184    215 204.1  34.4  34236  290.87 0854.29
2009/04/23 13:33:32.0     -87   -162    149    184    236 208.3  43.3  34232  290.81 0854.29
2009/04/23 13:33:32.1     -70   -247    273    257    374 196.0  52.1  34238  290.88 0854.29
2009/04/23 13:33:32.2     -49   -276    244    281    372 190.2  45.6  34236  290.86 0854.29
2009/04/23 13:33:32.3     -70   -251    182    261    318 195.6  38.4  34230  290.76 0854.29
2009/04/23 13:33:32.4     169    -82     99    189    213 116.0  29.8  34236  290.86 0854.30
2009/04/23 13:33:32.6     140    -42    170    147    224 106.8  54.8  34232  290.81 0854.30
2009/04/23 13:33:32.7     111    -44    157    120    197 111.8  58.7  34236  290.86 0854.30
2009/04/23 13:33:32.8       0    129    123    130    178   0.0  48.2  34230  290.77 0854.30
2009/04/23 13:33:32.9       1    162    163    163    230   0.5  50.1  34238  290.91 0854.30
2009/04/23 13:33:33.0       2    -25    134     26    136 173.8  89.1  34236  290.86 0854.30
2009/04/23 13:33:33.1     -53    -33    164     63    175 237.5  78.2  34238  290.91 0854.30
2009/04/23 13:33:33.2    -159    -94    133    185    227 239.3  39.5  34238  290.91 0854.30
2009/04/23 13:33:33.3    -149    -85     38    172    177 240.2  12.6  34236  290.86 0854.30
2009/04/23 13:33:33.4     -65   -197     44    208    213 198.3  12.2  34232  290.79 0854.30
2009/04/23 13:33:33.5      93    -93     72    132    150 135.0  31.3  34230  290.75 0854.30
2009/04/23 13:33:33.6      76   -116     49    139    148 146.6  19.4  34222  290.64 0854.30
2009/04/23 13:33:33.7      73   -142     20    160    162 152.8   7.2  34226  290.69 0854.30
2009/04/23 13:33:33.8     129    -76     87    151    174 120.6  32.9  34228  290.74 0854.30
2009/04/23 13:33:33.9     152    -20    118    154    194  97.5  41.4  34228  290.74 0854.30
2009/04/23 13:33:34.0     111      0     93    112    145  90.0  43.8  34230  290.75 0854.30
2009/04/23 13:33:34.1      16    -30     58     35     67 151.0  65.7  34230  290.75 0854.30
2009/04/23 13:33:34.2     -48    -48    103     68    123 225.0  64.1  34228  290.74 0854.30
2009/04/23 13:33:34.3    -137     -4     72    138    155 268.3  29.8  34230  290.77 0854.30
2009/04/23 13:33:34.4    -155     21     48    157    165 278.0  17.1  34230  290.75 0854.30
2009/04/23 13:33:34.5    -150     42      1    156    157 285.9   0.5  34232  290.79 0854.31
2009/04/23 13:33:34.6    -131    -72     29    150    153 241.1  11.0  34238  290.89 0854.31
2009/04/23 13:33:34.7     -92    -47     32    104    109 242.9  17.3  34236  290.86 0854.31
2009/04/23 13:33:34.8     -93   -128     57    159    168 216.1  20.4  34232  290.79 0854.31
2009/04/23 13:33:34.9    -166    -79     94    185    207 244.5  29.1  34228  290.74 0854.31
2009/04/23 13:33:35.0    -223    -36     79    226    239 260.8  20.0  34236  290.87 0854.31
2009/04/23 13:33:35.1    -231   -113    139    258    293 243.8  30.8  34228  290.73 0854.31
2009/04/23 13:33:35.2    -218     16    149    219    264 274.4  37.6  34228  290.73 0854.31
2009/04/23 13:33:35.3    -156    138    146    209    254 311.6  38.6  34232  290.78 0854.31
2009/04/23 13:33:35.4     -70    118    103    138    172 329.3  40.7  34228  290.74 0854.31
2009/04/23 13:33:35.5     -51    179    148    187    238 344.0  42.4  34228  290.72 0854.31
2009/04/23 13:33:35.6     -16    176    144    177    228 354.7  43.7  34228  290.74 0854.31
2009/04/23 13:33:35.7     -30    135    127    139    188 347.5  47.5  34234  290.82 0854.31
2009/04/23 13:33:35.8    -132    141     71    194    206 316.8  21.0  34246  291.04 0854.31
2009/04/23 13:33:35.9    -109    116     90    160    183 316.7  31.9  34238  290.89 0854.31
2009/04/23 13:33:36.0     -63    165    150    177    232 339.1  44.3  34230  290.77 0854.31
2009/04/23 13:33:36.1     -55    140    161    151    220 338.6  52.1  34234  290.84 0854.31
2009/04/23 13:33:36.2     -50    138    113    148    186 339.9  41.4  34246  291.04 0854.31
2009/04/23 13:33:36.3     -36    133     74    138    156 344.9  30.3  34272  291.49 0854.31
2009/04/23 13:33:36.4       0    107     70    108    128   0.5  35.6  34254  291.16 0854.31
2009/04/23 13:33:36.5     -14     99    101    101    142 352.0  50.1  34244  290.99 0854.30
2009/04/23 13:33:36.6     -85     65    107    108    152 307.3  50.0  34242  290.96 0854.30
2009/04/23 13:33:36.7     -86    104    116    136    178 320.4  44.8  34246  291.03 0854.30
2009/04/23 13:33:36.8     -58     11     86     60    104 281.4  61.5  34254  291.16 0854.30
2009/04/23 13:33:36.9     -36     55     65     67     93 326.6  50.0  34262  291.30 0854.30
2009/04/23 13:33:37.0     -58    105     79    121    144 331.0  35.6  34258  291.25 0854.30
2009/04/23 13:33:37.1     -69    108     93    129    159 327.4  39.3  34270  291.45 0854.30
2009/04/23 13:33:37.2     -67     71    100     98    140 316.8  50.1  34278  291.57 0854.30
2009/04/23 13:33:37.3      30     50     66     59     88  31.6  53.3  34264  291.35 0854.30
2009/04/23 13:33:37.4      50     91     51    105    116  29.0  27.3  34264  291.35 0854.30
2009/04/23 13:33:37.5      62     88     46    108    117  35.2  24.1  34260  291.28 0854.30
2009/04/23 13:33:37.6      44     79     69     91    114  29.4  41.2  34278  291.57 0854.30
2009/04/23 13:33:37.7      -3     53     81     54     97 356.4  64.1  34304  292.01 0854.30
2009/04/23 13:33:37.8      17     22     45     29     53  37.8  64.6  34332  292.49 0854.30
2009/04/23 13:33:37.9      99     53     22    113    116  61.6  11.1  34302  291.98 0854.30
2009/04/23 13:33:38.0      43    -45     48     63     79 136.8  41.2  34298  291.93 0854.30
2009/04/23 13:33:38.1     110    -33     93    115    147 106.8  43.7  34290  291.79 0854.30
2009/04/23 13:33:38.2     101    -36     76    108    132 109.5  38.6  34284  291.69 0854.30
2009/04/23 13:33:38.3     122    -26     65    125    140 102.4  29.3  34294  291.86 0854.30
2009/04/23 13:33:38.4      71      5    103     72    125  85.6  62.1  34304  292.01 0854.30
2009/04/23 13:33:38.5      39     18    106     44    114  64.7  76.6  34328  292.42 0854.28
2009/04/23 13:33:38.6      33     50     96     61    113  33.4  64.7  34342  292.68 0854.28
2009/04/23 13:33:38.7      82     59    138    102    171  54.1  59.8  34336  292.58 0854.28
2009/04/23 13:33:38.8      67     60    143     91    169  48.2  64.7  34340  292.64 0854.28
2009/04/23 13:33:38.9      88    -17    130     90    158 101.5  62.1  34334  292.52 0854.28
2009/04/23 13:33:39.0      63     -9     75     64     98  98.8  55.4  34328  292.44 0854.28
2009/04/23 13:33:39.1     110     -2    113    111    158  91.3  50.4  34330  292.47 0854.28
2009/04/23 13:33:39.2       0    -25    122     26    124 180.9  88.5  34328  292.42 0854.28
2009/04/23 13:33:39.3      49     46     70     68     97  46.9  49.7  34318  292.27 0854.28
2009/04/23 13:33:39.4      39    173     99    178    203  12.7  31.4  34326  292.39 0854.28
2009/04/23 13:33:39.5     -59    157     80    168    186 339.3  27.2  34328  292.44 0854.28
2009/04/23 13:33:39.6      58    156     97    167    193  20.5  33.1  34332  292.49 0854.28
2009/04/23 13:33:39.7     161    125    139    205    247  52.2  37.4  34324  292.35 0854.28
2009/04/23 13:33:39.8     146    115    118    186    220  51.8  35.5  34320  292.29 0854.28
2009/04/23 13:33:39.9     105    109     81    152    172  44.1  30.1  34312  292.15 0854.28
2009/04/23 13:33:40.0     101    132    106    167    197  37.2  35.5  34310  292.12 0854.28
2009/04/23 13:33:40.1     117     86     77    146    165  53.6  30.1  34298  291.91 0854.28
2009/04/23 13:33:40.2     113     99    102    151    182  48.7  37.0  34314  292.20 0854.28
2009/04/23 13:33:40.3      72     72     89    102    135  45.0  45.8  34314  292.18 0854.28
2009/04/23 13:33:40.4      32     60     65     69     94  28.1  49.0  34310  292.12 0854.28
2009/04/23 13:33:40.5     -16    102    114    104    154 350.7  52.2  34312  292.15 0854.27
2009/04/23 13:33:40.6     -30    148     63    151    163 348.5  23.8  34304  292.01 0854.27
2009/04/23 13:33:40.7       9    175     84    176    195   3.1  27.3  34304  292.03 0854.27
2009/04/23 13:33:40.8      43    128     81    136    158  18.7  33.5  34304  292.03 0854.27
2009/04/23 13:33:40.9      10    225     31    226    229   2.7   8.0  34296  291.88 0854.27
2009/04/23 13:33:41.0      67    177     -1    190    191  20.9  -0.5  34296  291.88 0854.27
2009/04/23 13:33:41.1      73    169    -55    185    194  23.4 -16.6  34288  291.74 0854.27
2009/04/23 13:33:41.2      51    172    -55    180    189  16.7 -17.0  34276  291.54 0854.27
2009/04/23 13:33:41.3     149     76    -65    168    180  62.9 -26.4  34286  291.72 0854.27
2009/04/23 13:33:41.4     116     39    -42    123    129  71.4 -23.3  34288  291.76 0854.27
2009/04/23 13:33:41.5     164     40     14    169    170  76.1   4.9  34308  292.08 0854.27
2009/04/23 13:33:41.6     194     68     -9    206    207  70.7  -2.6  34298  291.91 0854.27
2009/04/23 13:33:41.7     196     80     25    212    214  67.6   6.9  34300  291.95 0854.27
2009/04/23 13:33:41.8     140     47     61    148    160  71.4  23.6  34300  291.95 0854.27
2009/04/23 13:33:41.9     111     22     59    114    128  78.6  29.2  34302  292.00 0854.27
2009/04/23 13:33:42.0     127     28     72    131    149  77.2  31.3  34298  291.93 0854.27
2009/04/23 13:33:42.1     151     80    128    172    214  62.0  40.1  34300  291.95 0854.27
2009/04/23 13:33:42.2     134     41     62    141    154  72.7  25.1  34298  291.93 0854.27
2009/04/23 13:33:42.3     128     31     80    132    154  76.3  35.0  34296  291.88 0854.27
2009/04/23 13:33:42.4     112     26     53    116    127  76.7  26.2  34296  291.88 0854.27
2009/04/23 13:33:42.5      99     12     48    100    110  83.0  27.3  34308  292.08 0854.26
2009/04/23 13:33:42.6      -8     -8     65     12     66 226.9  90.0  34304  292.01 0854.26
2009/04/23 13:33:42.7      -2    -26     72     27     76 184.4  80.2  34304  292.01 0854.26
2009/04/23 13:33:42.8     -21     13     87     25     90 302.4  83.9  34304  292.03 0854.26
2009/04/23 13:33:42.9      34      0     57     35     66  90.0  64.7  34312  292.17 0854.26
2009/04/23 13:33:43.0     124     54     54    136    146  66.4  23.0  34308  292.08 0854.26
2009/04/23 13:33:43.1      46     36    115     59    129  52.2  70.8  34312  292.15 0854.26
2009/04/23 13:33:43.2     103     43    149    112    186  66.9  59.2  34320  292.29 0854.26
2009/04/23 13:33:43.3      45     54    135     71    152  39.7  70.4  34324  292.35 0854.26
2009/04/23 13:33:43.4      50     23    106     56    119  65.6  69.8  34324  292.37 0854.26
2009/04/23 13:33:43.5      85     13    112     86    141  81.2  58.5  34316  292.23 0854.26
2009/04/23 13:33:43.6      28    -18     82     34     88 122.4  76.6  34316  292.23 0854.26
2009/04/23 13:33:43.7      -8    -43     92     44    101 190.7  72.9  34310  292.13 0854.26
2009/04/23 13:33:43.8     -26   -127    101    130    164 191.6  41.7  34304  292.01 0854.26
2009/04/23 13:33:43.9     137    -61     88    151    174 114.0  33.1  34300  291.96 0854.26
2009/04/23 13:33:44.0     111     -3    161    112    196  91.7  62.1  34286  291.71 0854.26
2009/04/23 13:33:44.1     130     -3    123    131    179  91.7  48.2  34284  291.67 0854.26
2009/04/23 13:33:44.2      68     -5    110     69    129  94.4  64.7  34278  291.59 0854.26
2009/04/23 13:33:44.3      21    -13     89     26     92 122.4  83.3  34276  291.54 0854.26
2009/04/23 13:33:44.4      16    -10     64     19     66 122.4  82.8  34272  291.49 0854.26
2009/04/23 13:33:44.5     -12    -25     72     28     77 205.4  78.2  34266  291.38 0854.25
2009/04/23 13:33:44.6      -1     40     59     41     71 357.4  61.5  34282  291.64 0854.25
2009/04/23 13:33:44.7      -6     83     31     84     89 355.5  20.4  34282  291.66 0854.25
2009/04/23 13:33:44.8     -13     58    -12     60     62 346.6 -11.5  34284  291.67 0854.25
2009/04/23 13:33:44.9     -12     38    -13     41     43 341.5 -23.8  34282  291.66 0854.25
2009/04/23 13:33:45.0      29     -9      0     31     32 108.2  -1.3  34278  291.59 0854.25
2009/04/23 13:33:45.1       4    -86     45     87     97 177.3  29.3  34280  291.62 0854.25
2009/04/23 13:33:45.2     -60   -127     17    141    143 205.5   6.9  34286  291.72 0854.25
2009/04/23 13:33:45.3     -69   -106     -4    127    128 213.0  -2.2  34288  291.76 0854.25
2009/04/23 13:33:45.4     -22   -111     14    114    115 191.5   7.5  34282  291.66 0854.25
2009/04/23 13:33:45.5     -49   -123     21    133    135 201.8   9.0  34284  291.67 0854.25
2009/04/23 13:33:45.6     -34   -176     54    180    189 190.9  16.8  34288  291.76 0854.25
2009/04/23 13:33:45.7     -65   -198    115    209    238 198.3  31.4  34288  291.76 0854.25
2009/04/23 13:33:45.8     -93   -187    112    209    237 206.5  30.3  34280  291.60 0854.25
2009/04/23 13:33:45.9     -82   -187     74    205    217 203.8  20.7  34280  291.62 0854.25
2009/04/23 13:33:46.0      40   -240     38    244    248 170.4   8.9  34256  291.19 0854.25
2009/04/23 13:33:46.1       2   -186    136    187    231 179.1  39.7  34242  290.96 0854.25
2009/04/23 13:33:46.2     -28   -179     31    182    185 188.9   9.9  34242  290.98 0854.25
2009/04/23 13:33:46.3     -18   -235     10    236    237 184.4   2.5  34240  290.93 0854.25
2009/04/23 13:33:46.4     -17   -225    -20    226    227 184.4  -5.1  34238  290.89 0854.25
2009/04/23 13:33:46.5       1   -302     15    303    304 179.8   2.9  34244  291.00 0854.24
2009/04/23 13:33:46.6     -41   -295     27    298    300 188.0   5.2  34250  291.09 0854.24
2009/04/23 13:33:46.7       0   -289     51    290    295 180.0  10.1  34244  291.00 0854.24
2009/04/23 13:33:46.8      90   -248    140    265    299 160.0  30.2  34232  290.80 0854.24
2009/04/23 13:33:46.9      95   -244    102    263    282 158.6  22.1  34234  290.82 0854.24
2009/04/23 13:33:47.0      28   -298     97    300    316 174.6  17.9  34236  290.87 0854.24
2009/04/23 13:33:47.1     -40   -247     49    251    256 189.3  11.1  34238  290.90 0854.24
2009/04/23 13:33:47.2     -20   -282    109    283    303 184.2  22.3  34246  291.04 0854.24
2009/04/23 13:33:47.3     -87   -286    127    300    325 197.0  24.3  34228  290.71 0854.24
2009/04/23 13:33:47.4       0   -255    105    256    276 180.2  23.4  34228  290.73 0854.24
2009/04/23 13:33:47.5       4   -284     97    285    302 179.1  18.9  34254  291.17 0854.24
2009/04/23 13:33:47.6     -25   -275     75    277    288 185.4  15.2  34246  291.04 0854.24
2009/04/23 13:33:47.7       9   -278    123    279    304 178.0  25.2  34250  291.10 0854.24
2009/04/23 13:33:47.8      16   -316    151    317    351 177.1  27.3  34238  290.91 0854.24
2009/04/23 13:33:47.9      19   -307    217    308    376 176.4  38.7  34228  290.72 0854.24
2009/04/23 13:33:48.0      25   -281    219    283    357 174.9  41.7  34230  290.76 0854.24
2009/04/23 13:33:48.1       3   -340    229    341    410 179.4  37.2  34228  290.74 0854.24
2009/04/23 13:33:48.2    -128   -334    225    358    422 201.0  35.3  34220  290.58 0854.24
2009/04/23 13:33:48.3    -282   -358    119    456    472 218.2  14.6  34218  290.54 0854.24
2009/04/23 13:33:48.4    -224   -310    135    383    407 215.9  19.5  34222  290.64 0854.24
2009/04/23 13:33:48.5    -174   -365    229    405    465 205.5  32.0  34210  290.43 0854.24
2009/04/23 13:33:48.6    -148   -270    247    308    394 208.7  42.8  34230  290.77 0854.24
2009/04/23 13:33:48.7    -323   -211    113    387    404 236.8  16.3  34228  290.74 0854.24
2009/04/23 13:33:48.8    -404    -63    127    410    430 261.1  17.2  34222  290.61 0854.24
2009/04/23 13:33:48.9    -400   -252      1    473    474 237.8   0.2  34226  290.68 0854.24
2009/04/23 13:33:49.0    -424   -224    -67    480    485 242.1  -8.0  34220  290.59 0854.24
2009/04/23 13:33:49.1    -521   -173     21    550    551 251.6   2.2  34226  290.69 0854.24
2009/04/23 13:33:49.2    -521   -176     30    551    552 251.3   3.1  34224  290.65 0854.24
2009/04/23 13:33:49.3    -549   -320    136    636    651 239.8  12.1  34222  290.62 0854.24
2009/04/23 13:33:49.4    -303   -313    227    436    491 224.1  29.8  34216  290.51 0854.24
2009/04/23 13:33:49.5    -118   -284     99    308    324 202.7  17.8  34212  290.46 0854.27
2009/04/23 13:33:49.6    -322   -299    162    440    468 227.1  21.1  34226  290.68 0854.27
2009/04/23 13:33:49.7    -223   -243    206    330    389 222.5  35.3  34232  290.79 0854.27
2009/04/23 13:33:49.8    -162   -195    231    254    343 219.7  47.0  34226  290.70 0854.27
2009/04/23 13:33:49.9    -141   -180    181    229    291 218.1  42.4  34220  290.59 0854.27
2009/04/23 13:33:50.0    -188   -295    161    351    386 212.5  26.5  34220  290.60 0854.27
2009/04/23 13:33:50.1    -295   -196    124    355    377 236.4  19.3  34220  290.60 0854.27
2009/04/23 13:33:50.2    -235   -268    179    357    399 221.3  28.6  34218  290.57 0854.27
2009/04/23 13:33:50.3    -443   -244     66    506    511 241.1   7.4  34220  290.59 0854.27
2009/04/23 13:33:50.4    -234   -217    110    320    339 227.2  19.1  34218  290.54 0854.27
2009/04/23 13:33:50.5     -63   -195    276    206    344 198.0  59.7  34220  290.58 0854.27
2009/04/23 13:33:50.6     -32    -59    180     68    192 209.0  78.6  34216  290.53 0854.27
2009/04/23 13:33:50.7     -86    108    140    139    197 321.3  50.1  34218  290.55 0854.27
2009/04/23 13:33:50.8    -110    154    147    190    240 324.4  41.7  34214  290.50 0854.27
2009/04/23 13:33:50.9    -143    147     78    206    220 315.9  21.5  34214  290.48 0854.27
2009/04/23 13:33:51.0    -195    224    122    298    322 319.0  23.5  34218  290.54 0854.27
2009/04/23 13:33:51.1    -220    164     42    275    279 306.6   8.8  34226  290.70 0854.27
2009/04/23 13:33:51.2     -60    153      9    165    166 338.4   3.3  34214  290.50 0854.27
2009/04/23 13:33:51.3     -13    250     90    251    266 356.9  20.2  34216  290.53 0854.27
2009/04/23 13:33:51.4      61    270    133    277    307  12.9  27.3  34210  290.42 0854.27
2009/04/23 13:33:51.5    -127    219    292    254    387 329.9  54.6  34218  290.54 0854.29
2009/04/23 13:33:51.6     -41     40    245     58    251 314.9  86.9  34220  290.58 0854.29
2009/04/23 13:33:51.7     126     16    237    128    269  82.5  69.3  34224  290.65 0854.29
2009/04/23 13:33:51.8      36     18    153     41    158  62.9  84.9  34216  290.53 0854.29
2009/04/23 13:33:51.9     172    109    246    204    319  57.6  56.1  34226  290.70 0854.29
2009/04/23 13:33:52.0     120    151    148    193    243  38.5  41.4  34228  290.74 0854.29
2009/04/23 13:33:52.1      45     48    118     67    135  43.2  67.7  34226  290.69 0854.29
2009/04/23 13:33:52.2      92    -31    122     98    156 108.6  57.1  34222  290.62 0854.29
2009/04/23 13:33:52.3     206     82    207    222    303  68.3  47.9  34220  290.59 0854.29
2009/04/23 13:33:52.4     281    -12     40    282    285  92.5   8.2  34216  290.51 0854.29
2009/04/23 13:33:52.5     288      8      1    289    290  88.3   0.2  34216  290.51 0854.29
2009/04/23 13:33:52.6     151   -175     27    232    234 139.2   6.9  34222  290.61 0854.29
2009/04/23 13:33:52.7      35   -230     93    233    250 171.3  23.0  34220  290.58 0854.29
2009/04/23 13:33:52.8      -5   -189     73    190    203 181.8  21.7  34222  290.62 0854.29
2009/04/23 13:33:52.9      25   -319     33    321    323 175.5   6.0  34212  290.46 0854.29
2009/04/23 13:33:53.0      64   -224    -51    234    240 164.0 -12.4  34212  290.44 0854.29
2009/04/23 13:33:53.1     144   -202    -69    249    259 144.4 -15.5  34212  290.44 0854.29
2009/04/23 13:33:53.2     162   -222    -88    275    288 143.9 -22.9  34212  290.46 0854.29
2009/04/23 13:33:53.3     157   -243   -128    290    316 147.0 -29.7  34204  290.32 0854.29
2009/04/23 13:33:53.4     349   -323    -86    476    484 132.8 -10.3  34200  290.25 0854.29
2009/04/23 13:33:53.5     251   -322     -1    409    410 142.1  -0.3  34196  290.19 0854.29
2009/04/23 13:33:53.6     278   -296    -51    407    411 136.8  -7.2  34194  290.16 0854.29
2009/04/23 13:33:53.7     178   -219   -150    283    320 140.8 -34.6  34212  290.44 0854.29
2009/04/23 13:33:53.8     220   -233   -137    321    349 136.6 -29.0  34208  290.40 0854.29
2009/04/23 13:33:53.9     388   -264   -105    470    482 124.2 -12.6  34198  290.22 0854.29
2009/04/23 13:33:54.0     391   -284   -172    484    514 126.0 -19.6  34198  290.20 0854.29
2009/04/23 13:33:54.1     459   -217   -121    508    523 115.3 -13.4  34200  290.25 0854.29
2009/04/23 13:33:54.2     480   -181    -33    514    516 110.7  -3.7  34200  290.25 0854.29
2009/04/23 13:33:54.3     482   -174    -36    513    515 109.9  -4.1  34198  290.20 0854.29
2009/04/23 13:33:54.4     566    -91    -22    574    575  99.2  -2.2  34196  290.19 0854.29
2009/04/23 13:33:54.5     587    -21     93    588    596  92.1   9.0  34198  290.22 0854.29
2009/04/23 13:33:54.6     628    -16     95    629    637  91.5   8.6  34208  290.37 0854.29
2009/04/23 13:33:54.7     651    -22    264    652    703  92.0  23.4  34190  290.09 0854.29
2009/04/23 13:33:54.8     875     22     91    876    881  88.5   6.0  34192  290.13 0854.29
2009/04/23 13:33:54.9     647    -57     48    650    652  95.1   4.2  34200  290.26 0854.29
2009/04/23 13:33:55.0     661    143     70    677    681  77.7   5.9  34196  290.19 0854.29
2009/04/23 13:33:55.1     685     65     20    689    690  84.5   1.7  34200  290.26 0854.29
2009/04/23 13:33:55.2     750    152     77    766    771  78.5   5.8  34204  290.31 0854.29
2009/04/23 13:33:55.3     621    175    -23    646    647  74.2  -2.1  34194  290.15 0854.29
2009/04/23 13:33:55.4     773    215    185    803    825  74.4  13.0  34202  290.30 0854.29
2009/04/23 13:33:55.5     794     60     40    797    799  85.7   2.9  34212  290.44 0854.28
2009/04/23 13:33:55.6     524    -55    -10    528    529  96.1  -1.2  34206  290.36 0854.28
2009/04/23 13:33:55.7     552   -183     72    582    587 108.4   7.1  34202  290.29 0854.28
2009/04/23 13:33:55.8     373   -161     64    407    413 113.4   9.0  34206  290.36 0854.28
2009/04/23 13:33:55.9     241   -116    -86    268    281 115.8 -23.0  34206  290.36 0854.28
2009/04/23 13:33:56.0     168    -17    -77    169    185  96.1 -30.8  34208  290.40 0854.28
2009/04/23 13:33:56.1     193   -182     13    266    267 133.3   2.9  34204  290.32 0854.28
2009/04/23 13:33:56.2     164   -225    102    279    297 143.9  21.0  34204  290.31 0854.28
2009/04/23 13:33:56.3     168   -267     35    316    319 147.7   6.5  34204  290.31 0854.28
2009/04/23 13:33:56.4     212   -348    -15    408    409 148.6  -2.2  34206  290.34 0854.28
2009/04/23 13:33:56.5     178   -258    110    314    333 145.3  19.4  34206  290.34 0854.28
2009/04/23 13:33:56.7      99   -336    121    351    372 163.6  19.1  34200  290.25 0854.28
2009/04/23 13:33:56.7     115   -570    279    582    645 168.5  27.4  34206  290.35 0854.28
2009/04/23 13:33:56.8      61   -582    136    586    602 173.9  13.1  34202  290.27 0854.28
2009/04/23 13:33:56.9     106   -562    168    573    598 169.3  16.4  34190  290.07 0854.28
2009/04/23 13:33:57.0      63   -595    205    599    634 173.9  18.9  34202  290.30 0854.28
2009/04/23 13:33:57.1    -105   -647    371    656    753 189.2  32.0  34206  290.34 0854.28
2009/04/23 13:33:57.2     155   -575    401    596    718 164.9  37.2  34196  290.17 0854.28
2009/04/23 13:33:57.3     203   -461    371    504    625 156.2  40.0  34206  290.36 0854.28
2009/04/23 13:33:57.4     201   -479    318    520    609 157.2  34.4  34198  290.22 0854.28
2009/04/23 13:33:57.5     113   -441    316    456    554 165.6  38.1  34208  290.38 0854.26
2009/04/23 13:33:57.6     -59   -517    303    521    602 186.6  32.9  34202  290.27 0854.26
2009/04/23 13:33:57.7     -16   -520    275    521    589 181.8  30.2  34206  290.36 0854.26
2009/04/23 13:33:57.9     157   -654    208    673    705 166.5  17.2  34200  290.26 0854.26
2009/04/23 13:33:57.9     136   -650    178    665    689 168.1  15.0  34204  290.33 0854.26
2009/04/23 13:33:58.0      73   -579    222    584    624 172.8  21.8  34208  290.37 0854.26
2009/04/23 13:33:58.1     108   -551    218    562    602 168.9  22.3  34206  290.36 0854.26
2009/04/23 13:33:58.2      95   -527    130    536    552 169.8  13.7  34200  290.26 0854.26
2009/04/23 13:33:58.3     248   -541      7    596    597 155.4   0.7  34200  290.24 0854.26
2009/04/23 13:33:58.4     641   -251   -152    689    706 111.4 -12.5  34190  290.08 0854.26
2009/04/23 13:33:58.5     603     26    -27    604    605  87.5  -2.6  34208  290.37 0854.26
2009/04/23 13:33:58.6     377   -300      7    482    483 128.5   0.9  34206  290.34 0854.26
2009/04/23 13:33:58.7     201   -460    201    503    541 156.4  23.0  34204  290.31 0854.26
2009/04/23 13:33:58.8       8   -472    168    473    501 179.0  20.3  34192  290.13 0854.26
2009/04/23 13:33:58.9     234   -409    107    472    485 150.3  12.8  34202  290.30 0854.26
2009/04/23 13:33:59.1     371   -370     52    525    528 134.9   5.7  34198  290.23 0854.26
2009/04/23 13:33:59.1     184   -351    -79    397    405 152.4 -11.3  34202  290.29 0854.26
2009/04/23 13:33:59.2     116   -348     -7    368    369 161.5  -1.1  34204  290.32 0854.26
2009/04/23 13:33:59.3     103   -236     31    258    260 156.4   6.9  34210  290.41 0854.26
2009/04/23 13:33:59.4     237   -404    266    469    539 149.6  32.0  34192  290.13 0854.27
2009/04/23 13:33:59.5     -36   -472    210    474    518 184.4  25.6  34202  290.29 0854.27
2009/04/23 13:33:59.6     -57   -490    249    494    553 186.7  28.8  34206  290.35 0854.27
2009/04/23 13:33:59.7     118   -529    325    543    632 167.4  33.7  34202  290.29 0854.27
2009/04/23 13:33:59.8     119   -616    237    628    671 169.0  21.6  34210  290.41 0854.27
2009/04/23 13:33:59.9     164   -496    338    523    622 161.7  35.7  34204  290.31 0854.27
2009/04/23 13:34:00.0     265   -422    279    499    571 147.9  31.6  34206  290.36 0854.27
2009/04/23 13:34:00.1     265   -556    311    616    690 154.5  28.9  34204  290.33 0854.27
2009/04/23 13:34:00.3     234   -501    264    554    613 155.0  27.3  34208  290.37 0854.27
2009/04/23 13:34:00.4     201   -512    300    551    627 158.6  30.9  34202  290.29 0854.27
2009/04/23 13:34:00.5     153   -382    262    412    488 158.1  35.5  34198  290.23 0854.27
2009/04/23 13:34:00.6      -7   -419    406    420    584 181.0  49.0  34210  290.43 0854.27
2009/04/23 13:34:00.7     110   -483    413    496    645 167.1  44.0  34212  290.44 0854.27
2009/04/23 13:34:00.8     176   -548    329    576    663 162.2  32.3  34210  290.43 0854.27
2009/04/23 13:34:00.9      63   -269    270    277    386 166.7  49.3  34210  290.42 0854.27
2009/04/23 13:34:01.0     -17   -262    201    263    331 183.8  41.3  34212  290.44 0854.27
2009/04/23 13:34:01.1       0    -99    292    100    308 180.0  81.0  34212  290.44 0854.27
2009/04/23 13:34:01.2      13   -312    449    313    547 177.5  61.8  34214  290.49 0854.27
2009/04/23 13:34:01.3     -23   -312    374    313    487 184.4  56.0  34216  290.53 0854.27
2009/04/23 13:34:01.4    -279   -507    165    579    603 208.9  15.9  34208  290.37 0854.27
2009/04/23 13:34:01.5    -254   -555    276    611    670 204.6  25.9  34210  290.43 0854.29
2009/04/23 13:34:01.6    -217   -502    248    548    601 203.4  26.2  34212  290.46 0854.29
2009/04/23 13:34:01.7    -266   -311    171    410    444 220.5  24.1  34212  290.44 0854.29
2009/04/23 13:34:01.8    -192   -312    129    367    389 211.6  20.1  34212  290.47 0854.29
2009/04/23 13:34:01.9    -197   -218    126    295    320 222.1  24.5  34206  290.36 0854.29
2009/04/23 13:34:02.0    -225   -257    130    342    365 221.2  21.8  34206  290.35 0854.29
2009/04/23 13:34:02.1    -371   -358      7    516    517 226.0   0.8  34212  290.47 0854.29
2009/04/23 13:34:02.2    -281   -368    -81    464    472 217.4  -9.9  34216  290.51 0854.29
2009/04/23 13:34:02.3    -182   -339    -63    385    391 208.3  -9.3  34210  290.43 0854.29
2009/04/23 13:34:02.4    -370   -412   -177    555    583 221.9 -17.7  34210  290.41 0854.29
2009/04/23 13:34:02.5     -73   -227    -25    239    241 197.8  -6.0  34208  290.39 0854.29
2009/04/23 13:34:02.6    -115   -191    -80    224    239 211.0 -19.7  34210  290.41 0854.29
2009/04/23 13:34:02.7     -42   -205    102    210    233 191.6  27.4  34208  290.38 0854.29
2009/04/23 13:34:02.8    -185   -350    -15    396    397 207.9  -2.2  34214  290.50 0854.29
2009/04/23 13:34:02.9      52   -221     98    228    248 166.7  24.9  34218  290.54 0854.29
2009/04/23 13:34:03.0     112   -246     47    271    276 155.5  10.0  34214  290.49 0854.29
2009/04/23 13:34:03.1      39   -159     79    164    182 166.0  27.3  34212  290.47 0854.29
2009/04/23 13:34:03.2     -65   -197     42    208    213 198.5  11.4  34214  290.50 0854.29
2009/04/23 13:34:03.3    -130   -180     11    223    224 216.0   2.9  34214  290.50 0854.29
2009/04/23 13:34:03.4     -72   -139     54    157    167 207.6  19.2  34214  290.48 0854.29
2009/04/23 13:34:03.5    -103   -244    101    265    283 202.9  21.7  34212  290.44 0854.30
2009/04/23 13:34:03.6    -113   -204    124    234    264 209.0  30.2  34216  290.51 0854.30
2009/04/23 13:34:03.7     -54   -124    145    136    198 203.6  52.1  34216  290.53 0854.30
2009/04/23 13:34:03.8     -25   -187    145    189    238 187.8  41.4  34218  290.57 0854.30
2009/04/23 13:34:03.9      44   -286    131    290    318 171.1  25.9  34210  290.42 0854.30
2009/04/23 13:34:04.0    -144   -317     97    349    363 204.5  15.6  34210  290.42 0854.30
2009/04/23 13:34:04.1    -163   -292    116    335    355 209.1  19.2  34212  290.45 0854.30
2009/04/23 13:34:04.2    -181   -427    163    464    492 203.0  19.4  34214  290.49 0854.30
2009/04/23 13:34:04.3    -178   -453     -5    487    488 201.5  -0.6  34212  290.45 0854.30
2009/04/23 13:34:04.4    -233   -531    -12    581    582 203.7  -1.3  34212  290.47 0854.30
2009/04/23 13:34:04.5    -336   -501    179    604    631 213.9  16.5  34212  290.47 0854.30
2009/04/23 13:34:04.6    -278   -347    167    445    475 218.7  21.5  34218  290.54 0854.30
2009/04/23 13:34:04.7    -415   -143     80    440    448 251.0  10.4  34204  290.33 0854.30
2009/04/23 13:34:04.8    -420   -315    190    526    559 233.1  20.8  34210  290.43 0854.30
2009/04/23 13:34:04.9    -327   -256    155    416    443 231.9  21.3  34216  290.51 0854.30
2009/04/23 13:34:05.0    -431   -159     47    460    463 249.7   5.9  34218  290.55 0854.30
2009/04/23 13:34:05.1    -545   -149   -129    566    581 254.7 -12.9  34216  290.53 0854.30
2009/04/23 13:34:05.2    -408   -236     52    472    475 240.0   6.4  34224  290.66 0854.30
2009/04/23 13:34:05.3    -472   -296    -64    558    562 237.9  -6.6  34216  290.53 0854.30
2009/04/23 13:34:05.4    -505   -293   -207    584    620 239.9 -19.5  34218  290.56 0854.30
2009/04/23 13:34:05.5    -538   -241   -123    590    603 245.8 -11.8  34222  290.63 0854.30
2009/04/23 13:34:05.6    -512   -184   -142    545    564 250.2 -14.6  34220  290.58 0854.30
2009/04/23 13:34:05.7    -483   -250   -156    545    568 242.6 -16.0  34220  290.60 0854.30
2009/04/23 13:34:05.8    -378   -224   -244    440    503 239.4 -35.8  34218  290.54 0854.30
2009/04/23 13:34:05.9    -377   -126   -115    398    414 251.4 -20.8  34204  290.33 0854.30
2009/04/23 13:34:06.0    -209    -25   -163    211    266 263.0 -46.1  34232  290.78 0854.30
2009/04/23 13:34:06.1     -40    -37   -164     55    172 226.9 -85.4  34230  290.75 0854.30
2009/04/23 13:34:06.2     -18    -99    -51    101    113 190.7 -32.6  34224  290.67 0854.30
2009/04/23 13:34:06.3     103    -72    -42    126    134 125.1 -18.7  34220  290.58 0854.30
2009/04/23 13:34:06.4     310    -75    -86    319    331 103.7 -15.2  34220  290.58 0854.30
2009/04/23 13:34:06.5     270     -8   -104    271    290  91.7 -26.4  34220  290.59 0854.30
2009/04/23 13:34:06.6     366   -110    -49    383    387 106.8  -7.3  34218  290.54 0854.30
2009/04/23 13:34:06.7     224    -69     63    235    244 107.3  15.0  34216  290.51 0854.30
2009/04/23 13:34:06.8     170    -91     83    194    211 118.2  24.6  34220  290.60 0854.30
2009/04/23 13:34:06.9     111   -158    117    194    226 144.8  34.0  34222  290.64 0854.30
2009/04/23 13:34:07.0      49   -185     77    192    206 165.1  23.0  34218  290.55 0854.30
2009/04/23 13:34:07.1      36   -213     20    217    219 170.2   5.4  34218  290.55 0854.30
2009/04/23 13:34:07.2     -41   -205     72    210    223 191.3  18.9  34216  290.52 0854.30
2009/04/23 13:34:07.3      65   -269    101    277    294 166.4  21.0  34214  290.49 0854.30
2009/04/23 13:34:07.4     -13   -248     86    249    264 183.1  19.2  34212  290.46 0854.30
2009/04/23 13:34:07.5    -154   -163     27    225    227 223.2   6.9  34214  290.50 0854.32
2009/04/23 13:34:07.6    -133    -95    -48    164    170 234.5 -21.2  34212  290.45 0854.32
2009/04/23 13:34:07.7     -52    -59    -78     80    111 221.4 -54.4  34216  290.52 0854.32
2009/04/23 13:34:07.8     -24    -47   -133     53    143 207.2 -81.5  34216  290.52 0854.32
2009/04/23 13:34:07.9      32      6     18     33     37  78.6  31.4  34212  290.47 0854.32
2009/04/23 13:34:08.0      -6     25    109     26    112 346.6  86.9  34216  290.53 0854.32
2009/04/23 13:34:08.1    -134     75    115    154    192 299.3  40.4  34220  290.58 0854.32
2009/04/23 13:34:08.2    -121   -189    235    225    325 212.6  51.4  34210  290.41 0854.32
2009/04/23 13:34:08.3     -52   -123    202    134    242 203.2  63.6  34214  290.48 0854.32
2009/04/23 13:34:08.4      58    -57    125     82    149 134.4  64.6  34212  290.45 0854.32
2009/04/23 13:34:08.5     -61   -184     54    195    203 198.5  15.6  34206  290.35 0854.32
2009/04/23 13:34:08.6    -109   -272    126    294    319 201.8  24.6  34214  290.48 0854.32
2009/04/23 13:34:08.7     -96   -209     32    231    234 204.7   8.0  34206  290.36 0854.32
2009/04/23 13:34:08.8      54   -186    -55    194    202 163.7 -16.0  34202  290.30 0854.32
2009/04/23 13:34:08.9     111   -310      0    330    331 160.2   0.1  34198  290.23 0854.32
2009/04/23 13:34:09.0     -90   -434    -43    444    447 191.8  -5.6  34208  290.38 0854.32
2009/04/23 13:34:09.1     -24   -509    -31    510    511 182.8  -3.5  34202  290.27 0854.32
2009/04/23 13:34:09.2     -60   -383     40    388    391 189.0   6.0  34194  290.16 0854.32
2009/04/23 13:34:09.3    -192   -305     44    361    364 212.2   7.1  34202  290.28 0854.32
2009/04/23 13:34:09.4     -52   -269    149    275    312 191.1  30.8  34192  290.12 0854.32
2009/04/23 13:34:09.5      -2   -145   -168    146    222 181.0 -58.7  34202  290.28 0854.37
2009/04/23 13:34:09.6      12    -73   -146     75    164 170.2 -75.2  34206  290.35 0854.37
2009/04/23 13:34:09.7    -177    -39   -265    182    321 257.4 -66.9  34188  290.03 0854.37
2009/04/23 13:34:09.8    -279   -326   -210    430    478 220.6 -32.3  34190  290.09 0854.37
2009/04/23 13:34:09.9    -538   -193   -166    572    596 250.2 -16.2  34190  290.07 0854.37
2009/04/23 13:34:10.0    -418   -160     91    448    458 249.0  11.5  34192  290.12 0854.37
2009/04/23 13:34:10.1    -553   -120   -246    567    618 257.7 -29.5  34194  290.15 0854.37
2009/04/23 13:34:10.2    -584    -53   -263    587    643 264.8 -30.2  34188  290.06 0854.37
2009/04/23 13:34:10.3    -506    -82   -153    513    536 260.8 -16.6  34194  290.14 0854.37
2009/04/23 13:34:10.4    -306   -288     29    421    423 226.8   4.0  34190  290.09 0854.37
2009/04/23 13:34:10.5    -207   -303     67    368    375 214.4  10.3  34188  290.04 0854.45
2009/04/23 13:34:10.6    -210   -356      0    414    415 210.5   0.1  34190  290.07 0854.45
2009/04/23 13:34:10.7    -178   -466     38    500    502 201.0   4.4  34182  289.95 0854.45
2009/04/23 13:34:10.8    -263   -275     10    381    382 223.8   1.6  34188  290.03 0854.45
2009/04/23 13:34:10.9    -345   -113    212    364    421 251.8  32.8  34188  290.05 0854.45
2009/04/23 13:34:11.0    -541     10    105    542    553 271.2  11.0  34214  290.50 0854.45
2009/04/23 13:34:11.1    -534     75    -89    540    548 278.0  -9.4  34212  290.46 0854.45
2009/04/23 13:34:11.2    -595    -87   -222    602    641 261.7 -25.5  34196  290.18 0854.45
2009/04/23 13:34:11.3    -582    -26   -215    583    621 267.4 -25.4  34192  290.10 0854.45
2009/04/23 13:34:11.4    -750      0   -206    751    778 270.0 -20.0  34196  290.18 0854.45
2009/04/23 13:34:11.5    -572   -415   -183    707    731 234.0 -14.5  34192  290.13 0854.45
2009/04/23 13:34:11.6    -631   -171   -349    654    741 254.8 -34.7  34198  290.20 0854.45
2009/04/23 13:34:11.7    -626   -137   -289    641    703 257.6 -30.3  34204  290.33 0854.45
2009/04/23 13:34:11.8    -710   -183   -337    734    807 255.5 -30.8  34196  290.17 0854.45
2009/04/23 13:34:11.9    -719   -445   -254    846    883 238.2 -21.7  34194  290.16 0854.45
2009/04/23 13:34:12.0    -845   -223    -62    874    877 255.2  -4.1  34178  289.88 0854.45
2009/04/23 13:34:12.1    -845   -234   -112    877    885 254.5  -7.3  34188  290.05 0854.45
2009/04/23 13:34:12.2    -812   -130   -149    823    837 260.9 -10.3  34190  290.09 0854.45
2009/04/23 13:34:12.3    -613   -221    -31    652    653 250.1  -2.8  34198  290.21 0854.45
2009/04/23 13:34:12.4    -414   -363    -51    551    554 228.7  -5.4  34196  290.18 0854.45
2009/04/23 13:34:12.5    -480      0   -216    481    527 270.0 -30.2  34198  290.23 0854.47
2009/04/23 13:34:12.6    -466    -64   -161    471    497 262.1 -23.9  34206  290.35 0854.47
2009/04/23 13:34:12.7    -283    -74   -254    293    387 255.2 -49.8  34214  290.49 0854.47
2009/04/23 13:34:12.8     -83   -432    -68    440    446 190.9  -8.8  34206  290.34 0854.47
2009/04/23 13:34:12.9      12   -220   -144    221    263 176.9 -40.4  34210  290.42 0854.47
2009/04/23 13:34:13.0      56     63     -3     85     86  41.9  -2.2  34216  290.52 0854.47
2009/04/23 13:34:13.1      51     -2     91     52    104  92.6  67.7  34208  290.40 0854.47
2009/04/23 13:34:13.2    -171   -216     59    276    283 218.3  12.2  34204  290.32 0854.47
2009/04/23 13:34:13.3    -149   -372     30    401    403 201.8   4.3  34194  290.16 0854.47
2009/04/23 13:34:13.4    -131   -407     80    428    436 197.9  10.6  34200  290.26 0854.47
2009/04/23 13:34:13.5    -160   -286     31    329    331 209.3   5.4  34202  290.28 0854.47
2009/04/23 13:34:13.6    -151   -285     76    323    332 208.0  13.3  34200  290.25 0854.47
2009/04/23 13:34:13.7    -189   -369     27    415    416 207.1   3.7  34198  290.21 0854.47
2009/04/23 13:34:13.8    -197   -400     11    447    448 206.3   1.5  34188  290.05 0854.47
2009/04/23 13:34:13.9    -200   -416    -25    462    463 205.7  -3.1  34200  290.24 0854.47
2009/04/23 13:34:14.0      52   -379    149    383    410 172.1  22.5  34204  290.32 0854.47
2009/04/23 13:34:14.1      36   -331    200    334    389 173.7  33.8  34206  290.35 0854.47
2009/04/23 13:34:14.2     -66   -352    228    359    425 190.7  35.5  34210  290.43 0854.47
2009/04/23 13:34:14.3      39   -249    104    253    273 171.1  23.4  34208  290.39 0854.47
2009/04/23 13:34:14.4     169   -220    209    278    347 142.4  40.7  34208  290.39 0854.47
2009/04/23 13:34:14.5     -58   -333    226    339    407 189.9  36.7  34202  290.30 0854.48
2009/04/23 13:34:14.6    -123   -259     55    287    293 205.5  11.0  34206  290.36 0854.48
2009/04/23 13:34:14.7    -129   -216     22    252    254 210.8   5.2  34206  290.34 0854.48
2009/04/23 13:34:14.8     -83   -192     48    210    216 203.4  12.9  34202  290.30 0854.48
2009/04/23 13:34:14.9     -47   -198    -21    204    206 193.4  -6.0  34202  290.28 0854.48
2009/04/23 13:34:15.0      61   -195     79    205    219 162.4  22.3  34204  290.33 0854.48
2009/04/23 13:34:15.1      17   -202    117    203    234 174.9  32.7  34204  290.31 0854.48
2009/04/23 13:34:15.2      -4   -270    123    271    297 181.0  26.2  34202  290.29 0854.48
2009/04/23 13:34:15.3     189   -296    296    352    459 147.5  44.2  34208  290.38 0854.48
2009/04/23 13:34:15.4      74   -440    121    447    464 170.4  15.2  34208  290.39 0854.48
2009/04/23 13:34:15.5     221   -306    -16    378    379 144.2  -2.5  34202  290.28 0854.48
2009/04/23 13:34:15.6     178   -403     21    441    442 156.2   2.8  34202  290.29 0854.48
2009/04/23 13:34:15.7     200   -491    151    531    553 157.8  15.9  34202  290.28 0854.48
2009/04/23 13:34:15.8     289   -345     81    451    459 140.0  10.2  34198  290.22 0854.48
2009/04/23 13:34:15.9     269   -122    220    296    368 114.4  40.4  34208  290.40 0854.48
2009/04/23 13:34:16.0     293    -96    185    309    360 108.2  33.7  34204  290.33 0854.48
2009/04/23 13:34:16.1     339   -157    171    374    411 114.8  26.2  34204  290.32 0854.48
2009/04/23 13:34:16.2     263   -109    215    285    357 112.6  40.9  34208  290.40 0854.48
2009/04/23 13:34:16.3     214   -117    306    245    391 118.8  57.5  34216  290.52 0854.48
2009/04/23 13:34:16.4      63     17    226     66    235  74.9  83.3  34216  290.52 0854.48
2009/04/23 13:34:16.5     244    -49    255    249    356 101.5  50.7  34214  290.48 0854.45
2009/04/23 13:34:16.6     202    -28    205    205    289  98.1  50.1  34210  290.42 0854.45
2009/04/23 13:34:16.7      75     74    234    106    256  45.6  74.0  34210  290.41 0854.45
2009/04/23 13:34:16.8     -40     17    128     44    135 293.5  81.2  34216  290.53 0854.45
2009/04/23 13:34:16.9     -17    -17    156     25    157 225.0  90.0  34220  290.60 0854.45
2009/04/23 13:34:17.0      10   -132    265    133    296 175.5  71.4  34222  290.61 0854.45
2009/04/23 13:34:17.1      92      0    189     93    210  89.6  72.1  34224  290.65 0854.45
2009/04/23 13:34:17.2      57   -152    306    163    346 159.5  69.8  34218  290.56 0854.45
2009/04/23 13:34:17.3    -385   -327    202    506    544 229.6  23.0  34236  290.86 0854.45
2009/04/23 13:34:17.4    -389   -164    175    423    457 247.2  23.7  34228  290.73 0854.45
2009/04/23 13:34:17.5    -218   -102    199    241    312 244.8  43.7  34226  290.68 0854.45
2009/04/23 13:34:17.6     -97   -218     60    239    247 204.1  14.3  34220  290.58 0854.45
2009/04/23 13:34:17.7    -110   -166     35    200    204 213.4   9.9  34218  290.55 0854.45
2009/04/23 13:34:17.8      58    -79     85     99    130 143.9  45.4  34220  290.58 0854.45
2009/04/23 13:34:17.9     -85   -134    167    159    230 212.5  51.6  34214  290.50 0854.45
2009/04/23 13:34:18.0     -83   -113    235    141    274 216.1  66.4  34222  290.63 0854.45
2009/04/23 13:34:18.1    -104    -91    328    139    356 228.7  75.9  34218  290.56 0854.45
2009/04/23 13:34:18.2    -130   -214    275    251    372 211.2  52.9  34220  290.59 0854.45
2009/04/23 13:34:18.3    -285   -135    156    316    352 244.6  28.2  34214  290.49 0854.45
2009/04/23 13:34:18.4    -124    -54    148    136    200 246.5  52.5  34228  290.72 0854.45
2009/04/23 13:34:18.5    -126    110    178    168    244 311.3  51.6  34228  290.72 0854.45
2009/04/23 13:34:18.6      17    -52    146     55    156 161.7  79.1  34228  290.74 0854.45
2009/04/23 13:34:18.7    -345    -72    209    353    410 258.2  33.5  34224  290.66 0854.45
2009/04/23 13:34:18.8    -444    161    -26    473    474 289.9  -3.2  34242  290.95 0854.45
2009/04/23 13:34:18.9    -391    156    -62    422    427 291.8  -8.4  34230  290.77 0854.45
2009/04/23 13:34:19.0    -429    206    205    476    518 295.7  24.9  34218  290.57 0854.45
2009/04/23 13:34:19.1    -372    137     58    397    402 290.2   8.3  34218  290.55 0854.45
2009/04/23 13:34:19.2    -391    -19     37    392    394 267.2   5.5  34210  290.42 0854.45
2009/04/23 13:34:19.3    -753     56     23    755    756 274.3   1.8  34240  290.92 0854.45
2009/04/23 13:34:19.4    -834    232   -182    866    886 285.6 -11.9  34232  290.78 0854.45
2009/04/23 13:34:19.5    -802     78    -31    806    807 275.6  -2.2  34226  290.70 0854.45
2009/04/23 13:34:19.6    -683     52     52    685    687 274.4   4.4  34216  290.51 0854.45
2009/04/23 13:34:19.7    -632    102    -81    641    647 279.2  -7.2  34228  290.72 0854.45
2009/04/23 13:34:19.8    -530    179   -124    560    574 288.7 -12.5  34232  290.80 0854.45
2009/04/23 13:34:19.9    -503    -60    112    507    520 263.2  12.5  34236  290.85 0854.45
2009/04/23 13:34:20.0    -483    -92    207    492    533 259.2  24.2  34244  291.01 0854.45
2009/04/23 13:34:20.1    -620    262     -2    674    675 292.9  -0.2  34222  290.63 0854.45
2009/04/23 13:34:20.2    -335   -122    266    357    445 249.9  40.4  34228  290.72 0854.45
2009/04/23 13:34:20.3    -282     -6    209    283    351 268.7  40.1  34224  290.66 0854.45
2009/04/23 13:34:20.4    -360    154    -41    392    395 293.2  -6.1  34234  290.84 0854.45
2009/04/23 13:34:20.5    -321    360    158    483    509 318.2  18.1  34228  290.71 0854.45
2009/04/23 13:34:20.6    -330    272    168    428    459 309.5  22.8  34232  290.78 0854.45
2009/04/23 13:34:20.7    -378    318    139    495    515 310.1  15.7  34238  290.91 0854.45
2009/04/23 13:34:20.8    -534      0    -62    535    539 270.0  -6.7  34226  290.70 0854.45
2009/04/23 13:34:20.9    -679    112   -172    689    711 279.4 -14.1  34222  290.62 0854.45
2009/04/23 13:34:21.0    -615    148   -215    633    669 283.6 -18.8  34230  290.77 0854.45
2009/04/23 13:34:21.1    -628     75   -148    633    651 276.9 -13.2  34234  290.82 0854.45
2009/04/23 13:34:21.2    -593    195    -30    625    626 288.2  -2.8  34228  290.72 0854.45
2009/04/23 13:34:21.3    -523    123   -120    538    552 283.3 -12.6  34234  290.82 0854.45
2009/04/23 13:34:21.4    -477    114   -162    491    518 283.5 -18.3  34228  290.71 0854.45
2009/04/23 13:34:21.5    -471    192    122    509    524 292.2  13.5  34236  290.86 0854.45
2009/04/23 13:34:21.6    -579     99     29    588    589 279.7   2.9  34230  290.75 0854.45
2009/04/23 13:34:21.7    -388    133    -28    411    412 289.0  -4.0  34222  290.63 0854.45
2009/04/23 13:34:21.8    -512    123     30    527    528 283.6   3.3  34236  290.86 0854.45
2009/04/23 13:34:21.9    -388    129     -9    409    410 288.4  -1.4  34242  290.95 0854.45
2009/04/23 13:34:22.0    -422    257     38    495    497 301.4   4.5  34236  290.86 0854.45
2009/04/23 13:34:22.1    -459    220    -60    510    514 295.7  -6.8  34240  290.93 0854.45
2009/04/23 13:34:22.2    -482    237    -43    538    540 296.2  -4.6  34234  290.84 0854.45
2009/04/23 13:34:22.3    -476    165     28    505    506 289.2   3.3  34258  291.25 0854.45
2009/04/23 13:34:22.4    -371    199     34    421    423 298.2   4.7  34282  291.63 0854.45
2009/04/23 13:34:22.5    -274    184     89    331    343 304.0  15.1  34292  291.83 0854.45
2009/04/23 13:34:22.6    -263    179     47    319    323 304.2   8.5  34288  291.75 0854.45
2009/04/23 13:34:22.7    -137    153     65    206    217 318.1  17.7  34272  291.49 0854.45
2009/04/23 13:34:22.8    -174     -2     34    175    179 269.2  11.0  34260  291.28 0854.45
2009/04/23 13:34:22.9     -55     69    140     89    165 321.3  64.7  34264  291.33 0854.45
2009/04/23 13:34:23.0    -117     92     53    149    159 308.2  19.6  34260  291.26 0854.45
2009/04/23 13:34:23.1      37     12     38     40     55  71.4  50.0  34260  291.28 0854.45
2009/04/23 13:34:23.2    -114     85    107    143    178 306.9  40.4  34266  291.37 0854.45
2009/04/23 13:34:23.3    -233    248    217    341    404 316.7  35.5  34280  291.62 0854.45
2009/04/23 13:34:23.4    -231    258    148    347    377 318.2  24.5  34284  291.68 0854.45
2009/04/23 13:34:23.5    -243    200    190    315    367 309.5  34.0  34286  291.71 0854.45
2009/04/23 13:34:23.6    -147    206    246    254    353 324.4  49.1  34294  291.84 0854.45
2009/04/23 13:34:23.7    -193    200    206    279    346 316.1  40.0  34304  292.02 0854.45
2009/04/23 13:34:23.8     -56    173    173    182    251 342.0  48.7  34298  291.93 0854.45
2009/04/23 13:34:23.9    -156    200    125    254    283 322.1  28.2  34292  291.82 0854.45
2009/04/23 13:34:24.0    -250    168     90    302    316 304.0  16.6  34254  291.16 0854.45
2009/04/23 13:34:24.1    -176     82    190    195    272 295.1  49.4  34266  291.36 0854.45
2009/04/23 13:34:24.2     -87     63    185    108    214 306.0  66.8  34280  291.62 0854.45
2009/04/23 13:34:24.3    -107     21    105    110    152 281.5  48.5  34282  291.64 0854.45
2009/04/23 13:34:24.4    -124      2    123    125    175 271.3  50.2  34284  291.67 0854.45
2009/04/23 13:34:24.5    -159     41    139    165    215 284.6  44.3  34304  292.01 0854.47
2009/04/23 13:34:24.6    -175     39    121    180    216 282.8  37.3  34302  291.98 0854.47
2009/04/23 13:34:24.7    -140     37     98    145    175 285.0  37.0  34298  291.93 0854.47
2009/04/23 13:34:24.8    -183     14    128    184    224 274.4  38.0  34306  292.05 0854.47
2009/04/23 13:34:24.9    -177     18    102    179    206 276.1  32.1  34304  292.01 0854.47
2009/04/23 13:34:25.0    -163     49     59    171    182 286.8  19.2  34298  291.93 0854.47
2009/04/23 13:34:25.1     -54     93    125    108    165 329.7  54.8  34312  292.17 0854.47
2009/04/23 13:34:25.2     -48     -6    112     49    122 262.1  75.0  34302  292.00 0854.47
2009/04/23 13:34:25.3     -19     -7     98     21    100 250.0  89.0  34304  292.03 0854.47
2009/04/23 13:34:25.4      -8    -29    101     31    105 195.1  82.3  34306  292.06 0854.47
2009/04/23 13:34:25.5      25    -45     93     52    106 151.0  68.8  34310  292.12 0854.47
2009/04/23 13:34:25.6    -114     37     89    121    150 288.2  39.7  34294  291.84 0854.47
2009/04/23 13:34:25.7     -67     20     73     70    101 286.8  51.6  34296  291.89 0854.47
2009/04/23 13:34:25.8    -149    -25     68    152    166 260.3  25.9  34290  291.79 0854.47
2009/04/23 13:34:25.9    -239    -44    -19    244    245 259.4  -4.6  34282  291.65 0854.47
2009/04/23 13:34:26.0    -250    -64     17    259    260 255.6   3.8  34288  291.73 0854.47
2009/04/23 13:34:26.1    -202    -98     53    225    232 244.0  13.2  34258  291.23 0854.47
2009/04/23 13:34:26.2    -160    -88     35    183    187 241.1  11.0  34264  291.35 0854.47
2009/04/23 13:34:26.3    -212     17     73    213    226 274.8  18.9  34284  291.67 0854.47
2009/04/23 13:34:26.4    -187      1     -7    188    189 270.6  -2.2  34300  291.96 0854.45
2009/04/23 13:34:26.5    -107     40     98    115    151 290.4  44.3  34292  291.81 0854.45
2009/04/23 13:34:26.6    -187     10      3    188    189 273.3   1.0  34296  291.89 0854.45
2009/04/23 13:34:26.7    -155     16      9    156    157 276.2   3.6  34302  292.00 0854.45
2009/04/23 13:34:26.8     -84     17     63     86    106 281.9  39.7  34314  292.18 0854.45
2009/04/23 13:34:26.9     -93      4     68     94    116 272.6  39.7  34312  292.17 0854.45
2009/04/23 13:34:27.0     -37      7     79     38     87 281.5  72.9  34314  292.20 0854.45
2009/04/23 13:34:27.1      22     16     70     28     75  54.0  77.1  34314  292.20 0854.45
2009/04/23 13:34:27.2       5     -4     68      7     68 129.5  90.0  34314  292.20 0854.45
2009/04/23 13:34:27.3      46      3     45     47     65  85.6  49.0  34310  292.12 0854.45
2009/04/23 13:34:27.4      54    -58     52     80     95 136.8  35.6  34312  292.17 0854.45
2009/04/23 13:34:27.5      72    -49     33     88     93 124.6  20.4  34318  292.25 0854.45
2009/04/23 13:34:27.6      21    -67     47     71     85 162.2  36.5  34328  292.42 0854.45
2009/04/23 13:34:27.7     -53    -40      8     67     68 233.1   6.9  34326  292.40 0854.45
2009/04/23 13:34:27.8     -65    -45     12     80     82 234.9   9.0  34314  292.20 0854.45
2009/04/23 13:34:27.9     -61    -36    -11     71     72 239.3  -9.3  34312  292.15 0854.45
2009/04/23 13:34:28.0     -87    -68     -4    111    112 231.8  -2.2  34324  292.35 0854.45
2009/04/23 13:34:28.2     -99    -72     24    123    126 234.1  11.0  34326  292.40 0854.45
2009/04/23 13:34:28.3    -107   -100     35    147    152 226.8  13.7  34302  292.00 0854.45
2009/04/23 13:34:28.4     -74   -145     56    164    174 207.2  18.9  34294  291.84 0854.45
2009/04/23 13:34:28.5     -10    -99    145    100    176 186.2  62.1  34284  291.69 0854.44
2009/04/23 13:34:28.6      -6   -138     93    139    167 182.7  37.0  34292  291.83 0854.44
2009/04/23 13:34:28.7      -8    -63     65     64     91 188.0  50.1  34290  291.79 0854.44
2009/04/23 13:34:28.8     -42    -76     77     88    116 209.0  45.8  34294  291.84 0854.44
2009/04/23 13:34:28.9     -36   -100     55    107    120 200.0  29.3  34314  292.20 0854.44
2009/04/23 13:34:29.0     -69   -125     64    143    156 209.0  25.7  34302  292.00 0854.44
2009/04/23 13:34:29.1     -80   -127     78    151    169 212.1  29.3  34294  291.86 0854.44
2009/04/23 13:34:29.2    -135   -125    151    185    238 227.3  43.5  34306  292.06 0854.44
2009/04/23 13:34:29.3    -113   -128    176    172    246 221.4  50.7  34292  291.83 0854.44
2009/04/23 13:34:29.4     -32   -135     50    139    147 193.4  20.4  34274  291.50 0854.44
2009/04/23 13:34:29.5      -7   -154    203    155    255 182.7  58.7  34266  291.38 0854.44
2009/04/23 13:34:29.6     -93   -105    121    141    185 221.5  44.8  34280  291.62 0854.44
2009/04/23 13:34:29.7     -62   -187    126    198    234 198.5  35.5  34238  290.89 0854.44
2009/04/23 13:34:29.8    -136   -456     67    477    482 196.7   8.1  34250  291.10 0854.44
2009/04/23 13:34:29.9    -157   -465     47    491    494 198.7   5.5  34238  290.91 0854.44
2009/04/23 13:34:30.0    -100   -395    164    408    439 194.3  23.1  34232  290.80 0854.44
2009/04/23 13:34:30.1      39   -320    220    323    390 172.9  37.6  34232  290.79 0854.44
2009/04/23 13:34:30.2      48   -167    199    174    264 163.7  54.6  34236  290.85 0854.44
2009/04/23 13:34:30.3      68   -254    205    264    334 164.9  41.9  34228  290.73 0854.44
2009/04/23 13:34:30.4     107   -368    166    384    418 163.7  25.0  34230  290.75 0854.44
2009/04/23 13:34:30.5      -9   -401    191    402    445 181.4  27.2  34236  290.85 0854.39
2009/04/23 13:34:30.6      29   -391    167    393    427 175.8  24.3  34240  290.94 0854.39
2009/04/23 13:34:30.7      31   -217    165    220    275 171.9  40.7  34238  290.90 0854.39
2009/04/23 13:34:30.8     131   -206     90    245    261 147.5  20.9  34236  290.85 0854.39
2009/04/23 13:34:30.9      66   -141    120    156    196 154.7  41.7  34238  290.89 0854.39
2009/04/23 13:34:31.0      74    -34     80     82    114 115.2  50.5  34242  290.96 0854.39
2009/04/23 13:34:31.1      49    -60     82     78    113 140.3  51.2  34244  291.01 0854.39
2009/04/23 13:34:31.2      97    -84    127    129    181 130.9  49.8  34246  291.03 0854.39
2009/04/23 13:34:31.3      93   -128    138    159    210 143.9  45.6  34238  290.91 0854.39
2009/04/23 13:34:31.4      42   -105    145    114    184 158.2  57.9  34242  290.98 0854.39
2009/04/23 13:34:31.5      18     11    108     22    110  57.6  89.0  34248  291.06 0854.33
2009/04/23 13:34:31.6     120    -49    129    130    183 112.2  50.2  34246  291.03 0854.33
2009/04/23 13:34:31.7     -75    -89    131    117    175 220.1  53.5  34238  290.91 0854.33
2009/04/23 13:34:31.8     -52   -120    106    132    169 203.6  43.3  34240  290.94 0854.33
2009/04/23 13:34:31.9      -9   -126     56    127    138 184.5  25.1  34244  291.01 0854.33
2009/04/23 13:34:32.0       1   -109     50    110    120 179.1  26.2  34240  290.94 0854.33
2009/04/23 13:34:32.1      -1    -94    -29     95     99 180.9 -22.3  34240  290.92 0854.33
2009/04/23 13:34:32.2      36    -32    -52     49     71 131.3 -56.5  34240  290.94 0854.33
2009/04/23 13:34:32.3      63      0    -41     64     76  89.2 -39.9  34244  291.01 0854.33
2009/04/23 13:34:32.4      93     18     -1     95     96  79.0  -0.7  34256  291.21 0854.33
2009/04/23 13:34:32.5      53     38     55     66     85  54.0  44.3  34260  291.26 0854.33
2009/04/23 13:34:32.6      24    -71     82     76    111 160.8  52.2  34256  291.21 0854.33
2009/04/23 13:34:32.7      17    -82    121     84    147 168.0  61.5  34250  291.09 0854.33
2009/04/23 13:34:32.8     -56    -83    104    101    144 214.3  50.2  34248  291.06 0854.33
2009/04/23 13:34:32.9      -1   -118    121    119    169 180.5  50.1  34250  291.11 0854.33
2009/04/23 13:34:33.0      31     -6     51     32     60 101.5  64.7  34258  291.25 0854.33
2009/04/23 13:34:33.1      64     59     16     88     90  47.3  10.6  34256  291.21 0854.33
2009/04/23 13:34:33.2       0    113     13    114    115   0.5   6.9  34264  291.33 0854.33
2009/04/23 13:34:33.3      72    131     77    150    168  29.0  29.3  34300  291.95 0854.33
2009/04/23 13:34:33.4      34     73     77     81    111  25.3  48.5  34300  291.95 0854.33
2009/04/23 13:34:33.5       2     89     -2     90     91   1.4  -1.3  34298  291.91 0854.32
2009/04/23 13:34:33.6     -18     92     25     94     98 348.4  15.2  34288  291.76 0854.32
2009/04/23 13:34:33.7     -12    163     56    164    174 355.5  18.9  34304  292.03 0854.32
2009/04/23 13:34:33.8      11    109     70    110    130   6.2  35.5  34316  292.23 0854.32
2009/04/23 13:34:33.9       5     72     67     73     99   4.4  47.9  34306  292.06 0854.32
2009/04/23 13:34:34.0     -53     35     77     64    100 303.3  56.3  34306  292.05 0854.32
2009/04/23 13:34:34.1     -61     44     38     76     84 306.0  28.7  34308  292.10 0854.32
2009/04/23 13:34:34.2      77     -5     51     78     93  94.3  36.0  34282  291.64 0854.32
2009/04/23 13:34:34.3      81     -6     48     82     95  94.8  34.0  34262  291.30 0854.32
2009/04/23 13:34:34.4      68     79     43    105    113  40.5  23.1  34280  291.62 0854.32
2009/04/23 13:34:34.5      97     71     68    121    138  54.0  31.4  34332  292.49 0854.32
2009/04/23 13:34:34.6      89     29     53     94    107  71.6  31.4  34334  292.54 0854.32
2009/04/23 13:34:34.7      35     -7     28     36     45 101.5  41.7  34308  292.10 0854.32
2009/04/23 13:34:34.8     -75    -36     59     84    102 244.6  39.1  34280  291.60 0854.32
2009/04/23 13:34:34.9     -86    -99     35    132    137 221.0  15.2  34260  291.26 0854.32
2009/04/23 13:34:35.0     -79    -79     28    112    116 225.0  14.3  34254  291.16 0854.32
2009/04/23 13:34:35.1    -139     19      4    141    142 278.0   1.8  34248  291.08 0854.32
2009/04/23 13:34:35.2    -179     55     29    188    191 287.3   9.0  34250  291.11 0854.32
2009/04/23 13:34:35.3    -119     14     43    120    127 277.0  20.0  34252  291.15 0854.32
2009/04/23 13:34:35.4     -82    -14     35     84     91 260.3  24.1  34254  291.16 0854.32
2009/04/23 13:34:35.5     -82   -106     40    135    141 217.8  16.8  34252  291.15 0854.29
2009/04/23 13:34:35.6       8   -151     70    152    167 176.9  26.6  34256  291.21 0854.29
2009/04/23 13:34:35.7       0    -90     84     91    123 180.4  47.9  34250  291.09 0854.29
2009/04/23 13:34:35.8     -95   -240     32    259    262 201.6   7.2  34234  290.82 0854.29
2009/04/23 13:34:35.9     -99   -265    -16    284    285 200.5  -3.3  34236  290.85 0854.29
2009/04/23 13:34:36.0    -101   -232      4    254    255 203.6   1.0  34236  290.87 0854.29
2009/04/23 13:34:36.1    -108   -159     12    193    194 214.1   3.6  34232  290.81 0854.29
2009/04/23 13:34:36.2     -38   -117     43    124    132 198.3  19.4  34232  290.81 0854.29
2009/04/23 13:34:36.3      -7    -68     39     69     79 186.2  32.4  34240  290.92 0854.29
2009/04/23 13:34:36.4     -21     13     86     25     89 302.4  83.3  34246  291.04 0854.29
2009/04/23 13:34:36.5    -103    -16    118    105    157 260.8  53.7  34250  291.09 0854.29
2009/04/23 13:34:36.6    -122    115    128    168    211 313.3  41.4  34284  291.67 0854.29
2009/04/23 13:34:36.7    -123    116     81    170    188 313.3  27.3  34300  291.95 0854.29
2009/04/23 13:34:36.8    -152    108    115    187    219 305.3  34.8  34288  291.76 0854.29
2009/04/23 13:34:36.9    -137     10    130    138    189 274.4  48.2  34268  291.40 0854.29
2009/04/23 13:34:37.0     -60     95     60    113    127 327.5  29.8  34302  292.00 0854.29
2009/04/23 13:34:37.1    -172    109    116    204    234 302.4  32.1  34266  291.38 0854.29
2009/04/23 13:34:37.2    -234     78     12    247    248 288.6   2.8  34246  291.02 0854.29
2009/04/23 13:34:37.3    -203     29   -143    206    250 278.4 -42.4  34188  290.05 0854.29
2009/04/23 13:34:37.4    -479    -16   -291    480    561 268.0 -38.5  34216  290.53 0854.29
2009/04/23 13:34:37.5    -351   -306   -223    466    516 228.9 -31.7  34208  290.39 0854.32
2009/04/23 13:34:37.6     -83   -289   -297    301    422 196.1 -54.2  34204  290.32 0854.32
2009/04/23 13:34:37.7    -287   -217   -378    361    522 232.9 -55.9  34222  290.64 0854.32
2009/04/23 13:34:37.8    -464   -372   -293    596    664 231.3 -32.5  34220  290.60 0854.32
2009/04/23 13:34:37.9    -396   -532    -84    664    670 216.6  -7.2  34192  290.12 0854.32
2009/04/23 13:34:38.0    -232   -311    239    389    456 216.7  34.6  34230  290.75 0854.32
2009/04/23 13:34:38.1    -451   -136    201    472    513 253.2  24.5  34242  290.96 0854.32
2009/04/23 13:34:38.2    -415   -466    334    625    708 221.7  30.3  34274  291.50 0854.32
2009/04/23 13:34:38.3    -404   -359    258    541    599 228.4  27.3  34266  291.38 0854.32
2009/04/23 13:34:38.4    -427   -350    227    553    597 230.7  23.6  34280  291.61 0854.32
2009/04/23 13:34:38.5    -360   -318    171    481    510 228.5  20.4  34248  291.07 0854.32
2009/04/23 13:34:38.6    -269   -475    242    547    598 209.5  25.3  34246  291.02 0854.32
2009/04/23 13:34:38.7       5   -267    290    268    394 178.9  52.6  34232  290.79 0854.32
2009/04/23 13:34:38.8    -278   -296    119    407    425 223.2  16.3  34250  291.11 0854.32
2009/04/23 13:34:38.9    -347   -386     25    520    521 221.9   2.8  34254  291.18 0854.32
2009/04/23 13:34:39.0    -344   -463     49    577    580 216.6   4.9  34248  291.07 0854.32
2009/04/23 13:34:39.1    -319   -505    238    598    643 212.3  22.9  34242  290.96 0854.32
2009/04/23 13:34:39.2    -316   -477    -52    573    576 213.5  -5.2  34240  290.93 0854.32
2009/04/23 13:34:39.3    -339   -515    -65    617    621 213.4  -6.1  34242  290.96 0854.32
2009/04/23 13:34:39.4    -437   -446     10    625    626 224.4   1.0  34248  291.05 0854.32
2009/04/23 13:34:39.5    -458   -366      8    587    588 231.4   0.8  34238  290.90 0854.36
2009/04/23 13:34:39.6     -11   -145    243    146    283 184.5  66.4  34232  290.78 0854.36
2009/04/23 13:34:39.7     407   -193    161    451    478 115.4  20.4  34228  290.73 0854.36
2009/04/23 13:34:39.8     162   -222    265    276    382 143.9  48.7  34218  290.54 0854.36
2009/04/23 13:34:39.9      -6   -230    225    231    322 181.6  49.4  34226  290.68 0854.36
2009/04/23 13:34:40.0      12   -212    123    213    245 176.6  32.7  34224  290.65 0854.36
2009/04/23 13:34:40.1      21   -198    155    200    253 173.8  41.7  34228  290.73 0854.36
2009/04/23 13:34:40.2     193   -107    132    221    257 119.1  33.5  34224  290.65 0854.36
2009/04/23 13:34:40.3     221   -109     93    247    263 116.2  21.7  34226  290.68 0854.36
2009/04/23 13:34:40.4     316   -146    137    349    374 114.8  22.7  34230  290.76 0854.36
2009/04/23 13:34:40.5     450   -151    185    475    509 108.6  22.4  34222  290.64 0854.36
2009/04/23 13:34:40.6     477   -139    178    497    527 106.3  20.4  34222  290.61 0854.36
2009/04/23 13:34:40.7     500   -194     90    537    545 111.2   9.6  34230  290.77 0854.36
2009/04/23 13:34:40.8     535   -127    -49    550    553 103.4  -5.2  34228  290.74 0854.36
2009/04/23 13:34:40.9     467   -171   -156    498    521 110.2 -22.4  34234  290.83 0854.36
2009/04/23 13:34:41.0     325   -194   -140    379    404 120.8 -25.5  34238  290.91 0854.36
2009/04/23 13:34:41.1     351   -227   -128    419    438 122.9 -21.8  34236  290.85 0854.36
2009/04/23 13:34:41.2     387   -303   -156    492    517 128.1 -17.6  34236  290.85 0854.36
2009/04/23 13:34:41.3     243   -296   -131    384    407 140.6 -18.9  34234  290.83 0854.36
2009/04/23 13:34:41.4     371   -157     -6    403    404 113.0  -0.9  34236  290.85 0854.36
2009/04/23 13:34:41.5     437    -91    208    447    493 101.8  26.7  34222  290.64 0854.35
2009/04/23 13:34:41.6     177   -295     28    345    347 149.0   4.7  34238  290.89 0854.35
2009/04/23 13:34:41.7     237   -300     38    383    385 141.6   5.7  34232  290.79 0854.35
2009/04/23 13:34:41.8     281   -306   -114    416    432 137.4 -15.4  34226  290.70 0854.35
2009/04/23 13:34:41.9     408   -268    -62    489    493 123.4  -7.3  34226  290.69 0854.35
2009/04/23 13:34:42.0     417     32    287    419    507  85.5  37.6  34216  290.51 0854.35
2009/04/23 13:34:42.1     444     97    338    455    566  77.6  40.2  34210  290.43 0854.35
2009/04/23 13:34:42.2     411    -39    314    413    518  95.5  41.2  34218  290.57 0854.35
2009/04/23 13:34:42.3     195    -70    413    208    462 109.7  71.4  34216  290.52 0854.35
2009/04/23 13:34:42.4      37     63    395     74    401  30.7  90.0  34224  290.67 0854.35
2009/04/23 13:34:42.5    -135     54    288    146    322 291.8  71.3  34226  290.70 0854.35
2009/04/23 13:34:42.6    -158   -137    296    210    362 229.1  61.2  34230  290.75 0854.35
2009/04/23 13:34:42.7     -59    -17    267     62    274 253.2  87.3  34222  290.62 0854.35
2009/04/23 13:34:42.8     -60    -64    256     88    270 223.2  81.0  34226  290.69 0854.35
2009/04/23 13:34:42.9    -117    190    322    224    392 328.4  61.7  34224  290.66 0854.35
2009/04/23 13:34:43.0      91     17    300     93    314  79.0  82.4  34230  290.76 0854.35
2009/04/23 13:34:43.1     -35      7    244     36    246 281.5  90.0  34236  290.86 0854.35
2009/04/23 13:34:43.2     -69   -128    255    146    293 208.5  67.7  34234  290.82 0854.35
2009/04/23 13:34:43.3    -204   -129    195    242    310 237.8  43.3  34242  290.95 0854.35
2009/04/23 13:34:43.4    -137   -160    204    211    293 220.5  49.0  34234  290.83 0854.35
2009/04/23 13:34:43.5    -117   -229    277    258    378 207.0  52.2  34230  290.76 0854.36
2009/04/23 13:34:43.6       7    -99    178    100    204 175.6  68.3  34232  290.79 0854.36
2009/04/23 13:34:43.7     -84   -242    334    257    421 199.2  58.6  34232  290.81 0854.36
2009/04/23 13:34:43.8    -112   -375    336    392    516 196.7  45.0  34232  290.78 0854.36
2009/04/23 13:34:43.9    -112   -391    329    407    523 196.0  43.3  34228  290.74 0854.36
2009/04/23 13:34:44.0     -96   -324    356    339    491 196.5  51.6  34226  290.68 0854.36
2009/04/23 13:34:44.1     -94   -175    281    199    344 208.3  61.3  34232  290.80 0854.36
2009/04/23 13:34:44.2    -391   -104    145    405    430 255.0  20.6  34232  290.78 0854.36
2009/04/23 13:34:44.3    -518    -26     57    519    523 267.1   6.4  34230  290.77 0854.36
2009/04/23 13:34:44.4    -504     77    -26    510    511 278.7  -3.0  34226  290.68 0854.36
2009/04/23 13:34:44.5    -473     20    -86    474    482 272.5 -10.4  34222  290.61 0854.36
2009/04/23 13:34:44.6    -421     56    -97    425    436 277.6 -12.9  34222  290.61 0854.36
2009/04/23 13:34:44.7    -442     54    -73    446    453 277.0  -9.3  34222  290.63 0854.36
2009/04/23 13:34:44.8    -405    112   -103    421    434 285.5 -13.8  34228  290.72 0854.36
2009/04/23 13:34:44.9    -379    -35   -202    381    431 264.6 -34.6  34228  290.72 0854.36
2009/04/23 13:34:45.0    -213     83    -96    229    248 291.3 -28.5  34222  290.63 0854.36
2009/04/23 13:34:45.1    -266     42     84    270    283 279.0  17.3  34226  290.68 0854.36
2009/04/23 13:34:45.2    -306    -26    -17    308    309 265.0  -3.3  34232  290.80 0854.36
2009/04/23 13:34:45.3    -237   -184   -105    301    318 232.2 -24.4  34234  290.83 0854.36
2009/04/23 13:34:45.4    -288    -88    -38    302    305 252.9  -7.2  34232  290.80 0854.36
2009/04/23 13:34:45.5    -365    -10     -1    366    367 268.3  -0.2  34230  290.77 0854.38
2009/04/23 13:34:45.6    -626    -43   -111    628    638 266.0 -10.1  34222  290.62 0854.38
2009/04/23 13:34:45.7    -765    -84   -277    770    819 263.7 -19.8  34222  290.64 0854.38
2009/04/23 13:34:45.8    -794    -95   -193    800    823 263.1 -13.6  34222  290.62 0854.38
2009/04/23 13:34:45.9    -784      5   -267    785    830 270.4 -18.8  34216  290.53 0854.38
2009/04/23 13:34:46.0    -865    -57   -266    867    906 266.2 -21.9  34218  290.57 0854.38
2009/04/23 13:34:46.1    -829    -42   -321    831    890 267.1 -26.7  34224  290.67 0854.38
2009/04/23 13:34:46.2    -882    -91   -277    887    929 264.1 -22.3  34226  290.70 0854.38
2009/04/23 13:34:46.3    -730   -267   -301    778    834 249.9 -26.7  34236  290.87 0854.38
2009/04/23 13:34:46.4    -507    -66   -229    512    560 262.6 -30.1  34232  290.79 0854.38
2009/04/23 13:34:46.5    -628   -236   -228    672    710 249.4 -18.8  34238  290.91 0854.38
2009/04/23 13:34:46.6    -662   -120   -166    673    694 259.7 -13.9  34214  290.48 0854.38
2009/04/23 13:34:46.7    -647     31   -166    648    670 272.8 -14.4  34222  290.63 0854.38
2009/04/23 13:34:46.8    -385    112   -136    402    425 286.3 -18.7  34236  290.87 0854.38
2009/04/23 13:34:46.9    -333    401   -155    522    544 320.4 -21.5  34228  290.72 0854.38
2009/04/23 13:34:47.0    -202    371   -186    423    462 331.4 -29.6  34228  290.72 0854.38
2009/04/23 13:34:47.1     -12    276    -97    277    293 357.3 -24.4  34212  290.46 0854.38
2009/04/23 13:34:47.2    -137    170     60    219    228 321.3  15.3  34222  290.62 0854.38
2009/04/23 13:34:47.3    -125     85    120    152    193 304.2  42.4  34218  290.57 0854.38
2009/04/23 13:34:47.4    -227    122    136    258    291 298.4  30.2  34234  290.83 0854.38
2009/04/23 13:34:47.5     -93    113     42    147    153 320.3  16.0  34242  290.96 0854.41
2009/04/23 13:34:47.6    -274    -62    -66    281    289 257.2 -13.3  34238  290.88 0854.41
2009/04/23 13:34:47.7    -458     79      6    465    466 279.9   0.8  34230  290.76 0854.41
2009/04/23 13:34:47.8    -553     -6    -65    554    558 269.3  -6.7  34234  290.84 0854.41
2009/04/23 13:34:47.9    -598    -13   -139    599    615 268.7 -13.1  34228  290.71 0854.41
2009/04/23 13:34:48.0    -478     94     13    488    489 281.2   1.6  34228  290.73 0854.41
2009/04/23 13:34:48.1    -474     49     -2    477    478 275.9  -0.3  34222  290.64 0854.41
2009/04/23 13:34:48.2    -533    149     36    554    556 285.7   3.8  34228  290.72 0854.41
2009/04/23 13:34:48.3    -169   -144    115    223    250 229.6  29.3  34242  290.97 0854.41
2009/04/23 13:34:48.4    -105   -232     -9    255    256 204.5  -2.1  34230  290.75 0854.41
2009/04/23 13:34:48.5    -215   -221     -6    309    310 224.3  -1.3  34222  290.63 0854.41
2009/04/23 13:34:48.6    -258   -231    135    347    372 228.2  22.5  34232  290.79 0854.41
2009/04/23 13:34:48.7    -290   -139    156    322    357 244.2  27.8  34236  290.86 0854.41
2009/04/23 13:34:48.8    -152    -40     58    158    168 255.0  21.0  34236  290.87 0854.41
2009/04/23 13:34:48.9      -7    -97    177     98    202 184.5  68.8  34234  290.84 0854.41
2009/04/23 13:34:49.0     -58    -54    105     80    132 226.9  58.5  34236  290.86 0854.41
2009/04/23 13:34:49.1     -35    -16    103     39    110 244.7  78.6  34234  290.82 0854.41
2009/04/23 13:34:49.2      23     30     57     39     69  37.8  62.6  34232  290.79 0854.41
2009/04/23 13:34:49.3      50     -5    117     51    127  96.1  75.0  34238  290.91 0854.41
2009/04/23 13:34:49.4      46   -153    207    160    261 163.1  58.5  34234  290.83 0854.41
2009/04/23 13:34:49.5       0    -66    159     67    172 180.0  76.1  34242  290.96 0854.42
2009/04/23 13:34:49.6     -51   -148    179    157    238 199.2  54.2  34234  290.82 0854.42
2009/04/23 13:34:49.7      -9   -117    113    118    163 184.4  49.0  34240  290.92 0854.42
2009/04/23 13:34:49.8     -93    -24     86     97    129 255.4  45.8  34234  290.84 0854.42
2009/04/23 13:34:49.9    -154    253    125    297    322 328.6  24.2  34234  290.83 0854.42
2009/04/23 13:34:50.0    -158    141    161    212    266 311.8  41.2  34238  290.88 0854.42
2009/04/23 13:34:50.1    -163    -46    154    170    229 254.1  46.9  34234  290.84 0854.42
2009/04/23 13:34:50.2    -129     95     45    161    168 306.4  15.8  34236  290.86 0854.42
2009/04/23 13:34:50.3    -104    170    160    200    256 328.6  42.8  34224  290.65 0854.42
2009/04/23 13:34:50.4     -91    221    136    240    275 337.5  32.1  34240  290.92 0854.42
2009/04/23 13:34:50.5     -84    244    116    259    283 340.9  25.9  34242  290.95 0854.42
2009/04/23 13:34:50.6    -145      7     59    146    157 273.0  23.0  34238  290.89 0854.42
2009/04/23 13:34:50.7    -137     32     79    141    161 283.2  31.9  34236  290.87 0854.42
2009/04/23 13:34:50.8    -172     57     63    182    193 288.6  19.2  34238  290.89 0854.42
2009/04/23 13:34:50.9    -109    124     29    166    169 318.8  10.1  34240  290.94 0854.42
2009/04/23 13:34:51.0    -111    102     48    151    159 312.7  17.9  34244  290.99 0854.42
2009/04/23 13:34:51.1     -50    211    104    217    240 346.6  27.3  34236  290.87 0854.42
2009/04/23 13:34:51.2     -51    286    156    291    330 349.8  30.6  34236  290.87 0854.42
2009/04/23 13:34:51.3    -137    155     54    208    216 318.5  14.7  34236  290.86 0854.42
2009/04/23 13:34:51.4    -172    207     45    270    274 320.4   9.5  34234  290.83 0854.42
2009/04/23 13:34:51.5    -199    273     96    339    353 323.9  15.9  34244  291.00 0854.41
2009/04/23 13:34:51.6    -252    324    143    411    435 322.1  20.0  34236  290.85 0854.41
2009/04/23 13:34:51.7    -238    211    108    319    338 311.5  18.8  34240  290.94 0854.41
2009/04/23 13:34:51.8    -210    154    198    261    327 306.2  41.1  34240  290.93 0854.41
2009/04/23 13:34:51.9    -223    216    142    311    341 314.0  26.3  34240  290.94 0854.41
2009/04/23 13:34:52.0    -182    232    118    296    318 321.9  22.9  34248  291.05 0854.41
2009/04/23 13:34:52.1    -177    264    169    319    361 326.2  30.3  34248  291.05 0854.41
2009/04/23 13:34:52.2    -142    219    116    262    286 327.0  25.3  34256  291.21 0854.41
2009/04/23 13:34:52.3     -92    236     55    254    261 338.6  12.4  34262  291.31 0854.41
2009/04/23 13:34:52.4     -78    235     29    248    250 341.5   6.9  34250  291.09 0854.42
2009/04/23 13:34:52.5    -218    232    -12    319    320 316.8  -2.3  34242  290.97 0854.42
2009/04/23 13:34:52.6    -265    220    -19    345    346 309.6  -3.3  34242  290.98 0854.42
2009/04/23 13:34:52.7    -282    132    -57    312    318 295.2 -10.5  34238  290.90 0854.42
2009/04/23 13:34:52.8    -205     67     81    216    230 288.2  21.0  34252  291.15 0854.42
2009/04/23 13:34:52.9    -168     63     90    180    201 290.6  28.7  34260  291.28 0854.42
2009/04/23 13:34:53.0    -175    -10     -6    176    177 266.7  -2.2  34248  291.06 0854.42
2009/04/23 13:34:53.1    -146    -54     30    156    160 249.6  11.1  34254  291.18 0854.42
2009/04/23 13:34:53.2    -160    -76     -1    178    179 244.7  -0.5  34234  290.82 0854.42
2009/04/23 13:34:53.3    -144    -17     34    146    150 263.0  13.2  34242  290.98 0854.42
2009/04/23 13:34:53.4    -187     32     37    190    194 279.7  11.1  34234  290.82 0854.42
2009/04/23 13:34:53.5    -207     97      9    229    230 295.2   2.3  34222  290.62 0854.42
2009/04/23 13:34:53.6    -165     91    -23    189    191 298.9  -7.2  34228  290.72 0854.42
2009/04/23 13:34:53.7    -199   -120      9    233    234 238.9   2.3  34238  290.88 0854.42
2009/04/23 13:34:53.8    -230    -53    -25    237    239 257.0  -6.1  34230  290.76 0854.42
2009/04/23 13:34:53.9    -193    -45    -71    199    212 256.7 -19.6  34228  290.72 0854.42
2009/04/23 13:34:54.0    -211    -63    -36    221    225 253.2  -9.4  34232  290.79 0854.42
2009/04/23 13:34:54.1    -190    -38    -69    194    207 258.5 -19.7  34232  290.79 0854.42
2009/04/23 13:34:54.2    -203   -103    -15    228    229 242.9  -3.9  34234  290.82 0854.42
2009/04/23 13:34:54.3    -224     -3    -50    225    231 269.0 -12.6  34236  290.86 0854.42
2009/04/23 13:34:54.4    -218     65    -28    228    230 286.6  -7.2  34234  290.82 0854.43
2009/04/23 13:34:54.5    -243    158   -107    291    310 303.1 -25.4  34232  290.78 0854.43
2009/04/23 13:34:54.6    -246    -67   -102    256    275 254.7 -27.4  34230  290.76 0854.43
2009/04/23 13:34:54.7    -270     43    -82    274    287 279.2 -16.8  34236  290.85 0854.43
2009/04/23 13:34:54.8    -332    -22    -61    333    339 266.1 -10.5  34230  290.77 0854.43
2009/04/23 13:34:54.9    -276    -11   -148    277    314 267.6 -34.7  34232  290.78 0854.43
2009/04/23 13:34:55.0    -364   -155   -148    396    422 246.9 -25.9  34228  290.72 0854.43
2009/04/23 13:34:55.1    -326   -108   -133    344    368 251.6 -26.6  34232  290.79 0854.43
2009/04/23 13:34:55.3    -328   -289    -75    438    445 228.6  -9.8  34232  290.78 0854.43
2009/04/23 13:34:55.4    -283   -290      0    406    407 224.3   0.1  34238  290.90 0854.43
2009/04/23 13:34:55.5    -273   -376    -25    465    466 216.0  -3.1  34248  291.05 0854.43
2009/04/23 13:34:55.6    -210   -278     45    349    352 217.0   7.4  34242  290.96 0854.43
2009/04/23 13:34:55.7    -197   -178     42    266    270 228.0   9.0  34240  290.93 0854.43
2009/04/23 13:34:55.8    -108   -137     94    175    198 218.3  30.6  34242  290.96 0854.43
2009/04/23 13:34:55.9       3    -22    119     23    121 172.0  89.6  34258  291.25 0854.43
2009/04/23 13:34:56.0      23     23    120     33    124  45.1  84.4  34254  291.18 0854.43
2009/04/23 13:34:56.1      22      7    105     24    107  71.6  88.0  34248  291.06 0854.43
2009/04/23 13:34:56.2      -1    -17     86     18     87 184.5  89.0  34246  291.04 0854.43
2009/04/23 13:34:56.3     -31    -10    161     33    164 251.8  89.0  34256  291.20 0854.43
2009/04/23 13:34:56.4      10    -16    168     19    169 147.5  90.0  34250  291.11 0854.43
2009/04/23 13:34:56.5       0     -7     87      8     87 182.7  90.0  34248  291.08 0854.43
2009/04/23 13:34:56.6      53     43     71     69     99  50.5  50.7  34248  291.08 0854.43
2009/04/23 13:34:56.7      57     11     56     59     81  78.5  48.5  34250  291.11 0854.43
2009/04/23 13:34:56.8     -20      0      4     21     22 270.0  11.1  34252  291.15 0854.43
2009/04/23 13:34:56.9     -38     74     15     84     86 332.8  10.1  34258  291.25 0854.43
2009/04/23 13:34:57.0     -63     77     35    100    107 320.8  19.4  34264  291.33 0854.43
2009/04/23 13:34:57.1     -53    102     22    116    119 332.4  11.1  34272  291.47 0854.43
2009/04/23 13:34:57.2      63    117     54    134    144  28.5  23.0  34258  291.25 0854.43
2009/04/23 13:34:57.3     145    106     87    180    199  53.8  27.4  34258  291.25 0854.43
2009/04/23 13:34:57.4     120     32    154    125    198  75.0  56.9  34260  291.28 0854.43
2009/04/23 13:34:57.5     162     29    176    165    241  79.6  52.1  34260  291.28 0854.43
2009/04/23 13:34:57.6      36    -23    103     43    111 122.4  76.6  34258  291.23 0854.43
2009/04/23 13:34:57.7     -16     15    123     22    124 313.1  90.0  34256  291.20 0854.43
2009/04/23 13:34:57.8       0    -48     67     49     83 180.9  60.0  34254  291.18 0854.43
2009/04/23 13:34:57.9    -285    -87    106    299    318 252.9  19.6  34256  291.19 0854.43
2009/04/23 13:34:58.0    -266     93     17    282    283 289.3   3.6  34260  291.26 0854.43
2009/04/23 13:34:58.1    -223    -43     70    228    239 259.0  17.1  34252  291.12 0854.43
2009/04/23 13:34:58.2    -299     37     58    302    308 277.1  11.0  34260  291.26 0854.43
2009/04/23 13:34:58.3     -90    229    180    247    305 338.4  39.7  34260  291.26 0854.43
2009/04/23 13:34:58.4    -214    103    141    238    276 295.8  33.5  34256  291.19 0854.43
2009/04/23 13:34:58.5     -37     37    111     53    123 315.0  72.9  34256  291.20 0854.43
2009/04/23 13:34:58.6     -47    200     90    206    224 346.6  25.2  34260  291.28 0854.43
2009/04/23 13:34:58.7     -28     84     98     89    132 341.5  52.7  34262  291.32 0854.43
2009/04/23 13:34:58.8     -47     38    128     61    141 309.5  72.9  34266  291.37 0854.43
2009/04/23 13:34:58.9     -29     84    100     89    133 340.8  53.7  34264  291.35 0854.43
2009/04/23 13:34:59.0     -10     99     92    100    135 353.8  47.9  34266  291.37 0854.43
2009/04/23 13:34:59.1      32     59     84     68    108  29.0  56.4  34270  291.43 0854.43
2009/04/23 13:34:59.2      25     28     70     38     79  41.4  69.3  34266  291.38 0854.43
2009/04/23 13:34:59.3      38     21    127     44    134  61.1  81.2  34268  291.42 0854.43
2009/04/23 13:34:59.4       2     37    127     38    132   4.5  82.8  34270  291.45 0854.43
2009/04/23 13:34:59.5     -32     32    132     46    139 315.0  80.7  34270  291.43 0854.43
2009/04/23 13:34:59.6      41     68    108     80    134  31.6  60.0  34260  291.28 0854.43
2009/04/23 13:34:59.7      43    116     42    124    132  20.5  18.9  34258  291.25 0854.43
2009/04/23 13:34:59.8     -16     59     59     62     85 344.9  49.0  34258  291.25 0854.43
2009/04/23 13:34:59.9     -93     33    122     99    157 290.0  56.9  34256  291.21 0854.43
2009/04/23 13:35:00.0    -134     13    103    135    169 275.7  41.4  34256  291.21 0854.43
2009/04/23 13:35:00.1    -142     72     93    160    185 296.9  32.9  34262  291.30 0854.43
2009/04/23 13:35:00.2    -205    -14     71    206    219 265.9  19.2  34258  291.25 0854.43
2009/04/23 13:35:00.3    -151     50     57    160    169 288.6  20.0  34258  291.23 0854.43
2009/04/23 13:35:00.4    -146     38     41    151    157 284.6  15.2  34260  291.26 0854.43
2009/04/23 13:35:00.5     -98    -54    -12    112    113 241.1  -6.2  34262  291.30 0854.44
2009/04/23 13:35:00.6      72    -34     62     80    101 115.4  42.2  34262  291.30 0854.44
2009/04/23 13:35:00.7      16   -152     86    153    175 173.8  31.6  34260  291.28 0854.44
2009/04/23 13:35:00.8     -25   -179    123    181    218 188.0  37.6  34260  291.26 0854.44
2009/04/23 13:35:00.9      -2   -154    113    155    191 180.9  39.7  34252  291.15 0854.44
2009/04/23 13:35:01.0     -19   -188    168    189    252 185.8  46.4  34256  291.19 0854.44
2009/04/23 13:35:01.1    -111   -175    219    208    302 212.5  52.0  34278  291.56 0854.44
2009/04/23 13:35:01.2    -219   -131    -26    256    258 239.1  -6.0  34272  291.48 0854.44
2009/04/23 13:35:01.3    -230    -73    -48    242    247 252.3 -11.3  34272  291.46 0854.44
2009/04/23 13:35:01.4    -187   -106     -2    216    217 240.5  -0.7  34268  291.42 0854.44
2009/04/23 13:35:01.5    -233    -47     37    238    241 258.6   9.0  34272  291.46 0854.44
2009/04/23 13:35:01.6    -256    -45     -1    261    262 259.9  -0.3  34268  291.41 0854.44
2009/04/23 13:35:01.7    -317    -51   -100    322    338 260.9 -17.3  34242  290.98 0854.44
2009/04/23 13:35:01.8    -267    -84    -15    281    282 252.5  -3.1  34256  291.21 0854.44
2009/04/23 13:35:01.9    -218   -104    -48    242    247 244.5 -11.3  34250  291.09 0854.44
2009/04/23 13:35:02.0    -112   -195     78    225    239 209.9  19.2  34254  291.17 0854.44
2009/04/23 13:35:02.1    -173   -189     60    257    264 222.5  13.2  34262  291.29 0854.44
2009/04/23 13:35:02.2    -131   -119    -44    178    184 227.8 -13.9  34262  291.32 0854.44
2009/04/23 13:35:02.3    -121   -100    -31    158    162 230.4 -11.1  34264  291.33 0854.44
2009/04/23 13:35:02.4    -120   -191    -28    226    228 212.1  -7.2  34242  290.96 0854.44
2009/04/23 13:35:02.5    -132   -173     -6    218    219 217.4  -1.6  34240  290.94 0854.43
2009/04/23 13:35:02.6    -135   -175    -72    222    234 217.8 -18.1  34244  290.99 0854.43
2009/04/23 13:35:02.7     -76   -161    101    179    205 205.3  31.9  34252  291.15 0854.43
2009/04/23 13:35:02.8    -125   -132     60    183    193 223.4  18.4  34242  290.98 0854.43
2009/04/23 13:35:02.9    -129   -120     20    177    179 227.1   6.5  34242  290.98 0854.43
2009/04/23 13:35:03.0     -42    -66     -5     79     80 212.6  -3.7  34246  291.04 0854.43
2009/04/23 13:35:03.1      79     -1    108     80    134  90.8  60.0  34224  290.65 0854.43
2009/04/23 13:35:03.2      87      6    145     88    169  85.6  66.0  34224  290.67 0854.43
2009/04/23 13:35:03.3     107     -8    145    108    180  94.4  59.8  34250  291.09 0854.43
2009/04/23 13:35:03.4      72    -40    131     83    155 118.9  64.7  34242  290.96 0854.43
2009/04/23 13:35:03.5       1    -86    158     87    180 179.1  68.9  34230  290.75 0854.43
2009/04/23 13:35:03.6     -27   -136     87    139    163 191.5  35.2  34226  290.69 0854.43
2009/04/23 13:35:03.7     -64    -57    -23     87     91 228.2 -15.0  34218  290.57 0854.43
2009/04/23 13:35:03.8     -50     60      8     79     80 320.3   5.9  34218  290.55 0854.43
2009/04/23 13:35:03.9      91     40     62    100    117  66.0  35.0  34238  290.91 0854.43
2009/04/23 13:35:04.0     176     43     87    182    201  76.1  27.2  34244  291.01 0854.43
2009/04/23 13:35:04.1     180     45    108    186    215  75.8  32.9  34244  290.99 0854.43
2009/04/23 13:35:04.2     185     26    157    187    244  81.9  44.3  34232  290.81 0854.43
2009/04/23 13:35:04.3     231     -6    164    232    284  91.7  38.8  34214  290.48 0854.43
2009/04/23 13:35:04.4     180    -83    169    199    261 114.8  44.8  34194  290.15 0854.43
2009/04/23 13:35:04.5     183   -112    179    215    279 121.5  43.8  34200  290.24 0854.42
2009/04/23 13:35:04.6     102   -123    156    161    224 140.4  49.4  34204  290.33 0854.42
2009/04/23 13:35:04.7      17     66    132     69    148  14.3  70.8  34200  290.26 0854.42
2009/04/23 13:35:04.8      14    -61    118     63    133 166.6  69.8  34196  290.19 0854.42
2009/04/23 13:35:04.9     133    -70    127    151    197 118.0  44.5  34210  290.43 0854.42
2009/04/23 13:35:05.0      43    -84     90     95    130 152.8  48.5  34210  290.41 0854.42
2009/04/23 13:35:05.1     105    -57     47    120    128 118.9  22.5  34208  290.40 0854.42
2009/04/23 13:35:05.2      79     -8     36     80     87  96.1  25.7  34204  290.31 0854.42
2009/04/23 13:35:05.3     109    -25     33    113    118 103.3  16.3  34200  290.26 0854.42
2009/04/23 13:35:05.4     180     24     24    182    184  82.3   7.8  34192  290.13 0854.42
2009/04/23 13:35:05.5      65     78    117    102    155  39.7  54.3  34200  290.25 0854.42
2009/04/23 13:35:05.6     113     53    119    126    173  64.7  48.5  34198  290.23 0854.42
2009/04/23 13:35:05.7     106    105     99    150    179  45.1  36.5  34194  290.16 0854.42
2009/04/23 13:35:05.8      68     83    140    108    176  39.2  58.5  34208  290.38 0854.42
2009/04/23 13:35:05.9      91     91    143    129    192  45.1  53.0  34204  290.31 0854.42
2009/04/23 13:35:06.0     176     88    172    197    261  63.4  45.8  34194  290.15 0854.42
2009/04/23 13:35:06.1     196    142    132    243    276  54.0  31.0  34200  290.26 0854.42
2009/04/23 13:35:06.2     154    146    118    213    243  46.4  31.4  34200  290.26 0854.42
2009/04/23 13:35:06.3     195    107    124    223    255  61.1  31.4  34200  290.24 0854.42
2009/04/23 13:35:06.4      66     26    131     72    149  68.3  68.9  34212  290.45 0854.42
2009/04/23 13:35:06.5      24     86    143     90    168  16.0  64.7  34208  290.40 0854.39
2009/04/23 13:35:06.6      44    154    134    161    209  16.0  43.8  34230  290.75 0854.39
2009/04/23 13:35:06.7      -3    238    174    239    295 359.1  39.7  34302  291.99 0854.39
2009/04/23 13:35:06.8     -16    214    160    215    268 355.5  40.4  34306  292.04 0854.39
2009/04/23 13:35:06.9      98    154    185    183    260  32.5  50.1  34258  291.22 0854.39
2009/04/23 13:35:07.0      46    152    151    159    219  16.9  48.5  34344  292.71 0854.39
2009/04/23 13:35:07.1     -36    206    201    210    290 350.0  49.0  34360  292.96 0854.39
2009/04/23 13:35:07.2     -70    244    205    254    326 344.0  43.1  34352  292.84 0854.39
2009/04/23 13:35:07.3    -107    236    192    260    323 335.7  40.2  34352  292.84 0854.39
2009/04/23 13:35:07.4    -123    222    156    255    298 331.0  34.4  34340  292.62 0854.39
2009/04/23 13:35:07.5    -205    279    181    347    391 323.7  29.8  34288  291.76 0854.39
2009/04/23 13:35:07.6    -221    263    192    344    393 320.0  31.6  34280  291.62 0854.39
2009/04/23 13:35:07.7    -229    234    205    328    386 315.6  35.2  34268  291.42 0854.39
2009/04/23 13:35:07.8    -190    241    140    308    338 321.7  26.2  34264  291.34 0854.39
2009/04/23 13:35:07.9    -174    260    188    314    365 326.2  33.7  34266  291.37 0854.39
2009/04/23 13:35:08.0    -140    176    204    225    303 321.5  47.0  34254  291.16 0854.39
2009/04/23 13:35:08.1     -80    275    264    287    389 343.7  47.5  34332  292.48 0854.39
2009/04/23 13:35:08.2    -108    318    240    337    413 341.2  39.0  34298  291.90 0854.39
2009/04/23 13:35:08.3     -18    400    244    401    469 357.3  34.2  34294  291.84 0854.39
2009/04/23 13:35:08.4       4    430    203    431    476   0.6  27.1  34292  291.80 0854.39
2009/04/23 13:35:08.5     -38    328    155    331    365 353.3  27.1  34280  291.61 0854.37
2009/04/23 13:35:08.6      34    247    145    250    289   8.0  32.9  34294  291.84 0854.37
2009/04/23 13:35:08.7      -7    210    177    211    275 358.0  44.3  34266  291.36 0854.37
2009/04/23 13:35:08.8      71    208    255    220    336  18.9  54.9  34290  291.77 0854.37
2009/04/23 13:35:08.9     278    162    194    323    376  59.7  33.7  34342  292.65 0854.37
2009/04/23 13:35:09.0     357    265    302    445    537  53.4  37.4  34292  291.81 0854.37
2009/04/23 13:35:09.1     310    351    373    469    599  41.4  42.7  34262  291.31 0854.37
2009/04/23 13:35:09.2     405    175    366    442    573  66.6  43.8  34274  291.52 0854.37
2009/04/23 13:35:09.3     256    152    189    299    353  59.3  35.5  34280  291.61 0854.37
2009/04/23 13:35:09.4     240    187    154    305    341  52.2  28.9  34278  291.57 0854.37
2009/04/23 13:35:09.5     308    125    156    333    367  67.8  27.1  34256  291.20 0854.37
2009/04/23 13:35:09.6     269    142    235    305    385  62.2  41.6  34282  291.66 0854.37
2009/04/23 13:35:09.7     379    157    195    411    454  67.4  27.2  34282  291.65 0854.37
2009/04/23 13:35:09.8     602    190    152    632    651  72.4  13.6  34278  291.57 0854.37
2009/04/23 13:35:09.9     591    230    108    635    645  68.7   9.7  34264  291.33 0854.37
2009/04/23 13:35:10.0     649    288    309    711    775  66.1  25.1  34288  291.74 0854.37
2009/04/23 13:35:10.1     662    448    286    800    850  55.9  19.7  34270  291.45 0854.37
2009/04/23 13:35:10.2     715    464    123    853    862  57.0   8.2  34264  291.33 0854.37
2009/04/23 13:35:10.3     667    318    198    740    766  64.5  15.0  34256  291.19 0854.37
2009/04/23 13:35:10.4     728     79     87    733    739  83.8   6.8  34254  291.18 0854.37
2009/04/23 13:35:10.5     348    315     74    470    476  47.9   9.0  34224  290.66 0854.42
2009/04/23 13:35:10.6     451    357     35    576    578  51.6   3.5  34246  291.04 0854.42
2009/04/23 13:35:10.7     421    337     39    540    542  51.4   4.2  34224  290.67 0854.42
2009/04/23 13:35:10.8     460    237     62    518    522  62.7   6.9  34234  290.82 0854.42
2009/04/23 13:35:10.9     342    273    154    438    465  51.4  19.4  34244  290.99 0854.42
2009/04/23 13:35:11.0     370    175     93    410    421  64.6  12.9  34258  291.23 0854.42
2009/04/23 13:35:11.1     420    168     40    453    455  68.2   5.1  34280  291.60 0854.42
2009/04/23 13:35:11.2     173    204    109    268    289  40.3  23.1  34308  292.07 0854.42
2009/04/23 13:35:11.3     287    190    210    345    403  56.5  34.3  34294  291.85 0854.42
2009/04/23 13:35:11.4     387     86    174    397    433  77.4  25.2  34260  291.26 0854.42
2009/04/23 13:35:11.5     532    128    118    548    561  76.5  12.2  34258  291.25 0854.42
2009/04/23 13:35:11.6     473    186    177    509    539  68.5  19.2  34266  291.37 0854.42
2009/04/23 13:35:11.7     527    250    104    584    594  64.6  10.1  34260  291.26 0854.42
2009/04/23 13:35:11.8     260    245     77    358    367  46.7  12.2  34268  291.39 0854.42
2009/04/23 13:35:11.9     209    208   -100    296    313  45.1 -18.7  34254  291.17 0854.42
2009/04/23 13:35:12.0     294    117    -87    317    329  68.2 -15.4  34252  291.14 0854.42
2009/04/23 13:35:12.1     243    120    110    272    293  63.6  23.1  34252  291.14 0854.42
2009/04/23 13:35:12.2     197    101    107    222    246  62.9  27.3  34248  291.05 0854.42
2009/04/23 13:35:12.3     119     70    115    139    180  59.4  43.8  34242  290.96 0854.42
2009/04/23 13:35:12.4     100     41    160    109    193  67.4  62.8  34242  290.98 0854.42
2009/04/23 13:35:12.5      -1    -11     99     12     99 188.0  90.0  34256  291.20 0854.45
2009/04/23 13:35:12.6      -7     24     88     26     91 343.1  82.8  34242  290.96 0854.45
2009/04/23 13:35:12.7    -128    151     94    199    220 319.7  27.1  34244  290.99 0854.45
2009/04/23 13:35:12.8    -222    131    -77    259    271 300.6 -16.6  34228  290.73 0854.45
2009/04/23 13:35:12.9    -185     64    -91    196    216 289.1 -31.4  34226  290.69 0854.45
2009/04/23 13:35:13.0    -234     17    -94    235    253 274.4 -27.4  34228  290.73 0854.45
2009/04/23 13:35:13.1    -364     -8   -189    365    411 268.7 -33.9  34242  290.98 0854.45
2009/04/23 13:35:13.2    -372    -82   -197    382    429 257.5 -33.7  34248  291.06 0854.45
2009/04/23 13:35:13.3    -198     45   -169    204    264 282.8 -48.2  34242  290.95 0854.45
2009/04/23 13:35:13.4     -93    -83   -138    126    186 228.2 -57.1  34242  290.98 0854.45
2009/04/23 13:35:13.5       3    -48    -78     49     92 176.4 -69.1  34242  290.98 0854.40
2009/04/23 13:35:13.6      34    -58    -38     68     77 149.3 -35.8  34246  291.03 0854.40
2009/04/23 13:35:13.7      83    -15    -34     85     91 100.6 -26.9  34244  290.99 0854.40
2009/04/23 13:35:13.8      74     86     66    114    131  41.0  32.9  34246  291.04 0854.40
2009/04/23 13:35:13.9     105     -3     61    106    122  91.7  32.4  34250  291.09 0854.40
2009/04/23 13:35:14.0     153    -31     33    157    161 101.5  12.2  34248  291.06 0854.40
2009/04/23 13:35:14.1     172    -13      9    173    174  94.6   3.3  34248  291.06 0854.40
2009/04/23 13:35:14.2     104   -104     77    148    166 135.0  29.3  34244  290.99 0854.40
2009/04/23 13:35:14.3      38    -93    119    101    156 157.7  55.4  34242  290.96 0854.40
2009/04/23 13:35:14.4      62    -75    121     98    155 140.4  56.4  34240  290.92 0854.40
2009/04/23 13:35:14.5     118    -42    167    126    209 110.0  59.2  34242  290.96 0854.40
2009/04/23 13:35:14.6      24    -41    150     48    157 149.3  81.8  34246  291.03 0854.40
2009/04/23 13:35:14.7      19    -11    101     23    103 120.7  87.5  34246  291.04 0854.40
2009/04/23 13:35:14.8      96      3    131     97    163  87.9  60.0  34246  291.04 0854.40
2009/04/23 13:35:14.9      35    -22    177     42    181 122.5  86.9  34240  290.94 0854.40
2009/04/23 13:35:15.0     127    -75    153    148    212 120.7  50.7  34244  290.99 0854.40
2009/04/23 13:35:15.1      14    -26    178     30    180 151.0  90.0  34248  291.06 0854.40
2009/04/23 13:35:15.2     -72    -94     87    119    147 217.4  39.7  34248  291.06 0854.40
2009/04/23 13:35:15.3    -209    -56     67    217    228 254.9  17.3  34246  291.04 0854.40
2009/04/23 13:35:15.4     -11    -79    127     80    150 188.5  64.7  34246  291.03 0854.40
2009/04/23 13:35:15.5     -12   -244    215    245    325 182.9  45.8  34242  290.97 0854.37
2009/04/23 13:35:15.6     -15   -209    234    210    314 184.2  53.6  34244  291.00 0854.37
2009/04/23 13:35:15.7     -70   -166    260    181    316 202.9  62.0  34244  291.00 0854.37
2009/04/23 13:35:15.8     -75   -225    227    238    328 198.5  48.7  34246  291.02 0854.37
2009/04/23 13:35:15.9     -25   -243    205    245    319 186.0  44.3  34242  290.97 0854.37
2009/04/23 13:35:16.0      31   -255    201    257    326 172.9  42.1  34242  290.95 0854.37
2009/04/23 13:35:16.1    -188   -330    167    380    415 209.7  25.2  34262  291.31 0854.37
2009/04/23 13:35:16.2    -123   -291    181    317    365 202.9  32.4  34262  291.30 0854.37
2009/04/23 13:35:16.3     -42   -299    197    303    361 188.0  36.0  34250  291.11 0854.37
2009/04/23 13:35:16.4     -41   -293    181    296    346 188.0  34.4  34248  291.05 0854.37
2009/04/23 13:35:16.5     -87   -320    203    332    389 195.3  34.6  34242  290.96 0854.37
2009/04/23 13:35:16.6      -8   -343    193    344    394 181.5  31.7  34242  290.98 0854.37
2009/04/23 13:35:16.7      22   -341    228    342    411 176.3  36.9  34240  290.93 0854.37
2009/04/23 13:35:16.8      12   -431    255    432    501 178.4  33.4  34236  290.86 0854.37
2009/04/23 13:35:16.9      23   -365    317    366    484 176.3  45.4  34238  290.89 0854.37
2009/04/23 13:35:17.0     120   -550    330    564    653 167.6  33.1  34214  290.48 0854.37
2009/04/23 13:35:17.1     121   -389    335    408    527 162.7  43.7  34222  290.64 0854.37
2009/04/23 13:35:17.2      59   -156    269    167    316 159.3  65.3  34222  290.61 0854.37
2009/04/23 13:35:17.3     223   -222    306    315    439 134.9  49.2  34212  290.44 0854.37
2009/04/23 13:35:17.4     324   -313    306    451    545 134.0  37.4  34212  290.47 0854.37
2009/04/23 13:35:17.5     195   -280    189    342    390 145.2  31.4  34206  290.35 0854.31
2009/04/23 13:35:17.6     388   -508    307    640    709 142.6  27.4  34192  290.12 0854.31
2009/04/23 13:35:17.7     430   -317    160    535    559 126.4  16.7  34214  290.48 0854.31
2009/04/23 13:35:17.8     178   -251    122    308    331 144.6  22.9  34214  290.48 0854.31
2009/04/23 13:35:17.9       0   -270    149    271    309 180.1  31.3  34216  290.51 0854.31
2009/04/23 13:35:18.0    -126   -288    150    315    348 203.6  27.3  34218  290.55 0854.31
2009/04/23 13:35:18.1     -76   -207     92    221    239 200.3  23.8  34222  290.63 0854.31
2009/04/23 13:35:18.2     -97   -177    -17    202    203 208.7  -5.1  34222  290.62 0854.31
2009/04/23 13:35:18.3     397   -277      1    485    486 124.9   0.2  34222  290.64 0854.31
2009/04/23 13:35:18.4     -11   -548    209    549    587 181.2  22.0  34204  290.32 0854.31
2009/04/23 13:35:18.5     135   -531    419    548    689 165.7  41.3  34208  290.40 0854.31
2009/04/23 13:35:18.6     544   -725    334    907    966 143.1  21.1  34212  290.44 0854.31
2009/04/23 13:35:18.7     528   -734    197    905    927 144.3  12.3  34192  290.11 0854.31
2009/04/23 13:35:18.8     256   -562    245    618    664 155.5  22.9  34178  289.87 0854.31
2009/04/23 13:35:18.9     148   -763    459    778    903 169.0  33.3  34190  290.07 0854.31
2009/04/23 13:35:19.0      43   -689    267    691    740 176.4  22.2  34192  290.13 0854.31
2009/04/23 13:35:19.1      34   -628    112    630    640 176.9  10.1  34202  290.30 0854.31
2009/04/23 13:35:19.2     198   -463   -199    504    541 156.8 -27.3  34198  290.23 0854.31
2009/04/23 13:35:19.3     302   -437    -83    532    539 145.4  -8.9  34196  290.19 0854.31
2009/04/23 13:35:19.4     494   -207    115    536    549 112.7  12.2  34204  290.31 0854.31
2009/04/23 13:35:19.5     344   -151    117    376    394 113.7  17.3  34196  290.18 0854.31
2009/04/23 13:35:19.6     315   -155     12    352    353 116.3   2.1  34210  290.43 0854.31
2009/04/23 13:35:19.7     193    -64    -43    204    209 108.4 -11.9  34218  290.55 0854.31
2009/04/23 13:35:19.8     305      1    -90    306    318  89.6 -21.4  34210  290.41 0854.31
2009/04/23 13:35:19.9     611     18    -79    612    617  88.3  -7.4  34250  291.10 0854.31
2009/04/23 13:35:20.0     452   -363    325    581    665 128.8  31.7  34202  290.30 0854.31
2009/04/23 13:35:20.1     362   -472    336    596    684 142.5  31.9  34190  290.09 0854.31
2009/04/23 13:35:20.2     283   -444      6    527    528 147.5   0.7  34208  290.38 0854.31
2009/04/23 13:35:20.3     194   -601    224    632    671 162.1  19.5  34192  290.12 0854.31
2009/04/23 13:35:20.4     109   -539     34    550    552 168.5   3.6  34192  290.13 0854.31
2009/04/23 13:35:20.5     151   -396    222    425    479 159.1  29.8  34198  290.21 0854.31
2009/04/23 13:35:20.6      62   -276     73    283    293 167.3  14.5  34202  290.29 0854.31
2009/04/23 13:35:20.7     133   -242     70    277    286 151.3  14.3  34204  290.32 0854.31
2009/04/23 13:35:20.8     104   -381    130    396    417 164.7  18.2  34196  290.17 0854.31
2009/04/23 13:35:20.9     303   -313     45    436    439 135.9   6.0  34194  290.14 0854.31
2009/04/23 13:35:21.0     173   -232     45    290    294 143.3   8.8  34210  290.41 0854.31
2009/04/23 13:35:21.1     123   -204     52    239    245 149.0  12.4  34208  290.37 0854.31
2009/04/23 13:35:21.2      70   -220     30    232    234 162.2   7.5  34204  290.32 0854.31
2009/04/23 13:35:21.3      41   -186     26    191    193 167.5   7.8  34206  290.35 0854.31
2009/04/23 13:35:21.4      14   -137     29    138    142 173.8  12.2  34202  290.30 0854.32
2009/04/23 13:35:21.6     -66   -110    -73    129    148 210.8 -36.3  34204  290.33 0854.32
2009/04/23 13:35:21.6     -89    -84    -29    123    127 226.4 -13.4  34210  290.41 0854.32
2009/04/23 13:35:21.8     -45   -161   -136    168    216 195.8 -47.9  34206  290.36 0854.32
2009/04/23 13:35:21.9     -95   -287   -159    303    342 198.5 -34.4  34210  290.42 0854.32
2009/04/23 13:35:21.9     -13   -369   -160    370    403 182.1 -29.5  34208  290.38 0854.32
2009/04/23 13:35:22.1     -66   -149   -177    164    241 204.1 -56.6  34208  290.38 0854.32
2009/04/23 13:35:22.2    -169    -80      0    188    189 244.7   0.2  34208  290.38 0854.32
2009/04/23 13:35:22.3    -162     65     20    175    177 292.0   6.7  34212  290.47 0854.32
2009/04/23 13:35:22.4    -152    151    167    215    272 314.9  41.7  34214  290.48 0854.32
2009/04/23 13:35:22.5    -187     99    209    212    297 298.0  49.9  34214  290.49 0854.32
2009/04/23 13:35:22.6    -171    -29    111    174    206 260.1  35.5  34208  290.38 0854.32
2009/04/23 13:35:22.7     -41     26    106     49    116 302.4  73.1  34214  290.48 0854.32
2009/04/23 13:35:22.8      16     16    130     23    132  45.0  90.0  34218  290.57 0854.32
2009/04/23 13:35:22.9       0    -96     83     97    127 180.5  45.4  34218  290.57 0854.32
2009/04/23 13:35:23.0       7    -88    108     89    139 175.1  56.4  34226  290.70 0854.32
2009/04/23 13:35:23.1      31   -147    103    151    182 168.0  37.6  34216  290.52 0854.32
2009/04/23 13:35:23.2     -11   -106    110    107    153 186.2  50.2  34220  290.58 0854.32
2009/04/23 13:35:23.3      30    -84     83     90    122 160.4  47.9  34222  290.62 0854.32
2009/04/23 13:35:23.4      21    -63     66     67     94 161.3  50.5  34218  290.57 0854.32
2009/04/23 13:35:23.5       1    -26     76     27     80 177.3  80.2  34224  290.65 0854.39
2009/04/23 13:35:23.6     -43   -132     27    140    143 198.3  11.1  34216  290.52 0854.39
2009/04/23 13:35:23.7     -62   -171     31    182    185 200.0   9.9  34216  290.52 0854.39
2009/04/23 13:35:23.8     -11   -147     45    148    155 184.5  17.1  34218  290.55 0854.39
2009/04/23 13:35:23.9     -59    -62     96     86    128 223.7  53.3  34218  290.55 0854.39
2009/04/23 13:35:24.0     -20     24    106     32    110 320.3  82.8  34226  290.69 0854.39
2009/04/23 13:35:24.1    -130      0     89    131    158 270.0  37.6  34216  290.52 0854.39
2009/04/23 13:35:24.2    -149    -30    -52    152    161 258.5 -19.1  34204  290.33 0854.39
2009/04/23 13:35:24.3    -132     -4      5    133    134 267.9   2.3  34202  290.30 0854.39
2009/04/23 13:35:24.4     -41      2     82     42     92 273.5  71.4  34212  290.45 0854.39
2009/04/23 13:35:24.5     -38      7    114     39    120 281.5  81.2  34214  290.50 0854.39
2009/04/23 13:35:24.6     -83     72    131    111    171 310.9  55.6  34220  290.60 0854.39
2009/04/23 13:35:24.7     -69    -23     82     73    109 251.4  53.7  34220  290.58 0854.39
2009/04/23 13:35:24.8    -114   -157     27    195    197 216.1   8.0  34216  290.53 0854.39
2009/04/23 13:35:24.9    -141   -130     66    192    204 227.3  18.9  34214  290.50 0854.39
2009/04/23 13:35:25.0    -124   -150     20    195    197 219.7   5.9  34212  290.47 0854.39
2009/04/23 13:35:25.1     -89   -311     44    324    327 196.0   7.8  34204  290.31 0854.39
2009/04/23 13:35:25.2    -115   -233     71    260    270 206.3  15.3  34206  290.36 0854.39
2009/04/23 13:35:25.3    -167   -146     23    222    224 228.9   6.1  34204  290.31 0854.39
2009/04/23 13:35:25.4    -184   -126     75    224    237 235.6  18.6  34204  290.33 0854.39
2009/04/23 13:35:25.5    -191    -38     14    195    196 258.6   4.4  34208  290.40 0854.43
2009/04/23 13:35:25.6    -128   -106      0    167    168 230.2   0.2  34208  290.38 0854.43
2009/04/23 13:35:25.7    -225   -141     51    266    271 237.8  11.0  34210  290.41 0854.43
2009/04/23 13:35:25.8    -186   -153     56    242    249 230.5  13.2  34204  290.31 0854.43
2009/04/23 13:35:25.9    -112    -49    133    123    181 246.5  52.2  34208  290.40 0854.43
2009/04/23 13:35:26.0    -108   -133    148    172    226 219.0  45.1  34208  290.40 0854.43
2009/04/23 13:35:26.1    -111   -193     11    223    224 209.9   2.9  34208  290.40 0854.43
2009/04/23 13:35:26.2    -115   -188    126    221    254 211.4  32.3  34208  290.37 0854.43
2009/04/23 13:35:26.3    -122   -143     50    189    196 220.5  15.0  34210  290.43 0854.43
2009/04/23 13:35:26.4     -67    -99    108    120    161 214.3  46.9  34208  290.40 0854.43
2009/04/23 13:35:26.5       8    -87     69     88    111 174.2  42.7  34208  290.38 0854.43
2009/04/23 13:35:26.6      74   -129    139    149    203 150.1  48.0  34210  290.43 0854.43
2009/04/23 13:35:26.7      38   -203    136    207    247 169.3  36.5  34210  290.41 0854.43
2009/04/23 13:35:26.8      30   -425     89    427    437 175.9  11.8  34206  290.34 0854.43
2009/04/23 13:35:26.9     -42   -356    153    359    390 186.8  24.5  34218  290.54 0854.43
2009/04/23 13:35:27.0     -79   -382    109    391    406 191.8  15.6  34210  290.43 0854.43
2009/04/23 13:35:27.1     -56   -314    156    320    356 190.2  28.0  34208  290.40 0854.43
2009/04/23 13:35:27.2     -63   -234    119    243    270 195.1  27.8  34210  290.42 0854.43
2009/04/23 13:35:27.3     -35   -280     66    283    291 187.2  13.2  34210  290.41 0854.43
2009/04/23 13:35:27.4     -80   -263     54    275    281 196.9  11.1  34206  290.34 0854.43
2009/04/23 13:35:27.5    -152   -260    105    302    320 210.3  19.3  34206  290.34 0854.44
2009/04/23 13:35:27.6    -113   -352    165    370    405 197.8  25.7  34208  290.38 0854.44
2009/04/23 13:35:27.7     -26   -406     38    407    409 183.7   5.4  34210  290.43 0854.44
2009/04/23 13:35:27.8     -86   -309     23    321    322 195.6   4.2  34202  290.27 0854.44
2009/04/23 13:35:27.9      -3   -348    174    349    389 180.5  28.4  34214  290.49 0854.44
2009/04/23 13:35:28.0      -7   -488    263    489    555 180.9  30.6  34198  290.23 0854.44
2009/04/23 13:35:28.1     -32   -326    138    328    355 185.7  24.2  34198  290.21 0854.44
2009/04/23 13:35:28.2     -71   -496    147    502    524 188.2  16.3  34202  290.27 0854.44
2009/04/23 13:35:28.3    -147   -563    180    582    610 194.7  17.2  34194  290.15 0854.44
2009/04/23 13:35:28.4    -130   -515    192    532    565 194.2  20.8  34198  290.23 0854.44
2009/04/23 13:35:28.5    -133   -541    200    558    592 193.8  20.6  34200  290.24 0854.44
2009/04/23 13:35:28.6    -133   -492     87    510    518 195.2   9.7  34198  290.22 0854.44
2009/04/23 13:35:28.7    -118   -349     20    369    370 198.8   3.2  34198  290.23 0854.44
2009/04/23 13:35:28.8     -18   -255    152    256    297 184.2  33.5  34200  290.26 0854.44
2009/04/23 13:35:28.9      12   -159    166    160    230 175.6  51.2  34198  290.21 0854.44
2009/04/23 13:35:29.0       0   -269    194    270    332 180.0  39.5  34202  290.27 0854.44
2009/04/23 13:35:29.1     -46   -314    196    318    373 188.5  34.8  34204  290.33 0854.44
2009/04/23 13:35:29.2     -27   -296    229    298    375 185.3  41.4  34202  290.30 0854.44
2009/04/23 13:35:29.3       0   -270    229    271    354 180.0  44.5  34202  290.28 0854.44
2009/04/23 13:35:29.4      47   -331    200    335    390 171.8  33.6  34202  290.27 0854.44
2009/04/23 13:35:29.5      42   -268    225    272    353 171.1  43.7  34202  290.29 0854.41
2009/04/23 13:35:29.6     109   -326    103    344    360 161.4  16.7  34202  290.28 0854.41
2009/04/23 13:35:29.7     106   -394     58    409    414 164.9   8.1  34194  290.16 0854.41
2009/04/23 13:35:29.8     -72   -323     98    332    347 192.6  16.5  34202  290.30 0854.41
2009/04/23 13:35:29.9     -86   -393    101    403    416 192.4  14.2  34202  290.28 0854.41
2009/04/23 13:35:30.0    -219   -399    149    456    480 208.8  18.2  34202  290.29 0854.41
2009/04/23 13:35:30.1    -150   -340     48    372    376 203.9   7.4  34198  290.23 0854.41
2009/04/23 13:35:30.2     -97   -244     73    263    274 201.9  15.6  34202  290.27 0854.41
2009/04/23 13:35:30.3      44   -275    129    279    307 170.9  27.1  34204  290.32 0854.41
2009/04/23 13:35:30.4      94   -295    221    310    380 162.2  39.1  34204  290.32 0854.41
2009/04/23 13:35:30.5       8   -333    228    334    404 178.5  37.6  34208  290.38 0854.41
2009/04/23 13:35:30.6       9   -329    224    330    398 178.4  37.4  34206  290.35 0854.41
2009/04/23 13:35:30.7      67   -284    201    292    354 166.6  37.8  34208  290.38 0854.41
2009/04/23 13:35:30.8      -6   -326    119    327    347 181.1  20.8  34204  290.33 0854.41
2009/04/23 13:35:30.9      42   -293     92    297    312 171.8  17.3  34204  290.31 0854.41
2009/04/23 13:35:31.0      88   -138    159    164    228 147.5  49.2  34210  290.41 0854.41
2009/04/23 13:35:31.1     155   -206    216    259    337 143.0  44.0  34210  290.42 0854.41
2009/04/23 13:35:31.2     149   -307    123    342    363 154.0  20.7  34210  290.42 0854.41
2009/04/23 13:35:31.3     175   -361    120    402    420 154.1  16.7  34208  290.38 0854.41
2009/04/23 13:35:31.4     121   -246    196    275    337 153.7  39.1  34202  290.29 0854.41
2009/04/23 13:35:31.5      71   -171    202    186    274 157.5  52.7  34216  290.51 0854.31
2009/04/23 13:35:31.6     144   -129    169    194    257 132.0  45.8  34212  290.46 0854.31
2009/04/23 13:35:31.7     179   -100     18    206    207 119.1   5.2  34214  290.48 0854.31
2009/04/23 13:35:31.8     200    -31     18    203    204  99.0   5.2  34216  290.52 0854.31
2009/04/23 13:35:31.9     215      2      8    216    217  89.4   2.3  34212  290.47 0854.31
2009/04/23 13:35:32.0     142   -102     61    175    186 125.7  19.2  34212  290.45 0854.31
2009/04/23 13:35:32.1      50   -148     30    157    160 161.3  10.8  34214  290.48 0854.31
2009/04/23 13:35:32.2      55   -167     56    176    185 161.7  17.9  34204  290.31 0854.31
2009/04/23 13:35:32.3      99   -301    153    318    352 161.7  27.4  34202  290.28 0854.31
2009/04/23 13:35:32.4     -32   -211    187    214    284 188.7  45.8  34208  290.39 0854.31
2009/04/23 13:35:32.5     -61   -303    169    310    353 191.5  30.9  34208  290.38 0854.31
2009/04/23 13:35:32.6     -86   -143    125    168    209 211.0  40.4  34208  290.40 0854.31
2009/04/23 13:35:32.7     -45    -54    109     71    130 219.7  64.1  34214  290.48 0854.31
2009/04/23 13:35:32.8      67   -114    119    133    178 149.7  46.9  34204  290.33 0854.31
2009/04/23 13:35:32.9     -15   -186    126    187    225 184.9  37.3  34210  290.43 0854.31
2009/04/23 13:35:33.0       9   -218    128    219    253 177.5  32.9  34212  290.46 0854.31
2009/04/23 13:35:33.1     -72   -190    200    204    285 200.7  49.9  34208  290.39 0854.31
2009/04/23 13:35:33.2    -176   -213     33    277    280 219.6   6.9  34208  290.39 0854.31
2009/04/23 13:35:33.3    -155   -239    182    286    338 213.0  35.5  34210  290.42 0854.31
2009/04/23 13:35:33.4     -96   -171    235    197    306 209.2  56.1  34214  290.49 0854.31
2009/04/23 13:35:33.5    -152    -88    119    176    212 239.8  37.3  34218  290.55 0854.28
2009/04/23 13:35:33.6     -10    -44    148     46    154 193.4  81.2  34222  290.62 0854.28
2009/04/23 13:35:33.7      38    -78    178     87    198 153.7  72.1  34216  290.52 0854.28
2009/04/23 13:35:33.8     -28   -179    302    182    352 189.1  66.3  34222  290.61 0854.28
2009/04/23 13:35:33.9     -71   -272    321    282    427 194.7  54.3  34210  290.42 0854.28
2009/04/23 13:35:34.0    -120   -306    217    329    394 201.4  36.5  34212  290.45 0854.28
2009/04/23 13:35:34.1     -70   -256    272    266    380 195.4  50.6  34210  290.43 0854.28
2009/04/23 13:35:34.2    -124   -313    265    337    428 201.7  42.1  34212  290.45 0854.28
2009/04/23 13:35:34.3    -166   -164    229    234    327 225.3  49.4  34220  290.58 0854.28
2009/04/23 13:35:34.4    -292   -186    203    347    402 237.5  33.0  34224  290.67 0854.28
2009/04/23 13:35:34.5    -307   -139    174    338    380 245.6  29.3  34228  290.74 0854.29
2009/04/23 13:35:34.6    -188    -94    195    211    287 243.4  47.9  34246  291.02 0854.29
2009/04/23 13:35:34.7    -127    -32    124    131    180 255.8  48.2  34292  291.83 0854.29
2009/04/23 13:35:34.8      35    104    170    110    202  18.7  64.4  34278  291.57 0854.29
2009/04/23 13:35:34.9     -47    248    210    253    328 349.3  43.8  34288  291.75 0854.29
2009/04/23 13:35:35.0     111    474     46    487    490  13.3   5.4  34272  291.47 0854.29
2009/04/23 13:35:35.1      39    297    283    300    412   7.6  48.0  34270  291.45 0854.29
2009/04/23 13:35:35.2     162    356    138    392    415  24.4  20.1  34260  291.28 0854.29
2009/04/23 13:35:35.3      20    266    145    267    303   4.5  31.0  34268  291.41 0854.29
2009/04/23 13:35:35.4     -58    402    193    407    450 351.7  27.3  34262  291.29 0854.29
2009/04/23 13:35:35.5      44    438    189    441    479   5.8  24.6  34258  291.22 0854.29
2009/04/23 13:35:35.6     138    300    269    331    426  24.7  43.5  34274  291.52 0854.29
2009/04/23 13:35:35.7      31    437    265    439    512   4.1  34.0  34286  291.71 0854.29
2009/04/23 13:35:35.8       7    308    199    309    367   1.4  35.7  34288  291.74 0854.29
2009/04/23 13:35:35.9     -39    350    181    353    396 353.5  29.3  34274  291.51 0854.29
2009/04/23 13:35:36.0     -32    411    178    413    449 355.5  24.9  34272  291.46 0854.29
2009/04/23 13:35:36.1      -4    302     59    303    309 359.1  11.1  34298  291.90 0854.29
2009/04/23 13:35:36.2      67    232     35    242    245  16.3   8.2  34310  292.13 0854.29
2009/04/23 13:35:36.3     136    257    102    291    308  27.9  20.0  34312  292.14 0854.29
2009/04/23 13:35:36.4      16    241     52    242    248   4.0  12.1  34276  291.55 0854.29
2009/04/23 13:35:36.5      -1    213     73    214    227 359.5  18.9  34276  291.55 0854.28
2009/04/23 13:35:36.6     126    143      8    191    192  41.4   2.5  34318  292.27 0854.28
2009/04/23 13:35:36.7       3    160     17    161    162   1.4   6.1  34298  291.91 0854.28
2009/04/23 13:35:36.8     -36     55     77     66    101 326.6  55.4  34298  291.93 0854.28
2009/04/23 13:35:36.9     -52     83     82     98    127 327.9  43.8  34304  292.01 0854.28
2009/04/23 13:35:37.0     -38    141    113    147    185 344.8  41.7  34314  292.20 0854.28
2009/04/23 13:35:37.1      -9    123    115    124    169 355.6  47.9  34316  292.23 0854.28
2009/04/23 13:35:37.2      97     -9     98     98    138  95.7  50.1  34302  292.00 0854.28
2009/04/23 13:35:37.3      28     70     58     76     95  21.8  41.7  34304  292.03 0854.28
2009/04/23 13:35:37.4     -23    -72     64     76     99 198.3  44.3  34280  291.62 0854.28
2009/04/23 13:35:37.5     -58    -98     69    115    134 210.7  34.4  34232  290.79 0854.28
2009/04/23 13:35:37.6     -98   -120     89    156    179 219.2  32.1  34218  290.55 0854.28
2009/04/23 13:35:37.7     -64   -173     74    185    199 200.5  23.0  34216  290.52 0854.28
2009/04/23 13:35:37.8     -88   -153    102    177    204 209.9  32.7  34214  290.50 0854.28
2009/04/23 13:35:37.9     -73    -88    100    115    152 219.6  45.8  34212  290.45 0854.28
2009/04/23 13:35:38.0     -31    -34    111     47    120 222.3  75.5  34222  290.62 0854.28
2009/04/23 13:35:38.1       7    -24     89     26     92 163.1  83.3  34220  290.60 0854.28
2009/04/23 13:35:38.2      17    -40     71     44     83 156.4  65.7  34222  290.62 0854.28
2009/04/23 13:35:38.3     -23    -67     43     71     83 199.2  34.0  34222  290.64 0854.28
2009/04/23 13:35:38.4     -52    -91     13    106    107 209.9   7.5  34224  290.65 0854.28
2009/04/23 13:35:38.5    -107    -52     62    120    135 243.8  29.3  34222  290.62 0854.22
2009/04/23 13:35:38.6    -128     14     48    129    137 276.6  21.0  34224  290.67 0854.22
2009/04/23 13:35:38.7    -175     32     71    178    191 280.4  23.0  34224  290.67 0854.22
2009/04/23 13:35:38.8    -176    -10     51    177    185 266.5  16.3  34230  290.75 0854.22
2009/04/23 13:35:38.9    -202    -11    -26    203    205 266.7  -7.5  34230  290.75 0854.22
2009/04/23 13:35:39.0     -83    -86     60    120    134 224.2  28.7  34234  290.84 0854.22
2009/04/23 13:35:39.1      21    -32    107     39    113 145.7  80.2  34240  290.94 0854.22
2009/04/23 13:35:39.2      63    -55     68     84    108 131.3  43.7  34238  290.89 0854.22
2009/04/23 13:35:39.3     124    -10     68    125    142  94.8  31.3  34244  290.99 0854.22
2009/04/23 13:35:39.4     110    -16     87    112    141  98.4  41.7  34246  291.04 0854.22
2009/04/23 13:35:39.5     153      2    152    154    216  89.1  49.9  34252  291.15 0854.22
2009/04/23 13:35:39.6     169    -57     94    179    202 108.6  29.8  34258  291.25 0854.22
2009/04/23 13:35:39.7     365    -44    165    368    403  97.0  25.9  34262  291.32 0854.22
2009/04/23 13:35:39.8     497     84     43    505    507  80.4   5.0  34218  290.56 0854.22
2009/04/23 13:35:39.9     -17   -123    223    125    255 188.0  68.5  34216  290.53 0854.22
2009/04/23 13:35:40.0     -68   -473    159    478    504 188.3  18.4  34196  290.18 0854.22
2009/04/23 13:35:40.1    -109   -704    378    713    807 188.8  30.2  34216  290.51 0854.22
2009/04/23 13:35:40.2    -160   -722    164    740    759 192.5  12.5  34190  290.07 0854.22
2009/04/23 13:35:40.3    -637   -709    -76    954    958 221.9  -4.6  34206  290.34 0854.22
2009/04/23 13:35:40.4    -309   -569    -67    648    652 208.5  -6.0  34188  290.04 0854.22
2009/04/23 13:35:40.5    -193   -404   -123    448    465 205.6 -15.4  34196  290.19 0854.21
2009/04/23 13:35:40.6     287   -562    -84    632    638 152.9  -7.6  34196  290.18 0854.21
2009/04/23 13:35:40.7     164   -700     28    720    721 166.8   2.2  34188  290.03 0854.21
2009/04/23 13:35:40.8      13   -570    177    571    598 178.6  17.3  34182  289.93 0854.21
2009/04/23 13:35:40.9     409   -774    -58    876    878 152.1  -3.8  34172  289.77 0854.21
2009/04/23 13:35:41.0     150   -940   -264    953    989 170.9 -15.5  34180  289.91 0854.21
2009/04/23 13:35:41.1     244   -932    -92    964    969 165.3  -5.5  34170  289.75 0854.21
2009/04/23 13:35:41.2      82   -671    -80    677    682 173.0  -6.8  34180  289.90 0854.21
2009/04/23 13:35:41.3      70   -918   -246    921    954 175.6 -15.0  34190  290.07 0854.21
2009/04/23 13:35:41.4      51   -987   -357    989   1051 177.0 -25.3  34158  289.55 0854.21
2009/04/23 13:35:41.5      37   -868   -184    869    889 177.5 -12.0  34178  289.86 0854.21
2009/04/23 13:35:41.6     108   -908   -222    915    942 173.2 -13.7  34152  289.44 0854.21
2009/04/23 13:35:41.7    -163   -640      3    661    662 194.3   0.3  34166  289.68 0854.21
2009/04/23 13:35:41.8    -289   -743   -269    798    842 201.3 -23.7  34184  289.97 0854.21
2009/04/23 13:35:41.9    -521   -939   -300   1075   1116 209.0 -20.2  34168  289.72 0854.21
2009/04/23 13:35:42.0    -411   -608   -145    735    750 214.1 -11.2  34152  289.45 0854.21
2009/04/23 13:35:42.1    -650   -817   -202   1044   1064 218.5 -11.0  34140  289.22 0854.21
2009/04/23 13:35:42.2    -619   -807   -531   1018   1148 217.5 -34.2  34174  289.82 0854.21
2009/04/23 13:35:42.3    -530   -688   -257    869    907 217.6 -16.5  34164  289.64 0854.21
2009/04/23 13:35:42.4    -248   -785   -352    824    896 197.5 -29.0  34150  289.40 0854.21
2009/04/23 13:35:42.5    -328   -804   -151    869    883 202.2  -9.9  34156  289.52 0854.25
2009/04/23 13:35:42.6    -365   -618   -235    718    756 210.6 -18.2  34148  289.38 0854.25
2009/04/23 13:35:42.7    -424   -752   -309    864    917 209.4 -25.0  34148  289.36 0854.25
2009/04/23 13:35:42.8    -511   -383    -85    639    645 233.2  -7.6  34158  289.53 0854.25
2009/04/23 13:35:42.9    -165   -220   -213    276    348 216.9 -45.9  34160  289.58 0854.25
2009/04/23 13:35:43.0      80   -128   -213    152    261 147.9 -65.5  34152  289.43 0854.25
2009/04/23 13:35:43.1    -448     97    -91    459    468 282.3 -11.2  34158  289.54 0854.25
2009/04/23 13:35:43.2    -552     78   -180    558    587 278.1 -17.9  34172  289.76 0854.25
2009/04/23 13:35:43.3    -601      9   -203    602    635 270.9 -23.7  34172  289.79 0854.25
2009/04/23 13:35:43.4    -281   -363    -93    460    470 217.8 -11.5  34168  289.71 0854.25
2009/04/23 13:35:43.5    -267   -336   -126    430    448 218.5 -21.4  34162  289.61 0854.25
2009/04/23 13:35:43.6    -166    -37    -48    171    177 257.2 -20.2  34158  289.55 0854.25
2009/04/23 13:35:43.7    -112    -37   -162    119    201 251.6 -64.7  34168  289.70 0854.25
2009/04/23 13:35:43.8      83    -12   -139     84    162  98.8 -70.4  34160  289.58 0854.25
2009/04/23 13:35:43.9    -259    -20    -48    260    265 265.4 -10.5  34164  289.64 0854.25
2009/04/23 13:35:44.0    -275     55   -134    281    311 281.5 -31.6  34168  289.71 0854.25
2009/04/23 13:35:44.1    -214     35   -158    217    268 279.5 -44.1  34170  289.75 0854.25
2009/04/23 13:35:44.2    -207   -235   -178    314    360 221.4 -36.5  34164  289.65 0854.25
2009/04/23 13:35:44.3     -48   -204   -135    210    249 193.3 -40.0  34170  289.73 0854.25
2009/04/23 13:35:44.4      37   -279      7    282    283 172.4   1.6  34148  289.36 0854.25
2009/04/23 13:35:44.5     145   -122     39    190    195 130.0  11.6  34158  289.55 0854.28
2009/04/23 13:35:44.6     165    -54    -50    174    182 108.4 -16.0  34162  289.62 0854.28
2009/04/23 13:35:44.7     193    -65     17    204    205 108.8   4.9  34162  289.60 0854.28
2009/04/23 13:35:44.8     201    -73   -130    214    250 110.0 -38.8  34164  289.63 0854.28
2009/04/23 13:35:44.9     458   -183     51    494    497 111.8   5.9  34162  289.61 0854.28
2009/04/23 13:35:45.0     500   -149     58    522    526 106.7   6.4  34158  289.55 0854.28
2009/04/23 13:35:45.1     643    -21      1    644    645  91.9   0.1  34158  289.55 0854.28
2009/04/23 13:35:45.2     540   -168    -22    566    567 107.3  -2.2  34160  289.58 0854.28
2009/04/23 13:35:45.3     500   -163   -145    526    546 108.1 -15.4  34160  289.58 0854.28
2009/04/23 13:35:45.4     319   -308     16    444    445 134.0   2.1  34156  289.49 0854.28
2009/04/23 13:35:45.5     236   -517    220    569    610 155.5  22.3  34160  289.58 0854.28
2009/04/23 13:35:45.6     458   -645    233    792    826 144.6  16.4  34154  289.48 0854.28
2009/04/23 13:35:45.7     523   -806    245    962    993 147.0  14.3  34168  289.72 0854.28
2009/04/23 13:35:45.8     634   -589    134    866    877 132.9   8.8  34162  289.60 0854.28
2009/04/23 13:35:45.9     603   -551    208    818    845 132.4  14.3  34164  289.64 0854.28
2009/04/23 13:35:46.0     492   -459    -20    674    675 133.0  -1.7  34158  289.53 0854.28
2009/04/23 13:35:46.1     327   -414    154    528    551 141.7  16.3  34156  289.50 0854.28
2009/04/23 13:35:46.2     252   -585    241    637    681 156.7  21.7  34166  289.68 0854.28
2009/04/23 13:35:46.3     203   -750    290    778    830 164.9  21.4  34158  289.53 0854.28
2009/04/23 13:35:46.4     253   -692    203    738    766 159.9  15.4  34164  289.63 0854.32
2009/04/23 13:35:46.5     370   -508    161    629    650 143.9  14.4  34166  289.67 0854.32
2009/04/23 13:35:46.6     242   -552    231    604    646 156.3  22.1  34170  289.74 0854.32
2009/04/23 13:35:46.7     151   -505    317    528    615 163.4  33.8  34174  289.80 0854.32
2009/04/23 13:35:46.8      94   -477    171    487    517 168.8  19.4  34162  289.62 0854.32
2009/04/23 13:35:46.9     -87   -446     83    455    463 191.1  10.4  34164  289.63 0854.32
2009/04/23 13:35:47.0      87   -382     62    392    397 167.1   9.0  34168  289.71 0854.32
2009/04/23 13:35:47.1      92   -292     85    307    319 162.4  15.6  34168  289.71 0854.32
2009/04/23 13:35:47.2      -5   -279     75    280    290 181.1  15.0  34174  289.80 0854.32
2009/04/23 13:35:47.3     -22   -248     98    250    268 185.1  22.5  34176  289.85 0854.32
2009/04/23 13:35:47.4      44   -233    173    238    294 169.3  39.7  34178  289.86 0854.32
2009/04/23 13:35:47.5       3   -221    225    222    316 179.1  50.4  34174  289.80 0854.32
2009/04/23 13:35:47.6     -86   -214    241    231    333 201.9  51.4  34176  289.85 0854.32
2009/04/23 13:35:47.7     -27   -116    157    120    197 193.4  58.7  34178  289.89 0854.32
2009/04/23 13:35:47.8     -43   -107    157    116    195 201.9  60.3  34174  289.80 0854.32
2009/04/23 13:35:47.9    -141   -229    212    270    343 211.6  42.3  34174  289.81 0854.32
2009/04/23 13:35:48.0    -146   -285    215    321    386 207.1  37.0  34172  289.77 0854.32
2009/04/23 13:35:48.2     258     50    152    263    303  79.0  32.4  34182  289.95 0854.32
2009/04/23 13:35:48.3      21   -146     82    148    169 171.5  31.6  34180  289.92 0854.32
2009/04/23 13:35:48.4      35    -23    -36     43     56 123.3 -48.2  34182  289.96 0854.32
2009/04/23 13:35:48.5      49     16    -60     52     79  71.8 -59.2  34176  289.85 0854.35
2009/04/23 13:35:48.6     -56     21   -114     60    128 290.8 -74.8  34186  290.01 0854.35
2009/04/23 13:35:48.7     -41     55   -187     69    199 323.0 -83.5  34180  289.92 0854.35
2009/04/23 13:35:48.8    -213   -135   -144    253    291 237.6 -36.8  34186  290.00 0854.35
2009/04/23 13:35:48.9       0   -210    -62    211    220 180.2 -16.4  34192  290.11 0854.35
2009/04/23 13:35:49.0       1   -355     -9    356    357 179.8  -1.6  34184  289.98 0854.35
2009/04/23 13:35:49.1      55   -365     55    370    375 171.4   8.5  34182  289.93 0854.35
2009/04/23 13:35:49.2     184   -259    -92    318    332 144.6 -16.2  34180  289.90 0854.35
2009/04/23 13:35:49.3     109    -84   -131    138    190 127.7 -52.9  34178  289.89 0854.35
2009/04/23 13:35:49.4     263    -41    209    267    339  99.0  42.1  34184  289.98 0854.35
2009/04/23 13:35:49.5     114     -8    161    115    197  94.3  60.8  34184  289.99 0854.35
2009/04/23 13:35:49.6     125     17     62    127    141  82.1  27.3  34184  289.97 0854.35
2009/04/23 13:35:49.7     118   -107     96    160    186 132.2  34.0  34180  289.92 0854.35
2009/04/23 13:35:49.8     235   -201    131    310    336 130.5  24.2  34184  289.97 0854.35
2009/04/23 13:35:49.9     170   -266     57    316    322 147.4  10.4  34178  289.88 0854.35
2009/04/23 13:35:50.0     153   -308     70    345    353 153.5  11.6  34182  289.96 0854.35
2009/04/23 13:35:50.1      90   -333     53    346    351 164.9   8.8  34182  289.96 0854.35
2009/04/23 13:35:50.2     235   -286     83    371    381 140.6  12.6  34176  289.84 0854.35
2009/04/23 13:35:50.3     137   -176    199    224    299 142.2  46.2  34182  289.95 0854.35
2009/04/23 13:35:50.4     202   -160      7    258    259 128.4   1.7  34180  289.92 0854.35
2009/04/23 13:35:50.5     282    -54     15    288    289 100.8   3.1  34178  289.88 0854.34
2009/04/23 13:35:50.6     395     80    108    403    418  78.5  15.0  34186  290.02 0854.34
2009/04/23 13:35:50.7     340     95    124    354    376  74.3  19.4  34186  290.01 0854.34
2009/04/23 13:35:50.8     339    101    110    354    371  73.4  17.3  34184  289.98 0854.34
2009/04/23 13:35:50.9      24      8    131     26    133  71.6  89.1  34190  290.09 0854.34
2009/04/23 13:35:51.0     -48   -186    240    193    307 194.5  57.1  34188  290.03 0854.34
2009/04/23 13:35:51.1     -15   -185    133    186    228 184.7  39.3  34184  289.99 0854.34
2009/04/23 13:35:51.2     -20   -156    112    158    193 187.6  38.8  34184  289.97 0854.34
2009/04/23 13:35:51.3      -8   -126     87    127    153 184.0  37.6  34182  289.96 0854.34
2009/04/23 13:35:51.4     279     93     34    295    298  71.6   6.7  34174  289.81 0854.34
2009/04/23 13:35:51.5     376    109     84    392    402  73.8  12.2  34180  289.91 0854.34
2009/04/23 13:35:51.6     356   -120    251    376    452 108.7  36.9  34182  289.95 0854.34
2009/04/23 13:35:51.7     239   -239    263    339    429 135.0  41.7  34178  289.87 0854.34
2009/04/23 13:35:51.8     230    -54    164    237    288 103.3  37.8  34176  289.85 0854.34
2009/04/23 13:35:51.9      37    -60    165     71    179 148.4  75.3  34184  289.99 0854.34
2009/04/23 13:35:52.0       0   -174     88    175    195 180.2  28.7  34176  289.84 0854.34
2009/04/23 13:35:52.1      60   -250    181    258    315 166.4  38.5  34180  289.92 0854.34
2009/04/23 13:35:52.2      58   -165    -99    176    201 160.4 -36.3  34180  289.91 0854.34
2009/04/23 13:35:52.3      77   -153    -97    172    197 153.3 -36.3  34180  289.92 0854.34
2009/04/23 13:35:52.4     207    -87    -76    225    237 112.8 -23.6  34182  289.95 0854.34
2009/04/23 13:35:52.5     127    -34   -117    132    176 105.1 -50.6  34184  289.99 0854.34
2009/04/23 13:35:52.6     111     22    -67    114    132  78.5 -37.8  34184  289.97 0854.34
2009/04/23 13:35:52.7     105    -12    -40    106    113  96.6 -25.9  34186  290.02 0854.34
2009/04/23 13:35:52.8      41     11      6     43     44  74.9   9.0  34184  289.99 0854.34
2009/04/23 13:35:52.9      72     14     56     74     92  78.5  41.7  34184  289.97 0854.34
2009/04/23 13:35:53.0     116     50     82    127    151  66.5  35.6  34186  290.01 0854.34
2009/04/23 13:35:53.1     -21     78     88     81    119 344.9  52.2  34192  290.11 0854.34
2009/04/23 13:35:53.2     -41     31    108     52    119 307.8  72.8  34192  290.11 0854.34
2009/04/23 13:35:53.3       0    -10     97     11     97 182.7  90.0  34188  290.06 0854.34
2009/04/23 13:35:53.4     -45    -84    136     96    166 208.5  61.3  34174  289.82 0854.34
2009/04/23 13:35:53.5      58   -171     82    181    198 161.3  25.9  34180  289.92 0854.34
2009/04/23 13:35:53.6     182   -181    -42    257    261 134.8  -9.4  34172  289.78 0854.34
2009/04/23 13:35:53.7     210   -317    -14    381    382 146.5  -2.2  34166  289.69 0854.34
2009/04/23 13:35:53.8     185   -362     63    407    413 152.8   8.9  34150  289.41 0854.34
2009/04/23 13:35:53.9     415   -347    288    541    612 129.9  30.3  34160  289.58 0854.34
2009/04/23 13:35:54.0     438   -252    164    506    533 119.9  18.0  34166  289.67 0854.34
2009/04/23 13:35:54.1     205   -246    253    321    408 140.1  42.3  34168  289.72 0854.34
2009/04/23 13:35:54.2      16    -48     82     51     96 161.3  64.7  34176  289.84 0854.34
2009/04/23 13:35:54.3     102      0     26    103    107  89.6  14.3  34174  289.80 0854.34
2009/04/23 13:35:54.4     185    123     45    223    228  56.3  11.6  34168  289.72 0854.34
2009/04/23 13:35:54.5     170    193    -14    258    259  41.5  -3.3  34172  289.78 0854.35
2009/04/23 13:35:54.6     227     90     92    245    261  68.3  21.5  34172  289.76 0854.35
2009/04/23 13:35:54.7     180     85    205    200    286  64.8  50.7  34176  289.83 0854.35
2009/04/23 13:35:54.8     131     70     29    149    152  61.6  11.1  34176  289.84 0854.35
2009/04/23 13:35:54.9     297    260     11    395    396  48.8   1.7  34178  289.89 0854.35
2009/04/23 13:35:55.0     186    219     73    288    298  40.3  14.3  34176  289.83 0854.35
2009/04/23 13:35:55.1     181    175    134    253    286  46.0  30.2  34184  289.97 0854.35
2009/04/23 13:35:55.2     133    171     42    217    222  37.9  11.0  34186  290.02 0854.35
2009/04/23 13:35:55.3     168    117     18    205    206  55.1   5.2  34178  289.89 0854.35
2009/04/23 13:35:55.4     135    126     79    185    201  46.9  24.6  34186  290.02 0854.35
2009/04/23 13:35:55.5      46    138     80    146    166  18.7  31.0  34194  290.14 0854.37
2009/04/23 13:35:55.6     194     40     46    199    205  78.1  13.2  34178  289.87 0854.37
2009/04/23 13:35:55.7     116     12    -37    117    122  83.9 -22.8  34182  289.96 0854.37
2009/04/23 13:35:55.8     155    -41    -74    161    177 105.1 -30.8  34178  289.89 0854.37
2009/04/23 13:35:55.9     139     -2     48    140    149  90.9  18.9  34182  289.94 0854.37
2009/04/23 13:35:56.0     118     46     57    127    139  68.7  26.2  34184  289.99 0854.37
2009/04/23 13:35:56.1      -2      8     74      9     74 341.7  90.0  34192  290.11 0854.37
2009/04/23 13:35:56.2    -161     67     48    175    182 292.8  15.6  34182  289.96 0854.37
2009/04/23 13:35:56.3    -146    -62     29    159    162 246.9  10.6  34188  290.06 0854.37
2009/04/23 13:35:56.4     -56    -21      3     60     61 249.2   2.9  34186  290.01 0854.37
2009/04/23 13:35:56.5     -20    140   -112    142    180 351.9 -46.8  34190  290.09 0854.37
2009/04/23 13:35:56.6      80    279   -182    291    343  16.1 -39.6  34188  290.03 0854.37
2009/04/23 13:35:56.7    -279    126   -166    307    349 294.4 -35.2  34184  289.98 0854.37
2009/04/23 13:35:56.8    -345    -35   -289    347    451 264.1 -48.2  34186  290.00 0854.37
2009/04/23 13:35:56.9    -618   -170   -229    642    682 254.6 -19.7  34172  289.78 0854.37
2009/04/23 13:35:57.0    -320    140    104    350    366 293.6  16.5  34192  290.13 0854.37
2009/04/23 13:35:57.1     -68    -80    282    106    301 220.5  78.6  34210  290.42 0854.37
2009/04/23 13:35:57.2    -227    -84    188    243    307 249.6  41.7  34278  291.56 0854.37
2009/04/23 13:35:57.3    -294    -39     57    297    303 262.3  11.0  34236  290.85 0854.37
2009/04/23 13:35:57.4    -357   -135     69    382    389 249.2  10.2  34224  290.67 0854.37
2009/04/23 13:35:57.5    -456   -235    -28    514    515 242.7  -3.2  34210  290.42 0854.36
2009/04/23 13:35:57.6    -511   -233   -132    562    578 245.5 -13.3  34230  290.75 0854.36
2009/04/23 13:35:57.7    -440   -400   -106    595    605 227.7 -10.1  34222  290.64 0854.36
2009/04/23 13:35:57.8    -314   -542    -74    627    632 210.1  -6.8  34236  290.86 0854.36
2009/04/23 13:35:57.9    -354   -376   -171    517    545 223.3 -18.3  34230  290.77 0854.36
2009/04/23 13:35:58.0    -265   -667     75    718    722 201.7   6.0  34218  290.54 0854.36
2009/04/23 13:35:58.1    -260   -709    195    756    781 200.2  14.5  34206  290.36 0854.36
2009/04/23 13:35:58.2    -396   -693    281    799    848 209.8  19.4  34198  290.20 0854.36
2009/04/23 13:35:58.3    -335   -679    155    758    775 206.3  11.6  34212  290.46 0854.36
2009/04/23 13:35:58.4    -627   -732    147    965    977 220.6   8.7  34224  290.65 0854.36
2009/04/23 13:35:58.5    -307   -659     -6    727    728 205.0  -0.5  34198  290.23 0854.36
2009/04/23 13:35:58.6    -197     32    347    200    400 279.2  67.6  34204  290.32 0854.36
2009/04/23 13:35:58.7    -283    102    168    302    345 289.9  31.5  34222  290.62 0854.36
2009/04/23 13:35:58.8     -76   -110     69    134    150 214.7  29.3  34214  290.50 0854.36
2009/04/23 13:35:58.9       0   -186    315    187    366 179.8  66.7  34216  290.51 0854.36
2009/04/23 13:35:59.0     -32   -250    250    253    355 187.3  49.9  34202  290.29 0854.36
2009/04/23 13:35:59.1    -245   -367    207    442    488 213.8  27.0  34208  290.40 0854.36
2009/04/23 13:35:59.2    -476   -551    254    729    771 220.8  20.0  34206  290.36 0854.36
2009/04/23 13:35:59.3    -413   -499    313    648    719 219.6  27.7  34218  290.56 0854.36
2009/04/23 13:35:59.4    -397   -550    335    679    757 215.8  28.2  34218  290.56 0854.36
2009/04/23 13:35:59.5    -272   -521    376    588    697 207.6  35.6  34210  290.43 0854.35
2009/04/23 13:35:59.6    -485   -329    145    587    605 235.8  13.9  34196  290.17 0854.35
2009/04/23 13:35:59.7    -635   -311     49    708    710 243.9   4.0  34204  290.32 0854.35
2009/04/23 13:35:59.8    -646   -253    158    694    712 248.6  12.9  34202  290.28 0854.35
2009/04/23 13:35:59.9    -694    -86    -46    700    702 262.9  -3.8  34206  290.35 0854.35
2009/04/23 13:36:00.0    -829   -302    -63    883    886 250.0  -4.1  34192  290.11 0854.35
2009/04/23 13:36:00.1    -885   -286    -99    931    937 252.1  -6.1  34192  290.10 0854.35
2009/04/23 13:36:00.2    -848   -576   -151   1026   1038 235.8  -8.4  34198  290.23 0854.35
2009/04/23 13:36:00.3    -633   -675    -98    926    932 223.1  -6.1  34190  290.07 0854.35
2009/04/23 13:36:00.4    -527   -736    -28    906    907 215.6  -1.8  34198  290.23 0854.35
2009/04/23 13:36:00.5    -212   -771    416    800    901 195.4  29.6  34178  289.89 0854.35
2009/04/23 13:36:00.6    -377   -633      9    737    738 210.8   0.7  34190  290.09 0854.35
2009/04/23 13:36:00.7    -276   -603    194    664    692 204.6  16.3  34182  289.93 0854.35
2009/04/23 13:36:00.8    -605   -615    380    863    942 224.5  25.3  34200  290.26 0854.35
2009/04/23 13:36:00.9    -494   -558    314    746    809 221.5  24.2  34190  290.07 0854.35
2009/04/23 13:36:01.0    -391   -437    397    587    708 221.8  37.4  34196  290.19 0854.35
2009/04/23 13:36:01.1    -364   -131    227    387    448 250.2  33.3  34184  289.99 0854.35
2009/04/23 13:36:01.2    -234    287    243    371    443 320.8  36.4  34194  290.16 0854.35
2009/04/23 13:36:01.3     -12    -35    295     38    297 198.7  90.0  34200  290.26 0854.35
2009/04/23 13:36:01.4    -397    163    210    430    478 292.3  27.9  34200  290.24 0854.35
2009/04/23 13:36:01.5    -585    257    -94    639    646 293.7  -8.4  34204  290.33 0854.34
2009/04/23 13:36:01.6    -339    170     20    380    381 296.6   3.1  34202  290.27 0854.34
2009/04/23 13:36:01.7    -430    137     35    452    454 287.7   4.5  34200  290.24 0854.34
2009/04/23 13:36:01.8    -372    170   -108    410    424 294.6 -14.8  34194  290.16 0854.34
2009/04/23 13:36:01.9    -308    232     -4    386    387 307.0  -0.7  34184  289.99 0854.34
2009/04/23 13:36:02.0    -415    228    -17    474    475 298.8  -2.1  34200  290.25 0854.34
2009/04/23 13:36:02.1    -388    167   -113    423    438 293.3 -15.1  34192  290.12 0854.34
2009/04/23 13:36:02.2    -315    261    -57    410    415 309.7  -8.0  34190  290.07 0854.34
2009/04/23 13:36:02.3    -408    225    -18    466    467 298.9  -2.2  34198  290.20 0854.34
2009/04/23 13:36:02.4    -366    153    -57    397    402 292.7  -8.2  34182  289.94 0854.34
2009/04/23 13:36:02.5    -373     72    -37    380    382 281.0  -5.6  34190  290.08 0854.34
2009/04/23 13:36:02.6    -204    -13   -128    205    241 266.3 -39.6  34184  289.99 0854.34
2009/04/23 13:36:02.7    -126     91     92    156    181 305.9  33.1  34188  290.06 0854.34
2009/04/23 13:36:02.8    -310     33    -40    312    315 276.2  -7.4  34174  289.80 0854.34
2009/04/23 13:36:02.9    -443    -86    -57    452    456 259.0  -7.2  34178  289.88 0854.34
2009/04/23 13:36:03.0    -584    187   -193    614    643 287.8 -22.4  34188  290.04 0854.34
2009/04/23 13:36:03.1    -573    147   -167    592    615 284.4 -20.4  34184  289.97 0854.34
2009/04/23 13:36:03.2    -408      0   -144    409    434 270.0 -19.5  34180  289.92 0854.34
2009/04/23 13:36:03.3    -458    -98   -107    469    482 257.9 -12.9  34190  290.08 0854.34
2009/04/23 13:36:03.4    -239   -111     37    264    267 244.9   8.0  34192  290.10 0854.34
2009/04/23 13:36:03.5    -138    -99     45    170    176 234.3  15.0  34194  290.16 0854.35
2009/04/23 13:36:03.6    -112    -52    -33    124    129 244.8 -15.0  34200  290.25 0854.35
2009/04/23 13:36:03.7    -252   -230   -153    342    374 227.6 -30.1  34182  289.96 0854.35
2009/04/23 13:36:03.8     -55    -63    -70     84    109 221.0 -48.2  34188  290.04 0854.35
2009/04/23 13:36:03.9      11   -183     90    184    204 176.4  28.0  34180  289.91 0854.35
2009/04/23 13:36:04.0    -136   -111     48    176    183 230.9  15.3  34172  289.79 0854.35
2009/04/23 13:36:04.1    -241     50     43    247    251 281.9  10.0  34188  290.05 0854.35
2009/04/23 13:36:04.2     -65    200     84    211    227 342.0  23.0  34188  290.04 0854.35
2009/04/23 13:36:04.3     -32    228    107    231    254 352.0  26.6  34192  290.12 0854.35
2009/04/23 13:36:04.4    -119    142     96    186    209 320.1  29.3  34190  290.08 0854.35
2009/04/23 13:36:04.5    -149     78    113    169    203 297.8  37.0  34194  290.16 0854.35
2009/04/23 13:36:04.6    -188     50     54    195    203 285.1  15.6  34192  290.13 0854.35
2009/04/23 13:36:04.7    -138    103     48    173    180 306.6  15.6  34194  290.16 0854.35
2009/04/23 13:36:04.8    -210    174     63    273    281 309.6  13.1  34192  290.12 0854.35
2009/04/23 13:36:04.9    -302    170     35    347    349 299.4   5.9  34192  290.11 0854.35
2009/04/23 13:36:05.0    -316    202     61    376    381 302.6   9.2  34190  290.08 0854.35
2009/04/23 13:36:05.1    -286     72     55    295    301 284.2  10.6  34188  290.05 0854.35
2009/04/23 13:36:05.2    -139     23     22    141    143 279.6   9.0  34186  290.01 0854.35
2009/04/23 13:36:05.3    -160     41     98    166    192 284.6  33.7  34184  289.99 0854.35
2009/04/23 13:36:05.4    -165    120     16    205    206 306.0   4.6  34186  290.01 0854.35
2009/04/23 13:36:05.5    -268   -211    -74    342    351 231.7 -12.3  34188  290.06 0854.27
2009/04/23 13:36:05.6    -413   -364     83    551    558 228.6   8.6  34192  290.13 0854.27
2009/04/23 13:36:05.7    -334   -375     25    503    504 221.7   2.9  34194  290.15 0854.27
2009/04/23 13:36:05.8    -314   -381     94    494    503 219.5  10.8  34198  290.23 0854.27
2009/04/23 13:36:05.9    -206   -321    143    382    407 212.7  21.4  34204  290.32 0854.27
2009/04/23 13:36:06.0    -190   -202     54    278    284 223.2  11.1  34206  290.34 0854.27
2009/04/23 13:36:06.1    -134      2    102    135    169 271.3  40.9  34200  290.25 0854.27
2009/04/23 13:36:06.2    -420   -100    -22    432    433 256.5  -3.0  34196  290.17 0854.27
2009/04/23 13:36:06.3    -303     81     93    314    328 285.1  16.5  34176  289.85 0854.27
2009/04/23 13:36:06.4    -389     74     19    397    398 280.8   2.8  34188  290.03 0854.27
2009/04/23 13:36:06.5    -339     50     28    343    345 278.5   4.7  34190  290.08 0854.27
2009/04/23 13:36:06.6    -453    117   -170    468    497 284.5 -25.3  34192  290.13 0854.27
2009/04/23 13:36:06.7    -463    143    131    485    503 287.2  15.2  34198  290.22 0854.27
2009/04/23 13:36:06.8    -345     62    180    351    394 280.3  29.2  34210  290.42 0854.27
2009/04/23 13:36:06.9    -289   -162    163    332    369 240.7  28.0  34202  290.30 0854.27
2009/04/23 13:36:07.0    -517   -257     96    578    586 243.5   9.5  34190  290.08 0854.27
2009/04/23 13:36:07.1    -633   -230   -221    674    710 250.0 -18.2  34192  290.10 0854.27
2009/04/23 13:36:07.2    -594   -195   -213    626    662 251.8 -18.8  34182  289.96 0854.27
2009/04/23 13:36:07.3    -487    -51   -181    490    522 263.9 -25.4  34198  290.23 0854.27
2009/04/23 13:36:07.4    -598    -17   -182    599    626 268.3 -21.8  34186  290.01 0854.27
2009/04/23 13:36:07.5    -449     76    -47    456    459 279.7  -6.0  34194  290.14 0854.27
2009/04/23 13:36:07.6    -579   -311   -127    658    671 241.8 -11.0  34206  290.36 0854.27
2009/04/23 13:36:07.7    -446   -185   -101    483    494 247.4 -11.9  34198  290.23 0854.27
2009/04/23 13:36:07.8    -327   -370    -96    495    505 221.5 -11.0  34188  290.03 0854.27
2009/04/23 13:36:07.9    -716   -464   -213    854    881 237.0 -14.0  34198  290.23 0854.27
2009/04/23 13:36:08.0    -395   -427   -118    582    594 222.8 -11.5  34196  290.19 0854.27
2009/04/23 13:36:08.1    -460   -328    -82    566    572 234.5  -8.3  34196  290.19 0854.27
2009/04/23 13:36:08.2    -691   -121   -223    702    737 260.0 -17.7  34190  290.08 0854.27
2009/04/23 13:36:08.3    -622   -296    176    690    713 244.5  14.3  34172  289.78 0854.27
2009/04/23 13:36:08.4    -149   -270    321    309    445 208.9  51.2  34194  290.16 0854.27
2009/04/23 13:36:08.5    -143   -357    200    385    433 201.8  29.4  34184  289.99 0854.27
2009/04/23 13:36:08.6    -231   -475    -28    529    530 206.0  -3.1  34188  290.04 0854.27
2009/04/23 13:36:08.7    -151   -486     46    509    512 197.3   5.2  34188  290.05 0854.27
2009/04/23 13:36:08.8    -298   -288    -32    415    417 226.0  -4.5  34192  290.11 0854.27
2009/04/23 13:36:08.9    -174   -316     -7    361    362 208.9  -1.2  34188  290.06 0854.27
2009/04/23 13:36:09.0    -170   -347   -150    387    415 206.2 -26.7  34194  290.16 0854.27
2009/04/23 13:36:09.1     -59   -428   -116    433    449 187.9 -15.0  34192  290.12 0854.27
2009/04/23 13:36:09.2     -23   -607   -174    608    633 182.2 -16.0  34204  290.32 0854.27
2009/04/23 13:36:09.3     120   -264    238    291    375 155.5  43.7  34192  290.10 0854.27
2009/04/23 13:36:09.4      33   -122     48    127    135 164.9  21.0  34198  290.23 0854.27
2009/04/23 13:36:09.5      33   -241     86    244    259 172.2  19.4  34202  290.29 0854.29
2009/04/23 13:36:09.6     103   -527    195    538    573 168.9  19.9  34200  290.24 0854.29
2009/04/23 13:36:09.7     -80   -511    182    518    550 188.9  19.4  34186  290.02 0854.29
2009/04/23 13:36:09.8     -78   -435    145    443    467 190.2  18.1  34198  290.21 0854.29
2009/04/23 13:36:09.9     -76   -609    -18    614    615 187.2  -1.7  34192  290.13 0854.29
2009/04/23 13:36:10.0     -67   -700      0    704    705 185.5   0.0  34192  290.13 0854.29
2009/04/23 13:36:10.1      42   -723     78    725    730 176.6   6.2  34188  290.06 0854.29
2009/04/23 13:36:10.2      48   -627    139    629    645 175.6  12.5  34196  290.18 0854.29
2009/04/23 13:36:10.3      32   -574    120    575    588 176.8  11.8  34196  290.19 0854.29
2009/04/23 13:36:10.4     -38   -419    159    421    450 185.2  21.8  34196  290.19 0854.29
2009/04/23 13:36:10.5    -134   -498    135    516    534 195.1  14.7  34200  290.24 0854.29
2009/04/23 13:36:10.6    -218   -536     49    579    582 202.2   4.9  34194  290.15 0854.29
2009/04/23 13:36:10.7    -227   -517    -22    565    566 203.7  -2.2  34192  290.11 0854.29
2009/04/23 13:36:10.8     -79   -339      6    349    350 193.2   1.0  34198  290.21 0854.29
2009/04/23 13:36:10.9      65      0    186     66    197  89.2  79.7  34196  290.18 0854.29
2009/04/23 13:36:11.0    -142     66    113    157    193 295.2  39.3  34202  290.30 0854.29
2009/04/23 13:36:11.1     -88    121    106    150    183 324.0  38.8  34200  290.25 0854.29
2009/04/23 13:36:11.2    -133    -74     95    153    180 240.7  35.0  34202  290.30 0854.29
2009/04/23 13:36:11.3      21    -20    129     30    132 133.3  87.0  34202  290.30 0854.29
2009/04/23 13:36:11.4     -97   -213    125    235    266 204.5  30.3  34202  290.27 0854.29
2009/04/23 13:36:11.6    -213   -135     -1    253    254 237.5  -0.3  34200  290.24 0854.32
2009/04/23 13:36:11.6    -271   -175     20    323    324 237.1   3.6  34200  290.26 0854.32
2009/04/23 13:36:11.7    -260   -268    -17    374    375 224.1  -2.6  34198  290.21 0854.32
2009/04/23 13:36:11.8    -325   -210     -4    388    389 237.1  -0.6  34202  290.27 0854.32
2009/04/23 13:36:11.9     -91   -389    -28    400    401 193.2  -4.1  34198  290.23 0854.32
2009/04/23 13:36:12.0    -162   -247   -154    296    333 213.4 -34.0  34202  290.27 0854.32
2009/04/23 13:36:12.1    -202    -59      0    211    212 253.6  -0.3  34200  290.25 0854.32
2009/04/23 13:36:12.2    -176    189      3    259    260 317.0   0.8  34204  290.31 0854.32
2009/04/23 13:36:12.3    -164    258     -1    307    308 327.5  -0.3  34206  290.36 0854.32
2009/04/23 13:36:12.4    -167    293    118    338    359 330.3  19.3  34212  290.47 0854.32
2009/04/23 13:36:12.5    -146    -11    197    147    245 265.7  59.4  34200  290.25 0854.32
2009/04/23 13:36:12.6    -175   -139    279    224    357 231.4  57.3  34202  290.29 0854.32
2009/04/23 13:36:12.8    -180    -81    125    198    234 245.8  35.5  34202  290.30 0854.32
2009/04/23 13:36:12.8    -337     -8     40    338    341 268.6   6.9  34220  290.59 0854.32
2009/04/23 13:36:12.9    -195   -132    122    236    265 235.9  29.3  34214  290.48 0854.32
2009/04/23 13:36:13.0    -202   -367    -90    420    430 208.9 -12.2  34196  290.17 0854.32
2009/04/23 13:36:13.1    -147   -338   -109    369    384 203.5 -21.5  34194  290.15 0854.32
2009/04/23 13:36:13.2      67   -130    -57    147    157 152.8 -26.7  34200  290.25 0854.32
2009/04/23 13:36:13.3      35   -105     43    111    119 161.3  22.0  34204  290.31 0854.32
2009/04/23 13:36:13.4     -44   -201    113    206    234 192.5  31.0  34198  290.23 0854.32
2009/04/23 13:36:13.5    -122   -193     61    229    238 212.3  15.0  34196  290.17 0854.33
2009/04/23 13:36:13.6    -108   -241    153    265    305 204.1  32.7  34204  290.32 0854.33
2009/04/23 13:36:13.7      -1   -169     98    170    196 180.5  32.4  34192  290.13 0854.33
2009/04/23 13:36:13.8     -16    -13    160     21    161 230.5  90.0  34202  290.28 0854.33
2009/04/23 13:36:14.0     115    -10    190    116    222  95.2  65.4  34208  290.38 0854.33
2009/04/23 13:36:14.0     253    -46    251    258    359 100.4  49.3  34198  290.21 0854.33
2009/04/23 13:36:14.1      81    -89    215    121    246 137.7  68.1  34198  290.23 0854.33
2009/04/23 13:36:14.2      77   -292     94    303    318 165.1  17.3  34198  290.20 0854.33
2009/04/23 13:36:14.4     116   -235     46    263    268 153.7  10.0  34196  290.17 0854.33
2009/04/23 13:36:14.5     153   -287     64    326    333 152.0  11.1  34200  290.25 0854.33
2009/04/23 13:36:14.6     137   -333    128    361    383 157.6  20.2  34204  290.33 0854.33
2009/04/23 13:36:14.7     191   -191     94    271    287 135.0  19.2  34200  290.24 0854.33
2009/04/23 13:36:14.8      42   -302    238    306    387 172.0  41.9  34198  290.23 0854.33
2009/04/23 13:36:14.9     -27   -346     43    348    351 184.5   7.1  34196  290.18 0854.33
2009/04/23 13:36:15.0       6   -418    -71    419    426 179.1  -9.7  34194  290.14 0854.33
2009/04/23 13:36:15.1     179   -520    -10    551    552 161.0  -1.1  34186  290.02 0854.33
2009/04/23 13:36:15.2     222   -505    -39    552    554 156.3  -4.1  34192  290.11 0854.33
2009/04/23 13:36:15.3     258   -546    -44    604    606 154.7  -4.2  34196  290.19 0854.33
2009/04/23 13:36:15.4     225   -482    -87    533    541 155.0  -9.3  34196  290.19 0854.33
2009/04/23 13:36:15.5     302   -446     70    539    544 145.9   7.4  34198  290.21 0854.33
2009/04/23 13:36:15.6     355   -543    231    649    690 146.8  19.6  34198  290.21 0854.33
2009/04/23 13:36:15.7     307   -542    182    623    650 150.5  16.3  34200  290.26 0854.33
2009/04/23 13:36:15.8     430   -497    178    658    682 139.1  15.2  34198  290.21 0854.33
2009/04/23 13:36:15.9     317   -441     16    544    545 144.3   1.7  34198  290.21 0854.33
2009/04/23 13:36:16.0     223   -424   -149    480    503 152.3 -17.3  34198  290.20 0854.33
2009/04/23 13:36:16.1      -8   -407    -42    408    411 181.2  -6.0  34184  289.97 0854.33
2009/04/23 13:36:16.2      89   -523    160    531    555 170.3  16.8  34204  290.31 0854.33
2009/04/23 13:36:16.3      13   -431    114    432    447 178.2  14.9  34194  290.16 0854.33
2009/04/23 13:36:16.4       0   -335    179    336    380 180.1  30.3  34198  290.23 0854.33
2009/04/23 13:36:16.5     132   -331     43    357    360 158.2   6.9  34198  290.23 0854.34
2009/04/23 13:36:16.6     222   -186    -22    290    291 130.0  -4.4  34200  290.24 0854.34
2009/04/23 13:36:16.7     -28   -380    -49    381    385 184.2  -7.3  34202  290.27 0854.34
2009/04/23 13:36:16.8      57   -281   -123    287    312 168.4 -29.0  34190  290.09 0854.34
2009/04/23 13:36:16.9     129    -53    191    140    236 112.6  60.5  34198  290.23 0854.34
2009/04/23 13:36:17.0      47   -112    236    122    265 157.3  70.8  34204  290.31 0854.34
2009/04/23 13:36:17.1      63    -20    163     67    176 108.2  76.6  34202  290.30 0854.34
2009/04/23 13:36:17.2     204   -129    155    242    287 122.4  35.6  34202  290.29 0854.34
2009/04/23 13:36:17.3      25   -161     59    163    173 171.1  20.4  34200  290.26 0854.34
2009/04/23 13:36:17.4      -4   -201    -22    202    204 181.4  -6.2  34202  290.28 0854.34
2009/04/23 13:36:17.5     -39   -297     15    300    301 187.6   2.9  34194  290.14 0854.34
2009/04/23 13:36:17.6     112   -308    -72    329    337 160.0 -12.4  34194  290.15 0854.34
2009/04/23 13:36:17.7     193   -205    -40    282    285 136.7  -8.2  34190  290.07 0854.34
2009/04/23 13:36:17.8      27   -337     73    339    347 175.3  12.2  34194  290.16 0854.34
2009/04/23 13:36:17.9     270    -88     80    285    297 108.2  15.8  34186  290.00 0854.34
2009/04/23 13:36:18.0       0   -185    105    186    213 180.2  32.1  34194  290.14 0854.34
2009/04/23 13:36:18.1      72    -87    166    114    201 140.3  62.6  34178  289.89 0854.34
2009/04/23 13:36:18.2      16   -143    160    144    215 173.3  53.5  34186  290.01 0854.34
2009/04/23 13:36:18.3     155   -272    157    314    351 150.2  28.5  34188  290.03 0854.34
2009/04/23 13:36:18.4     164   -144    108    219    244 131.3  28.2  34188  290.03 0854.34
2009/04/23 13:36:18.5     117    -74     70    139    155 122.4  28.7  34194  290.14 0854.34
2009/04/23 13:36:18.6     171    -45    -25    177    179 104.8  -8.2  34194  290.14 0854.34
2009/04/23 13:36:18.7     221     19    -12    222    223  85.0  -3.1  34192  290.13 0854.34
2009/04/23 13:36:18.8     225   -116    -34    254    257 117.3  -7.7  34194  290.14 0854.34
2009/04/23 13:36:18.9     148   -138     70    203    216 133.1  19.2  34186  290.02 0854.34
2009/04/23 13:36:19.0    -205   -174    114    270    293 229.6  24.2  34198  290.22 0854.34
2009/04/23 13:36:19.1    -394    -88    -70    404    411 257.3  -9.9  34196  290.19 0854.34
2009/04/23 13:36:19.2    -277    -40   -101    280    297 261.6 -25.3  34200  290.26 0854.34
2009/04/23 13:36:19.3    -231    -70    -86    242    258 253.1 -19.7  34200  290.24 0854.34
2009/04/23 13:36:19.4    -184     26   -124    186    223 278.1 -41.1  34198  290.23 0854.34
2009/04/23 13:36:19.5      44    182   -117    188    221  13.8 -39.6  34190  290.09 0854.34
2009/04/23 13:36:19.6     -89    269   -145    284    318 341.7 -33.6  34202  290.29 0854.34
2009/04/23 13:36:19.7    -140    138   -196    197    277 314.7 -54.4  34202  290.27 0854.34
2009/04/23 13:36:19.8    -194    100   -299    219    370 297.3 -64.9  34204  290.31 0854.34
2009/04/23 13:36:19.9    -135     12   -253    136    287 275.2 -74.0  34208  290.37 0854.34
2009/04/23 13:36:20.0    -308     31   -277    310    415 275.9 -50.9  34208  290.37 0854.34
2009/04/23 13:36:20.1      12   -121    -98    122    156 174.2 -47.4  34200  290.26 0854.34
2009/04/23 13:36:20.2     -20    -61    -54     65     84 198.5 -48.1  34204  290.31 0854.34
2009/04/23 13:36:20.3     -92    -98     39    135    141 223.2  16.3  34204  290.33 0854.34
2009/04/23 13:36:20.4     -50     -5     32     51     60 263.9  35.5  34202  290.28 0854.34
2009/04/23 13:36:20.5     -17     44     -2     48     49 338.2  -3.1  34202  290.30 0854.32
2009/04/23 13:36:20.6      26     46     11     54     56  29.9  12.2  34202  290.30 0854.32
2009/04/23 13:36:20.7      37     32     99     50    110  48.7  71.9  34206  290.35 0854.32
2009/04/23 13:36:20.8      60    -41     60     73     94 124.2  43.7  34204  290.33 0854.32
2009/04/23 13:36:20.9      -6    -14     33     16     36 205.4  72.9  34202  290.30 0854.32
2009/04/23 13:36:21.0    -148     12     38    149    154 274.8  14.3  34204  290.31 0854.32
2009/04/23 13:36:21.1    -150     22     29    152    155 278.4  11.0  34204  290.33 0854.32
2009/04/23 13:36:21.2     -97     -7     42     98    106 265.6  24.1  34204  290.31 0854.32
2009/04/23 13:36:21.3    -132    -31     37    136    142 256.7  15.3  34202  290.30 0854.32
2009/04/23 13:36:21.4     -99    -98     61    140    152 225.2  25.1  34202  290.30 0854.32
2009/04/23 13:36:21.5    -177   -293    206    343    400 211.1  33.8  34198  290.23 0854.32
2009/04/23 13:36:21.6    -248   -318    247    404    473 218.0  34.3  34198  290.22 0854.32
2009/04/23 13:36:21.7    -271   -298    193    404    447 222.3  27.3  34198  290.21 0854.32
2009/04/23 13:36:21.8    -387   -297     19    488    489 232.5   2.2  34198  290.23 0854.32
2009/04/23 13:36:21.9    -439   -381     12    582    583 229.1   1.2  34200  290.25 0854.32
2009/04/23 13:36:22.0    -400   -364    -28    541    542 227.7  -3.0  34198  290.21 0854.32
2009/04/23 13:36:22.1    -487   -314    -28    580    581 237.1  -2.8  34200  290.25 0854.32
2009/04/23 13:36:22.2    -447   -329      1    556    557 233.6   0.1  34200  290.26 0854.32
2009/04/23 13:36:22.3    -472   -305    -51    563    566 237.1  -5.2  34204  290.31 0854.32
2009/04/23 13:36:22.4    -511   -285    -67    586    590 240.8  -6.6  34198  290.20 0854.32
2009/04/23 13:36:22.5    -516   -160    -89    541    549 252.7  -9.3  34198  290.23 0854.27
2009/04/23 13:36:22.6    -271   -109     26    293    295 248.0   5.2  34186  290.02 0854.27
2009/04/23 13:36:22.7     -98   -256    133    275    305 200.9  27.3  34202  290.29 0854.27
2009/04/23 13:36:22.8    -198   -281     93    345    358 215.2  15.2  34204  290.33 0854.27
2009/04/23 13:36:22.9    -233   -425     86    485    493 208.8  10.1  34202  290.29 0854.27
2009/04/23 13:36:23.0    -249   -503     79    562    568 206.4   8.0  34192  290.11 0854.27
2009/04/23 13:36:23.1    -269   -592     75    651    656 204.4   6.6  34192  290.11 0854.27
2009/04/23 13:36:23.2    -248   -389     58    462    466 212.5   7.2  34196  290.17 0854.27
2009/04/23 13:36:23.3     -88   -386      6    396    397 192.9   0.9  34194  290.15 0854.27
2009/04/23 13:36:23.4    -106   -476    -81    488    495 192.6  -9.5  34190  290.08 0854.27
2009/04/23 13:36:23.5      56   -403   -220    408    463 172.0 -35.2  34188  290.04 0854.27
2009/04/23 13:36:23.6     242   -321    -24    403    404 143.0  -3.5  34192  290.12 0854.27
2009/04/23 13:36:23.7     383   -322     65    501    506 130.1   7.5  34198  290.22 0854.27
2009/04/23 13:36:23.8     340   -210    120    400    418 121.8  16.8  34194  290.14 0854.27
2009/04/23 13:36:23.9     142    -56    125    153    197 111.7  43.7  34194  290.16 0854.27
2009/04/23 13:36:24.0      14    -18     90     24     93 142.2  84.9  34194  290.16 0854.27
2009/04/23 13:36:24.1    -140    -16     -1    141    142 263.4  -0.7  34192  290.11 0854.27
2009/04/23 13:36:24.2     -71    -71    138    101    171 225.0  60.3  34196  290.18 0854.27
2009/04/23 13:36:24.3     -91   -118    102    150    181 217.8  37.6  34196  290.18 0854.27
2009/04/23 13:36:24.4     -70    -29    152     76    169 247.4  71.7  34198  290.23 0854.27
2009/04/23 13:36:24.5     -61    -18    104     64    122 253.2  65.7  34198  290.21 0854.26
2009/04/23 13:36:24.6     -92   -189    197    211    288 206.1  48.0  34192  290.12 0854.26
2009/04/23 13:36:24.7    -122   -115     58    169    179 226.7  19.2  34192  290.13 0854.26
2009/04/23 13:36:24.8    -271   -196    -21    335    336 234.0  -3.7  34192  290.10 0854.26
2009/04/23 13:36:24.9    -284    -56   -148    290    325 258.8 -33.6  34182  289.93 0854.26
2009/04/23 13:36:25.0    -382    -86   -256    392    468 257.3 -40.7  34178  289.88 0854.26
2009/04/23 13:36:25.1    -422     32   -274    424    504 274.4 -40.3  34186  290.01 0854.26
2009/04/23 13:36:25.2    -414   -183   -193    453    492 246.1 -28.9  34186  290.01 0854.26
2009/04/23 13:36:25.3    -287    -31   -248    289    380 263.8 -49.4  34172  289.79 0854.26
2009/04/23 13:36:25.4    -306   -206   -305    370    479 236.1 -48.1  34174  289.82 0854.26
2009/04/23 13:36:25.5    -423     42   -362    426    559 275.7 -49.2  34170  289.74 0854.26
2009/04/23 13:36:25.6    -486    -36   -329    488    588 265.7 -41.8  34176  289.84 0854.26
2009/04/23 13:36:25.7    -435    -20   -234    436    494 267.3 -35.1  34176  289.83 0854.26
2009/04/23 13:36:25.8    -615    -37   -280    617    677 266.5 -30.4  34194  290.14 0854.26
2009/04/23 13:36:25.9    -856   -146   -307    869    921 260.3 -24.7  34170  289.75 0854.26
2009/04/23 13:36:26.0    -781   -114   -392    790    881 261.7 -32.8  34178  289.87 0854.26
2009/04/23 13:36:26.1    -495   -295   -350    577    674 239.3 -38.5  34190  290.08 0854.26
2009/04/23 13:36:26.2     -24   -206   -207    208    293 186.7 -54.4  34190  290.09 0854.26
2009/04/23 13:36:26.3     121   -219    116    251    276 151.0  26.4  34192  290.12 0854.26
2009/04/23 13:36:26.4      83   -196    148    213    259 157.1  38.4  34186  290.00 0854.26
2009/04/23 13:36:26.5     200    -78    131    215    251 111.5  34.4  34182  289.93 0854.27
2009/04/23 13:36:26.6     267    -95    179    284    335 109.7  35.3  34186  290.00 0854.27
2009/04/23 13:36:26.7     425   -143    106    449    462 108.7  13.3  34176  289.85 0854.27
2009/04/23 13:36:26.8     393   -329    -12    513    514 129.9  -1.4  34178  289.86 0854.27
2009/04/23 13:36:26.9     381   -283     93    475    485 126.6  11.1  34170  289.73 0854.27
2009/04/23 13:36:27.0      70   -137   -244    155    289 152.8 -69.1  34184  289.97 0854.27
2009/04/23 13:36:27.1      62    -26   -118     68    136 112.6 -71.2  34172  289.79 0854.27
2009/04/23 13:36:27.2     136     89    -85    163    183  56.7 -34.5  34176  289.84 0854.27
2009/04/23 13:36:27.3     298   -186     71    352    360 122.0  11.4  34178  289.89 0854.27
2009/04/23 13:36:27.4     264   -254   -120    367    387 133.9 -18.2  34174  289.82 0854.27
2009/04/23 13:36:27.5     117   -337    -92    357    369 160.8 -14.5  34172  289.77 0854.27
2009/04/23 13:36:27.6     293   -332     53    443    447 138.6   6.9  34172  289.78 0854.27
2009/04/23 13:36:27.7     260   -344     67    432    438 142.9   8.8  34172  289.78 0854.27
2009/04/23 13:36:27.8     232   -368     26    436    437 147.8   3.5  34166  289.68 0854.27
2009/04/23 13:36:27.9     335   -283    103    439    451 130.2  13.2  34170  289.73 0854.27
2009/04/23 13:36:28.0     326   -293    163    439    468 131.9  21.4  34166  289.68 0854.27
2009/04/23 13:36:28.1     276   -216    109    351    368 128.0  17.3  34172  289.79 0854.27
2009/04/23 13:36:28.2     268   -225    122    350    371 130.0  19.3  34172  289.77 0854.27
2009/04/23 13:36:28.3     177   -137    105    225    248 127.8  27.1  34174  289.81 0854.27
2009/04/23 13:36:28.4      82   -102     89    132    159 141.3  37.3  34176  289.84 0854.27
2009/04/23 13:36:28.5      96   -107     71    144    160 138.1  28.2  34176  289.84 0854.30
2009/04/23 13:36:28.6      97    -96      7    137    138 134.9   3.3  34172  289.79 0854.30
2009/04/23 13:36:28.7     163    -79    -57    182    190 116.0 -22.8  34176  289.84 0854.30
2009/04/23 13:36:28.8     109   -102    -61    150    161 133.2 -27.8  34180  289.91 0854.30
2009/04/23 13:36:28.9     148   -103   -143    181    230 124.9 -47.1  34184  289.97 0854.30
2009/04/23 13:36:29.0     271     41   -121    275    300  81.4 -29.6  34182  289.93 0854.30
2009/04/23 13:36:29.1     232     97    -26    252    254  67.3  -6.1  34170  289.75 0854.30
2009/04/23 13:36:29.2     216     61    116    225    253  74.1  29.3  34180  289.92 0854.30
2009/04/23 13:36:29.3     142    142     83    202    218  45.0  23.1  34182  289.96 0854.30
2009/04/23 13:36:29.4      19     37    -38     42     56  28.1 -52.3  34180  289.92 0854.30
2009/04/23 13:36:29.5     146     94     30    175    178  57.1   9.9  34182  289.94 0854.30
2009/04/23 13:36:29.6      32    173    134    177    222  10.7  40.7  34184  289.97 0854.30
2009/04/23 13:36:29.7      32     39     65     51     82  39.6  57.5  34188  290.06 0854.30
2009/04/23 13:36:29.8      68     51    158     85    179  53.1  69.3  34184  289.97 0854.30
2009/04/23 13:36:29.9     126     80    222    150    267  57.6  62.8  34186  290.02 0854.30
2009/04/23 13:36:30.0     164    170     68    237    247  43.9  16.0  34186  290.02 0854.30
2009/04/23 13:36:30.1     191     86    155    210    261  65.8  39.9  34186  290.02 0854.30
2009/04/23 13:36:30.2     153    143    116    210    239  46.9  31.4  34184  289.97 0854.30
2009/04/23 13:36:30.3     138    139    114    196    226  44.8  33.1  34186  290.01 0854.30
2009/04/23 13:36:30.4      91    110    115    144    184  39.7  42.7  34190  290.08 0854.30
2009/04/23 13:36:30.5      60    102    127    119    174  30.7  51.6  34184  289.97 0854.32
2009/04/23 13:36:30.6     -24    110     87    113    142 347.5  41.7  34192  290.11 0854.32
2009/04/23 13:36:30.7       7    136     42    137    144   3.1  17.3  34188  290.06 0854.32
2009/04/23 13:36:30.8     -18    104     71    106    127 350.2  37.0  34190  290.08 0854.32
2009/04/23 13:36:30.9     -51    145     89    154    177 340.4  32.7  34190  290.09 0854.32
2009/04/23 13:36:31.0    -113    186     69    218    229 328.6  17.7  34196  290.19 0854.32
2009/04/23 13:36:31.1    -144    149     85    208    224 315.9  23.1  34190  290.09 0854.32
2009/04/23 13:36:31.2    -102    150     78    182    198 325.7  24.6  34192  290.13 0854.32
2009/04/23 13:36:31.3     -44    133     80    141    162 341.7  32.1  34188  290.06 0854.32
2009/04/23 13:36:31.4     -29    104    101    108    147 344.4  47.9  34194  290.14 0854.32
2009/04/23 13:36:31.5     -34     90     78     97    124 339.1  42.7  34194  290.16 0854.32
2009/04/23 13:36:31.6     -27     90     75     95    121 343.1  42.2  34196  290.19 0854.32
2009/04/23 13:36:31.7     -22     92     67     95    116 346.6  38.6  34210  290.43 0854.32
2009/04/23 13:36:31.8     -34     73     71     81    107 334.5  45.8  34218  290.57 0854.32
2009/04/23 13:36:31.9       9    178     97    179    203   2.9  31.0  34208  290.38 0854.32
2009/04/23 13:36:32.0      81    190    118    207    238  23.2  32.3  34238  290.89 0854.32
2009/04/23 13:36:32.1     159    188    -88    247    262  40.3 -24.6  34228  290.71 0854.32
2009/04/23 13:36:32.2     109    276    -49    297    302  21.6  -9.4  34232  290.80 0854.32
2009/04/23 13:36:32.3     148    359     60    389    394  22.4   8.9  34278  291.59 0854.32
2009/04/23 13:36:32.4       5    310     24    311    313   1.0   4.6  34238  290.90 0854.32
2009/04/23 13:36:32.5     -16    267     13    268    269 356.5   2.9  34236  290.85 0854.34
2009/04/23 13:36:32.6    -124    223     -1    256    257 330.8  -0.3  34222  290.61 0854.34
2009/04/23 13:36:32.7    -121    228    -57    259    266 332.0 -12.4  34198  290.20 0854.34
2009/04/23 13:36:32.8    -154    208    -52    260    266 323.5 -11.5  34196  290.17 0854.34
2009/04/23 13:36:32.9    -118    341    -53    362    366 340.8  -8.4  34238  290.88 0854.34
2009/04/23 13:36:33.0    -121    368    -15    388    389 341.7  -2.2  34282  291.64 0854.34
2009/04/23 13:36:33.1    -248    225    -86    336    347 312.2 -14.4  34228  290.74 0854.34
2009/04/23 13:36:33.2    -161    301     55    342    347 331.8   9.2  34228  290.72 0854.34
2009/04/23 13:36:33.3    -112    338    161    357    391 341.6  25.9  34258  291.23 0854.34
2009/04/23 13:36:33.4    -205    402    111    452    466 332.9  13.8  34212  290.44 0854.34
2009/04/23 13:36:33.5      59    441     25    445    446   7.7   3.3  34234  290.82 0854.34
2009/04/23 13:36:33.6     -48    423    -61    426    431 353.4  -8.3  34200  290.24 0854.34
2009/04/23 13:36:33.7      26    241    -27    243    245   6.2  -6.5  34210  290.42 0854.34
2009/04/23 13:36:33.8     -17     74     27     77     82 346.6  19.4  34224  290.67 0854.34
2009/04/23 13:36:33.9     -75     77    109    108    153 315.9  50.1  34224  290.65 0854.34
2009/04/23 13:36:34.0      95      6    110     96    146  86.1  54.3  34290  291.79 0854.34
2009/04/23 13:36:34.1      38     60    173     72    187  32.6  76.3  34284  291.67 0854.34
2009/04/23 13:36:34.2     141    141     13    200    201  45.0   3.8  34262  291.32 0854.34
2009/04/23 13:36:34.3      74    129      7    149    150  29.9   2.9  34254  291.18 0854.34
2009/04/23 13:36:34.4      90     29     59     95    111  71.8  35.5  34278  291.59 0854.34
2009/04/23 13:36:34.5     144     72    -46    162    169  63.4 -15.8  34268  291.42 0854.31
2009/04/23 13:36:34.6     123    110    -30    166    169  48.2 -10.5  34300  291.96 0854.31
2009/04/23 13:36:34.7     103      9      9    104    105  84.8   5.4  34294  291.84 0854.31
2009/04/23 13:36:34.8       5     15     17     16     23  18.3  50.1  34306  292.05 0854.31
2009/04/23 13:36:34.9      -7     -3      7      8     10 244.7  47.9  34304  292.01 0854.31
2009/04/23 13:36:35.0     -18    -77    -53     80     95 193.4 -40.4  34290  291.79 0854.31
2009/04/23 13:36:35.1      -1   -120    -64    121    136 180.9 -34.2  34276  291.55 0854.31
2009/04/23 13:36:35.2     -75   -138     12    158    159 208.5   4.4  34278  291.59 0854.31
2009/04/23 13:36:35.3    -173   -165    -56    240    247 226.4 -13.2  34264  291.33 0854.31
2009/04/23 13:36:35.4    -281     39   -119    284    307 277.9 -28.5  34216  290.53 0854.31
2009/04/23 13:36:35.5    -343     29   -103    345    360 274.9 -21.7  34178  289.86 0854.31
2009/04/23 13:36:35.6    -373     15     29    374    376 272.4   4.5  34208  290.40 0854.31
2009/04/23 13:36:35.7    -478   -323    -90    578    586 235.9  -8.9  34188  290.05 0854.31
2009/04/23 13:36:35.8    -379    -52    -26    383    384 262.1  -4.0  34178  289.87 0854.31
2009/04/23 13:36:35.9    -124   -145     67    192    204 220.5  19.2  34204  290.31 0854.31
2009/04/23 13:36:36.0     180   -216    107    282    301 140.3  21.7  34194  290.15 0854.31
2009/04/23 13:36:36.1    -103   -505    181    516    546 191.6  20.0  34202  290.28 0854.31
2009/04/23 13:36:36.2     132   -603    -34    618    619 167.6  -3.2  34198  290.21 0854.31
2009/04/23 13:36:36.3     110   -553     37    564    566 168.7   3.8  34192  290.11 0854.31
2009/04/23 13:36:36.4     172   -771    108    791    799 167.4   7.8  34184  289.98 0854.31
2009/04/23 13:36:36.5       0   -612     52    613    616 180.0   4.9  34184  289.99 0854.31
2009/04/23 13:36:36.6     231   -490    186    542    574 154.7  18.9  34176  289.85 0854.31
2009/04/23 13:36:36.7     120   -441    147    458    482 164.7  17.8  34166  289.66 0854.31
2009/04/23 13:36:36.8     176   -600    110    626    636 163.6  10.0  34188  290.06 0854.31
2009/04/23 13:36:36.9     123   -565    165    579    603 167.7  15.9  34186  290.00 0854.31
2009/04/23 13:36:37.0       8   -560    273    561    623 179.1  27.9  34186  290.00 0854.31
2009/04/23 13:36:37.1      80   -522    248    529    584 171.3  27.1  34192  290.11 0854.31
2009/04/23 13:36:37.2      18   -591    210    592    629 178.2  19.5  34190  290.08 0854.31
2009/04/23 13:36:37.3      46   -712    251    714    758 176.3  19.4  34190  290.09 0854.31
2009/04/23 13:36:37.4      17   -494    221    495    542 178.0  25.7  34182  289.94 0854.31
2009/04/23 13:36:37.5       7   -361    197    362    412 178.9  30.9  34182  289.96 0854.29
2009/04/23 13:36:37.6      27   -277     98    279    295 174.4  20.0  34178  289.86 0854.29
2009/04/23 13:36:37.7     -77   -313    270    323    420 193.8  44.1  34184  289.98 0854.29
2009/04/23 13:36:37.8     -91   -342    -13    354    355 194.9  -2.2  34180  289.91 0854.29
2009/04/23 13:36:37.9    -140   -390     -1    415    416 199.8  -0.3  34182  289.95 0854.29
2009/04/23 13:36:38.0     -90   -612    143    619    636 188.4  13.0  34172  289.77 0854.29
2009/04/23 13:36:38.1       1   -894     15    895    896 179.9   1.0  34168  289.71 0854.29
2009/04/23 13:36:38.2      95   -925    -18    930    931 174.1  -1.2  34166  289.69 0854.29
2009/04/23 13:36:38.3     -58   -766     37    768    769 184.4   2.8  34172  289.77 0854.29
2009/04/23 13:36:38.4     203   -750   -178    778    799 164.8 -12.9  34170  289.73 0854.29
2009/04/23 13:36:38.5    -413   -804    194    904    925 207.2  12.1  34162  289.60 0854.29
2009/04/23 13:36:38.6    -216   -709     39    742    743 197.0   3.0  34178  289.89 0854.29
2009/04/23 13:36:38.7      30   -670    -84    671    677 177.4  -7.2  34174  289.82 0854.29
2009/04/23 13:36:38.8     196   -765   -136    790    802 165.6  -9.8  34176  289.83 0854.29
2009/04/23 13:36:38.9     398   -490     40    632    634 140.9   3.6  34148  289.38 0854.29
2009/04/23 13:36:39.0     284   -541    -23    612    613 152.3  -2.2  34166  289.68 0854.29
2009/04/23 13:36:39.1     174   -573    134    600    615 163.1  12.6  34168  289.71 0854.29
2009/04/23 13:36:39.2      33   -598    205    599    634 176.8  18.9  34162  289.59 0854.29
2009/04/23 13:36:39.3      26   -745    208    746    775 178.0  15.6  34184  289.99 0854.29
2009/04/23 13:36:39.4      19   -640    202    641    673 178.2  17.5  34180  289.90 0854.29
2009/04/23 13:36:39.5     276   -757    235    807    841 160.0  16.3  34174  289.81 0854.31
2009/04/23 13:36:39.6     160   -791    393    807    897 168.5  27.9  34170  289.74 0854.31
2009/04/23 13:36:39.7     211   -800    268    828    871 165.2  17.9  34180  289.92 0854.31
2009/04/23 13:36:39.8     266   -764     33    810    811 160.8   2.4  34170  289.75 0854.31
2009/04/23 13:36:39.9     110   -592     -6    603    604 169.4  -0.6  34178  289.88 0854.31
2009/04/23 13:36:40.0     192   -669    145    697    713 164.0  11.8  34182  289.94 0854.31
2009/04/23 13:36:40.1     105   -618    233    627    668 170.3  21.4  34180  289.92 0854.31
2009/04/23 13:36:40.2       9   -618    217    619    655 179.1  20.1  34180  289.92 0854.31
2009/04/23 13:36:40.3      15   -623    288    624    687 178.6  26.5  34176  289.85 0854.31
2009/04/23 13:36:40.4      15   -491    298    492    575 178.2  34.2  34180  289.92 0854.31
2009/04/23 13:36:40.5      25   -543    221    544    587 177.3  23.4  34178  289.88 0854.31
2009/04/23 13:36:40.7     -74   -426    204    433    478 189.9  27.1  34176  289.83 0854.31
2009/04/23 13:36:40.7    -251   -393     78    467    474 212.6   9.5  34178  289.88 0854.31
2009/04/23 13:36:40.9    -207   -405    129    455    474 207.1  15.9  34182  289.95 0854.31
2009/04/23 13:36:41.0    -282   -365     49    462    465 217.6   6.1  34184  289.97 0854.31
2009/04/23 13:36:41.1    -428   -295   -103    521    532 235.4 -11.2  34182  289.94 0854.31
2009/04/23 13:36:41.2    -417   -122     33    435    437 253.7   4.3  34184  289.99 0854.31
2009/04/23 13:36:41.3    -128   -150   -110    198    226 220.5 -35.8  34174  289.82 0854.31
2009/04/23 13:36:41.4     -45     48    115     67    133 316.7  66.8  34188  290.06 0854.31
2009/04/23 13:36:41.5     -10    -68    -59     69     90 188.9 -49.2  34192  290.11 0854.29
2009/04/23 13:36:41.6     -34    -72    -91     80    121 205.3 -58.7  34188  290.04 0854.29
2009/04/23 13:36:41.7    -221    -77     65    235    245 250.7  15.6  34186  290.02 0854.29
2009/04/23 13:36:41.8    -367    237    312    437    536 302.9  39.1  34180  289.91 0854.29
2009/04/23 13:36:41.9    -200    127    142    238    277 302.5  33.5  34188  290.05 0854.29
2009/04/23 13:36:42.0    -215     75     83    228    242 289.3  20.9  34192  290.10 0854.29
2009/04/23 13:36:42.1      82    129     59    154    164  32.6  21.5  34188  290.04 0854.29
2009/04/23 13:36:42.2     152    -49    215    160    268 108.2  59.8  34186  290.00 0854.29
2009/04/23 13:36:42.3     -26     -7    151     27    153 254.9  90.0  34186  290.01 0854.29
2009/04/23 13:36:42.4     289    -88    204    303    365 106.9  37.2  34178  289.86 0854.29
2009/04/23 13:36:42.5     629    369    346    730    807  59.6  27.2  34164  289.64 0854.29
2009/04/23 13:36:42.6     691    386    -47    792    794  60.8  -3.4  34178  289.86 0854.29
2009/04/23 13:36:42.7     676    245     31    720    721  70.1   2.5  34170  289.74 0854.29
2009/04/23 13:36:42.8    1028    308    -23   1074   1075  73.3  -1.3  34170  289.74 0854.29
2009/04/23 13:36:42.9     964    312     86   1014   1018  72.1   4.9  34168  289.71 0854.29
2009/04/23 13:36:43.0     786    414   -187    889    909  62.2 -11.9  34190  290.09 0854.29
2009/04/23 13:36:43.1     896    270    178    936    953  73.2  10.8  34208  290.39 0854.29
2009/04/23 13:36:43.2     918    437     33   1017   1018  64.5   1.9  34160  289.57 0854.29
2009/04/23 13:36:43.3     977    110    184    984   1001  83.5  10.6  34160  289.58 0854.29
2009/04/23 13:36:43.4    1146    -82    157   1149   1160  94.1   7.8  34152  289.42 0854.29
2009/04/23 13:36:43.5    1074    -65    -42   1076   1077  93.5  -2.3  34172  289.76 0854.29
2009/04/23 13:36:43.6     656     30     77    657    662  87.3   6.7  34166  289.68 0854.29
2009/04/23 13:36:43.7     726     15    158    727    745  88.7  12.3  34168  289.70 0854.29
2009/04/23 13:36:43.8     624   -106   -153    634    653  99.7 -13.6  34174  289.81 0854.29
2009/04/23 13:36:43.9     387     78    -88    395    405  78.5 -12.7  34176  289.84 0854.29
2009/04/23 13:36:44.0      97     62     -8    116    117  57.6  -4.1  34178  289.89 0854.29
2009/04/23 13:36:44.1     -64     57    -91     86    125 311.8 -55.6  34174  289.82 0854.29
2009/04/23 13:36:44.2    -201     15   -176    202    267 274.4 -50.2  34180  289.90 0854.29
2009/04/23 13:36:44.3     -83    -44   -212     94    231 242.0 -79.2  34182  289.96 0854.29
2009/04/23 13:36:44.4     -27    -44   -240     52    245 211.6 -90.0  34188  290.04 0854.29
2009/04/23 13:36:44.5     332   -187   -169    382    417 119.4 -29.7  34184  289.99 0854.29
2009/04/23 13:36:44.6     393    -49    -99    397    410  97.1 -14.1  34180  289.92 0854.29
2009/04/23 13:36:44.7     276      1   -159    277    319  89.6 -37.1  34190  290.09 0854.29
2009/04/23 13:36:44.8     521     76   -220    527    571  81.6 -28.5  34184  289.97 0854.29
2009/04/23 13:36:44.9     340    222    145    407    432  56.9  20.6  34176  289.83 0854.29
2009/04/23 13:36:45.0     425    310     30    527    528  53.9   3.3  34176  289.84 0854.29
2009/04/23 13:36:45.1     380   -101    139    394    418 104.9  19.5  34186  290.00 0854.29
2009/04/23 13:36:45.2     440   -176    218    475    522 111.8  26.4  34186  290.01 0854.29
2009/04/23 13:36:45.3      48   -185    260    192    323 165.5  59.9  34176  289.85 0854.29
2009/04/23 13:36:45.4     -47   -167    350    174    390 195.8  71.8  34182  289.96 0854.29
2009/04/23 13:36:45.5    -339   -136    183    366    409 248.1  28.4  34182  289.94 0854.30
2009/04/23 13:36:45.6     -85   -218     20    235    236 201.4   4.9  34188  290.05 0854.30
2009/04/23 13:36:45.7     -27   -251     34    253    256 186.2   7.8  34190  290.09 0854.30
2009/04/23 13:36:45.8    -241   -460     36    520    522 207.7   4.0  34192  290.13 0854.30
2009/04/23 13:36:45.9     -54   -394    268    398    479 187.9  37.2  34182  289.94 0854.30
2009/04/23 13:36:46.0    -259   -717   -156    763    780 199.9 -11.6  34180  289.91 0854.30
2009/04/23 13:36:46.1    -360   -894   -158    964    978 202.0  -9.3  34170  289.74 0854.30
2009/04/23 13:36:46.2    -156   -701    -84    719    724 192.6  -6.7  34170  289.74 0854.30
2009/04/23 13:36:46.3      38   -632   -281    634    693 176.5 -30.0  34194  290.14 0854.30
2009/04/23 13:36:46.4     282   -540   -236    610    654 152.4 -26.7  34194  290.16 0854.30
2009/04/23 13:36:46.5     299   -451   -153    542    564 146.5 -15.8  34172  289.77 0854.30
2009/04/23 13:36:46.6     398   -435     -7    590    591 137.6  -0.7  34176  289.83 0854.30
2009/04/23 13:36:46.7     517   -400     76    654    659 127.7   6.7  34188  290.05 0854.30
2009/04/23 13:36:46.8     315   -419    417    525    670 143.0  42.4  34184  289.98 0854.30
2009/04/23 13:36:46.9     114   -579    376    591    700 168.8  35.5  34178  289.88 0854.30
2009/04/23 13:36:47.0     -10   -385    399    386    555 181.5  51.2  34192  290.13 0854.30
2009/04/23 13:36:47.1    -161      0    221    162    274 270.0  60.5  34188  290.05 0854.30
2009/04/23 13:36:47.2    -389   -218    461    447    642 240.7  51.1  34196  290.19 0854.30
2009/04/23 13:36:47.3     418   -272    415    499    649 123.1  44.0  34180  289.90 0854.30
2009/04/23 13:36:47.4     233   -468    325    523    615 153.5  35.0  34178  289.88 0854.30
2009/04/23 13:36:47.5     315   -303    366    438    570 133.9  44.1  34180  289.90 0854.31
2009/04/23 13:36:47.6     592   -500    541    776    945 130.2  38.3  34182  289.94 0854.31
2009/04/23 13:36:47.7     500   -768    515    917   1051 146.9  31.9  34180  289.92 0854.31
2009/04/23 13:36:47.8     361   -573    609    678    911 147.8  46.4  34170  289.75 0854.31
2009/04/23 13:36:47.9     225   -163    498    279    570 126.0  68.4  34194  290.15 0854.31
2009/04/23 13:36:48.0      69   -355    450    362    577 169.0  57.1  34192  290.12 0854.31
2009/04/23 13:36:48.1      -4   -539    461    540    710 180.5  44.8  34184  289.97 0854.31
2009/04/23 13:36:48.2      -7   -447    591    448    741 181.0  59.2  34186  290.02 0854.31
2009/04/23 13:36:48.3    -100   -230    480    252    542 203.6  70.3  34196  290.18 0854.31
2009/04/23 13:36:48.4    -123   -560    586    574    820 192.4  50.7  34190  290.09 0854.31
2009/04/23 13:36:48.5     -79   -563    391    569    690 188.0  37.8  34182  289.96 0854.31
2009/04/23 13:36:48.6      21   -278    363    279    457 175.5  58.6  34188  290.05 0854.31
2009/04/23 13:36:48.7      23   -304    397    306    501 175.5  58.6  34190  290.07 0854.31
2009/04/23 13:36:48.8    -123   -555    560    569    798 192.5  49.5  34190  290.08 0854.31
2009/04/23 13:36:48.9      39   -304    427    307    525 172.7  60.7  34188  290.03 0854.31
2009/04/23 13:36:49.0     103   -203    323    228    395 153.0  61.5  34184  289.99 0854.31
2009/04/23 13:36:49.1      52    -38    288     65    295 126.0  87.7  34192  290.10 0854.31
2009/04/23 13:36:49.2     127   -199    355    237    426 147.4  63.3  34192  290.13 0854.31
2009/04/23 13:36:49.3     191   -434    326    475    576 156.3  37.7  34180  289.92 0854.31
2009/04/23 13:36:49.4    -144   -606     24    623    624 193.4   2.2  34178  289.86 0854.31
2009/04/23 13:36:49.5    -248   -340      6    422    423 216.1   0.8  34182  289.95 0854.32
2009/04/23 13:36:49.6    -120   -275    148    301    335 203.6  28.0  34194  290.15 0854.32
2009/04/23 13:36:49.7    -210   -484    197    528    563 203.5  21.5  34188  290.04 0854.32
2009/04/23 13:36:49.8    -213   -606    275    643    699 199.4  24.6  34180  289.92 0854.32
2009/04/23 13:36:49.9    -154   -493    444    517    681 197.4  45.0  34188  290.06 0854.32
2009/04/23 13:36:50.0    -122   -328    261    351    437 200.4  40.4  34184  289.99 0854.32
2009/04/23 13:36:50.1     -35   -170    292    174    339 191.8  66.4  34196  290.19 0854.32
2009/04/23 13:36:50.2    -288     -3    218    289    362 269.4  40.9  34190  290.08 0854.32
2009/04/23 13:36:50.3    -307    226    264    382    464 306.3  37.9  34196  290.17 0854.32
2009/04/23 13:36:50.4    -156    368    194    400    444 337.0  27.7  34198  290.21 0854.32
2009/04/23 13:36:50.5    -191    469    189    507    541 337.8  21.5  34208  290.38 0854.32
2009/04/23 13:36:50.6    -171    362    145    401    426 334.6  20.7  34208  290.39 0854.32
2009/04/23 13:36:50.7      66    122    149    139    203  28.5  52.1  34208  290.40 0854.32
2009/04/23 13:36:50.8     -65    196    156    207    259 341.7  40.7  34206  290.36 0854.32
2009/04/23 13:36:50.9     326    258    123    417    435  51.6  16.5  34204  290.31 0854.32
2009/04/23 13:36:51.0     110     47    198    120    231  66.5  65.7  34194  290.16 0854.32
2009/04/23 13:36:51.1     -16    132     75    134    153 352.9  31.4  34186  290.02 0854.32
2009/04/23 13:36:51.2     351    259    189    437    476  53.6  24.9  34196  290.19 0854.32
2009/04/23 13:36:51.3     195    267     46    331    335  36.1   8.0  34208  290.40 0854.32
2009/04/23 13:36:51.4      88    203      2    222    223  23.6   0.7  34204  290.33 0854.32
2009/04/23 13:36:51.5      41    326   -153    329    362   7.2 -31.4  34238  290.88 0854.36
2009/04/23 13:36:51.6     177    388   -177    427    462  24.6 -28.2  34234  290.84 0854.36
2009/04/23 13:36:51.7     -29    181    -69    184    196 350.7 -25.9  34220  290.60 0854.36
2009/04/23 13:36:51.8     -60     96    117    114    163 327.9  50.7  34222  290.62 0854.36
2009/04/23 13:36:51.9     159    117    129    198    236  53.6  36.3  34232  290.81 0854.36
2009/04/23 13:36:52.0     456    310    162    552    576  55.7  16.4  34246  291.03 0854.36
2009/04/23 13:36:52.1     420    315    250    526    582  53.1  27.3  34244  291.01 0854.36
2009/04/23 13:36:52.2      53    371    171    375    412   8.2  26.2  34224  290.67 0854.36
2009/04/23 13:36:52.3     281    333    218    436    487  40.2  28.6  34248  291.05 0854.36
2009/04/23 13:36:52.4     192    272    123    334    355  35.2  21.0  34254  291.18 0854.36
2009/04/23 13:36:52.5     -88    177    122    198    232 333.5  35.2  34222  290.64 0854.36
2009/04/23 13:36:52.6    -113    203    168    233    287 331.0  39.5  34232  290.78 0854.36
2009/04/23 13:36:52.7      93     68    148    116    188  53.6  57.9  34242  290.96 0854.36
2009/04/23 13:36:52.8     126     44    190    134    232  70.5  61.5  34246  291.04 0854.36
2009/04/23 13:36:52.9     112     72    189    134    231  57.1  61.3  34254  291.18 0854.36
2009/04/23 13:36:53.0     106     76    137    131    189  54.1  51.2  34258  291.23 0854.36
2009/04/23 13:36:53.1     -40    154     91    160    184 345.3  32.1  34256  291.20 0854.36
2009/04/23 13:36:53.2       9    187     73    188    201   2.9  22.3  34276  291.55 0854.36
2009/04/23 13:36:53.3      27    115     70    119    138  13.4  33.4  34278  291.57 0854.36
2009/04/23 13:36:53.4      39     97     99    105    144  21.9  48.5  34282  291.66 0854.36
2009/04/23 13:36:53.5     -30     60     87     68    110 333.7  57.9  34280  291.62 0854.38
2009/04/23 13:36:53.6     -93     25     95     97    135 285.5  50.0  34272  291.49 0854.38
2009/04/23 13:36:53.7    -131     18     53    133    143 278.0  23.0  34266  291.38 0854.38
2009/04/23 13:36:53.8    -145    102     61    178    189 305.1  18.9  34256  291.21 0854.38
2009/04/23 13:36:53.9    -258     56    -35    265    268 282.4  -7.7  34236  290.87 0854.38
2009/04/23 13:36:54.0     -86     64     44    108    116 306.4  23.0  34240  290.94 0854.38
2009/04/23 13:36:54.1     -80     66     47    104    114 309.5  26.2  34254  291.16 0854.38
2009/04/23 13:36:54.2     -29    -30     80     42     90 224.1  70.4  34260  291.26 0854.38
2009/04/23 13:36:54.3     -54    -29    100     62    117 242.0  65.1  34258  291.25 0854.38
2009/04/23 13:36:54.4    -200    -13    143    201    246 266.1  38.8  34248  291.05 0854.38
2009/04/23 13:36:54.5    -254     25     90    256    272 275.7  19.4  34234  290.83 0854.38
2009/04/23 13:36:54.6    -312     46      2    316    317 278.4   0.5  34210  290.42 0854.38
2009/04/23 13:36:54.7    -267      7     42    268    272 271.7   8.9  34212  290.44 0854.38
2009/04/23 13:36:54.8    -122   -167    107    207    233 216.1  29.3  34218  290.57 0854.38
2009/04/23 13:36:54.9    -165   -199     50    259    264 219.7  11.0  34208  290.37 0854.38
2009/04/23 13:36:55.0    -244   -147     78    286    297 238.9  15.3  34192  290.12 0854.38
2009/04/23 13:36:55.1    -153   -159     -1    221    222 223.9  -0.5  34196  290.19 0854.38
2009/04/23 13:36:55.2    -290   -156     79    330    340 241.6  13.5  34194  290.16 0854.38
2009/04/23 13:36:55.3    -327   -178     80    373    382 241.5  12.2  34196  290.18 0854.38
2009/04/23 13:36:55.4    -300    -58    114    306    326 259.0  21.4  34218  290.54 0854.38
2009/04/23 13:36:55.5    -289     88     83    303    315 287.1  15.3  34206  290.36 0854.41
2009/04/23 13:36:55.6    -315    225    109    388    404 305.6  15.7  34218  290.57 0854.41
2009/04/23 13:36:55.7    -426    185     91    465    474 293.5  11.1  34218  290.57 0854.41
2009/04/23 13:36:55.8    -171    191    178    257    312 318.1  38.0  34228  290.71 0854.41
2009/04/23 13:36:55.9     121    100    315    158    352  50.4  71.4  34230  290.75 0854.41
2009/04/23 13:36:56.0     261    224   -166    345    382  49.3 -31.7  34222  290.64 0854.41
2009/04/23 13:36:56.1     235    299    -74    381    389  38.1 -11.0  34238  290.91 0854.41
2009/04/23 13:36:56.2     304     94     41    319    322  72.7   7.5  34222  290.61 0854.41
2009/04/23 13:36:56.3     177      0    184    178    256  90.0  51.2  34236  290.87 0854.41
2009/04/23 13:36:56.4      34    226     81    229    244   8.7  19.6  34228  290.73 0854.41
2009/04/23 13:36:56.5     142    299     98    332    347  25.4  16.5  34224  290.66 0854.41
2009/04/23 13:36:56.6     219    276    132    353    376  38.4  21.5  34246  291.03 0854.41
2009/04/23 13:36:56.7     159    194    -31    251    254  39.4  -7.2  34238  290.88 0854.41
2009/04/23 13:36:56.8      74   -125      8    146    147 149.2   3.3  34222  290.64 0854.41
2009/04/23 13:36:56.9     210     36    117    214    243  80.3  31.3  34212  290.46 0854.41
2009/04/23 13:36:57.0     211     97    -94    233    251  65.2 -27.4  34210  290.41 0854.41
2009/04/23 13:36:57.1     402     56    -44    407    410  82.0  -6.2  34200  290.26 0854.41
2009/04/23 13:36:57.2     463    266     -6    535    536  60.1  -0.7  34196  290.19 0854.41
2009/04/23 13:36:57.3     630    260   -115    682    692  67.6  -9.6  34240  290.94 0854.41
2009/04/23 13:36:57.4     631    184    235    658    699  73.7  19.7  34224  290.65 0854.41
2009/04/23 13:36:57.5     432    267    373    509    631  58.3  39.9  34212  290.47 0854.43
2009/04/23 13:36:57.6     131     47    353    140    379  70.0  77.3  34220  290.59 0854.43
2009/04/23 13:36:57.7      -8     -3    236      9    236 244.7  90.0  34220  290.58 0854.43
2009/04/23 13:36:57.8     181     -4    312    182    361  91.5  67.0  34222  290.63 0854.43
2009/04/23 13:36:57.9     340    -27    155    342    375  94.7  26.0  34224  290.66 0854.43
2009/04/23 13:36:58.0     273    175    106    325    343  57.4  18.1  34192  290.11 0854.43
2009/04/23 13:36:58.1     554     44     95    556    565  85.4   9.7  34200  290.26 0854.43
2009/04/23 13:36:58.2     630    209    117    664    675  71.6  10.0  34226  290.68 0854.43
2009/04/23 13:36:58.3     705    247    399    748    847  70.7  30.3  34254  291.18 0854.43
2009/04/23 13:36:58.4     761    283    354    813    886  69.6  25.1  34204  290.31 0854.43
2009/04/23 13:36:58.5     698    319    240    768    805  65.4  17.4  34192  290.12 0854.45
2009/04/23 13:36:58.6     835    380    414    918   1007  65.5  25.9  34184  289.97 0854.45
2009/04/23 13:36:58.7     825    325    510    887   1023  68.5  32.4  34194  290.16 0854.45
2009/04/23 13:36:58.8     766    365    621    849   1051  64.5  39.8  34234  290.83 0854.45
2009/04/23 13:36:58.9     893    194    431    915   1011  77.7  27.1  34200  290.26 0854.45
2009/04/23 13:36:59.0    1065    505    479   1179   1272  64.6  23.4  34188  290.05 0854.45
2009/04/23 13:36:59.1    1033    338    616   1087   1249  71.9  32.1  34208  290.37 0854.45
2009/04/23 13:36:59.2     948    364    546   1016   1153  69.0  30.6  34182  289.96 0854.45
2009/04/23 13:36:59.3     913    451    356   1019   1079  63.7  20.1  34180  289.92 0854.45
2009/04/23 13:36:59.4     906    497    243   1034   1063  61.3  13.2  34192  290.11 0854.45
2009/04/23 13:36:59.5    1090    290    408   1128   1200  75.1  19.9  34190  290.09 0854.45
2009/04/23 13:36:59.6    1064    412    333   1142   1190  68.8  16.3  34192  290.12 0854.45
2009/04/23 13:36:59.7     660    703     73    965    968  43.2   4.3  34196  290.18 0854.45
2009/04/23 13:36:59.8    1200    638     23   1359   1360  62.0   1.0  34200  290.25 0854.45
2009/04/23 13:36:59.9     940    342     12   1001   1002  70.0   0.7  34202  290.29 0854.45
2009/04/23 13:37:00.0     853    418    -54    950    952  63.9  -3.3  34200  290.25 0854.45
2009/04/23 13:37:00.1     968    375     59   1039   1041  68.8   3.3  34202  290.28 0854.45
2009/04/23 13:37:00.2     717    376    212    810    838  62.3  14.7  34204  290.33 0854.45
2009/04/23 13:37:00.3     334    475    373    581    690  35.1  35.7  34250  291.11 0854.45
2009/04/23 13:37:00.4     407    464    277    618    677  41.3  25.8  34216  290.53 0854.45
2009/04/23 13:37:00.5     372    330    107    498    510  48.4  12.2  34270  291.44 0854.42
2009/04/23 13:37:00.6     361    619    104    717    725  30.2   8.3  34214  290.49 0854.42
2009/04/23 13:37:00.7     419    161    247    449    512  68.9  31.3  34208  290.37 0854.42
2009/04/23 13:37:00.8     271     77    305    282    415  74.0  52.5  34214  290.49 0854.42
2009/04/23 13:37:00.9     476   -141    390    497    631 106.5  42.0  34194  290.15 0854.42
2009/04/23 13:37:01.0     458    163    308    487    576  70.4  35.5  34218  290.55 0854.42
2009/04/23 13:37:01.1     442    164    128    472    490  69.6  15.2  34218  290.54 0854.42
2009/04/23 13:37:01.2     384    183     13    426    427  64.5   1.8  34214  290.50 0854.42
2009/04/23 13:37:01.3      59    178    154    188    243  18.5  43.7  34188  290.04 0854.42
2009/04/23 13:37:01.4       8   -104    288    105    306 175.5  79.2  34204  290.31 0854.42
2009/04/23 13:37:01.5    -256   -276    404    377    552 222.8  52.2  34214  290.49 0854.42
2009/04/23 13:37:01.6     131    -24    291    134    320 100.6  73.8  34188  290.05 0854.42
2009/04/23 13:37:01.7      48     77    104     92    138  32.1  53.7  34196  290.18 0854.42
2009/04/23 13:37:01.8      79    147    191    167    253  28.3  54.3  34208  290.40 0854.42
2009/04/23 13:37:01.9     176     96    251    201    321  61.4  57.3  34198  290.22 0854.42
2009/04/23 13:37:02.0      17    277     49    278    283   3.6  10.1  34228  290.71 0854.42
2009/04/23 13:37:02.1      -5    355    -33    356    358 359.1  -5.4  34212  290.47 0854.42
2009/04/23 13:37:02.2     -12    165      9    166    167 355.6   3.3  34194  290.16 0854.42
2009/04/23 13:37:02.3     -24    102    218    105    241 346.6  72.7  34208  290.40 0854.42
2009/04/23 13:37:02.4      41   -187    368    192    415 167.5  70.4  34208  290.37 0854.42
2009/04/23 13:37:02.5    -158   -161    366    226    430 224.5  65.6  34206  290.35 0854.27
2009/04/23 13:37:02.6      30     89    387     95    398  18.7  86.3  34198  290.23 0854.27
2009/04/23 13:37:02.7     -16     30    371     35    372 331.0  90.0  34202  290.27 0854.27
2009/04/23 13:37:02.8     138     45    357    146    385  71.8  76.8  34196  290.17 0854.27
2009/04/23 13:37:02.9    -104    -21    315    107    332 258.5  80.9  34218  290.54 0854.27
2009/04/23 13:37:03.0    -304    -23    378    305    485 265.6  57.0  34216  290.51 0854.27
2009/04/23 13:37:03.1    -210   -179    387    277    475 229.6  61.0  34220  290.58 0854.27
2009/04/23 13:37:03.2    -289   -222    453    365    581 232.4  57.0  34222  290.63 0854.27
2009/04/23 13:37:03.3     -29   -143    352    147    381 191.6  76.2  34212  290.44 0854.27
2009/04/23 13:37:03.4     -32   -157    314    161    352 191.6  70.8  34182  289.95 0854.27
2009/04/23 13:37:03.5    -163     40    200    168    261 283.9  55.8  34202  290.29 0854.27
2009/04/23 13:37:03.6     -83      0    127     84    152 270.0  64.1  34196  290.18 0854.27
2009/04/23 13:37:03.7    -328    118     67    349    356 289.8  11.0  34180  289.91 0854.27
2009/04/23 13:37:03.8     -19    424     40    425    428 357.3   5.5  34182  289.94 0854.27
2009/04/23 13:37:03.9     145    268     59    305    311  28.5  11.0  34182  289.93 0854.27
2009/04/23 13:37:04.0     174    283     58    333    339  31.6   9.9  34178  289.86 0854.27
2009/04/23 13:37:04.1     178    124      3    218    219  55.1   0.8  34192  290.11 0854.27
2009/04/23 13:37:04.2     155    309   -170    346    385  26.7 -32.4  34228  290.74 0854.27
2009/04/23 13:37:04.3     101    175   -187    203    276  30.1 -52.1  34220  290.58 0854.27
2009/04/23 13:37:04.4     -52    166    -48    175    182 342.6 -15.5  34220  290.58 0854.27
2009/04/23 13:37:04.5       0     -3    -56      4     56 184.5 -90.0  34212  290.47 0854.25
2009/04/23 13:37:04.6     -29     16     30     34     45 298.9  46.9  34212  290.47 0854.25
2009/04/23 13:37:04.7    -159    -17    -81    160    179 263.8 -33.1  34216  290.52 0854.25
2009/04/23 13:37:04.8    -143    101   -130    176    218 305.3 -44.3  34210  290.43 0854.25
2009/04/23 13:37:04.9    -151    185   -136    239    274 320.8 -36.5  34214  290.48 0854.25
2009/04/23 13:37:05.0     -17    221    -43    222    227 355.5 -11.1  34218  290.55 0854.25
2009/04/23 13:37:05.1      94    130    -12    161    162  36.1  -4.4  34212  290.47 0854.25
2009/04/23 13:37:05.2     102    153    -53    185    192  33.8 -21.0  34212  290.45 0854.25
2009/04/23 13:37:05.3      18    241     92    242    258   4.4  22.0  34216  290.53 0854.25
2009/04/23 13:37:05.4     -35    228     63    231    240 351.1  15.3  34204  290.32 0854.25
2009/04/23 13:37:05.5     249      0    195    250    317  90.0  41.9  34200  290.26 0854.25
2009/04/23 13:37:05.6     205    172    189    268    327  50.0  38.6  34216  290.53 0854.25
2009/04/23 13:37:05.7      76    -15    132     78    153 101.5  66.7  34216  290.52 0854.25
2009/04/23 13:37:05.8      98   -187    221    212    306 152.4  51.4  34210  290.41 0854.25
2009/04/23 13:37:05.9     279     69    261    288    388  76.1  47.0  34218  290.55 0854.25
2009/04/23 13:37:06.0     272    106    345    292    451  68.7  55.6  34230  290.77 0854.25
2009/04/23 13:37:06.1     191     63    336    202    392  71.6  66.4  34218  290.57 0854.25
2009/04/23 13:37:06.2      63    165    208    177    273  21.2  55.6  34228  290.71 0854.25
2009/04/23 13:37:06.3      -6    -47    129     48    137 188.0  79.2  34220  290.60 0854.25
2009/04/23 13:37:06.4    -164    -24     97    166    192 261.4  33.1  34218  290.55 0854.25
2009/04/23 13:37:06.5    -241    -99     20    261    262 247.6   4.4  34216  290.53 0854.27
2009/04/23 13:37:06.6    -294   -157    171    334    375 241.8  29.3  34218  290.54 0854.27
2009/04/23 13:37:06.7    -331   -211    137    393    417 237.5  19.2  34224  290.65 0854.27
2009/04/23 13:37:06.8    -315   -224    214    387    442 234.5  31.4  34220  290.60 0854.27
2009/04/23 13:37:06.9    -221   -207    177    303    350 226.9  33.1  34220  290.60 0854.27
2009/04/23 13:37:07.0     -93   -232    165    251    300 201.9  36.5  34212  290.44 0854.27
2009/04/23 13:37:07.1      -6    -30    157     31    160 191.6  89.6  34222  290.62 0854.27
2009/04/23 13:37:07.2     -42     61    143     75    161 325.7  70.4  34220  290.58 0854.27
2009/04/23 13:37:07.3     -14     46    197     49    203 342.2  85.9  34220  290.60 0854.27
2009/04/23 13:37:07.4      15    -62    159     64    171 165.7  77.1  34220  290.58 0854.27
2009/04/23 13:37:07.5     -13    -38    101     41    109 200.0  77.1  34218  290.55 0854.27
2009/04/23 13:37:07.6      13      6    113     15    113  64.7  90.0  34210  290.41 0854.27
2009/04/23 13:37:07.7      40    140    104    146    179  16.0  39.3  34202  290.28 0854.27
2009/04/23 13:37:07.8     131    -30    185    135    229 103.2  60.5  34212  290.45 0854.27
2009/04/23 13:37:07.9      68     13    173     70    186  78.6  77.0  34206  290.36 0854.27
2009/04/23 13:37:08.0     -18     30    136     36    140 329.3  84.9  34206  290.36 0854.27
2009/04/23 13:37:08.2     -39     72    128     83    152 331.5  64.6  34210  290.41 0854.27
2009/04/23 13:37:08.3     181     68     41    194    199  69.2  12.2  34206  290.35 0854.27
2009/04/23 13:37:08.4     145     11     67    146    160  85.6  26.2  34204  290.33 0854.27
2009/04/23 13:37:08.5     144     13    135    145    198  84.8  47.9  34204  290.31 0854.27
2009/04/23 13:37:08.6     225     24     72    227    239  83.8  17.7  34226  290.70 0854.27
2009/04/23 13:37:08.7     210     63    125    220    253  73.2  32.3  34248  291.05 0854.27
2009/04/23 13:37:08.8     257     33    120    260    286  82.5  26.6  34236  290.87 0854.27
2009/04/23 13:37:08.9     273     -6     80    274    286  91.3  16.3  34230  290.75 0854.27
2009/04/23 13:37:09.0     101     47    184    112    215  64.8  66.0  34238  290.89 0854.27
2009/04/23 13:37:09.1     -24     35    123     43    130 325.7  80.7  34238  290.91 0854.27
2009/04/23 13:37:09.2     -55    100     96    115    149 331.1  43.8  34232  290.79 0854.27
2009/04/23 13:37:09.3     -24    110    125    113    168 347.5  53.3  34228  290.72 0854.27
2009/04/23 13:37:09.4     -59    246    130    254    285 346.4  29.2  34240  290.93 0854.27
2009/04/23 13:37:09.5     -91    203    124    223    255 335.9  31.4  34254  291.17 0854.27
2009/04/23 13:37:09.6     -82    205     91    221    239 338.2  23.6  34250  291.09 0854.27
2009/04/23 13:37:09.7     -94    198     76    220    233 334.7  19.2  34252  291.13 0854.27
2009/04/23 13:37:09.8      60    196     72    206    219  17.2  19.4  34266  291.38 0854.27
2009/04/23 13:37:09.9      46    139     91    147    172  18.3  35.2  34266  291.37 0854.27
2009/04/23 13:37:10.0     -38    114     41    121    128 341.5  18.9  34242  290.98 0854.27
2009/04/23 13:37:10.1     -99     24    -20    102    105 283.7 -11.5  34238  290.89 0854.27
2009/04/23 13:37:10.2     -50     16    -59     53     79 288.2 -57.1  34242  290.96 0854.27
2009/04/23 13:37:10.3     -16    -47     44     50     66 199.2  46.9  34238  290.91 0854.27
2009/04/23 13:37:10.4    -182    -57     24    191    193 252.5   7.2  34232  290.81 0854.27
2009/04/23 13:37:10.5    -254   -243    -99    352    365 226.3 -20.3  34214  290.49 0854.29
2009/04/23 13:37:10.6    -301   -202    148    363    392 236.1  23.5  34232  290.81 0854.29
2009/04/23 13:37:10.7    -223   -213     16    309    310 226.4   3.1  34228  290.73 0854.29
2009/04/23 13:37:10.8    -225   -248    137    335    361 222.2  23.6  34216  290.52 0854.29
2009/04/23 13:37:10.9     -51     -7    186     52    193 261.2  84.1  34228  290.72 0854.29
2009/04/23 13:37:11.0      70   -110    100    131    164 147.4  41.2  34226  290.70 0854.29
2009/04/23 13:37:11.1      25   -124    131    127    182 168.4  50.9  34222  290.62 0854.29
2009/04/23 13:37:11.2     -33   -303    210    305    370 186.2  37.7  34222  290.64 0854.29
2009/04/23 13:37:11.3      58   -287    150    294    330 168.4  29.1  34200  290.24 0854.29
2009/04/23 13:37:11.4     113   -221     98    249    267 152.9  22.8  34206  290.36 0854.29
2009/04/23 13:37:11.5     110   -129    149    170    226 139.5  45.8  34194  290.14 0854.29
2009/04/23 13:37:11.6       7   -136     85    137    161 176.9  34.8  34182  289.94 0854.29
2009/04/23 13:37:11.7     110   -138     62    177    188 141.5  19.6  34180  289.91 0854.29
2009/04/23 13:37:11.8      88   -121     -3    150    151 143.9  -1.2  34184  289.97 0854.29
2009/04/23 13:37:11.9     103   -143     22    177    179 144.4   7.2  34184  289.97 0854.29
2009/04/23 13:37:12.0      89   -188     71    209    221 154.6  18.9  34186  290.01 0854.29
2009/04/23 13:37:12.1      36   -177     90    181    202 168.4  28.2  34184  289.99 0854.29
2009/04/23 13:37:12.2      52   -158     98    167    193 161.7  33.5  34194  290.14 0854.29
2009/04/23 13:37:12.3      61    -90    147    109    183 145.7  60.0  34198  290.23 0854.29
2009/04/23 13:37:12.4      56   -188    105    197    223 163.3  30.6  34200  290.25 0854.29
2009/04/23 13:37:12.5      70   -238     69    249    259 163.5  15.6  34196  290.19 0854.28
2009/04/23 13:37:12.6      46   -204      0    210    211 167.3   0.2  34198  290.21 0854.28
2009/04/23 13:37:12.7     132   -127     69    184    196 134.0  21.5  34194  290.16 0854.28
2009/04/23 13:37:12.8      78    -66    126    103    162 130.0  56.6  34206  290.36 0854.28
2009/04/23 13:37:12.9      34    -53    131     64    145 147.5  72.8  34208  290.40 0854.28
2009/04/23 13:37:13.0      -9     16    134     19    135 331.0  90.0  34214  290.48 0854.28
2009/04/23 13:37:13.1     -24     -7    106     26    109 253.2  85.9  34206  290.35 0854.28
2009/04/23 13:37:13.2     -86     13     77     88    116 278.8  45.8  34208  290.40 0854.28
2009/04/23 13:37:13.3     -51     54     65     75     99 316.8  45.4  34208  290.40 0854.28
2009/04/23 13:37:13.4     -54     58     56     80     97 316.8  38.0  34210  290.43 0854.28
2009/04/23 13:37:13.5     -98      0     -3     99    100 270.0  -2.2  34208  290.40 0854.28
2009/04/23 13:37:13.6     -61    -13     21     63     67 257.6  18.9  34208  290.40 0854.28
2009/04/23 13:37:13.7     -30    -19     -4     36     37 237.5  -7.2  34208  290.38 0854.28
2009/04/23 13:37:13.8       3    -30     31     31     43 173.8  50.1  34208  290.38 0854.28
2009/04/23 13:37:13.9     -42    -49    110     65    127 220.5  66.8  34212  290.45 0854.28
2009/04/23 13:37:14.0     -46    -19    107     50    118 247.4  73.5  34210  290.41 0854.28
2009/04/23 13:37:14.1     -51     31    129     60    142 301.5  73.1  34212  290.45 0854.28
2009/04/23 13:37:14.2      17     26     95     32    100  32.5  81.0  34214  290.48 0854.28
2009/04/23 13:37:14.3     -10    143    110    144    181 356.0  41.4  34220  290.58 0854.28
2009/04/23 13:37:14.4      17     64     85     67    108  15.2  56.9  34222  290.62 0854.28
2009/04/23 13:37:14.5     -57    105    123    120    171 331.5  50.7  34214  290.50 0854.33
2009/04/23 13:37:14.6     -31    119    130    124    179 345.3  51.4  34222  290.64 0854.33
2009/04/23 13:37:14.7      10    217    162    218    271   2.7  40.1  34222  290.61 0854.33
2009/04/23 13:37:14.8      48    156    146    164    219  17.2  46.4  34224  290.65 0854.33
2009/04/23 13:37:14.9     -35    161    156    165    227 347.5  48.0  34214  290.48 0854.33
2009/04/23 13:37:15.0       4     88     94     89    129   3.1  51.6  34216  290.53 0854.33
2009/04/23 13:37:15.1      45     37     79     59     98  50.5  60.0  34214  290.48 0854.33
2009/04/23 13:37:15.2      57    158     63    169    180  20.0  21.3  34208  290.40 0854.33
2009/04/23 13:37:15.3      67    249     49    259    264  15.2  10.8  34202  290.27 0854.33
2009/04/23 13:37:15.4     -41    204     40    209    213 348.7  11.0  34208  290.40 0854.33
2009/04/23 13:37:15.5     -16    178     36    179    183 354.7  11.6  34212  290.45 0854.33
2009/04/23 13:37:15.6       7    130      1    131    132   3.1   0.8  34206  290.35 0854.33
2009/04/23 13:37:15.7      59    207     -8    216    217  16.0  -2.2  34214  290.48 0854.33
2009/04/23 13:37:15.8      51    128     62    138    151  21.8  26.2  34216  290.53 0854.33
2009/04/23 13:37:15.9      57     11     90     59    107  78.6  64.6  34216  290.52 0854.33
2009/04/23 13:37:16.0      -1    125    125    126    177 359.5  50.0  34216  290.53 0854.33
2009/04/23 13:37:16.1      67     92     97    115    150  36.1  43.8  34212  290.47 0854.33
2009/04/23 13:37:16.2     253    229     -1    342    343  47.8  -0.2  34212  290.47 0854.33
2009/04/23 13:37:16.3     105    213    121    238    266  26.3  29.1  34220  290.59 0854.33
2009/04/23 13:37:16.4      96    264    151    282    319  20.1  30.5  34232  290.80 0854.33
2009/04/23 13:37:16.5      72    341    126    349    372  12.0  19.9  34248  291.05 0854.37
2009/04/23 13:37:16.6     -10    341    122    342    363 358.2  20.6  34240  290.93 0854.37
2009/04/23 13:37:16.7     -56    241    123    248    276 346.7  28.2  34254  291.17 0854.37
2009/04/23 13:37:16.8    -129    283     67    312    320 335.5  12.2  34234  290.82 0854.37
2009/04/23 13:37:16.9    -124    273     82    301    313 335.5  15.3  34212  290.46 0854.37
2009/04/23 13:37:17.0    -172    346    136    387    410 333.5  20.0  34214  290.50 0854.37
2009/04/23 13:37:17.1    -232    273    102    359    374 319.6  15.9  34220  290.59 0854.37
2009/04/23 13:37:17.2    -240    306     88    390    400 321.9  12.8  34218  290.54 0854.37
2009/04/23 13:37:17.3      17    268    246    269    364   3.6  47.1  34218  290.54 0854.37
2009/04/23 13:37:17.4     216    183    108    284    303  49.8  22.0  34224  290.66 0854.37
2009/04/23 13:37:17.5     121    223    115    254    278  28.5  26.2  34226  290.68 0854.37
2009/04/23 13:37:17.6      20    329    128    330    353   3.6  22.4  34228  290.71 0854.37
2009/04/23 13:37:17.7    -104    328    126    345    367 342.3  20.9  34234  290.84 0854.37
2009/04/23 13:37:17.8      11    448     96    449    460   1.5  12.1  34256  291.19 0854.37
2009/04/23 13:37:17.9      86    377    100    387    400  12.9  14.5  34232  290.79 0854.37
2009/04/23 13:37:18.0      62    416    101    421    433   8.6  13.5  34232  290.78 0854.37
2009/04/23 13:37:18.1      16    323    129    324    348   2.9  22.9  34234  290.84 0854.37
2009/04/23 13:37:18.2      82    285    170    297    342  16.0  32.4  34240  290.92 0854.37
2009/04/23 13:37:18.3       2    183    160    184    243   0.9  45.4  34218  290.57 0854.37
2009/04/23 13:37:18.4      32    120    141    125    188  15.2  53.7  34212  290.47 0854.37
2009/04/23 13:37:18.5       0    356    158    357    390   0.1  25.2  34234  290.83 0854.29
2009/04/23 13:37:18.6     -18    235    181    236    297 355.6  41.4  34252  291.12 0854.29
2009/04/23 13:37:18.7     -12    257    163    258    305 357.3  35.5  34248  291.05 0854.29
2009/04/23 13:37:18.8     -54    319    206    324    383 350.3  35.5  34334  292.53 0854.29
2009/04/23 13:37:18.9    -160    343    217    379    436 335.0  32.4  34290  291.77 0854.29
2009/04/23 13:37:19.0    -110    256    174    279    328 336.6  35.0  34256  291.21 0854.29
2009/04/23 13:37:19.1      63    167    154    179    236  20.7  45.1  34228  290.72 0854.29
2009/04/23 13:37:19.2      -5    221    144    222    264 358.6  35.7  34236  290.85 0854.29
2009/04/23 13:37:19.3      -1    167    172    168    240 359.6  50.4  34252  291.13 0854.29
2009/04/23 13:37:19.4     152    275    114    315    334  28.9  20.7  34268  291.39 0854.29
2009/04/23 13:37:19.5     134    237     78    273    285  29.4  16.0  34264  291.33 0854.23
2009/04/23 13:37:19.6     110    227     80    253    266  25.9  17.7  34244  290.99 0854.23
2009/04/23 13:37:19.7     110    201    128    230    263  28.7  31.4  34266  291.38 0854.23
2009/04/23 13:37:19.8      63    179    219    191    290  19.6  54.3  34294  291.84 0854.23
2009/04/23 13:37:19.9     255    178    123    312    335  55.0  22.8  34306  292.06 0854.23
2009/04/23 13:37:20.0     315    229    212    390    443  54.0  31.0  34304  292.03 0854.23
2009/04/23 13:37:20.1     324    127    246    349    426  68.5  38.6  34286  291.70 0854.23
2009/04/23 13:37:20.2      66    202     68    213    224  18.3  17.9  34276  291.55 0854.23
2009/04/23 13:37:20.3     517    216    387    561    681  67.3  38.0  34232  290.81 0854.23
2009/04/23 13:37:20.4     635    292    298    699    759  65.3  24.5  34194  290.14 0854.23
2009/04/23 13:37:20.5     709    507    236    872    904  54.4  15.2  34198  290.22 0854.23
2009/04/23 13:37:20.6     454    405     32    609    610  48.3   3.0  34222  290.63 0854.23
2009/04/23 13:37:20.7     795    321     73    858    862  68.0   4.9  34220  290.58 0854.23
2009/04/23 13:37:20.8     558    262    -60    617    621  64.8  -5.6  34222  290.64 0854.23
2009/04/23 13:37:20.9     565    114    112    577    588  78.6  11.0  34212  290.47 0854.23
2009/04/23 13:37:21.0     459   -289    182    543    573 122.2  18.6  34214  290.50 0854.23
2009/04/23 13:37:21.1     401   -429    126    588    602 136.9  12.2  34232  290.81 0854.23
2009/04/23 13:37:21.2     521   -286     91    595    602 118.8   8.7  34250  291.10 0854.23
2009/04/23 13:37:21.3     722    -50    286    724    778  94.0  22.7  34218  290.55 0854.23
2009/04/23 13:37:21.4     314    156    122    351    372  63.5  19.3  34220  290.60 0854.23
2009/04/23 13:37:21.5     355    199     91    408    419  60.7  12.6  34218  290.55 0854.28
2009/04/23 13:37:21.6     260    154    106    303    322  59.3  19.3  34220  290.59 0854.28
2009/04/23 13:37:21.7     359    258    -16    443    444  54.3  -2.1  34202  290.28 0854.28
2009/04/23 13:37:21.8     435    165      5    466    467  69.2   0.7  34200  290.25 0854.28
2009/04/23 13:37:21.9     534    108    -16    545    546  78.5  -1.7  34208  290.40 0854.28
2009/04/23 13:37:22.0     440     95    251    451    516  77.7  31.5  34196  290.17 0854.28
2009/04/23 13:37:22.1     547      3     62    548    552  89.6   6.5  34210  290.41 0854.28
2009/04/23 13:37:22.2     525     19     22    526    527  87.9   2.5  34216  290.52 0854.28
2009/04/23 13:37:22.3     429    -65     32    434    436  98.7   4.2  34182  289.95 0854.28
2009/04/23 13:37:22.4     283   -235    115    369    387 129.7  17.3  34208  290.38 0854.28
2009/04/23 13:37:22.5     301   -309    172    432    464 135.7  23.0  34192  290.11 0854.28
2009/04/23 13:37:22.6     488   -240    164    544    569 116.2  16.8  34200  290.24 0854.28
2009/04/23 13:37:22.7     537   -313     -6    622    623 120.3  -0.6  34218  290.54 0854.28
2009/04/23 13:37:22.8     452   -354   -120    575    588 128.1 -11.8  34200  290.25 0854.28
2009/04/23 13:37:22.9     322     -3    -69    323    331  90.6 -12.2  34172  289.76 0854.28
2009/04/23 13:37:23.0     453    133    161    473    500  73.6  18.8  34190  290.08 0854.28
2009/04/23 13:37:23.1     511    156    105    535    546  73.0  11.1  34168  289.72 0854.28
2009/04/23 13:37:23.2     551     85    124    558    572  81.2  12.6  34176  289.85 0854.28
2009/04/23 13:37:23.3     583     52    -25    586    587  84.8  -2.5  34188  290.05 0854.28
2009/04/23 13:37:23.4     519     21     88    520    528  87.7   9.6  34186  290.01 0854.28
2009/04/23 13:37:23.5     432    111     38    447    449  75.5   5.0  34178  289.87 0854.27
2009/04/23 13:37:23.6     449    113    -68    463    468  75.8  -8.4  34182  289.93 0854.27
2009/04/23 13:37:23.7     394     24   -175    395    432  86.5 -29.7  34188  290.05 0854.27
2009/04/23 13:37:23.8     366     37    -54    368    372  84.1  -8.4  34198  290.20 0854.27
2009/04/23 13:37:23.9     302     -9    -36    303    306  91.7  -6.9  34202  290.29 0854.27
2009/04/23 13:37:24.0     243     63    -85    252    265  75.4 -23.3  34190  290.07 0854.27
2009/04/23 13:37:24.1     192     64    -22    203    205  71.6  -6.2  34186  290.01 0854.27
2009/04/23 13:37:24.2     141      3     45    142    150  88.7  17.7  34188  290.06 0854.27
2009/04/23 13:37:24.3     121    -61     55    136    146 117.1  23.0  34192  290.13 0854.27
2009/04/23 13:37:24.4      71    -79     10    107    108 138.1   5.4  34196  290.19 0854.27
2009/04/23 13:37:24.5      78    -35    -25     86     90 114.4 -16.6  34192  290.13 0854.27
2009/04/23 13:37:24.6     128    -80    -24    151    154 122.0  -9.3  34192  290.11 0854.27
2009/04/23 13:37:24.7     169    -54     56    178    187 107.7  17.7  34206  290.36 0854.27
2009/04/23 13:37:24.8     216    -52     56    223    230 103.5  14.2  34212  290.45 0854.27
2009/04/23 13:37:24.9     242    -25    107    244    266  96.1  25.2  34218  290.56 0854.27
2009/04/23 13:37:25.0     171     18    119    172    209  83.9  37.8  34214  290.48 0854.27
2009/04/23 13:37:25.1      42    -34    123     55    134 129.5  74.5  34216  290.53 0854.27
2009/04/23 13:37:25.2       3      0    107      4    107  90.0  90.0  34224  290.65 0854.27
2009/04/23 13:37:25.3      71      9    172     72    186  82.1  76.1  34220  290.60 0854.27
2009/04/23 13:37:25.4     162    -25     62    164    175  98.8  21.3  34216  290.52 0854.27
2009/04/23 13:37:25.5     167     54    184    176    254  71.8  51.4  34212  290.45 0854.24
2009/04/23 13:37:25.6      -8     35    161     36    164 346.6  88.0  34214  290.50 0854.24
2009/04/23 13:37:25.7     138    -45    201    146    248 108.2  60.5  34214  290.50 0854.24
2009/04/23 13:37:25.8     282     12    140    283    315  87.4  28.2  34242  290.97 0854.24
2009/04/23 13:37:25.9     378    259    162    459    486  55.5  20.1  34222  290.62 0854.24
2009/04/23 13:37:26.0     428    276    125    510    526  57.1  13.8  34206  290.35 0854.24
2009/04/23 13:37:26.1     360    216     70    421    427  59.0   9.5  34222  290.61 0854.24
2009/04/23 13:37:26.2     332    225    224    402    460  55.8  31.4  34234  290.82 0854.24
2009/04/23 13:37:26.3     283    283    132    401    423  45.0  18.2  34226  290.70 0854.24
2009/04/23 13:37:26.4     370    446    -68    580    584  39.7  -6.7  34288  291.73 0854.24
2009/04/23 13:37:26.5     339    207     27    398    399  58.6   4.0  34278  291.56 0854.24
2009/04/23 13:37:26.6     368    333    162    497    523  47.8  18.1  34266  291.37 0854.24
2009/04/23 13:37:26.7     354    174    163    395    427  63.8  23.7  34286  291.72 0854.24
2009/04/23 13:37:26.8     478    232    243    532    584  64.1  26.2  34302  291.98 0854.24
2009/04/23 13:37:26.9     530    173    325    558    645  71.9  32.8  34298  291.91 0854.24
2009/04/23 13:37:27.0     518    223    144    565    584  66.7  14.3  34316  292.21 0854.24
2009/04/23 13:37:27.1     484    214    169    530    557  66.1  17.7  34302  291.98 0854.24
2009/04/23 13:37:27.2     311    354    216    472    519  41.3  26.3  34282  291.66 0854.24
2009/04/23 13:37:27.3     337    443     87    557    564  37.3   8.9  34252  291.14 0854.24
2009/04/23 13:37:27.4     330    432     72    544    549  37.4   7.6  34242  290.97 0854.24
2009/04/23 13:37:27.5     331    394    -10    515    516  40.0  -1.2  34248  291.05 0854.26
2009/04/23 13:37:27.6     346    392    -80    524    531  41.4  -8.7  34248  291.06 0854.26
2009/04/23 13:37:27.7     114    342   -124    361    382  18.4 -19.1  34256  291.20 0854.26
2009/04/23 13:37:27.8      92    304     33    318    320  16.9   6.0  34262  291.29 0854.26
2009/04/23 13:37:27.9     133    129    -71    186    199  45.8 -26.1  34240  290.92 0854.26
2009/04/23 13:37:28.0      71     86   -130    112    171  39.6 -59.2  34228  290.74 0854.26
2009/04/23 13:37:28.1     135    131    -82    189    206  46.0 -29.5  34232  290.81 0854.26
2009/04/23 13:37:28.2     114    115    -32    163    167  44.8 -11.1  34258  291.23 0854.26
2009/04/23 13:37:28.3      69     22    -36     73     81  71.8 -32.6  34262  291.32 0854.26
2009/04/23 13:37:28.4      66     -4    -37     67     76  94.3 -35.8  34260  291.26 0854.26
2009/04/23 13:37:28.5     232     17     78    233    246  85.6  18.6  34254  291.17 0854.26
2009/04/23 13:37:28.6     396     55     77    400    408  82.0  11.0  34200  290.26 0854.26
2009/04/23 13:37:28.7      72     -7    149     73    165  96.1  72.1  34220  290.58 0854.26
2009/04/23 13:37:28.8     547    -61    204    551    587  96.4  21.1  34200  290.25 0854.26
2009/04/23 13:37:28.9     663     27    234    664    705  87.7  19.4  34218  290.55 0854.26
2009/04/23 13:37:29.0     512    120    196    526    561  76.8  21.5  34218  290.55 0854.26
2009/04/23 13:37:29.1     531    159    228    555    600  73.3  23.6  34216  290.51 0854.26
2009/04/23 13:37:29.2     429     66    336    435    549  81.2  41.6  34206  290.35 0854.26
2009/04/23 13:37:29.3     522    172    256    550    606  71.7  26.9  34222  290.61 0854.26
2009/04/23 13:37:29.4     404     68    167    410    442  80.4  23.4  34206  290.34 0854.26
2009/04/23 13:37:29.5     609    200    239    641    684  71.8  21.4  34188  290.05 0854.24
2009/04/23 13:37:29.6     717    344    213    796    824  64.4  15.0  34192  290.13 0854.24
2009/04/23 13:37:29.7     715    355    177    799    819  63.6  12.5  34194  290.14 0854.24
2009/04/23 13:37:29.8     727    415    107    838    845  60.3   7.3  34198  290.21 0854.24
2009/04/23 13:37:29.9     725    461    -26    860    861  57.5  -1.8  34190  290.09 0854.24
2009/04/23 13:37:30.0     814    288   -109    864    871  70.5  -7.2  34198  290.22 0854.24
2009/04/23 13:37:30.1     671    214   -250    705    749  72.3 -19.6  34208  290.40 0854.24
2009/04/23 13:37:30.2     691    252   -161    736    754  70.0 -12.4  34224  290.65 0854.24
2009/04/23 13:37:30.3     380    478    -19    611    612  38.5  -1.8  34226  290.68 0854.24
2009/04/23 13:37:30.4     383    522     47    648    650  36.3   4.2  34218  290.55 0854.24
2009/04/23 13:37:30.5     415    362    -46    551    553  48.9  -4.8  34224  290.65 0854.24
2009/04/23 13:37:30.6     501    254   -132    562    578  63.1 -13.3  34254  291.17 0854.24
2009/04/23 13:37:30.7      34    462    131    464    483   4.2  15.8  34252  291.15 0854.24
2009/04/23 13:37:30.8     472    496    114    686    696  43.6   9.4  34256  291.21 0854.24
2009/04/23 13:37:30.9     395    322    204    510    549  50.8  23.0  34282  291.65 0854.24
2009/04/23 13:37:31.0     549    356    354    655    744  57.0  30.8  34280  291.61 0854.24
2009/04/23 13:37:31.1     555    363    337    664    744  56.8  29.1  34244  291.00 0854.24
2009/04/23 13:37:31.2     863    300    105    914    921  70.8   6.6  34210  290.41 0854.24
2009/04/23 13:37:31.3     841    163    390    857    941  79.0  26.2  34246  291.04 0854.24
2009/04/23 13:37:31.4     648    112    503    658    828  80.1  41.2  34242  290.95 0854.24
2009/04/23 13:37:31.5     846     70    153    849    863  85.2  10.2  34222  290.61 0854.24
2009/04/23 13:37:31.6     936     87    -22    941    942  84.7  -1.4  34202  290.29 0854.24
2009/04/23 13:37:31.7     890     43     58    892    894  87.2   3.7  34202  290.30 0854.24
2009/04/23 13:37:31.8     816     -3    -35    817    818  90.2  -2.5  34208  290.37 0854.24
2009/04/23 13:37:31.9     546    -34   -129    548    564  93.6 -13.3  34212  290.45 0854.24
2009/04/23 13:37:32.0     446      6     36    447    449  89.2   4.7  34210  290.41 0854.24
2009/04/23 13:37:32.1     426    184     44    465    468  66.6   5.4  34232  290.78 0854.24
2009/04/23 13:37:32.2     464    180    -78    498    505  68.7  -9.0  34234  290.83 0854.24
2009/04/23 13:37:32.3     450    141     19    472    473  72.6   2.4  34214  290.49 0854.24
2009/04/23 13:37:32.4     466    179    -27    500    501  68.9  -3.1  34216  290.52 0854.24
2009/04/23 13:37:32.5     254    165   -156    304    341  56.9 -33.7  34218  290.55 0854.24
2009/04/23 13:37:32.6     207     69   -126    219    252  71.4 -37.1  34218  290.54 0854.24
2009/04/23 13:37:32.7     166    166     11    235    236  45.0   2.8  34206  290.36 0854.24
2009/04/23 13:37:32.8     180    232     14    294    295  37.8   2.8  34208  290.39 0854.24
2009/04/23 13:37:32.9     203    162      3    261    262  51.4   0.8  34214  290.48 0854.24
2009/04/23 13:37:33.0     147    208    -80    255    268  35.2 -17.5  34208  290.37 0854.24
2009/04/23 13:37:33.1     184    164     -6    247    248  48.2  -1.6  34206  290.34 0854.24
2009/04/23 13:37:33.2     176    124    107    216    241  54.7  28.2  34214  290.49 0854.24
2009/04/23 13:37:33.3      57     69    130     90    158  39.6  62.1  34214  290.50 0854.24
2009/04/23 13:37:33.4      80     49    168     94    192  58.5  68.3  34216  290.53 0854.24
2009/04/23 13:37:33.5     135     59     98    148    177  66.4  36.7  34216  290.52 0854.28
2009/04/23 13:37:33.6      51    189      2    196    197  15.2   0.8  34224  290.65 0854.28
2009/04/23 13:37:33.7     124    131     34    181    185  43.4  10.8  34218  290.57 0854.28
2009/04/23 13:37:33.8     108    115     86    159    180  43.2  30.8  34220  290.58 0854.28
2009/04/23 13:37:33.9     132     84     55    157    167  57.6  19.4  34216  290.53 0854.28
2009/04/23 13:37:34.0     200    -13     69    201    213  93.7  18.9  34220  290.58 0854.28
2009/04/23 13:37:34.1     176   -195    154    264    305 137.9  33.1  34220  290.58 0854.28
2009/04/23 13:37:34.2      55   -136    231    147    273 157.7  64.7  34220  290.58 0854.28
2009/04/23 13:37:34.3     -95   -246    182    264    320 201.2  37.9  34216  290.51 0854.28
2009/04/23 13:37:34.4     -36   -171     86    175    194 192.0  27.8  34220  290.58 0854.28
2009/04/23 13:37:34.5     -60   -222    140    231    270 195.2  34.2  34226  290.70 0854.28
2009/04/23 13:37:34.6       0   -265    132    266    296 180.0  28.2  34226  290.68 0854.28
2009/04/23 13:37:34.7     -20   -269    130    270    299 184.4  27.3  34226  290.68 0854.28
2009/04/23 13:37:34.8      13   -286    173    287    335 177.4  34.0  34224  290.65 0854.28
2009/04/23 13:37:34.9     -12   -231    206    232    310 183.1  46.2  34224  290.65 0854.28
2009/04/23 13:37:35.0     -24   -296     31    298    300 184.7   6.1  34220  290.59 0854.28
2009/04/23 13:37:35.1     -45   -244      3    249    250 190.6   0.7  34222  290.63 0854.28
2009/04/23 13:37:35.2      46   -261     95    266    282 170.0  20.4  34218  290.54 0854.28
2009/04/23 13:37:35.3     143   -280     79    315    325 152.8  14.2  34216  290.53 0854.28
2009/04/23 13:37:35.4      51   -251    140    257    292 168.4  31.3  34220  290.59 0854.32
2009/04/23 13:37:35.5      27   -133    218    136    256 168.4  64.9  34218  290.55 0854.32
2009/04/23 13:37:35.6      40   -285    246    288    378 172.0  45.0  34216  290.52 0854.32
2009/04/23 13:37:35.7    -109   -328    197    346    398 198.5  32.3  34216  290.52 0854.32
2009/04/23 13:37:35.8      38   -107    212    114    240 160.4  69.6  34212  290.45 0854.32
2009/04/23 13:37:36.0      78   -143    196    164    255 151.3  56.1  34216  290.53 0854.32
2009/04/23 13:37:36.1      62   -350    204    356    410 169.9  32.4  34216  290.52 0854.32
2009/04/23 13:37:36.2     102   -325    206    341    398 162.5  34.1  34214  290.50 0854.32
2009/04/23 13:37:36.3      15   -197     92    198    218 175.5  27.1  34208  290.38 0854.32
2009/04/23 13:37:36.4     -31   -219     69    222    233 188.2  17.4  34208  290.38 0854.32
2009/04/23 13:37:36.5    -118   -172     68    209    220 214.5  18.1  34210  290.41 0854.32
2009/04/23 13:37:36.6    -164   -146     -6    220    221 228.2  -1.6  34210  290.41 0854.32
2009/04/23 13:37:36.7    -231      0    -83    232    247 270.0 -19.7  34202  290.27 0854.32
2009/04/23 13:37:36.8    -196   -192      3    275    276 225.6   0.8  34196  290.19 0854.32
2009/04/23 13:37:36.9    -331    -67   -106    339    355 258.4 -22.3  34198  290.20 0854.32
2009/04/23 13:37:37.0    -351    -77   -254    360    440 257.6 -43.1  34208  290.39 0854.32
2009/04/23 13:37:37.1    -271   -184   -164    328    366 235.8 -33.0  34202  290.27 0854.32
2009/04/23 13:37:37.2    -211   -126    -70    247    257 239.1 -16.0  34198  290.20 0854.32
2009/04/23 13:37:37.3     -29    293    -82    295    307 354.2 -15.5  34206  290.36 0854.32
2009/04/23 13:37:37.4     -72     77    114    106    155 317.2  52.2  34212  290.47 0854.32
2009/04/23 13:37:37.5     -14    -71     94     73    119 191.6  58.5  34210  290.41 0854.37
2009/04/23 13:37:37.6       4   -116    103    117    155 177.8  46.2  34206  290.35 0854.37
2009/04/23 13:37:37.7      43    -85     62     96    114 153.3  35.6  34206  290.35 0854.37
2009/04/23 13:37:37.8       2    -85      9     86     87 178.6   6.5  34204  290.33 0854.37
2009/04/23 13:37:37.9    -156    -78     30    175    178 243.4   9.9  34208  290.40 0854.37
2009/04/23 13:37:38.0    -204   -154     30    256    258 232.9   6.9  34216  290.53 0854.37
2009/04/23 13:37:38.1    -220   -224     23    315    316 224.5   4.3  34214  290.49 0854.37
2009/04/23 13:37:38.2    -233   -212    -61    316    322 227.7 -11.0  34218  290.56 0854.37
2009/04/23 13:37:38.3    -276   -175    -45    328    332 237.6  -7.9  34212  290.47 0854.37
2009/04/23 13:37:38.4    -380   -179    -92    421    432 244.8 -12.4  34214  290.50 0854.37
2009/04/23 13:37:38.5    -233    -99     -9    254    255 246.9  -2.2  34206  290.36 0854.37
2009/04/23 13:37:38.6    -105   -195    -77    222    234 208.5 -24.3  34208  290.40 0854.37
2009/04/23 13:37:38.7    -113   -249    -15    274    275 204.5  -3.3  34204  290.31 0854.37
2009/04/23 13:37:38.8    -270   -251    -42    369    372 227.1  -6.6  34206  290.35 0854.37
2009/04/23 13:37:38.9    -152   -300    -42    337    340 207.0  -7.2  34204  290.32 0854.37
2009/04/23 13:37:39.0    -284   -109    -52    305    310 248.9  -9.7  34204  290.32 0854.37
2009/04/23 13:37:39.1    -226    -51    -73    232    243 257.2 -22.8  34208  290.37 0854.37
2009/04/23 13:37:39.2    -106   -183    107    212    237 210.3  29.1  34216  290.52 0854.37
2009/04/23 13:37:39.3     -28   -119    116    123    169 193.4  48.5  34214  290.48 0854.37
2009/04/23 13:37:39.4       0    -88    109     89    140 180.4  56.4  34214  290.50 0854.37
2009/04/23 13:37:39.5     -55    -58     72     81    108 223.7  46.4  34216  290.52 0854.38
2009/04/23 13:37:39.6     -59    -77     75     98    123 217.4  41.6  34214  290.50 0854.38
2009/04/23 13:37:39.7     -93    -81     65    124    140 229.1  29.8  34218  290.57 0854.38
2009/04/23 13:37:39.8     -85    -60     47    105    115 234.9  26.2  34214  290.48 0854.38
2009/04/23 13:37:39.9       1     33     96     34    101   2.7  80.2  34216  290.53 0854.38
2009/04/23 13:37:40.0     -60    -20     92     64    112 251.4  61.5  34216  290.52 0854.38
2009/04/23 13:37:40.1    -131    -47     34    140    145 250.0  13.7  34214  290.50 0854.38
2009/04/23 13:37:40.2     -79    -85     15    117    118 222.8   7.5  34214  290.48 0854.38
2009/04/23 13:37:40.3    -124    -87    -43    152    158 234.9 -15.8  34220  290.58 0854.38
2009/04/23 13:37:40.4    -168    -32    -45    172    178 259.2 -14.7  34222  290.64 0854.38
2009/04/23 13:37:40.5    -192    -61     16    202    203 252.3   4.6  34218  290.57 0854.40
2009/04/23 13:37:40.6    -187    -23     -6    189    190 262.8  -2.1  34220  290.60 0854.40
2009/04/23 13:37:40.7    -126    -46    -17    135    137 250.0  -7.3  34220  290.58 0854.40
2009/04/23 13:37:40.8    -104    -66    -34    124    129 237.5 -15.4  34220  290.58 0854.40
2009/04/23 13:37:40.9      -5   -105     12    106    107 183.1   6.9  34218  290.55 0854.40
2009/04/23 13:37:41.0     -28   -141     -2    144    145 191.6  -1.2  34216  290.53 0854.40
2009/04/23 13:37:41.1     -34   -122     10    127    128 195.6   4.9  34216  290.53 0854.40
2009/04/23 13:37:41.2     -29   -128     94    132    162 192.9  39.1  34212  290.47 0854.40
2009/04/23 13:37:41.3     -51    -86     71    101    123 210.7  38.6  34214  290.48 0854.40
2009/04/23 13:37:41.4     -24    -63     10     68     69 200.9   9.0  34212  290.47 0854.40
2009/04/23 13:37:41.5      27      1     41     28     49  87.4  62.6  34212  290.47 0854.40
2009/04/23 13:37:41.6      13    -17     54     22     58 142.2  78.2  34210  290.41 0854.40
2009/04/23 13:37:41.7      11    -79     60     80    100 171.9  40.7  34206  290.35 0854.40
2009/04/23 13:37:41.8      34    -77     53     85    100 155.9  35.5  34206  290.35 0854.40
2009/04/23 13:37:41.9      59    -67     49     90    102 139.0  31.3  34206  290.36 0854.40
2009/04/23 13:37:42.0      38    -88     11     97     98 156.4   6.9  34206  290.35 0854.40
2009/04/23 13:37:42.1       8    -71     14     72     74 172.9  11.1  34204  290.33 0854.40
2009/04/23 13:37:42.2      -4    -57     25     58     63 184.4  24.1  34202  290.28 0854.40
2009/04/23 13:37:42.3      -5    -34     27     35     44 189.8  42.7  34202  290.30 0854.40
2009/04/23 13:37:42.4       1    -18     15     19     24 175.5  43.7  34202  290.28 0854.40
2009/04/23 13:37:42.5       7     -3      0      8      9 115.3  -2.2  34202  290.30 0854.44
2009/04/23 13:37:42.6       0     11    -10     12     15   4.5 -52.3  34202  290.28 0854.44
2009/04/23 13:37:42.7      -2     45    -15     46     48 357.3 -23.8  34202  290.30 0854.44
2009/04/23 13:37:42.8       7     38    -12     39     40  11.5 -21.7  34204  290.31 0854.44
2009/04/23 13:37:42.9      49     31     -1     59     60  57.6  -1.2  34206  290.35 0854.44
2009/04/23 13:37:43.0      47     59     25     76     81  38.7  18.4  34204  290.33 0854.44
2009/04/23 13:37:43.1      86    135     -6    161    162  32.5  -2.2  34206  290.35 0854.44
2009/04/23 13:37:43.2      63    145     -3    159    160  23.6  -1.3  34210  290.41 0854.44
2009/04/23 13:37:43.3     140    140     48    198    204  45.0  13.7  34206  290.36 0854.44
2009/04/23 13:37:43.4     183    120     63    220    229  56.7  16.0  34202  290.28 0854.44
2009/04/23 13:37:43.5     220    146     82    265    278  56.5  17.3  34206  290.36 0854.44
2009/04/23 13:37:43.6     145    227     47    270    275  32.6   9.9  34206  290.36 0854.44
2009/04/23 13:37:43.7     102    215     24    239    241  25.4   5.9  34212  290.46 0854.44
2009/04/23 13:37:43.8     118    225     31    255    257  27.6   7.1  34208  290.37 0854.44
2009/04/23 13:37:43.9     127    212     -9    248    249  31.0  -2.2  34212  290.46 0854.44
2009/04/23 13:37:44.0     121    190    -43    226    231  32.5 -10.9  34214  290.48 0854.44
2009/04/23 13:37:44.1     149    151     67    213    224  44.5  17.4  34218  290.57 0854.44
2009/04/23 13:37:44.2     104    148     64    182    194  35.2  19.4  34226  290.69 0854.44
2009/04/23 13:37:44.3      96    173     49    198    204  29.0  13.9  34244  290.99 0854.44
2009/04/23 13:37:44.4      52    166     77    174    190  17.4  25.7  34230  290.75 0854.44
2009/04/23 13:37:44.5      24    173     85    175    194   8.0  27.4  34252  291.15 0854.40
2009/04/23 13:37:44.6       0    159     90    160    183   0.0  31.9  34284  291.67 0854.40
2009/04/23 13:37:44.7     -14    189     91    190    210 355.5  27.3  34294  291.84 0854.40
2009/04/23 13:37:44.8      27    177    115    180    213   8.9  35.6  34254  291.18 0854.40
2009/04/23 13:37:44.9     -20    191    102    193    218 353.8  30.1  34282  291.66 0854.40
2009/04/23 13:37:45.0     -35    142     95    147    175 346.2  35.6  34284  291.69 0854.40
2009/04/23 13:37:45.1      44    142     62    149    161  17.4  23.8  34248  291.08 0854.40
2009/04/23 13:37:45.2      24    178     27    180    183   7.8   8.5  34228  290.72 0854.40
2009/04/23 13:37:45.3      -7    167     16    168    169 357.3   5.7  34254  291.16 0854.40
2009/04/23 13:37:45.4     -44    157     59    164    174 344.2  20.2  34300  291.96 0854.40
2009/04/23 13:37:45.5      -3    125     92    126    156 358.6  39.7  34272  291.47 0854.40
2009/04/23 13:37:45.6       9    117     62    118    133   4.4  29.8  34284  291.69 0854.40
2009/04/23 13:37:45.7      17     73     65     76    100  13.4  44.8  34272  291.49 0854.40
2009/04/23 13:37:45.8     209     98    101    231    252  64.8  25.1  34230  290.75 0854.40
2009/04/23 13:37:45.9     363    125    103    385    399  71.0  15.0  34226  290.69 0854.40
2009/04/23 13:37:46.0     252     22    263    254    365  84.8  51.1  34238  290.91 0854.40
2009/04/23 13:37:46.1     181    150    125    236    267  50.4  30.2  34224  290.65 0854.40
2009/04/23 13:37:46.2     412    156    133    441    461  69.2  16.8  34224  290.67 0854.40
2009/04/23 13:37:46.3     370     41    -76    373    381  83.7 -11.6  34218  290.54 0854.40
2009/04/23 13:37:46.4     288     72     15    297    298  75.9   2.9  34212  290.46 0854.40
2009/04/23 13:37:46.5     219    118     -3    250    251  61.6  -0.7  34220  290.58 0854.36
2009/04/23 13:37:46.6     170     38    -43    175    181  77.4 -13.9  34222  290.64 0854.36
2009/04/23 13:37:46.7     205     23    -89    207    225  83.4 -29.5  34226  290.70 0854.36
2009/04/23 13:37:46.8     256   -101    -90    276    290 111.7 -23.6  34228  290.73 0854.36
2009/04/23 13:37:46.9     291     -3    -81    292    304  90.6 -15.5  34236  290.87 0854.36
2009/04/23 13:37:47.0     253    -26    -96    255    272  95.9 -25.9  34246  291.02 0854.36
2009/04/23 13:37:47.1     329    -82    -26    340    342 104.1  -4.5  34232  290.79 0854.36
2009/04/23 13:37:47.2     238    -78     10    251    252 108.2   2.3  34228  290.73 0854.36
2009/04/23 13:37:47.3     203    -96     89    225    241 115.4  22.8  34218  290.56 0854.36
2009/04/23 13:37:47.4     145     39    112    151    188  74.9  40.1  34234  290.82 0854.36
2009/04/23 13:37:47.5     137    -54     28    148    151 111.7  11.0  34232  290.79 0854.36
2009/04/23 13:37:47.6     157     22    -78    159    177  82.0 -32.2  34254  291.16 0854.36
2009/04/23 13:37:47.7     188     62    -71    199    212  71.6 -19.6  34254  291.16 0854.36
2009/04/23 13:37:47.8     165     87    -56    187    196  62.0 -16.8  34248  291.06 0854.36
2009/04/23 13:37:47.9     195     35    -13    199    200  79.6  -3.9  34256  291.21 0854.36
2009/04/23 13:37:48.0     219      3     25    220    222  89.2   6.5  34256  291.21 0854.36
2009/04/23 13:37:48.1     217      3     10    218    219  89.1   2.8  34246  291.04 0854.36
2009/04/23 13:37:48.2     209      7    -28    210    212  87.9  -7.7  34250  291.11 0854.36
2009/04/23 13:37:48.3     217    -58    -32    225    228 105.0  -8.2  34248  291.08 0854.36
2009/04/23 13:37:48.4     220      0     43    221    226  90.0  11.0  34250  291.09 0854.36
2009/04/23 13:37:48.5     238     37    147    241    282  81.0  34.4  34204  290.31 0854.35
2009/04/23 13:37:48.6     369     44    156    372    403  83.2  24.2  34230  290.77 0854.35
2009/04/23 13:37:48.7     401     30     63    403    408  85.6   8.9  34226  290.68 0854.35
2009/04/23 13:37:48.8     258     98     59    277    284  69.2  12.0  34232  290.80 0854.35
2009/04/23 13:37:48.9     203    -49     12    209    210 103.7   3.3  34224  290.67 0854.35
2009/04/23 13:37:49.0     180    -71     25    194    196 111.7   7.5  34234  290.82 0854.35
2009/04/23 13:37:49.1     185    -15    103    186    212  94.8  31.4  34228  290.72 0854.35
2009/04/23 13:37:49.2     311      0    230    312    387  90.0  40.0  34218  290.54 0854.35
2009/04/23 13:37:49.3     288    -26    291    290    410  95.2  50.1  34222  290.64 0854.35
2009/04/23 13:37:49.4     222    -88    197    239    309 111.7  43.7  34224  290.65 0854.35
2009/04/23 13:37:49.5     199   -116    151    231    275 120.2  36.5  34222  290.61 0854.35
2009/04/23 13:37:49.6     188    -97    146    212    257 117.3  38.0  34222  290.63 0854.35
2009/04/23 13:37:49.7     116    -79     63    141    154 124.2  26.2  34222  290.62 0854.35
2009/04/23 13:37:49.8      97     93    -13    135    136  46.0  -5.6  34224  290.65 0854.35
2009/04/23 13:37:49.9      31     93    -27     99    103  18.5 -15.5  34230  290.75 0854.35
2009/04/23 13:37:50.0      -7     80     55     81     97 354.7  37.0  34230  290.75 0854.35
2009/04/23 13:37:50.1     -60    134     34    147    151 335.9  13.2  34228  290.74 0854.35
2009/04/23 13:37:50.2     -87     86     36    123    129 314.9  16.3  34232  290.81 0854.35
2009/04/23 13:37:50.3     -86     94    -11    128    129 317.7  -5.2  34226  290.69 0854.35
2009/04/23 13:37:50.4     -70    112    -46    133    140 327.9 -23.3  34224  290.67 0854.35
2009/04/23 13:37:50.5     -18     77      7     80     81 346.6   5.4  34234  290.84 0854.39
2009/04/23 13:37:50.6      41     74     73     85    112  29.0  44.8  34256  291.21 0854.39
2009/04/23 13:37:50.7      18     58     78     61     99  17.8  57.9  34262  291.32 0854.39
2009/04/23 13:37:50.8      -1     69     34     70     77 359.1  27.3  34266  291.37 0854.39
2009/04/23 13:37:50.9      19     28      1     35     36  34.3   2.8  34262  291.30 0854.39
2009/04/23 13:37:51.0      17     20     -1     27     28  41.4  -2.2  34252  291.15 0854.39
2009/04/23 13:37:51.1      56     56     38     80     88  45.1  27.2  34248  291.08 0854.39
2009/04/23 13:37:51.2      50     36     72     62     95  54.0  54.8  34250  291.11 0854.39
2009/04/23 13:37:51.3      63     20    100     67    120  71.8  62.7  34258  291.25 0854.39
2009/04/23 13:37:51.4      37     37     70     53     87  45.0  59.0  34262  291.32 0854.39
2009/04/23 13:37:51.5      85    -22    106     88    137 104.6  56.3  34252  291.15 0854.39
2009/04/23 13:37:51.6      91    -28    101     96    139 107.3  51.6  34256  291.21 0854.39
2009/04/23 13:37:51.7     131    -35    132    136    189 105.0  49.4  34256  291.20 0854.39
2009/04/23 13:37:51.8     180      0    129    181    222  90.0  39.1  34254  291.18 0854.39
2009/04/23 13:37:51.9     128     70    167    147    222  61.2  54.2  34248  291.08 0854.39
2009/04/23 13:37:52.0     100     77     49    127    136  52.3  22.0  34252  291.13 0854.39
2009/04/23 13:37:52.1      35     20    101     41    109  60.2  77.1  34248  291.08 0854.39
2009/04/23 13:37:52.2     143     77    137    163    212  61.6  44.1  34252  291.15 0854.39
2009/04/23 13:37:52.3     150    194    166    246    296  37.8  37.4  34242  290.97 0854.39
2009/04/23 13:37:52.4     189     98    137    214    254  62.5  35.6  34238  290.90 0854.39
2009/04/23 13:37:52.5     180     82    144    198    244  65.4  39.7  34228  290.74 0854.41
2009/04/23 13:37:52.6     273     80    225    285    363  73.6  42.3  34224  290.67 0854.41
2009/04/23 13:37:52.7     274     46    202    278    343  80.3  39.7  34228  290.71 0854.41
2009/04/23 13:37:52.8     265    -11    135    266    298  92.4  29.2  34224  290.66 0854.41
2009/04/23 13:37:52.9     260     45    161    264    309  80.1  34.4  34218  290.54 0854.41
2009/04/23 13:37:53.0     238    141     97    277    293  59.3  20.0  34234  290.82 0854.41
2009/04/23 13:37:53.1     172    211     85    273    286  39.2  17.3  34240  290.93 0854.41
2009/04/23 13:37:53.2     137    109     85    176    195  51.6  27.3  34240  290.92 0854.41
2009/04/23 13:37:53.3     -27    154      8    157    158 349.8   2.9  34240  290.92 0854.41
2009/04/23 13:37:53.4     -65    118     21    135    137 331.0   9.0  34244  290.99 0854.41
2009/04/23 13:37:53.5     -52     28     -7     60     61 298.9  -7.3  34252  291.13 0854.41
2009/04/23 13:37:53.6     -26     59    -64     65     91 336.4 -54.4  34248  291.08 0854.41
2009/04/23 13:37:53.7     -31     41    -64     52     82 322.2 -60.8  34248  291.08 0854.41
2009/04/23 13:37:53.8     124     44    -42    132    138  70.1 -22.8  34236  290.87 0854.41
2009/04/23 13:37:53.9     212     24    -11    214    215  83.4  -3.1  34236  290.86 0854.41
2009/04/23 13:37:54.0     269     98    -36    287    290  70.0  -7.3  34242  290.95 0854.41
2009/04/23 13:37:54.1     234    143    -25    275    277  58.5  -5.4  34232  290.80 0854.41
2009/04/23 13:37:54.2     124    183    -46    222    227  34.2 -11.9  34210  290.41 0854.41
2009/04/23 13:37:54.3     151    182    -80    237    251  39.6 -18.7  34210  290.42 0854.41
2009/04/23 13:37:54.4     188    188    -94    266    282  45.0 -24.6  34204  290.32 0854.41
2009/04/23 13:37:54.5     228    183    -99    293    310  51.3 -18.8  34214  290.49 0854.46
2009/04/23 13:37:54.6     197    -23   -115    199    229  96.8 -37.1  34212  290.47 0854.46
2009/04/23 13:37:54.7     180    -41   -132    185    227 103.0 -43.7  34212  290.47 0854.46
2009/04/23 13:37:54.8     223     64    -91    233    250  73.8 -26.9  34214  290.48 0854.46
2009/04/23 13:37:54.9     231     31    -20    234    235  82.3  -5.1  34202  290.27 0854.46
2009/04/23 13:37:55.0     164    -49    -18    172    174 106.8  -6.2  34206  290.36 0854.46
2009/04/23 13:37:55.1     200    -40    -19    205    206 101.5  -5.4  34204  290.33 0854.46
2009/04/23 13:37:55.2     186    -61    -23    196    198 108.4  -6.7  34220  290.58 0854.46
2009/04/23 13:37:55.3     242    -41    -26    246    248  99.7  -6.1  34222  290.63 0854.46
2009/04/23 13:37:55.4     212    -21      6    214    215  95.9   1.8  34226  290.70 0854.46
2009/04/23 13:37:55.5     149     57    -32    160    164  68.9 -11.6  34246  291.03 0854.46
2009/04/23 13:37:55.6     141    -24    -59    144    155  99.7 -27.5  34242  290.98 0854.46
2009/04/23 13:37:55.7     177     51    -23    185    187  73.8  -7.3  34242  290.96 0854.46
2009/04/23 13:37:55.8     126    131      1    182    183  43.9   0.5  34258  291.23 0854.46
2009/04/23 13:37:55.9     199    141     38    245    249  54.7   8.9  34260  291.27 0854.46
2009/04/23 13:37:56.0     230    146    -10    273    274  57.5  -2.2  34258  291.22 0854.46
2009/04/23 13:37:56.1     296     78     52    307    312  75.2   9.7  34252  291.14 0854.46
2009/04/23 13:37:56.2     244    114     72    270    280  64.9  15.0  34246  291.02 0854.46
2009/04/23 13:37:56.3     175    153     28    233    235  48.7   6.9  34258  291.24 0854.46
2009/04/23 13:37:56.4     151    168     -1    227    228  41.9  -0.5  34258  291.23 0854.46
2009/04/23 13:37:56.5      95    238    -14    257    258  21.8  -3.1  34266  291.36 0854.42
2009/04/23 13:37:56.6     221    195     14    295    296  48.6   2.8  34250  291.09 0854.42
2009/04/23 13:37:56.7     141    160      4    214    215  41.5   1.2  34258  291.23 0854.42
2009/04/23 13:37:56.8      31     92    -86     98    130  18.7 -50.2  34252  291.15 0854.42
2009/04/23 13:37:56.9      66    261    -84    270    282  14.3 -22.3  34252  291.12 0854.42
2009/04/23 13:37:57.0      59    325    -84    331    342  10.3 -14.3  34268  291.40 0854.42
2009/04/23 13:37:57.1     159    225     15    276    277  35.2   3.3  34258  291.24 0854.42
2009/04/23 13:37:57.2      75    168    -28    185    188  24.1  -8.8  34260  291.26 0854.42
2009/04/23 13:37:57.3      97    229    -28    249    251  22.9  -6.5  34256  291.19 0854.42
2009/04/23 13:37:57.4     150    214   -110    262    284  35.0 -28.6  34250  291.10 0854.42
2009/04/23 13:37:57.5     115    108   -148    158    216  46.9 -52.4  34246  291.04 0854.42
2009/04/23 13:37:57.6      20    146    -29    148    151   8.0 -11.3  34256  291.21 0854.42
2009/04/23 13:37:57.7      44      7     -4     45     46  80.3  -6.2  34266  291.37 0854.42
2009/04/23 13:37:57.8     -21    -15    -16     27     31 234.0 -37.9  34260  291.28 0854.42
2009/04/23 13:37:57.9     -57    -47    -59     75     95 230.5 -47.1  34246  291.04 0854.42
2009/04/23 13:37:58.0     -94    -81   -129    125    179 229.1 -55.3  34242  290.96 0854.42
2009/04/23 13:37:58.1     -31   -109   -102    114    152 196.0 -51.3  34244  291.01 0854.42
2009/04/23 13:37:58.2     -89   -102   -148    136    200 221.0 -56.9  34246  291.03 0854.42
2009/04/23 13:37:58.3    -103   -162   -156    193    248 212.6 -47.7  34240  290.92 0854.42
2009/04/23 13:37:58.4     -72   -223    -95    235    253 198.0 -27.4  34242  290.95 0854.42
2009/04/23 13:37:58.5     -78   -260    -93    272    288 196.7 -18.9  34236  290.85 0854.36
2009/04/23 13:37:58.6     -54   -270    -78    276    287 191.3 -15.8  34234  290.82 0854.36
2009/04/23 13:37:58.7    -230    -54   -100    237    257 256.7 -28.5  34276  291.53 0854.36
2009/04/23 13:37:58.8    -152    -51   -115    161    197 251.4 -43.7  34282  291.64 0854.36
2009/04/23 13:37:58.9       0     39   -142     40    147 359.1 -88.8  34280  291.60 0854.36
2009/04/23 13:37:59.0       4     60   -167     61    177   4.4 -83.6  34282  291.66 0854.36
2009/04/23 13:37:59.1      22    -35    -82     42     92 148.4 -75.8  34284  291.67 0854.36
2009/04/23 13:37:59.2     103    -75    -55    128    139 126.0 -29.0  34278  291.57 0854.36
2009/04/23 13:37:59.3      85    -25    -67     89    111 106.4 -45.6  34278  291.57 0854.36
2009/04/23 13:37:59.4      47    -30   -103     56    117 122.5 -73.3  34280  291.62 0854.36
2009/04/23 13:37:59.5      94    -37    -83    102    131 111.7 -48.1  34280  291.60 0854.36
2009/04/23 13:37:59.6     206      0    -89    207    225  90.0 -29.5  34256  291.20 0854.36
2009/04/23 13:37:59.7     178     56    -99    187    211  72.3 -34.5  34258  291.23 0854.36
2009/04/23 13:37:59.8     214     70    -73    226    238  71.8 -18.1  34254  291.16 0854.36
2009/04/23 13:37:59.9     162    -21    -47    164    171  97.7 -16.0  34250  291.11 0854.36
2009/04/23 13:38:00.0     146    -76    -22    165    167 117.5  -7.7  34238  290.89 0854.36
2009/04/23 13:38:00.1     135    -67    -68    151    165 116.6 -30.1  34248  291.08 0854.36
2009/04/23 13:38:00.2     175    -25    -65    177    188  98.4 -25.4  34248  291.06 0854.36
2009/04/23 13:38:00.3     179    -37    -42    183    188 101.9 -13.2  34238  290.89 0854.36
2009/04/23 13:38:00.4     200    -47    -66    206    216 103.3 -23.0  34240  290.92 0854.36
2009/04/23 13:38:00.5     186     16    -66    187    198  84.8 -24.6  34240  290.94 0854.36
2009/04/23 13:38:00.6     252    -23    -77    254    266  95.3 -17.0  34234  290.83 0854.36
2009/04/23 13:38:00.7     294    -22     -2    295    296  94.3  -0.5  34230  290.75 0854.36
2009/04/23 13:38:00.8     302    101    -37    319    322  71.4  -6.7  34228  290.73 0854.36
2009/04/23 13:38:00.9     178    120    -11    215    216  55.9  -3.2  34230  290.75 0854.36
2009/04/23 13:38:01.0     131    157     46    205    211  39.9  12.6  34236  290.87 0854.36
2009/04/23 13:38:01.1     204    170    127    266    294  50.2  27.3  34244  290.99 0854.36
2009/04/23 13:38:01.2     132    183    145    226    268  35.8  35.6  34246  291.02 0854.36
2009/04/23 13:38:01.3      50    213    131    219    255  13.4  33.5  34250  291.10 0854.36
2009/04/23 13:38:01.4      35    219    187    222    290   9.1  44.3  34254  291.16 0854.38
2009/04/23 13:38:01.5     -22    292    202    293    355 355.5  37.8  34258  291.23 0854.38
2009/04/23 13:38:01.6    -145    340    170    370    407 336.8  26.4  34264  291.35 0854.38
2009/04/23 13:38:01.7    -108    322     69    340    347 341.4  11.5  34260  291.28 0854.38
2009/04/23 13:38:01.8     -99    226     48    247    252 336.3  11.1  34250  291.10 0854.38
2009/04/23 13:38:01.9     -66    206    122    217    248 342.2  31.9  34268  291.41 0854.38
2009/04/23 13:38:02.0     -86    161    101    183    209 331.7  31.4  34270  291.43 0854.38
2009/04/23 13:38:02.1    -157     74     28    174    177 295.2   9.3  34262  291.30 0854.38
2009/04/23 13:38:02.2    -267    169    -12    317    318 302.4  -2.2  34262  291.31 0854.38
2009/04/23 13:38:02.3    -295    209    -32    362    364 305.3  -5.1  34262  291.32 0854.38
2009/04/23 13:38:02.4    -212    183     24    281    283 310.9   5.0  34268  291.39 0854.38
2009/04/23 13:38:02.5    -188    316    -14    368    369 329.3  -2.2  34262  291.30 0854.38
2009/04/23 13:38:02.6    -191    291     39    349    352 326.7   6.5  34260  291.27 0854.38
2009/04/23 13:38:02.7    -236    333     12    409    410 324.6   1.7  34264  291.35 0854.38
2009/04/23 13:38:02.8    -255    224     26    340    342 311.3   4.5  34268  291.40 0854.38
2009/04/23 13:38:02.9    -308    182    -61    358    364 300.6  -9.8  34280  291.61 0854.38
2009/04/23 13:38:03.0    -253    215   -118    333    354 310.3 -19.5  34274  291.51 0854.38
2009/04/23 13:38:03.1    -188    193    -45    270    274 315.7  -9.6  34284  291.68 0854.38
2009/04/23 13:38:03.2    -223    176    -11    285    286 308.2  -2.2  34286  291.70 0854.38
2009/04/23 13:38:03.3     -53    259     -5    265    266 348.4  -1.3  34264  291.33 0854.38
2009/04/23 13:38:03.4     -15    200     28    201    204 355.5   8.0  34256  291.20 0854.38
2009/04/23 13:38:03.5     -59    197     75    206    219 343.1  20.9  34242  290.98 0854.38
2009/04/23 13:38:03.7    -113    259    158    283    324 336.4  31.6  34278  291.56 0854.38
2009/04/23 13:38:03.8    -219    185     71    287    296 310.2  13.9  34278  291.58 0854.38
2009/04/23 13:38:03.9     -84    311    -78    323    333 344.9 -13.6  34274  291.52 0854.38
2009/04/23 13:38:04.0    -184    202    -46    274    278 317.7  -9.6  34274  291.51 0854.38
2009/04/23 13:38:04.1    -189    120    -62    225    234 302.5 -15.5  34258  291.25 0854.38
2009/04/23 13:38:04.2    -153    151    -61    216    225 314.7 -15.8  34284  291.67 0854.38
2009/04/23 13:38:04.3    -207    182      8    276    277 311.3   1.8  34292  291.82 0854.38
2009/04/23 13:38:04.4    -213    261    -77    338    347 320.8 -12.9  34298  291.93 0854.38
2009/04/23 13:38:04.5    -204    285    -45    351    354 324.3  -7.3  34302  291.98 0854.38
2009/04/23 13:38:04.6    -227    313    -92    387    398 324.0 -13.4  34264  291.34 0854.38
2009/04/23 13:38:04.7    -214    275    -71    349    357 322.2 -11.6  34308  292.07 0854.38
2009/04/23 13:38:04.8    -197    281    -44    344    347 324.9  -7.3  34300  291.95 0854.38
2009/04/23 13:38:04.9    -169    269    -41    318    321 327.9  -7.5  34304  292.02 0854.38
2009/04/23 13:38:05.0    -190    262    -46    324    328 324.0  -8.2  34300  291.96 0854.38
2009/04/23 13:38:05.1    -198    217    -62    294    301 317.6 -11.9  34326  292.40 0854.38
2009/04/23 13:38:05.2    -163    218    -10    273    274 323.1  -2.3  34346  292.72 0854.38
2009/04/23 13:38:05.3    -216    157      8    268    269 306.0   1.7  34342  292.65 0854.38
2009/04/23 13:38:05.4    -258    112    -34    282    285 293.5  -6.9  34352  292.84 0854.38
2009/04/23 13:38:05.5    -199    152     -7    251    252 307.5  -1.8  34352  292.84 0854.16
2009/04/23 13:38:05.6    -194    123     11    230    231 302.4   2.8  34346  292.75 0854.16
2009/04/23 13:38:05.7    -184    109     46    215    220 300.7  12.2  34348  292.78 0854.16
2009/04/23 13:38:05.8    -156     91     46    181    187 300.2  14.5  34342  292.66 0854.16
2009/04/23 13:38:05.9    -131     57     16    144    145 293.6   6.5  34328  292.44 0854.16
2009/04/23 13:38:06.0     -77     35     13     85     87 294.4   9.0  34328  292.44 0854.16
2009/04/23 13:38:06.1     -45     48     64     67     92 316.8  49.0  34330  292.46 0854.16
2009/04/23 13:38:06.2      -7     35     82     36     89 348.4  74.5  34332  292.49 0854.16
2009/04/23 13:38:06.3     -13     64     78     66    102 348.4  55.4  34310  292.13 0854.16
2009/04/23 13:38:06.4      -7     99     70    100    122 355.5  38.6  34290  291.79 0854.16
2009/04/23 13:38:06.5       8     96    119     97    153   5.3  56.4  34284  291.67 0854.16
2009/04/23 13:38:06.6     -64    210    143    220    262 343.0  35.7  34346  292.72 0854.16
2009/04/23 13:38:06.7      36    220    127    223    256   9.3  32.3  34316  292.23 0854.16
2009/04/23 13:38:06.8     -85    231    127    247    277 339.7  29.3  34350  292.81 0854.16
2009/04/23 13:38:06.9     119     95    126    153    198  51.4  43.7  34302  292.00 0854.16
2009/04/23 13:38:07.0      78     60    114     99    150  52.2  54.8  34312  292.17 0854.16
2009/04/23 13:38:07.1       7     64     62     65     89   6.2  49.0  34328  292.42 0854.16
2009/04/23 13:38:07.2     -34    150     49    154    162 347.1  17.9  34328  292.42 0854.16
2009/04/23 13:38:07.3     -23    149    -19    151    153 351.1  -7.2  34332  292.49 0854.16
2009/04/23 13:38:07.4      54     96    -31    111    115  29.4 -20.2  34324  292.35 0854.16
2009/04/23 13:38:07.5      60     80      4    101    102  37.0   2.3  34320  292.30 0854.14
2009/04/23 13:38:07.6      84    154     22    176    178  28.5   7.1  34288  291.74 0854.14
2009/04/23 13:38:07.7       0    101    -58    102    117 359.6 -36.3  34274  291.50 0854.14
2009/04/23 13:38:07.8       8    -26    -74     28     79 163.1 -83.0  34276  291.55 0854.14
2009/04/23 13:38:07.9       9    -62    -34     63     71 171.1 -35.7  34270  291.43 0854.14
2009/04/23 13:38:08.0     -17    -60    -20     63     66 196.0 -23.8  34284  291.67 0854.14
2009/04/23 13:38:08.1     -36    -34    -26     50     56 226.9 -33.7  34294  291.84 0854.14
2009/04/23 13:38:08.2     -89    -58     10    107    108 236.7   5.4  34310  292.12 0854.14
2009/04/23 13:38:08.3     -77    -13    -24     79     82 260.3 -21.7  34286  291.71 0854.14
2009/04/23 13:38:08.4    -105     16    -30    107    112 278.8 -16.0  34282  291.64 0854.14
2009/04/23 13:38:08.5     -65    -41      9     77     78 237.6   6.9  34282  291.66 0854.14
2009/04/23 13:38:08.6     -23      4    -11     24     26 279.7 -29.5  34278  291.57 0854.14
2009/04/23 13:38:08.7      -1    -39     55     40     68 182.7  60.5  34284  291.67 0854.14
2009/04/23 13:38:08.8     -85     22    -13     88     90 284.6  -8.8  34284  291.69 0854.14
2009/04/23 13:38:08.9     -63     -3    -55     64     84 266.5 -50.2  34284  291.67 0854.14
2009/04/23 13:38:09.0       0      0    -92      1     92 189.7 -90.0  34280  291.62 0854.14
2009/04/23 13:38:09.1     147     35    -49    152    160  76.3 -17.9  34272  291.47 0854.14
2009/04/23 13:38:09.2     148    -42      7    154    155 105.9   2.8  34272  291.47 0854.14
2009/04/23 13:38:09.3      86     36     70     94    117  67.4  40.1  34272  291.49 0854.14
2009/04/23 13:38:09.4      -9     89     31     90     96 353.8  18.9  34278  291.59 0854.14
2009/04/23 13:38:09.5     -31     49     33     59     67 327.4  31.4  34280  291.60 0854.18
2009/04/23 13:38:09.6     -66      0     19     67     70 270.0  16.3  34280  291.62 0854.18
2009/04/23 13:38:09.7     -48    -47     -3     68     69 225.9  -3.1  34282  291.64 0854.18
2009/04/23 13:38:09.8     -91    -72      4    117    118 231.8   2.3  34288  291.76 0854.18
2009/04/23 13:38:09.9    -110    -57     22    125    127 242.5  10.1  34286  291.72 0854.18
2009/04/23 13:38:10.0    -108    -51     43    120    127 244.8  20.0  34286  291.71 0854.18
2009/04/23 13:38:10.1     -95    -31     26    101    105 251.8  14.7  34286  291.71 0854.18
2009/04/23 13:38:10.2    -107      1    -45    108    117 270.8 -27.5  34288  291.74 0854.18
2009/04/23 13:38:10.3    -128    -76    -89    150    174 239.3 -38.1  34228  290.72 0854.18
2009/04/23 13:38:10.4    -268     90   -189    283    340 288.6 -41.3  34230  290.76 0854.18
2009/04/23 13:38:10.5    -373    100   -194    387    432 285.1 -33.0  34210  290.41 0854.18
2009/04/23 13:38:10.6    -311     48   -203    315    374 278.8 -40.1  34202  290.27 0854.18
2009/04/23 13:38:10.7    -271      0   -215    272    346 270.1 -46.8  34214  290.49 0854.18
2009/04/23 13:38:10.8    -138    -10   -201    139    244 265.7 -66.2  34234  290.84 0854.18
2009/04/23 13:38:10.9    -162    -35    -53    166    174 257.6 -23.0  34240  290.92 0854.18
2009/04/23 13:38:11.0    -290    -55    117    296    318 259.2  22.7  34246  291.02 0854.18
2009/04/23 13:38:11.1    -214   -136     79    254    267 237.6  17.3  34254  291.17 0854.18
2009/04/23 13:38:11.2    -205   -281     17    348    349 216.1   2.9  34268  291.40 0854.18
2009/04/23 13:38:11.3    -318   -330    -13    459    460 223.9  -1.7  34268  291.41 0854.18
2009/04/23 13:38:11.4    -333   -304     -1    452    453 227.6  -0.2  34294  291.84 0854.18
2009/04/23 13:38:11.5    -403   -183     -6    443    444 245.6  -0.9  34280  291.62 0854.22
2009/04/23 13:38:11.6    -333   -238    -16    410    411 234.4  -2.2  34268  291.41 0854.22
2009/04/23 13:38:11.7    -299   -290     -9    417    418 225.9  -1.3  34240  290.92 0854.22
2009/04/23 13:38:11.8    -313   -215     55    381    386 235.5   8.3  34234  290.83 0854.22
2009/04/23 13:38:11.9    -374    -81    242    383    453 257.7  35.5  34268  291.40 0854.22
2009/04/23 13:38:12.0    -355   -118    131    375    397 251.6  20.0  34248  291.08 0854.22
2009/04/23 13:38:12.1    -265   -144    -72    302    311 241.4 -13.4  34252  291.12 0854.22
2009/04/23 13:38:12.2    -318   -161   -110    357    374 243.1 -17.2  34258  291.23 0854.22
2009/04/23 13:38:12.3    -326   -108   -108    344    360 251.5 -22.5  34264  291.35 0854.22
2009/04/23 13:38:12.4    -423    -67    -16    429    430 261.0  -2.2  34262  291.31 0854.22
2009/04/23 13:38:12.5    -304   -121    -44    328    331 248.3  -7.7  34262  291.32 0854.22
2009/04/23 13:38:12.6    -252   -114    -55    277    283 245.6 -11.3  34264  291.33 0854.22
2009/04/23 13:38:12.7    -286   -155    -68    326    334 241.6 -11.8  34252  291.13 0854.22
2009/04/23 13:38:12.8     -80    -49   -104     95    140 238.5 -56.6  34250  291.11 0854.22
2009/04/23 13:38:12.9     -55   -132   -133    144    196 202.7 -52.1  34250  291.09 0854.22
2009/04/23 13:38:13.0      11   -115   -180    116    214 174.2 -69.0  34246  291.03 0854.22
2009/04/23 13:38:13.1     116   -254    -82    280    291 155.5 -21.5  34244  290.99 0854.22
2009/04/23 13:38:13.2     123   -187     20    224    225 146.6   5.2  34258  291.23 0854.22
2009/04/23 13:38:13.3       3   -217     38    218    222 179.0  10.1  34250  291.11 0854.22
2009/04/23 13:38:13.4     -11   -183     25    184    186 183.6   8.0  34256  291.20 0854.22
2009/04/23 13:38:13.5     -37   -218     92    222    240 189.8  24.1  34246  291.04 0854.31
2009/04/23 13:38:13.6     -98   -175     83    201    217 209.4  23.6  34250  291.11 0854.31
2009/04/23 13:38:13.7    -124   -233     22    265    267 208.1   4.9  34242  290.97 0854.31
2009/04/23 13:38:13.8    -249   -233     39    342    345 226.9   6.6  34242  290.98 0854.31
2009/04/23 13:38:13.9    -278   -278   -102    394    408 225.0 -14.6  34240  290.94 0854.31
2009/04/23 13:38:14.0    -158   -317    -47    355    359 206.5  -7.6  34244  291.01 0854.31
2009/04/23 13:38:14.1    -188   -182   -134    262    294 226.0 -33.6  34240  290.93 0854.31
2009/04/23 13:38:14.2    -163   -349   -105    386    401 205.0 -15.2  34228  290.72 0854.31
2009/04/23 13:38:14.3      -9   -374    -48    375    379 181.4  -7.3  34226  290.69 0854.31
2009/04/23 13:38:14.4    -194   -251     27    318    320 217.8   4.9  34226  290.70 0854.31
2009/04/23 13:38:14.5    -190    -52     27    198    200 254.7   7.8  34236  290.87 0854.31
2009/04/23 13:38:14.6    -161   -121     90    202    221 233.1  25.3  34232  290.81 0854.31
2009/04/23 13:38:14.7    -330    -63    155    337    370 259.1  26.5  34230  290.77 0854.31
2009/04/23 13:38:14.8    -375    -99     88    388    398 255.2  12.8  34228  290.71 0854.31
2009/04/23 13:38:14.9    -318   -149    -23    352    353 245.0  -3.8  34216  290.52 0854.31
2009/04/23 13:38:15.0    -422   -191    -59    464    468 245.6  -7.3  34226  290.68 0854.31
2009/04/23 13:38:15.1    -607   -228   -126    649    662 249.4 -11.0  34230  290.77 0854.31
2009/04/23 13:38:15.2    -706   -232   -137    744    757 251.8 -10.5  34228  290.72 0854.31
2009/04/23 13:38:15.3    -550    -72   -188    555    587 262.5 -18.7  34226  290.68 0854.31
2009/04/23 13:38:15.4    -401    120   -125    419    437 286.7 -21.6  34208  290.38 0854.31
2009/04/23 13:38:15.5    -455    -77   -181    462    496 260.3 -26.9  34228  290.74 0854.41
2009/04/23 13:38:15.6    -249    239     10    346    347 313.9   1.8  34232  290.81 0854.41
2009/04/23 13:38:15.7    -289    106   -105    308    326 290.2 -18.9  34220  290.59 0854.41
2009/04/23 13:38:15.8    -305     -4    -70    306    314 269.2 -12.9  34226  290.70 0854.41
2009/04/23 13:38:15.9    -239    -48     27    244    246 258.5   6.5  34234  290.82 0854.41
2009/04/23 13:38:16.0    -120     52     82    131    154 293.5  35.5  34230  290.77 0854.41
2009/04/23 13:38:16.1    -130     22     46    132    140 279.7  19.4  34232  290.81 0854.41
2009/04/23 13:38:16.2     -95     53      4    110    111 299.3   2.3  34224  290.67 0854.41
2009/04/23 13:38:16.3    -208    -59    -78    217    230 254.1 -24.6  34228  290.72 0854.41
2009/04/23 13:38:16.4    -180    -28    -83    183    200 261.0 -30.3  34228  290.74 0854.41
2009/04/23 13:38:16.5      23    142    -48    144    151   9.3 -23.6  34230  290.75 0854.41
2009/04/23 13:38:16.6      55    213     87    221    237  14.5  22.8  34228  290.72 0854.41
2009/04/23 13:38:16.7      44    219     64    224    234  11.6  16.0  34228  290.74 0854.41
2009/04/23 13:38:16.8     -23    211    135    213    252 353.8  35.5  34228  290.71 0854.41
2009/04/23 13:38:16.9     -49    153    151    161    220 342.2  48.0  34230  290.75 0854.41
2009/04/23 13:38:17.0    -108    217     81    243    257 333.5  18.4  34224  290.65 0854.41
2009/04/23 13:38:17.1     -39    173     -2    178    179 347.3  -0.7  34222  290.62 0854.41
2009/04/23 13:38:17.2      -1    127      2    128    129 359.1   1.2  34224  290.67 0854.41
2009/04/23 13:38:17.3     -26    106     23    110    113 346.2  12.2  34222  290.62 0854.41
2009/04/23 13:38:17.4      12    168     94    169    193   4.4  31.4  34224  290.67 0854.41
2009/04/23 13:38:17.5     -27    207    137    209    249 352.4  36.5  34228  290.73 0854.43
2009/04/23 13:38:17.6    -245    177    135    303    331 306.0  25.7  34222  290.63 0854.43
2009/04/23 13:38:17.7    -167    236    209    290    357 324.8  39.5  34224  290.67 0854.43
2009/04/23 13:38:17.8     -96    231    329    251    413 337.3  59.0  34222  290.64 0854.43
2009/04/23 13:38:17.9     134    345    226    371    434  21.2  34.2  34212  290.44 0854.43
2009/04/23 13:38:18.0     267    395    297    477    561  34.1  34.9  34214  290.48 0854.43
2009/04/23 13:38:18.1     222    410    385    467    605  28.5  43.7  34214  290.48 0854.43
2009/04/23 13:38:18.2      -2    339    223    340    406 359.5  36.4  34210  290.43 0854.43
2009/04/23 13:38:18.3      69    337    258    345    430  11.6  40.6  34216  290.51 0854.43
2009/04/23 13:38:18.4     264    399     50    479    482  33.5   6.1  34208  290.40 0854.43
2009/04/23 13:38:18.5     123    403     -9    422    423  17.0  -1.3  34216  290.53 0854.43
2009/04/23 13:38:18.6      92    380     31    392    394  13.7   4.6  34214  290.50 0854.43
2009/04/23 13:38:18.7     259    259     62    367    373  45.0   9.7  34222  290.62 0854.43
2009/04/23 13:38:18.8     227    121    106    258    278  62.0  23.4  34220  290.58 0854.43
2009/04/23 13:38:18.9     380    267    189    465    501  54.9  23.4  34208  290.40 0854.43
2009/04/23 13:38:19.0     267    341    102    434    446  38.1  13.3  34216  290.51 0854.43
2009/04/23 13:38:19.1     306    408    179    511    542  36.9  19.3  34240  290.94 0854.43
2009/04/23 13:38:19.2     338    403    187    527    560  40.0  19.6  34242  290.97 0854.43
2009/04/23 13:38:19.3     360    329    146    488    510  47.6  16.7  34208  290.37 0854.43
2009/04/23 13:38:19.4     227    439    226    495    544  27.4  26.3  34248  291.06 0854.43
2009/04/23 13:38:19.5     391    267    243    474    532  55.6  29.2  34194  290.15 0854.39
2009/04/23 13:38:19.6     350    358    230    501    551  44.3  26.3  34222  290.62 0854.39
2009/04/23 13:38:19.7     159    336    139    372    397  25.4  21.5  34258  291.22 0854.39
2009/04/23 13:38:19.8     603    300     67    674    678  63.5   5.7  34208  290.38 0854.39
2009/04/23 13:38:19.9     593    430    100    733    740  54.0   7.8  34232  290.80 0854.39
2009/04/23 13:38:20.0     590    481    307    762    821  50.8  23.1  34264  291.34 0854.39
2009/04/23 13:38:20.1     393    439    317    590    669  41.8  30.7  34274  291.52 0854.39
2009/04/23 13:38:20.2     636    430    336    768    838  55.9  25.2  34246  291.03 0854.39
2009/04/23 13:38:20.3     788    311    370    848    925  68.4  25.1  34244  291.01 0854.39
2009/04/23 13:38:20.4     848    206    329    873    932  76.3  21.7  34244  290.99 0854.39
2009/04/23 13:38:20.5    1203    325    491   1247   1340  74.9  22.7  34228  290.71 0854.39
2009/04/23 13:38:20.6    1272    411    113   1337   1343  72.1   4.9  34220  290.59 0854.39
2009/04/23 13:38:20.7    1294    476    429   1380   1446  69.8  17.3  34242  290.97 0854.39
2009/04/23 13:38:20.8    1113    515    335   1227   1273  65.2  15.3  34220  290.59 0854.39
2009/04/23 13:38:20.9     955    530    103   1093   1099  61.0   5.4  34232  290.79 0854.39
2009/04/23 13:38:21.0    1135    267     34   1167   1168  76.7   1.7  34200  290.26 0854.39
2009/04/23 13:38:21.1    1293    184    284   1307   1338  81.9  12.3  34226  290.68 0854.39
2009/04/23 13:38:21.2    1228    116     45   1234   1235  84.6   2.1  34212  290.47 0854.39
2009/04/23 13:38:21.3     679   -289    361    738    821 113.1  28.0  34206  290.36 0854.39
2009/04/23 13:38:21.4     585   -143    469    603    763 103.8  41.7  34228  290.74 0854.39
2009/04/23 13:38:21.5     513    123    240    528    579  76.5  26.2  34200  290.24 0854.40
2009/04/23 13:38:21.6     829   -262    155    870    884 107.6  10.1  34212  290.45 0854.40
2009/04/23 13:38:21.7     705   -320    331    775    842 114.4  24.6  34212  290.47 0854.40
2009/04/23 13:38:21.8     590   -151    410    610    734 104.4  37.2  34232  290.80 0854.40
2009/04/23 13:38:21.9     461   -129    351    479    593 105.7  39.8  34228  290.74 0854.40
2009/04/23 13:38:22.0     650   -121    197    662    691 100.6  16.6  34210  290.41 0854.40
2009/04/23 13:38:22.1     531   -129    273    547    611 103.7  28.5  34202  290.29 0854.40
2009/04/23 13:38:22.2     340   -140    304    368    477 112.5  43.7  34206  290.36 0854.40
2009/04/23 13:38:22.3     424   -431    434    605    744 135.5  39.2  34210  290.42 0854.40
2009/04/23 13:38:22.4     335   -116    386    355    524 109.2  52.8  34218  290.54 0854.40
2009/04/23 13:38:22.5     273   -261    244    378    449 133.7  35.7  34212  290.46 0854.37
2009/04/23 13:38:22.6     237   -287    260    373    454 140.5  38.4  34214  290.48 0854.37
2009/04/23 13:38:22.7     160   -222    105    275    294 144.2  22.0  34216  290.51 0854.37
2009/04/23 13:38:22.8     291    -15    101    292    310  93.0  19.1  34210  290.41 0854.37
2009/04/23 13:38:22.9     340   -340    250    481    542 135.0  29.5  34206  290.36 0854.37
2009/04/23 13:38:23.0     458   -560    130    724    736 140.7  10.2  34198  290.23 0854.37
2009/04/23 13:38:23.1     455   -561    -83    723    728 140.9  -6.6  34202  290.28 0854.37
2009/04/23 13:38:23.2     287   -396   -107    490    502 144.0 -12.4  34198  290.22 0854.37
2009/04/23 13:38:23.3     367   -383    275    531    597 136.2  29.4  34208  290.39 0854.37
2009/04/23 13:38:23.4     276   -187    239    334    410 124.2  39.1  34204  290.32 0854.37
2009/04/23 13:38:23.5      66   -150    139    165    215 156.2  44.3  34210  290.43 0854.37
2009/04/23 13:38:23.6       2   -138    194    139    238 179.0  61.1  34210  290.41 0854.37
2009/04/23 13:38:23.7    -187   -217    103    287    304 220.8  20.7  34212  290.44 0854.37
2009/04/23 13:38:23.8    -286   -300    183    415    453 223.7  25.2  34216  290.51 0854.37
2009/04/23 13:38:23.9    -305   -433    305    530    611 215.2  32.4  34228  290.73 0854.37
2009/04/23 13:38:24.0    -469   -122    207    485    527 255.3  24.6  34208  290.39 0854.37
2009/04/23 13:38:24.1    -421   -170    192    455    493 248.0  24.2  34208  290.40 0854.37
2009/04/23 13:38:24.2    -345   -264    137    435    457 232.5  17.5  34198  290.22 0854.37
2009/04/23 13:38:24.3    -251   -207    194    326    379 230.5  33.6  34192  290.11 0854.37
2009/04/23 13:38:24.4     -28   -160    215    163    269 190.0  59.2  34202  290.27 0854.37
2009/04/23 13:38:24.5     -27   -266    297    268    400 186.0  53.3  34202  290.28 0854.36
2009/04/23 13:38:24.6     -76   -378    273    386    472 191.5  38.7  34190  290.07 0854.36
2009/04/23 13:38:24.7       4   -376    303    377    483 179.3  43.0  34196  290.17 0854.36
2009/04/23 13:38:24.8     -79   -402    169    410    443 191.1  23.7  34194  290.16 0854.36
2009/04/23 13:38:24.9    -123   -369    131    390    412 198.5  18.6  34200  290.26 0854.36
2009/04/23 13:38:25.0     -83   -489     74    497    503 189.7   8.5  34192  290.12 0854.36
2009/04/23 13:38:25.1     -37   -517    102    519    530 184.1  11.1  34190  290.09 0854.36
2009/04/23 13:38:25.2     112   -549     -2    561    562 168.4  -0.3  34180  289.92 0854.36
2009/04/23 13:38:25.3      73   -520    -20    526    527 172.0  -2.2  34186  290.02 0854.36
2009/04/23 13:38:25.5      -2   -526    -51    527    530 180.2  -5.6  34192  290.11 0854.36
2009/04/23 13:38:25.5      17   -496   -115    497    511 178.0 -13.1  34180  289.91 0854.36
2009/04/23 13:38:25.6      46   -489    -91    492    501 174.6 -10.5  34178  289.89 0854.36
2009/04/23 13:38:25.7       7   -488    -55    489    493 179.1  -6.5  34178  289.86 0854.36
2009/04/23 13:38:25.8      16   -556    -65    557    561 178.3  -6.7  34184  289.99 0854.36
2009/04/23 13:38:25.9     -36   -573    -66    575    579 183.6  -6.6  34178  289.86 0854.36
2009/04/23 13:38:26.0     -15   -568    -22    569    570 181.6  -2.2  34182  289.93 0854.36
2009/04/23 13:38:26.1       4   -521     34    522    524 179.5   3.7  34188  290.04 0854.36
2009/04/23 13:38:26.2     -13   -472    -32    473    475 181.6  -3.9  34184  289.98 0854.36
2009/04/23 13:38:26.3     -35   -506      9    508    509 184.0   1.1  34186  290.00 0854.36
2009/04/23 13:38:26.4     -15   -462    -59    463    467 181.9  -7.3  34182  289.96 0854.36
2009/04/23 13:38:26.5     -32   -362    -46    364    367 185.2  -7.3  34184  289.98 0854.37
2009/04/23 13:38:26.6     -42   -395    -89    398    408 186.1 -12.6  34186  290.02 0854.37
2009/04/23 13:38:26.8      16   -365    -33    366    368 177.4  -5.2  34192  290.10 0854.37
2009/04/23 13:38:26.8     -14   -309    -17    310    311 182.6  -3.2  34190  290.07 0854.37
2009/04/23 13:38:26.9      12   -347     34    348    350 178.0   5.7  34196  290.18 0854.37
2009/04/23 13:38:27.0      10   -388     -3    389    390 178.5  -0.5  34194  290.16 0854.37
2009/04/23 13:38:27.1      -5   -424    -20    425    426 180.7  -2.8  34196  290.19 0854.37
2009/04/23 13:38:27.2      -3   -455    -25    456    457 180.5  -3.2  34200  290.26 0854.37
2009/04/23 13:38:27.3       0   -401    -15    402    403 179.9  -2.2  34200  290.25 0854.37
2009/04/23 13:38:27.4      86   -388    -15    398    399 167.4  -2.2  34208  290.37 0854.37
2009/04/23 13:38:27.5     116   -431      9    447    448 164.9   1.2  34208  290.38 0854.37
2009/04/23 13:38:27.6     142   -427    -24    451    452 161.5  -3.1  34194  290.14 0854.37
2009/04/23 13:38:27.7     156   -468   -136    494    513 161.5 -15.4  34178  289.89 0854.37
2009/04/23 13:38:27.8     118   -452    -15    468    469 165.3  -1.9  34184  289.98 0854.37
2009/04/23 13:38:28.0      88   -376    -62    387    393 166.8  -9.1  34182  289.94 0854.37
2009/04/23 13:38:28.0      74   -377    -55    385    390 168.9  -8.2  34188  290.06 0854.37
2009/04/23 13:38:28.1      -4   -527     -3    528    529 180.5  -0.4  34182  289.94 0854.37
2009/04/23 13:38:28.2      94   -568    -22    576    577 170.6  -2.2  34198  290.20 0854.37
2009/04/23 13:38:28.3      85   -478    -35    486    488 169.9  -4.1  34182  289.96 0854.37
2009/04/23 13:38:28.4      70   -542    -43    547    549 172.6  -4.6  34180  289.92 0854.37
2009/04/23 13:38:28.5     189   -544     69    577    582 160.8   6.9  34194  290.14 0854.42
2009/04/23 13:38:28.6     173   -530    197    558    591 161.9  20.3  34198  290.22 0854.42
2009/04/23 13:38:28.7     396   -435    152    589    609 137.7  14.5  34196  290.17 0854.42
2009/04/23 13:38:28.8     308   -462    119    556    569 146.3  12.1  34182  289.94 0854.42
2009/04/23 13:38:28.9     158   -519    169    543    569 163.1  17.3  34174  289.80 0854.42
2009/04/23 13:38:29.0      85   -494    263    502    566 170.2  29.8  34182  289.94 0854.42
2009/04/23 13:38:29.1     204   -480     55    522    525 157.0   6.1  34182  289.94 0854.42
2009/04/23 13:38:29.2     214   -502    -12    546    547 156.9  -1.3  34190  290.09 0854.42
2009/04/23 13:38:29.3     269   -503     74    571    576 151.9   7.5  34184  289.98 0854.42
2009/04/23 13:38:29.4     224   -422    155    478    503 152.0  18.0  34182  289.93 0854.42
2009/04/23 13:38:29.5     199   -366    174    417    451 151.5  23.9  34186  290.00 0854.42
2009/04/23 13:38:29.6     166   -394    122    428    446 157.1  15.9  34184  289.99 0854.42
2009/04/23 13:38:29.7     176   -433    145    468    491 157.8  17.3  34188  290.05 0854.42
2009/04/23 13:38:29.8     161   -549    198    573    607 163.6  19.1  34188  290.05 0854.42
2009/04/23 13:38:30.0     137   -536    230    554    599 165.6  24.1  34192  290.12 0854.42
2009/04/23 13:38:30.0     111   -547    255    558    613 168.5  26.2  34184  289.97 0854.42
2009/04/23 13:38:30.2      48   -506    267    509    574 174.6  30.0  34178  289.89 0854.42
2009/04/23 13:38:30.3      17   -656    150    657    674 178.5  12.9  34178  289.88 0854.42
2009/04/23 13:38:30.4      25   -651      1    652    653 177.8   0.1  34178  289.87 0854.42
2009/04/23 13:38:30.5      -2   -603     51    604    607 180.3   4.9  34180  289.90 0854.42
2009/04/23 13:38:30.6      28   -535     26    536    537 177.0   2.8  34176  289.84 0854.45
2009/04/23 13:38:30.7      48   -564    -93    567    575 175.1  -9.4  34180  289.90 0854.45
2009/04/23 13:38:30.8     237   -589   -137    636    651 158.0 -12.2  34176  289.84 0854.45
2009/04/23 13:38:30.9     322   -468   -185    569    599 145.5 -18.0  34176  289.85 0854.45
2009/04/23 13:38:31.0     124   -478     -2    494    495 165.4  -0.3  34178  289.88 0854.45
2009/04/23 13:38:31.1      82   -493    -64    500    505 170.6  -7.4  34174  289.81 0854.45
2009/04/23 13:38:31.2     102   -463   -295    475    559 167.5 -39.2  34170  289.75 0854.45
2009/04/23 13:38:31.3    -178   -507     37    538    540 199.4   4.0  34154  289.48 0854.45
2009/04/23 13:38:31.4    -170   -394     58    430    434 203.4   7.8  34180  289.90 0854.45
2009/04/23 13:38:31.5    -193   -543    -96    577    585 199.6  -9.5  34178  289.86 0854.45
2009/04/23 13:38:31.6    -198   -571   -128    605    619 199.2 -12.0  34172  289.76 0854.45
2009/04/23 13:38:31.7    -182   -503    -77    536    542 200.0  -8.2  34176  289.85 0854.45
2009/04/23 13:38:31.8    -120   -389   -149    408    434 197.2 -25.4  34178  289.87 0854.45
2009/04/23 13:38:31.9    -241   -405   -149    472    494 210.8 -22.5  34176  289.83 0854.45
2009/04/23 13:38:32.0    -199   -717    -53    745    747 195.5  -4.1  34172  289.77 0854.45
2009/04/23 13:38:32.1    -221   -679    -11    715    716 198.1  -0.9  34176  289.83 0854.45
2009/04/23 13:38:32.2     -61   -445    105    450    463 187.9  13.2  34170  289.73 0854.45
2009/04/23 13:38:32.3      91   -177    117    200    231 152.8  33.4  34180  289.91 0854.45
2009/04/23 13:38:32.4    -176   -383    -37    422    424 204.7  -5.1  34180  289.90 0854.45
2009/04/23 13:38:32.5     165   -446     27    476    477 159.6   3.3  34172  289.76 0854.45
2009/04/23 13:38:32.6    -121   -400     84    419    428 196.9  11.3  34172  289.77 0854.49
2009/04/23 13:38:32.7      70   -333    -98    341    355 168.1 -16.0  34168  289.72 0854.49
2009/04/23 13:38:32.8    -102   -422    -19    435    436 193.6  -2.6  34160  289.58 0854.49
2009/04/23 13:38:32.9    -363   -756     34    839    840 205.7   2.4  34168  289.70 0854.49
2009/04/23 13:38:33.0     -91   -713     35    719    720 187.3   2.8  34172  289.76 0854.49
2009/04/23 13:38:33.1    -204   -424    158    471    497 205.8  18.6  34166  289.67 0854.49
2009/04/23 13:38:33.2    -184   -434    -26    472    473 203.0  -3.2  34176  289.83 0854.49
2009/04/23 13:38:33.3    -358   -482   -344    601    692 216.6 -36.7  34170  289.73 0854.49
2009/04/23 13:38:33.4    -437   -465   -199    639    669 223.2 -22.3  34158  289.53 0854.49
2009/04/23 13:38:33.5    -117   -846      0    854    855 187.9   0.0  34168  289.70 0854.49
2009/04/23 13:38:33.6    -154   -725    192    742    767 192.1  14.5  34178  289.89 0854.49
2009/04/23 13:38:33.7    -106   -387    114    402    418 195.3  15.9  34180  289.92 0854.49
2009/04/23 13:38:33.8    -382   -462    -99    600    609 219.6  -9.4  34176  289.83 0854.49
2009/04/23 13:38:33.9    -393   -520     -2    653    654 217.1  -0.2  34176  289.84 0854.49
2009/04/23 13:38:34.0    -411   -408   -187    580    609 225.2 -22.9  34182  289.95 0854.49
2009/04/23 13:38:34.1    -277   -375   -166    467    496 216.4 -19.6  34174  289.81 0854.49
2009/04/23 13:38:34.2    -317   -739    125    805    815 203.2   8.9  34170  289.74 0854.49
2009/04/23 13:38:34.3    -626   -522   -110    816    824 230.2  -7.7  34184  289.97 0854.49
2009/04/23 13:38:34.4    -697   -479   -268    846    888 235.5 -17.6  34188  290.06 0854.49
2009/04/23 13:38:34.5    -723   -291   -324    780    844 248.0 -28.3  34190  290.08 0854.53
2009/04/23 13:38:34.6    -734   -333   -239    807    842 245.6 -16.5  34190  290.08 0854.53
2009/04/23 13:38:34.7    -534   -587   -161    794    810 222.3 -11.5  34176  289.84 0854.53
2009/04/23 13:38:34.8    -416   -345    -93    541    550 230.4  -9.8  34182  289.94 0854.53
2009/04/23 13:38:34.9    -282   -217     99    356    370 232.4  15.6  34182  289.96 0854.53
2009/04/23 13:38:35.0    -243   -293   -105    381    396 219.7 -15.4  34186  290.01 0854.53
2009/04/23 13:38:35.1    -427   -747   -157    861    876 209.8 -10.4  34182  289.96 0854.53
2009/04/23 13:38:35.2    -413   -683   -158    799    815 211.2 -11.2  34188  290.03 0854.53
2009/04/23 13:38:35.3    -414   -499   -341    649    733 219.7 -34.4  34178  289.88 0854.53
2009/04/23 13:38:35.4    -319   -674   -321    746    812 205.4 -29.2  34164  289.64 0854.53
2009/04/23 13:38:35.5    -130   -810     40    821    823 189.1   2.8  34184  289.97 0854.53
2009/04/23 13:38:35.6     -20   -526    232    527    575 182.3  25.2  34172  289.77 0854.53
2009/04/23 13:38:35.7      46   -311    319    315    448 171.5  50.2  34182  289.94 0854.53
2009/04/23 13:38:35.8     -34   -248    303    251    393 188.0  56.3  34188  290.04 0854.53
2009/04/23 13:38:35.9     -51   -375    414    379    561 187.8  53.0  34186  290.01 0854.53
2009/04/23 13:38:36.0     -64   -309    355    316    475 191.8  53.9  34190  290.09 0854.53
2009/04/23 13:38:36.1     -62    -18    178     65    189 253.2  79.5  34174  289.82 0854.53
2009/04/23 13:38:36.2    -171   -139    267    221    346 230.9  56.3  34190  290.07 0854.53
2009/04/23 13:38:36.3     -23   -290    339    292    447 184.7  55.0  34182  289.95 0854.53
2009/04/23 13:38:36.4      22   -392    150    393    420 176.8  22.0  34186  290.00 0854.53
2009/04/23 13:38:36.5     -19   -489    174    490    521 182.3  19.6  34184  289.98 0854.50
2009/04/23 13:38:36.6     -41   -418     90    421    431 185.7  12.2  34186  290.00 0854.50
2009/04/23 13:38:36.7      12   -243   -106    244    266 177.1 -29.5  34184  289.97 0854.50
2009/04/23 13:38:36.8     186   -213    -11    283    284 138.8  -2.2  34184  289.97 0854.50
2009/04/23 13:38:36.9     146   -420     40    445    447 160.8   5.2  34176  289.85 0854.50
2009/04/23 13:38:37.0    -137   -491    178    510    541 195.7  19.3  34184  289.97 0854.50
2009/04/23 13:38:37.1     -31   -564    225    565    608 183.2  23.0  34182  289.95 0854.50
2009/04/23 13:38:37.2      33   -381    187    383    426 174.9  27.9  34178  289.88 0854.50
2009/04/23 13:38:37.3      91   -390    245    401    469 166.8  34.3  34188  290.05 0854.50
2009/04/23 13:38:37.4     181   -301    297    352    460 149.0  44.3  34184  289.97 0854.50
2009/04/23 13:38:37.5     106   -209    265    235    354 153.0  54.0  34192  290.10 0854.50
2009/04/23 13:38:37.6      67   -287    299    295    420 166.7  50.2  34188  290.04 0854.50
2009/04/23 13:38:37.7      33   -182    338    186    385 169.5  68.9  34194  290.16 0854.50
2009/04/23 13:38:37.8     199   -338    407    393    565 149.5  51.2  34192  290.12 0854.50
2009/04/23 13:38:37.9    -111   -556    198    568    601 191.3  20.0  34188  290.03 0854.50
2009/04/23 13:38:38.0    -127   -418    165    438    468 196.9  21.6  34186  290.02 0854.50
2009/04/23 13:38:38.1    -314   -397    200    507    545 218.4  22.7  34190  290.07 0854.50
2009/04/23 13:38:38.2    -276   -488    282    561    627 209.5  28.7  34182  289.95 0854.50
2009/04/23 13:38:38.3    -396   -176    233    434    492 246.0  30.7  34198  290.20 0854.50
2009/04/23 13:38:38.4      32   -200    277    203    343 170.7  60.3  34188  290.05 0854.50
2009/04/23 13:38:38.5     274   -575    328    638    717 154.5  29.3  34174  289.82 0854.51
2009/04/23 13:38:38.6     133   -361    435    385    580 159.7  54.2  34182  289.94 0854.51
2009/04/23 13:38:38.7     -66   -255    403    264    481 194.5  63.9  34190  290.09 0854.51
2009/04/23 13:38:38.8     -26   -338    518    340    619 184.5  63.6  34194  290.14 0854.51
2009/04/23 13:38:38.9     194   -458    526    498    724 157.0  51.9  34196  290.19 0854.51
2009/04/23 13:38:39.0      57   -664    507    667    837 175.0  41.1  34192  290.13 0854.51
2009/04/23 13:38:39.1    -246   -681    445    725    850 199.9  34.5  34178  289.86 0854.51
2009/04/23 13:38:39.2    -258   -630    423    681    801 202.3  34.9  34186  290.02 0854.51
2009/04/23 13:38:39.3    -179   -460    395    494    632 201.3  42.7  34188  290.05 0854.51
2009/04/23 13:38:39.4    -361   -378    271    523    589 223.7  29.4  34194  290.14 0854.51
2009/04/23 13:38:39.5    -305   -368    392    479    618 219.6  43.7  34192  290.10 0854.51
2009/04/23 13:38:39.6    -257   -391    310    469    562 213.4  36.5  34184  289.99 0854.51
2009/04/23 13:38:39.7    -327   -280    256    431    501 229.4  33.5  34192  290.12 0854.51
2009/04/23 13:38:39.8    -249    -15    321    250    406 266.5  58.3  34178  289.89 0854.51
2009/04/23 13:38:39.9    -281     21      8    282    283 274.4   1.7  34196  290.17 0854.51
2009/04/23 13:38:40.0    -513     -8    104    514    525 269.1  11.4  34194  290.14 0854.51
2009/04/23 13:38:40.1    -457   -243     39    518    520 242.0   4.3  34198  290.21 0854.51
2009/04/23 13:38:40.2    -306   -151   -102    342    358 243.7 -16.7  34188  290.06 0854.51
2009/04/23 13:38:40.3    -324     -4     70    325    333 269.2  12.3  34178  289.86 0854.51
2009/04/23 13:38:40.4    -418   -186   -124    458    475 246.0 -15.2  34198  290.22 0854.51
2009/04/23 13:38:40.5    -356   -161    -47    391    394 245.6  -6.9  34196  290.18 0854.48
2009/04/23 13:38:40.6    -417     -2   -171    418    451 269.7 -27.8  34190  290.09 0854.48
2009/04/23 13:38:40.7    -103   -236   -290    258    388 203.6 -58.4  34202  290.30 0854.48
2009/04/23 13:38:40.8     131   -156   -211    204    293 139.9 -55.6  34190  290.07 0854.48
2009/04/23 13:38:40.9     296   -177     -1    346    347 120.9  -0.2  34188  290.06 0854.48
2009/04/23 13:38:41.0      34    -52     17     63     66 146.6  15.3  34190  290.09 0854.48
2009/04/23 13:38:41.1     -45    -32     18     56     60 234.0  18.4  34194  290.16 0854.48
2009/04/23 13:38:41.2     -15      8    -81     18     82 298.9 -90.0  34196  290.19 0854.48
2009/04/23 13:38:41.3     120     43     38    128    134  70.0  16.8  34194  290.16 0854.48
2009/04/23 13:38:41.4     159    -53    126    168    210 108.4  40.9  34186  290.01 0854.48
2009/04/23 13:38:41.5      23   -137    150    140    205 170.2  52.1  34188  290.04 0854.48
2009/04/23 13:38:41.6     -62   -188     90    199    218 198.3  25.9  34188  290.06 0854.48
2009/04/23 13:38:41.7    -122   -328    168    351    389 200.5  27.3  34188  290.04 0854.48
2009/04/23 13:38:41.8    -107   -352    204    369    421 197.0  31.4  34180  289.92 0854.48
2009/04/23 13:38:41.9     314   -177    136    361    385 119.5  21.5  34188  290.04 0854.48
2009/04/23 13:38:42.0     448   -497    130    670    683 138.0  11.0  34192  290.10 0854.48
2009/04/23 13:38:42.1     414   -340    226    536    581 129.4  24.2  34178  289.89 0854.48
2009/04/23 13:38:42.2     355   -236     15    427    428 123.6   2.1  34188  290.05 0854.48
2009/04/23 13:38:42.3     160   -274   -111    318    337 149.7 -19.3  34182  289.94 0854.48
2009/04/23 13:38:42.4       3    -75   -123     76    144 177.3 -69.1  34190  290.08 0854.48
2009/04/23 13:38:42.5     -36    -32   -108     49    118 228.7 -78.9  34190  290.08 0854.45
2009/04/23 13:38:42.6     -72     -7   -125     73    144 263.9 -71.2  34192  290.11 0854.45
2009/04/23 13:38:42.7    -136     47   -115    144    184 289.1 -47.1  34190  290.09 0854.45
2009/04/23 13:38:42.8    -156     53    -16    165    166 288.8  -5.6  34188  290.04 0854.45
2009/04/23 13:38:42.9     -71     49     45     87     97 304.6  29.3  34186  290.02 0854.45
2009/04/23 13:38:43.0    -167    -36     60    172    183 257.6  19.2  34190  290.08 0854.45
2009/04/23 13:38:43.1     -76    -72     51    105    116 226.4  27.3  34190  290.09 0854.45
2009/04/23 13:38:43.2     -32    -32     90     46    101 225.0  70.8  34190  290.09 0854.45
2009/04/23 13:38:43.3     -40   -172    110    177    208 193.1  35.0  34186  290.01 0854.45
2009/04/23 13:38:43.4     252    -24     49    254    259  95.5  11.0  34192  290.12 0854.45
2009/04/23 13:38:43.5     257    -25     49    259    264  95.7  10.8  34188  290.03 0854.43
2009/04/23 13:38:43.6     176     -8     16    177    178  92.6   5.4  34190  290.09 0854.43
2009/04/23 13:38:43.7     127    -23    -15    130    131 100.6  -6.7  34188  290.04 0854.43
2009/04/23 13:38:43.8      76     15    -55     78     95  78.6 -42.4  34188  290.04 0854.43
2009/04/23 13:38:43.9     -63    106   -190    124    226 329.2 -68.5  34182  289.96 0854.43
2009/04/23 13:38:44.0     -70    238    -77    249    260 343.5 -22.5  34184  289.98 0854.43
2009/04/23 13:38:44.1     -63    312   -104    319    336 348.4 -18.1  34186  290.01 0854.43
2009/04/23 13:38:44.2    -373    250   -124    450    466 303.9 -20.0  34194  290.14 0854.43
2009/04/23 13:38:44.3    -340    313   -131    463    481 312.6 -20.5  34196  290.17 0854.43
2009/04/23 13:38:44.4    -168    257    -12    308    309 326.8  -2.2  34188  290.05 0854.43
2009/04/23 13:38:44.5    -107    323     20    341    342 341.5   3.5  34190  290.08 0854.43
2009/04/23 13:38:44.6    -139    258    -81    294    306 331.7 -15.5  34190  290.07 0854.43
2009/04/23 13:38:44.7     -12    309    -30    310    312 357.8  -5.6  34194  290.14 0854.43
2009/04/23 13:38:44.8       0    184     44    185    191 359.8  13.5  34186  290.02 0854.43
2009/04/23 13:38:44.9       2     91    -83     92    123   1.8 -51.9  34190  290.09 0854.43
2009/04/23 13:38:45.0       7     63   -115     64    131   7.1 -73.2  34192  290.13 0854.43
2009/04/23 13:38:45.1     -62     -3   -123     63    138 266.5 -75.2  34188  290.06 0854.43
2009/04/23 13:38:45.2     -81    -61   -119    102    156 232.7 -59.4  34188  290.06 0854.43
2009/04/23 13:38:45.3     109   -177    -74    208    220 148.4 -24.6  34190  290.08 0854.43
2009/04/23 13:38:45.4     143    -89    -41    169    174 122.0 -13.7  34184  289.99 0854.43
2009/04/23 13:38:45.5     -38    -87    126     96    158 203.6  59.0  34188  290.06 0854.44
2009/04/23 13:38:45.6     -12   -254    109    255    277 182.9  24.6  34180  289.92 0854.44
2009/04/23 13:38:45.7      57   -236    144    243    282 166.4  33.5  34182  289.93 0854.44
2009/04/23 13:38:45.8      83    -74    162    112    196 131.8  62.1  34192  290.11 0854.44
2009/04/23 13:38:45.9      16   -105     94    107    142 171.1  45.9  34188  290.04 0854.44
2009/04/23 13:38:46.0      46   -325     10    329    330 171.9   1.9  34174  289.82 0854.44
2009/04/23 13:38:46.1     -73   -469     89    475    484 188.9  10.7  34182  289.93 0854.44
2009/04/23 13:38:46.2      -5   -502    101    503    514 180.6  11.4  34176  289.84 0854.44
2009/04/23 13:38:46.3     -46   -499    122    502    517 185.3  13.7  34176  289.83 0854.44
2009/04/23 13:38:46.4      28   -610     52    611    614 177.3   4.9  34174  289.80 0854.44
2009/04/23 13:38:46.5     -72   -737    268    741    789 185.6  19.9  34166  289.68 0854.44
2009/04/23 13:38:46.6     112   -808    384    816    901 172.1  27.1  34174  289.81 0854.44
2009/04/23 13:38:46.7    -219   -765    211    796    824 196.0  14.9  34170  289.74 0854.44
2009/04/23 13:38:46.8     -14   -610    -77    611    616 181.4  -7.2  34172  289.79 0854.44
2009/04/23 13:38:46.9      15   -586     97    587    596 178.5   9.4  34172  289.76 0854.44
2009/04/23 13:38:47.0    -183   -601    -53    629    632 196.9  -4.9  34178  289.87 0854.44
2009/04/23 13:38:47.1    -153   -422    -17    449    450 200.0  -2.2  34176  289.85 0854.44
2009/04/23 13:38:47.2       1    -78     46     79     91 179.0  32.9  34164  289.65 0854.44
2009/04/23 13:38:47.3    -109     99    212    148    258 312.2  61.7  34182  289.96 0854.44
2009/04/23 13:38:47.4    -160     78     92    179    201 296.0  29.3  34180  289.92 0854.44
2009/04/23 13:38:47.5      66    -13    106     68    125 101.5  64.6  34176  289.85 0854.43
2009/04/23 13:38:47.6     -79    -13    192     81    208 260.3  76.1  34178  289.89 0854.43
2009/04/23 13:38:47.7    -164   -274    254    320    408 211.0  42.7  34164  289.65 0854.43
2009/04/23 13:38:47.8     -41   -447    410    450    608 185.3  47.0  34168  289.70 0854.43
2009/04/23 13:38:47.9     182   -499    452    532    698 160.0  44.7  34168  289.72 0854.43
2009/04/23 13:38:48.0       8   -325    380    326    500 178.5  55.3  34174  289.80 0854.43
2009/04/23 13:38:48.1      41   -329    228    332    402 172.9  37.7  34164  289.64 0854.43
2009/04/23 13:38:48.2     -37   -399    173    401    436 185.3  24.9  34170  289.73 0854.43
2009/04/23 13:38:48.3    -137   -324    124    352    374 203.0  19.5  34162  289.62 0854.43
2009/04/23 13:38:48.4      22   -299    221    300    372 175.6  39.9  34164  289.64 0854.43
2009/04/23 13:38:48.5      79   -404    506    412    652 168.9  56.9  34166  289.68 0854.43
2009/04/23 13:38:48.6     109   -258    352    281    450 157.2  57.5  34160  289.57 0854.43
2009/04/23 13:38:48.7     326    -73    493    335    596 102.6  62.7  34170  289.75 0854.43
2009/04/23 13:38:48.8     322   -224    478    393    618 124.9  56.4  34170  289.75 0854.43
2009/04/23 13:38:48.9     367   -310    395    481    622 130.2  43.7  34158  289.54 0854.43
2009/04/23 13:38:49.0     193   -304    144    361    388 147.5  23.0  34164  289.65 0854.43
2009/04/23 13:38:49.1      77   -427    290    434    521 169.8  37.0  34168  289.71 0854.43
2009/04/23 13:38:49.2     410   -362    172    548    575 131.5  17.4  34172  289.77 0854.43
2009/04/23 13:38:49.3     500   -675    265    841    882 143.5  17.5  34158  289.55 0854.43
2009/04/23 13:38:49.4     415   -470    241    628    672 138.6  22.1  34160  289.56 0854.43
2009/04/23 13:38:49.5     268   -296    -15    400    401 137.9  -2.2  34170  289.74 0854.41
2009/04/23 13:38:49.6     191   -483     -8    520    521 158.4  -0.9  34154  289.48 0854.41
2009/04/23 13:38:49.7     173   -677    220    699    733 165.6  17.5  34162  289.59 0854.41
2009/04/23 13:38:49.8     171   -631    409    654    771 164.8  35.1  34168  289.72 0854.41
2009/04/23 13:38:49.9      37   -249    364    252    442 171.5  62.2  34160  289.57 0854.41
2009/04/23 13:38:50.0      59   -441    412    445    606 172.3  47.7  34168  289.70 0854.41
2009/04/23 13:38:50.1      49   -640    346    642    729 175.6  30.7  34156  289.52 0854.41
2009/04/23 13:38:50.2     157   -581    347    602    694 164.9  32.6  34172  289.77 0854.41
2009/04/23 13:38:50.3     272   -491    259    562    618 151.0  26.5  34166  289.68 0854.41
2009/04/23 13:38:50.4     219   -402    329    458    563 151.4  39.2  34168  289.72 0854.41
2009/04/23 13:38:50.5      67   -302    414    310    517 167.5  59.6  34174  289.82 0854.41
2009/04/23 13:38:50.6      27   -330    334    332    470 175.3  50.1  34176  289.83 0854.41
2009/04/23 13:38:50.7      57   -305    283    311    420 169.3  47.0  34174  289.81 0854.41
2009/04/23 13:38:50.8      49   -157    240    165    291 162.6  62.6  34178  289.86 0854.41
2009/04/23 13:38:50.9     -35   -172    208    176    272 191.5  55.8  34176  289.85 0854.41
2009/04/23 13:38:51.0      49   -221    192    227    297 167.5  44.5  34178  289.88 0854.41
2009/04/23 13:38:51.1    -113    -15    136    115    178 262.1  55.6  34178  289.89 0854.41
2009/04/23 13:38:51.2     -50    -42    118     66    135 229.6  68.3  34178  289.89 0854.41
2009/04/23 13:38:51.3      60    -12    124     62    138 101.4  71.4  34182  289.94 0854.41
2009/04/23 13:38:51.4      50     -3     79     51     94  94.3  64.6  34178  289.89 0854.41
2009/04/23 13:38:51.5     -76    -73    116    106    157 226.0  52.7  34176  289.85 0854.40
2009/04/23 13:38:51.6    -118     -4    129    119    175 267.9  52.2  34180  289.92 0854.40
2009/04/23 13:38:51.7    -113     93     86    147    170 309.5  33.1  34178  289.87 0854.40
2009/04/23 13:38:51.8     -90     87    112    126    168 314.0  46.4  34180  289.92 0854.40
2009/04/23 13:38:51.9    -229    131     77    264    276 299.8  16.4  34170  289.75 0854.40
2009/04/23 13:38:52.0    -290    154    203    329    386 298.0  34.9  34172  289.76 0854.40
2009/04/23 13:38:52.1    -323    373    246    494    551 319.1  28.4  34170  289.75 0854.40
2009/04/23 13:38:52.2    -450    343    299    566    640 307.3  30.1  34168  289.72 0854.40
2009/04/23 13:38:52.3    -444    276    299    524    603 301.9  32.3  34178  289.86 0854.40
2009/04/23 13:38:52.4    -465    414    345    623    712 311.7  31.4  34176  289.85 0854.40
2009/04/23 13:38:52.5    -436    413    296    601    669 313.5  28.1  34178  289.87 0854.40
2009/04/23 13:38:52.6    -302    -17    199    303    362 266.6  36.4  34178  289.89 0854.40
2009/04/23 13:38:52.7    -186      0    224    187    291 270.1  56.3  34170  289.75 0854.40
2009/04/23 13:38:52.8    -112     76    107    136    173 304.2  42.2  34184  289.97 0854.40
2009/04/23 13:38:52.9    -279      0     11    280    281 270.0   2.3  34168  289.70 0854.40
2009/04/23 13:38:53.0    -388     74     80    396    404 280.9  11.5  34168  289.71 0854.40
2009/04/23 13:38:53.1    -213    254    190    332    382 319.9  32.3  34174  289.81 0854.40
2009/04/23 13:38:53.2      14    431    259    432    503   1.9  33.8  34178  289.88 0854.40
2009/04/23 13:38:53.3     152    349    327    381    502  23.6  45.0  34188  290.05 0854.40
2009/04/23 13:38:53.4     288    176    321    338    466  58.6  48.4  34186  290.00 0854.40
2009/04/23 13:38:53.5     -35     38    197     52    203 317.7  84.9  34194  290.16 0854.41
2009/04/23 13:38:53.6     106     71    335    128    358  55.9  78.3  34186  290.02 0854.41
2009/04/23 13:38:53.7     -60    -13    239     62    246 257.6  85.6  34184  289.97 0854.41
2009/04/23 13:38:53.8     -23    107    143    110    180 347.5  58.7  34194  290.14 0854.41
2009/04/23 13:38:53.9     -18     -7     77     20     79 248.3  85.4  34186  290.01 0854.41
2009/04/23 13:38:54.0    -137   -150    183    204    274 222.3  46.4  34184  289.97 0854.41
2009/04/23 13:38:54.1    -355   -573    346    675    758 211.8  29.2  34166  289.67 0854.41
2009/04/23 13:38:54.2     -89   -477    327    486    585 190.6  37.2  34160  289.58 0854.41
2009/04/23 13:38:54.3     -52   -204    334    211    395 194.5  64.8  34180  289.91 0854.41
2009/04/23 13:38:54.4    -163   -420     40    451    453 201.3   5.2  34168  289.72 0854.41
2009/04/23 13:38:54.5    -221   -485    229    533    580 204.5  24.8  34168  289.72 0854.41
2009/04/23 13:38:54.6    -231   -364    257    432    502 212.4  33.5  34172  289.76 0854.41
2009/04/23 13:38:54.7     -88   -468    235    477    531 190.7  28.2  34166  289.67 0854.41
2009/04/23 13:38:54.8     -39   -462     69    464    470 184.9   8.5  34166  289.69 0854.41
2009/04/23 13:38:54.9     -35   -290     25    293    295 186.9   5.0  34168  289.70 0854.41
2009/04/23 13:38:55.0      85   -191     67    210    221 155.9  17.7  34170  289.74 0854.41
2009/04/23 13:38:55.1     170   -145     -8    224    225 130.4  -2.3  34168  289.72 0854.41
2009/04/23 13:38:55.2     285    -57     14    291    292 101.5   2.9  34174  289.81 0854.41
2009/04/23 13:38:55.3      33   -336     44    338    341 174.3   7.5  34178  289.87 0854.41
2009/04/23 13:38:55.4     -19   -287     15    288    289 183.8   3.1  34174  289.80 0854.41
2009/04/23 13:38:55.5      -1   -231     59    232    240 180.5  14.3  34174  289.81 0854.43
2009/04/23 13:38:55.7     124   -309     47    334    338 158.1   8.0  34162  289.60 0854.43
2009/04/23 13:38:55.7     279   -280    100    396    409 135.1  14.3  34170  289.75 0854.43
2009/04/23 13:38:55.8     164   -198     74    258    269 140.4  16.0  34166  289.66 0854.43
2009/04/23 13:38:55.9     178   -192     -1    262    263 137.2  -0.3  34166  289.68 0854.43
2009/04/23 13:38:56.0     311   -192     34    366    368 121.8   5.3  34158  289.55 0854.43
2009/04/23 13:38:56.2     395    -59    192    400    443  98.5  27.3  34156  289.49 0854.43
2009/04/23 13:38:56.3     259     58    211    266    339  77.2  42.4  34160  289.56 0854.43
2009/04/23 13:38:56.3     162    -28    118    165    202 100.1  39.1  34164  289.63 0854.43
2009/04/23 13:38:56.4     261   -143    206    298    362 118.8  38.0  34166  289.69 0854.43
2009/04/23 13:38:56.6      99    -20    167    102    195 101.5  66.0  34168  289.70 0854.43
2009/04/23 13:38:56.6      47     14    166     50    173  73.2  82.5  34168  289.70 0854.43
2009/04/23 13:38:56.8     291     63    192    298    354  77.6  35.9  34232  290.81 0854.43
2009/04/23 13:38:56.9     227     29     95    229    247  82.5  24.1  34252  291.12 0854.43
2009/04/23 13:38:57.0     -93   -248    206    266    336 200.7  41.7  34194  290.14 0854.43
2009/04/23 13:38:57.1     -91   -379    191    390    434 193.6  28.0  34174  289.80 0854.43
2009/04/23 13:38:57.2    -138   -440    257    462    528 197.4  31.4  34178  289.89 0854.43
2009/04/23 13:38:57.3    -194   -350    319    401    512 209.0  42.6  34178  289.89 0854.43
2009/04/23 13:38:57.4    -260   -349    230    436    492 216.8  30.2  34168  289.71 0854.43
2009/04/23 13:38:57.5       0   -103     45    104    113 179.5  24.6  34168  289.70 0854.43
2009/04/23 13:38:57.6      35     -7    226     36    228 101.5  90.0  34200  290.26 0854.44
2009/04/23 13:38:57.7      87     80    161    119    200  47.3  60.0  34256  291.21 0854.44
2009/04/23 13:38:57.8     257    121   -182    285    338  64.7 -40.0  34218  290.56 0854.44
2009/04/23 13:38:57.9     333    157     48    369    373  64.8   7.4  34238  290.89 0854.44
2009/04/23 13:38:58.0     181     70    -68    195    206  68.9 -24.0  34230  290.75 0854.44
2009/04/23 13:38:58.1      17    -42     65     46     79 157.3  61.5  34228  290.74 0854.44
2009/04/23 13:38:58.2     252     62    293    260    391  76.1  54.0  34234  290.83 0854.44
2009/04/23 13:38:58.3     289     40    366    292    468  82.0  57.5  34220  290.58 0854.44
2009/04/23 13:38:58.4     289    -67    309    297    428 103.2  51.2  34202  290.28 0854.44
2009/04/23 13:38:58.5     356     77    412    365    550  77.7  54.2  34254  291.17 0854.44
2009/04/23 13:38:58.6     405     -2    244    406    473  90.4  34.0  34204  290.31 0854.44
2009/04/23 13:38:58.7     386     23    345    387    518  86.5  46.3  34222  290.64 0854.44
2009/04/23 13:38:58.8     380    -38    263    382    463  95.8  37.7  34258  291.23 0854.44
2009/04/23 13:38:58.9      46    -80    318     93    331 150.1  83.4  34198  290.20 0854.44
2009/04/23 13:38:59.0      55    -23    250     60    257 113.5  86.7  34212  290.45 0854.44
2009/04/23 13:38:59.1     388    191    257    433    503  63.8  33.5  34216  290.52 0854.44
2009/04/23 13:38:59.2     457    111    425    471    634  76.3  46.8  34190  290.08 0854.44
2009/04/23 13:38:59.3     375    229    355    440    565  58.6  43.0  34188  290.04 0854.44
2009/04/23 13:38:59.4     285    209    178    354    396  53.8  28.7  34240  290.93 0854.44
2009/04/23 13:38:59.5      52     50     82     73    109  45.9  53.7  34230  290.77 0854.44
2009/04/23 13:38:59.6     335     34     67    337    344  84.1  11.3  34208  290.38 0854.43
2009/04/23 13:38:59.7     400     81    237    409    472  78.6  32.8  34228  290.73 0854.43
2009/04/23 13:38:59.8     553    157    179    576    604  74.1  17.3  34252  291.12 0854.43
2009/04/23 13:38:59.9     538     70    273    543    607  82.5  28.8  34242  290.95 0854.43
2009/04/23 13:39:00.0     327     17    231    328    401  87.0  38.6  34212  290.47 0854.43
2009/04/23 13:39:00.1     303    272    125    408    427  48.1  17.1  34262  291.31 0854.43
2009/04/23 13:39:00.2     210    154     14    261    262  53.8   3.1  34266  291.38 0854.43
2009/04/23 13:39:00.3     -75    -24    -32     79     85 251.8 -27.4  34244  291.01 0854.43
2009/04/23 13:39:00.4     -17    -87    156     89    179 191.6  68.1  34246  291.04 0854.43
2009/04/23 13:39:00.5     131     26    232    134    267  78.5  67.5  34218  290.55 0854.43
2009/04/23 13:39:00.6     279    -20    305    280    414  94.3  52.7  34218  290.55 0854.43
2009/04/23 13:39:00.7     316    -11    317    317    448  92.1  50.1  34222  290.63 0854.43
2009/04/23 13:39:00.8     499    240    258    554    611  64.3  26.9  34226  290.68 0854.43
2009/04/23 13:39:00.9     487    207    311    530    614  66.9  33.3  34232  290.78 0854.43
2009/04/23 13:39:01.0     280     12    420    281    505  87.4  63.2  34210  290.41 0854.43
2009/04/23 13:39:01.1     616    280    163    677    697  65.5  13.6  34214  290.49 0854.43
2009/04/23 13:39:01.2     319    308    124    444    462  46.0  15.6  34178  289.87 0854.43
2009/04/23 13:39:01.3     428     49    297    431    523  83.4  37.9  34198  290.23 0854.43
2009/04/23 13:39:01.4     715     -4    219    716    749  90.4  17.0  34188  290.06 0854.43
2009/04/23 13:39:01.5     663    114    280    673    728  80.2  23.9  34180  289.91 0854.42
2009/04/23 13:39:01.6     619    307    136    692    706  63.6  11.1  34192  290.13 0854.42
2009/04/23 13:39:01.7     376    309    106    487    499  50.6  12.4  34192  290.10 0854.42
2009/04/23 13:39:01.8     604    167     69    627    631  74.5   6.4  34188  290.06 0854.42
2009/04/23 13:39:01.9     516    173     37    545    547  71.4   3.9  34202  290.30 0854.42
2009/04/23 13:39:02.0     649    120     32    660    661  79.5   2.8  34208  290.38 0854.42
2009/04/23 13:39:02.1     383    139    -64    408    414  70.0  -9.0  34198  290.21 0854.42
2009/04/23 13:39:02.2     411    115     -9    427    428  74.3  -1.3  34190  290.09 0854.42
2009/04/23 13:39:02.3     354    332    171    486    516  46.9  19.4  34192  290.12 0854.42
2009/04/23 13:39:02.4     374    383    280    536    604  44.3  29.8  34182  289.93 0854.42
2009/04/23 13:39:02.5     568    274    334    631    713  64.2  30.1  34182  289.93 0854.42
2009/04/23 13:39:02.6     457    166    289    487    566  70.0  33.5  34200  290.26 0854.42
2009/04/23 13:39:02.7     239    220    179    326    371  47.4  31.3  34202  290.30 0854.42
2009/04/23 13:39:02.8     489    -60    358    493    609  97.1  39.7  34204  290.31 0854.42
2009/04/23 13:39:02.9     453   -134    332    473    577 106.5  38.6  34212  290.45 0854.42
2009/04/23 13:39:03.0     414   -166    288    447    531 111.9  35.7  34212  290.45 0854.42
2009/04/23 13:39:03.1     276   -325    376    427    568 139.6  45.8  34200  290.26 0854.42
2009/04/23 13:39:03.2     442    -81    485    450    661 100.5  52.5  34178  289.88 0854.42
2009/04/23 13:39:03.3     338    -57    339    343    482  99.7  49.8  34178  289.87 0854.42
2009/04/23 13:39:03.4      67    -67    237     95    255 135.0  77.0  34188  290.06 0854.42
2009/04/23 13:39:03.5     -33     40     92     53    106 320.4  67.7  34200  290.25 0854.45
2009/04/23 13:39:03.6     -94     39   -205    102    228 292.6 -76.3  34198  290.21 0854.45
2009/04/23 13:39:03.7     -70    -51   -203     87    220 233.6 -79.9  34168  289.72 0854.45
2009/04/23 13:39:03.8     -31   -413   -112    415    431 184.4 -15.2  34178  289.88 0854.45
2009/04/23 13:39:03.9      64   -579    -35    583    585 173.7  -3.5  34174  289.80 0854.45
2009/04/23 13:39:04.0    -244   -569   -133    620    635 203.2 -12.2  34154  289.48 0854.45
2009/04/23 13:39:04.1    -249   -310     72    398    405 218.8  10.4  34146  289.33 0854.45
2009/04/23 13:39:04.2    -175   -387    239    425    487 204.3  31.9  34158  289.54 0854.45
2009/04/23 13:39:04.3      16   -422    166    423    454 177.8  22.7  34160  289.56 0854.45
2009/04/23 13:39:04.4      -7   -520    346    521    625 180.8  36.7  34156  289.52 0854.45
2009/04/23 13:39:04.5     265   -600    412    657    775 156.2  35.1  34160  289.56 0854.46
2009/04/23 13:39:04.6     162   -239    386    289    482 145.8  59.4  34150  289.41 0854.46
2009/04/23 13:39:04.7     145    -41    340    151    372 105.9  74.8  34148  289.37 0854.46
2009/04/23 13:39:04.8      42   -107    352    116    370 158.6  81.0  34170  289.73 0854.46
2009/04/23 13:39:04.9      95   -372    338    385    512 165.6  45.8  34156  289.50 0854.46
2009/04/23 13:39:05.0      64   -481     86    486    494 172.4  10.1  34142  289.25 0854.46
2009/04/23 13:39:05.1     161   -298   -108    339    355 151.6 -22.6  34154  289.47 0854.46
2009/04/23 13:39:05.2    -292   -161   -332    334    470 241.1 -54.4  34150  289.39 0854.46
2009/04/23 13:39:05.3    -473   -221    -42    523    525 245.0  -4.7  34154  289.46 0854.46
2009/04/23 13:39:05.4    -305     73    228    314    388 283.5  39.7  34150  289.40 0854.46
2009/04/23 13:39:05.5     -61    245    132    253    285 346.0  29.3  34174  289.80 0854.46
2009/04/23 13:39:05.6      72    295    141    304    335  13.8  26.6  34178  289.86 0854.46
2009/04/23 13:39:05.7     279     84    176    292    340  73.2  34.1  34154  289.47 0854.46
2009/04/23 13:39:05.8     285    -60    296    292    415 101.9  50.2  34156  289.50 0854.46
2009/04/23 13:39:05.9     297     31    230    299    377  83.9  41.5  34158  289.55 0854.46
2009/04/23 13:39:06.0     283    207    -53    351    356  53.8  -8.7  34168  289.71 0854.46
2009/04/23 13:39:06.1     228     83    175    243    299  70.0  39.5  34160  289.56 0854.46
2009/04/23 13:39:06.2     223    266    124    348    369  40.0  20.3  34154  289.48 0854.46
2009/04/23 13:39:06.3     133    -84    272    158    314 122.4  67.2  34152  289.44 0854.46
2009/04/23 13:39:06.4     448    -19    309    449    545  92.5  37.8  34150  289.39 0854.46
2009/04/23 13:39:06.5     519    -25    147    520    541  92.8  15.8  34152  289.45 0854.47
2009/04/23 13:39:06.6     446    198     60    489    493  66.0   7.1  34152  289.42 0854.47
2009/04/23 13:39:06.7       0   -108    224    109    249 180.0  72.4  34154  289.46 0854.47
2009/04/23 13:39:06.8     -42   -165    198    171    261 194.3  54.8  34148  289.36 0854.47
2009/04/23 13:39:06.9      46    139     -3    147    148  18.3  -1.3  34148  289.36 0854.47
2009/04/23 13:39:07.0     286    174    166    335    373  58.7  28.2  34152  289.43 0854.47
2009/04/23 13:39:07.1      34     84    187     91    207  22.3  72.4  34162  289.62 0854.47
2009/04/23 13:39:07.2      -3     28    305     29    306 353.8  90.0  34160  289.58 0854.47
2009/04/23 13:39:07.3      -1   -159    288    160    329 180.5  68.5  34152  289.44 0854.47
2009/04/23 13:39:07.4     456    304    134    549    566  56.3  13.8  34154  289.48 0854.47
2009/04/23 13:39:07.5     449     -4    253    450    516  90.6  31.9  34164  289.64 0854.47
2009/04/23 13:39:07.6     322   -156    278    358    453 115.9  41.7  34162  289.61 0854.47
2009/04/23 13:39:07.7      45   -293    201    297    358 171.1  37.4  34150  289.40 0854.47
2009/04/23 13:39:07.8     125   -286     51    313    318 156.4   9.3  34152  289.44 0854.47
2009/04/23 13:39:07.9     174    104   -116    203    233  59.1 -36.8  34160  289.57 0854.47
2009/04/23 13:39:08.0     199    240   -113    312    331  39.6 -25.0  34164  289.64 0854.47
2009/04/23 13:39:08.1     375    207    -87    429    438  61.1 -11.5  34172  289.78 0854.47
2009/04/23 13:39:08.2     523    275      7    592    593  62.2   0.7  34170  289.73 0854.47
2009/04/23 13:39:08.3     115     78    141    140    198  55.9  50.1  34160  289.57 0854.47
2009/04/23 13:39:08.4      75    -45    242     88    257 121.1  79.2  34166  289.69 0854.47
2009/04/23 13:39:08.5      38    -31    223     50    228 129.5  88.2  34170  289.75 0854.47
2009/04/23 13:39:08.6    -211   -199    281    291    404 226.7  49.0  34156  289.52 0854.47
2009/04/23 13:39:08.7     -35    202    183    206    275 350.0  45.9  34164  289.64 0854.47
2009/04/23 13:39:08.8    -367    -99    -83    381    391 254.9 -12.4  34148  289.37 0854.47
2009/04/23 13:39:08.9    -236    -53    -84    243    258 257.2 -19.1  34162  289.61 0854.47
2009/04/23 13:39:09.0      16    -23    109     29    112 145.7  84.9  34150  289.40 0854.47
2009/04/23 13:39:09.1     -41     31    167     52    174 307.8  81.8  34166  289.69 0854.47
2009/04/23 13:39:09.2    -161    -53    101    170    197 251.8  33.5  34162  289.62 0854.47
2009/04/23 13:39:09.3    -243   -243     69    345    352 225.0  11.4  34158  289.54 0854.47
2009/04/23 13:39:09.4      11   -164      9    165    166 176.0   3.3  34158  289.55 0854.47
2009/04/23 13:39:09.5    -178    -45    -62    184    195 255.8 -18.7  34166  289.67 0854.47
2009/04/23 13:39:09.6     -53    -40    -18     67     70 233.1 -15.4  34170  289.74 0854.47
2009/04/23 13:39:09.7      67     25    113     72    133  69.2  64.7  34170  289.74 0854.47
2009/04/23 13:39:09.8     272    -82     29    285    287 106.8   5.9  34152  289.44 0854.47
2009/04/23 13:39:09.9     257    -97    188    275    333 110.8  37.8  34166  289.68 0854.47
2009/04/23 13:39:10.0      27   -102    230    106    253 164.8  73.5  34168  289.72 0854.47
2009/04/23 13:39:10.1     140     11    192    141    238  85.2  60.3  34168  289.72 0854.47
2009/04/23 13:39:10.2     320   -171    208    363    418 118.1  32.4  34162  289.59 0854.47
2009/04/23 13:39:10.3     468   -119     81    483    490 104.3   9.6  34156  289.49 0854.47
2009/04/23 13:39:10.4     363    -27    153    364    394  94.4  24.2  34162  289.59 0854.47
2009/04/23 13:39:10.5     306      0    206    307    369  90.0  37.0  34172  289.76 0854.46
2009/04/23 13:39:10.6     141   -278    233    312    389 153.0  40.2  34168  289.72 0854.46
2009/04/23 13:39:10.7     256    -51    366    262    450 101.4  60.8  34168  289.72 0854.46
2009/04/23 13:39:10.8     189    -94    333    212    394 116.6  64.7  34172  289.77 0854.46
2009/04/23 13:39:10.9      58    -18    226     61    234 107.7  84.8  34160  289.58 0854.46
2009/04/23 13:39:11.0     103     21    214    106    238  78.5  71.9  34168  289.72 0854.46
2009/04/23 13:39:11.1     188   -135     10    232    233 125.9   2.5  34166  289.69 0854.46
2009/04/23 13:39:11.2     176   -136   -136    223    261 127.8 -38.8  34170  289.73 0854.46
2009/04/23 13:39:11.3     141     67   -116    157    195  64.7 -44.3  34170  289.75 0854.46
2009/04/23 13:39:11.4     -41     64   -129     77    150 327.5 -71.1  34168  289.72 0854.46
2009/04/23 13:39:11.5    -103     -1    -53    104    116 269.2 -33.1  34170  289.74 0854.46
2009/04/23 13:39:11.6     -45    -68    -88     82    120 213.8 -56.6  34168  289.70 0854.46
2009/04/23 13:39:11.7     -54     54     75     77    107 315.0  50.0  34174  289.80 0854.46
2009/04/23 13:39:11.8     129    128    133    182    225  45.2  39.7  34166  289.67 0854.46
2009/04/23 13:39:11.9     359    160     62    394    399  65.9   9.0  34174  289.81 0854.46
2009/04/23 13:39:12.0     146     36    315    151    349  75.8  72.8  34172  289.78 0854.46
2009/04/23 13:39:12.1      47    -10    185     49    191 102.4  84.9  34178  289.87 0854.46
2009/04/23 13:39:12.2      28     14    210     32    212  62.9  90.0  34174  289.80 0854.46
2009/04/23 13:39:12.3     -26   -161    277    164    321 189.3  66.8  34180  289.92 0854.46
2009/04/23 13:39:12.4     -25   -122     97    125    158 191.6  41.7  34176  289.85 0854.46
2009/04/23 13:39:12.5     120   -141    211    186    281 139.7  54.2  34178  289.86 0854.48
2009/04/23 13:39:12.6     -70      8    255     71    264 277.0  84.4  34182  289.94 0854.48
2009/04/23 13:39:12.7     155     10    111    156    191  86.1  39.1  34178  289.87 0854.48
2009/04/23 13:39:12.8     -11    153    193    154    246 355.6  57.3  34182  289.96 0854.48
2009/04/23 13:39:12.9    -456    196    188    497    531 293.3  21.7  34184  289.97 0854.48
2009/04/23 13:39:13.0    -410    158    172    440    472 291.1  22.5  34180  289.90 0854.48
2009/04/23 13:39:13.1    -309    156    149    347    377 296.9  24.8  34182  289.94 0854.48
2009/04/23 13:39:13.2    -499    112     93    512    521 282.7  10.4  34178  289.88 0854.48
2009/04/23 13:39:13.3    -706     81    308    711    774 276.6  25.0  34182  289.94 0854.48
2009/04/23 13:39:13.4    -268   -268    126    380    401 225.0  18.4  34178  289.86 0854.48
2009/04/23 13:39:13.5    -309   -290   -166    425    456 226.8 -26.9  34172  289.78 0854.48
2009/04/23 13:39:13.6    -724     -4   -339    725    800 269.6 -31.3  34160  289.57 0854.48
2009/04/23 13:39:13.7    -583   -532   -188    790    813 227.6 -13.4  34142  289.25 0854.48
2009/04/23 13:39:13.8    -877   -628    117   1079   1086 234.4   6.2  34178  289.88 0854.48
2009/04/23 13:39:13.9    -257   -329    207    418    466 218.0  28.2  34160  289.56 0854.48
2009/04/23 13:39:14.0    -361    -74     83    369    379 258.3  12.8  34172  289.76 0854.48
2009/04/23 13:39:14.1    -381    -46    119    384    403 263.0  17.3  34182  289.93 0854.48
2009/04/23 13:39:14.2    -633   -403    -11    751    752 237.5  -0.9  34164  289.65 0854.48
2009/04/23 13:39:14.3    -700     27    -90    701    707 272.2  -7.3  34182  289.96 0854.48
2009/04/23 13:39:14.4    -568     99     11    577    578 279.9   1.1  34196  290.19 0854.48
2009/04/23 13:39:14.5    -832     16   -239    833    866 271.2 -20.8  34184  289.97 0854.47
2009/04/23 13:39:14.6    -757    -35   -259    758    802 267.3 -18.9  34178  289.88 0854.47
2009/04/23 13:39:14.7    -676      9   -314    677    746 270.8 -31.0  34178  289.89 0854.47
2009/04/23 13:39:14.8    -456    -78   -314    463    559 260.3 -41.8  34178  289.87 0854.47
2009/04/23 13:39:14.9    -680     71   -204    684    713 276.0 -21.6  34178  289.86 0854.47
2009/04/23 13:39:15.0    -735    -11   -301    736    795 269.1 -28.0  34178  289.88 0854.47
2009/04/23 13:39:15.1    -682     78   -154    687    705 276.6 -12.7  34180  289.91 0854.47
2009/04/23 13:39:15.2    -366    129     -1    389    390 289.5  -0.3  34186  290.01 0854.47
2009/04/23 13:39:15.3    -213    226    176    311    357 316.7  32.0  34184  289.99 0854.47
2009/04/23 13:39:15.4    -222    287     23    364    365 322.3   3.7  34174  289.82 0854.47
2009/04/23 13:39:15.5     -50    328   -108    332    350 351.2 -18.0  34182  289.96 0854.47
2009/04/23 13:39:15.6     103    340     83    356    366  17.0  13.1  34178  289.87 0854.47
2009/04/23 13:39:15.7     224    301     73    376    384  36.7  11.0  34178  289.89 0854.47
2009/04/23 13:39:15.8     302    220    181    374    415  53.9  27.8  34176  289.83 0854.47
2009/04/23 13:39:15.9     285    134    146    316    348  64.8  26.9  34180  289.91 0854.47
2009/04/23 13:39:16.0     194     55     76    202    215  74.1  21.7  34180  289.91 0854.47
2009/04/23 13:39:16.1    -188   -115    147    221    265 238.5  36.5  34182  289.93 0854.47
2009/04/23 13:39:16.2    -220   -156    127    270    298 234.7  27.1  34178  289.88 0854.47
2009/04/23 13:39:16.3    -398   -217     11    454    455 241.4   1.5  34178  289.88 0854.47
2009/04/23 13:39:16.4    -550   -167     23    576    577 253.1   2.3  34182  289.95 0854.47
2009/04/23 13:39:16.5    -576   -455    180    735    757 231.7  13.8  34180  289.90 0854.46
2009/04/23 13:39:16.6    -437   -651    271    785    831 213.9  19.1  34180  289.91 0854.46
2009/04/23 13:39:16.7    -364   -557     14    666    667 213.2   1.2  34150  289.39 0854.46
2009/04/23 13:39:16.8    -429   -264     70    504    510 238.4   8.0  34182  289.95 0854.46
2009/04/23 13:39:16.9    -385   -226    -90    447    456 239.6 -11.5  34186  290.02 0854.46
2009/04/23 13:39:17.0    -120   -429   -356    446    570 195.7 -47.1  34186  290.01 0854.46
2009/04/23 13:39:17.1    -310   -331    361    454    580 223.1  42.7  34182  289.94 0854.46
2009/04/23 13:39:17.2     -91   -459    312    468    562 191.2  36.9  34198  290.23 0854.46
2009/04/23 13:39:17.3     151   -383    406    412    578 158.5  49.7  34182  289.94 0854.46
2009/04/23 13:39:17.4     119   -325    286    347    449 159.8  43.7  34186  290.00 0854.46
2009/04/23 13:39:17.5     -44   -635    265    637    689 184.0  23.9  34172  289.77 0854.46
2009/04/23 13:39:17.6     137   -545    312    563    643 165.8  31.4  34174  289.81 0854.46
2009/04/23 13:39:17.7      -8   -513    294    514    592 181.0  32.4  34172  289.79 0854.46
2009/04/23 13:39:17.8       0   -452    402    453    605 179.9  46.1  34176  289.85 0854.46
2009/04/23 13:39:17.9    -161   -621    157    642    662 194.6  13.8  34178  289.87 0854.46
2009/04/23 13:39:18.0      95   -472    112    482    495 168.5  13.1  34172  289.76 0854.46
2009/04/23 13:39:18.1    -160   -564    115    587    599 195.9  11.1  34170  289.73 0854.46
2009/04/23 13:39:18.2    -463   -463     49    656    658 225.0   4.3  34164  289.63 0854.46
2009/04/23 13:39:18.3    -387   -165    -53    421    425 246.9  -7.2  34172  289.78 0854.46
2009/04/23 13:39:18.4    -585    -97   -152    594    614 260.6 -14.4  34162  289.59 0854.46
2009/04/23 13:39:18.5    -297     81    261    308    403 285.3  44.5  34184  289.98 0854.44
2009/04/23 13:39:18.6     -76    -47    162     90    185 238.0  68.8  34180  289.92 0854.44
2009/04/23 13:39:18.7     -59   -211    181    220    284 195.6  43.7  34180  289.90 0854.44
2009/04/23 13:39:18.8      43   -204    107    209    234 168.0  29.3  34172  289.77 0854.44
2009/04/23 13:39:18.9      87   -184     56    204    212 154.7  15.6  34170  289.75 0854.44
2009/04/23 13:39:19.0      57   -164      0    174    175 160.6  -0.3  34176  289.85 0854.44
2009/04/23 13:39:19.1       4    -51     15     52     55 175.5  16.3  34172  289.79 0854.44
2009/04/23 13:39:19.2       5    -42     67     43     79 172.0  64.1  34178  289.87 0854.44
2009/04/23 13:39:19.3      28    -26    132     39    137 133.1  83.3  34180  289.92 0854.44
2009/04/23 13:39:19.4     -21   -322    248    323    407 183.8  41.4  34174  289.81 0854.44
2009/04/23 13:39:19.5    -289   -552    116    624    635 207.6  10.6  34178  289.87 0854.44
2009/04/23 13:39:19.6    -157   -624    255    644    692 194.2  22.9  34172  289.77 0854.44
2009/04/23 13:39:19.7     -64   -746    325    749    816 185.0  25.0  34176  289.83 0854.44
2009/04/23 13:39:19.8     -52   -749    196    751    777 184.0  14.7  34174  289.82 0854.44
2009/04/23 13:39:19.9     -51   -849    102    851    858 183.5   6.9  34172  289.78 0854.44
2009/04/23 13:39:20.0    -197   -776    163    801    818 194.3  11.6  34148  289.38 0854.44
2009/04/23 13:39:20.1    -423   -764    304    874    925 209.0  20.0  34174  289.82 0854.44
2009/04/23 13:39:20.2    -242   -531    294    584    653 204.5  28.7  34180  289.92 0854.44
2009/04/23 13:39:20.3     237   -286    322    372    492 140.4  45.4  34176  289.85 0854.44
2009/04/23 13:39:20.4     -49   -161    271    169    319 196.9  65.0  34188  290.05 0854.44
2009/04/23 13:39:20.5     -13   -354    356    355    502 182.2  50.0  34170  289.73 0854.44
2009/04/23 13:39:20.6     113   -315    205    335    392 160.2  34.4  34174  289.81 0854.44
2009/04/23 13:39:20.7      61   -252     11    260    261 166.4   2.5  34174  289.80 0854.44
2009/04/23 13:39:20.8       0   -159    -68    160    173 180.0 -28.7  34176  289.84 0854.44
2009/04/23 13:39:20.9     -50    -32    -32     60     68 237.6 -35.7  34176  289.85 0854.44
2009/04/23 13:39:21.0    -162    247   -100    296    312 326.6 -23.7  34172  289.78 0854.44
2009/04/23 13:39:21.1     -39    383    -53    386    390 354.1  -7.9  34174  289.81 0854.44
2009/04/23 13:39:21.2     -17    217    133    218    255 355.5  34.2  34178  289.88 0854.44
2009/04/23 13:39:21.3     -50     45     87     68    110 312.2  57.9  34182  289.96 0854.44
2009/04/23 13:39:21.4     -43    -33     79     55     96 232.2  62.1  34186  290.02 0854.44
2009/04/23 13:39:21.5     -25    -91     77     95    122 195.6  43.7  34182  289.96 0854.44
2009/04/23 13:39:21.6    -180   -376    -48    418    421 205.6  -6.6  34180  289.92 0854.44
2009/04/23 13:39:21.7    -180   -233    -64    295    303 217.8 -12.4  34166  289.68 0854.44
2009/04/23 13:39:21.8    -179     65     72    191    204 290.2  21.3  34178  289.87 0854.44
2009/04/23 13:39:21.9    -315    103     44    332    335 288.1   7.6  34182  289.96 0854.44
2009/04/23 13:39:22.0    -241     61      2    249    250 284.4   0.5  34176  289.85 0854.44
2009/04/23 13:39:22.1    -299    -22    189    300    354 265.6  35.2  34162  289.62 0854.44
2009/04/23 13:39:22.2    -503     -6    256    504    565 269.3  29.1  34188  290.04 0854.44
2009/04/23 13:39:22.3    -452    -99    -26    463    464 257.6  -3.3  34160  289.58 0854.44
2009/04/23 13:39:22.5    -462    -41   -181    464    498 264.9 -26.8  34178  289.86 0854.44
2009/04/23 13:39:22.6    -462   -319     32    562    563 235.4   3.3  34184  289.97 0854.47
2009/04/23 13:39:22.7    -399   -122     34    418    420 252.9   4.7  34172  289.78 0854.47
2009/04/23 13:39:22.8    -141    -91     64    169    180 237.1  21.5  34184  289.97 0854.47
2009/04/23 13:39:22.9    -198   -169     97    261    278 229.6  21.0  34190  290.09 0854.47
2009/04/23 13:39:22.9    -236   -287    203    372    423 219.5  31.3  34184  289.99 0854.47
2009/04/23 13:39:23.1    -346   -378   -181    513    543 222.4 -24.5  34176  289.84 0854.47
2009/04/23 13:39:23.2    -353   -457   -160    578    600 217.8 -15.5  34178  289.86 0854.47
2009/04/23 13:39:23.3    -203   -464    -65    507    512 203.7  -7.3  34174  289.81 0854.47
2009/04/23 13:39:23.4    -412   -370   -137    555    572 228.1 -13.9  34174  289.82 0854.47
2009/04/23 13:39:23.5    -324   -190    -52    376    380 239.6  -8.0  34176  289.84 0854.47
2009/04/23 13:39:23.6    -445    -90    -58    454    458 258.5  -7.3  34184  289.99 0854.47
2009/04/23 13:39:23.7    -698   -110   -166    707    727 261.0 -13.3  34180  289.91 0854.47
2009/04/23 13:39:23.8    -467   -412   -148    624    642 228.6 -13.4  34184  289.98 0854.47
2009/04/23 13:39:23.9    -703   -431    129    825    836 238.5   8.9  34182  289.94 0854.47
2009/04/23 13:39:24.0    -434   -325     74    543    548 233.1   7.8  34178  289.87 0854.47
2009/04/23 13:39:24.1    -663    -45     76    665    670 266.1   6.6  34180  289.92 0854.47
2009/04/23 13:39:24.2    -308   -468    -50    561    564 213.4  -5.2  34182  289.94 0854.47
2009/04/23 13:39:24.3    -317   -294   -154    433    460 227.2 -19.7  34186  290.00 0854.47
2009/04/23 13:39:24.4      25   -410   -145    411    435 176.4 -24.6  34172  289.77 0854.47
2009/04/23 13:39:24.5    -101   -407    -16    420    421 194.0  -2.2  34176  289.85 0854.47
2009/04/23 13:39:24.6    -177   -472    -22    505    506 200.6  -2.5  34182  289.96 0854.50
2009/04/23 13:39:24.7    -184   -551   -161    582    603 198.5 -20.1  34182  289.95 0854.50
2009/04/23 13:39:24.8    -140   -823     72    835    839 189.7   5.0  34172  289.78 0854.50
2009/04/23 13:39:24.9    -319   -643    108    718    727 206.4   8.6  34170  289.74 0854.50
2009/04/23 13:39:25.0    -410   -646      6    765    766 212.4   0.5  34176  289.85 0854.50
2009/04/23 13:39:25.1    -339   -479   -179    587    613 215.3 -21.8  34178  289.86 0854.50
2009/04/23 13:39:25.2    -401   -427    -12    587    588 223.2  -1.3  34164  289.63 0854.50
2009/04/23 13:39:25.3    -424   -202     40    470    472 244.5   4.9  34178  289.89 0854.50
2009/04/23 13:39:25.4    -505   -332     62    605    609 236.7   5.9  34180  289.90 0854.50
2009/04/23 13:39:25.5    -503   -316   -217    594    632 237.9 -25.4  34182  289.94 0854.50
2009/04/23 13:39:25.6    -394    -92   -114    405    421 256.8 -15.8  34184  289.97 0854.51
2009/04/23 13:39:25.7    -365    -34    103    367    382 264.5  15.7  34182  289.93 0854.51
2009/04/23 13:39:25.8    -313    209    148    377    405 303.7  22.5  34178  289.86 0854.51
2009/04/23 13:39:25.9    -140   -270    194    305    361 207.4  35.5  34182  289.96 0854.51
2009/04/23 13:39:26.0     -47   -166    271    173    321 195.8  64.6  34176  289.83 0854.51
2009/04/23 13:39:26.1    -340   -133    114    366    384 248.6  17.4  34172  289.77 0854.51
2009/04/23 13:39:26.2    -375   -208    112    430    445 241.0  14.6  34176  289.83 0854.51
2009/04/23 13:39:26.3    -891   -334   -237    952    982 249.4 -14.0  34170  289.75 0854.51
2009/04/23 13:39:26.4    -514   -620    210    806    833 219.7  14.6  34168  289.72 0854.51
2009/04/23 13:39:26.5      44   -742     64    744    747 176.6   5.0  34172  289.79 0854.51
2009/04/23 13:39:26.6     207   -676    180    708    731 162.9  14.3  34166  289.67 0854.51
2009/04/23 13:39:26.7     -79   -768    -65    773    777 185.9  -4.9  34180  289.90 0854.51
2009/04/23 13:39:26.8     168  -1078    208   1092   1112 171.1  10.8  34174  289.80 0854.51
2009/04/23 13:39:26.9     143   -708    244    723    764 168.6  18.7  34160  289.58 0854.51
2009/04/23 13:39:27.0     -32   -658    247    659    703 182.8  21.6  34176  289.83 0854.51
2009/04/23 13:39:27.1    -119   -765    345    775    848 188.9  25.7  34180  289.92 0854.51
2009/04/23 13:39:27.2    -144   -879    378    891    967 189.3  24.4  34178  289.86 0854.51
2009/04/23 13:39:27.3    -235   -728    180    766    787 197.9  13.3  34178  289.88 0854.51
2009/04/23 13:39:27.4    -192   -632    266    661    712 197.0  23.1  34178  289.88 0854.51
2009/04/23 13:39:27.5     -83   -731    407    736    841 186.5  31.4  34178  289.86 0854.51
2009/04/23 13:39:27.6    -172   -630    397    654    765 195.3  34.1  34178  289.88 0854.53
2009/04/23 13:39:27.7    -144   -538    408    558    691 195.1  39.7  34174  289.82 0854.53
2009/04/23 13:39:27.8    -592   -429    172    732    752 234.0  13.2  34178  289.89 0854.53
2009/04/23 13:39:27.9    -324   -237    178    402    439 233.8  25.3  34180  289.90 0854.53
2009/04/23 13:39:28.0    -275    -84    148    288    323 252.9  29.3  34182  289.95 0854.53
2009/04/23 13:39:28.1    -217   -247    206    329    388 221.3  35.3  34182  289.93 0854.53
2009/04/23 13:39:28.2    -609   -163   -115    631    642 255.0 -10.4  34162  289.60 0854.53
2009/04/23 13:39:28.3       9   -284    242    285    373 178.0  44.5  34168  289.71 0854.53
2009/04/23 13:39:28.4    -360   -453    118    579    592 218.5  11.6  34184  289.97 0854.53
2009/04/23 13:39:28.5    -246   -507    280    564    629 205.9  28.5  34174  289.81 0854.53
2009/04/23 13:39:28.6    -536   -646    119    840    849 219.7   8.1  34164  289.65 0854.53
2009/04/23 13:39:28.7    -785   -288   -255    837    876 249.8 -17.0  34178  289.88 0854.53
2009/04/23 13:39:28.8    -705   -332    -69    780    784 244.8  -5.1  34178  289.86 0854.53
2009/04/23 13:39:28.9   -1065   -271   -176   1100   1115 255.7  -9.1  34184  289.99 0854.53
2009/04/23 13:39:29.0    -536   -672    496    860    992 218.6  32.6  34176  289.85 0854.53
2009/04/23 13:39:29.1    -250   -728    282    770    820 199.0  21.0  34174  289.82 0854.53
2009/04/23 13:39:29.2    -232   -646    -99    687    695 199.8  -8.3  34178  289.87 0854.53
2009/04/23 13:39:29.3    -251   -479     -8    541    542 207.7  -0.9  34168  289.72 0854.53
2009/04/23 13:39:29.4    -322   -306    -13    445    446 226.4  -1.7  34176  289.83 0854.53
2009/04/23 13:39:29.5    -125   -343     85    366    376 200.1  13.1  34184  289.98 0854.54
2009/04/23 13:39:29.6    -224   -445      7    499    500 206.7   0.9  34186  290.00 0854.54
2009/04/23 13:39:29.7    -180   -339    -49    384    388 208.0  -7.3  34188  290.03 0854.54
2009/04/23 13:39:29.8     131   -219    -72    256    267 149.2 -15.8  34178  289.88 0854.54
2009/04/23 13:39:29.9     -25   -183    145    185    235 188.0  42.2  34186  290.01 0854.54
2009/04/23 13:39:30.0      11    -58     33     60     68 168.5  31.4  34188  290.04 0854.54
2009/04/23 13:39:30.1      91   -232     21    250    251 158.4   5.0  34184  289.98 0854.54
2009/04/23 13:39:30.2      75   -277    -41    288    292 164.9  -8.3  34176  289.85 0854.54
2009/04/23 13:39:30.3      79   -423   -127    431    450 169.4 -16.4  34182  289.95 0854.54
2009/04/23 13:39:30.4     329   -339   -133    473    492 135.9 -15.7  34164  289.64 0854.54
2009/04/23 13:39:30.5     508   -260    154    571    592 117.1  15.1  34182  289.95 0854.54
2009/04/23 13:39:30.6     315   -111    140    335    363 109.4  23.9  34172  289.79 0854.54
2009/04/23 13:39:30.7     355   -108    131    372    394 107.0  20.2  34182  289.93 0854.54
2009/04/23 13:39:30.8     329    -65    173    336    377 101.2  29.3  34182  289.94 0854.54
2009/04/23 13:39:30.9     381   -125    296    402    499 108.2  40.1  34182  289.95 0854.54
2009/04/23 13:39:31.0     264    -23    189    266    326  95.0  38.8  34186  290.02 0854.54
2009/04/23 13:39:31.1     249     -8    266    250    365  91.9  52.1  34182  289.93 0854.54
2009/04/23 13:39:31.2     213   -101    242    236    338 115.4  50.8  34188  290.05 0854.54
2009/04/23 13:39:31.3     -98    -99    229    140    268 224.9  65.7  34188  290.03 0854.54
2009/04/23 13:39:31.4      88      1    150     89    174  89.2  66.4  34182  289.96 0854.54
2009/04/23 13:39:31.5      -1   -364    264    365    450 180.2  39.5  34174  289.80 0854.50
2009/04/23 13:39:31.6     -51   -425    244    429    493 186.9  32.1  34182  289.96 0854.50
2009/04/23 13:39:31.7     139   -225    166    265    312 148.3  35.0  34180  289.90 0854.50
2009/04/23 13:39:31.8    -207   -518    138    559    576 201.8  13.9  34186  290.00 0854.50
2009/04/23 13:39:31.9    -219   -382    120    441    458 209.9  15.3  34182  289.94 0854.50
2009/04/23 13:39:32.0    -115   -302     28    324    326 200.9   5.1  34184  289.98 0854.50
2009/04/23 13:39:32.1     -43   -307     71    311    320 188.1  12.9  34184  289.98 0854.50
2009/04/23 13:39:32.2     -15   -422     92    423    433 182.1  12.3  34184  289.99 0854.50
2009/04/23 13:39:32.3    -102   -502     16    513    514 191.6   1.8  34184  289.98 0854.50
2009/04/23 13:39:32.4    -137   -371    -25    396    397 200.3  -3.7  34182  289.96 0854.50
2009/04/23 13:39:32.5      12   -275    -25    276    278 177.4  -5.2  34188  290.03 0854.50
2009/04/23 13:39:32.6      32   -182    -57    185    193 170.0 -22.5  34186  290.01 0854.50
2009/04/23 13:39:32.7      44   -287    -57    291    297 171.1 -11.1  34188  290.03 0854.50
2009/04/23 13:39:32.8      30   -276     44    278    282 173.7   9.0  34186  290.00 0854.50
2009/04/23 13:39:32.9     182   -150    111    237    261 129.5  27.1  34188  290.05 0854.50
2009/04/23 13:39:33.0     153   -200      7    253    254 142.6   1.6  34186  290.02 0854.50
2009/04/23 13:39:33.1      74   -275      1    285    286 164.9   0.2  34186  290.00 0854.50
2009/04/23 13:39:33.2      80   -344    -24    354    355 166.9  -4.0  34184  289.99 0854.50
2009/04/23 13:39:33.3      77   -425     26    432    433 169.7   3.5  34186  290.02 0854.50
2009/04/23 13:39:33.4      15   -496    -54    497    500 178.2  -6.2  34186  290.00 0854.50
2009/04/23 13:39:33.5      -9   -391   -138    392    416 181.4 -19.5  34186  290.00 0854.51
2009/04/23 13:39:33.6      81   -409    -75    417    424 168.8 -10.3  34182  289.95 0854.51
2009/04/23 13:39:33.7     108   -429    -88    443    452 165.8 -11.3  34184  289.99 0854.51
2009/04/23 13:39:33.8      42   -423    -87    426    436 174.3 -11.6  34190  290.07 0854.51
2009/04/23 13:39:33.9      57   -528    -20    532    533 173.8  -2.2  34178  289.89 0854.51
2009/04/23 13:39:34.0     101   -421    -71    434    440 166.4  -9.3  34184  289.99 0854.51
2009/04/23 13:39:34.1       0   -433     21    434    435 180.0   2.8  34184  289.97 0854.51
2009/04/23 13:39:34.2      23   -339     60    340    346 176.0  10.0  34188  290.04 0854.51
2009/04/23 13:39:34.3       4   -258     13    259    260 179.1   2.9  34186  290.00 0854.51
2009/04/23 13:39:34.4     -30   -311     26    313    315 185.6   4.9  34190  290.07 0854.51
2009/04/23 13:39:34.5       3   -205     33    206    209 179.1   9.3  34186  290.01 0854.51
2009/04/23 13:39:34.6      60   -150     39    162    167 158.2  13.5  34186  290.01 0854.51
2009/04/23 13:39:34.7      30   -149     -3    153    154 168.4  -1.2  34184  289.99 0854.51
2009/04/23 13:39:34.8      -8   -114     25    115    118 184.4  12.6  34188  290.04 0854.51
2009/04/23 13:39:34.9     -28   -157     -5    160    161 190.2  -1.8  34186  290.02 0854.51
2009/04/23 13:39:35.0     -67   -156     18    170    171 203.4   6.1  34186  290.02 0854.51
2009/04/23 13:39:35.1      23    -89     54     93    107 165.3  32.9  34188  290.06 0854.51
2009/04/23 13:39:35.2      96   -137     81    168    186 144.8  27.3  34184  289.99 0854.51
2009/04/23 13:39:35.3      32   -244     82    247    261 172.4  18.5  34186  290.00 0854.51
2009/04/23 13:39:35.4      39   -249     37    253    256 171.1   8.5  34186  290.02 0854.51
2009/04/23 13:39:35.5      42   -224     -4    228    229 169.3  -1.1  34186  290.01 0854.51
2009/04/23 13:39:35.6      14   -185    -19    186    188 175.5  -6.0  34184  289.97 0854.51
2009/04/23 13:39:35.7     179   -121    -46    217    223 124.2 -12.2  34184  289.99 0854.51
2009/04/23 13:39:35.8     225   -182     62    290    297 128.9  12.2  34182  289.95 0854.51
2009/04/23 13:39:35.9     235   -175     49    294    299 126.8   9.5  34182  289.95 0854.51
2009/04/23 13:39:36.0     187   -124     92    225    243 123.5  23.4  34182  289.93 0854.51
2009/04/23 13:39:36.1     207   -111    112    236    261 118.2  27.2  34186  290.00 0854.51
2009/04/23 13:39:36.2     219   -113     87    247    262 117.3  19.4  34184  289.98 0854.51
2009/04/23 13:39:36.3     158    -66     80    172    189 112.6  27.1  34182  289.94 0854.51
2009/04/23 13:39:36.4     144    -37    119    149    190 104.6  43.3  34186  290.01 0854.51
2009/04/23 13:39:36.5     136      3     75    137    156  88.7  31.0  34186  290.01 0854.51
2009/04/23 13:39:36.6     127    -30     64    131    145 103.3  27.3  34186  290.01 0854.51
2009/04/23 13:39:36.7     144      9     57    145    155  86.1  22.5  34184  289.99 0854.51
2009/04/23 13:39:36.8     123     21     39    125    132  80.3  17.4  34186  290.01 0854.51
2009/04/23 13:39:36.9     155      0     50    156    164  90.0  17.9  34190  290.09 0854.51
2009/04/23 13:39:37.0     139     11      2    140    141  85.2   0.8  34218  290.55 0854.51
2009/04/23 13:39:37.1     109     -2     -6    110    111  91.3  -3.1  34210  290.41 0854.51
2009/04/23 13:39:37.2      53    -31     -6     62     63 120.7  -6.2  34200  290.26 0854.51
2009/04/23 13:39:37.3      -6    -45     -9     46     47 188.0 -11.3  34194  290.14 0854.51
2009/04/23 13:39:37.4     -19    -72     26     75     80 195.1  19.4  34188  290.06 0854.51
2009/04/23 13:39:37.5    -124    -22    -81    126    149 259.9 -40.0  34190  290.08 0854.54
2009/04/23 13:39:37.6       0      4   -123      5    123 350.3 -90.0  34192  290.13 0854.54
2009/04/23 13:39:37.7      28     59    -57     66     87  25.4 -50.2  34192  290.13 0854.54
2009/04/23 13:39:37.8      72     94    -28    119    123  37.8 -13.3  34188  290.04 0854.54
2009/04/23 13:39:37.9     105     75     98    130    162  54.5  40.7  34188  290.04 0854.54
2009/04/23 13:39:38.0      71     69     90    100    134  46.0  46.9  34194  290.14 0854.54
2009/04/23 13:39:38.1      -4     37     66     38     76 353.8  66.8  34190  290.09 0854.54
2009/04/23 13:39:38.2     -57    -48     54     75     92 229.6  39.7  34188  290.04 0854.54
2009/04/23 13:39:38.3     -67    -85     74    109    131 218.3  37.4  34188  290.04 0854.54
2009/04/23 13:39:38.4      32    -55    113     64    129 149.3  68.3  34190  290.09 0854.54
2009/04/23 13:39:38.5     -27    -62    126     68    143 203.6  68.9  34190  290.09 0854.54
2009/04/23 13:39:38.6    -127   -147    140    195    240 221.0  39.3  34188  290.04 0854.54
2009/04/23 13:39:38.7     -35   -310     20    313    314 186.5   3.8  34184  289.97 0854.54
2009/04/23 13:39:38.8     -22   -182     74    184    198 187.1  23.0  34186  290.01 0854.54
2009/04/23 13:39:38.9     -64   -183    110    195    223 199.4  31.9  34186  290.01 0854.54
2009/04/23 13:39:39.0     -54   -147     99    157    185 200.5  35.5  34190  290.08 0854.54
2009/04/23 13:39:39.1     -16   -117    161    119    200 188.0  60.0  34186  290.02 0854.54
2009/04/23 13:39:39.2     -86   -162    222    184    288 207.9  56.3  34186  290.02 0854.54
2009/04/23 13:39:39.3     -70   -114    154    134    204 211.6  54.3  34184  289.99 0854.54
2009/04/23 13:39:39.4      38   -125    163    131    209 163.0  56.9  34186  290.02 0854.54
2009/04/23 13:39:39.5     126   -163    154    207    258 142.4  40.4  34188  290.05 0854.52
2009/04/23 13:39:39.6      76   -300    131    310    336 165.7  24.2  34182  289.95 0854.52
2009/04/23 13:39:39.7      33   -189    175    192    259 170.0  47.1  34188  290.05 0854.52
2009/04/23 13:39:39.8     -50   -252    202    258    327 191.3  42.1  34188  290.05 0854.52
2009/04/23 13:39:39.9     -11   -149    205    150    254 184.5  60.5  34186  290.01 0854.52
2009/04/23 13:39:40.0     -50   -282    234    287    370 190.2  43.6  34188  290.03 0854.52
2009/04/23 13:39:40.1     -37   -254    269    257    372 188.5  51.6  34190  290.08 0854.52
2009/04/23 13:39:40.2       4   -260    174    261    313 179.1  36.9  34184  289.98 0854.52
2009/04/23 13:39:40.3      -8   -206    192    207    282 182.2  47.9  34188  290.05 0854.52
2009/04/23 13:39:40.4     -49   -241    252    247    352 191.6  50.7  34188  290.05 0854.52
2009/04/23 13:39:40.5    -119    -24    218    122    249 258.5  68.5  34186  290.02 0854.52
2009/04/23 13:39:40.6     -60    -12    101     62    118 258.5  65.7  34192  290.11 0854.52
2009/04/23 13:39:40.7     -14    -54    -21     56     59 195.1 -25.4  34190  290.08 0854.52
2009/04/23 13:39:40.8     -74   -111    -24    134    137 213.8 -10.3  34186  290.02 0854.52
2009/04/23 13:39:40.9    -185    -97    -16    210    211 242.2  -4.4  34186  290.02 0854.52
2009/04/23 13:39:41.0    -145    -68     -6    161    162 244.8  -2.2  34192  290.13 0854.52
2009/04/23 13:39:41.1    -151     27    -50    154    161 280.1 -23.3  34192  290.11 0854.52
2009/04/23 13:39:41.2    -127     49      6    137    138 291.3   2.9  34192  290.13 0854.52
2009/04/23 13:39:41.3    -127     84     73    153    169 303.7  27.3  34188  290.04 0854.52
2009/04/23 13:39:41.4    -172    113     96    206    227 303.3  27.1  34194  290.14 0854.52
2009/04/23 13:39:41.5    -149    116     20    190    192 308.0   6.1  34198  290.21 0854.49
2009/04/23 13:39:41.6     -73    181     82    196    212 338.1  24.1  34202  290.30 0854.49
2009/04/23 13:39:41.7      33    232     99    235    255   8.1  24.2  34222  290.61 0854.49
2009/04/23 13:39:41.8      36    183     82    187    204  11.3  25.1  34242  290.96 0854.49
2009/04/23 13:39:41.9      35     62     38     72     81  29.9  30.3  34244  291.01 0854.49
2009/04/23 13:39:42.0      79    121    -23    145    147  33.4  -9.3  34246  291.04 0854.49
2009/04/23 13:39:42.1     167     72    -31    182    185  66.7  -9.8  34286  291.72 0854.49
2009/04/23 13:39:42.2      49    190      5    197    198  14.7   1.6  34298  291.93 0854.49
2009/04/23 13:39:42.3     -35    160    -21    164    166 347.5  -7.3  34236  290.87 0854.49
2009/04/23 13:39:42.4      29    110     43    114    121  15.2  21.0  34274  291.52 0854.49
2009/04/23 13:39:42.5      48     86     -2     99    100  29.0  -1.3  34268  291.42 0854.49
2009/04/23 13:39:42.6      26    130    -12    133    134  11.5  -5.2  34286  291.71 0854.49
2009/04/23 13:39:42.7      67    147    -23    162    164  24.5  -8.2  34244  291.01 0854.49
2009/04/23 13:39:42.8      32    209     33    212    215   8.7   9.0  34226  290.69 0854.49
2009/04/23 13:39:42.9      27    172     35    175    179   8.9  11.4  34216  290.53 0854.49
2009/04/23 13:39:43.0      40    135     -7    141    142  16.5  -3.1  34224  290.67 0854.49
2009/04/23 13:39:43.1      66    110    -65    129    144  31.2 -33.6  34230  290.75 0854.49
2009/04/23 13:39:43.2     170     49    -36    178    182  73.8 -11.6  34228  290.72 0854.49
2009/04/23 13:39:43.3     110    -15    148    112    185  98.0  59.0  34232  290.81 0854.49
2009/04/23 13:39:43.4     212     63    196    222    296  73.4  45.9  34250  291.09 0854.49
2009/04/23 13:39:43.5     197     64    159    208    261  71.8  41.2  34260  291.27 0854.46
2009/04/23 13:39:43.6     247     90     53    264    270  70.0  11.4  34248  291.07 0854.46
2009/04/23 13:39:43.7     178     49    118    185    219  74.5  35.5  34218  290.55 0854.46
2009/04/23 13:39:43.8     153     41    224    159    274  74.9  61.1  34200  290.26 0854.46
2009/04/23 13:39:43.9      34    -49    135     60    147 144.8  74.9  34214  290.48 0854.46
2009/04/23 13:39:44.0     106   -106    156    151    217 135.0  51.2  34212  290.45 0854.46
2009/04/23 13:39:44.1      40   -227    162    231    282 170.0  38.5  34212  290.44 0854.46
2009/04/23 13:39:44.2      83   -286    184    298    350 163.7  35.0  34202  290.30 0854.46
2009/04/23 13:39:44.3      43   -282    123    286    311 171.3  24.9  34184  289.97 0854.46
2009/04/23 13:39:44.4      41   -216    137    221    260 169.1  34.8  34190  290.09 0854.46
2009/04/23 13:39:44.5      18   -252    133    253    285 175.8  30.1  34194  290.14 0854.46
2009/04/23 13:39:44.6      29   -237     28    239    241 172.9   6.7  34224  290.66 0854.46
2009/04/23 13:39:44.7      22   -206     -7    208    209 173.8  -2.1  34234  290.82 0854.46
2009/04/23 13:39:44.8      51   -215     21    222    224 166.6   5.4  34210  290.41 0854.46
2009/04/23 13:39:44.9      16   -208     41    209    214 175.5  11.1  34196  290.19 0854.46
2009/04/23 13:39:45.0     101   -172    155    200    253 149.5  41.7  34192  290.10 0854.46
2009/04/23 13:39:45.1      79   -250    224    263    345 162.4  44.7  34188  290.05 0854.46
2009/04/23 13:39:45.2    -109   -282    314    303    436 201.2  51.2  34192  290.13 0854.46
2009/04/23 13:39:45.3     -76   -353    206    362    416 192.3  32.3  34184  289.99 0854.46
2009/04/23 13:39:45.4     -18   -393    152    394    422 182.7  22.3  34186  290.00 0854.46
2009/04/23 13:39:45.5     -57   -422    179    426    462 187.8  24.1  34190  290.07 0854.45
2009/04/23 13:39:45.6     -57   -395    177    400    437 188.3  25.2  34190  290.09 0854.45
2009/04/23 13:39:45.7     -66   -608    235    612    655 186.3  22.2  34182  289.96 0854.45
2009/04/23 13:39:45.8      44   -492    102    495    506 174.8  11.7  34188  290.05 0854.45
2009/04/23 13:39:45.9    -211   -545     49    585    588 201.2   4.9  34192  290.12 0854.45
2009/04/23 13:39:46.0    -148   -486    122    509    524 197.0  13.6  34190  290.08 0854.45
2009/04/23 13:39:46.1    -207   -347     -1    405    406 210.8  -0.3  34194  290.16 0854.45
2009/04/23 13:39:46.2    -117   -351     -8    371    372 198.5  -1.3  34190  290.08 0854.45
2009/04/23 13:39:46.3     -81   -477     61    484    488 189.7   7.2  34192  290.12 0854.45
2009/04/23 13:39:46.4      69   -384   -108    391    406 169.8 -15.5  34192  290.10 0854.45
2009/04/23 13:39:46.5     125   -310    -94    335    347 157.9 -20.3  34192  290.10 0854.46
2009/04/23 13:39:46.6     120   -399     42    417    420 163.2   5.8  34190  290.07 0854.46
2009/04/23 13:39:46.7      39   -412    193    414    456 174.6  27.0  34186  290.02 0854.46
2009/04/23 13:39:46.8      19   -619    166    620    642 178.2  15.0  34184  289.98 0854.46
2009/04/23 13:39:46.9      50   -538    200    541    576 174.7  21.1  34192  290.11 0854.46
2009/04/23 13:39:47.0     -14   -462    258    463    530 181.8  31.4  34186  290.01 0854.46
2009/04/23 13:39:47.1    -171   -427    166    461    489 201.9  20.6  34182  289.96 0854.46
2009/04/23 13:39:47.2      28   -507    260    508    570 176.8  29.2  34190  290.07 0854.46
2009/04/23 13:39:47.3     156   -430    258    458    525 160.0  31.9  34188  290.05 0854.46
2009/04/23 13:39:47.4     162   -544    199    568    601 163.4  20.0  34182  289.93 0854.46
2009/04/23 13:39:47.5      21   -543    170    544    571 177.8  17.4  34180  289.92 0854.46
2009/04/23 13:39:47.6     -89   -497    130    506    523 190.2  14.4  34182  289.96 0854.46
2009/04/23 13:39:47.7      55   -505    196    509    545 173.8  22.1  34182  289.96 0854.46
2009/04/23 13:39:47.8     -80   -508    130    515    532 189.0  14.2  34178  289.87 0854.46
2009/04/23 13:39:47.9     -67   -320    -41    328    331 191.9  -7.2  34178  289.89 0854.46
2009/04/23 13:39:48.0     232   -165    154    285    323 125.5  30.6  34186  290.02 0854.46
2009/04/23 13:39:48.1     272   -148    -40    310    313 118.6  -7.4  34182  289.93 0854.46
2009/04/23 13:39:48.2     301    -42   -151    305    340  98.0 -32.6  34188  290.06 0854.46
2009/04/23 13:39:48.3     302    -43   -175    306    352  98.1 -36.7  34184  289.99 0854.46
2009/04/23 13:39:48.4     232    -74    -83    244    258 107.8 -18.9  34182  289.95 0854.46
2009/04/23 13:39:48.5     291    -81    158    303    341 105.5  29.6  34182  289.96 0854.48
2009/04/23 13:39:48.6     296   -102    237    314    393 109.0  40.8  34182  289.96 0854.48
2009/04/23 13:39:48.8     156   -274    115    316    336 150.4  20.8  34182  289.94 0854.48
2009/04/23 13:39:48.9     305   -382     67    489    494 141.4   7.8  34182  289.95 0854.48
2009/04/23 13:39:49.0     280   -567     65    633    637 153.7   5.9  34182  289.96 0854.48
2009/04/23 13:39:49.1     371   -645      9    745    746 150.1   0.7  34182  289.95 0854.48
2009/04/23 13:39:49.2     146   -715    170    731    751 168.4  13.1  34184  289.99 0854.48
2009/04/23 13:39:49.3     130   -658    -24    671    672 168.8  -2.1  34184  289.99 0854.48
2009/04/23 13:39:49.4     263   -653    -97    705    712 158.1  -7.9  34184  289.98 0854.48
2009/04/23 13:39:49.5      56   -646   -115    649    660 175.0 -10.1  34182  289.96 0854.48
2009/04/23 13:39:49.6     242   -727   -165    767    785 161.6 -12.2  34174  289.81 0854.48
2009/04/23 13:39:49.7     166   -637    -10    659    660 165.4  -0.9  34172  289.78 0854.48
2009/04/23 13:39:49.8      50   -591    -55    594    597 175.1  -5.4  34174  289.80 0854.48
2009/04/23 13:39:49.9     -87   -483    -10    491    492 190.3  -1.3  34182  289.95 0854.48
2009/04/23 13:39:50.0       6   -333    132    334    359 178.9  22.8  34180  289.91 0854.48
2009/04/23 13:39:50.1    -109   -466    211    479    523 193.3  25.2  34184  289.98 0854.48
2009/04/23 13:39:50.2     -60   -296     19    302    303 191.5   3.6  34180  289.90 0854.48
2009/04/23 13:39:50.3     337   -163   -219    375    434 115.9 -37.4  34178  289.87 0854.48
2009/04/23 13:39:50.4     312   -199   -122    371    391 122.5 -18.3  34180  289.91 0854.48
2009/04/23 13:39:50.5     185   -209   -120    280    304 138.5 -29.3  34184  289.97 0854.48
2009/04/23 13:39:50.6     101   -236   -159    257    302 156.8 -39.4  34176  289.85 0854.45
2009/04/23 13:39:50.7     101   -349    -47    364    368 163.9  -7.5  34182  289.96 0854.45
2009/04/23 13:39:50.8     126   -377    -57    398    403 161.5  -8.2  34182  289.93 0854.45
2009/04/23 13:39:50.9     149   -371     -8    401    402 158.1  -1.2  34180  289.91 0854.45
2009/04/23 13:39:51.0     120   -317     44    340    343 159.2   7.4  34178  289.86 0854.45
2009/04/23 13:39:51.1     -39   -318    219    321    388 187.1  37.6  34178  289.86 0854.45
2009/04/23 13:39:51.2     105   -189     51    217    223 151.0  13.2  34182  289.96 0854.45
2009/04/23 13:39:51.3     181   -374    -16    416    417 154.1  -2.2  34180  289.92 0854.45
2009/04/23 13:39:51.4     235   -409    235    472    527 150.1  28.4  34176  289.84 0854.45
2009/04/23 13:39:51.5     262   -569     68    627    631 155.3   6.2  34162  289.60 0854.45
2009/04/23 13:39:51.6     478   -500      5    692    693 136.3   0.5  34172  289.77 0854.45
2009/04/23 13:39:51.7     263   -550   -214    610    647 154.4 -19.4  34180  289.91 0854.45
2009/04/23 13:39:51.8     274   -634    -84    691    697 156.6  -7.0  34176  289.83 0854.45
2009/04/23 13:39:51.9     318   -315    -57    448    452 134.7  -7.3  34180  289.90 0854.45
2009/04/23 13:39:52.0     302   -360    200    471    511 140.0  24.5  34174  289.81 0854.45
2009/04/23 13:39:52.1     207   -543    295    582    652 159.1  28.9  34184  289.98 0854.45
2009/04/23 13:39:52.2     363   -598    -23    700    701 148.7  -1.9  34186  290.01 0854.45
2009/04/23 13:39:52.3     185   -696    -17    721    722 165.1  -1.4  34172  289.76 0854.45
2009/04/23 13:39:52.4     289   -869    -87    916    921 161.6  -5.5  34180  289.92 0854.45
2009/04/23 13:39:52.5     260   -708    -95    755    762 159.8  -7.2  34178  289.89 0854.45
2009/04/23 13:39:52.6     369   -802   -108    883    890 155.3  -7.0  34178  289.86 0854.42
2009/04/23 13:39:52.7     341   -621    -63    709    712 151.2  -5.1  34178  289.86 0854.42
2009/04/23 13:39:52.8     182   -840     35    860    861 167.7   2.3  34170  289.73 0854.42
2009/04/23 13:39:52.9     414   -792    -59    894    896 152.4  -3.8  34172  289.76 0854.42
2009/04/23 13:39:53.0     134   -980      5    989    990 172.2   0.3  34174  289.81 0854.42
2009/04/23 13:39:53.1     167   -904   -168    920    936 169.5 -10.4  34172  289.76 0854.42
2009/04/23 13:39:53.2    -143   -782    -66    795    798 190.4  -4.8  34182  289.93 0854.42
2009/04/23 13:39:53.3    -153   -756   -141    772    785 191.5 -10.4  34178  289.88 0854.42
2009/04/23 13:39:53.4    -115   -801   -117    810    819 188.2  -8.3  34182  289.94 0854.42
2009/04/23 13:39:53.5     -78   -717   -237    722    760 186.2 -18.2  34174  289.82 0854.42
2009/04/23 13:39:53.6    -148   -659   -195    676    704 192.7 -16.1  34174  289.80 0854.42
2009/04/23 13:39:53.7     -62   -668   -111    672    682 185.3  -9.4  34176  289.85 0854.42
2009/04/23 13:39:53.8      21   -769    -36    770    772 178.4  -2.7  34172  289.78 0854.42
2009/04/23 13:39:53.9     141   -765     -9    778    779 169.5  -0.7  34170  289.73 0854.42
2009/04/23 13:39:54.0     136   -712     56    725    728 169.2   4.5  34172  289.78 0854.42
2009/04/23 13:39:54.1     159   -678     90    697    703 166.8   7.4  34174  289.81 0854.42
2009/04/23 13:39:54.2     125   -781    105    792    799 170.9   7.6  34172  289.78 0854.42
2009/04/23 13:39:54.3      58   -633    160    636    656 174.7  14.2  34164  289.65 0854.42
2009/04/23 13:39:54.4     -79   -727    -12    732    733 186.3  -1.0  34182  289.93 0854.42
2009/04/23 13:39:54.5     -83   -840     57    845    847 185.7   3.9  34176  289.85 0854.42
2009/04/23 13:39:54.6    -169   -688     94    709    716 193.8   7.6  34170  289.74 0854.40
2009/04/23 13:39:54.7    -206   -675    -27    706    707 197.0  -2.2  34172  289.79 0854.40
2009/04/23 13:39:54.8    -217   -669    -65    704    708 198.0  -5.3  34176  289.84 0854.40
2009/04/23 13:39:54.9    -185   -659    -88    685    691 195.7  -7.4  34164  289.63 0854.40
2009/04/23 13:39:55.0    -247   -555   -180    608    635 204.0 -16.5  34168  289.72 0854.40
2009/04/23 13:39:55.1    -314   -345   -255    467    532 222.3 -35.7  34176  289.84 0854.40
2009/04/23 13:39:55.2    -186   -362   -171    408    442 207.2 -28.5  34178  289.88 0854.40
2009/04/23 13:39:55.3    -189   -507   -151    542    562 200.5 -20.2  34170  289.75 0854.40
2009/04/23 13:39:55.4    -198   -296   -109    357    373 213.8 -21.8  34178  289.87 0854.40
2009/04/23 13:39:55.5    -148   -391   -203    419    465 200.8 -32.1  34172  289.77 0854.40
2009/04/23 13:39:55.6    -166   -434   -134    465    484 201.0 -16.1  34174  289.81 0854.40
2009/04/23 13:39:55.7      21   -448   -179    449    483 177.3 -27.4  34178  289.88 0854.40
2009/04/23 13:39:55.8     122   -423   -159    441    468 163.9 -25.1  34172  289.77 0854.40
2009/04/23 13:39:55.9      98   -403   -115    415    431 166.3 -15.5  34178  289.87 0854.40
2009/04/23 13:39:56.0     158   -467    -77    494    501 161.3  -8.9  34176  289.83 0854.40
2009/04/23 13:39:56.1     150   -519    -21    541    542 163.9  -2.2  34180  289.90 0854.40
2009/04/23 13:39:56.2     256   -600    -84    653    659 156.9  -7.4  34176  289.85 0854.40
2009/04/23 13:39:56.3     376   -574    125    687    699 146.8  10.4  34174  289.82 0854.40
2009/04/23 13:39:56.4     340   -581    224    674    711 149.7  18.4  34166  289.67 0854.40
2009/04/23 13:39:56.5     303   -403    256    505    566 143.0  28.9  34174  289.82 0854.31
2009/04/23 13:39:56.6     376   -436     71    576    581 139.2   7.1  34176  289.83 0854.31
2009/04/23 13:39:56.7     259   -403    103    480    492 147.3  12.1  34182  289.93 0854.31
2009/04/23 13:39:56.8     240   -470    107    528    539 152.9  11.5  34180  289.90 0854.31
2009/04/23 13:39:56.9     258   -666    153    715    732 158.8  12.1  34178  289.88 0854.31
2009/04/23 13:39:57.0     300   -683    221    747    780 156.3  16.5  34172  289.79 0854.31
2009/04/23 13:39:57.1     219   -658    246    694    737 161.5  19.6  34158  289.55 0854.31
2009/04/23 13:39:57.2     335   -500    134    602    617 146.2  12.6  34160  289.58 0854.31
2009/04/23 13:39:57.3     159   -286     88    328    340 151.0  15.1  34174  289.81 0854.31
2009/04/23 13:39:57.4     112   -348    205    366    419 162.1  31.7  34172  289.78 0854.31
2009/04/23 13:39:57.5     182   -370    211    413    463 153.7  29.2  34170  289.73 0854.31
2009/04/23 13:39:57.6     281   -235    205    367    420 130.0  31.5  34172  289.77 0854.31
2009/04/23 13:39:57.7     298   -237     38    382    384 128.5   5.8  34172  289.76 0854.31
2009/04/23 13:39:57.8     179   -495    128    527    543 160.1  13.7  34172  289.77 0854.31
2009/04/23 13:39:57.9     230   -366     54    433    437 147.9   7.1  34166  289.68 0854.31
2009/04/23 13:39:58.0      89   -158     63    182    193 150.4  19.2  34176  289.84 0854.31
2009/04/23 13:39:58.1     -42   -107   -130    116    174 201.4 -58.1  34172  289.77 0854.31
2009/04/23 13:39:58.2     170   -356    -35    395    397 154.5  -5.1  34172  289.79 0854.31
2009/04/23 13:39:58.3     -16   -207    123    208    241 184.5  33.5  34172  289.77 0854.31
2009/04/23 13:39:58.4     -51    -86    135    101    168 210.7  59.4  34176  289.84 0854.31
2009/04/23 13:39:58.5     -19    165    115    167    202 353.3  37.6  34176  289.85 0854.31
2009/04/23 13:39:58.6    -155   -119    191    196    273 232.5  49.4  34172  289.78 0854.31
2009/04/23 13:39:58.7      64    -40    267     76    277 122.4  83.9  34172  289.77 0854.31
2009/04/23 13:39:58.8      43     98    199    108    226  23.6  69.3  34176  289.84 0854.31
2009/04/23 13:39:58.9     -17   -268    156    269    310 183.8  32.9  34178  289.86 0854.31
2009/04/23 13:39:59.0     131   -288     55    317    322 155.5   9.9  34166  289.66 0854.31
2009/04/23 13:39:59.1     289   -107    -47    309    313 110.4  -8.8  34168  289.71 0854.31
2009/04/23 13:39:59.2     315     13     74    316    325  87.5  13.3  34172  289.76 0854.31
2009/04/23 13:39:59.3     381   -405    287    557    626 136.8  29.5  34166  289.68 0854.31
2009/04/23 13:39:59.4     373   -235    218    442    492 122.2  28.2  34158  289.54 0854.31
2009/04/23 13:39:59.5     234   -117    305    262    402 116.6  55.3  34168  289.72 0854.31
2009/04/23 13:39:59.6     279     84    232    292    372  73.2  42.6  34164  289.64 0854.31
2009/04/23 13:39:59.7     186   -125    354    225    419 124.0  64.7  34170  289.74 0854.31
2009/04/23 13:39:59.8     293   -122    242    318    399 112.6  41.1  34162  289.62 0854.31
2009/04/23 13:39:59.9     364    -57     93    369    381  98.9  14.2  34162  289.62 0854.31
2009/04/23 13:40:00.0     199   -345    347    399    528 150.0  45.5  34152  289.45 0854.31
2009/04/23 13:40:00.1     303   -377    340    484    591 141.2  38.5  34152  289.45 0854.31
2009/04/23 13:40:00.2     349   -255    315    433    535 126.1  39.7  34160  289.57 0854.31
2009/04/23 13:40:00.3     304   -462     31    554    555 146.7   3.2  34152  289.45 0854.31
2009/04/23 13:40:00.4      42   -540    -70    542    547 175.5  -7.4  34150  289.41 0854.31
2009/04/23 13:40:00.5      32   -259     -2    262    263 172.9  -0.5  34154  289.46 0854.30
2009/04/23 13:40:00.6      59   -106     93    122    153 151.0  41.2  34158  289.55 0854.30
2009/04/23 13:40:00.7     305    -43    211    309    374  98.0  37.6  34162  289.59 0854.30
2009/04/23 13:40:00.8      58    -15    218     61    226 105.1  84.6  34164  289.63 0854.30
2009/04/23 13:40:00.9     350   -214    196    411    455 121.4  27.3  34164  289.63 0854.30
2009/04/23 13:40:01.0     331   -461    164    568    592 144.3  16.1  34150  289.41 0854.30
2009/04/23 13:40:01.1     483   -545    331    729    800 138.5  26.2  34148  289.37 0854.30
2009/04/23 13:40:01.2     244   -475    320    535    623 152.8  33.6  34140  289.22 0854.30
2009/04/23 13:40:01.3     594   -554    313    813    871 133.0  22.1  34152  289.44 0854.30
2009/04/23 13:40:01.4     533   -446    162    696    715 129.9  13.1  34152  289.45 0854.30
2009/04/23 13:40:01.5     400   -449    101    602    611 138.3   9.6  34152  289.44 0854.30
2009/04/23 13:40:01.6     371   -495    350    619    711 143.1  32.1  34150  289.41 0854.30
2009/04/23 13:40:01.7     331   -352    237    484    538 136.8  27.9  34146  289.33 0854.30
2009/04/23 13:40:01.8     224   -297    354    373    514 142.9  48.4  34152  289.42 0854.30
2009/04/23 13:40:01.9     257   -467    278    534    602 151.1  29.6  34156  289.51 0854.30
2009/04/23 13:40:02.0     211   -407    262    459    528 152.6  32.3  34158  289.54 0854.30
2009/04/23 13:40:02.1     234   -392    216    457    505 149.1  27.1  34158  289.54 0854.30
2009/04/23 13:40:02.2     230   -389    212    453    500 149.4  27.0  34154  289.47 0854.30
2009/04/23 13:40:02.3     287   -386    240    482    538 143.4  28.5  34154  289.48 0854.30
2009/04/23 13:40:02.4      30   -425    305    427    524 175.9  39.1  34150  289.39 0854.30
2009/04/23 13:40:02.5      29   -390    252    392    466 175.6  35.6  34152  289.44 0854.32
2009/04/23 13:40:02.6     315   -304    255    438    506 134.0  32.9  34154  289.47 0854.32
2009/04/23 13:40:02.7     354   -345    260    495    559 134.3  29.9  34154  289.48 0854.32
2009/04/23 13:40:02.8     459   -502     26    681    682 137.6   2.2  34154  289.48 0854.32
2009/04/23 13:40:02.9     549   -398     14    679    680 126.0   1.2  34154  289.46 0854.32
2009/04/23 13:40:03.0     439   -391    151    589    609 131.7  14.4  34152  289.42 0854.32
2009/04/23 13:40:03.1     243   -435    220    499    545 150.8  25.2  34156  289.51 0854.32
2009/04/23 13:40:03.2     283   -452     43    534    536 148.0   4.7  34154  289.48 0854.32
2009/04/23 13:40:03.3     339   -355    -51    492    495 136.3  -6.0  34158  289.54 0854.32
2009/04/23 13:40:03.4     296   -587      3    658    659 153.2   0.3  34158  289.54 0854.32
2009/04/23 13:40:03.5     181   -581     70    609    614 162.7   6.6  34160  289.58 0854.32
2009/04/23 13:40:03.6     241   -512     42    566    568 154.8   4.3  34156  289.50 0854.32
2009/04/23 13:40:03.7     441   -470    191    645    673 136.8  16.5  34158  289.53 0854.32
2009/04/23 13:40:03.8     142   -394    202    420    466 160.1  27.3  34158  289.53 0854.32
2009/04/23 13:40:03.9      75   -242    -48    254    259 162.8 -10.9  34154  289.46 0854.32
2009/04/23 13:40:04.0     -28   -281   -191    283    341 185.8 -41.6  34152  289.44 0854.32
2009/04/23 13:40:04.1     135   -232   -257    269    372 149.9 -52.9  34162  289.59 0854.32
2009/04/23 13:40:04.2     199   -259   -156    327    362 142.4 -31.7  34156  289.52 0854.32
2009/04/23 13:40:04.3      79   -220    -77    234    246 160.2 -23.6  34154  289.47 0854.32
2009/04/23 13:40:04.4     229   -156   -141    278    311 124.2 -33.6  34154  289.46 0854.32
2009/04/23 13:40:04.5     202   -424    200    470    510 154.5  24.5  34156  289.50 0854.34
2009/04/23 13:40:04.6     270   -349    253    442    509 142.3  32.3  34158  289.54 0854.34
2009/04/23 13:40:04.7     251   -284     25    380    381 138.6   3.8  34158  289.55 0854.34
2009/04/23 13:40:04.8     273   -401     12    486    487 145.7   1.5  34158  289.54 0854.34
2009/04/23 13:40:04.9     209   -274    -40    345    348 142.7  -6.7  34160  289.57 0854.34
2009/04/23 13:40:05.0      87   -130    -53    157    166 145.9 -18.7  34150  289.41 0854.34
2009/04/23 13:40:05.1     220    -88    152    238    282 111.8  35.6  34160  289.56 0854.34
2009/04/23 13:40:05.2     354   -261    -43    440    443 126.4  -5.6  34160  289.56 0854.34
2009/04/23 13:40:05.3     325   -181     46    373    376 119.2   7.1  34162  289.62 0854.34
2009/04/23 13:40:05.4     280   -418    103    504    515 146.2  11.6  34162  289.59 0854.34
2009/04/23 13:40:05.5       6   -444     73    445    452 179.1   9.3  34160  289.58 0854.34
2009/04/23 13:40:05.6      69   -262     79    272    284 165.1  16.3  34160  289.58 0854.34
2009/04/23 13:40:05.7       0   -277     49    278    283 180.0  10.1  34162  289.59 0854.34
2009/04/23 13:40:05.8     157    -70    126    173    214 114.2  39.7  34158  289.55 0854.34
2009/04/23 13:40:05.9     187    -42    160    192    249 102.8  43.8  34160  289.56 0854.34
2009/04/23 13:40:06.0      12      8    141     15    141  57.6  90.0  34166  289.67 0854.34
2009/04/23 13:40:06.1     136     10    224    137    262  85.6  65.7  34164  289.65 0854.34
2009/04/23 13:40:06.2      -7      7    131     11    131 315.0  90.0  34168  289.72 0854.34
2009/04/23 13:40:06.3     -54    -44    121     70    139 230.5  67.7  34166  289.69 0854.34
2009/04/23 13:40:06.4     -74    125    102    146    178 329.3  38.6  34162  289.62 0854.34
2009/04/23 13:40:06.5    -130    168    123    213    245 322.1  32.7  34166  289.68 0854.42
2009/04/23 13:40:06.6    -149    158     26    218    220 316.6   6.9  34164  289.65 0854.42
2009/04/23 13:40:06.7     -59     59    132     84    156 314.9  64.7  34168  289.70 0854.42
2009/04/23 13:40:06.8     -97    -41     52    106    118 246.9  27.8  34168  289.70 0854.42
2009/04/23 13:40:06.9    -142    142    121    201    234 315.0  34.0  34166  289.67 0854.42
2009/04/23 13:40:07.0    -297    118    136    320    347 291.8  24.3  34164  289.65 0854.42
2009/04/23 13:40:07.1     -37     80    165     89    187 335.1  69.3  34168  289.70 0854.42
2009/04/23 13:40:07.2     -79      1    117     80    141 270.8  62.6  34168  289.72 0854.42
2009/04/23 13:40:07.3      45    -28    192     54    199 122.4  84.1  34166  289.69 0854.42
2009/04/23 13:40:07.4      -6     29    190     30    192 348.4  90.0  34164  289.65 0854.42
2009/04/23 13:40:07.5     100     55    255    115    279  61.1  74.2  34168  289.71 0854.41
2009/04/23 13:40:07.6     162    -28    383    165    417 100.1  75.4  34164  289.65 0854.41
2009/04/23 13:40:07.7     -33     33    257     47    261 315.0  90.0  34164  289.63 0854.41
2009/04/23 13:40:07.8      80   -162    254    181    311 153.7  61.2  34164  289.63 0854.41
2009/04/23 13:40:07.9     377   -257    161    457    485 124.3  19.5  34166  289.66 0854.41
2009/04/23 13:40:08.0     585   -359     37    687    689 121.5   3.1  34152  289.44 0854.41
2009/04/23 13:40:08.1     626   -241    196    671    700 111.1  16.3  34160  289.58 0854.41
2009/04/23 13:40:08.2     540   -210    143    580    598 111.3  13.9  34150  289.41 0854.41
2009/04/23 13:40:08.3     394   -131    299    416    512 108.4  39.2  34152  289.45 0854.41
2009/04/23 13:40:08.4     533    -13    293    534    609  91.5  31.3  34156  289.52 0854.41
2009/04/23 13:40:08.5     416   -125    346    435    555 106.8  42.6  34160  289.56 0854.41
2009/04/23 13:40:08.6     273   -101    333    292    442 110.4  54.3  34162  289.62 0854.41
2009/04/23 13:40:08.7     273    -87    332    287    438 107.7  54.9  34162  289.60 0854.41
2009/04/23 13:40:08.8     180     36    292    184    345  78.5  64.7  34168  289.71 0854.41
2009/04/23 13:40:08.9     334     59    388    340    515  79.9  54.3  34166  289.69 0854.41
2009/04/23 13:40:09.0     237     83    290    252    384  70.7  54.7  34164  289.65 0854.41
2009/04/23 13:40:09.1     187     65    234    199    307  70.7  55.4  34170  289.75 0854.41
2009/04/23 13:40:09.2     234     10    239    235    335  87.4  50.6  34168  289.70 0854.41
2009/04/23 13:40:09.3     278   -131    145    308    340 115.2  27.1  34164  289.64 0854.41
2009/04/23 13:40:09.4     163   -232    222    284    360 144.8  41.9  34160  289.57 0854.41
2009/04/23 13:40:09.5      74   -226    267    238    357 161.7  53.7  34160  289.58 0854.46
2009/04/23 13:40:09.6      84   -150    238    173    294 150.6  60.5  34158  289.53 0854.46
2009/04/23 13:40:09.7      14    -66    189     68    200 167.5  79.7  34158  289.55 0854.46
2009/04/23 13:40:09.8       5   -134    230    135    266 177.8  67.0  34154  289.48 0854.46
2009/04/23 13:40:09.9      87    -62    163    108    195 125.5  63.4  34160  289.58 0854.46
2009/04/23 13:40:10.0      -6   -215    220    216    308 181.8  50.2  34162  289.59 0854.46
2009/04/23 13:40:10.1     -60   -307    309    313    439 191.1  49.9  34162  289.60 0854.46
2009/04/23 13:40:10.2       8   -232    247    233    339 178.0  51.9  34170  289.73 0854.46
2009/04/23 13:40:10.3      13   -187    169    188    252 176.0  46.9  34168  289.71 0854.46
2009/04/23 13:40:10.4      96    -85    129    129    182 131.3  50.1  34164  289.65 0854.46
2009/04/23 13:40:10.5      92    -29     74     97    122 107.7  41.6  34170  289.74 0854.46
2009/04/23 13:40:10.6      -2    132    -21    133    135 359.1  -9.3  34166  289.67 0854.46
2009/04/23 13:40:10.7    -100    178    -62    205    215 330.6 -16.8  34166  289.67 0854.46
2009/04/23 13:40:10.8    -176     83    158    195    250 295.4  43.5  34156  289.51 0854.46
2009/04/23 13:40:10.9    -277    120    -39    303    306 293.5  -7.5  34164  289.63 0854.46
2009/04/23 13:40:11.0    -429    -78     48    437    440 259.7   6.4  34162  289.61 0854.46
2009/04/23 13:40:11.1    -348     15     63    349    355 272.6  10.3  34168  289.71 0854.46
2009/04/23 13:40:11.2    -336   -165    -26    375    376 243.8  -4.1  34168  289.71 0854.46
2009/04/23 13:40:11.3    -254   -122    -89    283    296 244.2 -22.8  34170  289.75 0854.46
2009/04/23 13:40:11.4    -182    -60     58    192    201 251.6  16.8  34170  289.75 0854.46
2009/04/23 13:40:11.5    -132     13     63    133    147 275.7  27.2  34174  289.82 0854.49
2009/04/23 13:40:11.6    -273    -12     42    274    278 267.4   8.8  34174  289.81 0854.49
2009/04/23 13:40:11.7    -286     94    -14    302    303 288.2  -2.8  34174  289.80 0854.49
2009/04/23 13:40:11.8    -405     57   -153    410    437 278.1 -25.8  34170  289.75 0854.49
2009/04/23 13:40:11.9    -455     34   -149    457    481 274.4 -18.1  34162  289.62 0854.49
2009/04/23 13:40:12.0    -414    150   -149    441    466 289.9 -18.7  34156  289.49 0854.49
2009/04/23 13:40:12.1    -299     91   -115    313    333 286.9 -25.7  34164  289.63 0854.49
2009/04/23 13:40:12.2    -228   -100   -151    250    292 246.3 -38.6  34160  289.58 0854.49
2009/04/23 13:40:12.3    -353    -43    -71    356    364 263.0 -11.3  34174  289.81 0854.49
2009/04/23 13:40:12.4    -358   -110    -97    375    388 252.8 -14.5  34168  289.71 0854.49
2009/04/23 13:40:12.5    -377   -110    -86    393    403 253.6 -12.4  34170  289.74 0854.49
2009/04/23 13:40:12.6    -257   -162    -81    304    315 237.8 -15.1  34168  289.70 0854.49
2009/04/23 13:40:12.7    -358   -229    -65    426    431 237.4  -8.7  34170  289.75 0854.49
2009/04/23 13:40:12.8    -287   -172   -180    335    380 239.1 -35.1  34168  289.72 0854.49
2009/04/23 13:40:12.9    -171   -187   -175    254    308 222.4 -42.0  34164  289.63 0854.49
2009/04/23 13:40:13.0     -86   -357   -131    368    391 193.5 -19.7  34164  289.64 0854.49
2009/04/23 13:40:13.1    -158   -266      4    310    311 210.7   0.8  34166  289.66 0854.49
2009/04/23 13:40:13.2     -44   -310     35    314    316 188.1   6.4  34168  289.71 0854.49
2009/04/23 13:40:13.3      75   -382     68    390    397 168.9  10.0  34164  289.65 0854.49
2009/04/23 13:40:13.4     133   -428    113    449    464 162.7  14.2  34162  289.61 0854.49
2009/04/23 13:40:13.5     190   -362     43    410    413 152.3   6.1  34164  289.63 0854.52
2009/04/23 13:40:13.6     173   -353     -9    394    395 153.9  -1.4  34164  289.65 0854.52
2009/04/23 13:40:13.7      83   -319    186    330    378 165.3  31.9  34164  289.65 0854.52
2009/04/23 13:40:13.8     108   -439    123    453    470 166.2  15.3  34160  289.58 0854.52
2009/04/23 13:40:13.9      43   -384      2    387    388 173.5   0.4  34162  289.60 0854.52
2009/04/23 13:40:14.0     126   -302     21    328    329 157.3   3.8  34164  289.63 0854.52
2009/04/23 13:40:14.1     176   -433    139    468    489 157.8  16.5  34160  289.57 0854.52
2009/04/23 13:40:14.2      96   -495    183    505    538 169.0  19.9  34162  289.60 0854.52
2009/04/23 13:40:14.3     119   -440     93    456    466 164.9  11.6  34158  289.53 0854.52
2009/04/23 13:40:14.4     240   -368     27    440    441 146.9   3.6  34164  289.65 0854.52
2009/04/23 13:40:14.5     249   -225    228    336    406 132.1  37.4  34162  289.62 0854.52
2009/04/23 13:40:14.6     319   -347    224    472    522 137.5  27.2  34158  289.54 0854.52
2009/04/23 13:40:14.7     203   -406    245    455    516 153.4  30.8  34162  289.61 0854.52
2009/04/23 13:40:14.8     111   -371    221    388    446 163.3  32.3  34164  289.63 0854.52
2009/04/23 13:40:14.9      57   -327    224    332    400 170.1  37.3  34162  289.60 0854.52
2009/04/23 13:40:15.0     119   -339    237    360    431 160.6  36.5  34164  289.63 0854.52
2009/04/23 13:40:15.1     138   -309    156    339    373 155.9  26.5  34162  289.62 0854.52
2009/04/23 13:40:15.2     147   -224     95    269    285 146.6  20.2  34164  289.63 0854.52
2009/04/23 13:40:15.3     207   -303     49    368    372 145.6   7.6  34162  289.62 0854.52
2009/04/23 13:40:15.4     -25   -310    148    312    345 184.7  27.2  34156  289.50 0854.52
2009/04/23 13:40:15.5       5   -203     13    204    205 178.4   3.8  34162  289.62 0854.56
2009/04/23 13:40:15.6      -6   -178     71    179    192 182.2  22.8  34160  289.58 0854.56
2009/04/23 13:40:15.7      34    -72     -6     80     81 154.7  -4.6  34164  289.63 0854.56
2009/04/23 13:40:15.8     142   -175    119    226    255 140.8  30.1  34156  289.51 0854.56
2009/04/23 13:40:16.0     246   -107    134    269    300 113.6  28.2  34158  289.54 0854.56
2009/04/23 13:40:16.1     193   -206    218    283    357 136.8  41.5  34158  289.55 0854.56
2009/04/23 13:40:16.2     103   -385    165    399    431 165.0  23.8  34160  289.56 0854.56
2009/04/23 13:40:16.3      -6   -343    177    344    386 181.2  29.3  34162  289.59 0854.56
2009/04/23 13:40:16.4     -28   -377    206    378    430 184.4  31.0  34160  289.56 0854.56
2009/04/23 13:40:16.5     -17   -396    218    397    452 182.5  31.3  34160  289.56 0854.56
2009/04/23 13:40:16.6     -81   -303    290    314    427 195.1  47.7  34160  289.57 0854.56
2009/04/23 13:40:16.7    -150   -271    251    310    398 209.0  43.1  34164  289.64 0854.56
2009/04/23 13:40:16.8    -157   -273    228    316    389 209.9  39.3  34164  289.64 0854.56
2009/04/23 13:40:16.9     -81   -229    190    244    309 199.6  41.7  34160  289.58 0854.56
2009/04/23 13:40:17.0     -93   -213    192    233    301 203.7  43.7  34162  289.61 0854.56
2009/04/23 13:40:17.1     -83   -215    189    231    298 201.2  43.7  34164  289.64 0854.56
2009/04/23 13:40:17.2     -69   -308    206    316    377 192.7  36.2  34162  289.59 0854.56
2009/04/23 13:40:17.3      18   -243    115    244    269 175.6  27.1  34166  289.66 0854.56
2009/04/23 13:40:17.4     121   -194    156    229    277 148.1  37.6  34166  289.66 0854.56
2009/04/23 13:40:17.5     -11   -252    148    253    293 182.7  33.1  34162  289.59 0854.56
2009/04/23 13:40:17.6    -110   -306    143    326    355 199.9  25.1  34164  289.64 0854.55
2009/04/23 13:40:17.7     -72   -346    141    354    381 191.8  23.0  34164  289.64 0854.55
2009/04/23 13:40:17.8    -112   -268    116    291    313 202.7  22.9  34164  289.64 0854.55
2009/04/23 13:40:17.9     -47   -109    172    119    209 203.6  62.4  34164  289.63 0854.55
2009/04/23 13:40:18.0     -64    -81     80    104    131 218.3  41.7  34168  289.72 0854.55
2009/04/23 13:40:18.1     -90    -67     -1    113    114 233.6  -0.7  34166  289.69 0854.55
2009/04/23 13:40:18.2    -107     30     60    112    127 285.9  30.8  34168  289.72 0854.55
2009/04/23 13:40:18.3    -131     22     57    133    144 279.6  24.6  34166  289.69 0854.55
2009/04/23 13:40:18.4    -196   -147    -88    245    260 233.1 -24.8  34170  289.75 0854.55
2009/04/23 13:40:18.5    -297   -136   -116    327    346 245.4 -24.5  34170  289.74 0854.55
2009/04/23 13:40:18.6    -218    -93    -74    238    249 246.9 -22.5  34168  289.70 0854.55
2009/04/23 13:40:18.7    -261   -116     44    286    290 246.0   8.8  34166  289.68 0854.55
2009/04/23 13:40:18.8    -232    -60     55    240    247 255.4  12.9  34172  289.76 0854.55
2009/04/23 13:40:18.9    -215    -20    -63    217    225 264.5 -21.0  34168  289.72 0854.55
2009/04/23 13:40:19.0    -204    -89   -111    223    249 246.4 -32.6  34168  289.71 0854.55
2009/04/23 13:40:19.1     -93    -42    -77    103    128 245.6 -45.1  34170  289.74 0854.55
2009/04/23 13:40:19.2     -13    -68    -24     70     74 191.5 -23.3  34170  289.74 0854.55
2009/04/23 13:40:19.3     -41    -65    -21     78     81 212.5 -15.5  34174  289.82 0854.55
2009/04/23 13:40:19.4     -41    -63    -41     76     86 213.4 -35.2  34172  289.77 0854.55
2009/04/23 13:40:19.5    -109    -69     35    130    135 237.5  15.3  34170  289.74 0854.55
2009/04/23 13:40:19.6     -77    -46     65     90    111 238.9  39.7  34170  289.75 0854.57
2009/04/23 13:40:19.7     -48    -79     66     93    114 211.2  38.6  34172  289.77 0854.57
2009/04/23 13:40:19.8     -77    -77     60    110    125 225.0  31.4  34172  289.79 0854.57
2009/04/23 13:40:19.9     -78    -65     54    102    115 230.0  30.3  34170  289.74 0854.57
2009/04/23 13:40:20.0     -30     12     85     33     91 291.7  78.2  34176  289.84 0854.57
2009/04/23 13:40:20.1     -85      3     -3     86     87 272.1  -2.6  34176  289.84 0854.57
2009/04/23 13:40:20.2    -152     93    -50    179    185 301.5 -20.2  34174  289.80 0854.57
2009/04/23 13:40:20.3     -94    -83      6    126    127 228.7   2.8  34174  289.80 0854.57
2009/04/23 13:40:20.4      -4    -49     17     50     53 185.3  18.9  34174  289.82 0854.57
2009/04/23 13:40:20.5      61    -75    -15     97     99 140.8  -8.8  34174  289.80 0854.57
2009/04/23 13:40:20.6      95    -39    130    103    165 112.6  57.7  34174  289.82 0854.57
2009/04/23 13:40:20.7      80     -2    139     81    160  91.7  67.2  34174  289.80 0854.57
2009/04/23 13:40:20.8     -10    -24    111     27    114 203.6  85.9  34182  289.96 0854.57
2009/04/23 13:40:20.9     -25    -30    153     40    158 219.6  85.4  34176  289.85 0854.57
2009/04/23 13:40:21.0     -61   -136    177    150    232 204.1  55.8  34168  289.72 0854.57
2009/04/23 13:40:21.1    -100   -141    127    174    215 215.4  39.7  34166  289.69 0854.57
2009/04/23 13:40:21.2    -123   -130     58    180    190 223.4  17.9  34166  289.69 0854.57
2009/04/23 13:40:21.3     -27    -64     24     70     75 202.7  19.2  34168  289.72 0854.57
2009/04/23 13:40:21.4      34     35     78     49     92  44.2  64.7  34172  289.79 0854.57
2009/04/23 13:40:21.5      40     40     80     57     98  45.0  60.6  34176  289.84 0854.57
2009/04/23 13:40:21.6      58     23     72     63     95  68.3  54.3  34178  289.87 0854.55
2009/04/23 13:40:21.7      92     39    101    101    142  66.9  50.1  34176  289.85 0854.55
2009/04/23 13:40:21.8      95     44     86    105    135  64.8  43.7  34178  289.87 0854.55
2009/04/23 13:40:21.9      71     59     76     93    120  50.5  43.7  34174  289.82 0854.55
2009/04/23 13:40:22.0      32     78     93     85    125  22.7  52.2  34176  289.85 0854.55
2009/04/23 13:40:22.1     175    157     -4    236    237  48.2  -1.1  34176  289.83 0854.55
2009/04/23 13:40:22.2     251     91     63    268    276  70.0  13.2  34170  289.73 0854.55
2009/04/23 13:40:22.3     181     41    160    186    245  77.0  45.1  34176  289.84 0854.55
2009/04/23 13:40:22.4      27     -4    143     28    145  99.7  89.1  34176  289.85 0854.55
2009/04/23 13:40:22.5     -41     26     97     49    108 302.4  71.4  34182  289.94 0854.55
2009/04/23 13:40:22.6     -13     40    112     43    119 342.2  78.6  34180  289.91 0854.55
2009/04/23 13:40:22.7     -22     33    130     40    136 326.6  82.3  34182  289.94 0854.55
2009/04/23 13:40:22.8     -36     66    127     76    148 331.0  66.7  34180  289.91 0854.55
2009/04/23 13:40:22.9      63    110    108    127    166  29.9  44.5  34174  289.80 0854.55
2009/04/23 13:40:23.0      -7    206     91    207    226 358.0  25.2  34168  289.72 0854.55
2009/04/23 13:40:23.1    -131    134      9    188    189 315.7   2.9  34174  289.82 0854.55
2009/04/23 13:40:23.2     -81    181   -139    199    242 335.7 -42.8  34168  289.70 0854.55
2009/04/23 13:40:23.3    -176      2     16    177    178 270.8   5.2  34168  289.72 0854.55
2009/04/23 13:40:23.4    -179      9    182    180    255 273.0  50.1  34176  289.85 0854.55
2009/04/23 13:40:23.5       2    156    136    157    207   0.9  45.6  34170  289.75 0854.54
2009/04/23 13:40:23.6     205     22    190    207    280  83.6  47.5  34170  289.73 0854.54
2009/04/23 13:40:23.7     124    124    173    176    246  45.1  49.8  34176  289.84 0854.54
2009/04/23 13:40:23.8     -39     98     61    106    122 338.1  32.4  34176  289.84 0854.54
2009/04/23 13:40:23.9    -127     80    -86    151    173 302.4 -36.8  34172  289.77 0854.54
2009/04/23 13:40:24.0    -182   -119      9    218    219 236.9   2.5  34180  289.91 0854.54
2009/04/23 13:40:24.1     -44    -17     80     48     93 248.3  65.7  34180  289.91 0854.54
2009/04/23 13:40:24.2    -101    -41     68    110    129 247.8  35.5  34184  289.99 0854.54
2009/04/23 13:40:24.3     -83    -57     84    101    131 235.4  43.8  34188  290.04 0854.54
2009/04/23 13:40:24.4     -80   -135    141    157    211 210.7  46.6  34186  290.02 0854.54
2009/04/23 13:40:24.5    -206   -124     46    241    246 238.9  11.0  34192  290.10 0854.54
2009/04/23 13:40:24.6    -263     -3    -14    264    265 269.2  -3.2  34186  290.02 0854.54
2009/04/23 13:40:24.7     -87   -136    155    162    224 212.5  48.7  34186  290.02 0854.54
2009/04/23 13:40:24.8       0    -66    157     67    170 180.0  75.5  34180  289.92 0854.54
2009/04/23 13:40:24.9     -73   -249     91    260    276 196.5  19.4  34184  289.98 0854.54
2009/04/23 13:40:25.0       0   -264    217    265    342 180.0  43.7  34180  289.92 0854.54
2009/04/23 13:40:25.1     -90   -346    174    358    398 194.6  27.9  34182  289.93 0854.54
2009/04/23 13:40:25.2    -129   -296    137    324    351 203.6  24.2  34180  289.91 0854.54
2009/04/23 13:40:25.3       7   -113    146    114    185 176.0  58.2  34178  289.89 0854.54
2009/04/23 13:40:25.4      68    -69     73     98    122 135.5  40.7  34178  289.87 0854.54
2009/04/23 13:40:25.5      94     68     78    117    140  54.1  37.0  34184  289.97 0854.39
2009/04/23 13:40:25.6     105     43     86    114    142  67.8  40.7  34182  289.96 0854.39
2009/04/23 13:40:25.7     104     66     39    124    131  57.5  17.4  34180  289.91 0854.39
2009/04/23 13:40:25.8      80    125     -6    149    150  32.6  -2.6  34178  289.89 0854.39
2009/04/23 13:40:25.9      96    133     -3    165    166  35.8  -1.3  34178  289.89 0854.39
2009/04/23 13:40:26.0     172    119     -9    210    211  55.4  -2.6  34182  289.94 0854.39
2009/04/23 13:40:26.1     140    137    -67    197    208  45.6 -23.6  34182  289.94 0854.39
2009/04/23 13:40:26.2      62     97    -90    116    146  32.5 -46.6  34178  289.89 0854.39
2009/04/23 13:40:26.3      29    125   -164    129    208  13.4 -62.3  34182  289.96 0854.39
2009/04/23 13:40:26.4    -146     13    -51    147    156 275.2 -19.4  34180  289.92 0854.39
2009/04/23 13:40:26.5    -264     62   -117    272    296 283.3 -29.3  34182  289.93 0854.39
2009/04/23 13:40:26.6    -185     26   -117    187    220 278.0 -39.9  34180  289.92 0854.39
2009/04/23 13:40:26.7      -5    -56    -48     57     74 185.3 -48.2  34182  289.96 0854.39
2009/04/23 13:40:26.8     -13     28     38     31     49 334.7  56.4  34182  289.94 0854.39
2009/04/23 13:40:26.9     -40     59     69     72     99 325.7  49.0  34184  289.97 0854.39
2009/04/23 13:40:27.0     -74     29     44     80     91 291.8  31.4  34182  289.94 0854.39
2009/04/23 13:40:27.1     -32     32     31     46     55 314.9  35.6  34184  289.99 0854.39
2009/04/23 13:40:27.2     -16    -21    -24     27     36 217.8 -50.2  34186  290.01 0854.39
2009/04/23 13:40:27.3      37   -113   -105    119    158 161.7 -50.8  34184  289.99 0854.39
2009/04/23 13:40:27.4      91   -249   -136    266    298 159.9 -33.7  34184  289.98 0854.39
2009/04/23 13:40:27.5     211   -237    -41    318    321 138.3  -7.4  34184  289.97 0854.35
2009/04/23 13:40:27.6     270   -206    -35    340    342 127.4  -5.9  34182  289.96 0854.35
2009/04/23 13:40:27.7     297   -146     49    331    335 116.2   8.5  34184  289.98 0854.35
2009/04/23 13:40:27.8     337   -129    116    361    380 111.0  17.8  34182  289.96 0854.35
2009/04/23 13:40:27.9     379    -89    146    390    416 103.3  21.6  34182  289.95 0854.35
2009/04/23 13:40:28.0     257    -43    219    261    340  99.5  44.3  34182  289.95 0854.35
2009/04/23 13:40:28.1     426    -27    230    427    485  93.7  30.7  34182  289.96 0854.35
2009/04/23 13:40:28.2     373    124    193    394    438  71.6  28.1  34182  289.95 0854.35
2009/04/23 13:40:28.3     280    128     40    308    311  65.4   7.4  34186  290.00 0854.35
2009/04/23 13:40:28.4     173    310     47    356    360  29.2   7.6  34194  290.16 0854.35
2009/04/23 13:40:28.5     323    203    157    382    413  57.8  23.6  34200  290.26 0854.34
2009/04/23 13:40:28.6     187     86    258    207    330  65.2  57.1  34208  290.37 0854.34
2009/04/23 13:40:28.7     131    287    270    316    415  24.5  44.9  34208  290.37 0854.34
2009/04/23 13:40:28.8     131     47    140    140    197  70.0  50.1  34200  290.25 0854.34
2009/04/23 13:40:28.9     114    250    181    275    329  24.5  36.4  34218  290.54 0854.34
2009/04/23 13:40:29.0     159    242     81    290    302  33.4  15.6  34206  290.36 0854.34
2009/04/23 13:40:29.1     190    147    108    241    264  52.2  26.2  34202  290.27 0854.34
2009/04/23 13:40:29.2     113    192    144    224    266  30.5  35.6  34208  290.37 0854.34
2009/04/23 13:40:29.3     128    232     48    266    271  28.9  10.3  34226  290.70 0854.34
2009/04/23 13:40:29.4     257    248     11    358    359  46.0   1.8  34268  291.42 0854.34
2009/04/23 13:40:29.5     214    175    113    277    299  50.7  23.1  34268  291.41 0854.34
2009/04/23 13:40:29.6     191     63    134    202    242  71.8  36.5  34260  291.26 0854.34
2009/04/23 13:40:29.7     320    119     -6    342    343  69.5  -1.2  34258  291.23 0854.34
2009/04/23 13:40:29.8     220     87     86    237    252  68.3  20.7  34258  291.22 0854.34
2009/04/23 13:40:29.9     334    117    205    355    409  70.6  32.7  34236  290.86 0854.34
2009/04/23 13:40:30.0     431     -4    122    432    450  90.6  15.8  34196  290.17 0854.34
2009/04/23 13:40:30.1     432     87    214    441    490  78.5  27.8  34256  291.19 0854.34
2009/04/23 13:40:30.2     439     98    204    450    494  77.3  26.2  34272  291.46 0854.34
2009/04/23 13:40:30.3     426    177    323    462    563  67.4  38.5  34260  291.26 0854.34
2009/04/23 13:40:30.4     399     64    280    405    492  80.9  38.0  34272  291.46 0854.34
2009/04/23 13:40:30.5     508    158    280    532    601  72.7  30.1  34252  291.12 0854.37
2009/04/23 13:40:30.6     499     65    338    504    606  82.6  37.1  34236  290.87 0854.37
2009/04/23 13:40:30.7     512    129    254    528    585  75.8  27.7  34226  290.69 0854.37
2009/04/23 13:40:30.8     438    145    125    462    479  71.6  15.1  34202  290.30 0854.37
2009/04/23 13:40:30.9     403    151    158    431    459  69.4  21.0  34194  290.14 0854.37
2009/04/23 13:40:31.0     265    146    197    303    361  61.1  36.0  34198  290.20 0854.37
2009/04/23 13:40:31.1     274     92    179    290    340  71.4  34.8  34224  290.65 0854.37
2009/04/23 13:40:31.2     134     45    186    142    234  71.4  58.7  34210  290.41 0854.37
2009/04/23 13:40:31.3      50     25    166     57    175  62.9  81.2  34196  290.19 0854.37
2009/04/23 13:40:31.4       2     70    155     71    170   1.8  73.8  34192  290.11 0854.37
2009/04/23 13:40:31.5      10    132     92    133    161   4.5  38.0  34200  290.26 0854.37
2009/04/23 13:40:31.6      -9    120     98    121    155 355.5  43.7  34212  290.47 0854.37
2009/04/23 13:40:31.7       8    104    101    105    145   4.4  49.0  34202  290.28 0854.37
2009/04/23 13:40:31.8     -58    -60     74     84    111 223.7  46.4  34196  290.18 0854.37
2009/04/23 13:40:31.9     -96      6    -29     97    102 273.9 -17.0  34192  290.13 0854.37
2009/04/23 13:40:32.0    -318    -33    -96    320    335 264.0 -16.8  34192  290.13 0854.37
2009/04/23 13:40:32.1    -393   -213    -89    448    457 241.5 -11.3  34184  289.99 0854.37
2009/04/23 13:40:32.2    -433   -336   -171    549    575 232.2 -22.3  34190  290.09 0854.37
2009/04/23 13:40:32.3    -216   -440   -144    491    512 206.2 -16.4  34188  290.06 0854.37
2009/04/23 13:40:32.4    -318     28    -49    320    324 275.1  -8.7  34184  289.97 0854.37
2009/04/23 13:40:32.5    -457    -78   -144    464    486 260.3 -17.3  34190  290.08 0854.41
2009/04/23 13:40:32.6    -481   -250   -168    543    568 242.5 -22.2  34184  289.99 0854.41
2009/04/23 13:40:32.7    -570   -127    -32    585    586 257.4  -3.1  34194  290.14 0854.41
2009/04/23 13:40:32.8    -503   -385   -140    634    650 232.6 -12.5  34190  290.08 0854.41
2009/04/23 13:40:32.9    -216   -293    -74    365    373 216.4 -11.6  34192  290.11 0854.41
2009/04/23 13:40:33.0     -64   -410     81    416    425 188.9  11.1  34184  289.97 0854.41
2009/04/23 13:40:33.1    -115   -345     17    364    365 198.5   2.8  34190  290.08 0854.41
2009/04/23 13:40:33.2    -126   -509     54    525    528 193.9   5.9  34198  290.23 0854.41
2009/04/23 13:40:33.3    -216   -525    -54    568    571 202.4  -5.5  34206  290.36 0854.41
2009/04/23 13:40:33.4     -50   -496     95    499    509 185.8  10.8  34200  290.25 0854.41
2009/04/23 13:40:33.5     -56   -421    115    425    441 187.7  15.2  34198  290.22 0854.41
2009/04/23 13:40:33.6     -55   -380     99    385    398 188.2  14.5  34192  290.11 0854.41
2009/04/23 13:40:33.7     108   -347     84    364    374 162.7  13.1  34192  290.10 0854.41
2009/04/23 13:40:33.8     154   -465      7    490    491 161.6   0.9  34186  290.00 0854.41
2009/04/23 13:40:33.9     156   -471   -117    497    511 161.7 -13.3  34184  289.98 0854.41
2009/04/23 13:40:34.0     136   -391    -53    415    419 160.8  -7.3  34184  289.97 0854.41
2009/04/23 13:40:34.1     120   -344     37    365    367 160.7   5.8  34192  290.11 0854.41
2009/04/23 13:40:34.2     100   -351    139    365    390 164.1  21.8  34182  289.94 0854.41
2009/04/23 13:40:34.3      51   -173    136    181    226 163.3  40.9  34186  290.02 0854.41
2009/04/23 13:40:34.4      28   -271    199    273    337 174.0  39.7  34182  289.93 0854.41
2009/04/23 13:40:34.5      26   -179    224    181    287 171.5  56.9  34184  289.98 0854.42
2009/04/23 13:40:34.6     172   -132    233    217    318 127.5  52.2  34192  290.10 0854.42
2009/04/23 13:40:34.7     -18    -78    197     81    213 192.9  76.8  34194  290.16 0854.42
2009/04/23 13:40:34.8      -6   -198    244    199    314 182.0  56.8  34184  289.97 0854.42
2009/04/23 13:40:34.9      -7   -377    223    378    438 181.2  33.4  34192  290.11 0854.42
2009/04/23 13:40:35.0      74   -369    210    377    431 168.6  31.4  34182  289.94 0854.42
2009/04/23 13:40:35.1     -41   -463    129    465    483 185.1  15.6  34188  290.03 0854.42
2009/04/23 13:40:35.2      34   -494    211    496    539 176.0  24.5  34184  289.99 0854.42
2009/04/23 13:40:35.3      16   -452    227    453    506 177.9  28.7  34184  289.98 0854.42
2009/04/23 13:40:35.4     -38   -493    191    495    530 184.5  22.3  34182  289.96 0854.42
2009/04/23 13:40:35.5     -86   -455    162    464    491 190.7  20.0  34188  290.05 0854.42
2009/04/23 13:40:35.6    -156   -412    118    441    457 200.8  15.0  34184  289.99 0854.42
2009/04/23 13:40:35.7    -224   -386    122    447    464 210.1  15.3  34184  289.99 0854.42
2009/04/23 13:40:35.8    -275   -453     69    531    536 211.3   7.4  34184  289.99 0854.42
2009/04/23 13:40:35.9    -348   -490      3    602    603 215.4   0.3  34184  289.97 0854.42
2009/04/23 13:40:36.0    -276   -441    -47    521    524 212.0  -5.2  34184  289.97 0854.42
2009/04/23 13:40:36.1    -332   -145     34    363    365 246.4   5.4  34178  289.87 0854.42
2009/04/23 13:40:36.2    -236    -75    -85    248    263 252.3 -19.1  34182  289.93 0854.42
2009/04/23 13:40:36.3     -69     25     55     74     92 290.0  40.7  34188  290.06 0854.42
2009/04/23 13:40:36.4    -122    -55    -20    134    136 245.6  -8.8  34186  290.02 0854.42
2009/04/23 13:40:36.5     -24    -81   -106     85    135 196.9 -61.3  34186  290.01 0854.45
2009/04/23 13:40:36.6    -225    -71     66    236    246 252.5  15.6  34184  289.97 0854.45
2009/04/23 13:40:36.7    -301    217     70    372    379 305.9  10.7  34186  290.01 0854.45
2009/04/23 13:40:36.8    -698    -14     20    699    700 268.8   1.7  34196  290.17 0854.45
2009/04/23 13:40:36.9    -543    -66    -64    548    552 263.0  -6.7  34192  290.11 0854.45
2009/04/23 13:40:37.0    -325   -214    -71    390    397 236.7 -10.4  34188  290.03 0854.45
2009/04/23 13:40:37.2    -140   -295   -111    327    345 205.5 -23.7  34192  290.13 0854.45
2009/04/23 13:40:37.2    -243   -176    -85    301    313 234.0 -15.8  34188  290.03 0854.45
2009/04/23 13:40:37.3    -237   -111     -5    262    263 244.9  -1.3  34178  289.88 0854.45
2009/04/23 13:40:37.4    -240    152     44    285    289 302.4   8.9  34190  290.09 0854.45
2009/04/23 13:40:37.5    -245    -30    -44    247    252 262.8 -10.3  34184  289.97 0854.45
2009/04/23 13:40:37.6     -92   -145    -23    172    174 212.5  -7.7  34188  290.04 0854.45
2009/04/23 13:40:37.7    -194   -140   -130    240    272 234.0 -35.4  34188  290.03 0854.45
2009/04/23 13:40:37.8    -106    -58   -189    122    224 241.2 -69.0  34180  289.92 0854.45
2009/04/23 13:40:37.9    -178     20   -123    180    218 276.6 -42.0  34184  289.99 0854.45
2009/04/23 13:40:38.0    -241    138     23    278    280 299.8   4.9  34184  289.98 0854.45
2009/04/23 13:40:38.1    -193     -3   -189    194    270 269.1 -53.8  34186  290.02 0854.45
2009/04/23 13:40:38.2    -251   -148   -230    292    371 239.4 -46.6  34188  290.04 0854.45
2009/04/23 13:40:38.4    -192   -282   -199    342    395 214.2 -37.2  34186  290.01 0854.45
2009/04/23 13:40:38.4     -74   -296   -187    306    358 194.0 -38.6  34186  290.01 0854.45
2009/04/23 13:40:38.5    -119    -95    -39    153    158 231.4 -14.3  34178  289.87 0854.42
2009/04/23 13:40:38.6    -446     -6   -156    447    473 269.1 -24.4  34178  289.88 0854.42
2009/04/23 13:40:38.7    -380     74     18    388    389 281.1   2.8  34188  290.06 0854.42
2009/04/23 13:40:38.8    -281    138    -46    314    318 296.2  -8.4  34190  290.07 0854.42
2009/04/23 13:40:38.9    -316    -35   -121    318    340 263.6 -26.1  34194  290.16 0854.42
2009/04/23 13:40:39.0    -245    -85   -105    260    280 250.7 -27.5  34192  290.10 0854.42
2009/04/23 13:40:39.1    -253     34     67    256    265 277.7  14.7  34192  290.12 0854.42
2009/04/23 13:40:39.2    -377    -95    -15    389    390 255.8  -2.2  34184  289.98 0854.42
2009/04/23 13:40:39.3    -393   -460   -104    606    616 220.5  -9.8  34176  289.85 0854.42
2009/04/23 13:40:39.4    -398   -328   -123    516    531 230.5 -13.4  34182  289.94 0854.42
2009/04/23 13:40:39.6    -205   -225    -11    305    306 222.3  -2.2  34184  289.97 0854.42
2009/04/23 13:40:39.6    -323   -159     52    361    365 243.8   8.2  34186  290.01 0854.42
2009/04/23 13:40:39.7    -272   -179     58    326    332 236.7  10.2  34186  290.01 0854.42
2009/04/23 13:40:39.8    -299    -50    -89    304    316 260.5 -21.1  34184  289.98 0854.42
2009/04/23 13:40:39.9     -32   -259    -23    262    264 187.1  -5.1  34190  290.07 0854.42
2009/04/23 13:40:40.0    -184   -259   -110    318    337 215.4 -19.1  34182  289.94 0854.42
2009/04/23 13:40:40.1     -93    -75    -82    120    145 230.9 -42.0  34186  290.01 0854.42
2009/04/23 13:40:40.2     -49   -194    -61    201    210 194.3 -22.1  34186  290.01 0854.42
2009/04/23 13:40:40.3      -2   -256    -77    257    268 180.5 -21.7  34182  289.93 0854.42
2009/04/23 13:40:40.4     -74   -364   -112    372    388 191.5 -21.7  34182  289.93 0854.42
2009/04/23 13:40:40.5     -91   -479    -32    488    490 190.8  -3.8  34178  289.86 0854.38
2009/04/23 13:40:40.6    -148   -437    -43    462    465 198.7  -5.3  34184  289.97 0854.38
2009/04/23 13:40:40.8    -121   -549    -34    563    565 192.5  -3.5  34186  290.01 0854.38
2009/04/23 13:40:40.8     -81   -576   -126    582    596 188.0 -12.3  34186  290.00 0854.38
2009/04/23 13:40:40.9    -102   -486    -54    497    500 191.9  -6.2  34188  290.03 0854.38
2009/04/23 13:40:41.0    -104   -472    133    484    503 192.5  15.4  34180  289.91 0854.38
2009/04/23 13:40:41.1    -219   -424    227    478    529 207.3  27.2  34184  289.98 0854.38
2009/04/23 13:40:41.2    -153   -351    235    384    450 203.6  34.4  34184  289.99 0854.38
2009/04/23 13:40:41.3      40   -307     74    310    319 172.4  13.5  34182  289.93 0854.38
2009/04/23 13:40:41.4      59   -142     -6    154    155 157.3  -2.2  34186  290.01 0854.38
2009/04/23 13:40:41.5      97   -184    -38    209    213 152.1 -10.5  34182  289.96 0854.38
2009/04/23 13:40:41.6     -92   -305   -112    319    339 196.9 -19.3  34186  290.01 0854.38
2009/04/23 13:40:41.7    -154   -298     77    336    345 207.3  12.9  34188  290.03 0854.38
2009/04/23 13:40:41.8    -165   -302     97    345    359 208.7  15.7  34184  289.99 0854.38
2009/04/23 13:40:41.9      31   -222     28    225    227 171.9   7.2  34186  290.02 0854.38
2009/04/23 13:40:42.0     154   -153     21    218    220 134.7   5.7  34184  289.99 0854.38
2009/04/23 13:40:42.1      49     -6    140     50    148  97.0  79.7  34182  289.96 0854.38
2009/04/23 13:40:42.2      82     38    211     91    229  64.8  75.0  34184  289.99 0854.38
2009/04/23 13:40:42.3      34     11    177     36    180  71.4  89.1  34188  290.04 0854.38
2009/04/23 13:40:42.4      29    107    182    111    213  15.2  65.7  34188  290.06 0854.38
2009/04/23 13:40:42.5      -5     41    137     42    143 352.9  82.7  34188  290.06 0854.37
2009/04/23 13:40:42.6     -47     64    151     80    170 323.9  70.0  34186  290.01 0854.37
2009/04/23 13:40:42.7     -66     18    106     69    126 285.9  64.6  34188  290.06 0854.37
2009/04/23 13:40:42.8      44    -28    114     53    125 122.4  73.5  34182  289.96 0854.37
2009/04/23 13:40:42.9     134   -222    113    260    283 149.0  25.1  34182  289.95 0854.37
2009/04/23 13:40:43.0     148   -233     34    277    280 147.5   7.1  34184  289.97 0854.37
2009/04/23 13:40:43.1     195   -278     48    340    344 145.0   8.1  34184  289.99 0854.37
2009/04/23 13:40:43.2      34   -315     70    317    325 173.8  12.5  34178  289.86 0854.37
2009/04/23 13:40:43.3     -64   -305     83    312    323 192.0  14.9  34184  289.98 0854.37
2009/04/23 13:40:43.4     -30   -242    161    244    292 187.1  36.5  34182  289.95 0854.37
2009/04/23 13:40:43.5     -40   -181    174    186    254 192.5  47.9  34186  290.00 0854.37
2009/04/23 13:40:43.6     -82   -167    167    187    250 206.1  46.4  34186  290.01 0854.37
2009/04/23 13:40:43.8     -30   -179    127    182    221 189.6  38.0  34184  289.99 0854.37
2009/04/23 13:40:43.9     -10   -247    139    248    284 182.5  31.4  34184  289.97 0854.37
2009/04/23 13:40:44.0      18   -389    211    390    443 177.2  30.8  34186  290.02 0854.37
2009/04/23 13:40:44.1     101   -441    263    453    523 167.0  32.9  34178  289.86 0854.37
2009/04/23 13:40:44.2     105   -438    299    451    541 166.5  36.6  34186  290.00 0854.37
2009/04/23 13:40:44.3       9   -445    265    446    518 178.8  33.5  34182  289.95 0854.37
2009/04/23 13:40:44.4     104   -289    304    308    432 160.2  49.9  34180  289.91 0854.37
2009/04/23 13:40:44.5     -75   -442    242    449    510 189.7  30.7  34182  289.93 0854.37
2009/04/23 13:40:44.6    -181   -355    244    399    467 207.1  34.4  34190  290.07 0854.35
2009/04/23 13:40:44.7      16   -117    188    119    222 172.0  64.7  34194  290.14 0854.35
2009/04/23 13:40:44.8     -38   -201    112    205    233 190.7  31.3  34186  290.01 0854.35
2009/04/23 13:40:44.9    -109     -1    218    110    244 269.2  71.4  34170  289.74 0854.35
2009/04/23 13:40:45.0      18   -128    121    130    177 171.9  47.9  34186  290.01 0854.35
2009/04/23 13:40:45.1     211   -224    291    308    423 136.7  48.2  34184  289.99 0854.35
2009/04/23 13:40:45.2     -13   -310    230    311    386 182.5  40.0  34184  289.98 0854.35
2009/04/23 13:40:45.3     129   -216    246    252    352 149.2  49.4  34180  289.90 0854.35
2009/04/23 13:40:45.4     -54    -55    205     78    219 224.2  78.4  34180  289.92 0854.35
2009/04/23 13:40:45.5     -28     14    304     32    305 297.1  90.0  34180  289.92 0854.35
2009/04/23 13:40:45.6     -32    -58    156     67    169 209.0  75.3  34186  290.02 0854.35
2009/04/23 13:40:45.7    -118   -142    -65    185    197 219.7 -19.4  34184  289.97 0854.35
2009/04/23 13:40:45.8    -313   -293    252    429    497 226.9  33.1  34186  290.01 0854.35
2009/04/23 13:40:45.9    -248   -399    298    471    557 211.9  35.5  34182  289.94 0854.35
2009/04/23 13:40:46.0      70   -249    277    259    379 164.2  52.1  34178  289.89 0854.35
2009/04/23 13:40:46.1     -47   -381    395    384    550 187.1  51.1  34188  290.03 0854.35
2009/04/23 13:40:46.2    -101   -394    396    407    567 194.4  49.0  34182  289.96 0854.35
2009/04/23 13:40:46.3     -59   -224    234    232    329 194.9  50.0  34188  290.03 0854.35
2009/04/23 13:40:46.4    -238   -352    224    426    481 214.1  30.0  34180  289.92 0854.35
2009/04/23 13:40:46.5    -416   -281     62    503    507 235.9   7.1  34188  290.03 0854.35
2009/04/23 13:40:46.6    -216   -392      5    448    449 208.9   0.7  34184  289.99 0854.30
2009/04/23 13:40:46.7    -202   -371     20    423    424 208.6   2.8  34190  290.07 0854.30
2009/04/23 13:40:46.8     -79   -193    210    209    296 202.3  50.1  34182  289.93 0854.30
2009/04/23 13:40:46.9     -51   -371    211    375    430 187.9  31.7  34184  289.99 0854.30
2009/04/23 13:40:47.0    -132   -222    221    259    340 210.7  45.0  34180  289.90 0854.30
2009/04/23 13:40:47.1    -157   -128    219    203    298 230.7  52.2  34194  290.15 0854.30
2009/04/23 13:40:47.2     -94      0    106     95    142 270.0  53.3  34198  290.23 0854.30
2009/04/23 13:40:47.3      36   -208    148    212    258 170.0  38.5  34184  289.97 0854.30
2009/04/23 13:40:47.4      52   -305    216    310    377 170.2  38.4  34188  290.03 0854.30
2009/04/23 13:40:47.5      58   -261    188    268    327 167.3  38.5  34190  290.07 0854.30
2009/04/23 13:40:47.6     -16   -211    230    212    312 184.4  52.6  34188  290.05 0854.30
2009/04/23 13:40:47.7       0      7    131      8    131   4.5  90.0  34186  290.01 0854.30
2009/04/23 13:40:47.8       8     45    165     46    171  10.7  84.4  34192  290.13 0854.30
2009/04/23 13:40:47.9      74     31    185     81    201  67.4  75.0  34192  290.11 0854.30
2009/04/23 13:40:48.0      -3     47    145     48    152 355.5  80.7  34192  290.13 0854.30
2009/04/23 13:40:48.1      52     40    121     66    137  52.2  68.9  34190  290.08 0854.30
2009/04/23 13:40:48.2       1     83     90     84    123   0.9  52.1  34188  290.04 0854.30
2009/04/23 13:40:48.3     -53     86    106    102    147 328.4  51.2  34190  290.08 0854.30
2009/04/23 13:40:48.4     -74     81     65    110    127 317.7  33.5  34188  290.06 0854.30
2009/04/23 13:40:48.5     -61     63     97     88    130 315.9  53.3  34188  290.04 0854.30
2009/04/23 13:40:48.6    -103    150     85    183    201 325.5  26.6  34184  289.99 0854.27
2009/04/23 13:40:48.7    -198     58     32    207    210 286.4   8.9  34188  290.04 0854.27
2009/04/23 13:40:48.8    -316     -4     41    317    320 269.2   7.5  34204  290.31 0854.27
2009/04/23 13:40:48.9    -260      2      8    261    262 270.6   1.8  34216  290.51 0854.27
2009/04/23 13:40:49.0    -185     94    113    208    236 296.9  30.8  34204  290.31 0854.27
2009/04/23 13:40:49.1    -176     67    153    189    243 291.1  43.0  34198  290.21 0854.27
2009/04/23 13:40:49.2    -251    -21    140    252    288 265.0  31.4  34194  290.15 0854.27
2009/04/23 13:40:49.3    -273    -48    117    278    301 259.9  24.1  34190  290.09 0854.27
2009/04/23 13:40:49.4    -329    -83     22    340    341 255.7   3.8  34194  290.16 0854.27
2009/04/23 13:40:49.5    -197    105    133    224    260 298.0  33.5  34190  290.09 0854.27
2009/04/23 13:40:49.6    -137     75      8    157    158 298.9   2.9  34190  290.08 0854.32
2009/04/23 13:40:49.7    -117     86     47    146    154 306.4  18.1  34190  290.08 0854.32
2009/04/23 13:40:49.8    -227    176    117    288    310 307.7  23.1  34194  290.14 0854.32
2009/04/23 13:40:49.9    -166    127    113    210    238 307.5  30.6  34190  290.09 0854.32
2009/04/23 13:40:50.0    -130    185     72    227    239 324.8  17.7  34192  290.12 0854.32
2009/04/23 13:40:50.1    -167    177     72    244    255 316.8  16.4  34192  290.12 0854.32
2009/04/23 13:40:50.2     -80    190     40    207    211 337.1  11.1  34190  290.09 0854.32
2009/04/23 13:40:50.3     -13    209     68    210    221 356.2  17.9  34192  290.13 0854.32
2009/04/23 13:40:50.4     -12    116     46    117    125 353.8  22.5  34196  290.18 0854.32
2009/04/23 13:40:50.5     -98    118     77    154    172 320.4  28.2  34198  290.21 0854.32
2009/04/23 13:40:50.6     -89     89     57    127    139 315.0  26.2  34198  290.23 0854.32
2009/04/23 13:40:50.7     -45     55     62     72     95 320.4  45.4  34198  290.21 0854.32
2009/04/23 13:40:50.8      68     18    108     71    129  74.9  64.1  34200  290.25 0854.32
2009/04/23 13:40:50.9     118    168    153    206    256  35.0  40.1  34200  290.26 0854.32
2009/04/23 13:40:51.0     222    181    127    287    313  50.7  25.6  34198  290.20 0854.32
2009/04/23 13:40:51.1     194    185     92    269    285  46.4  18.9  34198  290.22 0854.32
2009/04/23 13:40:51.2     173    114    120    208    240  56.5  32.4  34196  290.19 0854.32
2009/04/23 13:40:51.3      55     52    123     76    144  46.8  64.7  34200  290.25 0854.32
2009/04/23 13:40:51.4     128     21    182    130    223  80.4  60.8  34198  290.21 0854.32
2009/04/23 13:40:51.5     127     81    144    151    208  57.5  48.7  34218  290.57 0854.32
2009/04/23 13:40:51.6     114     63     82    131    154  61.2  35.5  34230  290.75 0854.36
2009/04/23 13:40:51.7      26     25    124     37    129  46.7  82.8  34236  290.86 0854.36
2009/04/23 13:40:51.8      75     43    134     87    159  59.8  64.1  34218  290.57 0854.36
2009/04/23 13:40:51.9      79    -20     77     82    112 104.6  48.0  34212  290.45 0854.36
2009/04/23 13:40:52.0      49      3     96     50    108  85.6  70.8  34210  290.43 0854.36
2009/04/23 13:40:52.1      46     96     86    107    137  25.5  43.7  34226  290.70 0854.36
2009/04/23 13:40:52.2     -17    103     47    105    115 350.7  26.2  34220  290.58 0854.36
2009/04/23 13:40:52.3      64    101    104    120    158  32.5  45.4  34222  290.64 0854.36
2009/04/23 13:40:52.4      95    178     58    202    211  28.1  16.0  34222  290.62 0854.36
2009/04/23 13:40:52.5      16    211     58    212    220   4.4  15.3  34220  290.60 0854.36
2009/04/23 13:40:52.6    -121    167     83    207    223 324.0  23.0  34212  290.47 0854.36
2009/04/23 13:40:52.7     -76    -85    119    115    165 221.9  50.9  34200  290.25 0854.36
2009/04/23 13:40:52.8      73   -178    153    193    246 157.7  42.7  34190  290.09 0854.36
2009/04/23 13:40:52.9     -35   -118    177    124    216 196.5  61.3  34192  290.11 0854.36
2009/04/23 13:40:53.0    -140   -122     80    186    202 228.9  24.9  34208  290.38 0854.36
2009/04/23 13:40:53.1    -160   -154     97    223    243 226.0  25.1  34208  290.37 0854.36
2009/04/23 13:40:53.2    -168   -168    131    239    272 225.0  31.3  34204  290.31 0854.36
2009/04/23 13:40:53.3    -229   -106     78    253    265 245.2  17.3  34212  290.46 0854.36
2009/04/23 13:40:53.4    -236   -148     87    279    293 237.8  17.3  34216  290.51 0854.36
2009/04/23 13:40:53.5    -216   -162     73    271    281 233.1  15.2  34212  290.44 0854.36
2009/04/23 13:40:53.6    -148   -143     89    206    224 226.0  24.9  34212  290.45 0854.39
2009/04/23 13:40:53.7    -198   -143     99    245    264 234.0  23.1  34206  290.36 0854.39
2009/04/23 13:40:53.8    -128    -98     98    162    189 232.7  34.2  34198  290.23 0854.39
2009/04/23 13:40:53.9     -69   -179    157    193    248 201.2  43.5  34190  290.09 0854.39
2009/04/23 13:40:54.0    -102   -144    106    177    206 215.2  33.5  34186  290.02 0854.39
2009/04/23 13:40:54.1     -49    -59     74     77    106 219.7  49.0  34192  290.13 0854.39
2009/04/23 13:40:54.2     -53    -65     81     84    116 219.2  49.4  34194  290.16 0854.39
2009/04/23 13:40:54.3     -53    -74     84     92    124 215.6  47.5  34200  290.25 0854.39
2009/04/23 13:40:54.4     -66   -139     82    154    174 205.5  30.3  34192  290.13 0854.39
2009/04/23 13:40:54.5     -25   -175     99    177    202 188.2  31.9  34190  290.09 0854.39
2009/04/23 13:40:54.6     -35   -149    140    154    208 193.3  47.1  34192  290.13 0854.39
2009/04/23 13:40:54.7       6   -143    151    144    208 177.3  51.4  34192  290.11 0854.39
2009/04/23 13:40:54.8     -25   -147    110    150    186 189.8  39.9  34192  290.13 0854.39
2009/04/23 13:40:54.9     -22   -134    104    136    171 189.3  41.4  34190  290.08 0854.39
2009/04/23 13:40:55.0     -16    -82    121     84    147 191.6  61.5  34192  290.11 0854.39
2009/04/23 13:40:55.1     -77    -76    115    109    158 225.4  51.4  34192  290.13 0854.39
2009/04/23 13:40:55.2    -179     13     94    180    203 274.3  29.8  34208  290.38 0854.39
2009/04/23 13:40:55.3    -165    -23     41    167    173 261.9  13.9  34206  290.35 0854.39
2009/04/23 13:40:55.4    -111    -41     95    119    152 249.6  43.7  34206  290.35 0854.39
2009/04/23 13:40:55.5     -77     15     85     79    116 281.5  52.1  34206  290.35 0854.40
2009/04/23 13:40:55.6     -38    -40     78     56     96 224.1  61.1  34212  290.45 0854.40
2009/04/23 13:40:55.7     -75     -6     88     76    116 264.8  54.8  34210  290.43 0854.40
2009/04/23 13:40:55.8    -140    -41     87    146    169 253.6  33.7  34212  290.47 0854.40
2009/04/23 13:40:55.9    -149    -46     96    157    184 252.7  34.8  34214  290.50 0854.40
2009/04/23 13:40:56.0    -136    -41     74    143    161 253.1  29.5  34214  290.48 0854.40
2009/04/23 13:40:56.1    -108    -31     93    113    146 253.6  43.7  34222  290.62 0854.40
2009/04/23 13:40:56.2    -135     -4    107    136    173 268.3  42.2  34232  290.79 0854.40
2009/04/23 13:40:56.3    -173    -12     72    174    188 265.9  23.6  34232  290.81 0854.40
2009/04/23 13:40:56.4    -154    -41     85    160    181 254.9  30.3  34228  290.72 0854.40
2009/04/23 13:40:56.5    -172    -59     84    183    201 250.9  26.2  34216  290.52 0854.40
2009/04/23 13:40:56.6    -179    -49     64    186    197 254.7  19.2  34212  290.45 0854.40
2009/04/23 13:40:56.7    -117    -29     14    121    122 255.8   6.9  34198  290.21 0854.40
2009/04/23 13:40:56.8     -76    -98     30    125    129 217.8  13.7  34194  290.14 0854.40
2009/04/23 13:40:56.9    -218    -29     -4    220    221 262.3  -1.1  34204  290.33 0854.40
2009/04/23 13:40:57.0    -229    -62     46    238    243 254.9  11.0  34214  290.48 0854.40
2009/04/23 13:40:57.1    -239    -40     57    243    250 260.4  13.2  34224  290.66 0854.40
2009/04/23 13:40:57.2    -155   -128     18    202    203 230.4   5.2  34210  290.41 0854.40
2009/04/23 13:40:57.3     -93   -137     51    166    174 214.3  17.3  34194  290.14 0854.40
2009/04/23 13:40:57.4    -109   -109     30    155    159 225.1  11.1  34192  290.11 0854.40
2009/04/23 13:40:57.5    -140    -66    -50    155    163 244.7 -17.9  34218  290.57 0854.41
2009/04/23 13:40:57.6    -119    -79     -2    144    145 236.3  -1.2  34206  290.36 0854.41
2009/04/23 13:40:57.7     -75    -90     35    118    124 220.1  16.8  34204  290.33 0854.41
2009/04/23 13:40:57.8     -87   -142     66    167    179 211.4  22.8  34192  290.13 0854.41
2009/04/23 13:40:57.9     -69   -132     53    150    160 207.6  19.4  34190  290.09 0854.41
2009/04/23 13:40:58.0    -116    -26     79    119    142 257.2  36.5  34194  290.16 0854.41
2009/04/23 13:40:58.1     -77   -117     81    141    162 213.4  32.7  34196  290.19 0854.41
2009/04/23 13:40:58.2    -185   -152     -9    240    241 230.7  -2.2  34198  290.22 0854.41
2009/04/23 13:40:58.3    -238   -112      4    264    265 244.8   1.0  34218  290.56 0854.41
2009/04/23 13:40:58.4    -432    -12    -74    433    440 268.3  -9.7  34244  291.01 0854.41
2009/04/23 13:40:58.5    -397     22    -46    398    401 273.3  -6.7  34190  290.08 0854.41
2009/04/23 13:40:58.6    -284    -32    -68    286    295 263.4 -13.4  34188  290.03 0854.41
2009/04/23 13:40:58.7    -302    -22   -100    303    320 265.7 -18.3  34188  290.03 0854.41
2009/04/23 13:40:58.8    -369   -180     -9    411    412 243.9  -1.3  34232  290.78 0854.41
2009/04/23 13:40:58.9    -309    -60    141    315    345 259.0  25.9  34232  290.79 0854.41
2009/04/23 13:40:59.0    -298    -83     99    310    326 254.3  17.8  34220  290.59 0854.41
2009/04/23 13:40:59.1    -284    -58     85    291    304 258.3  16.3  34226  290.70 0854.41
2009/04/23 13:40:59.2    -287   -105    -22    306    307 249.8  -4.1  34204  290.32 0854.41
2009/04/23 13:40:59.3    -241    -68     -5    251    252 254.1  -1.2  34222  290.61 0854.41
2009/04/23 13:40:59.4    -216   -146    -17    261    262 235.9  -3.7  34222  290.61 0854.41
2009/04/23 13:40:59.5    -254   -162     58    302    308 237.5  11.0  34204  290.31 0854.42
2009/04/23 13:40:59.6    -258   -140     57    294    300 241.4  11.1  34206  290.34 0854.42
2009/04/23 13:40:59.7    -262   -103     38    282    285 248.5   7.8  34218  290.56 0854.42
2009/04/23 13:40:59.8    -210   -115     33    240    243 241.1   8.0  34216  290.53 0854.42
2009/04/23 13:40:59.9    -241   -152     27    285    287 237.8   5.4  34218  290.56 0854.42
2009/04/23 13:41:00.0    -251   -146     -5    291    292 239.8  -1.2  34234  290.83 0854.42
2009/04/23 13:41:00.1    -242   -144     14    282    283 239.3   2.9  34208  290.39 0854.42
2009/04/23 13:41:00.2    -257   -101     41    277    281 248.5   8.5  34236  290.85 0854.42
2009/04/23 13:41:00.3    -290    -96    -72    306    315 251.6 -13.3  34218  290.54 0854.42
2009/04/23 13:41:00.4    -272    -91    -28    288    290 251.4  -5.6  34226  290.68 0854.42
2009/04/23 13:41:00.5    -264   -124      3    292    293 244.8   0.7  34236  290.85 0854.42
2009/04/23 13:41:00.6    -211   -140    -33    254    257 236.5  -7.5  34202  290.27 0854.42
2009/04/23 13:41:00.7    -260    -65     23    269    271 255.9   5.0  34214  290.48 0854.42
2009/04/23 13:41:00.8    -185   -168    -80    251    263 227.8 -22.9  34196  290.17 0854.42
2009/04/23 13:41:00.9    -232   -164    -36    285    288 234.7  -7.3  34198  290.22 0854.42
2009/04/23 13:41:01.0    -275   -130    -24    305    307 244.7  -4.6  34220  290.58 0854.42
2009/04/23 13:41:01.1    -211   -100    -69    234    245 244.7 -16.5  34222  290.63 0854.42
2009/04/23 13:41:01.2    -231   -119    -52    260    266 242.7 -11.3  34216  290.53 0854.42
2009/04/23 13:41:01.3    -206    -86    -58    224    232 247.2 -14.5  34228  290.74 0854.42
2009/04/23 13:41:01.4    -264     28     -2    266    267 276.1  -0.5  34214  290.48 0854.42
2009/04/23 13:41:01.5    -273      4     29    274    276 271.0   6.1  34222  290.61 0854.43
2009/04/23 13:41:01.6    -280    -19    101    281    298 266.1  20.7  34226  290.70 0854.43
2009/04/23 13:41:01.7    -353    -72    -14    361    362 258.3  -2.3  34208  290.38 0854.43
2009/04/23 13:41:01.8    -256     36    124    259    287 278.1  27.3  34230  290.76 0854.43
2009/04/23 13:41:01.9    -263     -5     37    264    267 268.7   8.0  34218  290.56 0854.43
2009/04/23 13:41:02.0    -264    -84     20    278    279 252.3   4.2  34210  290.41 0854.43
2009/04/23 13:41:02.1    -191   -107     23    219    221 240.7   6.1  34214  290.48 0854.43
2009/04/23 13:41:02.2    -131    -61     28    145    148 244.8  11.1  34210  290.43 0854.43
2009/04/23 13:41:02.3    -129    -18     65    131    146 262.0  27.8  34224  290.67 0854.43
2009/04/23 13:41:02.4     -98    -35     36    105    112 250.5  18.9  34222  290.64 0854.43
2009/04/23 13:41:02.5    -198    -80      6    214    215 247.8   1.8  34252  291.13 0854.43
2009/04/23 13:41:02.6    -177   -120     76    215    229 235.8  19.4  34242  290.96 0854.43
2009/04/23 13:41:02.7    -150    -88     76    174    189 239.6  25.3  34230  290.75 0854.43
2009/04/23 13:41:02.8    -217   -113     30    245    247 242.5   7.1  34248  291.05 0854.43
2009/04/23 13:41:02.9    -211    -75     54    225    232 250.3  13.7  34266  291.37 0854.43
2009/04/23 13:41:03.0    -168    -73     60    184    194 246.5  18.1  34244  290.99 0854.43
2009/04/23 13:41:03.1    -104    -85      0    135    136 230.5   0.2  34234  290.84 0854.43
2009/04/23 13:41:03.2    -184   -101     66    211    222 241.1  17.3  34268  291.40 0854.43
2009/04/23 13:41:03.3    -194    -80     61    210    219 247.6  16.3  34268  291.42 0854.43
2009/04/23 13:41:03.4    -219    -76     36    233    236 250.7   8.9  34252  291.12 0854.43
2009/04/23 13:41:03.5    -221    -64     82    231    245 253.8  20.0  34258  291.24 0854.44
2009/04/23 13:41:03.6    -165    -78     26    183    185 244.7   8.2  34240  290.92 0854.44
2009/04/23 13:41:03.7    -206    -68      2    218    219 251.6   0.7  34238  290.91 0854.44
2009/04/23 13:41:03.8    -149     16    120    150    192 276.2  43.3  34236  290.87 0854.44
2009/04/23 13:41:03.9    -108     86    143    139    199 308.6  50.7  34232  290.81 0854.44
2009/04/23 13:41:04.0    -110    146    106    183    211 323.0  32.9  34234  290.84 0854.44
2009/04/23 13:41:04.1     -97    152     76    181    196 327.4  24.1  34236  290.87 0854.44
2009/04/23 13:41:04.2    -117     63     77    133    153 298.4  33.4  34238  290.91 0854.44
2009/04/23 13:41:04.3     -45     -3     95     46    105 265.6  72.8  34238  290.91 0854.44
2009/04/23 13:41:04.4     -92     18    108     94    143 281.4  54.3  34258  291.25 0854.44
2009/04/23 13:41:04.5    -136     23    146    138    200 279.7  52.0  34242  290.96 0854.44
2009/04/23 13:41:04.6      30     64    115     72    135  25.5  64.7  34250  291.11 0854.44
2009/04/23 13:41:04.7      34    184    202    188    275  10.7  52.2  34386  293.40 0854.44
2009/04/23 13:41:04.8      33    199    201    202    284   9.6  50.0  34382  293.35 0854.44
2009/04/23 13:41:04.9      72    133    216    152    264  28.5  61.5  34382  293.34 0854.44
2009/04/23 13:41:05.0      67    101    175    122    213  33.4  62.1  34352  292.85 0854.44
2009/04/23 13:41:05.1     117     57    188    131    229  63.8  61.8  34318  292.27 0854.44
2009/04/23 13:41:05.2     109    129    211    170    270  40.3  56.9  34214  290.49 0854.44
2009/04/23 13:41:05.3      31    310    249    312    399   5.8  42.7  34194  290.15 0854.44
2009/04/23 13:41:05.4     209    469    194    514    549  24.1  21.7  34222  290.62 0854.44
2009/04/23 13:41:05.5     144    448    171    471    501  17.9  20.8  34182  289.95 0854.45
2009/04/23 13:41:05.6     131    319    111    346    364  22.4  17.8  34190  290.08 0854.45
2009/04/23 13:41:05.7     118    259    146    285    320  24.5  29.2  34194  290.14 0854.45
2009/04/23 13:41:05.8     152    319    101    354    369  25.5  15.9  34190  290.08 0854.45
2009/04/23 13:41:05.9     208    202      4    291    292  45.8   0.8  34216  290.51 0854.45
2009/04/23 13:41:06.0      79    355   -144    364    391  12.7 -27.3  34184  289.98 0854.45
2009/04/23 13:41:06.1     180    326   -103    373    388  29.0 -15.5  34188  290.03 0854.45
2009/04/23 13:41:06.2     220    334    -88    401    411  33.4 -12.4  34216  290.53 0854.45
2009/04/23 13:41:06.3     244    293   -172    382    418  39.8 -30.4  34216  290.51 0854.45
2009/04/23 13:41:06.4     270    373     40    461    463  35.9   5.0  34206  290.36 0854.45
2009/04/23 13:41:06.5     578    303    -10    653    654  62.3  -0.9  34216  290.52 0854.45
2009/04/23 13:41:06.6     287    314    -89    426    436  42.4 -11.9  34220  290.60 0854.45
2009/04/23 13:41:06.7     313    170   -128    357    379  61.5 -25.0  34220  290.60 0854.45
2009/04/23 13:41:06.8     202    224    -79    302    313  42.1 -14.7  34230  290.75 0854.45
2009/04/23 13:41:06.9     246    112      3    271    272  65.6   0.8  34232  290.78 0854.45
2009/04/23 13:41:07.0     228    251    -43    340    343  42.2  -7.3  34228  290.71 0854.45
2009/04/23 13:41:07.1     320    150     46    354    357  64.8   7.5  34234  290.84 0854.45
2009/04/23 13:41:07.2     373    158    -34    406    408  67.0  -4.9  34222  290.61 0854.45
2009/04/23 13:41:07.3     538     63   -108    542    553  83.3 -11.3  34212  290.46 0854.45
2009/04/23 13:41:07.4     430     62   -138    435    457  81.7 -17.6  34214  290.48 0854.45
2009/04/23 13:41:07.5     459     69    -14    465    466  81.4  -1.8  34216  290.51 0854.48
2009/04/23 13:41:07.6     457     35     14    459    460  85.6   1.8  34218  290.55 0854.48
2009/04/23 13:41:07.7     494     42    185    496    529  85.0  21.5  34218  290.56 0854.48
2009/04/23 13:41:07.8     521    -57    164    525    551  96.3  17.4  34210  290.43 0854.48
2009/04/23 13:41:07.9     522   -133    229    539    585 104.3  24.5  34216  290.53 0854.48
2009/04/23 13:41:08.0     503    -38    196    505    541  94.4  22.4  34202  290.30 0854.48
2009/04/23 13:41:08.1     431   -212    185    481    515 116.2  22.1  34220  290.59 0854.48
2009/04/23 13:41:08.2     433   -116    158    449    475 105.1  20.1  34210  290.42 0854.48
2009/04/23 13:41:08.3     425   -135    134    447    467 107.7  16.8  34224  290.65 0854.48
2009/04/23 13:41:08.4     259   -152    183    301    352 120.4  34.2  34230  290.77 0854.48
2009/04/23 13:41:08.5     347   -155    185    381    423 114.1  27.7  34216  290.53 0854.48
2009/04/23 13:41:08.6     253    -84    122    267    293 108.4  26.2  34216  290.53 0854.48
2009/04/23 13:41:08.7     217     -9    154    218    266  92.6  38.6  34212  290.44 0854.48
2009/04/23 13:41:08.8     172   -153    -12    231    232 131.8  -3.2  34214  290.48 0854.48
2009/04/23 13:41:08.9     212   -100   -105    235    257 115.2 -30.1  34208  290.37 0854.48
2009/04/23 13:41:09.0      60   -368    125    374    395 170.7  18.5  34196  290.18 0854.48
2009/04/23 13:41:09.1     191   -412     88    455    464 155.1  11.0  34212  290.44 0854.48
2009/04/23 13:41:09.2     114   -350    162    369    402 162.0  25.2  34232  290.79 0854.48
2009/04/23 13:41:09.3      99   -356    247    370    444 164.4  36.9  34226  290.68 0854.48
2009/04/23 13:41:09.4      61   -340    226    346    413 169.8  36.3  34204  290.32 0854.48
2009/04/23 13:41:09.5     -46   -406    195    409    453 186.6  27.3  34238  290.90 0854.49
2009/04/23 13:41:09.6     -94   -433    250    444    509 192.3  31.9  34228  290.71 0854.49
2009/04/23 13:41:09.7     -96   -534    203    543    579 190.3  21.5  34214  290.50 0854.49
2009/04/23 13:41:09.8       6   -483    221    484    532 179.3  26.2  34204  290.32 0854.49
2009/04/23 13:41:09.9    -146   -391    122    418    436 200.5  16.3  34234  290.82 0854.49
2009/04/23 13:41:10.0    -131   -332     86    358    369 201.6  13.5  34236  290.86 0854.49
2009/04/23 13:41:10.1      39   -317    137    320    348 172.9  24.5  34208  290.38 0854.49
2009/04/23 13:41:10.2      42   -266     73    270    280 170.9  15.2  34208  290.37 0854.49
2009/04/23 13:41:10.3     -15   -337     86    338    349 182.7  14.4  34198  290.21 0854.49
2009/04/23 13:41:10.4     -38   -356    103    359    374 186.2  16.0  34198  290.21 0854.49
2009/04/23 13:41:10.5     -64   -459    131    464    483 188.0  15.8  34196  290.18 0854.49
2009/04/23 13:41:10.6     -23   -415     95    416    427 183.2  12.9  34194  290.14 0854.49
2009/04/23 13:41:10.7     -80   -430    169    438    469 190.6  22.1  34200  290.26 0854.49
2009/04/23 13:41:10.8      34   -403    127    405    425 175.1  17.5  34198  290.21 0854.49
2009/04/23 13:41:10.9       3   -345    121    346    367 179.4  19.3  34198  290.20 0854.49
2009/04/23 13:41:11.0      60   -324    115    330    350 169.4  19.2  34202  290.27 0854.49
2009/04/23 13:41:11.1      87   -391     86    401    411 167.4  12.1  34204  290.31 0854.49
2009/04/23 13:41:11.2     118   -333     69    354    361 160.4  11.1  34198  290.21 0854.49
2009/04/23 13:41:11.3      50   -340    118    344    364 171.5  19.1  34204  290.32 0854.49
2009/04/23 13:41:11.4      74   -331     19    340    341 167.4   3.2  34202  290.28 0854.49
2009/04/23 13:41:11.6     160   -251    -11    298    299 147.5  -2.2  34206  290.34 0854.49
2009/04/23 13:41:11.7     135   -293    -35    323    325 155.3  -6.2  34204  290.31 0854.49
2009/04/23 13:41:11.8      89   -245    -90    261    277 160.0 -19.1  34208  290.37 0854.49
2009/04/23 13:41:11.9     141   -208    -65    252    261 145.7 -14.5  34206  290.34 0854.49
2009/04/23 13:41:12.0     114   -205     -2    235    236 150.8  -0.5  34204  290.32 0854.49
2009/04/23 13:41:12.1     151   -195     52    247    253 142.2  12.0  34204  290.32 0854.49
2009/04/23 13:41:12.2     113   -204     68    234    244 151.0  16.3  34206  290.36 0854.49
2009/04/23 13:41:12.3     100   -158     99    188    212 147.7  30.1  34204  290.31 0854.49
2009/04/23 13:41:12.4      94   -166     99    191    215 150.4  29.3  34206  290.36 0854.49
2009/04/23 13:41:12.5      60   -128    132    142    193 154.7  48.0  34204  290.33 0854.49
2009/04/23 13:41:12.6      58   -103    138    119    182 150.6  54.8  34204  290.31 0854.49
2009/04/23 13:41:12.7      88   -121     78    150    169 143.9  29.5  34200  290.26 0854.49
2009/04/23 13:41:12.8      66    -88     61    111    126 143.0  31.4  34198  290.23 0854.49
2009/04/23 13:41:12.9       0   -108     97    109    145 180.0  46.4  34194  290.16 0854.49
2009/04/23 13:41:13.0     -68   -157    131    172    216 203.6  41.4  34198  290.21 0854.49
2009/04/23 13:41:13.1     -59   -193    143    203    248 197.2  38.6  34196  290.19 0854.49
2009/04/23 13:41:13.2     -61   -112     59    128    140 208.5  26.6  34196  290.18 0854.49
2009/04/23 13:41:13.3     -70   -133    147    151    210 207.6  49.4  34192  290.11 0854.49
2009/04/23 13:41:13.4     -24   -168    166    170    237 188.2  49.4  34194  290.16 0854.49
2009/04/23 13:41:13.5     -97   -204    111    227    252 205.5  28.0  34196  290.19 0854.49
2009/04/23 13:41:13.6     -61   -156     37    168    173 201.6  12.6  34196  290.19 0854.49
2009/04/23 13:41:13.7     -69   -147     60    163    173 205.3  20.7  34194  290.16 0854.49
2009/04/23 13:41:13.8     -28   -140     90    143    168 191.5  35.5  34192  290.13 0854.49
2009/04/23 13:41:13.9     -89   -156     92    180    202 209.9  29.3  34192  290.13 0854.49
2009/04/23 13:41:14.0     -48    -79     30     93     98 211.2  18.4  34196  290.18 0854.49
2009/04/23 13:41:14.1      15    -21     -1     27     28 143.9  -2.2  34194  290.16 0854.49
2009/04/23 13:41:14.2      78    -42      7     89     90 118.4   4.9  34196  290.18 0854.49
2009/04/23 13:41:14.3      98    -20     35    101    108 101.9  19.4  34196  290.19 0854.49
2009/04/23 13:41:14.4     161    -62     56    173    183 111.1  18.1  34196  290.18 0854.49
2009/04/23 13:41:14.5     224    -50    131    230    264 102.8  32.1  34196  290.19 0854.49
2009/04/23 13:41:14.6     164    -16    171    165    237  95.9  51.2  34194  290.16 0854.46
2009/04/23 13:41:14.7     194     50     99    201    224  75.4  28.2  34198  290.23 0854.46
2009/04/23 13:41:14.8     156   -105    -37    189    193 124.0 -11.3  34198  290.21 0854.46
2009/04/23 13:41:14.9     168    -78     -7    186    187 114.8  -2.2  34194  290.16 0854.46
2009/04/23 13:41:15.0      56   -214     62    222    231 165.3  15.6  34192  290.13 0854.46
2009/04/23 13:41:15.1      49   -266     47    271    276 169.5   9.9  34196  290.17 0854.46
2009/04/23 13:41:15.2     100   -319     98    335    350 162.5  16.3  34194  290.15 0854.46
2009/04/23 13:41:15.3     165   -347     51    385    389 154.5   7.6  34198  290.20 0854.46
2009/04/23 13:41:15.4     262   -245     77    359    368 133.1  12.1  34198  290.20 0854.46
2009/04/23 13:41:15.5     160   -251    226    298    374 147.5  41.1  34198  290.21 0854.46
2009/04/23 13:41:15.6      29   -133    209    137    249 167.5  63.6  34204  290.33 0854.46
2009/04/23 13:41:15.7      51     19    148     55    157  69.2  78.9  34202  290.30 0854.46
2009/04/23 13:41:15.8      30    -48    133     57    144 147.4  75.5  34206  290.35 0854.46
2009/04/23 13:41:15.9     -35     35    123     50    132 314.9  77.1  34206  290.36 0854.46
2009/04/23 13:41:16.0      -2     -2     72      3     72 225.0  90.0  34202  290.30 0854.46
2009/04/23 13:41:16.1     -33   -124    150    129    197 195.2  54.8  34200  290.25 0854.46
2009/04/23 13:41:16.2     -33   -221    154    224    271 188.5  37.6  34198  290.22 0854.46
2009/04/23 13:41:16.3      11   -145    154    146    212 175.6  51.6  34196  290.18 0854.46
2009/04/23 13:41:16.4       0   -169    150    170    226 180.0  45.9  34196  290.18 0854.46
2009/04/23 13:41:16.5       6    -97    147     98    176 176.0  63.4  34196  290.19 0854.46
2009/04/23 13:41:16.6      19    -72    158     75    174 164.9  72.9  34200  290.25 0854.45
2009/04/23 13:41:16.7     -20   -265    146    266    303 184.5  31.3  34198  290.22 0854.45
2009/04/23 13:41:16.8       5   -298    101    299    316 179.0  18.8  34196  290.17 0854.45
2009/04/23 13:41:16.9      15   -242     97    243    261 176.4  23.0  34198  290.22 0854.45
2009/04/23 13:41:17.0      52   -218    102    225    247 166.4  26.2  34196  290.17 0854.45
2009/04/23 13:41:17.1      88   -187    161    207    262 154.8  41.7  34200  290.24 0854.45
2009/04/23 13:41:17.2      82   -213    131    229    263 158.8  32.4  34200  290.24 0854.45
2009/04/23 13:41:17.3      27   -192    184    194    267 171.9  48.5  34202  290.27 0854.45
2009/04/23 13:41:17.4    -112   -225    103    252    272 206.5  23.1  34198  290.20 0854.45
2009/04/23 13:41:17.5     -70   -268    196    278    340 194.7  38.7  34204  290.31 0854.45
2009/04/23 13:41:17.6     -81   -267    260    280    382 197.0  47.9  34202  290.28 0854.45
2009/04/23 13:41:17.7     -46   -322    253    326    412 188.3  41.7  34198  290.23 0854.45
2009/04/23 13:41:17.8      56   -456    211    460    506 172.9  26.5  34192  290.10 0854.45
2009/04/23 13:41:17.9     -44   -312    276    316    419 188.1  45.6  34196  290.18 0854.45
2009/04/23 13:41:18.0      -6   -328    217    329    394 181.2  36.5  34198  290.20 0854.45
2009/04/23 13:41:18.1     -19   -435    248    436    501 182.6  32.3  34198  290.22 0854.45
2009/04/23 13:41:18.2     -36   -458    229    460    513 184.6  28.5  34198  290.23 0854.45
2009/04/23 13:41:18.3     -49   -453    200    456    497 186.3  25.2  34200  290.25 0854.45
2009/04/23 13:41:18.4    -162   -446     39    475    477 200.0   4.7  34198  290.22 0854.45
2009/04/23 13:41:18.5    -238   -399     25    465    466 210.9   3.1  34202  290.27 0854.45
2009/04/23 13:41:18.6    -238   -436    190    497    532 208.6  22.0  34202  290.28 0854.38
2009/04/23 13:41:18.7    -246   -406    191    475    511 211.2  23.1  34196  290.18 0854.38
2009/04/23 13:41:18.8    -188   -495    272    530    595 200.8  29.3  34194  290.14 0854.38
2009/04/23 13:41:18.9    -180   -472    196    506    542 200.9  22.4  34198  290.21 0854.38
2009/04/23 13:41:19.0    -182   -386    116    427    443 205.3  15.3  34198  290.22 0854.38
2009/04/23 13:41:19.1    -292   -428     84    519    526 214.3   9.2  34202  290.30 0854.38
2009/04/23 13:41:19.2    -366   -383     45    530    533 223.7   4.9  34200  290.26 0854.38
2009/04/23 13:41:19.3    -149   -390    166    418    449 201.0  23.0  34192  290.11 0854.38
2009/04/23 13:41:19.4    -214   -361     90    420    430 210.7  12.1  34192  290.12 0854.38
2009/04/23 13:41:19.5    -143   -424    296    448    536 198.7  36.5  34188  290.05 0854.38
2009/04/23 13:41:19.6    -159   -328    237    365    435 206.0  36.2  34198  290.21 0854.38
2009/04/23 13:41:19.7    -146   -276    226    313    386 207.9  39.5  34194  290.16 0854.38
2009/04/23 13:41:19.8    -111   -306    274    326    425 200.0  44.2  34198  290.20 0854.38
2009/04/23 13:41:19.9    -186   -307    139    360    385 211.2  22.3  34188  290.04 0854.38
2009/04/23 13:41:20.0    -142   -274    239    309    390 207.4  41.7  34202  290.27 0854.38
2009/04/23 13:41:20.1    -193   -365    174    413    448 207.9  24.1  34194  290.16 0854.38
2009/04/23 13:41:20.2    -164   -313    238    354    426 207.7  37.2  34202  290.29 0854.38
2009/04/23 13:41:20.3    -203   -245    228    319    392 219.7  39.1  34204  290.32 0854.38
2009/04/23 13:41:20.4    -198   -166    210    259    333 230.0  43.3  34200  290.24 0854.38
2009/04/23 13:41:20.5    -197     -3     85    198    215 269.1  24.9  34210  290.43 0854.38
2009/04/23 13:41:20.6    -164     73     85    180    199 294.0  27.1  34208  290.38 0854.40
2009/04/23 13:41:20.7    -197    -12    135    198    239 266.5  37.6  34212  290.47 0854.40
2009/04/23 13:41:20.8    -142     -2     81    143    164 269.2  32.4  34202  290.30 0854.40
2009/04/23 13:41:20.9    -101    175    146    203    250 329.9  39.3  34206  290.34 0854.40
2009/04/23 13:41:21.0    -108    204    140    231    270 332.1  34.2  34204  290.32 0854.40
2009/04/23 13:41:21.1     -80    127    157    151    217 327.9  51.2  34206  290.35 0854.40
2009/04/23 13:41:21.2     -65    138    133    153    202 334.5  45.8  34206  290.35 0854.40
2009/04/23 13:41:21.3     -74     24     92     78    120 288.2  55.4  34208  290.40 0854.40
2009/04/23 13:41:21.4     -57   -139     95    151    178 202.3  35.5  34210  290.43 0854.40
2009/04/23 13:41:21.5      15   -176      7    177    178 175.1   2.5  34202  290.28 0854.40
2009/04/23 13:41:21.6     -21   -162     46    164    171 187.6  15.8  34198  290.21 0854.40
2009/04/23 13:41:21.7     -61   -201    124    211    244 197.0  33.4  34200  290.26 0854.40
2009/04/23 13:41:21.8     -98   -345     96    359    372 195.9  15.0  34182  289.96 0854.40
2009/04/23 13:41:21.9      49   -288    233    293    374 170.2  42.6  34188  290.03 0854.40
2009/04/23 13:41:22.0      70   -437    204    443    487 170.9  26.5  34186  290.00 0854.40
2009/04/23 13:41:22.1     319   -358     99    480    491 138.3  11.7  34186  290.00 0854.40
2009/04/23 13:41:22.2     178   -335      0    380    381 152.0   0.0  34182  289.96 0854.40
2009/04/23 13:41:22.3      86   -383    -35    393    395 167.3  -5.2  34182  289.96 0854.40
2009/04/23 13:41:22.4      71   -291     58    300    306 166.2  11.1  34188  290.03 0854.40
2009/04/23 13:41:22.5      74   -293    123    303    327 165.7  23.4  34188  290.05 0854.41
2009/04/23 13:41:22.6      57   -281    118    287    310 168.4  23.4  34184  289.98 0854.41
2009/04/23 13:41:22.7     155   -252     86    297    310 148.4  16.3  34182  289.95 0854.41
2009/04/23 13:41:22.8      87   -241    143    257    294 160.2  31.4  34184  289.98 0854.41
2009/04/23 13:41:22.9      18   -187     54    188    196 174.2  16.3  34186  290.01 0854.41
2009/04/23 13:41:23.0      95    -83      1    127    128 131.3   0.8  34186  290.01 0854.41
2009/04/23 13:41:23.1     101   -142    -23    175    177 144.6  -7.7  34184  289.99 0854.41
2009/04/23 13:41:23.2     102   -158     -7    189    190 147.0  -2.2  34186  290.01 0854.41
2009/04/23 13:41:23.3      66   -122     11    139    140 151.5   4.9  34186  290.02 0854.41
2009/04/23 13:41:23.4     180    -86    107    200    226 115.5  30.6  34186  290.02 0854.41
2009/04/23 13:41:23.5     116   -182    156    216    266 147.5  39.5  34188  290.03 0854.41
2009/04/23 13:41:23.6     149   -154    157    215    266 135.9  39.7  34188  290.03 0854.41
2009/04/23 13:41:23.7      57   -131    189    144    237 156.3  59.0  34188  290.04 0854.41
2009/04/23 13:41:23.8     102    -62    137    120    182 121.1  54.3  34190  290.08 0854.41
2009/04/23 13:41:23.9      27   -193    194    195    275 171.9  50.0  34192  290.12 0854.41
2009/04/23 13:41:24.0      33   -182    247    186    309 169.5  59.4  34190  290.09 0854.41
2009/04/23 13:41:24.1      -5   -296    143    297    329 181.0  27.4  34186  290.00 0854.41
2009/04/23 13:41:24.2      -4   -288    131    289    317 180.9  26.2  34186  290.02 0854.41
2009/04/23 13:41:24.3     -41   -204    137    209    249 191.5  36.5  34192  290.10 0854.41
2009/04/23 13:41:24.4     -56   -166    130    176    218 198.7  39.9  34186  290.02 0854.41
2009/04/23 13:41:24.5     -24    -75    115     79    139 198.3  62.6  34188  290.04 0854.43
2009/04/23 13:41:24.6     -86     23    100     90    134 285.1  53.3  34186  290.02 0854.43
2009/04/23 13:41:24.7     -82     83     43    117    124 315.5  20.9  34188  290.06 0854.43
2009/04/23 13:41:24.8     -80     51     -3     96     97 302.5  -1.8  34190  290.08 0854.43
2009/04/23 13:41:24.9      32     63    -49     71     86  27.2 -42.4  34192  290.11 0854.43
2009/04/23 13:41:25.0      82    113    -42    140    147  36.0 -16.6  34182  289.94 0854.43
2009/04/23 13:41:25.1      37    108    -11    115    116  19.2  -5.6  34186  290.01 0854.43
2009/04/23 13:41:25.2     -52     -4    -71     53     88 265.7 -63.8  34186  290.01 0854.43
2009/04/23 13:41:25.3    -165   -164     63    233    242 225.2  15.2  34188  290.03 0854.43
2009/04/23 13:41:25.4    -126    -41   -110    133    172 251.8 -48.2  34188  290.04 0854.43
2009/04/23 13:41:25.5    -134   -128   -122    186    222 226.2 -40.4  34190  290.08 0854.43
2009/04/23 13:41:25.6    -186   -241     -6    305    306 217.6  -1.3  34194  290.15 0854.43
2009/04/23 13:41:25.7    -176   -271    -26    324    326 213.0  -4.6  34190  290.09 0854.43
2009/04/23 13:41:25.8    -158   -203    -77    258    270 217.9 -16.6  34192  290.12 0854.43
2009/04/23 13:41:25.9    -133    -73      7    152    153 241.2   2.8  34192  290.11 0854.43
2009/04/23 13:41:26.0     -94     25     -5     98     99 285.1  -3.1  34194  290.16 0854.43
2009/04/23 13:41:26.1     -74     61      4     96     97 309.5   2.9  34194  290.14 0854.43
2009/04/23 13:41:26.2     -69     41     28     81     86 301.1  19.4  34188  290.06 0854.43
2009/04/23 13:41:26.3    -122     32     59    127    140 285.0  27.1  34194  290.16 0854.43
2009/04/23 13:41:26.4      48    110     73    121    141  23.6  34.0  34196  290.18 0854.43
2009/04/23 13:41:26.5     124     90    113    154    191  54.0  39.9  34206  290.36 0854.41
2009/04/23 13:41:26.6      45      6     78     46     90  82.1  66.8  34216  290.52 0854.41
2009/04/23 13:41:26.7    -156   -139     61    210    219 228.2  16.3  34198  290.21 0854.41
2009/04/23 13:41:26.8    -203   -112    156    232    279 241.1  37.4  34192  290.10 0854.41
2009/04/23 13:41:26.9    -108   -226    147    251    290 205.5  33.4  34190  290.07 0854.41
2009/04/23 13:41:27.0    -138   -240    181    278    331 209.9  36.0  34188  290.05 0854.41
2009/04/23 13:41:27.1    -222   -351    209    416    465 212.3  28.6  34184  289.99 0854.41
2009/04/23 13:41:27.2    -224   -374    159    437    465 210.9  20.9  34182  289.94 0854.41
2009/04/23 13:41:27.3    -273   -313     66    416    422 221.2   9.0  34172  289.78 0854.41
2009/04/23 13:41:27.4    -404   -176    119    441    457 246.5  15.2  34186  290.00 0854.41
2009/04/23 13:41:27.5    -386   -252    211    462    507 236.8  26.2  34196  290.18 0854.41
2009/04/23 13:41:27.6    -232    -65    173    241    296 254.3  39.5  34192  290.10 0854.41
2009/04/23 13:41:27.7    -419   -275     89    502    510 236.7  10.1  34184  289.98 0854.41
2009/04/23 13:41:27.8    -500   -291     25    579    580 239.8   2.5  34186  290.02 0854.41
2009/04/23 13:41:27.9    -444   -151     24    470    471 251.2   3.0  34188  290.03 0854.41
2009/04/23 13:41:28.0    -283   -245     95    375    388 229.1  14.3  34190  290.08 0854.41
2009/04/23 13:41:28.1    -254   -307     44    399    402 219.7   6.4  34180  289.91 0854.41
2009/04/23 13:41:28.2    -277   -374      0    466    467 216.5   0.0  34192  290.13 0854.41
2009/04/23 13:41:28.3    -225   -295     46    372    375 217.3   7.1  34194  290.15 0854.41
2009/04/23 13:41:28.4    -185   -283     87    339    350 213.1  14.4  34188  290.06 0854.41
2009/04/23 13:41:28.5    -274   -156     79    316    326 240.2  14.2  34208  290.39 0854.41
2009/04/23 13:41:28.6    -399   -187     13    441    442 244.8   1.8  34208  290.38 0854.41
2009/04/23 13:41:28.7    -526   -306    -33    609    610 239.8  -3.1  34208  290.39 0854.41
2009/04/23 13:41:28.8    -493   -339    -57    599    602 235.5  -5.5  34180  289.91 0854.41
2009/04/23 13:41:28.9    -449   -243    -88    511    519 241.5  -9.8  34184  289.98 0854.41
2009/04/23 13:41:29.0    -408   -296     57    505    509 234.1   6.5  34200  290.25 0854.41
2009/04/23 13:41:29.1    -431   -262     89    505    513 238.7  10.0  34198  290.23 0854.41
2009/04/23 13:41:29.2    -574   -378    -13    688    689 236.6  -1.2  34194  290.14 0854.41
2009/04/23 13:41:29.3    -571   -299   -157    645    664 242.4 -13.7  34186  290.02 0854.41
2009/04/23 13:41:29.4    -441    -83   -201    449    491 259.3 -30.2  34186  290.01 0854.41
2009/04/23 13:41:29.5    -559   -132    -77    575    581 256.7  -7.7  34194  290.15 0854.41
2009/04/23 13:41:29.6    -333    177   -141    378    403 298.0 -25.8  34174  289.81 0854.41
2009/04/23 13:41:29.7    -693   -158   -185    711    735 257.1 -14.6  34172  289.76 0854.41
2009/04/23 13:41:29.8    -891   -101   -284    897    941 263.5 -17.6  34162  289.60 0854.41
2009/04/23 13:41:29.9    -820    -54   -229    822    853 266.2 -20.2  34180  289.92 0854.41
2009/04/23 13:41:30.0    -651     35   -149    653    670 273.1 -12.9  34178  289.87 0854.41
2009/04/23 13:41:30.1    -822    100   -178    829    849 277.0 -12.2  34188  290.04 0854.41
2009/04/23 13:41:30.2    -540      0     21    541    542 270.0   2.2  34182  289.96 0854.41
2009/04/23 13:41:30.3    -611    179    104    637    646 286.4   9.3  34196  290.18 0854.41
2009/04/23 13:41:30.4    -750     26     61    751    754 272.0   4.7  34190  290.07 0854.41
2009/04/23 13:41:30.5    -769    196    -66    794    797 284.3  -4.8  34172  289.78 0854.41
2009/04/23 13:41:30.6    -707   -138    -15    721    722 258.9  -1.3  34176  289.84 0854.41
2009/04/23 13:41:30.7    -653    -28   -221    654    691 267.5 -18.7  34172  289.78 0854.41
2009/04/23 13:41:30.8    -664    149   -231    681    719 282.7 -23.8  34166  289.69 0854.41
2009/04/23 13:41:30.9    -532     36    -91    534    542 273.9  -9.7  34184  289.99 0854.41
2009/04/23 13:41:31.0    -505     83   -143    512    531 279.3 -20.2  34186  290.02 0854.41
2009/04/23 13:41:31.1    -424     28   -125    425    443 273.8 -16.4  34178  289.87 0854.41
2009/04/23 13:41:31.2    -486     33     21    488    489 273.9   2.5  34178  289.86 0854.41
2009/04/23 13:41:31.3    -730     17     -2    731    732 271.4  -0.2  34172  289.76 0854.41
2009/04/23 13:41:31.4    -990   -183   -192   1007   1026 259.5 -10.8  34162  289.62 0854.41
2009/04/23 13:41:31.5    -761   -246   -237    800    835 252.1 -16.5  34172  289.79 0854.38
2009/04/23 13:41:31.6    -581   -393    -88    702    708 235.9  -7.2  34178  289.86 0854.38
2009/04/23 13:41:31.7    -702   -338   -234    780    814 244.3 -21.6  34176  289.85 0854.38
2009/04/23 13:41:31.8    -472   -475   -176    670    693 224.8 -14.8  34176  289.85 0854.38
2009/04/23 13:41:31.9    -237   -611    -83    656    662 201.2  -7.2  34176  289.85 0854.38
2009/04/23 13:41:32.0    -647   -257   -249    697    741 248.3 -19.7  34168  289.71 0854.38
2009/04/23 13:41:32.1    -627   -517   -182    813    834 230.5 -12.7  34160  289.58 0854.38
2009/04/23 13:41:32.2    -644   -293   -181    708    731 245.5 -14.4  34166  289.69 0854.38
2009/04/23 13:41:32.3    -804   -119   -203    813    839 261.5 -14.1  34170  289.75 0854.38
2009/04/23 13:41:32.4    -841   -212   -224    868    897 255.8 -14.5  34174  289.81 0854.38
2009/04/23 13:41:32.5    -771   -253   -265    812    855 251.8 -18.1  34170  289.75 0854.38
2009/04/23 13:41:32.6    -608   -143   -202    625    657 256.8 -17.9  34174  289.82 0854.38
2009/04/23 13:41:32.7    -467   -412   -370    624    725 228.6 -37.8  34164  289.63 0854.38
2009/04/23 13:41:32.8    -656   -328   -219    734    766 243.4 -16.6  34176  289.85 0854.38
2009/04/23 13:41:32.9    -727    -67   -250    731    773 264.7 -18.9  34162  289.62 0854.38
2009/04/23 13:41:33.0    -718   -335   -202    793    819 245.0 -14.3  34172  289.77 0854.38
2009/04/23 13:41:33.1    -727   -315   -366    793    873 246.6 -30.9  34174  289.80 0854.38
2009/04/23 13:41:33.2    -654   -602   -410    889    978 227.4 -30.9  34172  289.79 0854.38
2009/04/23 13:41:33.3    -702   -459   -340    840    906 236.8 -27.6  34178  289.86 0854.38
2009/04/23 13:41:33.4    -591   -423   -218    727    758 234.4 -21.6  34172  289.79 0854.38
2009/04/23 13:41:33.5    -446   -425   -306    617    688 226.4 -32.8  34168  289.71 0854.40
2009/04/23 13:41:33.6    -559   -529   -389    770    862 226.6 -33.2  34162  289.62 0854.40
2009/04/23 13:41:33.7    -431   -621   -379    757    846 214.8 -33.1  34170  289.75 0854.40
2009/04/23 13:41:33.8    -589   -471   -347    755    830 231.4 -30.9  34168  289.70 0854.40
2009/04/23 13:41:33.9    -702   -172   -327    723    793 256.2 -30.4  34154  289.47 0854.40
2009/04/23 13:41:34.0    -537   -165   -351    562    662 252.9 -39.4  34168  289.70 0854.40
2009/04/23 13:41:34.1    -543   -154   -177    565    592 254.1 -22.4  34174  289.80 0854.40
2009/04/23 13:41:34.2    -627   -254   -156    677    695 247.9 -13.0  34174  289.82 0854.40
2009/04/23 13:41:34.3    -601   -255   -228    654    692 247.0 -24.4  34170  289.75 0854.40
2009/04/23 13:41:34.4    -203   -253   -235    325    401 218.7 -43.9  34168  289.72 0854.40
2009/04/23 13:41:34.5      69   -159   -244    174    299 156.6 -65.2  34176  289.83 0854.40
2009/04/23 13:41:34.6      56   -162   -149    172    227 160.8 -49.8  34174  289.80 0854.40
2009/04/23 13:41:34.7    -304   -258   -202    399    447 229.7 -33.5  34174  289.82 0854.40
2009/04/23 13:41:34.8       0   -441    -13    442    443 180.1  -1.7  34166  289.68 0854.40
2009/04/23 13:41:34.9     -50   -464    -89    467    476 186.2 -10.9  34172  289.78 0854.40
2009/04/23 13:41:35.0    -190   -511    -13    546    547 200.5  -1.4  34162  289.62 0854.40
2009/04/23 13:41:35.1    -153   -503    -57    526    530 197.0  -6.2  34170  289.75 0854.40
2009/04/23 13:41:35.2     -87   -638     52    644    647 187.8   4.7  34172  289.77 0854.40
2009/04/23 13:41:35.3    -320   -560   -210    646    680 209.8 -18.0  34174  289.80 0854.40
2009/04/23 13:41:35.4    -128   -660     -4    673    674 191.0  -0.4  34172  289.77 0854.40
2009/04/23 13:41:35.5      33   -759     51    760    762 177.5   3.9  34162  289.62 0854.43
2009/04/23 13:41:35.6      98   -759    119    766    776 172.6   8.9  34164  289.64 0854.43
2009/04/23 13:41:35.7      66   -731    244    735    775 174.8  18.4  34168  289.70 0854.43
2009/04/23 13:41:35.8     117   -815    161    824    840 171.8  11.1  34164  289.65 0854.43
2009/04/23 13:41:35.9     -24   -566    334    567    658 182.5  33.1  34172  289.77 0854.43
2009/04/23 13:41:36.0     -62   -360    273    366    456 189.8  40.4  34172  289.78 0854.43
2009/04/23 13:41:36.1     -82   -303    265    315    411 195.2  44.3  34172  289.76 0854.43
2009/04/23 13:41:36.2    -122   -414    250    432    499 196.5  32.7  34178  289.86 0854.43
2009/04/23 13:41:36.3    -254   -320    119    409    427 218.5  16.3  34168  289.72 0854.43
2009/04/23 13:41:36.4    -530    -31      6    531    532 266.6   0.7  34176  289.84 0854.43
2009/04/23 13:41:36.5    -520    -30    116    521    534 266.6  12.6  34168  289.72 0854.43
2009/04/23 13:41:36.6    -341    -65    232    348    418 259.1  36.7  34176  289.84 0854.43
2009/04/23 13:41:36.7    -183   -104    185    211    280 240.2  45.8  34178  289.88 0854.43
2009/04/23 13:41:36.8    -133   -216    208    254    328 211.6  43.6  34174  289.81 0854.43
2009/04/23 13:41:36.9       5   -206    148    207    254 178.6  39.1  34178  289.88 0854.43
2009/04/23 13:41:37.0      41   -228     92    232    249 169.8  22.8  34178  289.86 0854.43
2009/04/23 13:41:37.1     -42   -172     78    178    194 193.8  25.3  34180  289.91 0854.43
2009/04/23 13:41:37.2    -136   -127    175    187    256 227.1  47.9  34176  289.85 0854.43
2009/04/23 13:41:37.3     -61    129    154    143    210 334.5  52.2  34176  289.84 0854.43
2009/04/23 13:41:37.4    -225    179    268    288    393 308.6  47.9  34178  289.86 0854.43
2009/04/23 13:41:37.5    -271    144    205    307    369 298.0  36.9  34180  289.91 0854.44
2009/04/23 13:41:37.6    -298    250    209    390    442 310.0  30.3  34178  289.88 0854.44
2009/04/23 13:41:37.7     -10     82    209     83    224 352.9  77.1  34180  289.92 0854.44
2009/04/23 13:41:37.8     115    365    165    383    417  17.6  24.8  34194  290.14 0854.44
2009/04/23 13:41:37.9     195    128    179    234    294  56.7  41.4  34184  289.98 0854.44
2009/04/23 13:41:38.0     161     21    203    163    260  82.5  57.1  34192  290.12 0854.44
2009/04/23 13:41:38.1     101     20    140    104    174  78.5  59.8  34200  290.25 0854.44
2009/04/23 13:41:38.2      72    -13    155     74    171 100.6  72.9  34202  290.28 0854.44
2009/04/23 13:41:38.3     -24    -32     84     41     93 217.0  72.8  34202  290.28 0854.44
2009/04/23 13:41:38.4    -132    -55     50    144    153 247.4  19.4  34188  290.04 0854.44
2009/04/23 13:41:38.5     -67    -42    -10     80     81 237.6  -7.7  34190  290.08 0854.44
2009/04/23 13:41:38.7      17    -88      1     90     91 168.9   1.2  34188  290.04 0854.44
2009/04/23 13:41:38.8      90      6    -11     91     92  85.6  -7.3  34192  290.11 0854.44
2009/04/23 13:41:38.9      92    -16   -112     94    146 100.1 -60.7  34188  290.04 0854.44
2009/04/23 13:41:39.0     114    -25     14    117    118 102.8   6.9  34186  290.01 0854.44
2009/04/23 13:41:39.1      97     33    161    103    191  70.9  64.6  34188  290.04 0854.44
2009/04/23 13:41:39.2      66     97     92    118    149  34.3  42.2  34200  290.26 0854.44
2009/04/23 13:41:39.3    -322    188   -263    374    457 300.3 -43.0  34164  289.65 0854.44
2009/04/23 13:41:39.4    -416    234   -236    478    533 299.4 -32.6  34178  289.86 0854.44
2009/04/23 13:41:39.5    -482    123     25    498    499 284.4   2.9  34178  289.88 0854.44
2009/04/23 13:41:39.6    -450    212     86    498    506 295.2   9.9  34182  289.95 0854.46
2009/04/23 13:41:39.7    -585    232    -60    630    633 291.7  -5.5  34170  289.74 0854.46
2009/04/23 13:41:39.8    -417     99    -23    429    430 283.4  -3.1  34170  289.73 0854.46
2009/04/23 13:41:39.9    -361   -109    -55    378    383 253.2  -8.4  34182  289.94 0854.46
2009/04/23 13:41:40.0    -487    161    -29    513    514 288.3  -3.3  34192  290.12 0854.46
2009/04/23 13:41:40.1    -491     69     90    496    505 278.0  10.3  34194  290.15 0854.46
2009/04/23 13:41:40.2    -364    -56     93    369    381 261.2  14.2  34188  290.06 0854.46
2009/04/23 13:41:40.3    -374   -290    129    474    492 232.2  15.3  34188  290.03 0854.46
2009/04/23 13:41:40.4    -178   -104     63    207    217 239.8  17.1  34186  290.02 0854.46
2009/04/23 13:41:40.5      -9     27    -96     29    100 341.7 -87.2  34188  290.04 0854.46
2009/04/23 13:41:40.6      99    -92     -4    136    137 133.1  -1.8  34182  289.94 0854.46
2009/04/23 13:41:40.7     119   -245    -52    273    279 154.1 -10.9  34190  290.07 0854.46
2009/04/23 13:41:40.8      12   -275   -180    276    329 177.3 -40.4  34188  290.05 0854.46
2009/04/23 13:41:40.9     -32   -312   -117    314    335 186.0 -25.8  34192  290.13 0854.46
2009/04/23 13:41:41.0     -61    -47   -138     78    158 232.2 -72.5  34198  290.21 0854.46
2009/04/23 13:41:41.1    -181   -150   -106    236    258 230.4 -30.6  34184  289.97 0854.46
2009/04/23 13:41:41.2    -279   -305     49    414    417 222.5   6.8  34186  290.00 0854.46
2009/04/23 13:41:41.3    -468   -395     45    613    615 229.8   4.2  34178  289.86 0854.46
2009/04/23 13:41:41.4    -509   -324     -9    604    605 237.5  -0.9  34174  289.80 0854.46
2009/04/23 13:41:41.5    -716   -631   -151    955    967 228.6  -9.0  34178  289.86 0854.46
2009/04/23 13:41:41.6    -679   -700    -78    976    980 224.1  -4.6  34166  289.69 0854.47
2009/04/23 13:41:41.7    -396   -484   -198    626    657 219.3 -17.6  34162  289.60 0854.47
2009/04/23 13:41:41.8    -613   -505   -166    795    813 230.5 -11.8  34176  289.84 0854.47
2009/04/23 13:41:41.9    -478   -129   -447    496    667 254.9 -51.0  34176  289.84 0854.47
2009/04/23 13:41:42.0    -349   -154   -453    382    592 246.1 -60.1  34184  289.97 0854.47
2009/04/23 13:41:42.1    -231     35   -363    234    431 278.8 -68.8  34150  289.40 0854.47
2009/04/23 13:41:42.2     402    599   -252    722    765  33.9 -19.3  34176  289.84 0854.47
2009/04/23 13:41:42.3     123    441   -285    458    539  15.6 -39.4  34172  289.79 0854.47
2009/04/23 13:41:42.4     -16    248     55    249    256 356.2  12.6  34178  289.86 0854.47
2009/04/23 13:41:42.5      51     34   -123     62    137  55.8 -75.8  34184  289.97 0854.47
2009/04/23 13:41:42.6     -60     62    139     87    163 316.3  64.9  34178  289.89 0854.47
2009/04/23 13:41:42.7    -361      0    -73    362    370 270.0 -11.5  34182  289.96 0854.47
2009/04/23 13:41:42.8    -313    -34    -57    315    321 263.6 -10.3  34180  289.92 0854.47
2009/04/23 13:41:42.9    -362   -123   -108    383    399 251.2 -15.8  34180  289.91 0854.47
2009/04/23 13:41:43.0    -407     27   -181    408    446 273.8 -29.7  34168  289.72 0854.47
2009/04/23 13:41:43.1    -354    166    -15    392    393 295.2  -2.2  34168  289.71 0854.47
2009/04/23 13:41:43.2    -261    207    -18    334    335 308.4  -3.1  34170  289.74 0854.47
2009/04/23 13:41:43.3    -164    297    -36    340    342 331.0  -6.1  34184  289.98 0854.47
2009/04/23 13:41:43.4    -216    374   -172    432    464 330.0 -27.4  34180  289.90 0854.47
2009/04/23 13:41:43.5     -83    215    -98    231    250 338.8 -28.7  34174  289.81 0854.47
2009/04/23 13:41:43.6     -55    126    -43    138    145 336.3 -17.6  34180  289.92 0854.50
2009/04/23 13:41:43.7    -173      3     -6    174    175 271.0  -2.2  34180  289.91 0854.50
2009/04/23 13:41:43.8    -349   -259   -163    435    464 233.4 -25.9  34180  289.90 0854.50
2009/04/23 13:41:43.9    -339   -195    156    392    421 240.1  23.0  34180  289.90 0854.50
2009/04/23 13:41:44.0    -444   -119     19    460    461 255.0   2.4  34170  289.75 0854.50
2009/04/23 13:41:44.1    -604    -62    -97    608    616 264.1  -9.1  34176  289.83 0854.50
2009/04/23 13:41:44.2    -379   -249    -82    454    462 236.7 -10.3  34174  289.80 0854.50
2009/04/23 13:41:44.3    -304   -257   -115    399    415 229.8 -20.9  34176  289.83 0854.50
2009/04/23 13:41:44.4    -139   -211     21    253    254 213.4   4.9  34154  289.47 0854.50
2009/04/23 13:41:44.5    -344     -2   -144    345    373 269.5 -28.2  34174  289.82 0854.50
2009/04/23 13:41:44.6    -167    106    164    198    257 302.4  43.8  34182  289.93 0854.50
2009/04/23 13:41:44.7    -345   -235    285    418    505 235.7  37.6  34182  289.95 0854.50
2009/04/23 13:41:44.8    -194   -194    225    275    355 225.1  43.6  34182  289.96 0854.50
2009/04/23 13:41:44.9    -313   -276    183    418    456 228.6  25.1  34178  289.87 0854.50
2009/04/23 13:41:45.0    -393   -362     20    535    536 227.3   2.2  34170  289.74 0854.50
2009/04/23 13:41:45.1    -669    -17   -286    670    728 268.5 -28.9  34166  289.69 0854.50
2009/04/23 13:41:45.2    -608     75    -88    613    620 277.1  -8.2  34176  289.84 0854.50
2009/04/23 13:41:45.3    -555    220   -333    598    684 291.7 -35.9  34170  289.75 0854.50
2009/04/23 13:41:45.4    -561    249   -271    614    671 294.0 -29.7  34178  289.87 0854.50
2009/04/23 13:41:45.5    -563    186   -241    593    640 288.3 -27.9  34178  289.87 0854.50
2009/04/23 13:41:45.6    -611    223   -310    651    721 290.1 -31.7  34182  289.94 0854.50
2009/04/23 13:41:45.7    -422     49   -218    425    477 276.7 -33.7  34174  289.80 0854.50
2009/04/23 13:41:45.8    -220   -357   -217    420    472 211.7 -33.8  34176  289.85 0854.50
2009/04/23 13:41:45.9    -292   -291   -158    413    442 225.1 -26.4  34166  289.68 0854.50
2009/04/23 13:41:46.0    -426    -98   -317    438    540 257.0 -43.9  34182  289.93 0854.50
2009/04/23 13:41:46.1    -466     13   -284    467    546 271.7 -38.6  34178  289.89 0854.50
2009/04/23 13:41:46.2    -211    -16   -189    212    284 265.6 -50.3  34178  289.88 0854.50
2009/04/23 13:41:46.3    -300     -7   -161    301    341 268.5 -35.0  34178  289.86 0854.50
2009/04/23 13:41:46.4     -87   -134     39    160    165 213.0  13.7  34180  289.91 0854.50
2009/04/23 13:41:46.5    -112    117    119    163    201 316.3  39.7  34184  289.97 0854.50
2009/04/23 13:41:46.6    -124   -208    148    243    284 210.8  34.2  34186  290.00 0854.50
2009/04/23 13:41:46.7    -326   -159    111    363    380 244.0  17.0  34178  289.87 0854.50
2009/04/23 13:41:46.8    -579   -154    109    600    610 255.1  10.3  34180  289.90 0854.50
2009/04/23 13:41:46.9    -861     31   -208    862    887 272.1 -13.6  34166  289.66 0854.50
2009/04/23 13:41:47.0    -584    272   -144    645    661 295.0 -12.6  34172  289.79 0854.50
2009/04/23 13:41:47.1    -706    -30   -302    707    768 267.5 -29.0  34160  289.58 0854.50
2009/04/23 13:41:47.2    -699    143   -208    714    743 281.6 -21.0  34172  289.79 0854.50
2009/04/23 13:41:47.3    -431    317   -132    536    553 306.4 -13.9  34172  289.79 0854.50
2009/04/23 13:41:47.4    -395    429    -32    584    585 317.3  -3.2  34174  289.80 0854.50
2009/04/23 13:41:47.5    -312    291    133    427    448 313.0  17.3  34178  289.87 0854.49
2009/04/23 13:41:47.6    -214     -3    -69    215    225 269.1 -23.3  34180  289.92 0854.49
2009/04/23 13:41:47.7    -434   -145   -158    458    485 251.5 -19.1  34146  289.35 0854.49
2009/04/23 13:41:47.8   -1114    118   -290   1121   1158 276.1 -14.5  34178  289.86 0854.49
2009/04/23 13:41:47.9    -960    217   -337    985   1042 282.8 -18.9  34172  289.77 0854.49
2009/04/23 13:41:48.0    -744      6   -230    745    779 270.5 -22.2  34174  289.80 0854.49
2009/04/23 13:41:48.1    -501    432   -165    662    683 310.8 -14.1  34176  289.85 0854.49
2009/04/23 13:41:48.2    -399    467    -12    615    616 319.5  -1.2  34170  289.74 0854.49
2009/04/23 13:41:48.3    -654    118   -186    665    691 280.3 -15.7  34170  289.73 0854.49
2009/04/23 13:41:48.4    -541    355      5    648    649 303.3   0.5  34168  289.72 0854.49
2009/04/23 13:41:48.5    -835     91   -231    841    873 276.3 -15.4  34150  289.41 0854.49
2009/04/23 13:41:48.6    -808    321   -145    870    883 291.7  -9.5  34178  289.88 0854.49
2009/04/23 13:41:48.7    -957    136   -128    967    976 278.1  -7.6  34166  289.69 0854.49
2009/04/23 13:41:48.8    -471    214    -52    518    521 294.4  -5.8  34170  289.75 0854.49
2009/04/23 13:41:48.9    -776    277   -199    825    849 289.7 -13.6  34172  289.78 0854.49
2009/04/23 13:41:49.0   -1053    243   -311   1081   1125 283.0 -16.1  34174  289.80 0854.49
2009/04/23 13:41:49.1    -320    431     27    538    539 323.4   2.9  34176  289.85 0854.49
2009/04/23 13:41:49.2    -575    355      9    676    677 301.7   0.8  34184  289.97 0854.49
2009/04/23 13:41:49.3    -576    223     80    618    624 291.2   7.4  34162  289.62 0854.49
2009/04/23 13:41:49.4    -329    454    150    561    581 324.0  15.0  34172  289.76 0854.49
2009/04/23 13:41:49.5    -286    498    -17    575    576 330.1  -1.8  34178  289.86 0854.49
2009/04/23 13:41:49.6    -175    470   -159    502    527 339.6 -17.6  34172  289.78 0854.49
2009/04/23 13:41:49.7    -249    330   -269    414    493 323.0 -40.4  34182  289.96 0854.49
2009/04/23 13:41:49.8    -242    294   -163    382    415 320.5 -28.9  34180  289.92 0854.49
2009/04/23 13:41:49.9    -227    188   -104    295    312 309.6 -24.6  34154  289.47 0854.49
2009/04/23 13:41:50.0    -439    139     52    461    464 287.6   6.5  34184  289.97 0854.49
2009/04/23 13:41:50.1    -389      0     19    390    391 270.0   2.9  34188  290.04 0854.49
2009/04/23 13:41:50.2    -305   -137    -57    335    341 245.8  -9.8  34188  290.04 0854.49
2009/04/23 13:41:50.3    -268   -106      1    289    290 248.3   0.2  34186  290.00 0854.49
2009/04/23 13:41:50.4    -222   -166    -35    278    281 233.2  -7.3  34186  290.02 0854.49
2009/04/23 13:41:50.5    -164   -159    -27    229    231 226.0  -6.9  34184  289.97 0854.49
2009/04/23 13:41:50.6     -49   -157    -37    165    170 197.6 -12.6  34178  289.89 0854.49
2009/04/23 13:41:50.7    -184   -159    -86    244    258 229.1 -24.4  34178  289.88 0854.49
2009/04/23 13:41:50.8    -296   -216    -14    367    368 233.8  -2.2  34184  289.99 0854.49
2009/04/23 13:41:50.9    -295   -277    -14    406    407 226.8  -2.1  34186  290.00 0854.49
2009/04/23 13:41:51.0    -319   -287    -62    430    435 228.1  -8.3  34182  289.95 0854.49
2009/04/23 13:41:51.1    -311   -311    -58    441    445 225.0  -7.6  34188  290.04 0854.49
2009/04/23 13:41:51.2    -262   -391    -30    471    472 213.8  -3.7  34178  289.86 0854.49
2009/04/23 13:41:51.3    -333   -393    -31    516    517 220.3  -3.5  34180  289.91 0854.49
2009/04/23 13:41:51.4    -233   -281    270    366    454 219.6  39.9  34178  289.87 0854.49
2009/04/23 13:41:51.5    -170   -149    239    227    329 228.7  51.5  34188  290.05 0854.49
2009/04/23 13:41:51.6    -134    -91    149    163    220 235.8  47.7  34188  290.04 0854.49
2009/04/23 13:41:51.7     -89    -36    156     97    183 247.8  64.9  34188  290.04 0854.49
2009/04/23 13:41:51.8     -99    -63    156    118    195 237.6  59.0  34184  289.97 0854.49
2009/04/23 13:41:51.9    -164   -193     94    254    270 220.3  21.0  34186  290.00 0854.49
2009/04/23 13:41:52.0    -156   -290     58    330    336 208.3  10.0  34182  289.96 0854.49
2009/04/23 13:41:52.1     -77   -268    127    279    306 196.0  26.2  34188  290.03 0854.49
2009/04/23 13:41:52.2      -4   -240    199    241    312 181.0  43.7  34182  289.93 0854.49
2009/04/23 13:41:52.3    -122   -258    170    286    332 205.3  33.5  34196  290.17 0854.49
2009/04/23 13:41:52.4    -181   -332    -65    379    385 208.6  -9.8  34188  290.03 0854.49
2009/04/23 13:41:52.5    -265   -419    -30    496    497 212.3  -3.5  34184  289.98 0854.49
2009/04/23 13:41:52.6    -373   -366      8    523    524 225.6   0.9  34192  290.11 0854.50
2009/04/23 13:41:52.7    -327   -408    -68    524    529 218.7  -7.5  34192  290.11 0854.50
2009/04/23 13:41:52.8    -366   -306     10    478    479 230.1   1.2  34196  290.17 0854.50
2009/04/23 13:41:52.9    -290   -302    -22    419    420 223.8  -3.1  34194  290.14 0854.50
2009/04/23 13:41:53.0    -382   -205     13    434    435 241.8   1.8  34198  290.21 0854.50
2009/04/23 13:41:53.1    -379   -265    -41    463    465 235.0  -5.1  34206  290.35 0854.50
2009/04/23 13:41:53.2    -344   -273    -88    440    449 231.6 -11.3  34204  290.31 0854.50
2009/04/23 13:41:53.3    -326   -382    -77    503    509 220.5  -8.7  34196  290.18 0854.50
2009/04/23 13:41:53.4    -121   -597     35    610    611 191.5   3.3  34186  290.00 0854.50
2009/04/23 13:41:53.5    -194   -363    149    412    439 208.1  19.9  34182  289.94 0854.50
2009/04/23 13:41:53.6     -89   -494    239    503    556 190.3  27.3  34190  290.07 0854.50
2009/04/23 13:41:53.7    -103   -462    129    474    492 192.7  15.3  34176  289.83 0854.50
2009/04/23 13:41:53.8     -77   -470    -15    477    478 189.4  -1.9  34182  289.95 0854.50
2009/04/23 13:41:53.9    -172   -424    258    458    525 202.1  31.9  34184  289.98 0854.50
2009/04/23 13:41:54.0     -21   -323    135    324    351 183.8  23.8  34182  289.96 0854.50
2009/04/23 13:41:54.1    -198   -416     60    461    465 205.5   7.5  34180  289.92 0854.50
2009/04/23 13:41:54.2    -200   -523     97    561    570 200.9   9.9  34174  289.80 0854.50
2009/04/23 13:41:54.3    -194   -349    175    400    436 209.0  25.1  34182  289.94 0854.50
2009/04/23 13:41:54.4    -198   -341    131    395    417 210.1  18.4  34178  289.87 0854.50
2009/04/23 13:41:54.5    -148   -188    132    240    273 218.1  31.3  34184  289.97 0854.49
2009/04/23 13:41:54.6    -204   -198    202    285    349 226.0  38.7  34178  289.86 0854.49
2009/04/23 13:41:54.7    -146   -171    356    226    421 220.5  64.7  34182  289.96 0854.49
2009/04/23 13:41:54.8     -35   -150    173    155    232 193.3  53.5  34182  289.96 0854.49
2009/04/23 13:41:54.9      -4   -310     43    311    315 180.9   8.0  34174  289.81 0854.49
2009/04/23 13:41:55.0    -122   -301     10    325    326 202.1   1.8  34178  289.86 0854.49
2009/04/23 13:41:55.1    -223   -224     70    317    325 224.8  12.6  34184  289.97 0854.49
2009/04/23 13:41:55.2    -163   -321    163    361    396 207.0  26.0  34180  289.91 0854.49
2009/04/23 13:41:55.3     -63   -337    205    343    399 190.6  33.7  34182  289.93 0854.49
2009/04/23 13:41:55.4      13   -307    266    308    406 177.5  45.2  34184  289.98 0854.49
2009/04/23 13:41:55.5      10   -228    211    229    311 177.3  47.9  34180  289.92 0854.49
2009/04/23 13:41:55.6      22    -52    220     57    227 156.4  85.4  34184  289.99 0854.49
2009/04/23 13:41:55.7     -53     -1    223     54    229 268.3  86.9  34182  289.96 0854.49
2009/04/23 13:41:55.8      23    -44    216     50    221 151.9  87.0  34184  289.99 0854.49
2009/04/23 13:41:55.9     248      0    320    249    405  90.0  58.4  34184  289.98 0854.49
2009/04/23 13:41:56.0     232    -20    227    233    325  95.0  49.4  34186  290.00 0854.49
2009/04/23 13:41:56.1     289      4    208    290    356  89.2  39.3  34182  289.93 0854.49
2009/04/23 13:41:56.2     383    151    267    412    490  68.5  36.0  34180  289.91 0854.49
2009/04/23 13:41:56.3      48   -123    232    133    267 158.6  67.7  34186  290.02 0854.49
2009/04/23 13:41:56.4     169     35    255    173    308  78.1  62.7  34184  289.98 0854.49
2009/04/23 13:41:56.5      14     -9     93     17     94 122.4  90.0  34180  289.91 0854.44
2009/04/23 13:41:56.6    -166    -14     55    167    176 265.0  18.4  34186  290.01 0854.44
2009/04/23 13:41:56.7    -114     13      4    115    116 276.6   2.3  34184  289.97 0854.44
2009/04/23 13:41:56.8     -81    -77     98    112    148 226.4  45.8  34182  289.96 0854.44
2009/04/23 13:41:56.9    -149     54    115    159    196 289.9  39.7  34184  289.97 0854.44
2009/04/23 13:41:57.0     -68     45    106     82    134 303.3  58.5  34184  289.97 0854.44
2009/04/23 13:41:57.1      19    -31    135     37    139 147.5  84.8  34186  290.01 0854.44
2009/04/23 13:41:57.2     -41   -189    245    194    312 192.5  57.8  34188  290.05 0854.44
2009/04/23 13:41:57.3      79      4    280     80    291  86.5  83.8  34182  289.95 0854.44
2009/04/23 13:41:57.4     194    -32    139    197    241  99.5  38.6  34184  289.99 0854.44
2009/04/23 13:41:57.5     -12    -72    216     74    228 189.8  81.0  34182  289.96 0854.44
2009/04/23 13:41:57.6     -21   -112    237    115    263 190.7  72.7  34184  289.99 0854.44
2009/04/23 13:41:57.7     -38   -169     92    174    196 192.7  30.1  34178  289.87 0854.44
2009/04/23 13:41:57.8     -95   -194    181    217    282 206.1  43.8  34184  289.98 0854.44
2009/04/23 13:41:57.9     -19   -252    300    253    392 184.4  55.7  34182  289.93 0854.44
2009/04/23 13:41:58.0      22   -138    176    140    224 170.7  57.1  34186  290.01 0854.44
2009/04/23 13:41:58.1      20    -66    140     70    156 163.1  71.7  34182  289.94 0854.44
2009/04/23 13:41:58.2      50   -397    250    401    472 172.8  34.9  34184  289.99 0854.44
2009/04/23 13:41:58.3      93   -544    326    553    641 170.2  33.3  34172  289.78 0854.44
2009/04/23 13:41:58.4     112   -636    258    646    695 170.0  23.0  34174  289.82 0854.44
2009/04/23 13:41:58.5     154   -590    172    610    634 165.3  15.8  34182  289.94 0854.42
2009/04/23 13:41:58.6     174   -592     90    618    625 163.6   8.3  34174  289.82 0854.42
2009/04/23 13:41:58.7      80   -739    260    744    789 173.8  19.3  34178  289.86 0854.42
2009/04/23 13:41:58.8     128   -659    162    672    692 169.0  13.6  34188  290.05 0854.42
2009/04/23 13:41:58.9      51   -546    176    549    577 174.6  17.8  34178  289.87 0854.42
2009/04/23 13:41:59.0     240   -504    343    559    655 154.5  34.5  34178  289.86 0854.42
2009/04/23 13:41:59.1     128   -489    401    506    645 165.3  42.4  34178  289.88 0854.42
2009/04/23 13:41:59.2     208   -476    276    520    588 156.4  30.2  34178  289.87 0854.42
2009/04/23 13:41:59.3      61   -462    403    467    616 172.4  45.2  34176  289.85 0854.42
2009/04/23 13:41:59.4      74   -337    221    346    410 167.6  35.6  34172  289.77 0854.42
2009/04/23 13:41:59.5     149   -442    317    467    564 161.3  37.4  34176  289.85 0854.42
2009/04/23 13:41:59.6     -84   -358     67    368    375 193.3  10.3  34180  289.91 0854.42
2009/04/23 13:41:59.7    -155   -214     41    265    269 216.0   8.9  34180  289.92 0854.42
2009/04/23 13:41:59.8     -23     38    127     45    134 329.3  80.7  34184  289.97 0854.42
2009/04/23 13:41:59.9      39     25    172     47    178  56.7  84.8  34184  289.99 0854.42
2009/04/23 13:42:00.0      33    -27    182     43    187 129.5  87.3  34182  289.96 0854.42
2009/04/23 13:42:00.1     196     32    233    199    306  80.5  55.4  34182  289.95 0854.42
2009/04/23 13:42:00.2      74    -24    235     78    247 108.2  80.7  34186  290.01 0854.42
2009/04/23 13:42:00.3    -133   -207    277    247    371 212.7  53.7  34178  289.89 0854.42
2009/04/23 13:42:00.4    -117   -271    365    296    469 203.4  57.0  34186  290.02 0854.42
2009/04/23 13:42:00.5    -131   -248    301    281    411 208.0  52.2  34182  289.96 0854.40
2009/04/23 13:42:00.6    -137   -215    178    256    311 212.5  38.0  34186  290.00 0854.40
2009/04/23 13:42:00.7     -71   -281     95    291    307 194.3  18.1  34188  290.05 0854.40
2009/04/23 13:42:00.8     -97   -254    168    273    320 201.0  34.6  34180  289.90 0854.40
2009/04/23 13:42:00.9      17   -124    125    126    177 172.0  50.0  34184  289.97 0854.40
2009/04/23 13:42:01.0     134    -91    107    162    194 124.2  36.0  34182  289.96 0854.40
2009/04/23 13:42:01.1     159    -14     88    160    182  95.2  31.4  34206  290.35 0854.40
2009/04/23 13:42:01.2     152   -106     57    186    195 125.1  17.3  34222  290.64 0854.40
2009/04/23 13:42:01.3     221     31     82    224    238  81.9  21.0  34272  291.48 0854.40
2009/04/23 13:42:01.4     203    -47    114    209    238 103.3  31.0  34268  291.42 0854.40
2009/04/23 13:42:01.5     261    -57    200    268    334 102.4  40.6  34284  291.68 0854.40
2009/04/23 13:42:01.6     137     49    242    146    282  70.1  66.2  34266  291.36 0854.40
2009/04/23 13:42:01.7      79    -61    202    101    225 127.8  71.9  34262  291.32 0854.40
2009/04/23 13:42:01.8       8   -158    234    159    282 176.9  62.7  34230  290.75 0854.40
2009/04/23 13:42:01.9     160    -99    207    189    280 121.8  53.0  34266  291.36 0854.40
2009/04/23 13:42:02.0     109    -41    172    117    208 110.8  62.7  34274  291.52 0854.40
2009/04/23 13:42:02.1     -71     33    114     79    138 295.4  62.1  34246  291.03 0854.40
2009/04/23 13:42:02.2       4    -73    168     74    183 176.4  75.0  34222  290.62 0854.40
2009/04/23 13:42:02.3     249   -180    281    308    416 125.9  47.1  34196  290.18 0854.40
2009/04/23 13:42:02.4     253   -336    320    421    528 143.0  41.2  34178  289.88 0854.40
2009/04/23 13:42:02.5      86   -126    321    153    355 145.8  72.8  34174  289.81 0854.41
2009/04/23 13:42:02.6      21   -237    379    238    447 174.9  64.7  34178  289.86 0854.41
2009/04/23 13:42:02.7     140   -329    393    358    531 157.0  53.2  34176  289.84 0854.41
2009/04/23 13:42:02.8     279   -137    325    312    450 116.2  51.3  34182  289.94 0854.41
2009/04/23 13:42:02.9      34   -127    298    132    325 164.9  74.7  34186  290.00 0854.41
2009/04/23 13:42:03.0     -58    -23    220     63    228 248.3  83.9  34182  289.94 0854.41
2009/04/23 13:42:03.1      78      0    115     79    139  90.0  62.6  34180  289.92 0854.41
2009/04/23 13:42:03.2     -18    -25     70     31     76 216.1  75.0  34174  289.82 0854.41
2009/04/23 13:42:03.3      85     90    111    124    166  43.3  46.4  34178  289.89 0854.41
2009/04/23 13:42:03.4      -6     25    102     26    105 346.6  85.4  34178  289.87 0854.41
2009/04/23 13:42:03.5     -66     57    101     88    133 310.9  54.3  34180  289.92 0854.41
2009/04/23 13:42:03.6     -63     63    116     90    146 315.0  57.9  34180  289.92 0854.41
2009/04/23 13:42:03.7      61      2    138     62    151  87.4  74.0  34176  289.85 0854.41
2009/04/23 13:42:03.8      -1    -72    224     73    235 180.9  81.2  34176  289.84 0854.41
2009/04/23 13:42:03.9     -31   -153    219    157    269 191.5  60.6  34178  289.88 0854.41
2009/04/23 13:42:04.0      20   -177    188    179    259 173.5  51.4  34178  289.86 0854.41
2009/04/23 13:42:04.1      77   -196    224    211    307 158.4  52.1  34172  289.76 0854.41
2009/04/23 13:42:04.2     125   -208     61    243    251 149.0  14.2  34172  289.76 0854.41
2009/04/23 13:42:04.3     205   -107     70    232    243 117.5  16.8  34174  289.81 0854.41
2009/04/23 13:42:04.4     152   -108     41    187    192 125.3  12.6  34172  289.79 0854.41
2009/04/23 13:42:04.6     123    -30     23    127    130 103.7  10.6  34170  289.75 0854.38
2009/04/23 13:42:04.7      69    -71    107    100    146 135.9  52.1  34176  289.84 0854.38
2009/04/23 13:42:04.8      58    -27     54     65     84 115.4  43.7  34174  289.80 0854.38
2009/04/23 13:42:04.8      24     60     85     65    107  21.9  59.0  34176  289.84 0854.38
2009/04/23 13:42:04.9      56      0    113     57    126  90.0  71.0  34178  289.89 0854.38
2009/04/23 13:42:05.0      92    -22    111     95    146 103.7  54.8  34176  289.84 0854.38
2009/04/23 13:42:05.2     145    -31    109    149    184 102.4  39.7  34172  289.79 0854.38
2009/04/23 13:42:05.3     125     -1    155    126    199  90.8  56.6  34176  289.84 0854.38
2009/04/23 13:42:05.4      47     14    117     50    127  73.2  75.5  34180  289.92 0854.38
2009/04/23 13:42:05.5      56     26     96     62    114  64.6  64.6  34180  289.91 0854.38
2009/04/23 13:42:05.6     100     92     21    137    139  47.3   9.0  34202  290.28 0854.38
2009/04/23 13:42:05.7      63    -52      2     82     83 129.5   1.8  34188  290.06 0854.38
2009/04/23 13:42:05.8      35      8    126     36    131  76.7  83.9  34196  290.19 0854.38
2009/04/23 13:42:05.9      31     48     96     58    112  32.5  65.7  34242  290.96 0854.38
2009/04/23 13:42:06.0     -40    -61     78     74    107 213.4  51.6  34190  290.08 0854.38
2009/04/23 13:42:06.1     -40     17     44     44     62 293.5  50.1  34214  290.48 0854.38
2009/04/23 13:42:06.2       2    151     53    152    162   1.0  19.2  34252  291.15 0854.38
2009/04/23 13:42:06.3      22    221     77    223    237   5.8  19.2  34266  291.38 0854.38
2009/04/23 13:42:06.4     -82    169     31    188    191 334.1   9.5  34254  291.18 0854.38
2009/04/23 13:42:06.5     -88    196     66    216    227 335.7  17.1  34236  290.86 0854.38
2009/04/23 13:42:06.6     -56    113     95    127    158 333.7  40.7  34240  290.94 0854.37
2009/04/23 13:42:06.7      25    154     27    157    160   9.3   9.9  34204  290.33 0854.37
2009/04/23 13:42:06.8      92     76    124    120    172  50.5  50.7  34188  290.04 0854.37
2009/04/23 13:42:06.9     117    246     90    273    288  25.5  18.4  34198  290.20 0854.37
2009/04/23 13:42:07.0     115    374      2    392    393  17.2   0.4  34200  290.25 0854.37
2009/04/23 13:42:07.1     177    294     -2    344    345  31.1  -0.5  34206  290.35 0854.37
2009/04/23 13:42:07.2      84    256    -59    270    277  18.3 -12.4  34212  290.44 0854.37
2009/04/23 13:42:07.3     142    188     -1    236    237  37.0  -0.3  34230  290.76 0854.37
2009/04/23 13:42:07.4     190    288     88    346    358  33.5  14.3  34240  290.93 0854.37
2009/04/23 13:42:07.5     294    171     57    341    346  59.9   9.5  34226  290.69 0854.37
2009/04/23 13:42:07.6     269    243     32    363    365  47.9   5.2  34194  290.15 0854.37
2009/04/23 13:42:07.7     152    188    123    242    271  39.0  28.7  34190  290.07 0854.37
2009/04/23 13:42:07.8     263    100    218    282    356  69.2  41.6  34176  289.84 0854.37
2009/04/23 13:42:07.9     262     71    191    272    332  74.9  38.6  34176  289.83 0854.37
2009/04/23 13:42:08.0     282     31    282    284    400  83.6  50.0  34178  289.86 0854.37
2009/04/23 13:42:08.1     210     24    267    212    340  83.4  57.7  34186  290.00 0854.37
2009/04/23 13:42:08.2     193     14    257    194    322  85.6  59.3  34178  289.88 0854.37
2009/04/23 13:42:08.3     154     11    213    155    263  85.6  60.5  34182  289.95 0854.37
2009/04/23 13:42:08.4     161     68    191    175    259  66.9  52.5  34182  289.95 0854.37
2009/04/23 13:42:08.5     -34    102    134    108    172 341.3  56.6  34188  290.04 0854.37
2009/04/23 13:42:08.6    -132     67     95    149    176 297.0  35.6  34202  290.30 0854.40
2009/04/23 13:42:08.7    -159    133     78    208    222 309.8  21.5  34208  290.40 0854.40
2009/04/23 13:42:08.8     -80    182     68    200    212 336.2  18.9  34236  290.86 0854.40
2009/04/23 13:42:08.9     -73    214     40    227    231 341.1  10.0  34236  290.87 0854.40
2009/04/23 13:42:09.0      87    253     35    268    271  19.1   7.5  34244  290.99 0854.40
2009/04/23 13:42:09.1     211    107     79    237    250  62.9  18.5  34256  291.21 0854.40
2009/04/23 13:42:09.2     147    136     71    201    214  47.3  19.6  34276  291.54 0854.40
2009/04/23 13:42:09.3     267    116     79    292    303  66.5  15.3  34288  291.73 0854.40
2009/04/23 13:42:09.4     320    146    290    352    456  65.4  43.7  34280  291.60 0854.40
2009/04/23 13:42:09.5     281    356    185    454    490  38.3  23.5  34294  291.85 0854.40
2009/04/23 13:42:09.6     270    265     73    379    387  45.6  11.0  34286  291.71 0854.40
2009/04/23 13:42:09.7      93    293    109    308    327  17.6  19.6  34274  291.50 0854.40
2009/04/23 13:42:09.8     368    417    152    557    578  41.5  15.3  34222  290.64 0854.40
2009/04/23 13:42:09.9     619    349    128    711    723  60.6  10.2  34206  290.35 0854.40
2009/04/23 13:42:10.0     497    386    224    630    668  52.2  20.4  34272  291.47 0854.40
2009/04/23 13:42:10.1     514    372    289    635    697  54.0  26.3  34260  291.26 0854.40
2009/04/23 13:42:10.2     553    373    295    668    730  56.0  25.3  34242  290.98 0854.40
2009/04/23 13:42:10.3     645    339    370    729    817  62.2  29.1  34208  290.39 0854.40
2009/04/23 13:42:10.4     638    202    205    670    701  72.4  17.1  34214  290.49 0854.40
2009/04/23 13:42:10.5     525    334    -48    623    626  57.5  -4.5  34202  290.28 0854.40
2009/04/23 13:42:10.6     447    238      6    507    508  62.0   0.7  34208  290.39 0854.43
2009/04/23 13:42:10.7     349    271    -62    443    448  52.2  -8.0  34210  290.43 0854.43
2009/04/23 13:42:10.8     342    223    -97    409    421  56.9 -13.4  34200  290.24 0854.43
2009/04/23 13:42:10.9     223    306    -77    379    387  36.1 -11.5  34208  290.38 0854.43
2009/04/23 13:42:11.0     365     23   -115    366    383  86.4 -22.4  34214  290.50 0854.43
2009/04/23 13:42:11.1     386     -3   -107    387    401  90.5 -20.1  34210  290.43 0854.43
2009/04/23 13:42:11.2     412     17     -5    413    414  87.6  -0.7  34208  290.38 0854.43
2009/04/23 13:42:11.3     599    241    -60    646    650  68.0  -5.3  34198  290.23 0854.43
2009/04/23 13:42:11.4     579    380      2    693    694  56.7   0.2  34192  290.10 0854.43
2009/04/23 13:42:11.5     540    392    -26    668    669  54.0  -2.2  34204  290.31 0854.43
2009/04/23 13:42:11.6     602    315    -20    680    681  62.4  -1.7  34192  290.10 0854.43
2009/04/23 13:42:11.7     689    324     19    762    763  64.8   1.5  34186  290.01 0854.43
2009/04/23 13:42:11.8     828    425     57    931    933  62.8   3.5  34202  290.27 0854.43
2009/04/23 13:42:11.9     563    303    213    640    675  61.7  18.5  34202  290.27 0854.43
2009/04/23 13:42:12.0     305    310    232    436    493  44.5  30.3  34238  290.90 0854.43
2009/04/23 13:42:12.1     278    231    140    362    388  50.3  22.3  34242  290.96 0854.43
2009/04/23 13:42:12.2     632    301   -128    701    713  64.5 -10.4  34208  290.37 0854.43
2009/04/23 13:42:12.3     558    337    -71    652    656  58.9  -6.3  34224  290.65 0854.43
2009/04/23 13:42:12.4     631    221    -37    669    671  70.7  -3.2  34218  290.55 0854.43
2009/04/23 13:42:12.5     525    308     90    609    616  59.6   8.5  34262  291.29 0854.43
2009/04/23 13:42:12.6     445    195    150    487    510  66.3  17.2  34256  291.19 0854.45
2009/04/23 13:42:12.7     569    229    144    614    631  68.1  13.2  34278  291.56 0854.45
2009/04/23 13:42:12.8     388    177    367    427    563  65.5  45.0  34294  291.86 0854.45
2009/04/23 13:42:12.9     513    150    247    535    589  73.7  26.5  34236  290.85 0854.45
2009/04/23 13:42:13.0     323    250    169    409    442  52.3  23.8  34216  290.53 0854.45
2009/04/23 13:42:13.1     224    302    166    377    411  36.6  25.2  34224  290.67 0854.45
2009/04/23 13:42:13.2     478    165    134    506    524  70.9  14.9  34236  290.86 0854.45
2009/04/23 13:42:13.3     430    282     39    515    517  56.7   4.3  34228  290.74 0854.45
2009/04/23 13:42:13.4     590    249    145    641    658  67.1  12.8  34216  290.52 0854.45
2009/04/23 13:42:13.5     734    358    185    817    838  64.0  12.8  34204  290.33 0854.45
2009/04/23 13:42:13.6     806    114    229    815    847  81.9  15.7  34198  290.20 0854.48
2009/04/23 13:42:13.7     901    313    174    955    971  70.8  10.3  34202  290.28 0854.48
2009/04/23 13:42:13.8     676    242     22    719    720  70.3   1.8  34202  290.30 0854.48
2009/04/23 13:42:13.9     724     17      2    725    726  88.6   0.2  34192  290.11 0854.48
2009/04/23 13:42:14.0     395     99     30    408    410  75.9   4.3  34190  290.09 0854.48
2009/04/23 13:42:14.1     281     82     25    293    295  73.6   4.9  34190  290.07 0854.48
2009/04/23 13:42:14.2     196     71    101    209    232  70.1  27.3  34202  290.30 0854.48
2009/04/23 13:42:14.3     469    226     62    521    525  64.3   6.9  34182  289.96 0854.48
2009/04/23 13:42:14.4     673    169     65    694    698  75.9   5.4  34162  289.61 0854.48
2009/04/23 13:42:14.5     795    117    137    804    816  81.6   9.7  34182  289.96 0854.48
2009/04/23 13:42:14.6     610    207    -38    645    647  71.2  -3.4  34218  290.54 0854.48
2009/04/23 13:42:14.7     488    235     67    542    547  64.2   7.1  34216  290.52 0854.48
2009/04/23 13:42:14.8     451    161    -98    480    491  70.3 -11.6  34202  290.27 0854.48
2009/04/23 13:42:14.9     436     75    -89    443    452  80.2 -11.5  34186  290.00 0854.48
2009/04/23 13:42:15.0     583     61     50    587    590  84.0   4.9  34182  289.93 0854.48
2009/04/23 13:42:15.1     577     89      7    584    585  81.2   0.7  34166  289.66 0854.48
2009/04/23 13:42:15.2     598     33    100    599    608  86.8   9.5  34166  289.68 0854.48
2009/04/23 13:42:15.3     466    281    334    545    639  58.9  34.4  34166  289.68 0854.48
2009/04/23 13:42:15.4     324     77    462    334    570  76.6  60.6  34186  290.00 0854.48
2009/04/23 13:42:15.5     306   -321   -369    444    577 136.3 -48.2  34176  289.85 0854.48
2009/04/23 13:42:15.6     225   -225     26    319    321 134.9   4.7  34180  289.92 0854.49
2009/04/23 13:42:15.7      48   -121    -75    131    150 158.2 -36.8  34172  289.79 0854.49
2009/04/23 13:42:15.8     342     22    -44    343    346  86.3  -7.5  34174  289.82 0854.49
2009/04/23 13:42:15.9     352    117    -72    371    378  71.6 -11.0  34184  289.98 0854.49
2009/04/23 13:42:16.0     581    -81     73    587    592  98.0   7.1  34162  289.59 0854.49
2009/04/23 13:42:16.1     356    215    195    417    460  58.9  27.1  34162  289.60 0854.49
2009/04/23 13:42:16.2     583    109    203    593    627  79.4  18.9  34180  289.92 0854.49
2009/04/23 13:42:16.3     796    105    198    803    828  82.4  13.9  34176  289.84 0854.49
2009/04/23 13:42:16.4     913   -157    286    927    971  99.8  17.2  34160  289.57 0854.49
2009/04/23 13:42:16.5     871   -395    366    957   1024 114.4  22.0  34176  289.85 0854.49
2009/04/23 13:42:16.6     814   -359    180    890    908 113.8  11.5  34182  289.94 0854.49
2009/04/23 13:42:16.7     790   -385    109    879    886 116.0   7.1  34176  289.84 0854.49
2009/04/23 13:42:16.8     338    -88    123    350    370 104.6  20.1  34174  289.82 0854.49
2009/04/23 13:42:16.9     488   -325    -53    587    590 123.7  -5.2  34166  289.69 0854.49
2009/04/23 13:42:17.0     517    -38     53    519    522  94.3   5.9  34172  289.77 0854.49
2009/04/23 13:42:17.1     404   -115    307    421    521 105.9  39.7  34166  289.69 0854.49
2009/04/23 13:42:17.2     360     86    304    371    479  76.5  43.6  34170  289.73 0854.49
2009/04/23 13:42:17.3     422    198    265    467    536  64.9  32.1  34176  289.84 0854.49
2009/04/23 13:42:17.4     355    123    230    376    440  70.8  34.4  34178  289.87 0854.49
2009/04/23 13:42:17.5     230    132    184    266    323  60.2  38.3  34168  289.70 0854.49
2009/04/23 13:42:17.6      32     75    223     82    237  23.6  79.1  34176  289.85 0854.49
2009/04/23 13:42:17.7    -110   -151    111    187    217 216.1  33.5  34178  289.89 0854.49
2009/04/23 13:42:17.8     -11   -119    179    120    215 185.3  63.2  34178  289.87 0854.49
2009/04/23 13:42:17.9     -12   -183    286    184    340 183.8  64.6  34176  289.83 0854.49
2009/04/23 13:42:18.0     -94   -250    225    268    349 200.7  44.2  34178  289.86 0854.49
2009/04/23 13:42:18.1      48   -190    117    197    229 165.7  33.5  34164  289.65 0854.49
2009/04/23 13:42:18.2      19     57    174     61    184  18.7  80.5  34172  289.77 0854.49
2009/04/23 13:42:18.3    -139   -104    168    174    241 233.1  49.0  34170  289.75 0854.49
2009/04/23 13:42:18.4    -294   -191    151    351    382 236.9  24.9  34180  289.91 0854.49
2009/04/23 13:42:18.5    -442   -145    109    466    479 251.9  13.2  34182  289.93 0854.49
2009/04/23 13:42:18.6    -334    -46    134    338    363 262.1  22.9  34168  289.71 0854.49
2009/04/23 13:42:18.7    -203   -297    183    360    403 214.4  29.1  34182  289.94 0854.49
2009/04/23 13:42:18.8     -71   -253    187    263    322 195.8  39.0  34166  289.68 0854.49
2009/04/23 13:42:18.9    -218   -462    -28    512    513 205.3  -3.1  34186  290.00 0854.49
2009/04/23 13:42:19.0    -184   -335   -116    383    400 208.7 -21.8  34182  289.96 0854.49
2009/04/23 13:42:19.1    -324   -332    -24    465    466 224.3  -3.0  34188  290.06 0854.49
2009/04/23 13:42:19.2    -328   -166   -121    368    388 243.1 -18.2  34192  290.13 0854.49
2009/04/23 13:42:19.3    -322   -106    -71    340    348 251.7 -11.9  34188  290.06 0854.49
2009/04/23 13:42:19.4    -318     -7   -150    319    352 268.7 -31.5  34192  290.13 0854.49
2009/04/23 13:42:19.5    -320     69    -43    328    331 282.3  -7.6  34192  290.11 0854.49
2009/04/23 13:42:19.6    -466     35     -1    468    469 274.4  -0.2  34190  290.08 0854.48
2009/04/23 13:42:19.7    -228     74   -183    240    301 288.2 -45.6  34190  290.07 0854.48
2009/04/23 13:42:19.8    -261   -177   -114    316    335 235.9 -25.1  34188  290.04 0854.48
2009/04/23 13:42:19.9    -132   -239     73    274    284 208.9  15.0  34196  290.17 0854.48
2009/04/23 13:42:20.0    -119   -126   -148    174    228 223.4 -48.9  34192  290.11 0854.48
2009/04/23 13:42:20.1    -292    -83   -109    304    324 254.1 -19.8  34194  290.14 0854.48
2009/04/23 13:42:20.2    -249   -124     -1    279    280 243.6  -0.3  34200  290.26 0854.48
2009/04/23 13:42:20.3    -358   -164   -215    394    448 245.4 -35.7  34196  290.19 0854.48
2009/04/23 13:42:20.4    -337    -99   -121    352    373 253.6 -19.1  34192  290.13 0854.48
2009/04/23 13:42:20.5    -358   -165   -140    395    420 245.2 -19.6  34188  290.05 0854.48
2009/04/23 13:42:20.6    -519      2   -129    520    536 270.3 -14.0  34190  290.09 0854.48
2009/04/23 13:42:20.7    -564     72    -95    569    577 277.4  -9.5  34190  290.07 0854.48
2009/04/23 13:42:20.8    -323     53    -73    328    337 279.4 -12.7  34196  290.18 0854.48
2009/04/23 13:42:20.9    -256     -9    -37    257    260 267.9  -8.2  34194  290.14 0854.48
2009/04/23 13:42:21.0    -159   -233    -57    283    289 214.3 -11.6  34184  289.98 0854.48
2009/04/23 13:42:21.1    -274   -150    -30    313    315 241.2  -5.6  34196  290.19 0854.48
2009/04/23 13:42:21.2    -222    -25    -66    224    234 263.4 -16.6  34196  290.18 0854.48
2009/04/23 13:42:21.3    -213   -170   -159    273    315 231.4 -37.3  34178  289.86 0854.48
2009/04/23 13:42:21.4    -156   -207    -84    260    274 217.0 -17.9  34182  289.95 0854.48
2009/04/23 13:42:21.5     -86   -197    -96    216    236 203.6 -29.7  34180  289.92 0854.47
2009/04/23 13:42:21.6    -103     17     45    105    114 279.7  24.1  34180  289.92 0854.47
2009/04/23 13:42:21.7     -20   -250   -123    251    279 184.7 -32.6  34186  290.00 0854.47
2009/04/23 13:42:21.8       5   -213   -122    214    246 178.4 -36.8  34180  289.92 0854.47
2009/04/23 13:42:21.9      45    -91    -34    102    107 153.7 -23.6  34178  289.87 0854.47
2009/04/23 13:42:22.0      83    -31     57     89    105 110.8  35.6  34178  289.87 0854.47
2009/04/23 13:42:22.1      39    -22     97     45    106 119.8  73.5  34178  289.87 0854.47
2009/04/23 13:42:22.2     -51     70    155     87    177 323.9  68.5  34186  290.01 0854.47
2009/04/23 13:42:22.3    -140    -10    178    141    227 265.6  57.5  34186  290.01 0854.47
2009/04/23 13:42:22.4     -59    -48    102     77    127 230.5  58.5  34184  289.99 0854.47
2009/04/23 13:42:22.5    -177   -136     19    224    225 232.5   4.9  34178  289.89 0854.47
2009/04/23 13:42:22.6    -172    -44    -46    178    185 255.6 -14.7  34180  289.92 0854.47
2009/04/23 13:42:22.7    -163   -127     45    207    212 232.0  12.4  34182  289.96 0854.47
2009/04/23 13:42:22.8    -201    -26    -26    203    205 262.5  -7.3  34186  290.01 0854.47
2009/04/23 13:42:22.9    -202    -32     10    205    206 261.0   2.8  34186  290.02 0854.47
2009/04/23 13:42:23.0    -120   -180    112    217    244 213.8  29.3  34184  289.98 0854.47
2009/04/23 13:42:23.1    -217   -242    139    326    354 221.9  24.6  34180  289.91 0854.47
2009/04/23 13:42:23.2    -260   -219    101    341    356 229.9  16.6  34182  289.94 0854.47
2009/04/23 13:42:23.3    -295   -221    -92    369    381 233.1 -14.1  34182  289.93 0854.47
2009/04/23 13:42:23.4    -268   -228   -101    353    367 229.6 -20.9  34178  289.89 0854.47
2009/04/23 13:42:23.5    -161   -205   -178    261    315 218.1 -42.0  34176  289.85 0854.47
2009/04/23 13:42:23.6    -236      7   -131    237    270 271.9 -35.8  34176  289.83 0854.47
2009/04/23 13:42:23.7     -27      2   -123     28    126 276.1 -90.0  34182  289.96 0854.47
2009/04/23 13:42:23.8      49    -13      7     51     52 105.9   8.0  34182  289.94 0854.47
2009/04/23 13:42:23.9      32     -7     24     33     40 103.3  39.7  34184  289.97 0854.47
2009/04/23 13:42:24.0     -58    -57     31     82     87 225.1  21.0  34180  289.92 0854.47
2009/04/23 13:42:24.1     -25    -74     72     79    106 198.7  47.9  34182  289.96 0854.47
2009/04/23 13:42:24.2      10   -205     76    206    219 177.1  21.0  34182  289.96 0854.47
2009/04/23 13:42:24.3     -41   -265     92    269    285 188.9  18.9  34180  289.92 0854.47
2009/04/23 13:42:24.4    -178   -257    113    313    333 214.8  19.9  34178  289.86 0854.47
2009/04/23 13:42:24.5    -122   -274     68    301    309 204.1  12.8  34180  289.92 0854.47
2009/04/23 13:42:24.6     -88   -304     62    317    324 196.3  11.1  34180  289.90 0854.47
2009/04/23 13:42:24.7     -67   -286     74    294    304 193.3  14.2  34178  289.88 0854.47
2009/04/23 13:42:24.8     -91   -191     33    212    215 205.6   8.9  34178  289.89 0854.47
2009/04/23 13:42:24.9    -117   -113    -48    163    169 226.0 -21.5  34184  289.99 0854.47
2009/04/23 13:42:25.0     -94   -156     35    183    187 211.2  10.8  34184  289.97 0854.47
2009/04/23 13:42:25.1      -4   -177    148    178    231 181.4  43.8  34180  289.91 0854.47
2009/04/23 13:42:25.2     -91   -268    164    284    327 198.7  32.7  34178  289.86 0854.47
2009/04/23 13:42:25.3    -107   -220    142    245    283 206.1  32.9  34178  289.88 0854.47
2009/04/23 13:42:25.4    -108   -251    175    274    325 203.4  35.6  34180  289.92 0854.47
2009/04/23 13:42:25.5     -89   -291    210    305    370 197.0  37.7  34182  289.93 0854.46
2009/04/23 13:42:25.6     -27   -246    157    248    293 186.5  35.5  34180  289.90 0854.46
2009/04/23 13:42:25.7     -18   -132    152    134    202 188.0  54.0  34174  289.82 0854.46
2009/04/23 13:42:25.8      17    -11    122     21    123 124.2  90.0  34184  289.99 0854.46
2009/04/23 13:42:25.9     -74    -57    120     94    152 232.2  57.5  34186  290.01 0854.46
2009/04/23 13:42:26.0     -30    -56    152     64    164 208.9  76.1  34184  289.99 0854.46
2009/04/23 13:42:26.1     -84   -137    176    162    239 211.6  52.5  34180  289.92 0854.46
2009/04/23 13:42:26.2    -119   -143    249    187    311 219.7  59.4  34184  289.97 0854.46
2009/04/23 13:42:26.3    -237    -78     88    250    266 251.6  19.4  34188  290.03 0854.46
2009/04/23 13:42:26.4     -91    129     57    158    167 324.8  20.4  34184  289.97 0854.46
2009/04/23 13:42:26.5     -31    314    146    316    348 354.2  26.9  34182  289.94 0854.46
2009/04/23 13:42:26.6    -116    195    103    227    249 329.2  26.2  34180  289.90 0854.46
2009/04/23 13:42:26.7     -44     -7    164     45    170 260.3  84.4  34186  290.02 0854.46
2009/04/23 13:42:26.8    -144    212    137    257    291 325.7  30.3  34178  289.86 0854.46
2009/04/23 13:42:26.9     -83    198     41    215    220 337.3  11.0  34182  289.94 0854.46
2009/04/23 13:42:27.0    -280    114    118    303    325 292.2  22.3  34184  289.98 0854.46
2009/04/23 13:42:27.1    -112     33    -23    117    120 286.4 -11.5  34180  289.92 0854.46
2009/04/23 13:42:27.2    -255    101    150    275    313 291.7  30.9  34178  289.86 0854.46
2009/04/23 13:42:27.3    -231     74    204    243    317 287.9  44.3  34184  289.98 0854.46
2009/04/23 13:42:27.4    -253      3    150    254    294 270.8  33.4  34184  289.97 0854.46
2009/04/23 13:42:27.5    -222    192    124    294    319 310.9  24.3  34184  289.97 0854.45
2009/04/23 13:42:27.6    -323    117    231    344    414 290.0  37.2  34182  289.94 0854.45
2009/04/23 13:42:27.7    -136    -36    198    141    243 254.9  61.3  34180  289.91 0854.45
2009/04/23 13:42:27.8      11   -104    189    105    216 173.8  68.8  34182  289.94 0854.45
2009/04/23 13:42:27.9      46     22    128     52    138  64.6  77.0  34188  290.04 0854.45
2009/04/23 13:42:28.0      -3    -20    152     21    153 189.8  90.0  34190  290.08 0854.45
2009/04/23 13:42:28.1     -67     32    135     75    154 295.4  68.8  34186  290.02 0854.45
2009/04/23 13:42:28.2    -217     85     83    234    248 291.5  20.0  34186  290.00 0854.45
2009/04/23 13:42:28.3    -178    246    170    304    348 324.0  31.6  34184  289.99 0854.45
2009/04/23 13:42:28.4    -156    282    170    323    365 331.0  30.0  34184  289.98 0854.45
2009/04/23 13:42:28.5    -181    380    156    422    449 334.5  21.1  34202  290.28 0854.45
2009/04/23 13:42:28.6    -136    380    174    404    439 340.3  25.0  34192  290.11 0854.45
2009/04/23 13:42:28.7    -128    294    174    321    365 336.4  30.8  34194  290.15 0854.45
2009/04/23 13:42:28.8    -131    276    177    306    353 334.5  32.7  34194  290.16 0854.45
2009/04/23 13:42:28.9    -148    212    169    259    309 325.0  35.7  34190  290.09 0854.45
2009/04/23 13:42:29.0     -69    172    191    186    266 338.2  50.9  34182  289.93 0854.45
2009/04/23 13:42:29.1    -105    149    215    183    282 324.6  55.3  34188  290.03 0854.45
2009/04/23 13:42:29.2    -100    184    157    210    262 331.5  40.4  34188  290.03 0854.45
2009/04/23 13:42:29.3      10    230    125    231    262   2.6  31.0  34194  290.14 0854.45
2009/04/23 13:42:29.4     192    188    128    269    297  45.6  27.3  34190  290.09 0854.45
2009/04/23 13:42:29.5      90    207     98    226    246  23.6  25.1  34184  289.98 0854.45
2009/04/23 13:42:29.6     145    227    138    270    303  32.6  29.2  34188  290.03 0854.45
2009/04/23 13:42:29.7    -169    171     47    241    246 315.5  11.1  34184  289.98 0854.45
2009/04/23 13:42:29.8    -325    294     83    439    447 312.2  10.8  34182  289.95 0854.45
2009/04/23 13:42:29.9     -60    295     50    302    307 348.4   9.5  34188  290.05 0854.45
2009/04/23 13:42:30.0    -135    258    164    292    334 332.4  31.7  34190  290.07 0854.45
2009/04/23 13:42:30.1    -124    126     94    178    201 315.5  30.1  34192  290.11 0854.45
2009/04/23 13:42:30.2    -110    -20    101    112    150 259.4  46.9  34194  290.14 0854.45
2009/04/23 13:42:30.3      24    193     82    195    211   7.1  24.1  34196  290.19 0854.45
2009/04/23 13:42:30.4     -42     22    121     48    130 298.0  77.6  34198  290.23 0854.45
2009/04/23 13:42:30.5    -118    249    156    276    317 334.5  32.0  34204  290.31 0854.45
2009/04/23 13:42:30.6    -141    284    165    318    358 333.5  29.5  34258  291.23 0854.45
2009/04/23 13:42:30.7     -99    294     61    311    318 341.3  11.1  34286  291.70 0854.45
2009/04/23 13:42:30.9    -168    248     70    300    309 325.8  13.1  34302  291.97 0854.45
2009/04/23 13:42:31.0    -144    174     77    226    239 320.4  18.9  34314  292.19 0854.45
2009/04/23 13:42:31.1    -101    120     12    158    159 319.9   4.4  34326  292.40 0854.45
2009/04/23 13:42:31.1       5    117     23    118    121   2.7  11.1  34320  292.30 0854.45
2009/04/23 13:42:31.3      91     57     29    108    112  58.0  15.3  34270  291.43 0854.45
2009/04/23 13:42:31.4      39      0     81     40     90  90.0  72.4  34276  291.54 0854.45
2009/04/23 13:42:31.5      28    -43     70     52     87 146.6  59.4  34288  291.76 0854.45
2009/04/23 13:42:31.6      49    -92     54    105    118 151.9  29.2  34300  291.95 0854.44
2009/04/23 13:42:31.7      75    -59     57     96    111 128.6  33.5  34302  291.98 0854.44
2009/04/23 13:42:31.7     125    -41     83    132    155 108.4  35.5  34296  291.88 0854.44
2009/04/23 13:42:31.9     153    -31     66    157    170 101.5  24.1  34262  291.32 0854.44
2009/04/23 13:42:32.0     123    101    -15    160    161  50.5  -5.6  34276  291.55 0854.44
2009/04/23 13:42:32.1     -24     33     43     42     60 323.9  50.1  34278  291.59 0854.44
2009/04/23 13:42:32.2      18    -17     94     26     97 133.1  83.9  34270  291.45 0854.44
2009/04/23 13:42:32.3     212     67    179    223    285  72.5  43.0  34262  291.29 0854.44
2009/04/23 13:42:32.4      -5    128    181    129    222 357.8  61.1  34266  291.37 0854.44
2009/04/23 13:42:32.5      96    179    204    204    288  28.3  50.1  34246  291.02 0854.44
2009/04/23 13:42:32.6      91     91    245    129    276  45.0  70.0  34256  291.21 0854.44
2009/04/23 13:42:32.7      -4    -55    157     56    166 184.5  79.9  34252  291.13 0854.44
2009/04/23 13:42:32.8     -19    -57    115     61    130 198.5  69.8  34246  291.03 0854.44
2009/04/23 13:42:32.9    -220   -121     94    252    268 241.1  21.3  34242  290.95 0854.44
2009/04/23 13:42:33.0    -182   -126     94    222    241 235.1  24.2  34244  291.00 0854.44
2009/04/23 13:42:33.1    -160    -24     34    162    166 261.2  12.0  34242  290.98 0854.44
2009/04/23 13:42:33.2    -150   -181     69    236    247 219.6  16.4  34242  290.95 0854.44
2009/04/23 13:42:33.3     -35   -229    122    232    262 188.7  30.2  34250  291.10 0854.44
2009/04/23 13:42:33.4     -83   -377    217    387    443 192.5  31.7  34248  291.06 0854.44
2009/04/23 13:42:33.5       9   -250    300    251    391 177.8  55.8  34202  290.28 0854.44
2009/04/23 13:42:33.6       0    -41    251     42    254 180.9  90.0  34202  290.30 0854.46
2009/04/23 13:42:33.7    -119     67    284    137    315 299.3  72.6  34202  290.29 0854.46
2009/04/23 13:42:33.8     117    132    248    177    304  41.4  60.8  34198  290.22 0854.46
2009/04/23 13:42:33.9     -70   -109    145    130    194 213.0  53.5  34196  290.18 0854.46
2009/04/23 13:42:34.0     178    -24    259    180    315  97.9  62.0  34208  290.37 0854.46
2009/04/23 13:42:34.1    -305    -21    216    306    374 265.9  38.8  34194  290.15 0854.46
2009/04/23 13:42:34.2    -385    119     98    404    416 287.2  13.7  34210  290.41 0854.46
2009/04/23 13:42:34.3    -226     63    124    235    265 285.7  30.1  34208  290.37 0854.46
2009/04/23 13:42:34.4    -134     15    184    135    228 276.6  60.5  34214  290.48 0854.46
2009/04/23 13:42:34.5      36      3    152     37    156  83.9  86.7  34204  290.31 0854.46
2009/04/23 13:42:34.6     180   -150    239    235    335 129.8  50.6  34204  290.31 0854.47
2009/04/23 13:42:34.7      -1   -199    408    200    454 180.5  72.0  34198  290.23 0854.47
2009/04/23 13:42:34.8    -179    -48    274    186    331 254.9  62.7  34190  290.09 0854.47
2009/04/23 13:42:34.9      56    162    192    172    257  19.2  53.3  34192  290.12 0854.47
2009/04/23 13:42:35.0     105     98    282    144    316  46.9  70.8  34186  290.02 0854.47
2009/04/23 13:42:35.1     324    -57    400    330    518 100.1  56.4  34194  290.16 0854.47
2009/04/23 13:42:35.2     207    -45    302    212    368 102.4  61.7  34194  290.15 0854.47
2009/04/23 13:42:35.3      -5     53    188     54    195 353.8  83.9  34196  290.19 0854.47
2009/04/23 13:42:35.4     167     43    287    173    335  75.6  66.2  34194  290.14 0854.47
2009/04/23 13:42:35.5     192    119    163    226    278  58.2  39.5  34198  290.20 0854.47
2009/04/23 13:42:35.6     199     60    148    209    256  73.1  38.8  34202  290.29 0854.47
2009/04/23 13:42:35.7      92     49    214    105    238  61.6  71.9  34202  290.28 0854.47
2009/04/23 13:42:35.8     196     53    213    204    294  74.9  51.4  34202  290.27 0854.47
2009/04/23 13:42:35.9     289     58    246    295    384  78.6  43.8  34214  290.50 0854.47
2009/04/23 13:42:36.0     208    102    244    232    336  63.8  51.6  34220  290.58 0854.47
2009/04/23 13:42:36.1     153    176    198    234    306  41.0  44.5  34230  290.76 0854.47
2009/04/23 13:42:36.2     236    164    185    288    342  55.1  35.6  34224  290.66 0854.47
2009/04/23 13:42:36.3     142    101    155    175    233  54.5  45.9  34214  290.50 0854.47
2009/04/23 13:42:36.4     -13    251     84    252    266 356.9  18.4  34258  291.24 0854.47
2009/04/23 13:42:36.5     -34    197     92    201    221 350.0  26.4  34230  290.77 0854.47
2009/04/23 13:42:36.6    -325     54   -163    330    368 279.5 -32.5  34190  290.08 0854.49
2009/04/23 13:42:36.7    -316      4   -140    317    346 270.8 -29.7  34178  289.86 0854.49
2009/04/23 13:42:36.8    -443   -337   -161    557    579 232.7 -20.9  34174  289.80 0854.49
2009/04/23 13:42:36.9    -227   -241   -234    332    406 223.3 -43.0  34188  290.04 0854.49
2009/04/23 13:42:37.0    -151   -233     54    279    285 213.0  11.0  34186  290.02 0854.49
2009/04/23 13:42:37.1     -82   -210     92    226    244 201.4  23.1  34188  290.03 0854.49
2009/04/23 13:42:37.2      14    143     76    144    162   5.8  30.3  34208  290.38 0854.49
2009/04/23 13:42:37.3    -309     23     13    310    311 274.4   2.5  34198  290.20 0854.49
2009/04/23 13:42:37.4    -203    111    -24    232    234 298.8  -6.1  34206  290.34 0854.49
2009/04/23 13:42:37.5     -22    223    172    225    283 354.2  41.6  34208  290.37 0854.49
2009/04/23 13:42:37.6       2    148    127    149    195   0.9  45.1  34208  290.38 0854.49
2009/04/23 13:42:37.7    -151    138     72    205    217 312.4  20.2  34206  290.35 0854.49
2009/04/23 13:42:37.8    -302    137     79    332    342 294.4  13.5  34210  290.43 0854.49
2009/04/23 13:42:37.9     -65    258    -86    267    281 345.8 -17.9  34214  290.48 0854.49
2009/04/23 13:42:38.0     -97    204   -101    227    248 334.5 -30.3  34216  290.51 0854.49
2009/04/23 13:42:38.1    -108    183    -74    213    225 329.3 -23.6  34220  290.60 0854.49
2009/04/23 13:42:38.2     113     77    -88    137    162  55.8 -40.0  34202  290.30 0854.49
2009/04/23 13:42:38.3      94    107    159    143    213  41.4  53.3  34198  290.21 0854.49
2009/04/23 13:42:38.4     200    140    142    245    283  54.9  32.9  34200  290.24 0854.49
2009/04/23 13:42:38.5      35    186    201    190    276  10.7  52.1  34196  290.17 0854.49
2009/04/23 13:42:38.6      35     11    113     37    118  71.8  80.7  34218  290.55 0854.49
2009/04/23 13:42:38.7     -57    137    162    149    220 337.3  52.5  34220  290.58 0854.49
2009/04/23 13:42:38.8    -138    307     86    337    348 335.8  14.4  34226  290.69 0854.49
2009/04/23 13:42:38.9    -125    153    -40    198    203 320.8 -11.6  34224  290.67 0854.49
2009/04/23 13:42:39.0    -168     59     -3    179    180 289.5  -1.1  34224  290.67 0854.49
2009/04/23 13:42:39.1      -5    -91     51     92    105 183.1  31.4  34226  290.70 0854.49
2009/04/23 13:42:39.2     -83    -82     79    117    141 225.4  37.6  34222  290.62 0854.49
2009/04/23 13:42:39.3      42    128     95    135    165  18.5  38.6  34230  290.75 0854.49
2009/04/23 13:42:39.4     -35    255     31    258    260 352.0   6.9  34272  291.46 0854.49
2009/04/23 13:42:39.5     -44    280    -44    284    288 350.9  -8.8  34266  291.36 0854.49
2009/04/23 13:42:39.6     -48    257     61    262    269 349.4  13.1  34262  291.29 0854.49
2009/04/23 13:42:39.7       1    322      4    323    324   0.2   0.8  34248  291.07 0854.49
2009/04/23 13:42:39.8     180    216     68    282    291  39.7  13.7  34238  290.90 0854.49
2009/04/23 13:42:39.9     132    120    120    179    215  47.8  37.0  34222  290.64 0854.49
2009/04/23 13:42:40.0      -3    397    235    398    462 359.5  33.4  34252  291.12 0854.49
2009/04/23 13:42:40.1     -58    487    243    491    547 353.2  28.2  34252  291.13 0854.49
2009/04/23 13:42:40.2    -227    465    297    518    597 333.9  32.4  34262  291.32 0854.49
2009/04/23 13:42:40.3    -363    522    -24    637    638 325.2  -2.2  34218  290.57 0854.49
2009/04/23 13:42:40.4    -247    590     -4    640    641 337.3  -0.4  34228  290.74 0854.49
2009/04/23 13:42:40.5    -209    544      7    583    584 339.0   0.7  34222  290.63 0854.49
2009/04/23 13:42:40.6       3    305     -6    306    307   0.7  -1.3  34240  290.93 0854.48
2009/04/23 13:42:40.7    -241    496     98    552    561 334.1  10.1  34238  290.91 0854.48
2009/04/23 13:42:40.8    -213    443     73    492    498 334.3   8.5  34228  290.74 0854.48
2009/04/23 13:42:40.9    -181    398    246    438    502 335.6  31.9  34264  291.34 0854.48
2009/04/23 13:42:41.0      87    137    212    163    267  32.6  58.5  34234  290.82 0854.48
2009/04/23 13:42:41.1     -50     25    147     57    157 297.1  77.8  34220  290.58 0854.48
2009/04/23 13:42:41.2     -93     68    201    116    232 306.0  67.2  34234  290.82 0854.48
2009/04/23 13:42:41.3    -277    106    176    297    345 291.1  33.5  34264  291.34 0854.48
2009/04/23 13:42:41.4    -301    136     99    331    346 294.3  16.7  34244  291.01 0854.48
2009/04/23 13:42:41.5    -432    -97    -64    443    448 257.2  -8.2  34202  290.28 0854.48
2009/04/23 13:42:41.6    -461    -30     -9    462    463 266.3  -1.2  34214  290.48 0854.48
2009/04/23 13:42:41.7    -500   -270    -71    569    574 241.6  -7.2  34186  290.00 0854.48
2009/04/23 13:42:41.8    -514   -212   -143    556    575 247.6 -14.4  34190  290.07 0854.48
2009/04/23 13:42:41.9    -448    -63   -234    453    509 261.9 -33.7  34188  290.05 0854.48
2009/04/23 13:42:42.0    -300    -13    -11    301    302 267.4  -2.2  34198  290.20 0854.48
2009/04/23 13:42:42.1    -331    125     13    354    355 290.7   2.1  34228  290.74 0854.48
2009/04/23 13:42:42.2    -272     87    -38    286    289 287.8  -7.7  34224  290.66 0854.48
2009/04/23 13:42:42.3    -288    -26    -39    290    293 264.8  -7.7  34224  290.66 0854.48
2009/04/23 13:42:42.4    -314      3    -92    315    328 270.6 -21.1  34190  290.09 0854.48
2009/04/23 13:42:42.5    -413    165    -40    445    447 291.8  -5.2  34226  290.68 0854.48
2009/04/23 13:42:42.6    -272   -184    -61    329    335 235.8 -10.5  34212  290.47 0854.48
2009/04/23 13:42:42.7    -460    -30    -70    462    468 266.2  -8.7  34230  290.76 0854.48
2009/04/23 13:42:42.8    -514   -243   -202    569    605 244.7 -19.6  34176  289.83 0854.48
2009/04/23 13:42:42.9    -443   -219   -164    495    521 243.7 -23.6  34178  289.86 0854.48
2009/04/23 13:42:43.0    -402   -165   -190    435    474 247.7 -29.5  34180  289.90 0854.48
2009/04/23 13:42:43.1    -373   -217   -167    432    463 239.8 -26.7  34180  289.92 0854.48
2009/04/23 13:42:43.2    -315   -190   -144    368    395 238.9 -26.9  34182  289.94 0854.48
2009/04/23 13:42:43.3    -343   -196   -234    396    459 240.3 -37.8  34178  289.88 0854.48
2009/04/23 13:42:43.4    -299   -182   -128    351    373 238.6 -25.4  34182  289.94 0854.48
2009/04/23 13:42:43.5    -263   -134   -198    296    356 243.0 -41.6  34182  289.96 0854.48
2009/04/23 13:42:43.6    -192    -63   -231    203    307 251.8 -58.7  34180  289.92 0854.48
2009/04/23 13:42:43.7    -136    -53   -228    147    271 248.7 -69.0  34188  290.03 0854.48
2009/04/23 13:42:43.8     -54    -86   -147    102    178 212.1 -66.2  34200  290.25 0854.48
2009/04/23 13:42:43.9     -24   -254   -127    256    285 185.6 -32.6  34208  290.39 0854.48
2009/04/23 13:42:44.0     164   -363   -109    399    414 155.7 -15.4  34208  290.38 0854.48
2009/04/23 13:42:44.1      96   -461   -130    471    489 168.2 -15.5  34202  290.30 0854.48
2009/04/23 13:42:44.2     128   -397   -107    418    432 162.1 -14.4  34210  290.41 0854.48
2009/04/23 13:42:44.3      87   -431   -129    440    459 168.5 -16.4  34206  290.34 0854.48
2009/04/23 13:42:44.4      96   -349   -122    363    382 164.6 -23.3  34208  290.40 0854.48
2009/04/23 13:42:44.5     213   -475    -19    521    522 155.8  -2.1  34196  290.19 0854.48
2009/04/23 13:42:44.6     253   -447      1    514    515 150.5   0.2  34196  290.18 0854.49
2009/04/23 13:42:44.7     165   -468      8    497    498 160.5   1.0  34198  290.23 0854.49
2009/04/23 13:42:44.8     234   -526    -32    576    577 156.0  -3.2  34192  290.12 0854.49
2009/04/23 13:42:44.9     164   -477     47    505    508 161.0   5.3  34198  290.22 0854.49
2009/04/23 13:42:45.0     410   -411    135    581    597 135.1  13.1  34192  290.10 0854.49
2009/04/23 13:42:45.1     363   -246    204    439    484 124.1  26.6  34196  290.18 0854.49
2009/04/23 13:42:45.2     291   -280     69    405    411 133.9   9.7  34188  290.04 0854.49
2009/04/23 13:42:45.3     147   -312    173    346    386 154.7  28.5  34190  290.08 0854.49
2009/04/23 13:42:45.4      94   -439    168    450    480 167.9  21.5  34180  289.91 0854.49
2009/04/23 13:42:45.5     151   -391    179    420    456 158.8  24.5  34190  290.09 0854.49
2009/04/23 13:42:45.6     149   -341    197    373    421 156.4  30.2  34188  290.05 0854.49
2009/04/23 13:42:45.7     132   -348    270    373    460 159.2  39.5  34190  290.09 0854.49
2009/04/23 13:42:45.8      92   -354    288    366    465 165.3  42.2  34186  290.00 0854.49
2009/04/23 13:42:45.9       0   -266    286    267    391 180.0  52.2  34194  290.15 0854.49
2009/04/23 13:42:46.0     -32   -156    243    160    290 191.6  63.9  34188  290.03 0854.49
2009/04/23 13:42:46.1     -45   -133    221    141    262 198.7  64.6  34192  290.11 0854.49
2009/04/23 13:42:46.2      16    -55    149     58    159 164.0  78.2  34192  290.13 0854.49
2009/04/23 13:42:46.3      23    -23    160     33    163 135.0  88.8  34192  290.13 0854.49
2009/04/23 13:42:46.4      42   -125    184    133    227 161.3  60.6  34194  290.16 0854.49
2009/04/23 13:42:46.5     -36    -87    176     95    200 202.7  69.3  34188  290.04 0854.49
2009/04/23 13:42:46.6     141    -44    133    148    198 107.7  46.6  34194  290.16 0854.48
2009/04/23 13:42:46.7      50    -22     62     55     82 114.4  53.7  34194  290.14 0854.48
2009/04/23 13:42:46.8      17     64    119     67    136  15.2  68.3  34196  290.19 0854.48
2009/04/23 13:42:46.9     -39    -34     97     53    110 228.7  68.9  34198  290.21 0854.48
2009/04/23 13:42:47.0     -16   -164    208    165    265 185.8  57.5  34200  290.24 0854.48
2009/04/23 13:42:47.1     -63   -228    275    237    363 195.6  54.9  34198  290.22 0854.48
2009/04/23 13:42:47.2     -44   -217    191    222    292 191.6  45.1  34196  290.19 0854.48
2009/04/23 13:42:47.3      29    -84    193     89    212 160.8  73.5  34196  290.19 0854.48
2009/04/23 13:42:47.4     103      9     73    104    127  84.8  38.0  34190  290.09 0854.48
2009/04/23 13:42:47.5      76     44    191     88    210  59.8  73.5  34194  290.14 0854.48
2009/04/23 13:42:47.6      23    -93    134     96    164 165.7  61.1  34192  290.11 0854.48
2009/04/23 13:42:47.7      84   -152    211    174    273 151.0  56.4  34184  289.98 0854.48
2009/04/23 13:42:47.8     160    -77    164    178    242 116.0  47.7  34188  290.04 0854.48
2009/04/23 13:42:47.9     170    -71    214    185    282 112.8  54.6  34184  289.98 0854.48
2009/04/23 13:42:48.0     240   -143    178    280    331 120.9  35.5  34184  289.97 0854.48
2009/04/23 13:42:48.1     228   -228    232    323    397 135.1  39.2  34188  290.04 0854.48
2009/04/23 13:42:48.2     236   -182    207    299    363 127.7  37.9  34192  290.11 0854.48
2009/04/23 13:42:48.3     233   -119    217    262    340 117.1  43.8  34188  290.05 0854.48
2009/04/23 13:42:48.4     125    -86    157    153    219 124.6  50.7  34188  290.04 0854.48
2009/04/23 13:42:48.5     135    -66    145    151    209 116.2  49.2  34192  290.11 0854.49
2009/04/23 13:42:48.6      53   -113     95    125    157 154.7  41.4  34194  290.14 0854.49
2009/04/23 13:42:48.7     -34   -139    118    144    186 193.8  43.7  34190  290.09 0854.49
2009/04/23 13:42:48.8     -59   -163    105    174    203 200.0  34.0  34192  290.11 0854.49
2009/04/23 13:42:48.9     -26   -130    112    133    173 191.5  44.3  34190  290.09 0854.49
2009/04/23 13:42:49.0      -8   -116    147    117    187 184.4  57.1  34194  290.14 0854.49
2009/04/23 13:42:49.1      11   -153    148    154    213 175.6  49.2  34192  290.13 0854.49
2009/04/23 13:42:49.2     -55   -138    206    149    254 201.8  60.5  34200  290.26 0854.49
2009/04/23 13:42:49.3      15    -68    110     70    130 167.5  64.7  34196  290.19 0854.49
2009/04/23 13:42:49.4     -13     35     84     38     92 340.0  74.0  34198  290.21 0854.49
2009/04/23 13:42:49.5       4    -59    121     60    135 175.5  71.9  34194  290.14 0854.49
2009/04/23 13:42:49.6       2     -7    142      8    142 161.3  90.0  34190  290.09 0854.49
2009/04/23 13:42:49.7     113     20    218    115    246  79.9  70.4  34200  290.26 0854.49
2009/04/23 13:42:49.8     112    -41    208    120    240 110.4  67.7  34206  290.35 0854.49
2009/04/23 13:42:49.9       6    141    133    142    194   2.7  48.2  34210  290.41 0854.49
2009/04/23 13:42:50.0     -70    -13    169     72    183 259.4  76.1  34230  290.75 0854.49
2009/04/23 13:42:50.1     -19   -141    158    143    213 188.0  53.3  34194  290.14 0854.49
2009/04/23 13:42:50.2      16   -173    174    174    246 174.4  50.1  34184  289.97 0854.49
2009/04/23 13:42:50.3      62   -246    203    254    325 165.7  42.9  34184  289.98 0854.49
2009/04/23 13:42:50.4     100   -128    174    163    238 142.2  52.1  34196  290.18 0854.49
2009/04/23 13:42:50.5     276   -125    223    304    377 114.4  39.8  34190  290.08 0854.45
2009/04/23 13:42:50.6     268    -84    249    282    376 107.5  46.1  34188  290.06 0854.45
2009/04/23 13:42:50.7     212    -56    214    220    306 104.8  49.2  34184  289.97 0854.45
2009/04/23 13:42:50.8     120    -32    198    125    234 105.1  64.7  34192  290.11 0854.45
2009/04/23 13:42:50.9     162      0    205    163    261  90.0  57.5  34186  290.02 0854.45
2009/04/23 13:42:51.0     115     73    123    137    184  57.6  46.9  34190  290.09 0854.45
2009/04/23 13:42:51.1      69     39     92     80    121  60.2  54.3  34194  290.14 0854.45
2009/04/23 13:42:51.2      24     46    103     53    115  28.1  70.8  34198  290.23 0854.45
2009/04/23 13:42:51.3      19     35    121     41    127  29.0  81.2  34192  290.11 0854.45
2009/04/23 13:42:51.4      37     88     98     96    137  22.7  50.1  34186  290.01 0854.45
2009/04/23 13:42:51.5      79     87    138    118    181  42.3  55.0  34186  290.02 0854.45
2009/04/23 13:42:51.6     256     15    122    257    284  86.5  27.2  34190  290.07 0854.45
2009/04/23 13:42:51.7     184     34     27    188    190  79.4   8.2  34202  290.28 0854.45
2009/04/23 13:42:51.8     179     65    110    191    220  70.0  32.4  34196  290.19 0854.45
2009/04/23 13:42:51.9     248     81    235    261    351  71.8  46.8  34174  289.81 0854.45
2009/04/23 13:42:52.0     318    216    225    385    445  55.8  33.1  34214  290.50 0854.45
2009/04/23 13:42:52.1     398    219    264    455    526  61.1  32.9  34190  290.08 0854.45
2009/04/23 13:42:52.2     392    128    321    413    523  71.8  41.7  34182  289.93 0854.45
2009/04/23 13:42:52.3     375    -38    274    377    466  95.9  39.7  34184  289.97 0854.45
2009/04/23 13:42:52.4     348    -98    171    362    400 105.8  27.1  34184  289.99 0854.45
2009/04/23 13:42:52.5     337    -75     49    346    350 102.6   8.1  34190  290.08 0854.45
2009/04/23 13:42:52.6     292    -98     15    309    310 108.6   2.9  34184  289.98 0854.45
2009/04/23 13:42:52.7     267   -121     30    294    296 114.4   5.9  34180  289.90 0854.45
2009/04/23 13:42:52.8     158    -90     92    183    204 119.8  28.7  34186  290.02 0854.45
2009/04/23 13:42:52.9      88     63    103    109    149  54.5  48.0  34198  290.21 0854.45
2009/04/23 13:42:53.0     126    -36    123    132    180 105.9  47.9  34212  290.45 0854.45
2009/04/23 13:42:53.1      10      0    134     11    134  85.6  90.0  34218  290.55 0854.45
2009/04/23 13:42:53.2      24     73    155     77    173  18.3  71.7  34204  290.33 0854.45
2009/04/23 13:42:53.3      40    -33    120     52    130 129.6  75.0  34198  290.23 0854.45
2009/04/23 13:42:53.4       0   -110    147    111    184 180.0  59.4  34188  290.06 0854.45
2009/04/23 13:42:53.5      30     -3    132     31    135  96.1  87.0  34188  290.04 0854.45
2009/04/23 13:42:53.6     128    -22    173    131    217 100.1  59.2  34186  290.01 0854.45
2009/04/23 13:42:53.7      13    -66    139     68    154 168.5  72.8  34180  289.92 0854.45
2009/04/23 13:42:53.8     117   -185    200    219    296 147.7  47.1  34170  289.73 0854.45
2009/04/23 13:42:53.9      41    -91    156    101    185 155.5  64.6  34174  289.82 0854.45
2009/04/23 13:42:54.0      -6   -194    248    195    315 182.0  57.9  34176  289.83 0854.45
2009/04/23 13:42:54.1      14   -107    214    108    239 172.4  71.1  34170  289.75 0854.45
2009/04/23 13:42:54.2      27    -45    145     53    154 148.4  79.7  34170  289.74 0854.45
2009/04/23 13:42:54.3      39   -177    174    182    251 167.3  49.0  34174  289.82 0854.45
2009/04/23 13:42:54.5       0   -204    199    205    285 179.8  49.2  34176  289.83 0854.45
2009/04/23 13:42:54.5     -23    -54    306     59    311 203.6  89.6  34180  289.90 0854.38
2009/04/23 13:42:54.6      -3   -172    131    173    217 181.1  40.9  34180  289.92 0854.38
2009/04/23 13:42:54.7      60   -155     36    167    171 158.6  12.2  34178  289.89 0854.38
2009/04/23 13:42:54.8      15   -146    -10    147    148 173.8  -4.1  34178  289.87 0854.38
2009/04/23 13:42:54.9      28   -145     24    148    151 168.9   9.5  34174  289.82 0854.38
2009/04/23 13:42:55.0     -26   -154     55    157    166 189.8  20.0  34174  289.80 0854.38
2009/04/23 13:42:55.1       6   -174    120    175    212 177.8  37.6  34176  289.85 0854.38
2009/04/23 13:42:55.2    -116    -69     49    135    143 239.3  20.9  34174  289.82 0854.38
2009/04/23 13:42:55.3     -58   -148     35    160    164 201.6  12.4  34174  289.82 0854.38
2009/04/23 13:42:55.4     -43   -118     99    126    160 200.1  42.2  34176  289.84 0854.38
2009/04/23 13:42:55.5     -11    -74     62     75     97 188.9  43.8  34178  289.89 0854.40
2009/04/23 13:42:55.6    -122    -77     56    145    155 237.5  21.5  34178  289.87 0854.40
2009/04/23 13:42:55.7    -244    -64      0    253    254 255.2   0.0  34174  289.81 0854.40
2009/04/23 13:42:55.8    -319   -123    -29    343    345 248.8  -4.9  34170  289.74 0854.40
2009/04/23 13:42:55.9    -279    111   -156    301    339 291.7 -33.9  34170  289.75 0854.40
2009/04/23 13:42:56.0    -265     35   -124    268    295 277.7 -31.0  34176  289.83 0854.40
2009/04/23 13:42:56.1    -263     90    -96    279    295 289.0 -24.0  34180  289.90 0854.40
2009/04/23 13:42:56.2    -336    -30    -57    338    343 264.8  -9.6  34188  290.04 0854.40
2009/04/23 13:42:56.3    -348    -35    -11    350    351 264.1  -1.9  34180  289.91 0854.40
2009/04/23 13:42:56.4    -414      0    -79    415    423 270.0 -10.9  34182  289.95 0854.40
2009/04/23 13:42:56.5    -396     59    -93    401    412 278.5 -13.2  34180  289.92 0854.40
2009/04/23 13:42:56.6    -405     60   -124    410    429 278.5 -16.9  34190  290.07 0854.40
2009/04/23 13:42:56.7    -375    -71    -99    382    395 259.2 -14.6  34186  290.01 0854.40
2009/04/23 13:42:56.8    -528     -7   -163    529    554 269.2 -17.2  34178  289.87 0854.40
2009/04/23 13:42:56.9    -365     63   -133    371    395 279.9 -19.7  34178  289.86 0854.40
2009/04/23 13:42:57.0    -229     42     28    233    235 280.6   6.9  34176  289.85 0854.40
2009/04/23 13:42:57.1    -260    104     14    281    282 291.8   2.9  34178  289.88 0854.40
2009/04/23 13:42:57.3    -178    -43     58    184    194 256.3  17.7  34180  289.91 0854.40
2009/04/23 13:42:57.3    -115    -55     40    128    135 244.2  17.3  34180  289.91 0854.40
2009/04/23 13:42:57.4     -47    -80     83     94    125 210.7  45.9  34188  290.06 0854.40
2009/04/23 13:42:57.5     -93    -64    125    113    168 235.4  53.3  34186  290.02 0854.48
2009/04/23 13:42:57.6    -122     24     80    125    148 281.4  35.6  34184  289.99 0854.48
2009/04/23 13:42:57.8     -60    -11     90     62    109 259.4  62.1  34184  289.97 0854.48
2009/04/23 13:42:57.9    -112   -114    110    160    194 224.5  37.8  34182  289.96 0854.48
2009/04/23 13:42:58.0    -119   -176    130    213    249 214.3  34.4  34188  290.03 0854.48
2009/04/23 13:42:58.1     -76   -129    113    150    187 210.7  40.7  34186  290.02 0854.48
2009/04/23 13:42:58.2     -66    -91     75    113    135 216.0  36.5  34192  290.11 0854.48
2009/04/23 13:42:58.3    -118    -87     98    147    176 233.6  36.7  34190  290.08 0854.48
2009/04/23 13:42:58.4    -139    -98     60    171    182 234.7  19.4  34188  290.06 0854.48
2009/04/23 13:42:58.5    -118   -113      1    164    165 226.2   0.5  34192  290.11 0854.48
2009/04/23 13:42:58.6    -130   -155    -23    203    205 220.1  -6.5  34186  290.02 0854.48
2009/04/23 13:42:58.7     -44   -220     11    225    226 191.5   2.9  34186  290.01 0854.48
2009/04/23 13:42:58.8      56   -323    -17    328    329 170.1  -3.1  34180  289.91 0854.48
2009/04/23 13:42:58.9      30   -374     -5    376    377 175.3  -0.9  34182  289.94 0854.48
2009/04/23 13:42:59.0      91   -283    178    298    347 162.2  33.7  34188  290.06 0854.48
2009/04/23 13:42:59.1     157   -279    123    321    343 150.6  22.2  34178  289.89 0854.48
2009/04/23 13:42:59.2     104   -285    141    304    335 160.0  26.6  34178  289.88 0854.48
2009/04/23 13:42:59.3       7   -249    157    250    295 178.2  35.5  34182  289.93 0854.48
2009/04/23 13:42:59.4     -17   -226     80    227    240 184.4  20.0  34182  289.95 0854.48
2009/04/23 13:42:59.5     -80   -222     26    237    239 199.8   6.5  34180  289.92 0854.48
2009/04/23 13:42:59.6     -59   -148     61    160    171 201.8  21.7  34182  289.96 0854.49
2009/04/23 13:42:59.7    -142     75    -62    161    172 298.0 -26.1  34178  289.87 0854.49
2009/04/23 13:42:59.8    -213    140   -165    256    304 303.3 -40.0  34186  290.02 0854.49
2009/04/23 13:42:59.9     -19    129    108    131    169 351.5  43.7  34180  289.91 0854.49
2009/04/23 13:43:00.0    -143    -45    250    151    292 252.3  66.0  34188  290.05 0854.49
2009/04/23 13:43:00.1    -424    185    119    463    479 293.6  14.5  34182  289.95 0854.49
2009/04/23 13:43:00.2    -395     30    189    397    439 274.5  27.3  34184  289.99 0854.49
2009/04/23 13:43:00.3    -500   -139     17    520    521 254.4   1.9  34186  290.01 0854.49
2009/04/23 13:43:00.4    -380   -146    -37    408    410 248.9  -5.3  34184  289.99 0854.49
2009/04/23 13:43:00.5    -145   -216    186    261    320 213.8  38.8  34182  289.93 0854.49
2009/04/23 13:43:00.6    -210   -167    129    269    298 231.6  27.3  34182  289.93 0854.49
2009/04/23 13:43:00.7    -289     -4    214    290    360 269.2  40.0  34182  289.96 0854.49
2009/04/23 13:43:00.8    -140     32    100    144    175 283.2  38.0  34180  289.91 0854.49
2009/04/23 13:43:00.9    -144   -284    156    319    355 207.0  27.9  34182  289.96 0854.49
2009/04/23 13:43:01.0    -329   -240     77    408    416 233.9  10.7  34178  289.88 0854.49
2009/04/23 13:43:01.1    -509   -167    -37    536    538 251.8  -4.0  34174  289.82 0854.49
2009/04/23 13:43:01.2    -404     84     39    413    415 281.8   5.5  34186  290.00 0854.49
2009/04/23 13:43:01.3    -223    173     35    283    286 307.8   7.2  34192  290.12 0854.49
2009/04/23 13:43:01.4    -190   -209     80    283    295 222.3  15.8  34192  290.10 0854.49
2009/04/23 13:43:01.5    -342   -375     48    508    511 222.4   5.4  34182  289.93 0854.49
2009/04/23 13:43:01.6    -459   -376     56    594    597 230.7   5.4  34194  290.14 0854.42
2009/04/23 13:43:01.7    -585   -142     89    602    609 256.3   8.5  34194  290.14 0854.42
2009/04/23 13:43:01.8    -531     24     -6    532    533 272.6  -0.7  34194  290.14 0854.42
2009/04/23 13:43:01.9    -788   -185    -72    810    814 256.8  -5.1  34186  290.01 0854.42
2009/04/23 13:43:02.0    -787   -245   -269    825    868 252.7 -18.1  34182  289.95 0854.42
2009/04/23 13:43:02.1    -739   -336   -214    812    840 245.5 -14.8  34190  290.09 0854.42
2009/04/23 13:43:02.2    -724   -459   -115    858    866 237.6  -7.7  34184  289.97 0854.42
2009/04/23 13:43:02.3    -715   -425   -142    832    844 239.3  -9.7  34180  289.92 0854.42
2009/04/23 13:43:02.4    -740   -272   -276    789    836 249.8 -19.3  34178  289.89 0854.42
2009/04/23 13:43:02.5    -692   -323   -249    764    803 245.0 -23.2  34182  289.96 0854.42
2009/04/23 13:43:02.6    -551   -436   -279    703    756 231.6 -27.4  34188  290.04 0854.42
2009/04/23 13:43:02.7    -514   -400   -233    652    693 232.2 -19.7  34178  289.88 0854.42
2009/04/23 13:43:02.8    -381   -210    -84    436    445 241.1 -10.9  34184  289.99 0854.42
2009/04/23 13:43:02.9    -535     11   -197    536    571 271.3 -25.4  34184  289.99 0854.42
2009/04/23 13:43:03.0    -463    -95   -208    473    516 258.3 -29.6  34186  290.00 0854.42
2009/04/23 13:43:03.1    -557   -233   -197    605    636 247.3 -23.2  34184  289.99 0854.42
2009/04/23 13:43:03.2    -733    -19   -181    734    757 268.5 -13.9  34176  289.85 0854.42
2009/04/23 13:43:03.3    -703    100   -199    711    738 278.1 -20.3  34182  289.94 0854.42
2009/04/23 13:43:03.4    -738    102   -226    745    779 277.9 -16.9  34186  290.02 0854.42
2009/04/23 13:43:03.5    -477    273   -182    550    580 299.8 -18.3  34162  289.61 0854.42
2009/04/23 13:43:03.6    -602    197   -253    634    682 288.2 -27.4  34182  289.95 0854.48
2009/04/23 13:43:03.7    -544    242   -176    596    622 294.0 -16.5  34180  289.90 0854.48
2009/04/23 13:43:03.8    -544    181    -75    574    579 288.5  -7.5  34182  289.93 0854.48
2009/04/23 13:43:03.9    -461     58   -214    465    511 277.2 -30.8  34178  289.88 0854.48
2009/04/23 13:43:04.0    -413   -227   -259    472    538 241.2 -35.7  34178  289.88 0854.48
2009/04/23 13:43:04.1    -423   -490   -201    648    679 220.8 -17.3  34156  289.49 0854.48
2009/04/23 13:43:04.2    -650   -315   -321    723    791 244.1 -30.0  34184  289.99 0854.48
2009/04/23 13:43:04.3    -401   -227   -165    461    489 240.5 -25.0  34178  289.86 0854.48
2009/04/23 13:43:04.4    -104    -66    -83    124    149 237.5 -41.4  34176  289.84 0854.48
2009/04/23 13:43:04.5    -242   -325   -120    406    424 216.7 -16.5  34178  289.87 0854.48
2009/04/23 13:43:04.6    -364   -420   -195    556    589 220.9 -24.5  34180  289.91 0854.48
2009/04/23 13:43:04.7    -142   -314   -228    345    413 204.4 -40.9  34182  289.93 0854.48
2009/04/23 13:43:04.8      33   -466   -160    468    495 175.9 -18.9  34170  289.73 0854.48
2009/04/23 13:43:04.9     -80   -241     44    255    259 198.5  10.0  34174  289.80 0854.48
2009/04/23 13:43:05.0    -218    -23   -238    220    324 263.9 -56.9  34178  289.86 0854.48
2009/04/23 13:43:05.1     -34     16   -121     38    126 295.3 -86.2  34180  289.91 0854.48
2009/04/23 13:43:05.2     -57     69     83     90    122 320.4  47.9  34178  289.89 0854.48
2009/04/23 13:43:05.3    -107    -72     53    130    140 235.9  23.1  34182  289.96 0854.48
2009/04/23 13:43:05.4    -277   -188   -120    336    357 235.8 -19.7  34190  290.08 0854.48
2009/04/23 13:43:05.5    -146   -408   -155    434    460 199.8 -24.7  34180  289.92 0854.48
2009/04/23 13:43:05.6      13   -442   -164    443    472 178.3 -25.8  34170  289.73 0854.32
2009/04/23 13:43:05.7     -45   -457    -72    460    466 185.7  -9.0  34170  289.75 0854.32
2009/04/23 13:43:05.8    -239   -624     46    669    671 201.0   4.0  34180  289.92 0854.32
2009/04/23 13:43:05.9    -164   -499    132    526    543 198.2  14.2  34182  289.96 0854.32
2009/04/23 13:43:06.0    -284   -479    198    557    592 210.7  19.6  34184  289.98 0854.32
2009/04/23 13:43:06.1    -314   -392    194    503    539 218.7  22.3  34182  289.94 0854.32
2009/04/23 13:43:06.2    -361   -336    147    494    516 227.1  16.6  34182  289.96 0854.32
2009/04/23 13:43:06.3    -333   -258     66    422    428 232.2   9.0  34182  289.94 0854.32
2009/04/23 13:43:06.4    -280    -76     79    291    302 254.9  15.2  34182  289.93 0854.32
2009/04/23 13:43:06.5    -292     96    -17    308    309 288.2  -3.2  34188  290.03 0854.32
2009/04/23 13:43:06.6    -500     98    213    510    552 281.1  24.1  34184  289.97 0854.32
2009/04/23 13:43:06.7    -319    229    317    393    504 305.7  43.1  34192  290.10 0854.32
2009/04/23 13:43:06.8    -204    231    175    309    355 318.5  32.1  34188  290.04 0854.32
2009/04/23 13:43:06.9    -152    246    246    290    380 328.3  44.5  34192  290.10 0854.32
2009/04/23 13:43:07.0    -162    247    167    296    339 326.6  32.0  34186  290.02 0854.32
2009/04/23 13:43:07.1    -288    332     86    440    449 319.1  11.1  34190  290.09 0854.32
2009/04/23 13:43:07.2    -237    214     15    320    321 312.2   2.8  34186  290.00 0854.32
2009/04/23 13:43:07.3    -197    210     97    289    306 316.8  18.6  34192  290.10 0854.32
2009/04/23 13:43:07.4     -76    173    -27    190    193 336.2  -8.2  34184  289.99 0854.32
2009/04/23 13:43:07.5    -143    263    -53    300    305 331.5 -10.1  34182  289.95 0854.32
2009/04/23 13:43:07.6    -219    365     -8    426    427 329.0  -1.2  34186  290.00 0854.21
2009/04/23 13:43:07.7      65    438    222    443    495   8.5  28.7  34190  290.08 0854.21
2009/04/23 13:43:07.8     138    396    310    420    522  19.2  40.1  34194  290.15 0854.21
2009/04/23 13:43:07.9     483     63    473    488    679  82.6  49.1  34200  290.26 0854.21
2009/04/23 13:43:08.0     503      3    503    504    712  89.6  50.1  34196  290.18 0854.21
2009/04/23 13:43:08.1     528    -54    434    531    685  95.9  43.5  34194  290.16 0854.21
2009/04/23 13:43:08.2      80    214    368    229    433  20.5  65.3  34228  290.71 0854.21
2009/04/23 13:43:08.3     448     76    227    455    508  80.3  28.6  34242  290.98 0854.21
2009/04/23 13:43:08.4     456    389    169    600    624  49.5  15.8  34190  290.09 0854.21
2009/04/23 13:43:08.5     212    395     22    449    450  28.2   2.9  34262  291.31 0854.21
2009/04/23 13:43:08.6     250    254    176    357    398  44.5  28.2  34222  290.64 0854.21
2009/04/23 13:43:08.7     560    254    179    615    641  65.6  16.3  34240  290.93 0854.21
2009/04/23 13:43:08.8     298    158    313    338    460  62.0  47.8  34228  290.73 0854.21
2009/04/23 13:43:08.9     299    183    359    351    502  58.5  50.7  34222  290.61 0854.21
2009/04/23 13:43:09.0     253    190    353    317    474  53.2  53.6  34216  290.51 0854.21
2009/04/23 13:43:09.1     104    397    412    411    581  14.7  50.1  34216  290.53 0854.21
2009/04/23 13:43:09.2     279    138    221    312    382  63.6  39.0  34234  290.84 0854.21
2009/04/23 13:43:09.3     429    100    182    441    477  76.8  23.6  34218  290.57 0854.21
2009/04/23 13:43:09.4     534     91    210    542    581  80.3  22.4  34222  290.64 0854.21
2009/04/23 13:43:09.5     606    244    247    654    699  68.0  21.7  34212  290.46 0854.21
2009/04/23 13:43:09.6     481    265    214    550    590  61.2  22.4  34220  290.58 0854.22
2009/04/23 13:43:09.7     623     96    275    631    688  81.2  25.1  34206  290.36 0854.22
2009/04/23 13:43:09.8     608   -123    276    621    679 101.5  25.6  34202  290.29 0854.22
2009/04/23 13:43:09.9     401    154    244    430    494  68.9  32.1  34286  291.70 0854.22
2009/04/23 13:43:10.0     407    206    187    457    493  63.2  23.6  34246  291.02 0854.22
2009/04/23 13:43:10.1     585    249    234    636    677  66.9  21.1  34268  291.41 0854.22
2009/04/23 13:43:10.2     354     99    381    368    529  74.3  51.2  34252  291.13 0854.22
2009/04/23 13:43:10.3     496    108    235    508    559  77.6  26.6  34266  291.38 0854.22
2009/04/23 13:43:10.4     315     85    342    327    473  74.9  51.5  34280  291.62 0854.22
2009/04/23 13:43:10.5     391    158    234    422    482  67.9  31.5  34274  291.50 0854.22
2009/04/23 13:43:10.6     521    148     97    542    551  74.1  10.2  34230  290.75 0854.22
2009/04/23 13:43:10.7     465    256    182    531    562  61.2  18.9  34236  290.86 0854.22
2009/04/23 13:43:10.8     411     79    247    419    486  79.0  33.4  34220  290.59 0854.22
2009/04/23 13:43:10.9     334     37    180    337    382  83.7  30.5  34220  290.59 0854.22
2009/04/23 13:43:11.0     382     26    151    383    411  86.1  22.9  34210  290.41 0854.22
2009/04/23 13:43:11.1     241    -64     13    250    251 105.0   3.1  34198  290.20 0854.22
2009/04/23 13:43:11.2     289   -159    110    331    349 118.9  18.4  34194  290.16 0854.22
2009/04/23 13:43:11.3     204   -215    106    297    315 136.6  20.4  34190  290.07 0854.22
2009/04/23 13:43:11.4     221   -176    109    283    303 128.6  22.3  34194  290.15 0854.22
2009/04/23 13:43:11.5     274   -104     59    294    300 110.9  11.4  34196  290.17 0854.22
2009/04/23 13:43:11.6     294     79    -84    305    317  74.9 -15.5  34216  290.53 0854.27
2009/04/23 13:43:11.7     363     66   -101    369    383  79.6 -15.4  34228  290.71 0854.27
2009/04/23 13:43:11.8     423    -32   -103    425    438  94.4 -13.7  34202  290.29 0854.27
2009/04/23 13:43:11.9     291   -108   -162    311    350 110.4 -34.2  34198  290.20 0854.27
2009/04/23 13:43:12.0     318    -13   -208    319    380  92.5 -40.4  34198  290.21 0854.27
2009/04/23 13:43:12.1     362    149   -243    392    461  67.5 -39.2  34186  290.00 0854.27
2009/04/23 13:43:12.2     304    -37   -296    307    426  97.0 -53.4  34168  289.71 0854.27
2009/04/23 13:43:12.3     423   -304   -192    522    556 125.7 -25.4  34190  290.07 0854.27
2009/04/23 13:43:12.4     538   -466   -263    712    759 130.9 -25.5  34176  289.84 0854.27
2009/04/23 13:43:12.5     466   -148     83    490    498 107.7   9.7  34180  289.91 0854.27
2009/04/23 13:43:12.6     496    -16    176    497    528  91.9  19.5  34182  289.96 0854.27
2009/04/23 13:43:12.7     216   -212    293    303    421 134.4  49.0  34198  290.20 0854.27
2009/04/23 13:43:12.8      88   -224    238    241    338 158.4  49.8  34196  290.19 0854.27
2009/04/23 13:43:12.9      33   -253    255    256    361 172.4  50.1  34204  290.33 0854.27
2009/04/23 13:43:13.0      94   -129    173    160    235 143.9  52.5  34204  290.31 0854.27
2009/04/23 13:43:13.1     155   -156    228    221    317 135.2  51.1  34196  290.19 0854.27
2009/04/23 13:43:13.2      85    -53    147    101    178 122.0  62.1  34202  290.28 0854.27
2009/04/23 13:43:13.3      54    -57     92     79    121 136.8  54.8  34202  290.28 0854.27
2009/04/23 13:43:13.4     305   -366     49    477    480 140.2   6.0  34192  290.12 0854.27
2009/04/23 13:43:13.5     236   -195    107    307    325 129.5  20.0  34194  290.15 0854.27
2009/04/23 13:43:13.6     221     37    110    225    250  80.3  27.8  34190  290.09 0854.32
2009/04/23 13:43:13.7     151     85     68    174    186  60.7  22.8  34190  290.09 0854.32
2009/04/23 13:43:13.8      51     99     97    112    148  27.6  45.4  34194  290.16 0854.32
2009/04/23 13:43:13.9     102     95    129    140    190  46.9  47.7  34194  290.14 0854.32
2009/04/23 13:43:14.0      95     57    213    112    240  58.9  70.0  34196  290.18 0854.32
2009/04/23 13:43:14.1     218    190    265    290    392  48.9  47.1  34188  290.04 0854.32
2009/04/23 13:43:14.2     229    385    200    449    491  30.8  25.6  34192  290.12 0854.32
2009/04/23 13:43:14.3     258    353    118    438    454  36.1  15.2  34198  290.22 0854.32
2009/04/23 13:43:14.4     159    306    129    346    369  27.5  21.3  34198  290.21 0854.32
2009/04/23 13:43:14.5     126    152    214    198    291  39.6  52.2  34200  290.24 0854.32
2009/04/23 13:43:14.6     253    288    136    384    408  41.3  19.6  34210  290.42 0854.32
2009/04/23 13:43:14.7     217    191    208    290    356  48.6  39.3  34204  290.32 0854.32
2009/04/23 13:43:14.8     216    336     61    400    405  32.7   8.7  34198  290.22 0854.32
2009/04/23 13:43:14.9     -45    223    140    228    267 348.4  34.5  34200  290.26 0854.32
2009/04/23 13:43:15.0     -71     82    148    109    183 319.0  60.5  34198  290.21 0854.32
2009/04/23 13:43:15.1     -77     16    184     79    200 282.4  75.3  34200  290.25 0854.32
2009/04/23 13:43:15.2     -77      4     98     78    125 273.5  57.5  34192  290.13 0854.32
2009/04/23 13:43:15.3     -39     44    145     60    156 318.6  76.3  34198  290.23 0854.32
2009/04/23 13:43:15.4     129     39    194    135    236  73.2  61.8  34186  290.02 0854.32
2009/04/23 13:43:15.5     261    -29    203    263    332  96.4  41.5  34192  290.12 0854.34
2009/04/23 13:43:15.6     103    -76    178    129    219 126.4  60.5  34190  290.08 0854.34
2009/04/23 13:43:15.7      45     -9    168     46    174 101.5  84.4  34198  290.21 0854.34
2009/04/23 13:43:15.8      76    -76    124    108    164 134.9  54.6  34198  290.21 0854.34
2009/04/23 13:43:15.9     -86    -92    117    127    172 223.2  47.7  34194  290.14 0854.34
2009/04/23 13:43:16.0    -162    -44     -6    168    169 254.7  -2.2  34192  290.13 0854.34
2009/04/23 13:43:16.1    -104    -91     47    139    147 228.7  18.9  34192  290.13 0854.34
2009/04/23 13:43:16.2    -135     -5    -37    136    142 267.5 -15.4  34196  290.18 0854.34
2009/04/23 13:43:16.3    -125    -96    -26    158    161 232.3  -9.3  34196  290.18 0854.34
2009/04/23 13:43:16.4    -130    -12    -56    131    142 264.3 -28.5  34196  290.19 0854.34
2009/04/23 13:43:16.5    -150    -93   -108    177    207 238.2 -38.8  34200  290.25 0854.40
2009/04/23 13:43:16.6    -137    -63    -52    151    160 245.2 -19.1  34202  290.28 0854.40
2009/04/23 13:43:16.7    -137   -165     -4    215    216 219.6  -1.1  34202  290.28 0854.40
2009/04/23 13:43:16.8     -54   -162    123    171    210 198.5  39.5  34204  290.31 0854.40
2009/04/23 13:43:16.9     -20    -80    198     83    214 194.3  76.3  34204  290.31 0854.40
2009/04/23 13:43:17.0       0      0    116      0    116   0.0  90.0  34208  290.38 0854.40
2009/04/23 13:43:17.1     -70    -33     58     78     97 244.6  40.7  34196  290.18 0854.40
2009/04/23 13:43:17.2     -63     21    114     67    132 288.4  66.8  34198  290.23 0854.40
2009/04/23 13:43:17.3      65     25    108     70    128  68.3  64.6  34196  290.18 0854.40
2009/04/23 13:43:17.4      42     41    148     59    159  46.0  77.4  34192  290.11 0854.40
2009/04/23 13:43:17.5      85    -89    219    124    251 136.3  67.8  34194  290.16 0854.40
2009/04/23 13:43:17.6     161    -70    214    176    277 113.5  56.4  34196  290.17 0854.40
2009/04/23 13:43:17.7      11     60    133     62    146  10.7  73.1  34194  290.14 0854.40
2009/04/23 13:43:17.8     -46     12    145     48    152 285.1  80.7  34198  290.23 0854.40
2009/04/23 13:43:17.9     -24     33     98     42    106 323.9  76.1  34192  290.13 0854.40
2009/04/23 13:43:18.0       0    115     40    116    123   0.5  19.4  34192  290.11 0854.40
2009/04/23 13:43:18.1     -63    202    127    212    247 342.6  33.7  34196  290.17 0854.40
2009/04/23 13:43:18.2      43    102     76    111    134  23.2  37.4  34190  290.08 0854.40
2009/04/23 13:43:18.3    -211    144     48    256    261 304.4  10.8  34190  290.07 0854.40
2009/04/23 13:43:18.4    -183   -113     86    216    232 238.2  23.0  34194  290.14 0854.40
2009/04/23 13:43:18.5     -76    -76    108    108    152 225.0  50.1  34190  290.08 0854.41
2009/04/23 13:43:18.6     -12     33    143     36    147 340.0  85.9  34194  290.16 0854.41
2009/04/23 13:43:18.7      78    201    159    216    268  21.2  39.9  34194  290.15 0854.41
2009/04/23 13:43:18.8    -116    176    165    212    268 326.6  41.7  34198  290.20 0854.41
2009/04/23 13:43:18.9      14     43    158     46    164  18.5  83.1  34194  290.16 0854.41
2009/04/23 13:43:19.0     -21    147    172    149    227 351.9  54.8  34208  290.40 0854.41
2009/04/23 13:43:19.1       9     40     72     42     83  13.4  67.2  34204  290.33 0854.41
2009/04/23 13:43:19.2     113     99    172    151    228  48.7  54.3  34198  290.21 0854.41
2009/04/23 13:43:19.3    -115      0    134    116    177 269.6  54.6  34206  290.36 0854.41
2009/04/23 13:43:19.4     -62    -69     90     94    130 221.9  49.0  34202  290.30 0854.41
2009/04/23 13:43:19.5     -21     82     87     85    121 345.3  50.2  34194  290.16 0854.41
2009/04/23 13:43:19.6    -243     57     58    250    257 283.3  13.2  34200  290.24 0854.41
2009/04/23 13:43:19.7    -194     82     92    211    230 293.1  25.1  34196  290.18 0854.41
2009/04/23 13:43:19.8    -134     62    203    148    251 294.8  60.5  34198  290.21 0854.41
2009/04/23 13:43:19.9    -172    -13     94    173    196 265.6  30.8  34194  290.16 0854.41
2009/04/23 13:43:20.0    -165   -220    147    276    312 216.9  30.5  34190  290.07 0854.41
2009/04/23 13:43:20.1    -192   -287    190    346    394 213.9  31.3  34192  290.11 0854.41
2009/04/23 13:43:20.2    -309   -397    180    504    535 217.9  20.4  34190  290.07 0854.41
2009/04/23 13:43:20.3    -274   -257    125    376    397 226.9  18.4  34178  289.89 0854.41
2009/04/23 13:43:20.4    -221   -316    176    386    424 215.0  26.3  34190  290.09 0854.41
2009/04/23 13:43:20.5    -223   -314    201    386    435 215.4  29.6  34188  290.05 0854.42
2009/04/23 13:43:20.6    -194   -215    198    290    351 222.1  37.6  34186  290.01 0854.42
2009/04/23 13:43:20.7    -160   -122     52    202    209 232.7  14.7  34194  290.14 0854.42
2009/04/23 13:43:20.8    -148   -202      4    251    252 216.3   1.0  34192  290.12 0854.42
2009/04/23 13:43:20.9     -63   -366    -14    372    373 189.8  -2.2  34192  290.11 0854.42
2009/04/23 13:43:21.0     -73   -443    220    450    500 189.4  27.9  34188  290.03 0854.42
2009/04/23 13:43:21.1    -157   -329    186    365    409 205.5  29.2  34188  290.03 0854.42
2009/04/23 13:43:21.2    -129   -363    -40    386    389 199.6  -6.0  34188  290.04 0854.42
2009/04/23 13:43:21.3     -13   -298    -88    299    312 182.5 -16.5  34192  290.12 0854.42
2009/04/23 13:43:21.4      37   -294    -88    297    310 172.7 -16.5  34192  290.10 0854.42
2009/04/23 13:43:21.5     -24   -332    -21    333    334 184.3  -3.7  34194  290.15 0854.42
2009/04/23 13:43:21.6     -47   -344    -26    348    349 187.9  -4.4  34192  290.10 0854.42
2009/04/23 13:43:21.7      21   -277     24    278    280 175.6   5.0  34190  290.09 0854.42
2009/04/23 13:43:21.8     -32   -214     41    217    221 188.5  10.8  34188  290.06 0854.42
2009/04/23 13:43:21.9     -98   -109     58    147    158 221.9  22.5  34190  290.09 0854.42
2009/04/23 13:43:22.0    -239      0    -26    240    242 270.0  -6.2  34194  290.15 0854.42
2009/04/23 13:43:22.1    -173     79     59    191    201 294.6  17.3  34190  290.09 0854.42
2009/04/23 13:43:22.2      55    139    -47    150    157  21.8 -22.3  34192  290.11 0854.42
2009/04/23 13:43:22.3     125     -3     44    126    134  91.7  19.2  34188  290.06 0854.42
2009/04/23 13:43:22.4     159    -37    123    164    205 103.3  40.7  34196  290.18 0854.42
2009/04/23 13:43:22.5      49    -69     60     85    104 144.4  38.6  34192  290.13 0854.43
2009/04/23 13:43:22.6     -33    -99      8    105    106 198.7   4.9  34196  290.18 0854.43
2009/04/23 13:43:22.7     -47   -100     28    111    115 205.3  14.3  34196  290.18 0854.43
2009/04/23 13:43:22.8      56    -39     48     69     84 125.1  38.0  34192  290.13 0854.43
2009/04/23 13:43:22.9      81      0     84     82    117  90.0  50.2  34194  290.16 0854.43
2009/04/23 13:43:23.0       0     95    105     96    142   0.0  52.2  34194  290.14 0854.43
2009/04/23 13:43:23.1      72     76    103    105    147  43.3  49.9  34190  290.09 0854.43
2009/04/23 13:43:23.2     144    119    128    187    226  50.4  37.6  34198  290.21 0854.43
2009/04/23 13:43:23.3     189    113    216    221    309  59.3  49.8  34234  290.83 0854.43
2009/04/23 13:43:23.4      13     69    186     71    199  10.7  78.4  34208  290.38 0854.43
2009/04/23 13:43:23.5      25     96    123    100    158  14.7  56.9  34222  290.62 0854.43
2009/04/23 13:43:23.6     199     63    242    209    319  72.3  54.8  34226  290.68 0854.43
2009/04/23 13:43:23.7     223     79    229    237    329  70.3  49.2  34246  291.04 0854.43
2009/04/23 13:43:23.9     247    -26    214    249    328  96.2  45.0  34252  291.12 0854.43
2009/04/23 13:43:24.0     359    154     73    391    398  66.7  10.6  34198  290.20 0854.43
2009/04/23 13:43:24.1     284    169    130    331    355  59.3  22.7  34212  290.45 0854.43
2009/04/23 13:43:24.2     245    125    231    276    359  62.9  44.2  34240  290.94 0854.43
2009/04/23 13:43:24.3     207     98    298    230    376  64.5  58.5  34234  290.83 0854.43
2009/04/23 13:43:24.4     253    109    241    276    366  66.7  45.7  34208  290.40 0854.43
2009/04/23 13:43:24.5     101     27    180    105    208  74.9  67.0  34218  290.57 0854.43
2009/04/23 13:43:24.6     262    174    209    315    378  56.3  36.6  34206  290.35 0854.44
2009/04/23 13:43:24.7     255    -23    221    257    338  95.2  45.1  34186  290.00 0854.44
2009/04/23 13:43:24.8     173   -178    111    249    272 135.7  25.7  34192  290.10 0854.44
2009/04/23 13:43:24.9      -9   -129    127    130    181 184.4  49.4  34196  290.18 0854.44
2009/04/23 13:43:25.0    -153    -91     90    179    200 239.1  28.7  34194  290.14 0854.44
2009/04/23 13:43:25.1     -32   -108    207    113    235 196.5  69.1  34206  290.35 0854.44
2009/04/23 13:43:25.2     -36   -310    359    313    476 186.7  54.4  34194  290.14 0854.44
2009/04/23 13:43:25.3     -21   -229    248    231    338 185.3  52.2  34196  290.17 0854.44
2009/04/23 13:43:25.4    -232   -174    152    291    328 233.1  29.6  34192  290.10 0854.44
2009/04/23 13:43:25.5    -347   -272    156    442    468 231.9  20.3  34192  290.12 0854.44
2009/04/23 13:43:25.6    -393   -146     34    420    422 249.5   4.7  34196  290.17 0854.44
2009/04/23 13:43:25.7    -207   -178    146    274    310 229.3  30.3  34192  290.10 0854.44
2009/04/23 13:43:25.8    -112   -120    125    165    207 223.2  41.2  34198  290.21 0854.44
2009/04/23 13:43:25.9    -103     14     77    104    129 277.9  40.1  34204  290.31 0854.44
2009/04/23 13:43:26.0     -15      1     76     16     77 274.4  89.0  34202  290.30 0854.44
2009/04/23 13:43:26.1     264    109    304    286    417  67.4  52.1  34208  290.40 0854.44
2009/04/23 13:43:26.2     116     17    167    118    204  81.6  61.5  34212  290.47 0854.44
2009/04/23 13:43:26.3     309     28    193    311    366  84.8  35.0  34208  290.38 0854.44
2009/04/23 13:43:26.4     288    199    102    351    366  55.4  16.3  34208  290.37 0854.44
2009/04/23 13:43:26.5      82    104    225    133    261  38.3  66.8  34214  290.48 0854.44
2009/04/23 13:43:26.6     209    245    257    323    412  40.5  42.7  34214  290.50 0854.43
2009/04/23 13:43:26.7     123    152    198    196    278  39.0  50.1  34214  290.49 0854.43
2009/04/23 13:43:26.8     225     80    188    240    304  70.3  42.2  34206  290.36 0854.43
2009/04/23 13:43:26.9     237    122    278    267    385  62.7  51.3  34228  290.72 0854.43
2009/04/23 13:43:27.0     175    -14     94    176    199  94.8  30.6  34216  290.52 0854.43
2009/04/23 13:43:27.1     216     16     46    217    223  85.7  12.2  34204  290.33 0854.43
2009/04/23 13:43:27.2     379    136    -42    403    406  70.2  -6.0  34206  290.36 0854.43
2009/04/23 13:43:27.3     326    199    -35    382    384  58.6  -5.3  34198  290.21 0854.43
2009/04/23 13:43:27.4     249    199    -12    319    320  51.4  -2.2  34208  290.37 0854.43
2009/04/23 13:43:27.5     238    128     13    271    272  61.6   2.8  34202  290.29 0854.43
2009/04/23 13:43:27.6      94     26    -41     98    106  74.1 -28.0  34206  290.35 0854.43
2009/04/23 13:43:27.7       4     60    -96     61    113   4.5 -69.1  34206  290.36 0854.43
2009/04/23 13:43:27.8      59    -94    -27    112    116 147.9 -13.9  34206  290.35 0854.43
2009/04/23 13:43:27.9     165    -84      9    186    187 117.1   2.8  34204  290.33 0854.43
2009/04/23 13:43:28.0     141     -9     37    142    147  93.9  14.7  34186  290.01 0854.43
2009/04/23 13:43:28.1     196   -142    172    243    297 126.0  38.8  34198  290.22 0854.43
2009/04/23 13:43:28.2     177   -131     94    221    240 126.6  24.3  34196  290.19 0854.43
2009/04/23 13:43:28.3     253    -18    213    254    331  94.1  44.3  34196  290.17 0854.43
2009/04/23 13:43:28.4     316   -131    289    343    448 112.5  44.4  34194  290.14 0854.43
2009/04/23 13:43:28.5     329   -155    228    364    429 115.3  35.1  34196  290.17 0854.43
2009/04/23 13:43:28.6     222   -244    117    330    351 137.7  19.5  34194  290.16 0854.45
2009/04/23 13:43:28.7     269   -197     86    334    345 126.2  14.5  34198  290.23 0854.45
2009/04/23 13:43:28.8     279   -253    113    377    394 132.2  16.8  34198  290.20 0854.45
2009/04/23 13:43:28.9     192   -227    193    298    355 139.7  36.0  34196  290.18 0854.45
2009/04/23 13:43:29.0     191   -223    252    294    387 139.4  45.0  34196  290.18 0854.45
2009/04/23 13:43:29.1     330   -331    219    468    516 135.1  27.0  34198  290.22 0854.45
2009/04/23 13:43:29.2     291   -171    160    338    373 120.4  27.2  34194  290.15 0854.45
2009/04/23 13:43:29.3     291   -156     30    331    333 118.2   5.2  34198  290.20 0854.45
2009/04/23 13:43:29.4     285    -93     37    300    303 108.2   7.1  34210  290.41 0854.45
2009/04/23 13:43:29.5     222   -111    122    249    277 116.6  28.2  34202  290.27 0854.45
2009/04/23 13:43:29.6     144   -144    107    204    230 135.0  29.8  34206  290.35 0854.45
2009/04/23 13:43:29.7      60   -194    158    204    258 162.8  41.7  34196  290.19 0854.45
2009/04/23 13:43:29.8     199   -248    162    319    357 141.3  29.2  34192  290.13 0854.45
2009/04/23 13:43:29.9      72   -202    183    215    282 160.4  44.9  34194  290.15 0854.45
2009/04/23 13:43:30.0      39      0    -79     40     88  89.2 -76.3  34194  290.16 0854.45
2009/04/23 13:43:30.1      -4    -81    -34     82     88 183.1 -28.0  34190  290.09 0854.45
2009/04/23 13:43:30.2      60   -348    113    354    372 170.2  17.8  34194  290.16 0854.45
2009/04/23 13:43:30.3    -108   -404    167    419    451 195.1  23.0  34186  290.00 0854.45
2009/04/23 13:43:30.4       2   -455    214    456    503 179.7  27.1  34182  289.95 0854.45
2009/04/23 13:43:30.5      51   -408    295    412    506 172.8  39.1  34162  289.61 0854.45
2009/04/23 13:43:30.6      22   -403    362    404    542 176.9  46.4  34160  289.56 0854.42
2009/04/23 13:43:30.7     -32   -324    295    326    439 185.8  46.8  34160  289.58 0854.42
2009/04/23 13:43:30.8     -47   -198    274    204    341 193.4  59.8  34188  290.05 0854.42
2009/04/23 13:43:30.9    -196   -283    284    345    446 214.7  43.7  34176  289.83 0854.42
2009/04/23 13:43:31.0    -432   -161    163    462    491 249.5  19.5  34166  289.66 0854.42
2009/04/23 13:43:31.1    -333   -301     22    450    451 227.9   2.9  34170  289.73 0854.42
2009/04/23 13:43:31.2    -411   -243     69    478    484 239.4   8.2  34156  289.52 0854.42
2009/04/23 13:43:31.3    -431   -172    -58    465    469 248.2  -7.2  34170  289.73 0854.42
2009/04/23 13:43:31.4    -233    -32   -101    236    256 262.0 -28.7  34150  289.41 0854.42
2009/04/23 13:43:31.5    -413      5   -149    414    439 270.7 -25.1  34166  289.68 0854.42
2009/04/23 13:43:31.6    -382    -70   -189    389    432 259.5 -32.3  34166  289.68 0854.42
2009/04/23 13:43:31.7    -387      6   -245    388    458 270.9 -39.9  34168  289.70 0854.42
2009/04/23 13:43:31.8    -441    -83   -265    449    521 259.3 -37.8  34176  289.83 0854.42
2009/04/23 13:43:31.9    -289   -126   -243    316    398 246.5 -45.9  34174  289.81 0854.42
2009/04/23 13:43:32.0    -330   -106    -23    347    348 252.2  -3.9  34172  289.76 0854.42
2009/04/23 13:43:32.1    -214    -30   -107    217    241 261.9 -32.6  34166  289.68 0854.42
2009/04/23 13:43:32.2    -158     12    -95    159    185 274.4 -38.4  34164  289.63 0854.42
2009/04/23 13:43:32.3     -88     73    -70    115    134 309.5 -39.4  34162  289.62 0854.42
2009/04/23 13:43:32.4     -76      5      0     77     78 274.4  -0.3  34172  289.77 0854.42
2009/04/23 13:43:32.5     -59    -13    -70     61     92 257.6 -58.7  34170  289.75 0854.42
2009/04/23 13:43:32.6    -185      1   -149    186    238 270.4 -47.1  34150  289.40 0854.47
2009/04/23 13:43:32.7    -199     93   -204    220    300 295.2 -52.3  34156  289.51 0854.47
2009/04/23 13:43:32.8    -327    -31   -234    329    403 264.6 -43.2  34156  289.52 0854.47
2009/04/23 13:43:32.9    -279     58   -239    286    372 281.9 -48.4  34158  289.54 0854.47
2009/04/23 13:43:33.0    -300    177   -253    349    431 300.5 -44.1  34168  289.70 0854.47
2009/04/23 13:43:33.1    -221    182   -268    287    392 309.5 -52.3  34164  289.65 0854.47
2009/04/23 13:43:33.2     -19    130   -224    132    260 351.5 -71.2  34168  289.70 0854.47
2009/04/23 13:43:33.3    -232   -100    -72    253    263 246.5 -20.7  34170  289.73 0854.47
2009/04/23 13:43:33.4    -189    -53   -166    197    257 254.1 -48.9  34164  289.63 0854.47
2009/04/23 13:43:33.5     -68     13   -195     70    207 281.5 -83.9  34166  289.67 0854.47
2009/04/23 13:43:33.6       0     -4   -119      5    119 189.7 -90.0  34166  289.69 0854.47
2009/04/23 13:43:33.7     -64    -98   -149    118    190 213.4 -61.9  34172  289.79 0854.47
2009/04/23 13:43:33.8    -125    -62   -189    140    235 243.4 -64.2  34174  289.82 0854.47
2009/04/23 13:43:33.9      27      9   -144     29    146  70.0 -90.0  34176  289.84 0854.47
2009/04/23 13:43:34.0     114   -117   -201    164    259 135.9 -60.8  34174  289.82 0854.47
2009/04/23 13:43:34.1     178   -168   -189    246    310 133.3 -46.0  34170  289.73 0854.47
2009/04/23 13:43:34.2     203   -209    -96    292    307 135.9 -23.8  34172  289.78 0854.47
2009/04/23 13:43:34.3     192   -231    -66    301    309 140.3 -12.5  34176  289.83 0854.47
2009/04/23 13:43:34.4     248   -168      3    300    301 124.2   0.7  34166  289.68 0854.47
2009/04/23 13:43:34.5     280   -141    -14    314    315 116.9  -2.7  34174  289.81 0854.47
2009/04/23 13:43:34.6     373    -44     47    376    379  96.8   7.2  34176  289.84 0854.45
2009/04/23 13:43:34.7     369     58    133    374    396  81.0  20.3  34172  289.77 0854.45
2009/04/23 13:43:34.8     350     88    142    361    387  75.8  22.7  34164  289.65 0854.45
2009/04/23 13:43:34.9     249      4    239    250    345  89.0  48.6  34172  289.78 0854.45
2009/04/23 13:43:35.0     467    124    104    484    496  75.1  12.1  34170  289.73 0854.45
2009/04/23 13:43:35.1     375    193    284    423    509  62.7  37.1  34172  289.78 0854.45
2009/04/23 13:43:35.2     208      9    214    209    299  87.5  50.7  34168  289.71 0854.45
2009/04/23 13:43:35.3     312    -15    121    313    335  92.8  22.4  34170  289.73 0854.45
2009/04/23 13:43:35.4     222     72    152    234    279  72.1  36.3  34164  289.64 0854.45
2009/04/23 13:43:35.5     312     -6    122    313    335  91.3  22.5  34168  289.70 0854.45
2009/04/23 13:43:35.6     319     43    123    322    344  82.3  21.8  34170  289.74 0854.45
2009/04/23 13:43:35.7     357    -59     -7    362    363  99.4  -1.2  34168  289.71 0854.45
2009/04/23 13:43:35.8     225     66     80    235    249  73.6  18.9  34172  289.78 0854.45
2009/04/23 13:43:35.9     253     68    116    263    287  74.9  25.2  34172  289.78 0854.45
2009/04/23 13:43:36.0     278     92     84    293    305  71.6  16.0  34172  289.78 0854.45
2009/04/23 13:43:36.1     278    130     73    307    316  64.9  13.5  34172  289.76 0854.45
2009/04/23 13:43:36.2     296     34     15    298    299  83.4   2.9  34170  289.75 0854.45
2009/04/23 13:43:36.3     327    131     63    353    359  68.1  10.1  34162  289.62 0854.45
2009/04/23 13:43:36.4     186    203    -30    276    278  42.5  -6.2  34168  289.71 0854.45
2009/04/23 13:43:36.5     104    280    -49    299    304  20.5  -9.3  34168  289.70 0854.45
2009/04/23 13:43:36.6     120    133   -161    180    241  41.9 -51.0  34166  289.67 0854.39
2009/04/23 13:43:36.7     136     25     -3    139    140  79.4  -1.3  34172  289.77 0854.39
2009/04/23 13:43:36.8      82     40     -3     92     93  63.8  -2.2  34170  289.74 0854.39
2009/04/23 13:43:36.9     220     87    -39    237    241  68.3  -9.3  34174  289.81 0854.39
2009/04/23 13:43:37.0     126    113    -34    170    174  48.0 -11.5  34200  290.25 0854.39
2009/04/23 13:43:37.1     189    239     89    305    318  38.3  16.4  34226  290.68 0854.39
2009/04/23 13:43:37.2     282    211    148    353    382  53.1  24.1  34212  290.45 0854.39
2009/04/23 13:43:37.3     231    312    144    389    414  36.5  21.3  34232  290.80 0854.39
2009/04/23 13:43:37.4     246    284     80    376    385  40.9  12.1  34202  290.27 0854.39
2009/04/23 13:43:37.5     219    144     47    263    268  56.7  10.1  34188  290.05 0854.39
2009/04/23 13:43:37.6     252    146     52    292    297  60.0  10.1  34192  290.12 0854.37
2009/04/23 13:43:37.7     221    150    117    268    292  55.8  25.1  34210  290.42 0854.37
2009/04/23 13:43:37.8     134    104    160    170    233  52.2  48.2  34206  290.35 0854.37
2009/04/23 13:43:37.9     -14    144    111    145    182 354.2  41.2  34212  290.45 0854.37
2009/04/23 13:43:38.0     -24    143    148    146    207 350.3  50.1  34220  290.58 0854.37
2009/04/23 13:43:38.1     -70    123    116    142    183 330.1  43.7  34218  290.55 0854.37
2009/04/23 13:43:38.2     -86    159     54    181    190 331.5  16.8  34222  290.64 0854.37
2009/04/23 13:43:38.3     -47    127     35    136    141 339.5  14.7  34224  290.65 0854.37
2009/04/23 13:43:38.4     -10    126     26    127    130 355.1  11.6  34226  290.69 0854.37
2009/04/23 13:43:38.5      23     59     52     64     82  21.9  43.7  34228  290.72 0854.37
2009/04/23 13:43:38.6      30     26     40     40     56  48.7  50.1  34232  290.79 0854.37
2009/04/23 13:43:38.7      34     -6      6     35     36 101.5  11.1  34238  290.89 0854.37
2009/04/23 13:43:38.8       1    -17    -31     18     35 175.5 -69.1  34234  290.84 0854.37
2009/04/23 13:43:38.9      -1    -67    -55     68     87 180.9 -47.7  34230  290.77 0854.37
2009/04/23 13:43:39.0       0    -91     -3     92     93 180.4  -2.2  34206  290.36 0854.37
2009/04/23 13:43:39.1     -35    -39    -10     53     55 222.3 -11.3  34194  290.14 0854.37
2009/04/23 13:43:39.2     -32     -9    -32     34     46 253.2 -54.4  34196  290.19 0854.37
2009/04/23 13:43:39.3     -25      2    -45     26     51 276.1 -72.1  34206  290.36 0854.37
2009/04/23 13:43:39.4     -41     26    -22     49     53 302.4 -29.5  34200  290.26 0854.37
2009/04/23 13:43:39.5     -28     35    -40     46     60 321.3 -50.2  34200  290.26 0854.37
2009/04/23 13:43:39.6     -20     36    -54     42     68 330.1 -60.8  34206  290.35 0854.35
2009/04/23 13:43:39.7     -31     42    -68     53     86 323.9 -62.9  34214  290.50 0854.35
2009/04/23 13:43:39.8       5     23    -83     24     86  13.4 -87.7  34218  290.57 0854.35
2009/04/23 13:43:39.9       8     -8    -79     12     79 133.1 -90.0  34224  290.67 0854.35
2009/04/23 13:43:40.0      23    -30    -80     38     88 142.2 -77.3  34226  290.70 0854.35
2009/04/23 13:43:40.1      96    -47    -68    108    127 116.2 -39.9  34236  290.86 0854.35
2009/04/23 13:43:40.2     165    -45    -92    172    195 105.5 -34.7  34234  290.82 0854.35
2009/04/23 13:43:40.3     124    -13    -60    125    138  96.1 -31.6  34230  290.77 0854.35
2009/04/23 13:43:40.4     156     14     -1    157    158  84.8  -0.5  34234  290.82 0854.35
2009/04/23 13:43:40.5     181     54    -16    190    191  73.2  -4.9  34228  290.72 0854.35
2009/04/23 13:43:40.6     195     14     48    196    202  85.6  13.9  34232  290.81 0854.35
2009/04/23 13:43:40.7     188    -61    -11    198    199 108.2  -3.2  34224  290.65 0854.35
2009/04/23 13:43:40.8     135    -54    -50    146    155 111.8 -19.1  34246  291.03 0854.35
2009/04/23 13:43:40.9      73   -101     70    125    143 144.0  31.4  34226  290.70 0854.35
2009/04/23 13:43:41.0      53     53    182     76    197  45.0  76.1  34232  290.81 0854.35
2009/04/23 13:43:41.1      30     30    200     43    204  45.0  88.5  34238  290.89 0854.35
2009/04/23 13:43:41.2     209    -33    218    212    304  99.2  50.9  34248  291.05 0854.35
2009/04/23 13:43:41.3     183     39    135    188    231  77.8  39.3  34276  291.55 0854.35
2009/04/23 13:43:41.4     250     79    126    263    291  72.5  27.3  34274  291.51 0854.35
2009/04/23 13:43:41.5     347     96    120    361    381  74.4  18.5  34270  291.44 0854.34
2009/04/23 13:43:41.6     433    126    128    452    470  73.7  15.9  34280  291.62 0854.34
2009/04/23 13:43:41.7     284     57    264    290    392  78.5  47.0  34270  291.44 0854.34
2009/04/23 13:43:41.8     350     73    289    358    460  78.2  43.1  34250  291.09 0854.34
2009/04/23 13:43:41.9     312     68    222    320    389  77.7  38.3  34268  291.39 0854.34
2009/04/23 13:43:42.0     243     61    166    251    300  75.8  36.5  34242  290.97 0854.34
2009/04/23 13:43:42.1     350     90    131    362    384  75.6  20.7  34246  291.03 0854.34
2009/04/23 13:43:42.2     416    229    164    475    503  61.1  19.1  34238  290.88 0854.34
2009/04/23 13:43:42.3     445    273     92    523    532  58.5  10.0  34260  291.28 0854.34
2009/04/23 13:43:42.4     579    267     72    638    643  65.2   6.5  34252  291.13 0854.34
2009/04/23 13:43:42.5     570    166    219    594    633  73.7  21.1  34260  291.28 0854.34
2009/04/23 13:43:42.6     536    176    136    565    582  71.8  13.6  34228  290.71 0854.34
2009/04/23 13:43:42.7     479    244    219    538    580  63.0  23.4  34236  290.86 0854.34
2009/04/23 13:43:42.8     411     25    113    412    428  86.5  15.4  34216  290.51 0854.34
2009/04/23 13:43:42.9     494     76    229    500    549  81.2  26.2  34222  290.62 0854.34
2009/04/23 13:43:43.0     592    173    233    617    659  73.7  21.7  34262  291.30 0854.34
2009/04/23 13:43:43.1     489     73    246    495    552  81.5  28.2  34220  290.60 0854.34
2009/04/23 13:43:43.2     305   -179    304    354    466 120.4  45.0  34238  290.90 0854.34
2009/04/23 13:43:43.3     326   -158    368    363    516 115.9  50.2  34222  290.64 0854.34
2009/04/23 13:43:43.4     207   -131    239    246    342 122.4  49.1  34216  290.51 0854.34
2009/04/23 13:43:43.5     147   -297    207    332    391 153.7  34.9  34208  290.37 0854.32
2009/04/23 13:43:43.6      59   -313    176    319    364 169.3  31.4  34212  290.47 0854.32
2009/04/23 13:43:43.7      35   -253    175    256    310 172.0  37.6  34218  290.56 0854.32
2009/04/23 13:43:43.8      21   -206    197    208    286 174.2  48.2  34210  290.41 0854.32
2009/04/23 13:43:43.9      42   -207    177    212    276 168.5  44.1  34212  290.44 0854.32
2009/04/23 13:43:44.0     -31   -310    108    312    331 185.8  19.1  34204  290.31 0854.32
2009/04/23 13:43:44.1      43   -325     40    328    331 172.4   7.1  34198  290.21 0854.32
2009/04/23 13:43:44.2      66   -263      3    272    273 165.8   0.7  34196  290.17 0854.32
2009/04/23 13:43:44.3      72   -167     60    182    192 156.6  18.4  34190  290.09 0854.32
2009/04/23 13:43:44.4      73   -152     65    169    181 154.4  22.3  34190  290.09 0854.32
2009/04/23 13:43:44.5      11   -154    113    155    191 175.6  39.7  34190  290.09 0854.32
2009/04/23 13:43:44.6     -21   -150    139    152    205 188.1  47.1  34204  290.31 0854.32
2009/04/23 13:43:44.7     -47   -199     84    205    221 193.3  23.1  34196  290.19 0854.32
2009/04/23 13:43:44.8     -52   -299     48    304    308 190.0   9.0  34192  290.12 0854.32
2009/04/23 13:43:44.9     -13   -297     91    298    312 182.7  17.0  34196  290.19 0854.32
2009/04/23 13:43:45.0     -29   -314    114    316    335 185.4  20.7  34206  290.35 0854.32
2009/04/23 13:43:45.1     -60   -303    155    310    346 191.3  28.5  34212  290.45 0854.32
2009/04/23 13:43:45.2     -19   -265    108    266    287 184.2  23.1  34196  290.19 0854.32
2009/04/23 13:43:45.3    -107   -270    122    291    315 201.6  24.1  34194  290.14 0854.32
2009/04/23 13:43:45.4    -113   -248    157    273    314 204.5  32.6  34198  290.22 0854.32
2009/04/23 13:43:45.5    -144   -225    174    268    319 212.7  36.0  34188  290.03 0854.31
2009/04/23 13:43:45.6    -162   -230    102    282    299 215.2  20.9  34186  290.02 0854.31
2009/04/23 13:43:45.7     -97   -224     58    245    252 203.4  13.5  34186  290.02 0854.31
2009/04/23 13:43:45.8    -115   -208     77    239    252 209.0  17.9  34186  290.00 0854.31
2009/04/23 13:43:45.9    -141   -250    130    288    315 209.4  25.9  34186  290.02 0854.31
2009/04/23 13:43:46.0    -172   -226     85    285    298 217.2  16.6  34192  290.10 0854.31
2009/04/23 13:43:46.1    -102   -123    147    160    217 219.6  47.7  34188  290.04 0854.31
2009/04/23 13:43:46.2    -146   -109    121    183    219 233.1  36.7  34194  290.14 0854.31
2009/04/23 13:43:46.3    -215    -44    114    220    247 258.3  29.5  34188  290.05 0854.31
2009/04/23 13:43:46.4    -167    -75     51    184    192 245.8  15.6  34184  289.97 0854.31
2009/04/23 13:43:46.5     -93     -4     87     94    128 267.0  47.9  34182  289.96 0854.31
2009/04/23 13:43:46.6    -161    103     -7    192    193 302.6  -2.2  34194  290.14 0854.31
2009/04/23 13:43:46.7    -127    119    -76    175    190 313.1 -29.3  34186  290.02 0854.31
2009/04/23 13:43:46.8     -90     78    -15    120    121 310.9  -7.3  34188  290.06 0854.31
2009/04/23 13:43:46.9    -121    117     59    169    180 314.2  19.2  34186  290.01 0854.31
2009/04/23 13:43:47.0     -47    141    -29    149    152 341.3 -11.3  34188  290.04 0854.31
2009/04/23 13:43:47.1     -34     99    -31    105    110 340.8 -16.6  34184  289.97 0854.31
2009/04/23 13:43:47.2      11     89     36     90     96   7.6  22.5  34188  290.06 0854.31
2009/04/23 13:43:47.3      76     92     13    120    121  39.6   6.5  34190  290.09 0854.31
2009/04/23 13:43:47.4      58    144     27    156    159  21.9  10.1  34192  290.11 0854.31
2009/04/23 13:43:47.5      79    117     30    142    146  33.8  12.2  34198  290.21 0854.34
2009/04/23 13:43:47.6      63    123     76    139    158  27.1  31.0  34192  290.13 0854.34
2009/04/23 13:43:47.7     -11    168     59    169    180 356.0  19.2  34198  290.21 0854.34
2009/04/23 13:43:47.8     -28    126    136    130    188 347.5  51.4  34200  290.26 0854.34
2009/04/23 13:43:47.9     -33    122     98    127    160 344.9  41.7  34198  290.23 0854.34
2009/04/23 13:43:48.0     -50     95      8    108    109 331.9   4.4  34196  290.19 0854.34
2009/04/23 13:43:48.1      -4     61    -12     62     64 355.5 -11.3  34196  290.19 0854.34
2009/04/23 13:43:48.2       8    -26     51     28     58 161.7  68.8  34200  290.26 0854.34
2009/04/23 13:43:48.3     -12    -57     16     59     62 192.5  15.2  34200  290.26 0854.34
2009/04/23 13:43:48.4     -12    -62      3     64     65 191.6   2.9  34196  290.19 0854.34
2009/04/23 13:43:48.5      18    -88     52     90    103 168.0  32.9  34194  290.16 0854.34
2009/04/23 13:43:48.6      51   -128     49    138    146 158.2  20.0  34182  289.94 0854.34
2009/04/23 13:43:48.7      32   -112     45    117    125 164.0  22.0  34182  289.94 0854.34
2009/04/23 13:43:48.8      32   -144     16    148    149 167.5   6.5  34182  289.96 0854.34
2009/04/23 13:43:48.9      -3   -163     13    164    165 181.4   4.9  34182  289.96 0854.34
2009/04/23 13:43:49.0       0   -145     21    146    148 180.0   8.5  34182  289.94 0854.34
2009/04/23 13:43:49.1      59   -188     -7    198    199 162.4  -2.1  34184  289.97 0854.34
2009/04/23 13:43:49.2      37   -184    -10    188    189 168.4  -3.2  34182  289.94 0854.34
2009/04/23 13:43:49.3      56   -188    -29    197    200 163.5  -8.6  34180  289.91 0854.34
2009/04/23 13:43:49.4      -5   -124    -20    125    127 182.6  -9.4  34178  289.89 0854.34
2009/04/23 13:43:49.5     -45   -137      4    145    146 198.3   1.8  34180  289.92 0854.37
2009/04/23 13:43:49.6     -37    -87    -91     95    131 203.2 -53.4  34180  289.91 0854.37
2009/04/23 13:43:49.7     -86   -140    -62    165    176 211.6 -25.9  34178  289.89 0854.37
2009/04/23 13:43:49.8      10   -151    -79    152    171 176.0 -33.9  34176  289.85 0854.37
2009/04/23 13:43:49.9      17   -122    -16    124    126 172.0  -7.3  34176  289.84 0854.37
2009/04/23 13:43:50.0      22    -92     92     95    132 166.2  49.4  34180  289.91 0854.37
2009/04/23 13:43:50.1       0    -82    109     83    137 180.4  58.5  34184  289.97 0854.37
2009/04/23 13:43:50.2     -86   -119    149    148    210 216.0  50.1  34182  289.94 0854.37
2009/04/23 13:43:50.3     -52   -256    136    262    295 191.6  29.3  34178  289.86 0854.37
2009/04/23 13:43:50.4     -62   -258    134    266    297 193.6  29.1  34176  289.85 0854.37
2009/04/23 13:43:50.5    -140   -192     96    238    256 216.1  23.1  34174  289.80 0854.37
2009/04/23 13:43:50.6    -110   -203     98    231    250 208.5  24.3  34178  289.86 0854.37
2009/04/23 13:43:50.7    -123   -231     88    263    278 208.1  18.6  34176  289.83 0854.37
2009/04/23 13:43:50.8    -101   -265    126    284    310 201.0  25.3  34174  289.81 0854.37
2009/04/23 13:43:50.9    -150   -236    122    281    306 212.5  25.1  34174  289.81 0854.37
2009/04/23 13:43:51.0     -28   -164     64    167    178 189.8  22.0  34176  289.85 0854.37
2009/04/23 13:43:51.1     120    -81    151    146    210 124.1  50.7  34176  289.85 0854.37
2009/04/23 13:43:51.2      29    -92    174     97    199 162.6  68.8  34176  289.85 0854.37
2009/04/23 13:43:51.3      12      4    124     13    124  71.4  90.0  34182  289.94 0854.37
2009/04/23 13:43:51.4     150    -90    157    176    235 121.1  46.4  34178  289.87 0854.37
2009/04/23 13:43:51.6     232   -118    127    261    290 117.1  27.8  34176  289.83 0854.42
2009/04/23 13:43:51.7     172   -138    111    221    247 128.9  28.7  34176  289.85 0854.42
2009/04/23 13:43:51.8     108   -153     96    188    211 144.8  29.2  34174  289.82 0854.42
2009/04/23 13:43:51.9      42   -136    109    143    179 162.6  41.2  34172  289.79 0854.42
2009/04/23 13:43:52.0    -115   -180     81    214    228 212.6  21.5  34172  289.79 0854.42
2009/04/23 13:43:52.1    -122   -255      4    283    284 205.6   0.8  34174  289.80 0854.42
2009/04/23 13:43:52.2     -18   -267     52    268    273 184.0  11.0  34176  289.83 0854.42
2009/04/23 13:43:52.3     -50   -260     42    265    269 190.9   9.0  34176  289.83 0854.42
2009/04/23 13:43:52.4    -106   -309    177    327    371 199.0  30.9  34174  289.81 0854.42
2009/04/23 13:43:52.5     -41   -437    115    440    455 185.4  14.7  34178  289.88 0854.42
2009/04/23 13:43:52.6    -105   -473     60    485    489 192.6   7.1  34174  289.81 0854.42
2009/04/23 13:43:52.7    -169   -511    109    539    550 198.3  11.5  34176  289.84 0854.42
2009/04/23 13:43:52.8    -134   -605    160    620    641 192.5  14.5  34178  289.86 0854.42
2009/04/23 13:43:52.9     -43   -558    207    560    597 184.5  21.0  34172  289.78 0854.42
2009/04/23 13:43:53.0      71   -501    214    507    550 171.9  24.2  34174  289.80 0854.42
2009/04/23 13:43:53.1     131   -429    157    449    475 163.0  20.0  34174  289.81 0854.42
2009/04/23 13:43:53.2     178   -388    249    428    495 155.3  32.9  34176  289.83 0854.42
2009/04/23 13:43:53.3     194   -331    174    384    421 149.6  26.2  34170  289.73 0854.42
2009/04/23 13:43:53.4      17   -368    189    369    414 177.3  29.3  34168  289.72 0854.42
2009/04/23 13:43:53.5     -10   -365    126    366    388 181.6  19.1  34176  289.84 0854.42
2009/04/23 13:43:53.6      27   -340     59    342    348 175.3   9.9  34176  289.84 0854.39
2009/04/23 13:43:53.7     124   -222     54    255    261 150.8  12.2  34176  289.83 0854.39
2009/04/23 13:43:53.8     336   -254     13    422    423 127.1   1.8  34172  289.77 0854.39
2009/04/23 13:43:53.9     120   -419     49    436    439 164.0   6.5  34170  289.75 0854.39
2009/04/23 13:43:54.0     116   -330    168    350    388 160.6  27.3  34168  289.71 0854.39
2009/04/23 13:43:54.1     -51   -410    129    414    434 187.1  17.3  34170  289.75 0854.39
2009/04/23 13:43:54.2     -90   -470     63    479    484 190.9   7.6  34176  289.84 0854.39
2009/04/23 13:43:54.3    -209   -398    108    450    463 207.7  13.6  34174  289.82 0854.39
2009/04/23 13:43:54.4      32   -360     85    362    372 174.9  13.2  34178  289.86 0854.39
2009/04/23 13:43:54.5      -9   -329    105    330    347 181.7  17.7  34178  289.86 0854.39
2009/04/23 13:43:54.6     -73   -242     84    254    268 196.9  18.4  34176  289.83 0854.39
2009/04/23 13:43:54.7     -52   -333     -7    338    339 188.9  -1.3  34178  289.87 0854.39
2009/04/23 13:43:54.8      22   -307     17    308    309 175.8   3.3  34170  289.75 0854.39
2009/04/23 13:43:54.9      -4   -267    -49    268    273 180.9 -10.5  34174  289.81 0854.39
2009/04/23 13:43:55.0      -8   -327    -69    328    336 181.5 -11.9  34174  289.81 0854.39
2009/04/23 13:43:55.1     -33   -346    111    348    366 185.6  17.7  34160  289.57 0854.39
2009/04/23 13:43:55.2    -118   -425      6    442    443 195.5   0.8  34168  289.70 0854.39
2009/04/23 13:43:55.3    -283   -394    -22    486    487 215.7  -2.7  34170  289.73 0854.39
2009/04/23 13:43:55.4     -73   -356    208    364    419 191.7  32.4  34168  289.71 0854.39
2009/04/23 13:43:55.5     -13   -418    151    419    445 181.8  20.7  34166  289.66 0854.39
2009/04/23 13:43:55.6     -78   -385    172    394    429 191.6  25.1  34166  289.68 0854.39
2009/04/23 13:43:55.7     -71   -327    123    335    356 192.4  21.0  34162  289.62 0854.39
2009/04/23 13:43:55.8       7   -326    201    327    383 178.6  34.8  34164  289.65 0854.39
2009/04/23 13:43:55.9     -99   -394     96    407    419 194.2  13.3  34166  289.68 0854.39
2009/04/23 13:43:56.0    -182   -409      7    448    449 204.1   1.0  34168  289.72 0854.39
2009/04/23 13:43:56.1    -167   -461     73    491    497 200.0   8.5  34170  289.73 0854.39
2009/04/23 13:43:56.2    -232   -449    -40    506    508 207.4  -4.6  34166  289.67 0854.39
2009/04/23 13:43:56.3    -205   -433    -60    480    484 205.3  -7.2  34162  289.61 0854.39
2009/04/23 13:43:56.4    -248   -439    -47    505    508 209.5  -5.4  34162  289.61 0854.39
2009/04/23 13:43:56.5    -286   -460    -79    542    548 211.9  -8.4  34170  289.75 0854.39
2009/04/23 13:43:56.6    -134   -435     77    456    463 197.2   9.6  34166  289.66 0854.39
2009/04/23 13:43:56.7    -155   -428    -57    456    460 199.9  -7.2  34164  289.65 0854.39
2009/04/23 13:43:56.8    -256   -343    -56    429    433 216.8  -7.5  34164  289.65 0854.39
2009/04/23 13:43:56.9    -253   -347     57    430    434 216.1   7.6  34166  289.68 0854.39
2009/04/23 13:43:57.0    -268   -225     27    350    352 230.0   4.5  34166  289.67 0854.39
2009/04/23 13:43:57.1    -332    -18     -2    333    334 266.8  -0.4  34166  289.67 0854.39
2009/04/23 13:43:57.2    -157   -147     96    216    236 226.9  25.3  34160  289.57 0854.39
2009/04/23 13:43:57.3     -84   -171     53    191    199 206.1  15.6  34166  289.67 0854.39
2009/04/23 13:43:57.4    -124    -91     19    155    157 233.6   7.2  34168  289.72 0854.39
2009/04/23 13:43:57.5     -46    -73    -34     87     93 212.1 -26.4  34166  289.69 0854.39
2009/04/23 13:43:57.6      48    -26    -37     55     66 118.9 -40.9  34170  289.75 0854.40
2009/04/23 13:43:57.7     102    -60    -32    119    124 120.7 -15.4  34170  289.74 0854.40
2009/04/23 13:43:57.8     195    -39     -3    199    200 101.5  -1.1  34168  289.70 0854.40
2009/04/23 13:43:57.9     112     -8     30    113    118  94.3  15.2  34162  289.62 0854.40
2009/04/23 13:43:58.0     173   -108    -61    204    212 122.0 -21.7  34166  289.69 0854.40
2009/04/23 13:43:58.1     219   -108    -82    245    259 116.2 -18.6  34162  289.61 0854.40
2009/04/23 13:43:58.2     193    -77    -54    208    216 111.8 -14.7  34166  289.67 0854.40
2009/04/23 13:43:58.3     165   -165    -99    234    254 134.9 -28.5  34164  289.64 0854.40
2009/04/23 13:43:58.4     106    -76   -142    131    193 126.0 -56.6  34164  289.65 0854.40
2009/04/23 13:43:58.5     151   -190   -102    243    263 141.5 -28.5  34170  289.73 0854.40
2009/04/23 13:43:58.6     283   -180    -67    336    343 122.5 -11.3  34168  289.71 0854.42
2009/04/23 13:43:58.7     257   -197   -120    325    346 127.5 -25.5  34170  289.74 0854.42
2009/04/23 13:43:58.8      71   -232   -124    243    272 162.8 -33.6  34170  289.75 0854.42
2009/04/23 13:43:58.9     135   -220    -92    259    276 148.4 -19.6  34170  289.73 0854.42
2009/04/23 13:43:59.0      52   -233    -38    239    243 167.3  -9.0  34168  289.71 0854.42
2009/04/23 13:43:59.1      37   -240    -17    243    244 171.1  -4.1  34166  289.68 0854.42
2009/04/23 13:43:59.2      68   -223    -38    234    238 163.1  -9.3  34172  289.76 0854.42
2009/04/23 13:43:59.3     147   -136     38    201    205 132.7  10.8  34164  289.65 0854.42
2009/04/23 13:43:59.4     138   -129     69    190    202 133.1  20.9  34164  289.65 0854.42
2009/04/23 13:43:59.5     151   -284    143    322    352 152.0  25.3  34172  289.77 0854.42
2009/04/23 13:43:59.6     129   -381     79    403    411 161.2  11.1  34166  289.68 0854.42
2009/04/23 13:43:59.7     105   -276     96    296    312 159.1  17.9  34166  289.68 0854.42
2009/04/23 13:43:59.8      47   -261    161    266    310 169.8  34.4  34170  289.75 0854.42
2009/04/23 13:43:59.9     -30   -188    126    191    228 189.3  36.3  34168  289.72 0854.42
2009/04/23 13:44:00.0     -28   -202     85    205    221 188.0  23.6  34168  289.72 0854.42
2009/04/23 13:44:00.1     -47   -234    152    239    283 191.5  35.5  34166  289.66 0854.42
2009/04/23 13:44:00.2       0     42    169     43    174 359.1  85.9  34178  289.87 0854.42
2009/04/23 13:44:00.3      49    -85    124     99    158 150.1  57.5  34172  289.79 0854.42
2009/04/23 13:44:00.4      46    -75    122     89    151 148.4  60.5  34172  289.77 0854.42
2009/04/23 13:44:00.5     115    -17     73    117    137  98.4  35.5  34170  289.75 0854.42
2009/04/23 13:44:00.6     135    -22    -34    137    142  99.6 -13.9  34166  289.67 0854.46
2009/04/23 13:44:00.7     172    -86    -44    193    199 116.6 -12.9  34170  289.74 0854.46
2009/04/23 13:44:00.8    -141   -196      5    242    243 215.8   1.2  34170  289.73 0854.46
2009/04/23 13:44:00.9    -129   -242   -218    275    350 208.1 -46.8  34160  289.56 0854.46
2009/04/23 13:44:01.0       0   -299    112    300    320 180.0  21.4  34162  289.59 0854.46
2009/04/23 13:44:01.1     -37   -402     22    404    405 185.3   3.2  34156  289.51 0854.46
2009/04/23 13:44:01.2    -184   -351   -178    397    435 207.6 -30.1  34162  289.61 0854.46
2009/04/23 13:44:01.3     -84   -373   -112    383    400 192.7 -16.4  34162  289.62 0854.46
2009/04/23 13:44:01.4     -31   -366   -124    368    388 184.9 -23.3  34164  289.64 0854.46
2009/04/23 13:44:01.5     -65   -174    -61    186    196 200.5 -18.3  34156  289.50 0854.46
2009/04/23 13:44:01.6    -124     -8    -11    125    126 266.1  -5.2  34170  289.75 0854.46
2009/04/23 13:44:01.7     -12   -359    -45    360    363 182.0  -7.2  34168  289.71 0854.46
2009/04/23 13:44:01.8      -9   -400     98    401    413 181.4  13.8  34166  289.66 0854.46
2009/04/23 13:44:01.9      56   -378    140    383    407 171.5  20.9  34168  289.71 0854.46
2009/04/23 13:44:02.0      29   -381     70    383    390 175.5  10.4  34166  289.67 0854.46
2009/04/23 13:44:02.1      91   -352    -73    364    372 165.4 -11.3  34166  289.67 0854.46
2009/04/23 13:44:02.2      47   -410   -134    413    434 173.4 -23.0  34168  289.72 0854.46
2009/04/23 13:44:02.3      90   -511   -149    519    541 170.0 -16.1  34166  289.68 0854.46
2009/04/23 13:44:02.4     -10   -619   -127    620    634 181.0 -11.6  34168  289.70 0854.46
2009/04/23 13:44:02.5      57   -679   -135    682    696 175.1 -11.2  34166  289.66 0854.46
2009/04/23 13:44:02.6      14   -568   -134    569    585 178.5 -13.3  34164  289.64 0854.46
2009/04/23 13:44:02.7       0   -392   -155    393    422 180.0 -27.3  34170  289.73 0854.46
2009/04/23 13:44:02.8    -114   -501   -185    514    547 192.9 -19.8  34164  289.65 0854.46
2009/04/23 13:44:02.9    -140   -538   -190    556    587 194.6 -23.9  34166  289.68 0854.46
2009/04/23 13:44:03.0    -147   -440   -214    465    511 198.5 -30.8  34170  289.73 0854.46
2009/04/23 13:44:03.1    -141   -334    -92    363    375 203.0 -14.3  34162  289.60 0854.46
2009/04/23 13:44:03.2      49   -289    -34    294    297 170.3  -6.7  34166  289.66 0854.46
2009/04/23 13:44:03.3      85   -211    -91    228    245 158.1 -27.4  34166  289.68 0854.46
2009/04/23 13:44:03.4     -17    -85   -208     87    225 191.6 -80.5  34174  289.80 0854.46
2009/04/23 13:44:03.5      47   -100   -144    111    181 154.5 -62.9  34168  289.70 0854.46
2009/04/23 13:44:03.6     106    -51    -33    118    123 115.8 -16.0  34174  289.82 0854.46
2009/04/23 13:44:03.7      51   -155    110    164    197 161.5  37.3  34166  289.69 0854.46
2009/04/23 13:44:03.8      89    -29   -148     94    175 108.6 -69.1  34170  289.74 0854.46
2009/04/23 13:44:03.9      -6   -145     71    146    162 182.7  27.8  34160  289.57 0854.46
2009/04/23 13:44:04.0     -86    -66      4    109    110 232.7   2.3  34164  289.65 0854.46
2009/04/23 13:44:04.1     -91     61   -192    110    221 303.7 -71.9  34172  289.77 0854.46
2009/04/23 13:44:04.2    -607    -54   -281    610    671 264.9 -30.9  34122  288.94 0854.46
2009/04/23 13:44:04.3    -753    132   -255    765    806 280.0 -23.6  34158  289.54 0854.46
2009/04/23 13:44:04.4    -285   -334   -182    440    476 220.5 -28.2  34160  289.56 0854.46
2009/04/23 13:44:04.5    -234   -100   -124    255    283 246.7 -31.8  34156  289.51 0854.46
2009/04/23 13:44:04.6    -344   -153    -28    377    378 246.0  -4.4  34162  289.62 0854.45
2009/04/23 13:44:04.7    -206    -35   -213    209    298 260.3 -54.8  34164  289.64 0854.45
2009/04/23 13:44:04.8    -189     -9   -253    190    316 267.2 -63.8  34164  289.64 0854.45
2009/04/23 13:44:04.9      35   -192   -312    196    368 169.5 -69.1  34166  289.66 0854.45
2009/04/23 13:44:05.0     -68   -111   -309    131    335 211.6 -80.3  34162  289.61 0854.45
2009/04/23 13:44:05.1    -215    -64   -348    225    414 253.4 -68.7  34166  289.67 0854.45
2009/04/23 13:44:05.2    -366   -101   -161    380    412 254.5 -28.6  34170  289.73 0854.45
2009/04/23 13:44:05.3    -258   -136   -274    292    400 242.2 -52.4  34158  289.55 0854.45
2009/04/23 13:44:05.4     -37   -184   -210    188    281 191.6 -57.9  34162  289.61 0854.45
2009/04/23 13:44:05.5      86   -315   -209    327    388 164.7 -40.0  34158  289.55 0854.45
2009/04/23 13:44:05.6    -151   -245   -243    288    376 211.6 -48.7  34152  289.43 0854.45
2009/04/23 13:44:05.7    -174   -314   -261    360    444 209.0 -43.9  34162  289.61 0854.45
2009/04/23 13:44:05.8    -148   -121   -250    192    315 230.9 -63.0  34160  289.56 0854.45
2009/04/23 13:44:05.9    -161   -193   -145    252    290 219.9 -37.1  34162  289.59 0854.45
2009/04/23 13:44:06.0    -119   -202   -185    235    299 210.5 -46.6  34158  289.54 0854.45
2009/04/23 13:44:06.1    -108   -170   -118    202    233 212.5 -37.5  34164  289.65 0854.45
2009/04/23 13:44:06.2     -15   -255   -147    256    295 183.4 -36.8  34164  289.63 0854.45
2009/04/23 13:44:06.3     -59   -208   -199    217    294 196.0 -51.9  34150  289.41 0854.45
2009/04/23 13:44:06.4     -35    -98   -155    105    187 200.0 -67.2  34162  289.62 0854.45
2009/04/23 13:44:06.5      81   -203   -194    219    292 158.2 -50.6  34164  289.64 0854.45
2009/04/23 13:44:06.6    -108   -119   -142    161    214 222.3 -50.2  34166  289.69 0854.49
2009/04/23 13:44:06.7    -297   -229   -207    376    429 232.4 -35.8  34164  289.63 0854.49
2009/04/23 13:44:06.8    -322   -273   -169    423    455 229.7 -27.4  34160  289.58 0854.49
2009/04/23 13:44:06.9    -284   -314   -251    424    492 222.1 -37.8  34164  289.64 0854.49
2009/04/23 13:44:07.0    -222   -338   -260    405    481 213.3 -40.0  34162  289.60 0854.49
2009/04/23 13:44:07.1    -166   -329   -223    369    431 206.8 -38.2  34162  289.61 0854.49
2009/04/23 13:44:07.2    -152   -278   -218    317    384 208.7 -42.1  34162  289.62 0854.49
2009/04/23 13:44:07.3    -176   -236   -237    295    378 216.7 -47.4  34164  289.64 0854.49
2009/04/23 13:44:07.4    -152   -232   -221    278    355 213.2 -47.0  34162  289.59 0854.49
2009/04/23 13:44:07.5    -160   -216   -179    269    323 216.5 -41.1  34160  289.56 0854.49
2009/04/23 13:44:07.6    -158   -168   -192    231    300 223.2 -48.2  34164  289.64 0854.49
2009/04/23 13:44:07.7    -135   -134   -206    191    280 225.1 -56.6  34160  289.58 0854.49
2009/04/23 13:44:07.8    -155   -138   -195    208    285 228.2 -52.3  34168  289.70 0854.49
2009/04/23 13:44:07.9    -165   -166   -192    235    303 224.8 -48.1  34168  289.71 0854.49
2009/04/23 13:44:08.0    -171   -141   -166    222    277 230.5 -45.0  34162  289.61 0854.49
2009/04/23 13:44:08.1    -225   -118   -133    255    287 242.2 -33.9  34162  289.59 0854.49
2009/04/23 13:44:08.2    -174   -159   -111    237    261 227.6 -31.5  34158  289.54 0854.49
2009/04/23 13:44:08.3    -217   -137    -94    257    273 237.6 -25.3  34162  289.59 0854.49
2009/04/23 13:44:08.4    -162    -12    -78    163    180 265.6 -31.7  34162  289.62 0854.49
2009/04/23 13:44:08.5    -130    -51    -61    140    152 248.3 -29.5  34166  289.67 0854.53
2009/04/23 13:44:08.6    -156    -21   -136    158    208 262.1 -49.5  34164  289.63 0854.53
2009/04/23 13:44:08.7     -97     20   -135    100    168 281.9 -64.4  34162  289.62 0854.53
2009/04/23 13:44:08.8    -246    -26   -103    248    268 263.9 -28.2  34164  289.64 0854.53
2009/04/23 13:44:08.9    -218    -56    -61    226    235 255.6 -15.2  34166  289.69 0854.53
2009/04/23 13:44:09.0    -276    -77   -100    287    303 254.3 -24.0  34166  289.66 0854.53
2009/04/23 13:44:09.1    -218    -18   -141    219    260 265.0 -40.0  34164  289.64 0854.53
2009/04/23 13:44:09.2    -212      3   -131    213    250 270.9 -38.9  34166  289.68 0854.53
2009/04/23 13:44:09.3    -239     16   -140    240    277 273.9 -37.5  34168  289.71 0854.53
2009/04/23 13:44:09.4    -219      3   -138    220    259 270.8 -39.9  34166  289.68 0854.53
2009/04/23 13:44:09.5    -196     -2   -160    197    253 269.2 -47.9  34166  289.66 0854.53
2009/04/23 13:44:09.6    -176    -74   -169    191    255 247.2 -50.6  34166  289.68 0854.53
2009/04/23 13:44:09.7    -205    -67   -200    216    294 251.8 -52.3  34170  289.73 0854.53
2009/04/23 13:44:09.8    -242     -1   -197    243    312 269.6 -47.7  34172  289.76 0854.53
2009/04/23 13:44:09.9    -165      0   -223    166    278 270.0 -64.2  34174  289.80 0854.53
2009/04/23 13:44:10.0    -173    -16   -210    174    272 264.5 -60.7  34170  289.75 0854.53
2009/04/23 13:44:10.1    -178     49   -222    185    288 285.5 -60.7  34170  289.73 0854.53
2009/04/23 13:44:10.2    -107     -6   -205    108    231 266.5 -74.8  34170  289.74 0854.53
2009/04/23 13:44:10.3      39     14   -103     42    111  69.2 -81.4  34160  289.57 0854.53
2009/04/23 13:44:10.4      85     40   -120     95    153  64.6 -61.3  34170  289.75 0854.53
2009/04/23 13:44:10.5     143     50   -194    152    246  70.5 -62.1  34166  289.69 0854.53
2009/04/23 13:44:10.6     174   -154   -164    233    284 131.6 -43.0  34166  289.66 0854.53
2009/04/23 13:44:10.7      51   -217   -193    224    295 166.6 -49.5  34170  289.73 0854.53
2009/04/23 13:44:10.8     120   -113   -185    165    247 133.3 -58.1  34168  289.72 0854.53
2009/04/23 13:44:10.9     173   -118    -79    210    224 124.2 -25.7  34164  289.65 0854.53
2009/04/23 13:44:11.0     252   -136    -26    287    289 118.4  -5.4  34166  289.66 0854.53
2009/04/23 13:44:11.1     319   -106    -24    337    338 108.4  -4.1  34164  289.65 0854.53
2009/04/23 13:44:11.2     339   -171    -23    380    381 116.8  -3.5  34164  289.64 0854.53
2009/04/23 13:44:11.3     296   -234    -41    378    381 128.4  -6.3  34166  289.67 0854.53
2009/04/23 13:44:11.4     244   -228   -118    335    356 133.0 -19.4  34168  289.71 0854.53
2009/04/23 13:44:11.5     280   -105    -95    300    315 110.6 -17.6  34166  289.68 0854.53
2009/04/23 13:44:11.6     334   -158    -38    370    373 115.4  -6.0  34166  289.69 0854.53
2009/04/23 13:44:11.7     315   -120      5    338    339 111.0   0.9  34170  289.74 0854.53
2009/04/23 13:44:11.8     239      7     61    240    248  88.3  14.3  34166  289.68 0854.53
2009/04/23 13:44:11.9     242     27     88    244    259  83.6  20.7  34172  289.78 0854.53
2009/04/23 13:44:12.0     353     30    140    355    381  85.1  22.9  34204  290.33 0854.53
2009/04/23 13:44:12.1     403     -6    238    404    468  90.9  33.3  34220  290.58 0854.53
2009/04/23 13:44:12.2     352    -12    247    353    430  92.0  38.5  34208  290.38 0854.53
2009/04/23 13:44:12.3     307    -80    224    318    388 104.6  38.6  34202  290.30 0854.53
2009/04/23 13:44:12.4     240   -158    133    288    317 123.3  26.4  34188  290.05 0854.53
2009/04/23 13:44:12.5     154   -113    153    192    245 126.2  42.7  34200  290.26 0854.52
2009/04/23 13:44:12.6     161    -35    173    165    239 102.4  51.2  34208  290.38 0854.52
2009/04/23 13:44:12.7     283    -54    286    289    406 100.8  49.9  34182  289.93 0854.52
2009/04/23 13:44:12.8     349    -76    207    358    413 102.4  32.6  34174  289.82 0854.52
2009/04/23 13:44:12.9     290   -115    203    313    373 111.7  36.0  34178  289.89 0854.52
2009/04/23 13:44:13.0      54   -132    161    143    215 157.7  54.0  34170  289.75 0854.52
2009/04/23 13:44:13.1     154    -73    184    171    251 115.4  52.2  34182  289.94 0854.52
2009/04/23 13:44:13.2     196    -71    195    209    285 110.0  47.9  34178  289.88 0854.52
2009/04/23 13:44:13.3     171    -52    115    179    212 107.1  35.6  34178  289.87 0854.52
2009/04/23 13:44:13.4      25   -127    189    130    229 168.9  62.6  34174  289.82 0854.52
2009/04/23 13:44:13.5       2    -18     99     19    100 172.0  89.6  34184  289.97 0854.52
2009/04/23 13:44:13.6     -37   -192    125    196    232 190.9  35.5  34174  289.80 0854.52
2009/04/23 13:44:13.7     -88   -190    125    210    244 204.9  33.5  34178  289.88 0854.52
2009/04/23 13:44:13.8      20   -152    111    154    189 172.4  39.5  34174  289.82 0854.52
2009/04/23 13:44:13.9      95    -42    112    105    153 114.0  52.1  34172  289.77 0854.52
2009/04/23 13:44:14.0      91    -97     39    134    140 136.8  16.3  34176  289.85 0854.52
2009/04/23 13:44:14.1      52   -130      9    141    142 158.1   3.8  34176  289.84 0854.52
2009/04/23 13:44:14.2      42   -139    -24    146    148 163.1  -9.3  34176  289.84 0854.52
2009/04/23 13:44:14.3     -88   -182     30    203    206 205.9   8.5  34174  289.80 0854.52
2009/04/23 13:44:14.4     -60   -183    -42    193    198 198.3 -12.4  34172  289.79 0854.52
2009/04/23 13:44:14.5     -31   -200    105    203    228 188.9  29.3  34174  289.82 0854.51
2009/04/23 13:44:14.6       6   -108    160    109    193 176.4  62.8  34176  289.84 0854.51
2009/04/23 13:44:14.7    -140    -95    164    170    236 235.8  49.0  34172  289.79 0854.51
2009/04/23 13:44:14.8    -228   -226    117    322    342 225.2  20.7  34172  289.77 0854.51
2009/04/23 13:44:14.9    -379   -178    -22    419    420 244.8  -3.1  34172  289.78 0854.51
2009/04/23 13:44:15.0    -414   -151    -57    441    445 250.0  -7.4  34178  289.88 0854.51
2009/04/23 13:44:15.1    -427   -187    -66    467    472 246.4  -8.1  34172  289.78 0854.51
2009/04/23 13:44:15.2    -516   -104      4    527    528 258.5   0.5  34178  289.87 0854.51
2009/04/23 13:44:15.3    -446    -81      1    454    455 259.7   0.2  34178  289.88 0854.51
2009/04/23 13:44:15.4    -321   -212    -79    386    395 236.5 -11.6  34182  289.96 0854.51
2009/04/23 13:44:15.5    -229    -67    -10    239    240 253.6  -2.6  34184  289.97 0854.51
2009/04/23 13:44:15.6    -241    -19     97    242    260 265.4  23.0  34186  290.02 0854.51
2009/04/23 13:44:15.7    -221   -138     41    261    265 238.0   9.0  34180  289.92 0854.51
2009/04/23 13:44:15.8    -113   -185     98    217    238 211.4  25.9  34174  289.82 0854.51
2009/04/23 13:44:15.9    -151   -159     73    220    233 223.4  18.5  34168  289.72 0854.51
2009/04/23 13:44:16.0    -188   -131     43    230    234 235.1  10.6  34172  289.76 0854.51
2009/04/23 13:44:16.1    -127   -118     61    174    185 226.9  19.4  34174  289.82 0854.51
2009/04/23 13:44:16.2    -210    -83     88    227    243 248.3  22.0  34180  289.90 0854.51
2009/04/23 13:44:16.3    -211    -60     54    220    227 254.1  13.9  34180  289.92 0854.51
2009/04/23 13:44:16.4    -183    -53    -39    191    196 253.6 -11.6  34206  290.35 0854.51
2009/04/23 13:44:16.5    -229   -110    -32    255    258 244.2  -7.3  34204  290.31 0854.49
2009/04/23 13:44:16.6    -186    -50    -63    193    204 254.9 -18.1  34192  290.13 0854.49
2009/04/23 13:44:16.7    -162    -21    -47    164    170 262.3 -20.7  34192  290.11 0854.49
2009/04/23 13:44:16.8     -81     37     -4     90     91 294.4  -3.1  34196  290.18 0854.49
2009/04/23 13:44:16.9     -62    -71     95     95    134 221.4  50.1  34198  290.21 0854.49
2009/04/23 13:44:17.0     -64   -108     60    126    139 210.8  27.3  34188  290.06 0854.49
2009/04/23 13:44:17.1     -92    -30     46     97    107 251.8  27.1  34188  290.06 0854.49
2009/04/23 13:44:17.2     -10     55    -37     56     67 349.3 -40.0  34184  289.97 0854.49
2009/04/23 13:44:17.3     -28    139    -19    142    144 348.4  -7.7  34206  290.36 0854.49
2009/04/23 13:44:17.4      68    106    -69    127    144  32.6 -35.7  34210  290.41 0854.49
2009/04/23 13:44:17.5     -93     -6   -117     94    150 266.1 -60.8  34198  290.21 0854.49
2009/04/23 13:44:17.6    -129    -30   -117    133    177 256.7 -50.6  34190  290.08 0854.49
2009/04/23 13:44:17.7    -161    -94   -135    187    230 239.6 -43.9  34186  290.02 0854.49
2009/04/23 13:44:17.8    -140     -6   -162    141    214 267.4 -59.0  34200  290.25 0854.49
2009/04/23 13:44:17.9    -217    -36   -154    221    269 260.5 -42.8  34190  290.07 0854.49
2009/04/23 13:44:18.0    -236    -77    -82    249    263 251.8 -18.3  34190  290.07 0854.49
2009/04/23 13:44:18.1    -291    -20   -122    292    316 265.9 -28.5  34190  290.07 0854.49
2009/04/23 13:44:18.2    -231     -1   -136    232    268 269.6 -37.5  34192  290.10 0854.49
2009/04/23 13:44:18.3    -350      5    -55    351    356 270.9  -9.0  34188  290.03 0854.49
2009/04/23 13:44:18.4    -270     72    -99    280    298 285.1 -19.6  34194  290.15 0854.49
2009/04/23 13:44:18.5    -226     76    -68    239    249 288.6 -16.0  34194  290.14 0854.54
2009/04/23 13:44:18.6    -185     80     17    202    203 293.5   4.9  34188  290.04 0854.54
2009/04/23 13:44:18.7    -160      2     34    161    165 270.8  12.2  34194  290.14 0854.54
2009/04/23 13:44:18.8     -67    101     63    122    137 326.2  29.3  34194  290.16 0854.54
2009/04/23 13:44:18.9     -58     67    105     89    137 319.0  55.4  34200  290.26 0854.54
2009/04/23 13:44:19.0       2    132     -5    133    134   0.9  -2.2  34198  290.23 0854.54
2009/04/23 13:44:19.1    -158    197    101    253    272 321.3  23.0  34196  290.19 0854.54
2009/04/23 13:44:19.2    -176     98     72    202    214 299.3  20.2  34200  290.25 0854.54
2009/04/23 13:44:19.4    -175     48     84    182    200 285.5  26.6  34196  290.19 0854.54
2009/04/23 13:44:19.5    -187    -32     49    190    197 260.1  14.5  34196  290.19 0854.54
2009/04/23 13:44:19.6    -233    -26     55    235    242 263.4  13.2  34194  290.14 0854.55
2009/04/23 13:44:19.7    -195    -23     87    197    215 263.0  25.3  34194  290.16 0854.55
2009/04/23 13:44:19.8    -251    -18     21    252    253 265.9   4.9  34186  290.02 0854.55
2009/04/23 13:44:19.9    -195    195    -82    276    287 315.0 -21.7  34198  290.22 0854.55
2009/04/23 13:44:20.0    -159    149    -60    219    228 313.1 -15.5  34204  290.31 0854.55
2009/04/23 13:44:20.1    -126    264   -111    293    313 334.5 -26.2  34190  290.09 0854.55
2009/04/23 13:44:20.2    -158    185     89    244    259 319.5  20.9  34198  290.22 0854.55
2009/04/23 13:44:20.3    -179    278     86    331    343 327.2  14.6  34200  290.25 0854.55
2009/04/23 13:44:20.4    -261    312     -1    407    408 320.1  -0.3  34196  290.19 0854.55
2009/04/23 13:44:20.5    -160    289     -6    331    332 331.0  -1.1  34200  290.25 0854.55
2009/04/23 13:44:20.6    -157    247    -37    294    297 327.5  -7.2  34198  290.20 0854.55
2009/04/23 13:44:20.7    -196    184    -96    269    286 313.2 -19.7  34192  290.10 0854.55
2009/04/23 13:44:20.8    -185    168    -36    251    254 312.3  -8.2  34206  290.36 0854.55
2009/04/23 13:44:20.9    -107    225    -29    250    252 334.6  -6.7  34198  290.20 0854.55
2009/04/23 13:44:21.0     -42    181     15    186    187 346.9   4.9  34194  290.16 0854.55
2009/04/23 13:44:21.1    -140    174    101    224    245 321.0  26.2  34198  290.20 0854.55
2009/04/23 13:44:21.2    -179    158     53    239    245 311.4  12.6  34190  290.07 0854.55
2009/04/23 13:44:21.3    -297     89     17    311    312 286.8   3.3  34176  289.85 0854.55
2009/04/23 13:44:21.4    -276     99     36    294    297 289.7   7.1  34182  289.93 0854.55
2009/04/23 13:44:21.5    -191     29     -4    194    195 278.8  -1.3  34182  289.94 0854.55
2009/04/23 13:44:21.6    -116      0     15    117    118 270.0   7.5  34196  290.19 0854.55
2009/04/23 13:44:21.7     -80    -67    121    105    160 230.0  54.6  34192  290.11 0854.55
2009/04/23 13:44:21.8     -68   -106    124    127    177 212.6  49.2  34196  290.18 0854.55
2009/04/23 13:44:21.9      -8   -106    121    107    161 184.5  53.7  34200  290.25 0854.55
2009/04/23 13:44:22.0      -8   -109     38    110    117 184.5  19.4  34200  290.25 0854.55
2009/04/23 13:44:22.1     -26    -91     43     95    104 196.0  26.2  34200  290.26 0854.55
2009/04/23 13:44:22.2      -8    -40     65     41     76 192.5  64.7  34206  290.35 0854.55
2009/04/23 13:44:22.3     -30    -27     44     41     60 227.8  52.1  34204  290.31 0854.55
2009/04/23 13:44:22.4      81      8     59     82    101  83.9  39.5  34194  290.16 0854.55
2009/04/23 13:44:22.5     105      0     -5    106    107  90.0  -3.1  34200  290.25 0854.55
2009/04/23 13:44:22.6     155      0    -49    156    164  90.0 -17.6  34194  290.16 0854.55
2009/04/23 13:44:22.7     109   -119    -93    162    186 137.7 -36.5  34198  290.23 0854.55
2009/04/23 13:44:22.8     115   -130   -171    174    243 138.6 -54.3  34198  290.21 0854.55
2009/04/23 13:44:22.9     190   -104   -239    217    322 118.9 -57.6  34190  290.07 0854.55
2009/04/23 13:44:23.0     201    -73   -226    214    311 110.0 -56.0  34180  289.92 0854.55
2009/04/23 13:44:23.1     297    -29   -192    299    355  95.7 -40.0  34190  290.08 0854.55
2009/04/23 13:44:23.2     262    -45   -174    266    317  99.9 -40.8  34182  289.95 0854.55
2009/04/23 13:44:23.3     245    -58   -146    252    291 103.5 -37.5  34194  290.14 0854.55
2009/04/23 13:44:23.4     187    -60   -145    197    244 107.9 -44.5  34176  289.84 0854.55
2009/04/23 13:44:23.5     231     11   -157    232    280  87.2 -41.8  34198  290.20 0854.55
2009/04/23 13:44:23.6     320    124   -177    344    386  68.8 -33.7  34188  290.03 0854.49
2009/04/23 13:44:23.7     411    235    -34    474    476  60.2  -4.1  34182  289.95 0854.49
2009/04/23 13:44:23.8     362    246     33    438    440  55.8   4.4  34184  289.97 0854.49
2009/04/23 13:44:23.9     363    158     22    396    397  66.5   3.3  34188  290.04 0854.49
2009/04/23 13:44:24.0     336    119     30    357    359  70.4   4.9  34182  289.96 0854.49
2009/04/23 13:44:24.1     249     65    130    258    288  75.2  28.7  34182  289.95 0854.49
2009/04/23 13:44:24.2     304     61     19    311    312  78.6   3.5  34186  290.00 0854.49
2009/04/23 13:44:24.3     284    113   -100    306    323  68.3 -18.2  34192  290.12 0854.49
2009/04/23 13:44:24.4     285    158    -49    326    330  61.0  -8.6  34178  289.89 0854.49
2009/04/23 13:44:24.5     315    184   -139    365    390  59.7 -26.2  34174  289.81 0854.49
2009/04/23 13:44:24.6     318    178    -29    365    367  60.8  -4.6  34176  289.84 0854.49
2009/04/23 13:44:24.7     327    161     17    365    366  63.7   2.8  34174  289.81 0854.49
2009/04/23 13:44:24.8     296    151     85    333    344  62.9  14.4  34172  289.77 0854.49
2009/04/23 13:44:24.9     250    163    136    299    328  56.9  26.2  34178  289.88 0854.49
2009/04/23 13:44:25.0     214    160    164    268    314  53.1  34.3  34188  290.03 0854.49
2009/04/23 13:44:25.1     -25    245     34    247    250 354.0   8.0  34178  289.88 0854.49
2009/04/23 13:44:25.2      98    187    -36    212    216  27.6  -9.6  34182  289.96 0854.49
2009/04/23 13:44:25.3      93    147   -116    175    209  32.3 -40.9  34190  290.09 0854.49
2009/04/23 13:44:25.4     104     86    -86    136    160  50.5 -39.9  34186  290.02 0854.49
2009/04/23 13:44:25.5     160     63     61    173    184  68.5  19.4  34194  290.14 0854.49
2009/04/23 13:44:25.6     147     76     59    166    176  62.7  20.0  34200  290.25 0854.38
2009/04/23 13:44:25.7     207     29    110    210    237  81.9  30.1  34226  290.69 0854.38
2009/04/23 13:44:25.8     186    -16    118    187    221  95.2  35.5  34218  290.55 0854.38
2009/04/23 13:44:25.9     181     60     74    191    204  71.6  22.0  34204  290.33 0854.38
2009/04/23 13:44:26.0     117     15     71    118    137  82.5  33.5  34210  290.43 0854.38
2009/04/23 13:44:26.1     107     48     78    118    141  65.6  36.5  34210  290.41 0854.38
2009/04/23 13:44:26.2      67     -3     94     68    116  92.6  60.5  34216  290.53 0854.38
2009/04/23 13:44:26.3      83     45     82     95    125  61.6  45.8  34210  290.41 0854.38
2009/04/23 13:44:26.4     121     28     72    125    144  76.8  32.9  34204  290.31 0854.38
2009/04/23 13:44:26.5     146     39     18    152    154  75.0   6.9  34200  290.26 0854.38
2009/04/23 13:44:26.6      61     26     10     67     68  66.5   9.0  34202  290.30 0854.38
2009/04/23 13:44:26.7     150     20     35    152    157  82.1  13.2  34208  290.38 0854.38
2009/04/23 13:44:26.8     146     49     51    155    164  71.4  18.1  34212  290.47 0854.38
2009/04/23 13:44:26.9     143     37     50    148    157  75.4  18.9  34218  290.57 0854.38
2009/04/23 13:44:27.0     175      3     34    176    180  88.7  11.1  34240  290.94 0854.38
2009/04/23 13:44:27.1     172     43     74    178    192  75.8  23.6  34256  291.21 0854.38
2009/04/23 13:44:27.2     181     22     71    183    196  83.0  22.5  34238  290.91 0854.38
2009/04/23 13:44:27.3     195     16     74    196    209  85.0  21.5  34212  290.45 0854.38
2009/04/23 13:44:27.4     170      8     86    171    191  87.2  28.5  34196  290.19 0854.38
2009/04/23 13:44:27.5     174    -35     49    178    185 101.5  15.6  34188  290.06 0854.38
2009/04/23 13:44:27.6     188    -25     65    190    201  97.7  18.9  34188  290.04 0854.43
2009/04/23 13:44:27.7     130    -49    118    140    183 110.8  44.5  34180  289.92 0854.43
2009/04/23 13:44:27.8      63   -233    195    242    310 164.9  43.3  34184  289.98 0854.43
2009/04/23 13:44:27.9      12   -173    204    174    268 176.0  55.4  34188  290.03 0854.43
2009/04/23 13:44:28.0       0   -180    210    181    277 180.0  54.8  34188  290.03 0854.43
2009/04/23 13:44:28.1     -87   -162    196    184    268 208.3  52.1  34188  290.05 0854.43
2009/04/23 13:44:28.2      16   -253    190    254    317 176.2  40.6  34186  290.00 0854.43
2009/04/23 13:44:28.3      41   -275    122    279    304 171.5  25.2  34186  290.00 0854.43
2009/04/23 13:44:28.4       4   -321     79    322    332 179.2  13.9  34190  290.07 0854.43
2009/04/23 13:44:28.5      43   -292    127    296    322 171.5  24.6  34192  290.10 0854.43
2009/04/23 13:44:28.6       0   -268     97    269    287 180.0  19.9  34192  290.12 0854.43
2009/04/23 13:44:28.7     -20   -262     74    263    274 184.4  15.8  34194  290.14 0854.43
2009/04/23 13:44:28.8      34   -257     12    260    261 172.4   2.8  34192  290.12 0854.43
2009/04/23 13:44:28.9     -42   -206    123    211    244 191.5  33.1  34194  290.14 0854.43
2009/04/23 13:44:29.0     -47   -178     50    185    192 194.9  15.3  34194  290.14 0854.43
2009/04/23 13:44:29.1       3   -177     14    178    179 178.9   4.6  34190  290.08 0854.43
2009/04/23 13:44:29.2      -4   -273     17    274    275 180.9   3.6  34190  290.09 0854.43
2009/04/23 13:44:29.3     -31   -365     88    367    378 185.0  13.6  34192  290.11 0854.43
2009/04/23 13:44:29.4     -74   -366     39    374    377 191.5   6.1  34188  290.06 0854.43
2009/04/23 13:44:29.5     -36   -371     80    373    382 185.6  12.1  34192  290.10 0854.43
2009/04/23 13:44:29.6     -32   -360     93    362    374 185.1  14.4  34192  290.13 0854.45
2009/04/23 13:44:29.7     -61   -381    -27    387    388 189.2  -4.0  34192  290.11 0854.45
2009/04/23 13:44:29.8     -46   -367    -43    370    373 187.2  -6.7  34192  290.10 0854.45
2009/04/23 13:44:29.9     -21   -364      6    365    366 183.4   1.0  34192  290.13 0854.45
2009/04/23 13:44:30.0      77   -259    103    271    289 163.5  21.7  34184  289.98 0854.45
2009/04/23 13:44:30.1      13   -353    156    354    386 177.9  25.2  34178  289.89 0854.45
2009/04/23 13:44:30.2    -114   -375    333    393    515 197.0  44.7  34178  289.89 0854.45
2009/04/23 13:44:30.3     -91   -316    257    329    417 196.1  42.0  34178  289.87 0854.45
2009/04/23 13:44:30.4     -72   -267    223    277    355 195.2  43.0  34178  289.87 0854.45
2009/04/23 13:44:30.5    -111   -333    158    352    385 198.5  25.9  34180  289.91 0854.45
2009/04/23 13:44:30.6    -160   -389     31    421    423 202.5   4.2  34176  289.85 0854.45
2009/04/23 13:44:30.7      77   -412      7    420    421 169.4   1.0  34174  289.80 0854.45
2009/04/23 13:44:30.8      33   -435     32    437    439 175.6   4.2  34172  289.77 0854.45
2009/04/23 13:44:30.9     121   -396      5    415    416 163.0   0.7  34178  289.87 0854.45
2009/04/23 13:44:31.0     101   -430    -19    442    443 166.7  -2.5  34182  289.94 0854.45
2009/04/23 13:44:31.1     133   -508   -141    526    545 165.3 -15.0  34178  289.87 0854.45
2009/04/23 13:44:31.2     126   -396    121    416    434 162.3  16.3  34172  289.77 0854.45
2009/04/23 13:44:31.3      16   -273    -13    274    275 176.6  -2.8  34176  289.83 0854.45
2009/04/23 13:44:31.4      85   -316     79    328    338 164.9  13.7  34178  289.86 0854.45
2009/04/23 13:44:31.5      63   -338     -3    344    345 169.4  -0.6  34178  289.86 0854.45
2009/04/23 13:44:31.6     111   -170     76    204    217 146.8  21.3  34172  289.79 0854.45
2009/04/23 13:44:31.7      86   -284    133    297    325 163.1  25.8  34176  289.85 0854.45
2009/04/23 13:44:31.8      85   -259    118    273    297 161.7  24.9  34180  289.90 0854.45
2009/04/23 13:44:31.9      16   -276     43    277    281 176.6   9.0  34176  289.85 0854.45
2009/04/23 13:44:32.0     -70   -159     37    174    179 203.8  12.2  34178  289.89 0854.45
2009/04/23 13:44:32.1    -147    -76     47    166    173 242.5  15.8  34180  289.91 0854.45
2009/04/23 13:44:32.2     -99   -171    143    198    244 210.1  39.3  34180  289.91 0854.45
2009/04/23 13:44:32.3     -59   -218     89    226    242 195.2  22.5  34180  289.92 0854.45
2009/04/23 13:44:32.4    -146   -146     73    207    220 225.1  19.4  34182  289.96 0854.45
2009/04/23 13:44:32.5    -131   -224    117    260    285 210.3  25.9  34178  289.88 0854.45
2009/04/23 13:44:32.6      73   -170    180    186    258 156.6  49.0  34182  289.95 0854.45
2009/04/23 13:44:32.7      62   -235    184    244    305 165.1  40.7  34178  289.86 0854.45
2009/04/23 13:44:32.8      98   -200    176    223    284 153.9  42.4  34180  289.92 0854.45
2009/04/23 13:44:32.9     108   -208    127    235    267 152.6  30.8  34180  289.92 0854.45
2009/04/23 13:44:33.0     172   -183     67    252    261 136.8  15.0  34180  289.90 0854.45
2009/04/23 13:44:33.1      67   -227     15    237    238 163.5   3.8  34182  289.93 0854.45
2009/04/23 13:44:33.2       0   -252    -62    253    261 180.0 -13.9  34180  289.92 0854.45
2009/04/23 13:44:33.3     -26   -243    -84    245    259 186.2 -23.8  34178  289.86 0854.45
2009/04/23 13:44:33.4     -87   -354    -20    365    366 193.8  -3.3  34176  289.84 0854.45
2009/04/23 13:44:33.5    -279   -381   -155    473    498 216.3 -18.2  34172  289.79 0854.45
2009/04/23 13:44:33.6    -425    -44     33    428    430 264.0   4.5  34172  289.77 0854.45
2009/04/23 13:44:33.7    -376   -198    -48    425    428 242.2  -6.5  34168  289.70 0854.45
2009/04/23 13:44:33.8    -288   -247    145    380    406 229.3  22.0  34180  289.91 0854.45
2009/04/23 13:44:33.9    -236   -242     26    339    341 224.3   4.5  34174  289.81 0854.45
2009/04/23 13:44:34.0    -381    -74     -7    389    390 259.0  -1.2  34176  289.84 0854.45
2009/04/23 13:44:34.1    -363    -24     15    364    365 266.1   2.5  34170  289.74 0854.45
2009/04/23 13:44:34.2    -164   -299    145    342    371 208.7  24.3  34174  289.81 0854.45
2009/04/23 13:44:34.3    -162   -271     97    316    331 210.9  17.2  34172  289.76 0854.45
2009/04/23 13:44:34.4    -261   -243    284    357    456 227.1  42.6  34176  289.83 0854.45
2009/04/23 13:44:34.5    -347   -137    192    374    420 248.5  29.3  34180  289.90 0854.45
2009/04/23 13:44:34.6    -305   -138   -184    335    382 245.6 -35.7  34174  289.82 0854.45
2009/04/23 13:44:34.7    -482   -166     64    511    516 250.9   7.2  34178  289.88 0854.45
2009/04/23 13:44:34.8    -386   -197    110    434    448 242.9  14.3  34180  289.92 0854.45
2009/04/23 13:44:34.9    -388   -105    -48    403    406 254.9  -6.9  34176  289.85 0854.45
2009/04/23 13:44:35.0    -165   -441    -18    472    473 200.6  -2.2  34178  289.89 0854.45
2009/04/23 13:44:35.1    -131   -443    -36    463    465 196.5  -4.5  34174  289.80 0854.45
2009/04/23 13:44:35.2    -115   -516     26    529    530 192.6   2.9  34176  289.84 0854.45
2009/04/23 13:44:35.3    -207   -473     72    517    523 203.7   8.0  34176  289.84 0854.45
2009/04/23 13:44:35.4    -174   -357     31    398    400 206.0   4.5  34178  289.86 0854.45
2009/04/23 13:44:35.5    -279   -436    -46    518    521 212.6  -5.1  34172  289.79 0854.49
2009/04/23 13:44:35.6    -238   -541    -18    592    593 203.7  -1.8  34174  289.80 0854.49
2009/04/23 13:44:35.7    -210   -574    -78    612    618 200.1  -7.3  34172  289.77 0854.49
2009/04/23 13:44:35.8    -230   -527   -179    576    604 203.6 -17.3  34176  289.85 0854.49
2009/04/23 13:44:35.9    -156   -154   -173    220    279 225.3 -46.4  34164  289.64 0854.49
2009/04/23 13:44:36.0    -362   -207     81    418    426 240.2  11.0  34174  289.82 0854.49
2009/04/23 13:44:36.1    -227   -149     95    272    288 236.7  20.0  34176  289.85 0854.49
2009/04/23 13:44:36.2     102   -392    -46    406    409 165.3  -6.6  34172  289.77 0854.49
2009/04/23 13:44:36.3     -52   -239    -91    245    261 192.3 -25.7  34176  289.83 0854.49
2009/04/23 13:44:36.4       7   -473    -67    474    479 179.1  -8.1  34172  289.79 0854.49
2009/04/23 13:44:36.5     -92   -259    218    276    351 199.6  42.3  34176  289.83 0854.49
2009/04/23 13:44:36.6     -50   -353    158    357    390 188.1  25.2  34178  289.87 0854.49
2009/04/23 13:44:36.7     187   -493    184    528    560 159.2  19.2  34166  289.67 0854.49
2009/04/23 13:44:36.8       8   -415     21    416    417 178.9   2.9  34164  289.65 0854.49
2009/04/23 13:44:36.9      68   -308     18    316    317 167.5   3.3  34174  289.80 0854.49
2009/04/23 13:44:37.0      -1   -292     46    293    297 180.2   9.0  34170  289.75 0854.49
2009/04/23 13:44:37.1      69   -385    205    392    442 169.8  29.6  34164  289.63 0854.49
2009/04/23 13:44:37.2      76   -389    207    397    447 168.9  29.6  34176  289.83 0854.49
2009/04/23 13:44:37.3    -327   -114   -167    347    385 250.8 -31.7  34166  289.69 0854.49
2009/04/23 13:44:37.4    -297   -141   -134    329    355 244.6 -27.8  34174  289.82 0854.49
2009/04/23 13:44:37.5    -327   -136   -120    355    374 247.4 -23.6  34178  289.87 0854.52
2009/04/23 13:44:37.6    -315   -132   -121    342    363 247.2 -19.5  34182  289.94 0854.52
2009/04/23 13:44:37.7    -310    -69   -100    318    334 257.4 -17.5  34182  289.96 0854.52
2009/04/23 13:44:37.8    -334   -100    -83    349    359 253.2 -13.4  34162  289.59 0854.52
2009/04/23 13:44:37.9    -466   -142   -195    488    525 253.1 -27.4  34182  289.93 0854.52
2009/04/23 13:44:38.0    -407   -110   -123    422    439 254.8 -21.1  34184  289.97 0854.52
2009/04/23 13:44:38.1    -348    -94      9    361    362 254.9   1.5  34182  289.96 0854.52
2009/04/23 13:44:38.2    -525   -123    -98    540    549 256.7 -10.4  34182  289.96 0854.52
2009/04/23 13:44:38.3    -449   -121    -63    466    471 254.9  -7.7  34188  290.05 0854.52
2009/04/23 13:44:38.4    -435   -129    -25    454    455 253.5  -3.2  34184  289.99 0854.52
2009/04/23 13:44:38.5    -376   -172    -37    414    416 245.4  -5.2  34172  289.77 0854.52
2009/04/23 13:44:38.6    -369    -58      0    374    375 261.0   0.1  34180  289.91 0854.52
2009/04/23 13:44:38.7    -348   -122    -61    370    376 250.6  -9.4  34172  289.79 0854.52
2009/04/23 13:44:38.8    -355    -53     22    360    361 261.4   3.5  34182  289.93 0854.52
2009/04/23 13:44:38.9    -350   -152    120    382    401 246.5  17.5  34182  289.96 0854.52
2009/04/23 13:44:39.0    -473     -4    142    474    495 269.5  16.7  34176  289.83 0854.52
2009/04/23 13:44:39.1    -304   -290    239    421    484 226.3  32.3  34172  289.77 0854.52
2009/04/23 13:44:39.2    -275   -285    259    397    474 223.9  36.3  34172  289.77 0854.52
2009/04/23 13:44:39.3    -110   -185    160    216    268 210.7  40.1  34172  289.76 0854.52
2009/04/23 13:44:39.4      43     78    -31     90     96  29.0 -19.1  34182  289.94 0854.52
2009/04/23 13:44:39.5      98    -31   -122    103    159 107.7 -60.0  34178  289.89 0854.53
2009/04/23 13:44:39.6     102   -114   -151    154    215 138.1 -54.2  34178  289.89 0854.53
2009/04/23 13:44:39.7      64    -71   -127     96    159 138.1 -63.6  34180  289.91 0854.53
2009/04/23 13:44:39.8     142   -104   -197    177    264 126.2 -57.9  34176  289.85 0854.53
2009/04/23 13:44:39.9     270    -20   -136    271    303  94.4 -32.9  34176  289.83 0854.53
2009/04/23 13:44:40.0     325     30    -88    327    339  84.7 -15.1  34174  289.81 0854.53
2009/04/23 13:44:40.1     299    115    -86    321    333  68.9 -15.1  34178  289.86 0854.53
2009/04/23 13:44:40.2     231     57      0    238    239  76.1   0.2  34176  289.85 0854.53
2009/04/23 13:44:40.3     223     31    175    226    285  82.0  41.7  34178  289.88 0854.53
2009/04/23 13:44:40.4      92    106    -82    141    163  41.0 -37.3  34178  289.87 0854.53
2009/04/23 13:44:40.5      32     50    -72     60     93  32.5 -60.2  34178  289.89 0854.52
2009/04/23 13:44:40.6       9     43    -12     45     47  12.5 -15.5  34180  289.91 0854.52
2009/04/23 13:44:40.7     -90    -45     82    101    130 243.4  43.7  34174  289.82 0854.52
2009/04/23 13:44:40.8    -143     22     80    145    165 278.8  31.4  34182  289.94 0854.52
2009/04/23 13:44:40.9    -143     44     41    150    156 287.3  15.3  34178  289.89 0854.52
2009/04/23 13:44:41.0    -134     41      7    141    142 287.3   2.9  34180  289.91 0854.52
2009/04/23 13:44:41.1    -190     69      6    203    204 290.0   1.8  34180  289.91 0854.52
2009/04/23 13:44:41.2    -191     31      0    194    195 279.5   0.2  34180  289.92 0854.52
2009/04/23 13:44:41.3    -207     11     78    208    222 273.3  21.5  34178  289.89 0854.52
2009/04/23 13:44:41.4    -162    -70     87    177    197 246.5  28.0  34176  289.85 0854.52
2009/04/23 13:44:41.5    -157    -35     89    162    184 257.2  31.4  34174  289.80 0854.52
2009/04/23 13:44:41.6    -149     72     12    166    167 295.8   4.2  34176  289.85 0854.52
2009/04/23 13:44:41.7    -149     54     28    159    162 289.9  10.1  34180  289.92 0854.52
2009/04/23 13:44:41.8    -116    -32     -4    121    122 254.5  -2.2  34184  289.99 0854.52
2009/04/23 13:44:41.9     -83    -30    -30     89     95 250.0 -18.7  34178  289.87 0854.52
2009/04/23 13:44:42.0     -84    -71    -18    111    113 229.6  -9.3  34178  289.87 0854.52
2009/04/23 13:44:42.1     -83    -54   -100    100    141 236.7 -54.5  34180  289.91 0854.52
2009/04/23 13:44:42.2      10    -42    -30     44     53 166.6 -42.0  34184  289.99 0854.52
2009/04/23 13:44:42.3    -110     -3     14    111    112 268.3   7.5  34182  289.96 0854.52
2009/04/23 13:44:42.4    -196     30    -39    199    203 278.8 -11.3  34182  289.94 0854.52
2009/04/23 13:44:42.5    -287    105    -11    306    307 290.2  -2.2  34176  289.83 0854.54
2009/04/23 13:44:42.6    -363     25     15    364    365 274.0   2.5  34174  289.81 0854.54
2009/04/23 13:44:42.7    -351     65   -102    357    372 280.5 -16.0  34174  289.82 0854.54
2009/04/23 13:44:42.8    -423     97    -12    435    436 283.0  -1.7  34174  289.80 0854.54
2009/04/23 13:44:42.9    -425    125   -118    443    459 286.4 -15.0  34166  289.68 0854.54
2009/04/23 13:44:43.0    -234     98    -27    254    256 292.7  -6.2  34176  289.85 0854.54
2009/04/23 13:44:43.1    -245     51     -2    251    252 281.9  -0.5  34178  289.86 0854.54
2009/04/23 13:44:43.2    -162     17     73    163    178 276.1  25.9  34182  289.96 0854.54
2009/04/23 13:44:43.3    -193     16     30    194    197 274.8   9.0  34182  289.96 0854.54
2009/04/23 13:44:43.4    -199    -23     16    201    202 263.2   4.6  34174  289.80 0854.54
2009/04/23 13:44:43.5    -325    -21    -29    326    328 266.3  -5.2  34182  289.93 0854.54
2009/04/23 13:44:43.6    -379     60   -103    384    398 279.0 -15.1  34172  289.79 0854.54
2009/04/23 13:44:43.7    -424     16   -134    425    445 272.3 -22.6  34168  289.72 0854.54
2009/04/23 13:44:43.8    -315    147    -94    348    361 295.1 -15.2  34180  289.91 0854.54
2009/04/23 13:44:43.9    -259    139    -48    295    300 298.2  -9.3  34178  289.86 0854.54
2009/04/23 13:44:44.0    -274    100    -74    292    302 290.2 -14.3  34178  289.88 0854.54
2009/04/23 13:44:44.1    -250    118    -10    277    278 295.4  -2.2  34178  289.86 0854.54
2009/04/23 13:44:44.2    -351     42    -95    354    367 277.0 -15.0  34172  289.77 0854.54
2009/04/23 13:44:44.3    -371    -32   -112    373    389 265.0 -21.7  34172  289.79 0854.54
2009/04/23 13:44:44.4    -292    -93   -119    307    329 252.3 -26.6  34166  289.68 0854.54
2009/04/23 13:44:44.5    -324    -72    -92    333    345 257.4 -20.0  34168  289.71 0854.52
2009/04/23 13:44:44.6    -299    -60   -270    306    408 258.6 -50.3  34178  289.87 0854.52
2009/04/23 13:44:44.7    -151     11   -207    152    256 274.3 -64.9  34194  290.14 0854.52
2009/04/23 13:44:44.8      35    139   -166    144    219  14.3 -59.0  34186  290.01 0854.52
2009/04/23 13:44:44.9       0    183    -75    184    198 359.8 -27.5  34188  290.04 0854.52
2009/04/23 13:44:45.0      26    153    -72    156    171   9.7 -31.0  34184  289.97 0854.52
2009/04/23 13:44:45.1      14    198   -109    199    226   4.2 -35.7  34174  289.82 0854.52
2009/04/23 13:44:45.2     -66    202    -81    213    227 341.7 -26.1  34186  290.01 0854.52
2009/04/23 13:44:45.3     -90    180    -73    202    214 333.3 -25.1  34182  289.96 0854.52
2009/04/23 13:44:45.4     -85    199   -108    217    242 336.8 -32.9  34170  289.73 0854.52
2009/04/23 13:44:45.5    -103    208   -138    233    270 333.5 -37.9  34172  289.76 0854.52
2009/04/23 13:44:45.6     -17    162   -141    163    215 353.8 -50.0  34174  289.82 0854.52
2009/04/23 13:44:45.7     -49    162   -102    170    198 343.1 -38.1  34180  289.91 0854.52
2009/04/23 13:44:45.8     -19    113   -138    115    179 350.2 -60.7  34192  290.13 0854.52
2009/04/23 13:44:45.9    -106    -56   -113    121    165 242.0 -52.6  34190  290.08 0854.52
2009/04/23 13:44:46.0     -83     74    -61    112    127 311.8 -35.7  34188  290.04 0854.52
2009/04/23 13:44:46.1     -17    -18    -45     25     51 223.4 -73.2  34182  289.96 0854.52
2009/04/23 13:44:46.2     -52      0    -17     53     56 270.0 -18.7  34180  289.92 0854.52
2009/04/23 13:44:46.3     -79     29    -29     85     90 290.4 -19.1  34182  289.94 0854.52
2009/04/23 13:44:46.4    -147     -6    -13    148    149 267.5  -5.2  34182  289.94 0854.52
2009/04/23 13:44:46.5    -168     26     -7    171    172 279.0  -2.6  34176  289.85 0854.55
2009/04/23 13:44:46.6    -221    -19    -12    222    223 265.0  -3.1  34180  289.92 0854.55
2009/04/23 13:44:46.8    -238    -49     -1    244    245 258.3  -0.3  34180  289.92 0854.55
2009/04/23 13:44:46.9    -135     20     37    137    143 278.8  15.2  34182  289.96 0854.55
2009/04/23 13:44:47.0    -172     55    -19    181    183 287.7  -6.2  34178  289.89 0854.55
2009/04/23 13:44:47.0    -113     49    -69    124    141 293.6 -35.8  34182  289.96 0854.55
2009/04/23 13:44:47.2     -80     58    -71     99    121 306.0 -43.9  34184  289.99 0854.55
2009/04/23 13:44:47.3    -147    122     47    192    198 309.6  13.9  34180  289.92 0854.55
2009/04/23 13:44:47.4    -155     55     26    165    168 289.5   9.0  34184  289.97 0854.55
2009/04/23 13:44:47.5    -120    -32    -68    125    142 255.0 -35.7  34178  289.87 0854.55
2009/04/23 13:44:47.6     -37    -17    -41     41     57 244.6 -54.5  34180  289.91 0854.55
2009/04/23 13:44:47.7       5     10    -27     12     29  29.0 -81.5  34184  289.99 0854.55
2009/04/23 13:44:47.8    -118     -3     -2    119    120 268.3  -1.2  34186  290.01 0854.55
2009/04/23 13:44:47.9     -89     26     -3     93     94 286.4  -2.2  34186  290.02 0854.55
2009/04/23 13:44:48.0    -153    -41     81    159    178 254.9  29.3  34180  289.91 0854.55
2009/04/23 13:44:48.1    -203     92     69    224    235 294.4  17.3  34184  289.97 0854.55
2009/04/23 13:44:48.2    -210     49     11    216    217 283.3   2.9  34190  290.09 0854.55
2009/04/23 13:44:48.3    -218    -16    -43    219    224 265.7 -11.1  34190  290.08 0854.55
2009/04/23 13:44:48.4    -237   -182    -65    299    307 232.5 -12.4  34188  290.03 0854.55
2009/04/23 13:44:48.5    -272   -169    -90    321    334 238.2 -15.7  34182  289.94 0854.55
2009/04/23 13:44:48.6    -224   -167    -15    280    281 233.2  -3.1  34184  289.97 0854.55
2009/04/23 13:44:48.7    -172   -151     -9    229    230 228.7  -2.3  34180  289.92 0854.55
2009/04/23 13:44:48.8    -182   -124      3    221    222 235.8   0.8  34180  289.91 0854.55
2009/04/23 13:44:48.9    -161    -82     10    181    182 242.9   3.3  34178  289.87 0854.55
2009/04/23 13:44:49.0    -113     -7     68    114    132 266.1  34.0  34182  289.94 0854.55
2009/04/23 13:44:49.1    -157    -77      0    176    177 243.8   0.2  34178  289.89 0854.55
2009/04/23 13:44:49.2    -105    -92    -18    140    142 228.7  -7.7  34178  289.89 0854.55
2009/04/23 13:44:49.3     -78   -100    -54    127    138 217.9 -28.5  34172  289.79 0854.55
2009/04/23 13:44:49.4    -134    -40    -13    140    141 253.2  -5.6  34176  289.84 0854.55
2009/04/23 13:44:49.5    -147     50      0    156    157 289.1  -0.3  34182  289.96 0854.55
2009/04/23 13:44:49.6    -116    -22    -49    119    128 259.0 -28.0  34180  289.92 0854.55
2009/04/23 13:44:49.7    -125    -86     11    153    154 235.4   4.4  34184  289.99 0854.55
2009/04/23 13:44:49.8    -154    -94     23    181    183 238.5   7.5  34182  289.94 0854.55
2009/04/23 13:44:49.9     -92    -91    -10    130    131 225.1  -4.6  34180  289.91 0854.55
2009/04/23 13:44:50.0    -132    -72     -5    151    152 241.2  -2.2  34180  289.92 0854.55
2009/04/23 13:44:50.1     -88   -119     63    149    161 216.5  24.3  34176  289.84 0854.55
2009/04/23 13:44:50.2     -72    -87     39    114    121 219.7  18.9  34176  289.85 0854.55
2009/04/23 13:44:50.3     -53    -44     55     69     88 230.4  43.7  34180  289.91 0854.55
2009/04/23 13:44:50.4      10    -47     27     49     55 167.5  32.4  34182  289.94 0854.55
2009/04/23 13:44:50.5      63   -107      1    125    126 149.3   0.8  34178  289.87 0854.55
2009/04/23 13:44:50.6     159   -149    -44    218    223 133.1 -11.5  34178  289.89 0854.52
2009/04/23 13:44:50.7     115   -128    -26    173    175 138.1  -8.6  34178  289.87 0854.52
2009/04/23 13:44:50.8     125   -204    -31    240    243 148.4  -7.5  34178  289.86 0854.52
2009/04/23 13:44:50.9      47   -143    -34    151    155 161.7 -12.9  34178  289.87 0854.52
2009/04/23 13:44:51.0     141   -153    -13    209    210 137.2  -3.7  34176  289.85 0854.52
2009/04/23 13:44:51.1     165   -157    -12    228    229 133.6  -3.1  34172  289.77 0854.52
2009/04/23 13:44:51.2     176    -85      8    196    197 116.0   2.3  34176  289.84 0854.52
2009/04/23 13:44:51.3     144   -103      1    178    179 125.5   0.5  34176  289.84 0854.52
2009/04/23 13:44:51.4     145    -91     68    172    184 122.0  22.8  34174  289.82 0854.52
2009/04/23 13:44:51.5     107    -55     70    121    139 117.1  32.4  34180  289.91 0854.52
2009/04/23 13:44:51.6      85    -73     47    113    122 130.9  23.6  34176  289.85 0854.52
2009/04/23 13:44:51.7      96    -53     41    110    117 118.9  21.0  34178  289.89 0854.52
2009/04/23 13:44:51.8       9    -66     19     67     70 172.0  16.3  34178  289.87 0854.52
2009/04/23 13:44:51.9      -8    -59     24     60     64 188.0  23.0  34178  289.89 0854.52
2009/04/23 13:44:52.0       2    -94     51     95    107 178.2  30.3  34176  289.85 0854.52
2009/04/23 13:44:52.1     -36   -103     65    110    127 199.6  33.5  34176  289.85 0854.52
2009/04/23 13:44:52.2     -33   -124     49    129    137 195.2  22.0  34178  289.87 0854.52
2009/04/23 13:44:52.3      -9   -159     29    160    163 183.4  10.3  34174  289.82 0854.52
2009/04/23 13:44:52.4      32   -187     10    190    191 170.2   3.1  34172  289.79 0854.52
2009/04/23 13:44:52.5      14   -147    -25    148    151 174.2  -9.8  34176  289.85 0854.52
2009/04/23 13:44:52.6      32   -177     65    180    191 169.5  20.2  34176  289.85 0854.50
2009/04/23 13:44:52.7      98   -233     95    254    271 157.1  21.0  34176  289.83 0854.50
2009/04/23 13:44:52.8     171   -259     75    311    320 146.6  13.6  34176  289.83 0854.50
2009/04/23 13:44:52.9      92   -274     14    290    291 161.3   2.9  34178  289.88 0854.50
2009/04/23 13:44:53.0      71   -254    -14    264    265 164.2  -3.2  34180  289.90 0854.50
2009/04/23 13:44:53.1      32   -256      0    259    260 172.7   0.0  34178  289.88 0854.50
2009/04/23 13:44:53.2     107   -273     36    294    297 158.6   7.1  34176  289.85 0854.50
2009/04/23 13:44:53.3      96   -276     14    293    294 160.8   2.8  34178  289.86 0854.50
2009/04/23 13:44:53.4      80   -264     33    277    280 163.1   6.9  34172  289.78 0854.50
2009/04/23 13:44:53.5       9   -314    109    315    334 178.2  19.1  34174  289.81 0854.50
2009/04/23 13:44:53.6      70   -335     93    343    356 168.2  15.3  34178  289.87 0854.50
2009/04/23 13:44:53.7      60   -328     59    334    340 169.5  10.1  34178  289.89 0854.50
2009/04/23 13:44:53.8      84   -382    107    392    407 167.5  15.3  34174  289.81 0854.50
2009/04/23 13:44:53.9      66   -353    138    360    385 169.4  22.0  34174  289.81 0854.50
2009/04/23 13:44:54.0      85   -421     34    430    432 168.5   4.6  34176  289.85 0854.50
2009/04/23 13:44:54.1      29   -355     91    357    369 175.3  14.3  34180  289.91 0854.50
2009/04/23 13:44:54.2      31   -291    131    293    320 173.8  25.7  34178  289.86 0854.50
2009/04/23 13:44:54.3      41   -292    149    295    330 172.0  28.9  34178  289.86 0854.50
2009/04/23 13:44:54.4     122   -356     36    377    379 161.0   5.5  34178  289.86 0854.50
2009/04/23 13:44:54.5      96   -316     55    331    336 163.0   9.5  34180  289.91 0854.50
2009/04/23 13:44:54.6     141   -307    119    339    360 155.3  19.4  34184  289.98 0854.48
2009/04/23 13:44:54.7      94   -302    120    317    338 162.6  21.7  34182  289.93 0854.48
2009/04/23 13:44:54.8     110   -275    136    297    326 158.2  26.3  34178  289.86 0854.48
2009/04/23 13:44:54.9      63   -313    125    320    343 168.5  22.5  34176  289.84 0854.48
2009/04/23 13:44:55.0      15   -307    132    308    335 177.1  24.6  34178  289.88 0854.48
2009/04/23 13:44:55.1      12   -277    137    278    309 177.5  28.0  34178  289.88 0854.48
2009/04/23 13:44:55.2     -23   -287    160    289    330 184.7  31.5  34178  289.88 0854.48
2009/04/23 13:44:55.3     -48   -282    123    287    312 189.8  24.6  34180  289.92 0854.48
2009/04/23 13:44:55.4     -23   -249     95    251    268 185.3  21.7  34178  289.86 0854.48
2009/04/23 13:44:55.5     -46   -213     94    219    238 192.3  24.6  34178  289.87 0854.48
2009/04/23 13:44:55.6     -51   -252     91    258    274 191.6  19.6  34178  289.86 0854.48
2009/04/23 13:44:55.7    -101   -247     30    268    270 202.3   6.5  34182  289.95 0854.48
2009/04/23 13:44:55.8     -54   -245     30    251    253 192.5   6.9  34180  289.90 0854.48
2009/04/23 13:44:55.9     -54   -227     88    234    250 193.6  21.5  34180  289.90 0854.48
2009/04/23 13:44:56.0     -56   -230     45    237    242 193.8  10.8  34178  289.88 0854.48
2009/04/23 13:44:56.1     -78   -127    -89    150    174 211.6 -38.1  34180  289.91 0854.48
2009/04/23 13:44:56.2     -85   -167    -93    188    209 207.2 -32.4  34180  289.91 0854.48
2009/04/23 13:44:56.3    -140   -271    -19    306    307 207.4  -3.7  34178  289.88 0854.48
2009/04/23 13:44:56.4    -113   -238    -47    264    269 205.5 -10.3  34178  289.88 0854.48
2009/04/23 13:44:56.5    -113   -221    -65    249    258 207.2 -14.7  34178  289.88 0854.48
2009/04/23 13:44:56.6    -130   -208    -77    246    258 211.9 -17.5  34178  289.86 0854.48
2009/04/23 13:44:56.7     -89   -307      5    320    321 196.3   1.0  34178  289.88 0854.48
2009/04/23 13:44:56.8    -102   -306     -6    323    324 198.5  -1.1  34178  289.88 0854.48
2009/04/23 13:44:56.9     -55   -314    -17    319    320 190.0  -3.2  34178  289.88 0854.48
2009/04/23 13:44:57.0     -58   -278     -8    285    286 191.8  -1.8  34178  289.86 0854.48
2009/04/23 13:44:57.1     -38   -242     47    246    251 188.9  11.0  34178  289.86 0854.48
2009/04/23 13:44:57.2     -18   -240     65    241    250 184.4  15.3  34174  289.81 0854.48
2009/04/23 13:44:57.3     -47   -233     66    238    248 191.6  15.6  34178  289.86 0854.48
2009/04/23 13:44:57.4     -32   -226     55    229    236 188.1  13.5  34178  289.88 0854.48
2009/04/23 13:44:57.5      29   -231     56    233    240 172.7  13.5  34178  289.88 0854.48
2009/04/23 13:44:57.6      14   -247     26    248    250 176.6   6.1  34180  289.90 0854.48
2009/04/23 13:44:57.7      18   -259     81    260    273 176.0  17.3  34178  289.88 0854.48
2009/04/23 13:44:57.8       2   -271     91    272    288 179.5  18.6  34178  289.88 0854.48
2009/04/23 13:44:57.9     -18   -288     73    289    299 183.6  14.2  34178  289.88 0854.48
2009/04/23 13:44:58.0      -4   -248     98    249    267 181.1  22.8  34180  289.92 0854.48
2009/04/23 13:44:58.1       0   -290     90    291    305 180.1  17.3  34178  289.86 0854.48
2009/04/23 13:44:58.2      30   -274     98    276    294 173.7  19.6  34180  289.90 0854.48
2009/04/23 13:44:58.3      78   -287     81    298    309 164.8  15.3  34180  289.90 0854.48
2009/04/23 13:44:58.4     123   -296     96    321    336 157.3  16.7  34178  289.89 0854.48
2009/04/23 13:44:58.5     145   -261    105    299    316 151.0  20.1  34178  289.86 0854.48
2009/04/23 13:44:58.6      52   -258    176    264    317 168.5  36.9  34178  289.86 0854.50
2009/04/23 13:44:58.7      51   -263    110    269    290 168.9  23.4  34180  289.92 0854.50
2009/04/23 13:44:58.8      31   -287    107    289    308 173.7  21.0  34180  289.90 0854.50
2009/04/23 13:44:58.9      25   -277    129    279    307 174.7  27.1  34180  289.90 0854.50
2009/04/23 13:44:59.0      17   -281    133    282    311 176.4  27.1  34178  289.86 0854.50
2009/04/23 13:44:59.1      64   -297    165    304    345 167.7  30.9  34178  289.86 0854.50
2009/04/23 13:44:59.2      75   -301    171    311    354 166.0  31.3  34180  289.91 0854.50
2009/04/23 13:44:59.3      86   -312    224    324    393 164.6  38.0  34178  289.86 0854.50
2009/04/23 13:44:59.4      83   -316    222    327    395 165.2  37.4  34180  289.91 0854.50
2009/04/23 13:44:59.5      85   -297    192    310    364 164.0  34.9  34178  289.86 0854.50
2009/04/23 13:44:59.6     -22   -374    166    375    410 183.4  25.3  34180  289.91 0854.50
2009/04/23 13:44:59.7     130   -388    258    410    484 161.4  35.2  34176  289.85 0854.50
2009/04/23 13:44:59.8      19   -332    216    333    396 176.6  36.2  34172  289.79 0854.50
2009/04/23 13:44:59.9      94   -210    251    231    341 155.9  52.6  34174  289.81 0854.50
2009/04/23 13:45:00.0     263    -75    243    274    366 105.9  46.1  34178  289.87 0854.50
2009/04/23 13:45:00.1     375   -127    195    397    442 108.7  28.1  34180  289.90 0854.50
2009/04/23 13:45:00.2     319    -64     71    326    334 101.4  12.3  34176  289.84 0854.50
2009/04/23 13:45:00.3     193   -209     99    285    302 137.2  19.2  34176  289.83 0854.50
2009/04/23 13:45:00.4     -25   -361     73    362    370 184.1  11.4  34180  289.91 0854.50
2009/04/23 13:45:00.5     -34   -347     18    349    350 185.7   3.0  34182  289.93 0854.50
2009/04/23 13:45:00.6       4   -346     16    347    348 179.3   2.8  34180  289.91 0854.51
2009/04/23 13:45:00.7     -53   -309     -3    314    315 189.8  -0.6  34180  289.90 0854.51
2009/04/23 13:45:00.8     -82   -270    -85    283    296 196.9 -16.8  34182  289.95 0854.51
2009/04/23 13:45:00.9    -149   -235    -77    279    290 212.5 -15.5  34176  289.83 0854.51
2009/04/23 13:45:01.0     -95   -256     52    274    279 200.5  10.8  34178  289.88 0854.51
2009/04/23 13:45:01.1     -11   -205    -56    206    214 183.1 -15.4  34176  289.84 0854.51
2009/04/23 13:45:01.2     147   -181     73    234    246 140.8  17.3  34180  289.92 0854.51
2009/04/23 13:45:01.3     207   -235     -2    314    315 138.6  -0.4  34182  289.93 0854.51
2009/04/23 13:45:01.4     194   -251     74    318    327 142.4  13.2  34180  289.92 0854.51
2009/04/23 13:45:01.5     112   -278    243    300    386 158.1  43.4  34178  289.86 0854.51
2009/04/23 13:45:01.6     117   -204    148    236    278 150.1  35.2  34178  289.86 0854.51
2009/04/23 13:45:01.7     199   -153     76    252    264 127.5  16.8  34182  289.93 0854.51
2009/04/23 13:45:01.8     169   -232    -24    288    290 143.9  -4.9  34180  289.92 0854.51
2009/04/23 13:45:01.9      73   -325     13    334    335 167.2   2.3  34180  289.91 0854.51
2009/04/23 13:45:02.0     173   -255     81    309    320 145.7  14.7  34180  289.92 0854.51
2009/04/23 13:45:02.1     152   -235     33    281    284 147.0   6.9  34178  289.88 0854.51
2009/04/23 13:45:02.2     150   -295     59    331    337 153.0  10.2  34182  289.93 0854.51
2009/04/23 13:45:02.3     142   -287     63    321    328 153.7  11.1  34180  289.90 0854.51
2009/04/23 13:45:02.4     126   -287     88    314    327 156.3  15.7  34182  289.93 0854.51
2009/04/23 13:45:02.5     230   -294     11    374    375 141.9   1.7  34174  289.82 0854.51
2009/04/23 13:45:02.6     193   -422     69    465    471 155.4   8.5  34176  289.84 0854.51
2009/04/23 13:45:02.7     291   -330    138    441    463 138.6  17.4  34180  289.90 0854.51
2009/04/23 13:45:02.8     327   -306    195    449    489 133.1  25.1  34176  289.83 0854.51
2009/04/23 13:45:02.9     318   -463    167    563    588 145.5  16.5  34178  289.88 0854.51
2009/04/23 13:45:03.0      62   -625    139    629    645 174.3  12.5  34178  289.87 0854.51
2009/04/23 13:45:03.1      43   -605    -31    607    608 175.9  -3.0  34174  289.80 0854.51
2009/04/23 13:45:03.2     130   -463   -122    481    497 164.3 -14.3  34180  289.91 0854.51
2009/04/23 13:45:03.3     111   -412   -135    427    448 164.9 -17.6  34180  289.90 0854.51
2009/04/23 13:45:03.4     100   -336    -45    351    354 163.3  -7.3  34178  289.86 0854.51
2009/04/23 13:45:03.5      -5   -363    -24    364    365 180.9  -3.8  34176  289.84 0854.52
2009/04/23 13:45:03.6      50   -360   -101    364    378 172.1 -15.5  34178  289.89 0854.52
2009/04/23 13:45:03.7       0   -456   -143    457    478 180.0 -22.4  34182  289.95 0854.52
2009/04/23 13:45:03.8     -32   -434   -135    436    457 184.3 -17.2  34178  289.88 0854.52
2009/04/23 13:45:03.9     -33   -437    -89    439    448 184.4 -11.5  34182  289.94 0854.52
2009/04/23 13:45:04.0     -35   -455    -92    457    467 184.5 -11.5  34178  289.88 0854.52
2009/04/23 13:45:04.1     -21   -503   -103    504    515 182.5 -11.6  34178  289.86 0854.52
2009/04/23 13:45:04.2     -32   -426    -93    428    439 184.4 -12.3  34180  289.90 0854.52
2009/04/23 13:45:04.3     -61   -439   -123    444    461 187.9 -15.5  34182  289.94 0854.52
2009/04/23 13:45:04.4      18   -649     -4    650    651 178.4  -0.4  34176  289.84 0854.52
2009/04/23 13:45:04.5      44   -580     44    582    584 175.6   4.3  34176  289.85 0854.52
2009/04/23 13:45:04.6       5   -587     65    588    592 179.5   6.4  34176  289.85 0854.52
2009/04/23 13:45:04.7     -64   -639     80    643    648 185.8   7.1  34174  289.81 0854.52
2009/04/23 13:45:04.9     -59   -635     36    638    640 185.3   3.2  34172  289.77 0854.52
2009/04/23 13:45:04.9     -18   -596    -26    597    598 181.8  -2.5  34168  289.71 0854.52
2009/04/23 13:45:05.0      12   -668     -4    669    670 178.9  -0.4  34174  289.80 0854.52
2009/04/23 13:45:05.1     -27   -631      0    632    633 182.5   0.0  34172  289.76 0854.52
2009/04/23 13:45:05.2      39   -548     26    550    551 175.9   2.8  34172  289.77 0854.52
2009/04/23 13:45:05.3     -23   -522     26    523    524 182.6   2.9  34174  289.80 0854.52
2009/04/23 13:45:05.4    -119   -484     65    499    504 193.9   7.4  34178  289.86 0854.52
2009/04/23 13:45:05.5     -92   -419     70    430    436 192.4   9.3  34178  289.88 0854.54
2009/04/23 13:45:05.6     -20   -446     62    447    452 182.7   8.0  34178  289.88 0854.54
2009/04/23 13:45:05.7    -139   -471    -26    492    493 196.5  -3.1  34178  289.86 0854.54
2009/04/23 13:45:05.8      -6   -490    -26    491    492 180.7  -3.1  34178  289.86 0854.54
2009/04/23 13:45:05.9     -44   -451    -12    454    455 185.6  -1.6  34178  289.88 0854.54
2009/04/23 13:45:06.0     -16   -453    136    454    474 182.1  16.7  34178  289.86 0854.54
2009/04/23 13:45:06.1      12   -358    101    359    374 178.0  15.8  34178  289.89 0854.54
2009/04/23 13:45:06.2      20   -260    121    261    287 175.5  27.0  34180  289.90 0854.54
2009/04/23 13:45:06.3       9   -259     98    260    277 178.0  21.7  34180  289.90 0854.54
2009/04/23 13:45:06.4       0   -275    142    276    310 180.0  29.3  34178  289.88 0854.54
2009/04/23 13:45:06.5    -125   -351     71    373    380 199.7  10.8  34182  289.93 0854.54
2009/04/23 13:45:06.6     -67   -412      5    418    419 189.3   0.8  34182  289.95 0854.54
2009/04/23 13:45:06.7     -55   -341    -22    346    347 189.2  -3.7  34180  289.91 0854.54
2009/04/23 13:45:06.8     -11   -286      8    287    288 182.2   1.7  34176  289.83 0854.54
2009/04/23 13:45:06.9     -74   -255    -34    266    269 196.3  -7.3  34176  289.83 0854.54
2009/04/23 13:45:07.0     -47   -229      0    234    235 191.8   0.0  34178  289.86 0854.54
2009/04/23 13:45:07.1       4   -276    -72    277    287 179.0 -14.7  34180  289.92 0854.54
2009/04/23 13:45:07.2      66   -397    -95    403    415 170.6 -13.3  34180  289.90 0854.54
2009/04/23 13:45:07.3     102   -412    -83    425    434 166.0 -11.1  34180  289.92 0854.54
2009/04/23 13:45:07.4     102   -374   -129    388    408 164.7 -23.8  34178  289.87 0854.54
2009/04/23 13:45:07.5      91   -254   -156    270    311 160.2 -37.3  34180  289.92 0854.53
2009/04/23 13:45:07.6      81   -212    -79    227    240 159.1 -24.3  34176  289.85 0854.53
2009/04/23 13:45:07.7     139   -293    -28    325    327 154.6  -5.1  34180  289.90 0854.53
2009/04/23 13:45:07.8      83   -316    -68    327    335 165.2 -11.8  34178  289.87 0854.53
2009/04/23 13:45:07.9      63   -261    -69    269    278 166.4 -14.5  34178  289.88 0854.53
2009/04/23 13:45:08.0     140   -236    -98    275    293 149.3 -19.7  34180  289.90 0854.53
2009/04/23 13:45:08.1     193   -296     -6    354    355 146.8  -1.1  34178  289.86 0854.53
2009/04/23 13:45:08.2     166   -359     12    396    397 155.2   1.8  34182  289.93 0854.53
2009/04/23 13:45:08.3     179   -397     43    436    439 155.7   5.7  34180  289.92 0854.53
2009/04/23 13:45:08.4     211   -384     28    439    440 151.2   3.7  34178  289.88 0854.53
2009/04/23 13:45:08.5     150   -375     12    405    406 158.2   1.7  34176  289.83 0854.53
2009/04/23 13:45:08.6     258   -348    110    434    448 143.5  14.3  34180  289.92 0854.53
2009/04/23 13:45:08.7     286   -226     57    365    370 128.3   8.9  34172  289.77 0854.53
2009/04/23 13:45:08.8     299   -165     80    342    352 118.9  13.2  34166  289.69 0854.53
2009/04/23 13:45:08.9     128   -258     75    289    299 153.5  14.7  34174  289.81 0854.53
2009/04/23 13:45:09.0     103   -394    105    408    422 165.3  14.5  34180  289.90 0854.53
2009/04/23 13:45:09.1      87   -363    183    374    416 166.4  28.0  34176  289.83 0854.53
2009/04/23 13:45:09.2    -105   -393     45    407    410 195.1   6.4  34178  289.88 0854.53
2009/04/23 13:45:09.3     -62   -400    -34    405    407 188.9  -4.8  34182  289.94 0854.53
2009/04/23 13:45:09.4     -30   -175     79    178    194 189.8  25.7  34176  289.84 0854.53
2009/04/23 13:45:09.5      10   -342     65    343    350 178.3  10.8  34180  289.91 0854.54
2009/04/23 13:45:09.6       9   -328    121    329    350 178.4  21.0  34182  289.94 0854.54
2009/04/23 13:45:09.7    -100   -353     28    368    370 195.9   4.5  34178  289.89 0854.54
2009/04/23 13:45:09.8     -51   -360     51    364    368 188.1   8.1  34178  289.89 0854.54
2009/04/23 13:45:09.9     -90   -373     -7    384    385 193.6  -1.2  34180  289.91 0854.54
2009/04/23 13:45:10.0    -177   -500    -48    531    534 199.5  -5.2  34180  289.92 0854.54
2009/04/23 13:45:10.1    -319   -499    -80    593    599 212.6  -7.7  34178  289.86 0854.54
2009/04/23 13:45:10.2    -324   -424    -91    534    542 217.4  -9.7  34180  289.90 0854.54
2009/04/23 13:45:10.3    -298   -423    -69    518    523 215.2  -7.7  34182  289.94 0854.54
2009/04/23 13:45:10.4    -321   -521   -124    613    626 211.6 -11.5  34180  289.92 0854.54
2009/04/23 13:45:10.5    -315   -511   -172    601    626 211.6 -16.0  34178  289.89 0854.54
2009/04/23 13:45:10.6    -288   -493    -59    571    575 210.3  -6.0  34180  289.90 0854.54
2009/04/23 13:45:10.7    -273   -486    -49    558    561 209.3  -5.1  34182  289.94 0854.54
2009/04/23 13:45:10.8    -216   -566    -44    607    609 200.9  -4.2  34180  289.90 0854.54
2009/04/23 13:45:10.9    -279   -652    -69    710    714 203.2  -5.6  34176  289.83 0854.54
2009/04/23 13:45:11.0    -289   -580     80    648    654 206.5   7.1  34172  289.79 0854.54
2009/04/23 13:45:11.1    -362   -469     -7    593    594 217.7  -0.7  34178  289.86 0854.54
2009/04/23 13:45:11.2    -447   -419    -94    613    621 226.9  -8.7  34180  289.92 0854.54
2009/04/23 13:45:11.3    -422   -401    -56    583    586 226.5  -5.6  34180  289.90 0854.54
2009/04/23 13:45:11.4    -353   -391   -104    528    539 222.1 -11.2  34180  289.90 0854.54
2009/04/23 13:45:11.5    -321   -392    -49    508    511 219.3  -5.6  34182  289.96 0854.52
2009/04/23 13:45:11.6    -303   -377   -101    484    495 218.8 -11.9  34180  289.91 0854.52
2009/04/23 13:45:11.7    -299   -245   -177    387    425 230.7 -30.7  34182  289.94 0854.52
2009/04/23 13:45:11.8    -152   -302    -70    339    347 206.8 -11.8  34184  289.98 0854.52
2009/04/23 13:45:11.9     -95   -264    -85    281    293 199.8 -21.8  34180  289.92 0854.52
2009/04/23 13:45:12.0    -141   -303    -44    335    338 205.0  -7.6  34178  289.89 0854.52
2009/04/23 13:45:12.1     -65   -316    -17    323    324 191.8  -3.0  34180  289.90 0854.52
2009/04/23 13:45:12.2     -24   -284    -18    286    287 184.9  -3.7  34182  289.95 0854.52
2009/04/23 13:45:12.3     -69   -289      1    298    299 193.4   0.2  34182  289.95 0854.52
2009/04/23 13:45:12.4     -75   -297    -62    307    314 194.3 -11.5  34182  289.95 0854.52
2009/04/23 13:45:12.5    -107   -224     18    249    250 205.5   4.2  34180  289.92 0854.52
2009/04/23 13:45:12.6     -34   -200     -4    203    204 189.7  -1.3  34182  289.94 0854.52
2009/04/23 13:45:12.7      64   -199     10    210    211 162.0   2.9  34178  289.89 0854.52
2009/04/23 13:45:12.9     100   -228    -81    250    262 156.3 -23.0  34182  289.95 0854.52
2009/04/23 13:45:12.9     126   -198    -76    235    248 147.5 -18.1  34182  289.95 0854.52
2009/04/23 13:45:13.0     150   -235   -140    280    313 147.4 -33.0  34182  289.95 0854.52
2009/04/23 13:45:13.1      94   -272   -181    289    341 160.8 -39.6  34182  289.95 0854.52
2009/04/23 13:45:13.2     175   -360   -115    401    417 154.0 -20.7  34182  289.95 0854.52
2009/04/23 13:45:13.3     170   -331   -117    373    390 152.8 -22.5  34180  289.91 0854.52
2009/04/23 13:45:13.5     161   -245    -95    294    310 146.6 -18.0  34180  289.90 0854.52
2009/04/23 13:45:13.6     159   -226    -82    277    288 144.9 -21.7  34182  289.95 0854.53
2009/04/23 13:45:13.7     175   -214    -87    277    291 140.6 -17.5  34182  289.95 0854.53
2009/04/23 13:45:13.8     151   -236    -56    281    287 147.3 -11.3  34182  289.95 0854.53
2009/04/23 13:45:13.9     146   -219     -2    264    265 146.2  -0.5  34182  289.93 0854.53
2009/04/23 13:45:14.0     149   -251    -37    293    296 149.3  -7.3  34180  289.90 0854.53
2009/04/23 13:45:14.1     161   -280      0    324    325 150.1   0.0  34180  289.90 0854.53
2009/04/23 13:45:14.2      75   -269    -91    280    294 164.4 -23.0  34174  289.80 0854.53
2009/04/23 13:45:14.3     147   -276     15    313    314 151.9   2.8  34178  289.88 0854.53
2009/04/23 13:45:14.4     129   -254    -13    286    287 153.0  -2.8  34180  289.90 0854.53
2009/04/23 13:45:14.5     126   -245    -42    276    280 152.8  -8.8  34178  289.86 0854.53
2009/04/23 13:45:14.6     117   -240    -31    268    270 153.9  -6.7  34180  289.90 0854.53
2009/04/23 13:45:14.7     130   -197    -65    237    246 146.6 -15.4  34178  289.88 0854.53
2009/04/23 13:45:14.8     118   -168    -21    206    208 144.8  -6.0  34178  289.87 0854.53
2009/04/23 13:45:14.9     126   -206    -52    242    248 148.4 -12.2  34180  289.90 0854.53
2009/04/23 13:45:15.0     123   -247    -50    277    282 153.5 -10.4  34180  289.90 0854.53
2009/04/23 13:45:15.1     120   -274    -77    300    310 156.4 -14.4  34180  289.92 0854.53
2009/04/23 13:45:15.2      84   -256    -36    270    273 161.7  -7.7  34182  289.95 0854.53
2009/04/23 13:45:15.3     114   -241    -82    267    279 154.6 -21.8  34180  289.90 0854.53
2009/04/23 13:45:15.4     148   -298   -117    333    352 153.6 -24.7  34174  289.81 0854.53
2009/04/23 13:45:15.5     110   -245   -167    269    316 155.7 -39.3  34172  289.76 0854.53
2009/04/23 13:45:15.6     153   -257   -170    300    344 149.2 -36.5  34172  289.77 0854.52
2009/04/23 13:45:15.7      76   -228    -76    241    253 161.5 -17.6  34176  289.83 0854.52
2009/04/23 13:45:15.8     121   -209      0    242    243 149.9   0.2  34176  289.83 0854.52
2009/04/23 13:45:15.9      80   -130     31    153    157 148.4  11.6  34180  289.91 0854.52
2009/04/23 13:45:16.0      68   -107     -2    128    129 147.5  -1.2  34174  289.82 0854.52
2009/04/23 13:45:16.1      72    -70    -37    101    107 134.0 -24.8  34176  289.85 0854.52
2009/04/23 13:45:16.2      74   -105    -82    129    152 144.8 -39.9  34176  289.85 0854.52
2009/04/23 13:45:16.3      93   -120    -67    153    167 142.2 -29.7  34176  289.84 0854.52
2009/04/23 13:45:16.4     119   -116    -79    167    184 134.4 -31.6  34176  289.85 0854.52
2009/04/23 13:45:16.5     126   -104    -81    164    182 129.5 -32.4  34176  289.84 0854.52
2009/04/23 13:45:16.6     164    -13    -53    165    174  94.6 -18.1  34176  289.85 0854.52
2009/04/23 13:45:16.7     130    -18    -21    132    134  98.0  -9.4  34176  289.84 0854.52
2009/04/23 13:45:16.8      99    -93    -62    137    150 133.1 -30.6  34176  289.84 0854.52
2009/04/23 13:45:16.9      41   -125    -58    132    144 161.7 -29.6  34178  289.89 0854.52
2009/04/23 13:45:17.0      35   -154    -20    159    161 167.1  -7.2  34174  289.82 0854.52
2009/04/23 13:45:17.1      72   -133      3    152    153 151.5   1.2  34178  289.87 0854.52
2009/04/23 13:45:17.2     116   -151     57    191    200 142.6  16.6  34174  289.80 0854.52
2009/04/23 13:45:17.3      79   -218     51    233    239 159.9  12.4  34174  289.81 0854.52
2009/04/23 13:45:17.4     114   -232     40    259    263 153.7   8.9  34182  289.93 0854.52
2009/04/23 13:45:17.5     155   -235     46    282    286 146.6   9.3  34174  289.81 0854.52
2009/04/23 13:45:17.6     125   -273     37    301    304 155.3   7.1  34180  289.90 0854.52
2009/04/23 13:45:17.7     123   -280    102    306    323 156.3  18.4  34180  289.90 0854.52
2009/04/23 13:45:17.8     118   -334    139    355    381 160.5  22.7  34178  289.86 0854.52
2009/04/23 13:45:17.9      34   -353    130    355    378 174.4  21.0  34178  289.87 0854.52
2009/04/23 13:45:18.0     -20   -380     97    381    394 183.0  14.3  34174  289.81 0854.52
2009/04/23 13:45:18.1      63   -373     33    379    381 170.3   5.1  34178  289.89 0854.52
2009/04/23 13:45:18.2      79   -388     69    397    404 168.4   9.9  34166  289.69 0854.52
2009/04/23 13:45:18.3      22   -372     83    373    383 176.5  12.6  34174  289.82 0854.52
2009/04/23 13:45:18.4       0   -443    126    444    462 179.9  15.9  34182  289.94 0854.52
2009/04/23 13:45:18.5      50   -402    206    406    455 172.8  29.2  34190  290.09 0854.52
2009/04/23 13:45:18.6      52   -455    130    459    478 173.4  15.8  34178  289.88 0854.52
2009/04/23 13:45:18.7      51   -518      1    521    522 174.3   0.2  34176  289.85 0854.52
2009/04/23 13:45:18.8      77   -613      7    618    619 172.8   0.7  34180  289.91 0854.52
2009/04/23 13:45:18.9     121   -510     72    525    530 166.6   7.9  34176  289.84 0854.52
2009/04/23 13:45:19.0     178   -503    116    534    547 160.4  12.3  34174  289.82 0854.52
2009/04/23 13:45:19.1     158   -476    186    502    535 161.6  21.3  34178  289.89 0854.52
2009/04/23 13:45:19.2      42   -557    163    559    583 175.6  16.3  34178  289.86 0854.52
2009/04/23 13:45:19.3      36   -533    109    535    547 176.1  11.6  34174  289.82 0854.52
2009/04/23 13:45:19.4     -93   -516     58    525    529 190.3   6.4  34176  289.84 0854.52
2009/04/23 13:45:19.5     -19   -510    -19    511    512 182.2  -2.2  34178  289.86 0854.52
2009/04/23 13:45:19.6    -126   -532      0    547    548 193.4   0.1  34180  289.90 0854.54
2009/04/23 13:45:19.7     -96   -471    -85    481    489 191.6 -10.1  34172  289.78 0854.54
2009/04/23 13:45:19.8    -153   -439    -41    466    468 199.3  -5.1  34182  289.95 0854.54
2009/04/23 13:45:19.9    -229   -501     51    552    555 204.6   5.3  34170  289.74 0854.54
2009/04/23 13:45:20.0    -188   -454    100    492    503 202.5  11.6  34178  289.88 0854.54
2009/04/23 13:45:20.1    -144   -446     95    469    479 197.9  11.6  34178  289.88 0854.54
2009/04/23 13:45:20.2    -203   -457     88    501    509 204.0  10.0  34178  289.89 0854.54
2009/04/23 13:45:20.3    -225   -473     52    525    528 205.5   5.7  34172  289.77 0854.54
2009/04/23 13:45:20.4    -268   -435    -54    511    514 211.6  -6.1  34172  289.76 0854.54
2009/04/23 13:45:20.5    -210   -403   -153    455    481 207.5 -18.6  34172  289.79 0854.54
2009/04/23 13:45:20.6    -201   -329   -175    386    423 211.5 -30.6  34172  289.78 0854.54
2009/04/23 13:45:20.7    -248   -315   -170    402    436 218.2 -28.6  34168  289.72 0854.54
2009/04/23 13:45:20.8    -294   -424    -80    517    524 214.8  -8.8  34172  289.79 0854.54
2009/04/23 13:45:20.9    -142   -427   -133    450    469 198.4 -21.2  34176  289.83 0854.54
2009/04/23 13:45:21.0    -112   -423    -92    438    448 194.9 -11.9  34176  289.85 0854.54
2009/04/23 13:45:21.1    -101   -390    -63    403    408 194.6  -8.9  34176  289.83 0854.54
2009/04/23 13:45:21.2       8   -277    -99    278    296 178.2 -19.7  34174  289.81 0854.54
2009/04/23 13:45:21.3      -3   -307     26    308    310 180.7   4.9  34176  289.85 0854.54
2009/04/23 13:45:21.4    -105   -324     54    341    346 198.1   9.0  34174  289.81 0854.54
2009/04/23 13:45:21.5     -61   -356     80    362    371 189.7  12.6  34174  289.82 0854.54
2009/04/23 13:45:21.6     -45   -362    121    365    385 187.1  18.4  34176  289.84 0854.51
2009/04/23 13:45:21.7      53   -424    155    428    455 172.8  20.9  34174  289.80 0854.51
2009/04/23 13:45:21.8     108   -461    164    474    502 166.8  19.2  34176  289.83 0854.51
2009/04/23 13:45:21.9     112   -475    162    488    515 166.7  18.4  34182  289.95 0854.51
2009/04/23 13:45:22.0     194   -565    180    598    625 161.0  16.8  34180  289.91 0854.51
2009/04/23 13:45:22.1     101   -480    192    491    527 168.1  22.5  34186  290.00 0854.51
2009/04/23 13:45:22.2      63   -509    259    513    574 172.9  28.9  34182  289.96 0854.51
2009/04/23 13:45:22.3     183   -579    351    608    702 162.5  32.6  34180  289.90 0854.51
2009/04/23 13:45:22.4     266   -625    223    680    716 157.0  18.2  34182  289.93 0854.51
2009/04/23 13:45:22.5      77   -684    260    689    736 173.5  21.7  34174  289.81 0854.51
2009/04/23 13:45:22.6     -10   -704    171    705    726 180.9  13.7  34176  289.83 0854.47
2009/04/23 13:45:22.7     120   -710    107    721    730 170.4   8.5  34172  289.78 0854.47
2009/04/23 13:45:22.8     181   -563    -55    592    595 162.2  -5.4  34174  289.80 0854.47
2009/04/23 13:45:22.9     145   -479     14    501    502 163.1   1.7  34170  289.74 0854.47
2009/04/23 13:45:23.0      72   -462    -21    468    469 171.1  -2.6  34172  289.76 0854.47
2009/04/23 13:45:23.1      51   -514    -56    517    521 174.3  -6.2  34172  289.79 0854.47
2009/04/23 13:45:23.2      22   -494    -82    495    502 177.4  -9.5  34172  289.79 0854.47
2009/04/23 13:45:23.3    -117   -465    -55    480    484 194.2  -6.6  34176  289.83 0854.47
2009/04/23 13:45:23.4    -163   -388   -119    422    438 202.8 -20.5  34172  289.77 0854.47
2009/04/23 13:45:23.5    -233   -409   -140    471    492 209.7 -16.6  34168  289.71 0854.47
2009/04/23 13:45:23.6    -150   -373   -166    403    435 201.9 -28.1  34172  289.78 0854.47
2009/04/23 13:45:23.7    -227   -369   -149    434    458 211.6 -23.8  34170  289.75 0854.47
2009/04/23 13:45:23.8    -146   -375   -130    403    423 201.3 -23.0  34174  289.80 0854.47
2009/04/23 13:45:23.9    -126   -469    -86    486    494 195.1 -10.1  34172  289.78 0854.47
2009/04/23 13:45:24.0     130   -507     11    524    525 165.6   1.2  34172  289.77 0854.47
2009/04/23 13:45:24.1       2   -503     57    504    508 179.7   6.5  34172  289.78 0854.47
2009/04/23 13:45:24.2      28   -614   -132    615    630 177.3 -12.2  34174  289.82 0854.47
2009/04/23 13:45:24.3      30   -560   -154    561    582 176.9 -15.4  34174  289.81 0854.47
2009/04/23 13:45:24.4      64   -578    -89    582    589 173.7  -8.7  34172  289.76 0854.47
2009/04/23 13:45:24.5     -57   -615   -120    618    630 185.3 -11.0  34174  289.82 0854.47
2009/04/23 13:45:24.6     -39   -637    -73    639    644 183.5  -6.6  34172  289.77 0854.41
2009/04/23 13:45:24.7     -65   -659   -153    663    681 185.7 -13.0  34174  289.82 0854.41
2009/04/23 13:45:24.8     -76   -699   -183    704    728 186.3 -14.6  34172  289.79 0854.41
2009/04/23 13:45:24.9     -85   -668   -189    674    701 187.3 -15.7  34172  289.78 0854.41
2009/04/23 13:45:25.0    -147   -484    -84    507    515 196.9  -9.5  34168  289.71 0854.41
2009/04/23 13:45:25.1    -113   -518    -42    531    533 192.4  -4.6  34176  289.84 0854.41
2009/04/23 13:45:25.2     143   -528   -108    548    559 164.9 -11.2  34176  289.84 0854.41
2009/04/23 13:45:25.3     107   -480   -166    492    520 167.4 -18.7  34166  289.69 0854.41
2009/04/23 13:45:25.4      80   -464    -98    471    482 170.2 -11.8  34170  289.74 0854.41
2009/04/23 13:45:25.5     -38   -388     -8    390    391 185.7  -1.3  34178  289.87 0854.41
2009/04/23 13:45:25.6      -9   -348     55    349    354 181.5   9.0  34174  289.82 0854.41
2009/04/23 13:45:25.7     -23   -332     -8    333    334 184.0  -1.4  34174  289.81 0854.41
2009/04/23 13:45:25.8     -75   -295    -38    305    308 194.3  -7.2  34172  289.76 0854.41
2009/04/23 13:45:25.9     -17   -379    -70    380    387 182.7 -10.5  34176  289.84 0854.41
2009/04/23 13:45:26.0    -113   -258    -77    282    293 203.7 -15.4  34172  289.78 0854.41
2009/04/23 13:45:26.1       3   -221    100    222    243 179.1  26.2  34166  289.68 0854.41
2009/04/23 13:45:26.2      57   -258     92    265    281 167.5  19.2  34182  289.93 0854.41
2009/04/23 13:45:26.3      73   -219    141    231    270 161.5  34.5  34182  289.93 0854.41
2009/04/23 13:45:26.4      71   -346    202    354    407 168.3  32.3  34180  289.91 0854.41
2009/04/23 13:45:26.5      76   -327    107    336    353 166.9  17.7  34180  289.91 0854.41
2009/04/23 13:45:26.6      30   -187     84    190    207 170.7  25.3  34174  289.82 0854.40
2009/04/23 13:45:26.7      19   -247    123    248    276 175.5  28.2  34180  289.92 0854.40
2009/04/23 13:45:26.8     141   -141     82    200    216 135.1  23.4  34172  289.79 0854.40
2009/04/23 13:45:26.9     107   -236    143    260    296 155.5  31.3  34176  289.85 0854.40
2009/04/23 13:45:27.0      24   -220    125    222    254 173.8  31.6  34178  289.86 0854.40
2009/04/23 13:45:27.1     -27   -217     87    219    235 187.3  23.0  34180  289.91 0854.40
2009/04/23 13:45:27.2      13   -181    170    182    249 175.8  48.0  34180  289.91 0854.40
2009/04/23 13:45:27.3     -34   -226    139    229    267 188.7  34.4  34184  289.97 0854.40
2009/04/23 13:45:27.4      10   -138    135    139    193 175.5  49.4  34182  289.94 0854.40
2009/04/23 13:45:27.5     -37   -291    102    294    312 187.3  19.2  34178  289.86 0854.40
2009/04/23 13:45:27.6     -19   -312     96    313    328 183.6  17.0  34178  289.86 0854.40
2009/04/23 13:45:27.7     -87   -272    127    286    312 197.8  25.3  34182  289.93 0854.40
2009/04/23 13:45:27.8     -12   -163    165    164    232 184.2  50.1  34180  289.92 0854.40
2009/04/23 13:45:27.9      18   -187    155    188    243 174.4  43.7  34180  289.91 0854.40
2009/04/23 13:45:28.0      15   -170    156    171    231 174.9  47.5  34178  289.89 0854.40
2009/04/23 13:45:28.1     -21   -241    156    242    287 185.1  35.6  34180  289.90 0854.40
2009/04/23 13:45:28.2       7   -227    140    228    267 178.2  34.5  34180  289.92 0854.40
2009/04/23 13:45:28.3      63   -235    164    244    293 164.8  37.4  34178  289.88 0854.40
2009/04/23 13:45:28.4       5   -296    164    297    339 178.9  31.4  34180  289.92 0854.40
2009/04/23 13:45:28.5       0   -301    123    302    326 180.0  23.5  34178  289.88 0854.41
2009/04/23 13:45:28.6      49   -239     85    245    260 168.4  19.2  34182  289.95 0854.41
2009/04/23 13:45:28.7      79   -221     69    235    245 160.2  16.4  34180  289.90 0854.41
2009/04/23 13:45:28.8      74   -223     83    236    250 161.5  20.0  34178  289.86 0854.41
2009/04/23 13:45:28.9      69   -298    114    306    326 166.9  21.4  34180  289.92 0854.41
2009/04/23 13:45:29.0     115   -340     87    360    371 161.3  13.7  34178  289.89 0854.41
2009/04/23 13:45:29.1     125   -311    101    336    351 158.1  16.8  34178  289.89 0854.41
2009/04/23 13:45:29.2     124   -284     86    311    323 156.4  15.6  34176  289.85 0854.41
2009/04/23 13:45:29.3     202   -282     75    348    357 144.4  12.3  34180  289.91 0854.41
2009/04/23 13:45:29.4     151   -277    -60    316    322 151.3 -10.8  34182  289.93 0854.41
2009/04/23 13:45:29.5     128   -196     60    235    243 146.8  14.5  34176  289.83 0854.41
2009/04/23 13:45:29.6      96   -202     14    224    225 154.5   3.8  34180  289.92 0854.41
2009/04/23 13:45:29.7      48   -201    -90    207    225 166.6 -29.5  34182  289.94 0854.41
2009/04/23 13:45:29.8      38   -248    -84    252    265 171.1 -23.6  34186  290.00 0854.41
2009/04/23 13:45:29.9      66   -218    -77    228    241 163.1 -18.7  34184  289.98 0854.41
2009/04/23 13:45:30.0     125   -237    -78    269    280 152.1 -21.0  34186  290.00 0854.41
2009/04/23 13:45:30.1     195   -223    -89    297    311 138.8 -16.7  34182  289.93 0854.41
2009/04/23 13:45:30.2     217   -185     37    286    289 130.5   7.5  34180  289.90 0854.41
2009/04/23 13:45:30.3     221   -128     -4    256    257 120.0  -1.1  34180  289.90 0854.41
2009/04/23 13:45:30.4     204    -93     39    225    229 114.6   9.9  34180  289.91 0854.41
2009/04/23 13:45:30.5     165    -68     43    179    185 112.4  13.7  34182  289.94 0854.41
2009/04/23 13:45:30.6     156    -63     59    169    180 112.2  19.4  34186  290.02 0854.41
2009/04/23 13:45:30.7     124    -97    100    158    186 128.2  35.5  34184  289.99 0854.41
2009/04/23 13:45:30.8      71   -176     84    191    208 157.9  25.1  34184  289.99 0854.41
2009/04/23 13:45:30.9     143   -124     99    190    214 131.1  29.5  34186  290.01 0854.41
2009/04/23 13:45:31.0     156   -141    109    211    237 132.0  29.5  34184  289.97 0854.41
2009/04/23 13:45:31.1     159   -135     63    209    219 130.4  16.8  34184  289.97 0854.41
2009/04/23 13:45:31.2     133   -116     51    177    185 131.3  16.0  34182  289.96 0854.41
2009/04/23 13:45:31.3     168    -76     54    185    193 114.4  16.3  34180  289.91 0854.41
2009/04/23 13:45:31.4     124   -123     48    175    182 134.7  15.3  34180  289.92 0854.41
2009/04/23 13:45:31.5      47   -141     68    149    163 161.3  25.9  34178  289.89 0854.41
2009/04/23 13:45:31.6      -2   -122     92    123    153 181.0  40.1  34184  289.97 0854.41
2009/04/23 13:45:31.7     -17   -177    109    178    208 185.8  34.4  34180  289.91 0854.41
2009/04/23 13:45:31.8      84   -176    109    196    224 154.5  31.4  34178  289.89 0854.41
2009/04/23 13:45:31.9     114   -192    126    224    257 149.3  31.9  34180  289.92 0854.41
2009/04/23 13:45:32.0     142   -190    157    238    285 143.3  36.5  34178  289.88 0854.41
2009/04/23 13:45:32.1     159   -198     83    255    269 141.3  18.1  34182  289.93 0854.41
2009/04/23 13:45:32.2     209   -274     38    345    348 142.6   6.4  34182  289.93 0854.41
2009/04/23 13:45:32.3     261   -310     33    406    408 139.9   4.7  34174  289.82 0854.41
2009/04/23 13:45:32.4     191   -297     46    354    357 147.3   7.4  34182  289.93 0854.41
2009/04/23 13:45:32.5     254   -297     54    392    396 139.5   7.9  34182  289.93 0854.43
2009/04/23 13:45:32.6     260   -275     12    379    380 136.6   1.9  34178  289.89 0854.43
2009/04/23 13:45:32.7     248   -243      2    348    349 134.3   0.4  34178  289.89 0854.43
2009/04/23 13:45:32.8     142   -320     20    351    352 156.1   3.3  34178  289.87 0854.43
2009/04/23 13:45:32.9     143   -300     74    333    342 154.5  12.5  34182  289.93 0854.43
2009/04/23 13:45:33.0     122   -339    103    361    376 160.2  15.9  34178  289.87 0854.43
2009/04/23 13:45:33.1      60   -282    100    289    307 168.0  19.2  34180  289.90 0854.43
2009/04/23 13:45:33.2     154   -291     75    330    339 152.0  12.9  34178  289.89 0854.43
2009/04/23 13:45:33.3     167   -360     86    397    407 155.1  12.3  34180  289.92 0854.43
2009/04/23 13:45:33.4     107   -366     85    382    392 163.6  12.6  34178  289.89 0854.43
2009/04/23 13:45:33.5      25   -370    -14    371    372 176.0  -2.2  34180  289.91 0854.43
2009/04/23 13:45:33.6       6   -391     22    392    393 179.0   3.2  34182  289.96 0854.43
2009/04/23 13:45:33.7     -69   -500      4    505    506 187.9   0.5  34182  289.93 0854.43
2009/04/23 13:45:33.8     -71   -552     18    557    558 187.4   1.9  34180  289.92 0854.43
2009/04/23 13:45:33.9     -84   -491     33    499    501 189.7   3.8  34180  289.91 0854.43
2009/04/23 13:45:34.0    -156   -568    -57    590    593 195.4  -5.6  34180  289.91 0854.43
2009/04/23 13:45:34.1     -55   -551    -59    554    558 185.8  -6.1  34182  289.94 0854.43
2009/04/23 13:45:34.2     -68   -551   -122    556    570 187.1 -12.4  34174  289.80 0854.43
2009/04/23 13:45:34.3     -97   -538   -108    547    558 190.3 -11.2  34180  289.92 0854.43
2009/04/23 13:45:34.4     -82   -503    -27    510    511 189.3  -3.1  34178  289.86 0854.43
2009/04/23 13:45:34.5    -121   -451     -9    467    468 195.1  -1.2  34180  289.91 0854.45
2009/04/23 13:45:34.6     -53   -517     34    520    522 185.9   3.8  34182  289.96 0854.45
2009/04/23 13:45:34.7     -99   -574     51    583    586 189.8   5.1  34182  289.95 0854.45
2009/04/23 13:45:34.8      26   -570    -48    571    574 177.3  -4.9  34184  289.97 0854.45
2009/04/23 13:45:34.9      66   -490    -72    495    501 172.3  -8.4  34182  289.95 0854.45
2009/04/23 13:45:35.0     170   -608    -48    632    634 164.3  -4.4  34172  289.77 0854.45
2009/04/23 13:45:35.1     151   -413    -57    440    444 159.9  -7.5  34178  289.87 0854.45
2009/04/23 13:45:35.2     198   -358     51    410    414 151.0   7.1  34182  289.94 0854.45
2009/04/23 13:45:35.3     148   -310     38    344    347 154.5   6.4  34184  289.99 0854.45
2009/04/23 13:45:35.4     168   -262    108    312    331 147.4  19.2  34182  289.95 0854.45
2009/04/23 13:45:35.5     226   -367    117    432    448 148.4  15.2  34174  289.82 0854.45
2009/04/23 13:45:35.6      15   -392     20    393    394 177.8   3.0  34178  289.89 0854.45
2009/04/23 13:45:35.7     -21   -533     91    534    542 182.3   9.7  34182  289.94 0854.45
2009/04/23 13:45:35.8     -19   -501    -32    502    504 182.2  -3.7  34182  289.93 0854.45
2009/04/23 13:45:35.9      14   -557    -10    558    559 178.5  -1.1  34182  289.96 0854.45
2009/04/23 13:45:36.0      62   -400    -22    405    406 171.1  -3.1  34182  289.95 0854.45
2009/04/23 13:45:36.1      70   -366    -88    373    384 169.1 -13.3  34182  289.93 0854.45
2009/04/23 13:45:36.2      60   -341    -74    347    356 169.9 -12.2  34182  289.93 0854.45
2009/04/23 13:45:36.3      41   -263    -95    267    284 171.1 -19.7  34176  289.85 0854.45
2009/04/23 13:45:36.4     -89   -311    -70    324    332 196.0 -12.3  34180  289.91 0854.45
2009/04/23 13:45:36.5      49   -293    -57    298    304 170.4 -10.9  34184  289.98 0854.43
2009/04/23 13:45:36.6       0   -412    -82    413    422 180.0 -11.2  34182  289.94 0854.43
2009/04/23 13:45:36.7      93   -425    -19    436    437 167.6  -2.5  34184  289.99 0854.43
2009/04/23 13:45:36.8    -102   -355    -36    370    372 196.1  -5.6  34178  289.87 0854.43
2009/04/23 13:45:36.9    -199   -206    -36    287    290 224.1  -7.2  34186  290.02 0854.43
2009/04/23 13:45:37.0     -42   -257    -64    261    269 189.3 -13.9  34186  290.02 0854.43
2009/04/23 13:45:37.1     -86   -209    -67    227    236 202.5 -21.2  34186  290.02 0854.43
2009/04/23 13:45:37.2     -78   -133    -37    155    160 210.3 -13.4  34184  289.99 0854.43
2009/04/23 13:45:37.3      -6   -154    -47    155    161 182.2 -22.1  34180  289.91 0854.43
2009/04/23 13:45:37.4      25   -110    -16    113    115 167.1  -8.2  34178  289.87 0854.43
2009/04/23 13:45:37.5      23   -197    -81    199    214 173.3 -27.5  34186  290.01 0854.43
2009/04/23 13:45:37.6      22   -190    -53    192    200 173.1 -15.5  34180  289.91 0854.43
2009/04/23 13:45:37.7      44   -223    -72    228    240 168.7 -17.6  34180  289.92 0854.43
2009/04/23 13:45:37.8      -1   -210    -75    211    224 180.5 -19.6  34184  289.99 0854.43
2009/04/23 13:45:37.9      38   -110    -53    117    128 160.8 -30.6  34184  289.99 0854.43
2009/04/23 13:45:38.0      91   -134    -75    163    179 145.8 -31.0  34190  290.09 0854.43
2009/04/23 13:45:38.1     152   -161   -140    222    262 136.6 -39.9  34196  290.17 0854.43
2009/04/23 13:45:38.2     155   -128    -64    202    211 129.6 -22.8  34190  290.08 0854.43
2009/04/23 13:45:38.3      78   -111    -65    136    150 144.8 -31.6  34192  290.11 0854.43
2009/04/23 13:45:38.4      80    -32    -47     87     98 112.2 -35.7  34186  290.02 0854.43
2009/04/23 13:45:38.5      71    -48    -94     86    127 124.2 -57.1  34190  290.08 0854.43
2009/04/23 13:45:38.6      86    -94    -74    128    147 137.7 -37.3  34190  290.08 0854.43
2009/04/23 13:45:38.7     113    -93    -33    147    151 129.5 -12.9  34190  290.08 0854.43
2009/04/23 13:45:38.8     102   -135    -47    170    176 143.0 -20.0  34190  290.09 0854.43
2009/04/23 13:45:38.9     105   -124    -46    163    170 139.7 -15.8  34188  290.04 0854.43
2009/04/23 13:45:39.0     167    -86    -24    189    191 117.3  -7.3  34188  290.04 0854.43
2009/04/23 13:45:39.1     181    -36    -63    185    195 101.5 -23.6  34182  289.96 0854.43
2009/04/23 13:45:39.2      94    -35   -105    101    145 110.4 -55.6  34186  290.01 0854.43
2009/04/23 13:45:39.4      68    -68    -63     97    115 135.0 -40.0  34188  290.04 0854.43
2009/04/23 13:45:39.4      48    -70    -78     86    116 145.3 -51.9  34190  290.08 0854.43
2009/04/23 13:45:39.5      35     10    -94     37    101  73.2 -81.5  34186  290.02 0854.43
2009/04/23 13:45:39.6      47    -11    -59     49     76 103.3 -60.7  34190  290.08 0854.43
2009/04/23 13:45:39.8      67    -18    -34     70     77 105.0 -31.7  34186  290.01 0854.43
2009/04/23 13:45:39.8      79    -14     -3     81     82 100.6  -2.2  34186  290.01 0854.43
2009/04/23 13:45:40.0      54      4      2     55     56  85.7   2.9  34186  290.01 0854.43
2009/04/23 13:45:40.1      50      3      8     51     52  85.6   9.0  34184  289.99 0854.43
2009/04/23 13:45:40.2      65     21     30     69     75  71.8  25.1  34186  290.01 0854.43
2009/04/23 13:45:40.2      43     35     42     56     70  50.5  40.7  34184  289.97 0854.43
2009/04/23 13:45:40.4       2     13     78     14     79  11.6  90.0  34186  290.02 0854.43
2009/04/23 13:45:40.5       2      7     78      8     78  18.5  90.0  34188  290.06 0854.43
2009/04/23 13:45:40.6     -22    -14     84     27     88 237.5  81.2  34190  290.09 0854.44
2009/04/23 13:45:40.7     -23      0    113     24    115 269.2  89.0  34190  290.09 0854.44
2009/04/23 13:45:40.8     -35    -35    154     50    161 225.0  81.2  34190  290.09 0854.44
2009/04/23 13:45:40.9     -89    -91    181    128    221 224.5  61.3  34188  290.06 0854.44
2009/04/23 13:45:41.0    -127    -91    150    157    217 234.5  48.5  34186  290.02 0854.44
2009/04/23 13:45:41.1    -132      9    111    133    173 274.3  44.1  34184  289.97 0854.44
2009/04/23 13:45:41.2     -17     -9    114     20    115 241.1  90.0  34190  290.09 0854.44
2009/04/23 13:45:41.3      16     15     72     23     75  46.9  80.7  34194  290.16 0854.44
2009/04/23 13:45:41.4      79     35    105     87    136  66.0  56.3  34196  290.19 0854.44
2009/04/23 13:45:41.5     130     38    160    136    209  73.6  55.6  34212  290.45 0854.44
2009/04/23 13:45:41.6      88    -17    156     90    180 101.0  67.5  34210  290.41 0854.44
2009/04/23 13:45:41.7      50      9    122     51    132  79.4  76.6  34218  290.55 0854.44
2009/04/23 13:45:41.8     -25    -43    109     50    119 210.7  74.0  34208  290.38 0854.44
2009/04/23 13:45:41.9     -45     56    107     72    128 321.3  63.2  34206  290.36 0854.44
2009/04/23 13:45:42.0     -73     19    133     76    153 285.1  67.7  34200  290.25 0854.44
2009/04/23 13:45:42.1     -47     21     68     52     85 294.4  59.0  34198  290.23 0854.44
2009/04/23 13:45:42.2     -55     -7     40     56     68 262.1  39.5  34200  290.26 0854.44
2009/04/23 13:45:42.3    -103    -33     50    109    119 252.3  26.2  34202  290.30 0854.44
2009/04/23 13:45:42.4     -58    -58     79     83    114 225.0  49.0  34202  290.28 0854.44
2009/04/23 13:45:42.5     -33     -7     82     34     88 256.7  76.6  34200  290.25 0854.44
2009/04/23 13:45:42.6     -99    -72    144    123    189 234.0  55.6  34184  289.99 0854.43
2009/04/23 13:45:42.7     -76   -137    164    157    227 209.0  51.6  34188  290.06 0854.43
2009/04/23 13:45:42.8     -53   -132    150    143    207 201.9  51.6  34184  289.97 0854.43
2009/04/23 13:45:42.9     -46   -119    149    128    196 201.4  54.8  34186  290.01 0854.43
2009/04/23 13:45:43.0      -4    -95    145     96    173 182.7  63.9  34188  290.06 0854.43
2009/04/23 13:45:43.1       7    -85    131     86    156 175.1  64.6  34190  290.09 0854.43
2009/04/23 13:45:43.2      83      3    117     84    144  87.4  60.6  34194  290.14 0854.43
2009/04/23 13:45:43.3     -14    -16     33     22     39 219.6  63.6  34194  290.16 0854.43
2009/04/23 13:45:43.4      17    -94    115     96    149 169.8  56.3  34194  290.16 0854.43
2009/04/23 13:45:43.5      49    -16     51     52     72 108.2  51.1  34194  290.14 0854.43
2009/04/23 13:45:43.6     -26     43     36     51     62 329.3  39.5  34194  290.16 0854.43
2009/04/23 13:45:43.7     -41     27     23     50     55 303.3  27.1  34194  290.14 0854.43
2009/04/23 13:45:43.8    -141     11     48    142    151 274.8  18.9  34194  290.16 0854.43
2009/04/23 13:45:43.9     -53    145     27    155    158 339.9  10.1  34198  290.23 0854.43
2009/04/23 13:45:44.0     -64    135      2    150    151 334.5   0.8  34198  290.21 0854.43
2009/04/23 13:45:44.1       5    123    -38    124    129   2.7 -22.3  34200  290.25 0854.43
2009/04/23 13:45:44.2      62    151     13    164    165  22.3   4.6  34220  290.60 0854.43
2009/04/23 13:45:44.3      17    162     44    163    170   6.2  15.3  34228  290.72 0854.43
2009/04/23 13:45:44.4     -33    100    -14    106    107 341.3  -7.7  34212  290.45 0854.43
2009/04/23 13:45:44.5     -23     79    -12     83     84 343.5  -8.2  34216  290.52 0854.43
2009/04/23 13:45:44.6      24    103     44    106    114  13.4  23.6  34232  290.79 0854.43
2009/04/23 13:45:44.7      24     24     48     34     58  45.0  61.5  34224  290.65 0854.43
2009/04/23 13:45:44.8     102    -11     88    103    135  96.6  44.8  34240  290.92 0854.43
2009/04/23 13:45:44.9     113     25     54    116    127  77.2  27.1  34252  291.15 0854.43
2009/04/23 13:45:45.0     104     30     28    109    113  73.6  14.7  34244  291.01 0854.43
2009/04/23 13:45:45.1      98    -11    -20     99    101  96.6 -11.5  34230  290.77 0854.43
2009/04/23 13:45:45.2      69    -72    -30    100    105 136.3 -17.0  34220  290.60 0854.43
2009/04/23 13:45:45.3     -24   -100    -38    103    109 193.8 -24.8  34216  290.53 0854.43
2009/04/23 13:45:45.4     -50   -123    -38    133    139 202.3 -16.0  34204  290.33 0854.43
2009/04/23 13:45:45.5     -30   -149    -51    153    161 191.6 -23.6  34198  290.23 0854.43
2009/04/23 13:45:45.6     -95   -179    -31    203    206 208.1  -8.8  34196  290.19 0854.44
2009/04/23 13:45:45.7    -146   -172    -78    226    240 220.3 -19.1  34198  290.22 0854.44
2009/04/23 13:45:45.8    -111   -141    -66    180    191 218.3 -25.4  34202  290.28 0854.44
2009/04/23 13:45:45.9    -128    -96    -16    160    161 233.1  -6.0  34202  290.28 0854.44
2009/04/23 13:45:46.0    -104      0      8    105    106 270.0   4.4  34202  290.28 0854.44
2009/04/23 13:45:46.1    -256     38    -77    259    271 278.6 -16.6  34198  290.22 0854.44
2009/04/23 13:45:46.2    -198   -101     27    223    225 242.9   7.1  34202  290.28 0854.44
2009/04/23 13:45:46.3    -256   -212     27    333    335 230.3   4.7  34192  290.10 0854.44
2009/04/23 13:45:46.4    -421    -44   -120    424    440 263.9 -20.5  34190  290.07 0854.44
2009/04/23 13:45:46.5    -376    -28    -33    377    379 265.6  -5.1  34178  289.86 0854.44
2009/04/23 13:45:46.6    -400     -6    133    401    423 269.0  18.5  34188  290.04 0854.44
2009/04/23 13:45:46.7    -418    -32   -150    420    447 265.5 -19.7  34188  290.05 0854.44
2009/04/23 13:45:46.8    -322     14    -15    323    324 272.6  -2.7  34190  290.09 0854.44
2009/04/23 13:45:46.9    -320   -118    -96    342    356 249.8 -15.8  34194  290.15 0854.44
2009/04/23 13:45:47.0    -479   -160     66    506    511 251.5   7.4  34192  290.12 0854.44
2009/04/23 13:45:47.1    -526   -142   -114    545    557 254.9 -11.9  34180  289.92 0854.44
2009/04/23 13:45:47.2    -308   -394      0    501    502 218.0   0.1  34200  290.25 0854.44
2009/04/23 13:45:47.3       0   -293    -99    294    311 179.9 -18.7  34188  290.03 0854.44
2009/04/23 13:45:47.4     -40   -257     -9    261    262 188.9  -2.1  34192  290.10 0854.44
2009/04/23 13:45:47.5     -82   -161     32    181    184 207.0  10.3  34198  290.21 0854.44
2009/04/23 13:45:47.6    -187      1     11    188    189 270.6   3.6  34204  290.31 0854.46
2009/04/23 13:45:47.7     -62     24    -51     67     84 291.7 -45.6  34200  290.25 0854.46
2009/04/23 13:45:47.8      10      9   -109     14    109  46.7 -90.0  34196  290.18 0854.46
2009/04/23 13:45:47.9     -45     54   -189     71    201 320.4 -83.0  34190  290.08 0854.46
2009/04/23 13:45:48.0      64    -49   -178     81    195 127.8 -78.4  34186  290.01 0854.46
2009/04/23 13:45:48.1     105     -3   -132    106    169  91.7 -61.3  34190  290.08 0854.46
2009/04/23 13:45:48.2      63     -3   -121     64    136  93.5 -74.8  34194  290.16 0854.46
2009/04/23 13:45:48.3      66      5   -143     67    157  85.7 -77.9  34198  290.23 0854.46
2009/04/23 13:45:48.4      43    -58   -146     73    163 143.9 -75.8  34200  290.25 0854.46
2009/04/23 13:45:48.5      76   -121   -201    144    247 147.9 -65.5  34198  290.23 0854.46
2009/04/23 13:45:48.6      47    -91   -223    103    245 152.4 -77.9  34196  290.18 0854.46
2009/04/23 13:45:48.7    -226    -45   -305    231    382 258.6 -63.5  34198  290.21 0854.46
2009/04/23 13:45:48.8      67    252   -283    261    384  15.1 -56.9  34192  290.11 0854.46
2009/04/23 13:45:48.9    -294    179   -305    345    460 301.4 -50.3  34168  289.72 0854.46
2009/04/23 13:45:49.0    -332    -75   -214    341    402 257.2 -39.6  34198  290.20 0854.46
2009/04/23 13:45:49.1    -269   -159   -302    313    434 239.4 -53.4  34204  290.32 0854.46
2009/04/23 13:45:49.2    -271   -255   -384    373    535 226.8 -55.3  34192  290.13 0854.46
2009/04/23 13:45:49.3    -182   -350   -260    395    472 207.5 -40.9  34202  290.29 0854.46
2009/04/23 13:45:49.4    -244   -170   -101    298    314 235.1 -23.8  34174  289.81 0854.46
2009/04/23 13:45:49.5    -142    -78    -81    163    182 241.2 -32.6  34196  290.18 0854.46
2009/04/23 13:45:49.6     -11     12   -113     17    114 316.8 -90.0  34192  290.13 0854.49
2009/04/23 13:45:49.7       1    -72    -33     73     80 179.1 -30.6  34190  290.09 0854.49
2009/04/23 13:45:49.8    -250   -249    -99    353    367 225.1 -15.7  34188  290.06 0854.49
2009/04/23 13:45:49.9    -117   -248   -106    275    294 205.3 -26.5  34192  290.10 0854.49
2009/04/23 13:45:50.0       6   -145    -75    146    164 177.4 -33.7  34188  290.04 0854.49
2009/04/23 13:45:50.1    -133   -162    -16    210    211 219.4  -4.6  34182  289.96 0854.49
2009/04/23 13:45:50.2     -26   -270     58    272    279 185.6  12.2  34188  290.03 0854.49
2009/04/23 13:45:50.3    -150   -252     46    294    298 210.8   8.9  34180  289.90 0854.49
2009/04/23 13:45:50.4    -193   -212      4    288    289 222.3   0.8  34192  290.10 0854.49
2009/04/23 13:45:50.5     -78   -293     44    304    308 195.1   8.2  34192  290.12 0854.49
2009/04/23 13:45:50.6    -154   -227    -83    275    287 214.1 -21.7  34194  290.15 0854.49
2009/04/23 13:45:50.7    -109   -249   -121    273    298 203.7 -29.7  34192  290.12 0854.49
2009/04/23 13:45:50.8    -109   -299    -92    319    333 200.1 -16.2  34194  290.14 0854.49
2009/04/23 13:45:50.9    -130   -184    -12    226    227 215.2  -3.2  34190  290.09 0854.49
2009/04/23 13:45:51.0     -97   -199      2    222    223 206.1   0.7  34190  290.08 0854.49
2009/04/23 13:45:51.1     -27   -292    -11    294    295 185.4  -2.2  34188  290.05 0854.49
2009/04/23 13:45:51.2      -4   -281    -64    282    290 181.0 -12.9  34186  290.02 0854.49
2009/04/23 13:45:51.3     -73   -217     28    230    232 198.7   7.1  34186  290.02 0854.49
2009/04/23 13:45:51.4      22   -374     34    375    377 176.6   5.3  34188  290.06 0854.49
2009/04/23 13:45:51.5     -88   -432    201    442    485 191.6  26.2  34192  290.12 0854.49
2009/04/23 13:45:51.6     -19   -439    146    440    464 182.6  18.5  34180  289.92 0854.48
2009/04/23 13:45:51.7    -177   -409    -59    446    450 203.5  -7.6  34190  290.09 0854.48
2009/04/23 13:45:51.8    -250   -295   -152    388    416 220.3 -27.1  34186  290.00 0854.48
2009/04/23 13:45:51.9    -294   -397   -178    495    526 216.5 -25.0  34188  290.06 0854.48
2009/04/23 13:45:52.0    -303   -611    -64    683    687 206.4  -5.4  34190  290.07 0854.48
2009/04/23 13:45:52.1    -182   -665     61    690    693 195.3   5.1  34190  290.07 0854.48
2009/04/23 13:45:52.2    -560   -383    -46    679    681 235.6  -3.9  34190  290.09 0854.48
2009/04/23 13:45:52.3    -416   -321     70    526    531 232.3   7.6  34192  290.13 0854.48
2009/04/23 13:45:52.4    -360   -100     19    374    375 254.5   2.9  34190  290.08 0854.48
2009/04/23 13:45:52.5    -323    -11   -172    324    366 267.9 -34.6  34192  290.11 0854.48
2009/04/23 13:45:52.6    -261    -57   -149    268    306 257.6 -35.8  34188  290.03 0854.48
2009/04/23 13:45:52.7    -310    -38    -92    313    326 262.9 -21.2  34192  290.12 0854.48
2009/04/23 13:45:52.8    -376   -115   -110    394    409 253.0 -20.3  34186  290.00 0854.48
2009/04/23 13:45:52.9    -404    -80   -140    412    435 258.8 -23.8  34190  290.07 0854.48
2009/04/23 13:45:53.0    -318   -108   -104    336    351 251.2 -22.3  34188  290.03 0854.48
2009/04/23 13:45:53.1    -448   -213    -65    497    502 244.5  -7.5  34188  290.05 0854.48
2009/04/23 13:45:53.2    -395   -194    -92    441    451 243.8 -11.8  34190  290.07 0854.48
2009/04/23 13:45:53.3    -420    -82    -78    429    437 258.9 -10.4  34198  290.22 0854.48
2009/04/23 13:45:53.4    -418    138   -143    441    464 288.3 -18.1  34198  290.22 0854.48
2009/04/23 13:45:53.5    -425    105   -166    438    468 283.9 -26.1  34182  289.94 0854.48
2009/04/23 13:45:53.6    -404     69   -113    410    426 279.7 -15.4  34188  290.05 0854.45
2009/04/23 13:45:53.7    -405    -46    -21    408    409 263.5  -3.0  34194  290.16 0854.45
2009/04/23 13:45:53.8    -493   -204   -117    534    547 247.5 -12.4  34198  290.21 0854.45
2009/04/23 13:45:53.9    -474   -232    -80    528    535 243.9  -8.7  34192  290.11 0854.45
2009/04/23 13:45:54.0    -362   -279    -89    458    467 232.4 -11.1  34200  290.26 0854.45
2009/04/23 13:45:54.1    -125   -256    -24    286    288 206.1  -4.9  34196  290.17 0854.45
2009/04/23 13:45:54.2    -204   -198   -107    285    304 226.0 -25.9  34196  290.19 0854.45
2009/04/23 13:45:54.3    -378   -308   -193    488    524 230.8 -27.1  34188  290.06 0854.45
2009/04/23 13:45:54.4    -451   -239   -182    511    542 242.1 -24.8  34186  290.01 0854.45
2009/04/23 13:45:54.5    -490   -270   -185    560    589 241.1 -23.5  34192  290.10 0854.45
2009/04/23 13:45:54.6    -395   -334   -246    518    573 229.8 -31.6  34188  290.06 0854.45
2009/04/23 13:45:54.7    -312   -270     20    413    414 229.1   2.9  34198  290.22 0854.45
2009/04/23 13:45:54.8    -224   -240    -21    329    330 223.1  -3.8  34202  290.27 0854.45
2009/04/23 13:45:54.9      -4   -197      2    198    199 181.4   0.7  34198  290.21 0854.45
2009/04/23 13:45:55.0      59   -253    -10    260    261 166.7  -2.2  34200  290.24 0854.45
2009/04/23 13:45:55.1      98   -281    -88    298    310 160.6 -21.7  34194  290.15 0854.45
2009/04/23 13:45:55.2      52   -277    -21    282    283 169.3  -4.4  34192  290.12 0854.45
2009/04/23 13:45:55.3     118   -219    -14    249    250 151.7  -3.3  34192  290.10 0854.45
2009/04/23 13:45:55.4      77   -266      7    277    278 163.9   1.6  34192  290.10 0854.45
2009/04/23 13:45:55.5      75   -246     24    258    260 163.0   5.4  34194  290.15 0854.38
2009/04/23 13:45:55.6      12   -335     81    336    346 177.9  13.7  34196  290.18 0854.38
2009/04/23 13:45:55.7     -37   -477      1    479    480 184.5   0.2  34192  290.12 0854.38
2009/04/23 13:45:55.8     -46   -379   -106    382    397 187.0 -15.5  34188  290.04 0854.38
2009/04/23 13:45:55.9    -107   -344    -19    361    362 197.3  -3.1  34192  290.10 0854.38
2009/04/23 13:45:56.0    -145   -432     65    456    461 198.6   8.1  34188  290.05 0854.38
2009/04/23 13:45:56.1     -70   -442     23    448    449 189.0   3.0  34188  290.04 0854.38
2009/04/23 13:45:56.2    -134   -538    -49    555    558 194.0  -5.1  34186  290.02 0854.38
2009/04/23 13:45:56.3     -93   -440    -56    450    454 192.0  -7.2  34190  290.09 0854.38
2009/04/23 13:45:56.4     -12   -445    108    446    459 181.6  13.7  34190  290.09 0854.38
2009/04/23 13:45:56.5       6   -391    124    392    412 179.1  17.5  34190  290.09 0854.38
2009/04/23 13:45:56.6       7   -461     58    462    466 179.1   7.2  34192  290.12 0854.38
2009/04/23 13:45:56.7     -44   -408     72    411    418 186.3  10.0  34194  290.14 0854.38
2009/04/23 13:45:56.8      -7   -383     22    384    385 181.1   3.3  34192  290.13 0854.38
2009/04/23 13:45:56.9    -191   -247    102    313    330 217.6  18.1  34190  290.09 0854.38
2009/04/23 13:45:57.0    -219   -144     62    263    271 236.7  13.2  34194  290.14 0854.38
2009/04/23 13:45:57.1    -149    -45     61    156    167 253.1  22.3  34194  290.16 0854.38
2009/04/23 13:45:57.2    -219   -121     82    251    265 241.1  18.1  34194  290.14 0854.38
2009/04/23 13:45:57.3    -178     13     50    179    187 274.4  15.8  34192  290.13 0854.38
2009/04/23 13:45:57.4     -80    -92     32    123    128 221.0  14.7  34194  290.14 0854.38
2009/04/23 13:45:57.5     -37   -131    -32    137    141 196.0 -13.3  34184  289.99 0854.37
2009/04/23 13:45:57.6     -24    -32     91     41     99 217.0  74.0  34196  290.18 0854.37
2009/04/23 13:45:57.7      14    -99     13    101    102 172.0   7.5  34198  290.23 0854.37
2009/04/23 13:45:57.8     -42    -79      4     90     91 208.5   2.9  34196  290.18 0854.37
2009/04/23 13:45:57.9    -215   -229     -4    315    316 223.2  -0.9  34194  290.15 0854.37
2009/04/23 13:45:58.0    -219   -134    -91    257    273 238.5 -19.6  34188  290.05 0854.37
2009/04/23 13:45:58.1    -122   -256    -11    284    285 205.5  -2.2  34190  290.07 0854.37
2009/04/23 13:45:58.2    -155   -261    -83    304    316 210.8 -15.4  34188  290.03 0854.37
2009/04/23 13:45:58.3    -276   -270    -56    387    392 225.7  -8.2  34190  290.08 0854.37
2009/04/23 13:45:58.4    -294   -274    -72    403    410 227.0 -10.2  34190  290.07 0854.37
2009/04/23 13:45:58.5    -378   -340    -87    509    517 228.0  -9.8  34196  290.17 0854.37
2009/04/23 13:45:58.6    -324   -325    -98    459    470 224.9 -12.2  34192  290.13 0854.37
2009/04/23 13:45:58.7    -230   -284    -73    366    374 219.0 -11.3  34188  290.04 0854.37
2009/04/23 13:45:58.8    -230   -338    -90    410    420 214.3 -12.4  34196  290.19 0854.37
2009/04/23 13:45:58.9    -216   -314   -126    382    402 214.5 -23.7  34196  290.18 0854.37
2009/04/23 13:45:59.0    -105   -324     47    341    345 198.1   7.9  34192  290.10 0854.37
2009/04/23 13:45:59.1    -129   -323     24    349    350 201.9   4.0  34192  290.13 0854.37
2009/04/23 13:45:59.2     -61   -303     79    310    320 191.5  14.3  34190  290.09 0854.37
2009/04/23 13:45:59.3    -143   -368    162    396    427 201.3  23.5  34194  290.16 0854.37
2009/04/23 13:45:59.4    -135   -408    155    430    457 198.4  20.7  34194  290.16 0854.37
2009/04/23 13:45:59.5    -106   -385    118    400    418 195.5  16.5  34190  290.09 0854.36
2009/04/23 13:45:59.6     -57   -367     75    372    380 188.9  11.5  34192  290.13 0854.36
2009/04/23 13:45:59.7     -22   -283    185    284    338 184.5  36.2  34186  290.02 0854.36
2009/04/23 13:45:59.8      -7   -268    217    269    345 181.6  43.3  34192  290.10 0854.36
2009/04/23 13:45:59.9      58   -356    249    361    438 170.7  37.8  34192  290.12 0854.36
2009/04/23 13:46:00.0      27   -376    276    377    467 175.8  39.7  34190  290.07 0854.36
2009/04/23 13:46:00.1      59   -342    313    348    468 170.1  46.8  34192  290.12 0854.36
2009/04/23 13:46:00.2     209   -461    293    507    585 155.6  32.8  34190  290.09 0854.36
2009/04/23 13:46:00.3      52   -637    122    640    652 175.3  10.8  34188  290.03 0854.36
2009/04/23 13:46:00.4      -4   -545    175    546    574 180.5  17.8  34190  290.07 0854.36
2009/04/23 13:46:00.5      52   -639    204    642    674 175.3  17.7  34192  290.10 0854.36
2009/04/23 13:46:00.6      62   -541    112    545    557 173.4  11.7  34192  290.13 0854.36
2009/04/23 13:46:00.7      17   -470     82    471    479 177.9   9.9  34192  290.13 0854.36
2009/04/23 13:46:00.8      95   -396    207    408    457 166.4  29.2  34186  290.02 0854.36
2009/04/23 13:46:00.9      74   -499    235    505    557 171.5  26.9  34188  290.04 0854.36
2009/04/23 13:46:01.0      42   -444    167    447    477 174.6  21.5  34192  290.10 0854.36
2009/04/23 13:46:01.1     -16   -457    181    458    492 182.0  22.8  34182  289.95 0854.36
2009/04/23 13:46:01.2    -193   -533     -2    568    569 200.0  -0.3  34192  290.13 0854.36
2009/04/23 13:46:01.3    -189   -477    -34    514    516 201.7  -3.8  34192  290.12 0854.36
2009/04/23 13:46:01.4    -211   -443    -32    491    493 205.5  -3.8  34194  290.15 0854.36
2009/04/23 13:46:01.5    -153   -625    -76    644    649 193.8  -6.8  34188  290.06 0854.37
2009/04/23 13:46:01.6    -208   -665    -27    698    699 197.4  -2.2  34192  290.10 0854.37
2009/04/23 13:46:01.7    -244   -731    -23    771    772 198.5  -1.7  34188  290.03 0854.37
2009/04/23 13:46:01.8    -260   -699    -41    746    748 200.4  -3.2  34192  290.12 0854.37
2009/04/23 13:46:01.9    -304   -638    -81    707    712 205.5  -6.6  34188  290.06 0854.37
2009/04/23 13:46:02.0    -295   -540   -106    616    626 208.6  -9.8  34190  290.08 0854.37
2009/04/23 13:46:02.1    -338   -472   -149    581    600 215.6 -14.4  34194  290.14 0854.37
2009/04/23 13:46:02.2    -348   -476   -153    590    610 216.2 -14.6  34190  290.08 0854.37
2009/04/23 13:46:02.3    -371   -508   -190    630    658 216.1 -16.8  34190  290.08 0854.37
2009/04/23 13:46:02.4    -424   -480   -160    641    661 221.5 -14.1  34188  290.04 0854.37
2009/04/23 13:46:02.5    -387   -467   -168    607    630 219.7 -15.5  34188  290.03 0854.37
2009/04/23 13:46:02.6    -331   -404   -106    523    534 219.4 -11.5  34190  290.07 0854.37
2009/04/23 13:46:02.7    -244   -398   -133    467    485 211.5 -20.7  34190  290.08 0854.37
2009/04/23 13:46:02.8    -221   -422   -206    477    519 207.6 -29.4  34188  290.06 0854.37
2009/04/23 13:46:02.9    -258   -406   -147    482    503 212.5 -21.9  34188  290.06 0854.37
2009/04/23 13:46:03.0    -120   -387   -242    406    472 197.3 -38.0  34186  290.02 0854.37
2009/04/23 13:46:03.1     -30   -462   -247    464    525 183.8 -34.7  34186  290.00 0854.37
2009/04/23 13:46:03.2     -21   -458   -154    459    484 182.7 -23.5  34192  290.10 0854.37
2009/04/23 13:46:03.3      31   -442   -126    444    461 175.9 -20.5  34190  290.09 0854.37
2009/04/23 13:46:03.4     -13   -394   -118    395    412 181.9 -21.4  34184  289.97 0854.37
2009/04/23 13:46:03.5      -5   -381   -110    382    397 180.8 -20.9  34192  290.10 0854.38
2009/04/23 13:46:03.6     -41   -394   -122    397    415 186.0 -22.1  34188  290.04 0854.38
2009/04/23 13:46:03.7     110   -347    -65    365    371 162.4 -10.2  34190  290.08 0854.38
2009/04/23 13:46:03.8    -103   -248    -81    269    281 202.7 -16.8  34190  290.07 0854.38
2009/04/23 13:46:03.9    -178   -208    -39    274    277 220.5  -8.3  34190  290.07 0854.38
2009/04/23 13:46:04.0    -171   -179    -40    248    252 223.7  -9.3  34188  290.03 0854.38
2009/04/23 13:46:04.1    -270   -139   -154    304    340 242.7 -33.5  34192  290.10 0854.38
2009/04/23 13:46:04.2    -283   -166   -130    329    353 239.6 -27.2  34190  290.08 0854.38
2009/04/23 13:46:04.3    -200   -241   -148    314    347 219.7 -31.5  34192  290.13 0854.38
2009/04/23 13:46:04.4    -178   -184    -90    257    272 224.1 -24.0  34192  290.12 0854.38
2009/04/23 13:46:04.5      -4   -270     84    271    284 180.9  17.3  34194  290.14 0854.38
2009/04/23 13:46:04.6      94   -271     90    288    302 160.8  17.4  34192  290.10 0854.38
2009/04/23 13:46:04.7      40   -357    138    360    385 173.5  22.0  34188  290.06 0854.38
2009/04/23 13:46:04.8     -30   -304    190    306    360 185.8  35.0  34188  290.04 0854.38
2009/04/23 13:46:04.9     -92   -413    137    424    446 192.6  17.9  34188  290.05 0854.38
2009/04/23 13:46:05.0    -118   -329     90    350    362 199.8  14.4  34188  290.04 0854.38
2009/04/23 13:46:05.1    -112   -296     78    317    327 200.8  13.9  34188  290.03 0854.38
2009/04/23 13:46:05.2    -135   -228     28    265    267 210.7   6.1  34190  290.09 0854.38
2009/04/23 13:46:05.3      12   -289     32    290    292 177.5   6.5  34190  290.09 0854.38
2009/04/23 13:46:05.4      44   -282     22    286    287 171.1   4.6  34192  290.10 0854.38
2009/04/23 13:46:05.5    -107   -321    -45    339    343 198.6  -7.7  34190  290.08 0854.38
2009/04/23 13:46:05.7    -122   -376   -136    396    419 198.0 -19.0  34192  290.11 0854.38
2009/04/23 13:46:05.7    -140   -431     -2    454    455 198.1  -0.3  34190  290.09 0854.38
2009/04/23 13:46:05.8    -111   -465   -122    479    495 193.4 -14.3  34192  290.12 0854.38
2009/04/23 13:46:06.0      57   -684     22    687    688 175.2   1.9  34188  290.05 0854.38
2009/04/23 13:46:06.1     229   -699   -111    736    745 161.9  -8.6  34194  290.14 0854.38
2009/04/23 13:46:06.2     341   -721    -24    798    799 154.7  -1.8  34188  290.05 0854.38
2009/04/23 13:46:06.3     180   -655    -35    680    681 164.6  -3.0  34194  290.16 0854.38
2009/04/23 13:46:06.4     104   -673      1    681    682 171.2   0.1  34192  290.12 0854.38
2009/04/23 13:46:06.5      19   -586    -42    587    589 178.1  -4.1  34194  290.15 0854.38
2009/04/23 13:46:06.6      51   -528    -39    531    533 174.4  -4.2  34196  290.18 0854.40
2009/04/23 13:46:06.7      32   -539     84    540    547 176.6   8.9  34190  290.09 0854.40
2009/04/23 13:46:06.8      91   -490     50    499    502 169.4   5.8  34192  290.10 0854.40
2009/04/23 13:46:06.9     195   -465     41    505    507 157.3   4.7  34194  290.15 0854.40
2009/04/23 13:46:07.0     189   -487    -17    523    524 158.7  -1.9  34194  290.16 0854.40
2009/04/23 13:46:07.1     109   -637    -34    647    648 170.3  -3.0  34192  290.13 0854.40
2009/04/23 13:46:07.2     -59   -596    -31    599    600 185.7  -3.0  34190  290.07 0854.40
2009/04/23 13:46:07.3     -67   -575    -22    579    580 186.7  -2.2  34194  290.15 0854.40
2009/04/23 13:46:07.4      19   -474     27    475    476 177.7   3.3  34188  290.06 0854.40
2009/04/23 13:46:07.5     -43   -433    -88    436    445 185.7 -11.5  34194  290.14 0854.40
2009/04/23 13:46:07.6    -255   -389    -84    466    474 213.3 -10.3  34192  290.10 0854.40
2009/04/23 13:46:07.7    -363   -541    -43    652    654 213.9  -3.8  34182  289.96 0854.40
2009/04/23 13:46:07.8    -316   -384   -137    498    517 219.5 -15.4  34192  290.13 0854.40
2009/04/23 13:46:07.9    -350   -357   -164    501    528 224.4 -18.2  34192  290.13 0854.40
2009/04/23 13:46:08.0    -304   -332   -152    451    475 222.5 -23.7  34194  290.15 0854.40
2009/04/23 13:46:08.1    -208   -378    -16    432    433 208.9  -2.2  34198  290.21 0854.40
2009/04/23 13:46:08.2    -222   -274    -51    353    357 219.0  -8.4  34198  290.23 0854.40
2009/04/23 13:46:08.3    -200   -444     -5    488    489 204.3  -0.6  34192  290.13 0854.40
2009/04/23 13:46:08.4    -151   -320     52    355    359 205.3   8.5  34194  290.16 0854.40
2009/04/23 13:46:08.5     -81   -247     36    261    264 198.3   8.0  34190  290.09 0854.40
2009/04/23 13:46:08.6    -130   -103    -82    167    186 231.6 -32.2  34192  290.13 0854.41
2009/04/23 13:46:08.7    -160    -97   -104    188    214 238.7 -35.8  34192  290.13 0854.41
2009/04/23 13:46:08.8    -185    -25   -158    187    244 262.1 -48.9  34194  290.16 0854.41
2009/04/23 13:46:08.9     -97   -223     -5    244    245 203.6  -1.3  34196  290.17 0854.41
2009/04/23 13:46:09.0     -36   -222    -12    226    227 189.3  -3.2  34194  290.16 0854.41
2009/04/23 13:46:09.1      19   -167     19    169    171 173.3   6.5  34194  290.16 0854.41
2009/04/23 13:46:09.2     101    -79     61    129    142 128.2  27.1  34196  290.18 0854.41
2009/04/23 13:46:09.3     105   -106     38    150    155 135.1  14.3  34196  290.19 0854.41
2009/04/23 13:46:09.4     113   -133     25    175    177 139.5   8.2  34194  290.16 0854.41
2009/04/23 13:46:09.5     147   -167    -67    223    233 138.6 -16.8  34198  290.23 0854.41
2009/04/23 13:46:09.6     150   -213   -107    261    282 144.9 -27.8  34196  290.19 0854.41
2009/04/23 13:46:09.7     145   -282   -116    318    338 152.8 -25.4  34194  290.16 0854.41
2009/04/23 13:46:09.8     120   -146     36    190    194 140.6  11.0  34194  290.14 0854.41
2009/04/23 13:46:09.9     149     21     57    151    161  82.0  21.7  34196  290.18 0854.41
2009/04/23 13:46:10.0     219    -23    102    221    243  96.1  26.4  34194  290.15 0854.41
2009/04/23 13:46:10.1     232     -9    111    233    258  92.4  27.3  34192  290.12 0854.41
2009/04/23 13:46:10.2     170    -27    138    173    221  99.0  42.7  34198  290.21 0854.41
2009/04/23 13:46:10.3     149    -30    107    152    185 101.5  38.6  34196  290.18 0854.41
2009/04/23 13:46:10.4     119    -52     86    130    155 113.6  36.0  34198  290.23 0854.41
2009/04/23 13:46:10.5     136     15     46    137    145  83.4  18.9  34220  290.60 0854.41
2009/04/23 13:46:10.6      49     53     20     73     76  42.3  15.3  34214  290.50 0854.43
2009/04/23 13:46:10.7     -70    -23    -38     74     83 251.4 -33.7  34212  290.47 0854.43
2009/04/23 13:46:10.8     -35   -170    -48    174    180 191.8 -20.0  34202  290.28 0854.43
2009/04/23 13:46:10.9     -16   -268     25    269    271 183.5   5.4  34194  290.15 0854.43
2009/04/23 13:46:11.0    -106   -317     99    335    350 198.6  16.5  34198  290.23 0854.43
2009/04/23 13:46:11.1     -95   -373     54    385    389 194.3   8.1  34196  290.18 0854.43
2009/04/23 13:46:11.2    -175   -373     10    413    414 205.2   1.5  34196  290.17 0854.43
2009/04/23 13:46:11.3    -125   -330    -32    354    356 200.8  -5.2  34194  290.16 0854.43
2009/04/23 13:46:11.4     -71   -281     18    291    292 194.3   3.6  34194  290.15 0854.43
2009/04/23 13:46:11.5      36   -394     -4    396    397 174.7  -0.6  34194  290.15 0854.43
2009/04/23 13:46:11.6      32   -359     65    361    367 174.8  10.2  34200  290.25 0854.43
2009/04/23 13:46:11.7      37   -352     92    355    367 173.9  14.6  34200  290.25 0854.43
2009/04/23 13:46:11.8     -30   -353    162    355    390 185.0  26.2  34202  290.28 0854.43
2009/04/23 13:46:11.9     -69   -349    106    356    372 191.2  16.7  34202  290.30 0854.43
2009/04/23 13:46:12.0     -49   -332     90    336    348 188.5  15.0  34198  290.21 0854.43
2009/04/23 13:46:12.1      60   -352    123    358    379 170.3  19.1  34198  290.21 0854.43
2009/04/23 13:46:12.2      94   -409     74    420    427 167.0  10.0  34198  290.22 0854.43
2009/04/23 13:46:12.3     116   -352    205    371    423 161.7  31.4  34198  290.22 0854.43
2009/04/23 13:46:12.4     167   -388    164    423    453 156.7  22.3  34200  290.26 0854.43
2009/04/23 13:46:12.5     129   -232    230    266    351 151.0  45.5  34186  290.02 0854.43
2009/04/23 13:46:12.6    -119   -284    198    309    366 202.8  35.6  34202  290.28 0854.43
2009/04/23 13:46:12.7    -197   -319    214    375    431 211.7  32.3  34200  290.26 0854.43
2009/04/23 13:46:12.8    -269   -260    177    375    414 226.0  27.1  34202  290.28 0854.43
2009/04/23 13:46:12.9    -155   -353    145    386    412 203.7  21.7  34202  290.29 0854.43
2009/04/23 13:46:13.0    -195   -356    111    406    421 208.7  15.3  34206  290.36 0854.43
2009/04/23 13:46:13.1    -153   -182    -68    238    248 220.1 -16.0  34204  290.31 0854.43
2009/04/23 13:46:13.2    -246    -29    -72    248    258 263.2 -21.0  34194  290.14 0854.43
2009/04/23 13:46:13.3     -78   -166     35    184    188 205.4  11.0  34196  290.19 0854.43
2009/04/23 13:46:13.4    -119   -196     11    230    231 211.2   2.9  34202  290.28 0854.43
2009/04/23 13:46:13.5     -76   -215     24    229    231 199.4   6.1  34202  290.28 0854.43
2009/04/23 13:46:13.6    -190   -366     35    413    415 207.4   4.9  34204  290.33 0854.43
2009/04/23 13:46:13.7    -236   -367      2    437    438 212.8   0.4  34192  290.12 0854.43
2009/04/23 13:46:13.8    -251   -144   -121    290    314 240.2 -28.5  34196  290.19 0854.43
2009/04/23 13:46:13.9    -200   -193    -46    279    283 226.0  -9.4  34194  290.15 0854.43
2009/04/23 13:46:14.0     -93   -216     69    236    247 203.2  16.4  34204  290.32 0854.43
2009/04/23 13:46:14.1      38   -281     94    284    300 172.2  18.4  34202  290.27 0854.43
2009/04/23 13:46:14.2     -28   -341     42    343    346 184.7   7.1  34208  290.37 0854.43
2009/04/23 13:46:14.3     -26   -419     74    420    427 183.6  10.0  34200  290.24 0854.43
2009/04/23 13:46:14.4     -40   -413     37    416    418 185.6   5.2  34204  290.31 0854.43
2009/04/23 13:46:14.5     -50   -356     10    360    361 188.1   1.7  34202  290.27 0854.43
2009/04/23 13:46:14.6    -161   -263    -33    309    311 211.4  -6.2  34198  290.22 0854.45
2009/04/23 13:46:14.7     -32   -351    -16    353    354 185.3  -2.6  34194  290.16 0854.45
2009/04/23 13:46:14.8     -82   -353    -65    363    369 193.1 -10.2  34198  290.21 0854.45
2009/04/23 13:46:14.9     -51   -372    -71    376    383 187.8 -10.8  34198  290.20 0854.45
2009/04/23 13:46:15.0    -157   -304      8    343    344 207.3   1.5  34194  290.15 0854.45
2009/04/23 13:46:15.1    -173   -163    122    239    268 226.7  29.2  34206  290.34 0854.45
2009/04/23 13:46:15.2     -88   -203    137    222    260 203.4  34.8  34210  290.42 0854.45
2009/04/23 13:46:15.3    -105   -244    151    266    305 203.4  32.1  34216  290.51 0854.45
2009/04/23 13:46:15.4     -82   -272    196    285    345 196.9  37.8  34210  290.41 0854.45
2009/04/23 13:46:15.5     -60   -334    136    340    366 190.3  23.0  34202  290.27 0854.45
2009/04/23 13:46:15.6     -61   -239     77    247    259 194.5  17.3  34202  290.27 0854.45
2009/04/23 13:46:15.7      26   -269      5    271    272 174.4   1.2  34204  290.32 0854.45
2009/04/23 13:46:15.8      23   -155    -14    157    158 171.5  -5.4  34204  290.33 0854.45
2009/04/23 13:46:15.9     -99   -158     13    187    188 212.3   4.2  34204  290.31 0854.45
2009/04/23 13:46:16.0     -73   -224     50    236    242 198.0  12.0  34212  290.46 0854.45
2009/04/23 13:46:16.1     -58   -272    161    279    322 192.0  32.8  34208  290.37 0854.45
2009/04/23 13:46:16.2     -14   -157    134    158    207 185.3  44.5  34208  290.38 0854.45
2009/04/23 13:46:16.3     -24   -225    100    227    248 186.2  25.2  34206  290.34 0854.45
2009/04/23 13:46:16.4     -52   -282     44    287    291 190.6   8.9  34194  290.15 0854.45
2009/04/23 13:46:16.5      95   -283    170    299    343 161.3  32.0  34198  290.23 0854.45
2009/04/23 13:46:16.6     178   -373    225    414    471 154.5  30.8  34196  290.19 0854.44
2009/04/23 13:46:16.7     -45   -321    233    325    399 188.1  39.1  34206  290.35 0854.44
2009/04/23 13:46:16.8    -202   -229     20    306    307 221.4   3.9  34196  290.17 0854.44
2009/04/23 13:46:16.9    -192   -231     60    301    307 219.7  11.3  34212  290.46 0854.44
2009/04/23 13:46:17.0    -123   -322    -58    345    350 201.0  -9.6  34210  290.42 0854.44
2009/04/23 13:46:17.1     146   -264     96    303    318 151.0  17.7  34192  290.12 0854.44
2009/04/23 13:46:17.2      -5   -266    119    267    292 181.1  25.3  34202  290.27 0854.44
2009/04/23 13:46:17.3      -9   -312     93    313    327 181.8  16.7  34204  290.31 0854.44
2009/04/23 13:46:17.4     -91   -287     31    302    304 197.6   5.9  34206  290.34 0854.44
2009/04/23 13:46:17.5      81   -149    173    170    242 151.5  50.4  34210  290.43 0854.44
2009/04/23 13:46:17.6       1   -121     90    122    151 179.5  39.7  34212  290.47 0854.44
2009/04/23 13:46:17.7      -3   -161     87    162    183 181.4  30.8  34204  290.33 0854.44
2009/04/23 13:46:17.8    -138   -410     48    433    436 198.7   6.4  34202  290.28 0854.44
2009/04/23 13:46:17.9    -101   -296     36    313    316 198.9   6.6  34198  290.20 0854.44
2009/04/23 13:46:18.0     -46   -249    157    254    298 190.6  34.8  34198  290.20 0854.44
2009/04/23 13:46:18.1      16   -182     83    183    200 174.7  25.9  34200  290.26 0854.44
2009/04/23 13:46:18.2       6   -102     85    103    133 176.4  43.7  34202  290.30 0854.44
2009/04/23 13:46:18.3     -25    -64    130     69    147 201.8  70.4  34206  290.36 0854.44
2009/04/23 13:46:18.4     -15    -80     28     82     87 191.1  19.4  34204  290.31 0854.44
2009/04/23 13:46:18.5     -63    -85     16    107    109 216.5   8.5  34200  290.25 0854.44
2009/04/23 13:46:18.6     -58    -74     38     95    102 218.3  23.0  34204  290.31 0854.45
2009/04/23 13:46:18.7      54    -74     59     92    109 143.9  35.6  34204  290.31 0854.45
2009/04/23 13:46:18.8      20     21    141     30    144  43.4  89.0  34208  290.40 0854.45
2009/04/23 13:46:18.9     -16    -18    113     25    115 221.4  88.5  34206  290.36 0854.45
2009/04/23 13:46:19.0     -53   -165    180    174    250 197.8  50.9  34202  290.28 0854.45
2009/04/23 13:46:19.1     -57   -212    213    220    306 195.1  49.0  34194  290.14 0854.45
2009/04/23 13:46:19.2    -102   -195    188    221    290 207.6  44.8  34206  290.34 0854.45
2009/04/23 13:46:19.3    -158   -221     93    272    288 215.6  18.9  34206  290.34 0854.45
2009/04/23 13:46:19.4    -156   -223    143    273    308 215.0  29.8  34206  290.34 0854.45
2009/04/23 13:46:19.5    -196   -212    107    289    308 222.8  21.0  34206  290.34 0854.45
2009/04/23 13:46:19.6    -285   -204    166    351    388 234.3  27.1  34202  290.28 0854.45
2009/04/23 13:46:19.7    -362    -75    -25    370    371 258.2  -3.9  34212  290.45 0854.45
2009/04/23 13:46:19.8    -354     -5    -33    355    357 269.1  -5.5  34210  290.43 0854.45
2009/04/23 13:46:19.9    -490    -59    -99    494    504 263.0 -11.3  34208  290.37 0854.45
2009/04/23 13:46:20.0    -493    -70   -102    499    510 261.9 -11.6  34208  290.37 0854.45
2009/04/23 13:46:20.1    -436   -130     22    455    456 253.4   2.8  34200  290.26 0854.45
2009/04/23 13:46:20.2    -360   -229    -98    428    440 237.5 -12.9  34212  290.46 0854.45
2009/04/23 13:46:20.3    -342   -180    -86    387    397 242.2 -12.6  34210  290.43 0854.45
2009/04/23 13:46:20.4    -382   -253   -128    459    476 236.5 -20.2  34212  290.44 0854.45
2009/04/23 13:46:20.5    -492   -247    -94    551    559 243.3  -9.7  34202  290.30 0854.45
2009/04/23 13:46:20.6    -394   -292   -127    491    508 233.5 -14.5  34212  290.45 0854.44
2009/04/23 13:46:20.7    -484   -182    -29    518    519 249.4  -3.3  34198  290.20 0854.44
2009/04/23 13:46:20.8    -633   -111   -126    643    656 260.0 -11.1  34202  290.30 0854.44
2009/04/23 13:46:20.9    -498    -53    146    501    522 263.9  16.3  34202  290.30 0854.44
2009/04/23 13:46:21.0    -459   -181     24    494    495 248.5   2.8  34214  290.49 0854.44
2009/04/23 13:46:21.1    -470   -194   -102    509    520 247.5 -11.3  34208  290.39 0854.44
2009/04/23 13:46:21.2    -271   -259    -34    376    378 226.3  -5.2  34214  290.50 0854.44
2009/04/23 13:46:21.3    -139   -190      7    236    237 216.1   1.8  34212  290.44 0854.44
2009/04/23 13:46:21.4    -271   -368    -10    458    459 216.4  -1.3  34216  290.51 0854.44
2009/04/23 13:46:21.5    -105   -296    -17    315    316 199.6  -3.2  34222  290.61 0854.44
2009/04/23 13:46:21.6     -89   -241     45    258    263 200.3  10.0  34214  290.48 0854.44
2009/04/23 13:46:21.7       3   -241     82    242    256 179.1  18.9  34210  290.42 0854.44
2009/04/23 13:46:21.8      23   -120    133    123    181 168.9  52.2  34202  290.30
    -17    -73    158     76    175 193.4  72.7  34202  290.30
     82   -174    157    193    248 154.6  43.5  34202  290.30
      5   -148     70    149    164 177.8  27.0  34204  290.31
     49   -110     74    121    141 155.9  34.4  34202  290.30
    111   -114     98    160    187 135.9  34.8  34202  290.30 0854.44
2009/04/23 13:46:22.5     -40    -81     83     91    123 206.3  47.9  34204  290.31 0854.46
2009/04/23 13:46:22.6     -23    -71    109     75    132 198.5  62.6  34204  290.31 0854.46
2009/04/23 13:46:22.7    -107    -83     65    136    150 232.2  27.2  34204  290.31 0854.46
2009/04/23 13:46:22.8      -9     12      5     16     17 323.9  18.9  34202  290.30 0854.46
2009/04/23 13:46:22.9     128      7      8    129    130  86.5   3.8  34202  290.28 0854.46
2009/04/23 13:46:23.0     138     -6     16    139    141  92.6   6.9  34204  290.33 0854.46
2009/04/23 13:46:23.1      71   -109    -74    131    150 147.0 -35.8  34204  290.31 0854.46
2009/04/23 13:46:23.2      71   -156     41    172    177 155.5  13.7  34204  290.31 0854.46
2009/04/23 13:46:23.3     128   -154     47    201    207 140.4  13.2  34200  290.26 0854.46
2009/04/23 13:46:23.4     194    -29    -68    197    208  98.6 -23.8  34202  290.28 0854.46
2009/04/23 13:46:23.5     135    -39    -42    141    147 106.4 -21.7  34202  290.30 0854.46
2009/04/23 13:46:23.6      66    -71    -80     98    126 137.2 -48.1  34206  290.35 0854.46
2009/04/23 13:46:23.7     161   -139     41    213    217 130.9  11.0  34202  290.28 0854.46
2009/04/23 13:46:23.8     151   -185    103    240    261 140.8  24.6  34202  290.29 0854.46
2009/04/23 13:46:23.9     153   -131    114    202    231 130.7  31.9  34202  290.28 0854.46
2009/04/23 13:46:24.0     -11    105    111    106    153 353.8  51.2  34206  290.35 0854.46
2009/04/23 13:46:24.1      -8    228    175    229    288 357.8  41.6  34202  290.27 0854.46
2009/04/23 13:46:24.2      10    322    162    323    361   1.8  28.6  34208  290.38 0854.46
2009/04/23 13:46:24.3     -36    213     -4    217    218 350.3  -1.3  34206  290.35 0854.46
2009/04/23 13:46:24.4     -79    260    159    272    315 343.0  33.0  34202  290.29 0854.46
2009/04/23 13:46:24.5     -96    170    133    196    236 330.6  37.4  34206  290.36 0854.46
2009/04/23 13:46:24.6     -21    151    176    153    233 351.9  54.6  34208  290.38 0854.46
2009/04/23 13:46:24.7     -32    110    135    115    177 343.5  55.4  34208  290.38 0854.46
2009/04/23 13:46:24.8      27     84    111     89    142  18.3  56.4  34208  290.40 0854.46
2009/04/23 13:46:24.9     -26    135    123    138    184 348.9  46.4  34210  290.41 0854.46
2009/04/23 13:46:25.0     118     77     96    142    171  56.7  37.3  34206  290.36 0854.46
2009/04/23 13:46:25.1      94    117    154    151    215  38.7  50.4  34212  290.45 0854.46
2009/04/23 13:46:25.2      72     67     70     99    121  46.9  39.1  34218  290.55 0854.46
2009/04/23 13:46:25.3     153     41    192    159    249  75.0  56.3  34258  291.25 0854.46
2009/04/23 13:46:25.4      88     17    172     90    194  78.5  70.0  34262  291.30 0854.46
2009/04/23 13:46:25.5      54    -19    144     58    155 110.0  77.1  34264  291.35 0854.46
2009/04/23 13:46:25.6     414      0     -5    415    416  90.0  -0.7  34268  291.41 0854.46
2009/04/23 13:46:25.7     469    113    274    483    555  76.4  32.1  34308  292.10 0854.46
2009/04/23 13:46:25.8     508    178    313    539    623  70.7  32.8  34334  292.53 0854.46
2009/04/23 13:46:25.9     538    204    392    576    696  69.2  37.6  34308  292.09 0854.46
2009/04/23 13:46:26.0     666    241    337    709    785  70.1  27.3  34244  290.99 0854.46
2009/04/23 13:46:26.1     572    446    257    726    771  52.0  19.5  34216  290.53 0854.46
2009/04/23 13:46:26.2     998    379    217   1068   1090  69.2  11.5  34248  291.05 0854.46
2009/04/23 13:46:26.4    1112    317    437   1157   1236  74.1  21.8  34256  291.21 0854.46
2009/04/23 13:46:26.4    1136    249    202   1164   1182  77.6   9.9  34226  290.68 0854.46
2009/04/23 13:46:26.5    1268    378    226   1324   1344  73.4   9.7  34230  290.76 0854.46
2009/04/23 13:46:26.6     878    384    152    959    972  66.4   9.0  34246  291.04 0854.46
2009/04/23 13:46:26.7     696    -63    250    699    742  95.2  20.6  34218  290.56 0854.46
2009/04/23 13:46:26.8     603    236     29    648    649  68.6   2.6  34234  290.82 0854.46
2009/04/23 13:46:26.9     782    317     80    844    848  67.9   5.4  34216  290.51 0854.46
2009/04/23 13:46:27.0     910    308     28    961    962  71.3   1.7  34226  290.70 0854.46
2009/04/23 13:46:27.1     923    327    -82    980    984  70.5  -4.8  34216  290.53 0854.46
2009/04/23 13:46:27.2     674    289   -188    734    758  66.8 -14.4  34202  290.28 0854.46
2009/04/23 13:46:27.3     649    -71    -86    653    659  96.3  -7.6  34198  290.22 0854.46
2009/04/23 13:46:27.4     609   -344    -73    700    704 119.5  -6.0  34204  290.32 0854.46
2009/04/23 13:46:27.5     446   -234   -151    504    526 117.7 -21.7  34194  290.14 0854.45
2009/04/23 13:46:27.6     598     92    215    606    644  81.2  19.6  34188  290.04 0854.45
2009/04/23 13:46:27.7     428    114    377    444    582  75.0  44.7  34226  290.69 0854.45
2009/04/23 13:46:27.8     461     93    469    471    664  78.5  50.0  34238  290.88 0854.45
2009/04/23 13:46:27.9     454    149    553    478    730  71.8  54.9  34264  291.33 0854.45
2009/04/23 13:46:28.0     498    175    585    528    788  70.6  53.4  34244  291.01 0854.45
2009/04/23 13:46:28.1     355   -404    345    538    639 138.7  35.7  34216  290.51 0854.45
2009/04/23 13:46:28.2     347   -423    432    548    697 140.7  42.3  34202  290.28 0854.45
2009/04/23 13:46:28.3     635   -242    425    680    801 110.9  35.0  34198  290.23 0854.45
2009/04/23 13:46:28.4     687   -365    433    779    891 118.0  31.4  34196  290.19 0854.45
2009/04/23 13:46:28.5     643   -324    403    721    825 116.8  31.7  34198  290.22 0854.45
2009/04/23 13:46:28.6     627   -316    389    703    803 116.8  31.4  34190  290.07 0854.45
2009/04/23 13:46:28.7     621    -87    530    628    821  98.0  44.5  34190  290.09 0854.45
2009/04/23 13:46:28.8     380    -67    447    387    591 100.1  54.8  34198  290.23 0854.45
2009/04/23 13:46:28.9     371   -178    457    412    615 115.7  53.4  34196  290.19 0854.45
2009/04/23 13:46:29.0     354   -305    297    468    554 130.8  35.5  34194  290.16 0854.45
2009/04/23 13:46:29.1     260   -165    329    309    451 122.5  52.1  34188  290.05 0854.45
2009/04/23 13:46:29.2     153     81    263    174    315  62.0  63.5  34218  290.56 0854.45
2009/04/23 13:46:29.3     396   -100    309    409    512 104.3  40.8  34196  290.18 0854.45
2009/04/23 13:46:29.4     295    -69    354    303    465 103.2  55.3  34208  290.38 0854.45
2009/04/23 13:46:29.5     475   -119    285    490    566 104.1  32.9  34194  290.14 0854.44
2009/04/23 13:46:29.6     363   -238    273    435    513 123.3  35.1  34194  290.15 0854.44
2009/04/23 13:46:29.7     471   -429    179    638    663 132.3  15.7  34192  290.13 0854.44
2009/04/23 13:46:29.8     506   -294    270    586    645 120.1  26.5  34190  290.08 0854.44
2009/04/23 13:46:29.9     476   -392    223    617    656 129.5  20.8  34180  289.92 0854.44
2009/04/23 13:46:30.0     459   -365    258    587    641 128.5  25.3  34164  289.64 0854.44
2009/04/23 13:46:30.1     383   -228    249    446    510 120.8  31.5  34158  289.54 0854.44
2009/04/23 13:46:30.2     351   -107    277    368    460 107.0  40.7  34162  289.60 0854.44
2009/04/23 13:46:30.3     289   -171    157    336    370 120.6  27.0  34172  289.77 0854.44
2009/04/23 13:46:30.4     231   -373    168    439    470 148.3  22.0  34182  289.94 0854.44
2009/04/23 13:46:30.5     205   -331     73    390    397 148.3  10.7  34178  289.86 0854.44
2009/04/23 13:46:30.6     211   -312    122    377    397 145.9  17.9  34182  289.94 0854.44
2009/04/23 13:46:30.7      95   -459     65    469    474 168.2   7.9  34182  289.93 0854.44
2009/04/23 13:46:30.8     270   -497     91    566    574 151.5   9.2  34176  289.83 0854.44
2009/04/23 13:46:30.9     205   -436    158    482    508 154.8  18.1  34178  289.88 0854.44
2009/04/23 13:46:31.0      -7   -453    158    454    481 180.9  19.2  34166  289.67 0854.44
2009/04/23 13:46:31.1     -14   -605    193    606    636 181.4  17.7  34178  289.87 0854.44
2009/04/23 13:46:31.2     -58   -563    205    567    602 186.0  20.8  34174  289.81 0854.44
2009/04/23 13:46:31.3    -175   -339    108    382    398 207.3  15.8  34180  289.91 0854.44
2009/04/23 13:46:31.5    -231   -217    145    317    348 226.8  26.4  34176  289.84 0854.44
2009/04/23 13:46:31.5    -193   -244    172    312    356 218.3  31.4  34172  289.79 0854.44
2009/04/23 13:46:31.7    -137   -262     41    296    299 207.6   8.0  34168  289.70 0854.44
2009/04/23 13:46:31.7      75   -323   -105    332    349 166.8 -17.6  34174  289.82 0854.44
2009/04/23 13:46:31.9      13   -291   -137    292    322 177.4 -31.5  34182  289.95 0854.44
2009/04/23 13:46:32.0     -26   -229   -152    231    276 186.5 -40.9  34178  289.88 0854.44
2009/04/23 13:46:32.0     -83   -122   -152    148    212 214.2 -54.8  34184  289.99 0854.44
2009/04/23 13:46:32.2    -125   -218    -82    252    265 209.9 -23.6  34178  289.88 0854.44
2009/04/23 13:46:32.3    -237   -148    -95    280    295 238.0 -23.6  34178  289.86 0854.44
2009/04/23 13:46:32.4    -167   -172   -112    240    264 224.1 -31.5  34174  289.80 0854.44
2009/04/23 13:46:32.5    -121    -94    -52    154    162 232.2 -23.6  34174  289.80 0854.44
2009/04/23 13:46:32.6       0   -106     90    107    139 179.5  43.8  34176  289.84 0854.44
2009/04/23 13:46:32.7     -62   -186    -65    197    208 198.5 -18.3  34170  289.75 0854.44
2009/04/23 13:46:32.8     -57   -239    -76    246    257 193.4 -22.1  34172  289.78 0854.44
2009/04/23 13:46:32.9     -15   -264   -125    265    293 183.4 -31.5  34174  289.80 0854.44
2009/04/23 13:46:33.0      84   -360   -106    370    386 166.7 -16.0  34168  289.71 0854.44
2009/04/23 13:46:33.1      56   -422    -27    426    427 172.3  -3.7  34162  289.61 0854.44
2009/04/23 13:46:33.2      39   -381     10    384    385 174.0   1.6  34164  289.65 0854.44
2009/04/23 13:46:33.3      19   -305     34    306    308 176.4   6.5  34170  289.73 0854.44
2009/04/23 13:46:33.4       7   -311    -48    312    316 178.6  -8.8  34166  289.66 0854.44
2009/04/23 13:46:33.5      57   -236    -49    243    249 166.4 -11.6  34164  289.64 0854.44
2009/04/23 13:46:33.6      56   -239    -24    246    248 166.7  -5.6  34166  289.66 0854.45
2009/04/23 13:46:33.7      89   -269    -46    284    288 161.5  -9.3  34160  289.58 0854.45
2009/04/23 13:46:33.8     108   -248     47    271    276 156.4  10.0  34164  289.63 0854.45
2009/04/23 13:46:33.9      93   -300     49    315    319 162.8   8.9  34160  289.58 0854.45
2009/04/23 13:46:34.0     165   -372    141    408    432 156.1  19.1  34154  289.46 0854.45
2009/04/23 13:46:34.1     150   -303    120    339    359 153.6  20.2  34152  289.45 0854.45
2009/04/23 13:46:34.2     209   -371     48    427    430 150.6   6.5  34158  289.55 0854.45
2009/04/23 13:46:34.3     227   -376     90    440    450 148.9  11.6  34154  289.48 0854.45
2009/04/23 13:46:34.4     111   -395     26    411    412 164.2   3.7  34156  289.49 0854.45
2009/04/23 13:46:34.5      98   -378    145    391    417 165.4  21.4  34154  289.46 0854.45
2009/04/23 13:46:34.6     178   -307    184    355    399 149.9  29.5  34156  289.52 0854.45
2009/04/23 13:46:34.7     259   -358    135    443    464 144.1  17.0  34160  289.58 0854.45
2009/04/23 13:46:34.8     201   -407    182    454    489 153.7  23.0  34162  289.61 0854.45
2009/04/23 13:46:34.9     210   -368    159    424    452 150.2  21.6  34158  289.55 0854.45
2009/04/23 13:46:35.0     254   -411    170    484    514 148.3  19.4  34166  289.67 0854.45
2009/04/23 13:46:35.1     190   -408    160    451    479 155.0  19.6  34164  289.64 0854.45
2009/04/23 13:46:35.2     261   -494    239    559    607 152.1  24.6  34166  289.69 0854.45
2009/04/23 13:46:35.3     225   -484    238    534    584 155.1  25.6  34160  289.58 0854.45
2009/04/23 13:46:35.4      64   -288    224    296    371 167.3  40.9  34166  289.69 0854.45
2009/04/23 13:46:35.5      20   -395    248    396    467 177.1  35.5  34168  289.72 0854.45
2009/04/23 13:46:35.6    -122   -518    271    533    597 193.3  29.2  34172  289.78 0854.44
2009/04/23 13:46:35.7      -5   -542    286    543    613 180.6  30.1  34170  289.73 0854.44
2009/04/23 13:46:35.8     -32   -435    235    437    496 184.2  30.7  34162  289.61 0854.44
2009/04/23 13:46:35.9      38   -226    104    230    252 170.4  26.2  34166  289.68 0854.44
2009/04/23 13:46:36.0      59   -285    201    292    354 168.2  37.8  34164  289.64 0854.44
2009/04/23 13:46:36.1     213   -386    173    441    473 151.1  22.5  34164  289.63 0854.44
2009/04/23 13:46:36.2      60   -514    266    518    582 173.3  29.3  34170  289.74 0854.44
2009/04/23 13:46:36.3     -24   -511    309    512    598 182.8  34.0  34176  289.83 0854.44
2009/04/23 13:46:36.4     -21   -461    393    462    606 182.7  44.8  34176  289.85 0854.44
2009/04/23 13:46:36.5    -177   -535    326    564    651 198.3  32.7  34178  289.89 0854.44
2009/04/23 13:46:36.6    -244   -371    195    445    485 213.4  25.2  34174  289.81 0854.44
2009/04/23 13:46:36.7     107   -451    209    464    508 166.6  25.8  34172  289.76 0854.44
2009/04/23 13:46:36.8     376   -324    251    497    556 130.8  28.8  34162  289.62 0854.44
2009/04/23 13:46:36.9     346   -492    189    602    632 144.9  17.4  34166  289.69 0854.44
2009/04/23 13:46:37.0     324   -526    197    618    649 148.4  17.7  34168  289.70 0854.44
2009/04/23 13:46:37.1     174   -490    366    521    636 160.4  38.5  34172  289.78 0854.44
2009/04/23 13:46:37.2     155   -514    210    537    576 163.2  22.5  34168  289.70 0854.44
2009/04/23 13:46:37.3     158   -385     58    417    422 157.7   8.0  34164  289.65 0854.44
2009/04/23 13:46:37.4     -69   -383    172    390    426 190.2  25.3  34168  289.72 0854.44
2009/04/23 13:46:37.5      -9   -314     57    315    321 181.8  10.3  34170  289.75 0854.44
2009/04/23 13:46:37.6      24   -313      4    315    316 175.5   0.8  34172  289.76 0854.45
2009/04/23 13:46:37.7     -35   -299     24    302    303 186.7   4.6  34172  289.76 0854.45
2009/04/23 13:46:37.8     -73   -330     45    339    342 192.6   7.6  34172  289.77 0854.45
2009/04/23 13:46:37.9     -41   -242     12    246    247 189.8   2.9  34168  289.70 0854.45
2009/04/23 13:46:38.0       3   -228     78    229    243 179.1  18.9  34172  289.76 0854.45
2009/04/23 13:46:38.1      24   -435     33    436    438 176.8   4.4  34170  289.73 0854.45
2009/04/23 13:46:38.2     -65   -298    151    306    341 192.3  28.2  34174  289.82 0854.45
2009/04/23 13:46:38.3    -156   -209    197    262    327 216.7  40.8  34178  289.86 0854.45
2009/04/23 13:46:38.4      70   -182    129    196    234 158.8  36.0  34172  289.77 0854.45
2009/04/23 13:46:38.5      71   -216     98    228    248 161.7  24.9  34172  289.76 0854.45
2009/04/23 13:46:38.6      45   -240    165    245    295 169.3  37.4  34170  289.75 0854.45
2009/04/23 13:46:38.7     125   -211    157    246    291 149.3  35.6  34172  289.78 0854.45
2009/04/23 13:46:38.8     147   -130    111    197    226 131.6  31.9  34172  289.77 0854.45
2009/04/23 13:46:38.9     177    -91    160    200    256 117.3  42.8  34182  289.93 0854.45
2009/04/23 13:46:39.0     193    -87    170    212    271 114.4  43.0  34186  290.02 0854.45
2009/04/23 13:46:39.1     230    -37    181    234    295  99.2  41.7  34214  290.48 0854.45
2009/04/23 13:46:39.2     237     17    134    238    273  85.7  31.9  34232  290.80 0854.45
2009/04/23 13:46:39.3      28      4    163     29    165  80.3  90.0  34218  290.55 0854.45
2009/04/23 13:46:39.4      78   -166    123    184    221 154.8  36.7  34200  290.25 0854.45
2009/04/23 13:46:39.5      49     59     80     77    111  39.6  51.2  34198  290.21 0854.45
2009/04/23 13:46:39.6     152     53    250    162    297  70.7  64.4  34200  290.26 0854.45
2009/04/23 13:46:39.7      45    -84    199     96    220 151.5  72.8  34198  290.21 0854.45
2009/04/23 13:46:39.8     172   -172    181    244    303 134.9  40.1  34182  289.93 0854.45
2009/04/23 13:46:39.9     201    -95    211    223    307 115.4  48.0  34182  289.95 0854.45
2009/04/23 13:46:40.0     152    -67    116    167    203 114.0  37.8  34178  289.89 0854.45
2009/04/23 13:46:40.1     178    -24    157    180    238  97.9  45.6  34182  289.94 0854.45
2009/04/23 13:46:40.2     162   -157    181    226    289 134.2  42.8  34178  289.88 0854.45
2009/04/23 13:46:40.3     119   -200     82    233    247 149.3  20.0  34178  289.88 0854.45
2009/04/23 13:46:40.4    -109   -239    152    263    303 204.5  32.4  34182  289.95 0854.45
2009/04/23 13:46:40.5      20   -184    249    186    310 173.5  59.8  34182  289.93 0854.45
2009/04/23 13:46:40.6     -41   -239    220    243    327 189.8  46.9  34184  289.98 0854.45
2009/04/23 13:46:40.7     -33   -161    108    165    197 191.8  36.3  34184  289.99 0854.45
2009/04/23 13:46:40.8     -75   -189    180    204    272 201.8  45.9  34188  290.05 0854.45
2009/04/23 13:46:40.9     -77   -139    204    160    259 209.0  57.9  34188  290.06 0854.45
2009/04/23 13:46:41.0      35    -32    131     48    139 133.1  79.2  34184  289.99 0854.45
2009/04/23 13:46:41.1      67   -162    155    176    234 157.3  45.8  34180  289.91 0854.45
2009/04/23 13:46:41.2      27    -48     97     56    112 151.0  67.7  34178  289.89 0854.45
2009/04/23 13:46:41.3      -9    -91    102     92    137 185.8  52.7  34174  289.82 0854.45
2009/04/23 13:46:41.4       2    -90    143     91    169 178.2  64.7  34176  289.85 0854.45
2009/04/23 13:46:41.5    -167   -229    115    284    306 216.1  23.1  34170  289.73 0854.45
2009/04/23 13:46:41.6    -240    -70     73    251    262 253.6  16.3  34174  289.81 0854.45
2009/04/23 13:46:41.7    -265   -183    -27    323    325 235.4  -4.8  34164  289.64 0854.45
2009/04/23 13:46:41.8    -214   -207    -89    298    312 226.0 -16.6  34154  289.47 0854.45
2009/04/23 13:46:41.9    -251   -117    -45    278    282 244.9  -9.3  34160  289.58 0854.45
2009/04/23 13:46:42.0    -387   -105     20    402    403 254.8   2.9  34162  289.60 0854.45
2009/04/23 13:46:42.1    -443    -59     18    447    448 262.3   2.4  34150  289.41 0854.45
2009/04/23 13:46:42.2    -546   -152    -22    567    568 254.4  -2.2  34152  289.45 0854.45
2009/04/23 13:46:42.3    -638    -79     65    643    647 262.9   5.8  34142  289.28 0854.45
2009/04/23 13:46:42.4    -563    -34     50    565    568 266.5   5.1  34150  289.41 0854.45
2009/04/23 13:46:42.5    -476   -217    230    524    572 245.5  25.2  34164  289.65 0854.45
2009/04/23 13:46:42.6    -295   -370    289    474    555 218.5  34.4  34162  289.62 0854.45
2009/04/23 13:46:42.7    -176   -329    214    374    430 208.1  32.3  34164  289.63 0854.45
2009/04/23 13:46:42.8     -90   -380    200    391    439 193.4  29.2  34166  289.68 0854.45
2009/04/23 13:46:42.9    -203   -378    110    430    444 208.3  14.4  34168  289.72 0854.45
2009/04/23 13:46:43.0    -244   -248     45    348    351 224.5   7.4  34176  289.84 0854.45
2009/04/23 13:46:43.1    -437   -428   -143    612    629 225.6 -13.2  34154  289.47 0854.45
2009/04/23 13:46:43.2    -404   -600     41    724    726 214.0   3.2  34148  289.37 0854.45
2009/04/23 13:46:43.3    -641   -555   -172    849    867 229.1 -11.5  34150  289.41 0854.45
2009/04/23 13:46:43.4    -758   -394   -118    855    864 242.5  -7.9  34142  289.26 0854.45
2009/04/23 13:46:43.5    -741   -430   -134    857    868 239.9  -8.9  34136  289.17 0854.45
2009/04/23 13:46:43.6    -653   -227    -56    692    695 250.8  -4.7  34138  289.21 0854.43
2009/04/23 13:46:43.7    -666   -539     43    857    859 231.0   2.9  34140  289.22 0854.43
2009/04/23 13:46:43.8    -266   -515    135    580    596 207.4  13.1  34146  289.32 0854.43
2009/04/23 13:46:43.9    -669   -378    -16    769    770 240.5  -1.3  34134  289.14 0854.43
2009/04/23 13:46:44.0    -849   -381   -180    931    949 245.8 -11.0  34136  289.15 0854.43
2009/04/23 13:46:44.1    -801   -530   -329    961   1016 236.5 -18.9  34138  289.20 0854.43
2009/04/23 13:46:44.2    -798   -394   -261    890    927 243.7 -21.1  34132  289.09 0854.43
2009/04/23 13:46:44.3    -615   -405    -17    737    738 236.6  -1.4  34150  289.40 0854.43
2009/04/23 13:46:44.4    -578   -375   -154    690    708 237.0 -12.6  34156  289.50 0854.43
2009/04/23 13:46:44.5    -458   -467   -224    655    693 224.4 -18.9  34148  289.38 0854.43
2009/04/23 13:46:44.6    -522   -303   -166    604    626 239.9 -20.0  34162  289.59 0854.43
2009/04/23 13:46:44.7    -613   -494   -316    788    848 231.2 -27.5  34150  289.40 0854.43
2009/04/23 13:46:44.8    -602   -301   -177    674    697 243.4 -14.8  34152  289.44 0854.43
2009/04/23 13:46:44.9    -677   -233   -197    717    744 251.0 -15.4  34146  289.33 0854.43
2009/04/23 13:46:45.0    -883   -236   -294    915    961 255.0 -22.9  34142  289.27 0854.43
2009/04/23 13:46:45.1    -788   -169   -267    807    850 257.9 -23.6  34148  289.36 0854.43
2009/04/23 13:46:45.2    -606    -79   -174    612    637 262.6 -15.9  34156  289.50 0854.43
2009/04/23 13:46:45.3    -593   -216   -205    632    664 250.0 -23.0  34132  289.11 0854.43
2009/04/23 13:46:45.4    -528   -111    -43    540    542 258.1  -4.6  34160  289.57 0854.43
2009/04/23 13:46:45.5    -323   -122   -246    346    424 249.3 -43.4  34132  289.11 0854.43
2009/04/23 13:46:45.6    -662    -54   -291    665    725 265.3 -29.6  34156  289.49 0854.42
2009/04/23 13:46:45.7    -606    -85   -174    613    637 262.0 -20.5  34142  289.25 0854.42
2009/04/23 13:46:45.8    -492   -195   -288    530    603 248.3 -35.3  34140  289.24 0854.42
2009/04/23 13:46:45.9    -507   -509    -92    719    725 224.9  -7.3  34150  289.39 0854.42
2009/04/23 13:46:46.0    -446   -312   -165    545    569 235.0 -21.7  34140  289.23 0854.42
2009/04/23 13:46:46.1    -232   -258   -257    348    432 222.0 -44.5  34154  289.48 0854.42
2009/04/23 13:46:46.2    -658   -202   -341    689    768 252.9 -32.6  34144  289.29 0854.42
2009/04/23 13:46:46.3    -577   -373   -255    688    733 237.1 -25.7  34150  289.39 0854.42
2009/04/23 13:46:46.4    -617   -110   -297    627    693 259.9 -31.6  34134  289.12 0854.42
2009/04/23 13:46:46.5    -584   -193   -221    616    654 251.7 -25.0  34146  289.33 0854.42
2009/04/23 13:46:46.6    -605   -185   -276    633    690 253.0 -29.5  34144  289.31 0854.42
2009/04/23 13:46:46.7    -661   -241   -322    704    774 250.0 -30.8  34146  289.34 0854.42
2009/04/23 13:46:46.8    -708   -193   -401    735    837 254.7 -35.6  34152  289.42 0854.42
2009/04/23 13:46:46.9    -727   -342   -241    804    839 244.8 -21.6  34132  289.09 0854.42
2009/04/23 13:46:47.0    -540   -334   -194    636    666 238.3 -17.0  34144  289.31 0854.42
2009/04/23 13:46:47.1    -494    -97   -138    504    523 258.9 -15.4  34134  289.12 0854.42
2009/04/23 13:46:47.2    -491   -157   -157    516    540 252.2 -17.0  34126  289.01 0854.42
2009/04/23 13:46:47.3    -612   -177   -227    638    678 253.9 -19.6  34144  289.29 0854.42
2009/04/23 13:46:47.4    -659   -132   -201    673    703 258.7 -16.7  34150  289.39 0854.42
2009/04/23 13:46:47.5    -622   -261   -129    675    688 247.2 -10.8  34154  289.46 0854.42
2009/04/23 13:46:47.6    -500   -351   -147    612    630 234.9 -13.6  34152  289.43 0854.42
2009/04/23 13:46:47.7    -549   -200   -176    585    611 250.0 -16.8  34164  289.64 0854.42
2009/04/23 13:46:47.8    -633   -281   -140    693    707 246.0 -11.5  34158  289.54 0854.42
2009/04/23 13:46:47.9    -463   -313    -75    560    566 235.9  -7.7  34160  289.57 0854.42
2009/04/23 13:46:48.0    -441   -193   -133    482    501 246.4 -15.4  34162  289.61 0854.42
2009/04/23 13:46:48.1    -409   -192   -137    453    473 244.8 -21.7  34162  289.62 0854.42
2009/04/23 13:46:48.2    -385   -189   -103    430    443 243.8 -13.6  34164  289.63 0854.42
2009/04/23 13:46:48.3    -380    -54   -122    384    404 261.9 -17.7  34162  289.60 0854.42
2009/04/23 13:46:48.4    -438    -96   -136    449    469 257.6 -21.7  34158  289.53 0854.42
2009/04/23 13:46:48.5    -391    -71   -129    398    419 259.6 -18.0  34150  289.41 0854.42
2009/04/23 13:46:48.6    -413   -111   -118    428    445 254.9 -15.5  34144  289.29 0854.42
2009/04/23 13:46:48.7    -311   -226    -76    385    393 234.0 -11.2  34162  289.59 0854.42
2009/04/23 13:46:48.8    -322   -144   -107    353    368 245.8 -21.8  34154  289.47 0854.42
2009/04/23 13:46:48.9    -289   -168    -94    335    347 239.8 -20.3  34156  289.50 0854.42
2009/04/23 13:46:49.0    -269   -179    -75    324    333 236.3 -13.1  34156  289.50 0854.42
2009/04/23 13:46:49.1    -302   -150   -109    338    355 243.6 -22.9  34142  289.25 0854.42
2009/04/23 13:46:49.2    -311   -154    -98    348    361 243.6 -20.4  34140  289.23 0854.42
2009/04/23 13:46:49.3    -290   -181   -104    343    358 238.0 -21.7  34142  289.25 0854.42
2009/04/23 13:46:49.4    -289   -208   -127    357    378 234.3 -24.8  34144  289.30 0854.42
2009/04/23 13:46:49.5    -244   -215   -140    326    354 228.7 -29.3  34146  289.33 0854.42
2009/04/23 13:46:49.6    -244   -226   -143    333    362 227.2 -29.3  34146  289.32 0854.42
2009/04/23 13:46:49.7    -257   -224   -151    342    373 228.9 -29.6  34146  289.32 0854.42
2009/04/23 13:46:49.8    -285   -224   -172    363    401 231.8 -31.6  34146  289.35 0854.42
2009/04/23 13:46:49.9    -304   -210   -181    370    411 235.4 -32.4  34146  289.35 0854.42
2009/04/23 13:46:50.0    -277   -194   -167    339    377 235.0 -32.5  34146  289.33 0854.42
2009/04/23 13:46:50.1    -333   -163   -165    371    406 243.9 -30.1  34148  289.38 0854.42
2009/04/23 13:46:50.2    -336   -152   -188    369    414 245.6 -33.6  34152  289.43 0854.42
2009/04/23 13:46:50.3    -331   -162   -170    369    406 243.8 -30.8  34152  289.42 0854.42
2009/04/23 13:46:50.4    -350   -134   -194    376    423 249.0 -33.7  34150  289.41 0854.42
2009/04/23 13:46:50.5    -364   -121   -191    384    428 251.6 -32.6  34150  289.39 0854.42
2009/04/23 13:46:50.6    -321   -113   -205    341    397 250.6 -38.4  34152  289.43 0854.41
2009/04/23 13:46:50.7    -273   -177   -173    326    369 236.9 -34.6  34152  289.45 0854.41
2009/04/23 13:46:50.8    -207   -181    -87    276    290 228.9 -17.5  34156  289.49 0854.41
2009/04/23 13:46:50.9    -201   -181    -75    271    282 228.0 -15.5  34154  289.47 0854.41
2009/04/23 13:46:51.0    -196   -324    -83    379    389 211.2 -12.4  34156  289.50 0854.41
2009/04/23 13:46:51.1    -174   -229    -74    288    298 217.2 -14.4  34154  289.46 0854.41
2009/04/23 13:46:51.2    -136   -358     11    384    385 200.8   1.7  34156  289.50 0854.41
2009/04/23 13:46:51.3    -238   -291   -120    377    396 219.3 -17.7  34158  289.54 0854.41
2009/04/23 13:46:51.4    -240   -395     13    463    464 211.3   1.7  34156  289.49 0854.41
2009/04/23 13:46:51.5    -268   -429    -77    507    513 212.0  -8.7  34158  289.54 0854.41
2009/04/23 13:46:51.6    -138   -367    -65    393    399 200.7  -9.4  34154  289.48 0854.41
2009/04/23 13:46:51.7     -50   -347    -26    351    352 188.3  -4.4  34158  289.55 0854.41
2009/04/23 13:46:51.8     -77   -271    -73    282    292 196.0 -14.5  34158  289.53 0854.41
2009/04/23 13:46:51.9     -42   -187     19    192    193 192.9   5.7  34154  289.48 0854.41
2009/04/23 13:46:52.0    -103   -137     66    172    184 217.0  22.0  34154  289.48 0854.41
2009/04/23 13:46:52.1    -182   -102    115    209    238 240.7  31.4  34166  289.67 0854.41
2009/04/23 13:46:52.2    -228   -236    103    329    345 224.0  17.5  34178  289.87 0854.41
2009/04/23 13:46:52.3    -252   -264     74    366    374 223.7  11.5  34164  289.65 0854.41
2009/04/23 13:46:52.4    -338   -137    189    365    411 247.9  29.5  34162  289.60 0854.41
2009/04/23 13:46:52.5    -565   -352    103    666    674 238.1   8.8  34160  289.58 0854.41
2009/04/23 13:46:52.6    -527   -284     59    599    602 241.6   5.7  34170  289.75 0854.43
2009/04/23 13:46:52.7    -421   -264    160    497    523 237.9  17.9  34166  289.67 0854.43
2009/04/23 13:46:52.8    -332   -329    189    468    504 225.3  23.1  34166  289.67 0854.43
2009/04/23 13:46:52.9    -225   -295    220    372    432 217.4  33.4  34172  289.78 0854.43
2009/04/23 13:46:53.0    -274   -109    281    295    407 248.3  48.7  34188  290.03 0854.43
2009/04/23 13:46:53.1    -282     42    210    286    354 278.6  39.9  34232  290.79 0854.43
2009/04/23 13:46:53.2    -277     -3    185    278    333 269.2  36.9  34228  290.73 0854.43
2009/04/23 13:46:53.3    -198    -94    183    220    286 244.7  43.8  34230  290.75 0854.43
2009/04/23 13:46:53.4    -168     -8    207    169    267 267.2  56.4  34220  290.58 0854.43
2009/04/23 13:46:53.5    -230     75    222    243    329 288.2  47.3  34208  290.37 0854.43
2009/04/23 13:46:53.6    -176      0    165    177    241 270.0  47.9  34206  290.35 0854.43
2009/04/23 13:46:53.7    -208   -334    140    394    418 212.0  20.3  34176  289.83 0854.43
2009/04/23 13:46:53.8    -116   -382    139    400    424 197.0  19.2  34168  289.70 0854.43
2009/04/23 13:46:53.9     -21   -260    216    261    338 184.7  43.8  34184  289.97 0854.43
2009/04/23 13:46:54.0     -49   -231    222    237    324 192.0  48.0  34170  289.75 0854.43
2009/04/23 13:46:54.1     -89   -137     87    164    185 213.2  30.1  34192  290.13 0854.43
2009/04/23 13:46:54.2    -208   -106     -9    234    235 242.9  -2.2  34214  290.48 0854.43
2009/04/23 13:46:54.3    -128   -106     48    167    174 230.2  16.3  34212  290.45 0854.43
2009/04/23 13:46:54.4      22   -174    104    176    204 172.7  33.5  34174  289.80 0854.43
2009/04/23 13:46:54.5      83   -136    115    160    197 148.4  39.3  34166  289.69 0854.43
2009/04/23 13:46:54.6     104   -124    114    163    198 139.9  38.4  34170  289.74 0854.43
2009/04/23 13:46:54.7     120   -109    119    163    201 132.2  39.7  34166  289.69 0854.43
2009/04/23 13:46:54.8       7    -80    175     81    192 174.7  73.2  34168  289.70 0854.43
2009/04/23 13:46:54.9     -17    -29    107     34    112 210.7  81.2  34172  289.79 0854.43
2009/04/23 13:46:55.0      30     16     95     35    101  61.1  79.2  34178  289.89 0854.43
2009/04/23 13:46:55.1     116     26    122    119    170  77.2  50.4  34176  289.85 0854.43
2009/04/23 13:46:55.2      83     17    165     85    185  78.1  70.8  34188  290.06 0854.43
2009/04/23 13:46:55.3      90     22    114     93    147  75.8  56.4  34210  290.43 0854.43
2009/04/23 13:46:55.4     238    148    194    281    341  58.2  37.9  34258  291.24 0854.43
2009/04/23 13:46:55.5     347    198    220    400    456  60.2  31.3  34238  290.89 0854.43
2009/04/23 13:46:55.6     398    143    175    424    458  70.2  23.6  34240  290.94 0854.43
2009/04/23 13:46:55.7     371    168    143    408    433  65.6  19.4  34238  290.89 0854.43
2009/04/23 13:46:55.8     140    216    133    258    290  33.0  29.3  34234  290.82 0854.43
2009/04/23 13:46:55.9      26    222     96    224    243   6.7  24.9  34230  290.75 0854.43
2009/04/23 13:46:56.0    -160    294     78    335    344 331.4  13.1  34220  290.60 0854.43
2009/04/23 13:46:56.1     -45    429     84    432    441 353.9  11.1  34244  290.99 0854.43
2009/04/23 13:46:56.2    -130    355     79    379    388 339.8  11.8  34248  291.08 0854.43
2009/04/23 13:46:56.3     -13    396     70    397    404 358.0  10.0  34262  291.30 0854.43
2009/04/23 13:46:56.4     168    634     58    656    659  14.9   5.1  34214  290.49 0854.43
2009/04/23 13:46:56.5     305    425    196    524    559  35.7  21.5  34212  290.45 0854.43
2009/04/23 13:46:56.6     349    443     27    565    566  38.2   2.8  34176  289.85 0854.42
2009/04/23 13:46:56.7     236    342    -19    416    417  34.6  -2.7  34172  289.78 0854.42
2009/04/23 13:46:56.8     379    197    125    428    446  62.5  16.3  34170  289.73 0854.42
2009/04/23 13:46:56.9    -225    266     71    349    357 319.8  11.5  34170  289.74 0854.42
2009/04/23 13:46:57.0    -283    289   -411    405    577 315.6 -54.6  34170  289.75 0854.42
2009/04/23 13:46:57.1     125    396   -429    416    597  17.6 -55.6  34162  289.62 0854.42
2009/04/23 13:46:57.2     102     93   -279    139    311  47.8 -76.3  34188  290.03 0854.42
2009/04/23 13:46:57.3      80      0   -204     81    219  90.0 -81.5  34196  290.19 0854.42
2009/04/23 13:46:57.4     137     49   -214    146    259  70.1 -67.0  34198  290.21 0854.42
2009/04/23 13:46:57.5     113    213   -275    242    366  27.9 -58.7  34198  290.20 0854.42
2009/04/23 13:46:57.6      85    408   -115    417    433  11.8 -15.5  34182  289.94 0854.42
2009/04/23 13:46:57.7     203    273   -190    341    390  36.6 -36.0  34192  290.11 0854.42
2009/04/23 13:46:57.8     202    244    -60    317    323  39.6 -10.8  34178  289.88 0854.42
2009/04/23 13:46:57.9     150     64   -152    164    223  66.9 -52.3  34180  289.91 0854.42
2009/04/23 13:46:58.0     408     31   -113    410    426  85.6 -15.4  34188  290.04 0854.42
2009/04/23 13:46:58.1     292   -152   -117    330    351 117.5 -19.5  34190  290.08 0854.42
2009/04/23 13:46:58.2     276   -195    -31    339    341 125.3  -5.4  34194  290.15 0854.42
2009/04/23 13:46:58.3     212   -225    -63    310    317 136.7 -11.6  34194  290.14 0854.42
2009/04/23 13:46:58.4     227   -165     -1    281    282 126.0  -0.3  34182  289.93 0854.42
2009/04/23 13:46:58.5     189    -42     31    194    197 102.8   9.3  34182  289.94 0854.42
2009/04/23 13:46:58.6     276   -200    -81    342    352 126.0 -13.4  34196  290.18 0854.42
2009/04/23 13:46:58.7     338   -104   -107    354    371 107.2 -16.9  34196  290.18 0854.42
2009/04/23 13:46:58.8     414    -18     29    415    416  92.5   4.0  34190  290.07 0854.42
2009/04/23 13:46:58.9     326     -4    -42    327    330  90.8  -7.4  34182  289.94 0854.42
2009/04/23 13:46:59.0     340     68     11    347    348  78.6   1.9  34166  289.69 0854.42
2009/04/23 13:46:59.1     266    186    113    325    345  55.0  19.3  34166  289.67 0854.42
2009/04/23 13:46:59.3     251    277    140    375    400  42.2  21.3  34172  289.79 0854.42
2009/04/23 13:46:59.4     163    306    104    347    363  28.1  16.8  34182  289.93 0854.42
2009/04/23 13:46:59.5     335    340     72    478    484  44.6   8.6  34196  290.18 0854.42
2009/04/23 13:46:59.6     294    497     91    578    586  30.7   9.0  34218  290.54 0854.42
2009/04/23 13:46:59.7     391    283     37    484    486  54.1   4.4  34188  290.05 0854.42
2009/04/23 13:46:59.8     321    150     23    355    356  64.9   3.8  34178  289.86 0854.42
2009/04/23 13:46:59.9      62    309    138    316    344  11.5  25.2  34196  290.18 0854.42
2009/04/23 13:47:00.0     -47    258     53    263    269 349.5  11.4  34222  290.63 0854.42
2009/04/23 13:47:00.1     -56    274    143    280    314 348.4  29.2  34226  290.70 0854.42
2009/04/23 13:47:00.2     -56    280    100    286    304 348.7  19.4  34260  291.27 0854.42
2009/04/23 13:47:00.3     -44    211     42    216    221 348.0  11.1  34262  291.32 0854.42
2009/04/23 13:47:00.4     -80    192     53    209    216 337.3  14.3  34262  291.30 0854.42
2009/04/23 13:47:00.5    -127    102     88    164    186 308.9  30.6  34244  290.99 0854.42
2009/04/23 13:47:00.6    -109     58     77    124    145 298.0  35.5  34252  291.15 0854.42
2009/04/23 13:47:00.7     -95     39     43    103    111 292.6  23.6  34250  291.11 0854.42
2009/04/23 13:47:00.8     -49     35     87     61    106 306.0  61.5  34274  291.50 0854.42
2009/04/23 13:47:00.9     -25      1    101     26    104 272.6  84.9  34288  291.76 0854.42
2009/04/23 13:47:01.0      56     41    111     70    131  54.1  64.7  34242  290.98 0854.42
2009/04/23 13:47:01.1      16     73    126     75    146  12.5  66.7  34220  290.60 0854.42
2009/04/23 13:47:01.2      32     57    122     66    138  29.9  68.9  34226  290.70 0854.42
2009/04/23 13:47:01.3    -101     27    174    105    203 285.1  66.2  34218  290.55 0854.42
2009/04/23 13:47:01.4     -14     70    201     72    213 348.4  79.9  34212  290.45 0854.42
2009/04/23 13:47:01.5     -24    -87    126     91    155 195.6  60.6  34230  290.75 0854.42
2009/04/23 13:47:01.6      90    -35    149     97    177 111.3  64.1  34210  290.41 0854.42
2009/04/23 13:47:01.7       6     82    175     83    193   4.5  72.9  34236  290.86 0854.42
2009/04/23 13:47:01.8     220     14    225    221    315  86.3  50.6  34236  290.87 0854.42
2009/04/23 13:47:01.9     248    -42    355    252    435  99.6  61.3  34192  290.10 0854.42
2009/04/23 13:47:02.0     214     13    313    215    379  86.3  62.5  34196  290.18 0854.42
2009/04/23 13:47:02.1     136    -10    272    137    304  94.4  71.7  34206  290.36 0854.42
2009/04/23 13:47:02.2     221    -88    228    239    330 111.8  48.7  34188  290.05 0854.42
2009/04/23 13:47:02.3      80   -279    352    291    456 163.9  56.4  34210  290.41 0854.42
2009/04/23 13:47:02.4      52   -308    306    313    437 170.3  49.4  34180  289.91 0854.42
2009/04/23 13:47:02.5     132   -280    240    310    392 154.6  41.7  34174  289.82 0854.42
2009/04/23 13:47:02.6     117   -212    255    243    352 151.0  51.6  34184  289.97 0854.42
2009/04/23 13:47:02.7      72   -113    206    135    246 147.5  63.9  34184  289.97 0854.42
2009/04/23 13:47:02.8     119   -189    252    224    337 147.9  53.7  34182  289.93 0854.42
2009/04/23 13:47:02.9      68   -114    215    133    252 149.3  65.1  34180  289.91 0854.42
2009/04/23 13:47:03.0     143   -144    255    203    325 135.2  57.6  34176  289.83 0854.42
2009/04/23 13:47:03.1      15    -15    187     22    188 134.9  90.0  34180  289.92 0854.42
2009/04/23 13:47:03.2      51    -73    203     90    222 144.8  74.9  34174  289.80 0854.42
2009/04/23 13:47:03.3      93   -306    320    320    452 163.1  50.1  34176  289.85 0854.42
2009/04/23 13:47:03.4      41   -102    165    110    198 158.1  63.2  34178  289.89 0854.42
2009/04/23 13:47:03.5     114   -163     74    200    213 145.0  21.0  34172  289.77 0854.42
2009/04/23 13:47:03.6      60    -57    148     83    169 133.6  68.3  34176  289.85 0854.42
2009/04/23 13:47:03.7      68   -218    181    229    291 162.6  42.4  34180  289.92 0854.42
2009/04/23 13:47:03.8      21   -274    159    275    317 175.6  32.7  34176  289.83 0854.42
2009/04/23 13:47:03.9     -45   -486    305    489    576 185.3  35.0  34178  289.89 0854.42
2009/04/23 13:47:04.0       0   -426    286    427    513 180.0  37.1  34178  289.89 0854.42
2009/04/23 13:47:04.1      -1   -268    285    269    391 180.2  52.0  34182  289.93 0854.42
2009/04/23 13:47:04.2       0   -284    263    285    387 180.0  47.8  34180  289.91 0854.42
2009/04/23 13:47:04.3     -57   -360    332    365    493 189.1  47.0  34178  289.87 0854.42
2009/04/23 13:47:04.4     -81   -336    330    346    478 193.6  48.6  34172  289.78 0854.42
2009/04/23 13:47:04.5    -131   -394    -16    416    417 198.5  -2.2  34178  289.87 0854.42
2009/04/23 13:47:04.6    -167   -288   -207    334    392 210.1 -38.9  34184  289.98 0854.42
2009/04/23 13:47:04.7     -76   -267     14    278    279 196.0   2.9  34170  289.75 0854.43
2009/04/23 13:47:04.8     127   -396    223    416    472 162.2  30.5  34180  289.90 0854.43
2009/04/23 13:47:04.9     102   -500    255    511    571 168.4  28.5  34172  289.79 0854.43
2009/04/23 13:47:05.0     109   -425    -17    439    440 165.5  -2.2  34182  289.95 0854.43
2009/04/23 13:47:05.1     139   -474    -72    495    501 163.6  -8.3  34176  289.84 0854.43
2009/04/23 13:47:05.2     146   -506     34    527    529 163.9   3.7  34174  289.82 0854.43
2009/04/23 13:47:05.3     225   -564     67    608    612 158.2   6.4  34170  289.75 0854.43
2009/04/23 13:47:05.4     199   -470     66    511    516 157.1   7.4  34172  289.79 0854.43
2009/04/23 13:47:05.5     256   -583    179    637    662 156.3  15.7  34172  289.76 0854.43
2009/04/23 13:47:05.6     184   -475    178    510    540 158.8  20.0  34168  289.72 0854.43
2009/04/23 13:47:05.7     304   -450    127    544    559 145.9  13.2  34172  289.79 0854.43
2009/04/23 13:47:05.8     267   -468    169    540    566 150.3  17.4  34172  289.79 0854.43
2009/04/23 13:47:05.9     243   -356    110    432    446 145.6  14.3  34174  289.80 0854.43
2009/04/23 13:47:06.0      40   -255     17    259    260 171.1   3.8  34172  289.78 0854.43
2009/04/23 13:47:06.1     -16   -282   -100    283    301 183.4 -19.6  34176  289.85 0854.43
2009/04/23 13:47:06.2    -108   -425     77    439    446 194.3  10.0  34172  289.77 0854.43
2009/04/23 13:47:06.3    -248   -549    163    603    625 204.3  15.2  34172  289.76 0854.43
2009/04/23 13:47:06.4     -11   -637    218    638    675 181.0  18.9  34172  289.78 0854.43
2009/04/23 13:47:06.5    -171   -492    206    522    561 199.2  22.8  34172  289.77 0854.43
2009/04/23 13:47:06.6    -319   -295    246    435    499 227.2  32.0  34172  289.78 0854.43
2009/04/23 13:47:06.7    -389   -233     13    454    455 239.1   1.7  34172  289.77 0854.46
2009/04/23 13:47:06.8    -319   -233    -65    396    402 233.9  -9.4  34164  289.65 0854.46
2009/04/23 13:47:06.9    -173   -263    235    316    393 213.4  40.6  34178  289.86 0854.46
2009/04/23 13:47:07.0    -117   -161    124    200    235 216.1  34.8  34176  289.84 0854.46
2009/04/23 13:47:07.1     -32   -137    149    141    205 193.3  52.0  34180  289.92 0854.46
2009/04/23 13:47:07.2     -26     -6    100     27    103 256.7  84.9  34184  289.99 0854.46
2009/04/23 13:47:07.3     -58     25     77     64    100 293.5  56.3  34184  289.99 0854.46
2009/04/23 13:47:07.4      89    -56    115    106    156 122.5  52.2  34180  289.91 0854.46
2009/04/23 13:47:07.5     170   -105    169    201    262 121.8  44.3  34178  289.86 0854.46
2009/04/23 13:47:07.6     100    -88    178    134    222 131.3  59.4  34182  289.94 0854.46
2009/04/23 13:47:07.7      87    -83    160    121    200 133.6  59.2  34178  289.87 0854.42
2009/04/23 13:47:07.8     172   -141     63    223    232 129.5  15.8  34176  289.85 0854.42
2009/04/23 13:47:07.9     158   -151     24    219    221 133.8   6.5  34178  289.87 0854.42
2009/04/23 13:47:08.0     112   -228     56    255    262 153.7  12.4  34176  289.83 0854.42
2009/04/23 13:47:08.1      -6   -327     64    328    335 181.1  11.1  34178  289.86 0854.42
2009/04/23 13:47:08.2      65   -298    107    306    324 167.6  20.0  34176  289.83 0854.42
2009/04/23 13:47:08.3     136   -237    158    274    316 150.1  32.7  34170  289.73 0854.42
2009/04/23 13:47:08.4      88   -209    191    228    297 157.1  43.8  34178  289.86 0854.42
2009/04/23 13:47:08.5      90   -166    168    190    253 151.5  45.9  34180  289.92 0854.42
2009/04/23 13:47:08.6      42   -114    151    122    194 159.5  56.6  34182  289.94 0854.42
2009/04/23 13:47:08.7     171    -57    185    181    258 108.4  50.7  34182  289.95 0854.42
2009/04/23 13:47:08.8      53    -49    170     73    185 133.2  75.5  34184  289.97 0854.42
2009/04/23 13:47:08.9      34    -59    188     69    200 150.1  79.2  34188  290.04 0854.42
2009/04/23 13:47:09.0      29   -148    191    151    243 168.9  57.7  34190  290.09 0854.42
2009/04/23 13:47:09.1     -37    -55    153     67    167 214.3  74.8  34190  290.08 0854.42
2009/04/23 13:47:09.2     -91   -111     98    144    174 219.2  37.3  34186  290.02 0854.42
2009/04/23 13:47:09.3     -52     25     90     58    107 296.2  64.6  34188  290.04 0854.42
2009/04/23 13:47:09.4     -28     74      9     80     81 339.1   6.5  34188  290.06 0854.42
2009/04/23 13:47:09.5     -92    113    -58    146    157 320.8 -27.2  34190  290.09 0854.42
2009/04/23 13:47:09.6      -8    106    -39    107    113 355.5 -24.4  34188  290.04 0854.42
2009/04/23 13:47:09.7      13     24      5     28     29  29.0  11.1  34188  290.04 0854.43
2009/04/23 13:47:09.8      24     56     58     62     84  23.6  48.5  34186  290.01 0854.43
2009/04/23 13:47:09.9      44     83    115     95    149  28.1  56.4  34188  290.04 0854.43
2009/04/23 13:47:10.0       1    111    118    112    162   0.9  51.4  34188  290.04 0854.43
2009/04/23 13:47:10.1      15     69    124     71    142  12.5  67.7  34192  290.13 0854.43
2009/04/23 13:47:10.2       9     28    105     30    109  18.3  83.9  34190  290.09 0854.43
2009/04/23 13:47:10.3     -66    -24     93     71    117 250.0  58.5  34190  290.09 0854.43
2009/04/23 13:47:10.4     -56      4     84     57    101 274.3  62.6  34188  290.06 0854.43
2009/04/23 13:47:10.5      -7     91    109     92    142 355.6  55.8  34190  290.09 0854.43
2009/04/23 13:47:10.6    -188     78     67    204    215 292.6  18.4  34186  290.02 0854.43
2009/04/23 13:47:10.7    -144     91     65    171    182 302.2  21.7  34188  290.04 0854.43
2009/04/23 13:47:10.8     -50     10    102     52    114 281.5  70.8  34188  290.06 0854.43
2009/04/23 13:47:10.9    -117     73    143    139    199 302.0  50.7  34188  290.04 0854.43
2009/04/23 13:47:11.0     -80    137    134    159    207 329.7  44.3  34188  290.06 0854.43
2009/04/23 13:47:11.1    -155    -84    132    177    220 241.6  40.4  34190  290.08 0854.43
2009/04/23 13:47:11.2    -326    -32    118    328    349 264.3  19.9  34190  290.08 0854.43
2009/04/23 13:47:11.3    -345    -14     52    346    350 267.7   8.7  34182  289.94 0854.43
2009/04/23 13:47:11.4    -440     39    -39    442    444 275.1  -5.1  34170  289.73 0854.43
2009/04/23 13:47:11.5    -434     69    -55    440    444 279.1  -7.2  34184  289.99 0854.43
2009/04/23 13:47:11.6    -390   -119     37    408    410 253.0   5.2  34190  290.09 0854.43
2009/04/23 13:47:11.7    -419     71     35    426    428 279.7   4.7  34188  290.04 0854.45
2009/04/23 13:47:11.8    -358     74    -72    366    374 281.7 -11.2  34184  289.98 0854.45
2009/04/23 13:47:11.9    -375     56     14    380    381 278.6   2.1  34192  290.10 0854.45
2009/04/23 13:47:12.0    -289    -72    -16    298    299 255.8  -3.2  34192  290.12 0854.45
2009/04/23 13:47:12.1    -176    -58     34    186    190 251.8  10.6  34190  290.09 0854.45
2009/04/23 13:47:12.2    -187    -88    -11    207    208 244.6  -3.1  34186  290.01 0854.45
2009/04/23 13:47:12.3    -158    -71     75    174    189 245.6  24.9  34194  290.14 0854.45
2009/04/23 13:47:12.4    -237     64     10    246    247 285.3   2.3  34204  290.31 0854.45
2009/04/23 13:47:12.5    -278    -88    -30    292    294 252.3  -6.0  34196  290.17 0854.45
2009/04/23 13:47:12.6    -239   -132      8    274    275 241.1   1.8  34198  290.20 0854.45
2009/04/23 13:47:12.7    -158   -124     73    202    214 231.8  20.7  34200  290.26 0854.45
2009/04/23 13:47:12.8    -112   -110     74    158    174 225.6  27.1  34198  290.23 0854.45
2009/04/23 13:47:12.9      15    -98    172    100    198 171.1  67.2  34192  290.13 0854.45
2009/04/23 13:47:13.0    -153   -135    210    205    293 228.6  50.7  34196  290.19 0854.45
2009/04/23 13:47:13.1    -159   -226    208    277    346 215.2  40.7  34198  290.22 0854.45
2009/04/23 13:47:13.2    -168   -248    183    300    351 214.2  34.2  34198  290.23 0854.45
2009/04/23 13:47:13.3     -64   -231    213    240    320 195.6  46.3  34186  290.00 0854.45
2009/04/23 13:47:13.4     -91   -107    108    141    177 220.5  41.4  34192  290.13 0854.45
2009/04/23 13:47:13.5      72    -72    260    102    279 135.0  77.6  34186  290.00 0854.45
2009/04/23 13:47:13.6     243     15    315    244    398  86.3  58.5  34188  290.04 0854.45
2009/04/23 13:47:13.7     101    -44    211    111    238 113.5  70.0  34192  290.11 0854.42
2009/04/23 13:47:13.8     128    -26    173    131    217 101.5  59.2  34196  290.18 0854.42
2009/04/23 13:47:13.9     225     60    264    233    352  75.0  54.2  34198  290.20 0854.42
2009/04/23 13:47:14.0      56     35    178     67    190  57.6  78.9  34200  290.26 0854.42
2009/04/23 13:47:14.1     -21     65    107     69    127 341.7  64.6  34198  290.23 0854.42
2009/04/23 13:47:14.2     -16    -18    120     25    122 221.4  89.0  34202  290.28 0854.42
2009/04/23 13:47:14.3      25      2     90     26     93  83.9  82.8  34194  290.14 0854.42
2009/04/23 13:47:14.4     189   -159     91    248    264 130.0  20.9  34184  289.97 0854.42
2009/04/23 13:47:14.5      67   -168    133    181    224 158.2  39.9  34178  289.89 0854.42
2009/04/23 13:47:14.6     -53    -55    194     77    208 224.1  77.4  34182  289.96 0854.42
2009/04/23 13:47:14.7      78    -26    103     83    132 108.6  56.4  34184  289.97 0854.42
2009/04/23 13:47:14.8     140    -49    107    149    183 109.5  39.3  34184  289.99 0854.42
2009/04/23 13:47:14.9     228    -82      8    243    244 110.0   2.1  34186  290.00 0854.42
2009/04/23 13:47:15.0     181   -138    -81    228    241 127.3 -24.4  34184  289.97 0854.42
2009/04/23 13:47:15.1     135   -111   -102    176    203 129.5 -37.5  34182  289.94 0854.42
2009/04/23 13:47:15.2     105    -43    -46    114    122 112.6 -27.4  34186  290.01 0854.42
2009/04/23 13:47:15.3      59    -61    -20     86     89 135.9 -13.4  34186  290.01 0854.42
2009/04/23 13:47:15.4      29      3    -11     30     31  83.9 -23.3  34188  290.06 0854.42
2009/04/23 13:47:15.5     -60     52    -60     80    100 310.9 -45.1  34192  290.11 0854.42
2009/04/23 13:47:15.6    -152   -105     64    185    196 235.4  19.2  34186  290.02 0854.42
2009/04/23 13:47:15.7    -135    -49    -27    144    147 250.0 -10.9  34192  290.11 0854.41
2009/04/23 13:47:15.8    -158     -8     41    159    165 267.0  14.5  34190  290.09 0854.41
2009/04/23 13:47:15.9    -151     59    -17    163    164 291.3  -6.2  34192  290.11 0854.41
2009/04/23 13:47:16.1    -165    126     36    208    212 307.3   9.9  34192  290.13 0854.41
2009/04/23 13:47:16.2    -143    102     10    176    177 305.5   3.3  34194  290.14 0854.41
2009/04/23 13:47:16.2    -184    105      3    213    214 299.8   0.8  34190  290.08 0854.41
2009/04/23 13:47:16.3    -167    109      0    200    201 303.1   0.0  34190  290.08 0854.41
2009/04/23 13:47:16.4    -207    155     16    259    260 306.9   3.6  34190  290.07 0854.41
2009/04/23 13:47:16.5    -171     31    -13    174    175 280.6  -4.4  34192  290.11 0854.41
2009/04/23 13:47:16.6    -115    -17     69    117    135 261.2  33.5  34192  290.11 0854.41
2009/04/23 13:47:16.7    -147    -11     40    148    154 265.6  15.3  34194  290.16 0854.41
2009/04/23 13:47:16.8    -184    -56     23    193    195 252.9   6.9  34198  290.21 0854.41
2009/04/23 13:47:16.9    -123   -109     82    165    184 228.2  28.2  34194  290.14 0854.41
2009/04/23 13:47:17.1    -190      6    104    191    217 271.9  31.3  34190  290.08 0854.41
2009/04/23 13:47:17.1    -235      0     72    236    247 270.0  17.1  34192  290.10 0854.41
2009/04/23 13:47:17.2    -144    -18     92    146    172 262.5  35.5  34192  290.11 0854.41
2009/04/23 13:47:17.4     -58    -70    122     91    152 219.6  60.0  34192  290.11 0854.41
2009/04/23 13:47:17.4     -24   -126     74    129    148 191.1  32.4  34180  289.92 0854.41
2009/04/23 13:47:17.5       4   -234     44    235    240 179.0  10.6  34184  289.97 0854.41
2009/04/23 13:47:17.6      51   -193     -4    200    201 165.1  -1.3  34184  289.99 0854.41
2009/04/23 13:47:17.7       9   -187    173    188    255 177.1  47.5  34186  290.02 0854.42
2009/04/23 13:47:17.8    -226     50     57    232    240 282.6  13.9  34188  290.05 0854.42
2009/04/23 13:47:17.9    -150    -71     87    167    188 244.6  29.8  34184  289.99 0854.42
2009/04/23 13:47:18.0     -40   -197    226    202    303 191.6  53.7  34188  290.03 0854.42
2009/04/23 13:47:18.1     -77   -229    113    242    267 198.7  27.1  34182  289.93 0854.42
2009/04/23 13:47:18.2     -34   -212    104    215    238 189.3  27.8  34182  289.94 0854.42
2009/04/23 13:47:18.3      64   -148    146    162    218 156.4  46.9  34180  289.92 0854.42
2009/04/23 13:47:18.5      97   -152    141    181    229 147.5  42.0  34184  289.97 0854.42
2009/04/23 13:47:18.6      63    -99    135    118    179 147.5  54.6  34186  290.01 0854.42
2009/04/23 13:47:18.6      -8   -120    199    121    232 184.0  65.4  34180  289.92 0854.42
2009/04/23 13:47:18.7     -42   -224    156    229    277 190.7  37.6  34190  290.07 0854.42
2009/04/23 13:47:18.8     -74   -293     93    303    318 194.3  17.2  34180  289.90 0854.42
2009/04/23 13:47:18.9      -4   -257    -36    258    261 180.9  -8.0  34184  289.97 0854.42
2009/04/23 13:47:19.0     119   -258     45    285    289 155.3   9.0  34186  290.00 0854.42
2009/04/23 13:47:19.1     115   -317     50    338    342 160.0   8.5  34178  289.87 0854.42
2009/04/23 13:47:19.2      13   -320     64    321    328 177.5  11.3  34184  289.97 0854.42
2009/04/23 13:47:19.3       0   -334     55    335    340 179.9   9.4  34182  289.96 0854.42
2009/04/23 13:47:19.4     -21   -240     82    241    255 185.1  18.9  34184  289.97 0854.42
2009/04/23 13:47:19.5     -17   -229     63    230    239 184.5  15.3  34184  289.97 0854.42
2009/04/23 13:47:19.6     -23   -224     85    226    241 186.0  21.5  34182  289.95 0854.42
2009/04/23 13:47:19.7       8   -275    117    276    299 178.2  24.2  34184  289.97 0854.44
2009/04/23 13:47:19.8     -16   -321    133    322    348 182.9  23.6  34184  289.99 0854.44
2009/04/23 13:47:19.9       8   -278    200    279    343 178.2  39.3  34186  290.00 0854.44
2009/04/23 13:47:20.0      33   -307    166    309    350 173.8  30.7  34184  289.98 0854.44
2009/04/23 13:47:20.1      34   -279    173    282    330 172.9  34.6  34184  289.97 0854.44
2009/04/23 13:47:20.2      -4   -319    149    320    352 180.9  26.9  34182  289.94 0854.44
2009/04/23 13:47:20.3      -1   -273    148    274    311 180.2  31.0  34180  289.92 0854.44
2009/04/23 13:47:20.4      -4   -240    102    241    261 181.1  24.1  34184  289.97 0854.44
2009/04/23 13:47:20.5     -11   -230     93    231    249 182.9  23.0  34180  289.92 0854.44
2009/04/23 13:47:20.6     -31   -268    166    270    316 186.7  34.4  34180  289.92 0854.44
2009/04/23 13:47:20.7     -32   -244    196    247    315 187.6  42.4  34182  289.95 0854.44
2009/04/23 13:47:20.8    -100   -250    169    270    318 201.8  35.0  34182  289.95 0854.44
2009/04/23 13:47:21.0     -16   -104    144    106    178 188.9  60.3  34184  289.99 0854.44
2009/04/23 13:47:21.0     -25   -169    138    171    219 188.5  43.3  34184  289.97 0854.44
2009/04/23 13:47:21.1     -26   -131     81    134    156 191.6  34.4  34184  289.97 0854.44
2009/04/23 13:47:21.2      28    -78     41     84     93 160.0  27.3  34188  290.04 0854.44
2009/04/23 13:47:21.3      -9    -79    -22     80     84 187.1 -15.5  34184  289.99 0854.44
2009/04/23 13:47:21.4     -55    -55    -47     79     91 225.0 -38.4  34186  290.01 0854.44
2009/04/23 13:47:21.5     -72    -75    -36    105    111 223.7 -23.3  34184  289.99 0854.44
2009/04/23 13:47:21.6     -68   -123    -31    141    145 208.9 -12.4  34182  289.96 0854.44
2009/04/23 13:47:21.7     -58   -174    -24    184    186 198.5  -7.5  34182  289.96 0854.48
2009/04/23 13:47:21.8     -76   -170     -6    187    188 204.1  -2.1  34182  289.94 0854.48
2009/04/23 13:47:21.9     -97   -165     -5    192    193 210.5  -1.6  34182  289.94 0854.48
2009/04/23 13:47:22.0      -4   -165     57    166    176 181.4  19.2  34180  289.92 0854.48
2009/04/23 13:47:22.1      19   -259     90    260    276 175.8  19.2  34184  289.98 0854.48
2009/04/23 13:47:22.2      19   -248    123    249    277 175.5  28.2  34182  289.93 0854.48
2009/04/23 13:47:22.3     -30   -268    173    270    320 186.5  35.6  34184  289.98 0854.48
2009/04/23 13:47:22.4     -54   -309    144    314    345 190.0  26.5  34182  289.93 0854.48
2009/04/23 13:47:22.5     -93   -242    156    260    303 201.2  33.7  34182  289.93 0854.48
2009/04/23 13:47:22.6     -34   -222    143    225    266 188.7  35.5  34182  289.95 0854.48
2009/04/23 13:47:22.7       3   -222    146    223    266 179.1  36.3  34182  289.93 0854.48
2009/04/23 13:47:22.8      33   -210    123    213    245 170.9  32.7  34180  289.92 0854.48
2009/04/23 13:47:22.9      72   -212    139    225    264 161.1  35.0  34180  289.92 0854.48
2009/04/23 13:47:23.0       0   -281    150    282    319 180.0  30.3  34178  289.88 0854.48
2009/04/23 13:47:23.1      36   -339    154    341    374 173.9  25.9  34178  289.89 0854.48
2009/04/23 13:47:23.2      72   -331    200    339    393 167.7  33.3  34178  289.87 0854.48
2009/04/23 13:47:23.3      16   -292    240    293    378 176.9  43.7  34178  289.87 0854.48
2009/04/23 13:47:23.4      56   -274    182    280    333 168.4  36.2  34182  289.93 0854.48
2009/04/23 13:47:23.5      17   -319    102    320    336 176.9  17.7  34178  289.89 0854.48
2009/04/23 13:47:23.6     137   -412     61    435    440 161.5   8.0  34178  289.88 0854.48
2009/04/23 13:47:23.7      77   -379     -1    387    388 168.5  -0.2  34180  289.91 0854.44
2009/04/23 13:47:23.8      12   -328     56    329    334 177.9   9.7  34174  289.81 0854.44
2009/04/23 13:47:23.9      66   -198    -75    209    222 161.5 -25.1  34180  289.91 0854.44
2009/04/23 13:47:24.0      83   -190    -42    208    213 156.3 -11.6  34178  289.89 0854.44
2009/04/23 13:47:24.1     103   -161    -24    192    194 147.5  -7.2  34178  289.87 0854.44
2009/04/23 13:47:24.2     155    -77     47    174    181 116.4  15.2  34180  289.91 0854.44
2009/04/23 13:47:24.3     212    -61     75    221    234 106.2  18.9  34182  289.94 0854.44
2009/04/23 13:47:24.4     170    -63    131    182    224 110.4  39.5  34176  289.85 0854.44
2009/04/23 13:47:24.5     184    -35    125    188    225 101.0  36.5  34176  289.85 0854.44
2009/04/23 13:47:24.6     111     69    123    131    179  58.0  48.2  34176  289.85 0854.44
2009/04/23 13:47:24.7      33    -80     90     87    125 157.7  50.2  34176  289.85 0854.44
2009/04/23 13:47:24.8     -28   -223     -2    225    226 187.3  -0.7  34170  289.74 0854.44
2009/04/23 13:47:24.9     -30   -282    -81    284    295 186.2 -20.7  34176  289.83 0854.44
2009/04/23 13:47:25.0      -8   -171    -56    172    180 182.7 -23.6  34174  289.80 0854.44
2009/04/23 13:47:25.1     -50   -168   -140    176    224 196.5 -47.4  34180  289.92 0854.44
2009/04/23 13:47:25.2     -34   -143    -67    148    162 193.4 -30.3  34178  289.87 0854.44
2009/04/23 13:47:25.3     -76    -69    -47    103    113 227.8 -31.0  34180  289.92 0854.44
2009/04/23 13:47:25.4      29     29    -11     42     44  45.1 -15.5  34182  289.94 0854.44
2009/04/23 13:47:25.5      26     51     37     58     68  27.2  35.5  34182  289.96 0854.44
2009/04/23 13:47:25.6      25     74     58     79     98  18.7  40.1  34190  290.09 0854.44
2009/04/23 13:47:25.7     -15    -16    107     22    109 223.2  89.1  34200  290.26 0854.45
2009/04/23 13:47:25.9    -103    -85    192    134    234 230.5  61.7  34202  290.30 0854.45
2009/04/23 13:47:25.9     -92   -196    168    217    274 205.2  41.7  34194  290.14 0854.45
2009/04/23 13:47:26.0    -127   -333    128    357    379 200.9  20.6  34178  289.86 0854.45
2009/04/23 13:47:26.1    -126   -381    163    402    433 198.3  23.1  34176  289.85 0854.45
2009/04/23 13:47:26.2    -132   -483    174    501    530 195.3  20.0  34182  289.94 0854.45
2009/04/23 13:47:26.3     -61   -536    169    540    566 186.6  17.4  34178  289.89 0854.45
2009/04/23 13:47:26.4    -109   -513    120    525    539 192.0  12.9  34176  289.85 0854.45
2009/04/23 13:47:26.5      28   -483    113    484    498 176.6  13.2  34172  289.79 0854.45
2009/04/23 13:47:26.6     -29   -377     21    379    380 184.5   3.2  34178  289.87 0854.45
2009/04/23 13:47:26.7      34   -448     40    450    452 175.6   5.1  34176  289.85 0854.45
2009/04/23 13:47:26.8     -34   -315      0    317    318 186.3   0.1  34178  289.86 0854.45
2009/04/23 13:47:26.9     -31     -2    210     32    212 265.6  90.0  34176  289.84 0854.45
2009/04/23 13:47:27.1      25     26    156     37    160  43.4  86.9  34190  290.08 0854.45
2009/04/23 13:47:27.2     -85     33    127     92    156 291.3  60.8  34188  290.04 0854.45
2009/04/23 13:47:27.3    -192     -1    -23    193    195 269.6  -6.9  34184  289.97 0854.45
2009/04/23 13:47:27.4    -236     24     24    238    240 275.9   5.9  34178  289.88 0854.45
2009/04/23 13:47:27.5    -254      8     68    255    264 271.9  15.0  34190  290.07 0854.45
2009/04/23 13:47:27.6    -416     18    -27    417    418 272.6  -3.8  34186  290.02 0854.45
2009/04/23 13:47:27.7    -414     38     97    416    428 275.4  13.2  34194  290.16 0854.45
2009/04/23 13:47:27.8    -259   -218     91    339    352 229.9  15.1  34180  289.91 0854.44
2009/04/23 13:47:27.9    -207    -84     76    224    237 247.8  18.9  34184  289.98 0854.44
2009/04/23 13:47:28.0    -243    149    -47    286    290 301.5  -9.4  34190  290.09 0854.44
2009/04/23 13:47:28.1    -281     35   -111    284    304 277.2 -26.9  34190  290.09 0854.44
2009/04/23 13:47:28.2    -424     26   -149    425    451 273.6 -19.4  34188  290.04 0854.44
2009/04/23 13:47:28.3    -451   -332   -158    561    582 233.6 -20.4  34176  289.85 0854.44
2009/04/23 13:47:28.4    -404   -184     99    444    456 245.5  12.6  34182  289.94 0854.44
2009/04/23 13:47:28.5    -567      0   -141    568    586 270.0 -14.0  34176  289.85 0854.44
2009/04/23 13:47:28.6    -527     39     -8    529    530 274.3  -0.9  34166  289.67 0854.44
2009/04/23 13:47:28.7    -638    -48   -176    640    664 265.7 -15.4  34172  289.77 0854.44
2009/04/23 13:47:28.8    -632    -37   -170    634    657 266.6 -15.1  34172  289.79 0854.40
2009/04/23 13:47:28.9    -630    -41   -200    632    664 266.3 -17.6  34174  289.82 0854.40
2009/04/23 13:47:29.0    -693   -185   -225    718    752 255.0 -22.4  34174  289.80 0854.40
2009/04/23 13:47:29.1    -663   -247   -228    708    743 249.5 -22.9  34174  289.81 0854.40
2009/04/23 13:47:29.2    -650   -258   -222    700    735 248.3 -17.6  34176  289.83 0854.40
2009/04/23 13:47:29.3    -648    -72   -212    653    686 263.6 -23.2  34170  289.75 0854.40
2009/04/23 13:47:29.4    -594    -55   -247    597    646 264.7 -28.2  34174  289.82 0854.40
2009/04/23 13:47:29.5    -522    -27   -315    523    610 267.0 -38.4  34174  289.81 0854.40
2009/04/23 13:47:29.6    -438    -15   -255    439    507 268.0 -37.3  34172  289.78 0854.40
2009/04/23 13:47:29.7    -450     49   -190    453    491 276.2 -28.5  34172  289.76 0854.40
2009/04/23 13:47:29.8    -425     31   -162    427    456 274.3 -26.2  34168  289.70 0854.40
2009/04/23 13:47:29.9    -504     55   -207    508    548 276.3 -27.9  34172  289.79 0854.40
2009/04/23 13:47:30.0    -527     96   -171    536    562 280.4 -22.8  34166  289.67 0854.40
2009/04/23 13:47:30.1    -471     76   -269    478    548 279.2 -36.3  34164  289.65 0854.40
2009/04/23 13:47:30.2    -385     72   -247    392    463 280.7 -39.9  34166  289.66 0854.40
2009/04/23 13:47:30.3    -326     57   -202    332    388 280.0 -38.8  34164  289.65 0854.40
2009/04/23 13:47:30.4    -259     30   -201    261    329 276.8 -45.9  34166  289.68 0854.40
2009/04/23 13:47:30.5    -263    -40   -230    267    352 261.2 -49.8  34166  289.66 0854.40
2009/04/23 13:47:30.6    -288    -51   -235    293    375 259.9 -47.3  34174  289.82 0854.40
2009/04/23 13:47:30.7    -310   -115   -258    331    419 249.6 -46.3  34172  289.79 0854.40
2009/04/23 13:47:30.8    -337     71   -329    345    476 281.9 -53.0  34176  289.83 0854.40
2009/04/23 13:47:30.9    -566     -8   -345    567    663 269.2 -38.6  34172  289.79 0854.40
2009/04/23 13:47:31.0    -570    -12   -215    571    610 268.7 -26.0  34188  290.03 0854.40
2009/04/23 13:47:31.1    -428    147   -329    453    559 289.0 -44.1  34170  289.74 0854.40
2009/04/23 13:47:31.2    -591    193   -347    622    712 288.1 -36.0  34172  289.78 0854.40
2009/04/23 13:47:31.3    -506    175   -383    536    658 289.1 -43.6  34168  289.70 0854.40
2009/04/23 13:47:31.4    -218   -211   -321    304    442 226.0 -56.4  34178  289.89 0854.40
2009/04/23 13:47:31.5    -168   -119   -339    207    397 234.7 -70.2  34174  289.81 0854.40
2009/04/23 13:47:31.6      13   -479   -252    480    542 178.4 -34.4  34176  289.85 0854.40
2009/04/23 13:47:31.7    -193   -579   -197    611    641 198.5 -23.0  34174  289.82 0854.40
2009/04/23 13:47:31.8     -45   -712   -226    714    750 183.6 -17.6  34184  289.97 0854.40
2009/04/23 13:47:31.9       5   -521   -342    522    624 179.4 -40.8  34184  289.97 0854.40
2009/04/23 13:47:32.0      16   -448   -304    449    542 177.9 -41.8  34178  289.86 0854.40
2009/04/23 13:47:32.1      -1   -588   -182    589    616 180.1 -22.2  34174  289.81 0854.40
2009/04/23 13:47:32.2     186   -452   -116    489    503 157.6 -13.4  34178  289.89 0854.40
2009/04/23 13:47:32.3     248   -365    -55    442    446 145.7  -7.2  34180  289.90 0854.40
2009/04/23 13:47:32.4     265   -330    110    424    439 141.2  14.6  34176  289.85 0854.40
2009/04/23 13:47:32.5     161   -358    142    393    418 155.8  19.9  34182  289.94 0854.40
2009/04/23 13:47:32.6     184   -230    232    295    375 141.3  42.1  34174  289.82 0854.40
2009/04/23 13:47:32.7     188     61    299    198    358  71.8  63.4  34172  289.78 0854.40
2009/04/23 13:47:32.8     139     15    212    140    254  83.8  63.6  34180  289.92 0854.42
2009/04/23 13:47:32.9     236     -9    306    237    387  92.4  58.5  34178  289.87 0854.42
2009/04/23 13:47:33.0      37     89    247     97    265  22.7  77.1  34184  289.99 0854.42
2009/04/23 13:47:33.1      41     15    232     44    236  69.2  90.0  34180  289.92 0854.42
2009/04/23 13:47:33.2      -5     27    164     28    166 348.4  90.0  34184  289.97 0854.42
2009/04/23 13:47:33.3      54    153    149    163    220  19.6  47.7  34174  289.82 0854.42
2009/04/23 13:47:33.4     101      4    270    102    288  87.4  78.6  34186  290.00 0854.42
2009/04/23 13:47:33.5     135    219    240    258    352  31.7  47.9  34178  289.86 0854.42
2009/04/23 13:47:33.6     224     37    223    228    318  80.5  49.4  34174  289.81 0854.42
2009/04/23 13:47:33.7     215    299    312    369    483  35.7  44.4  34180  289.92 0854.42
2009/04/23 13:47:33.8     332    347    340    481    589  43.8  38.7  34184  289.99 0854.42
2009/04/23 13:47:33.9     205    206    316    291    429  44.8  52.6  34178  289.89 0854.42
2009/04/23 13:47:34.0     -64    193    255    204    326 341.5  57.5  34182  289.93 0854.42
2009/04/23 13:47:34.1     193    241    269    310    410  38.7  45.5  34180  289.91 0854.42
2009/04/23 13:47:34.2     274    231    254    359    439  49.8  38.6  34184  289.97 0854.42
2009/04/23 13:47:34.3     239    227    272    331    428  46.5  43.7  34182  289.96 0854.42
2009/04/23 13:47:34.4      -8    279    210    280    350 358.2  40.6  34180  289.90 0854.42
2009/04/23 13:47:34.5     -10    178    238    179    297 356.6  59.4  34186  290.00 0854.42
2009/04/23 13:47:34.6     -98    243    262    263    371 338.1  50.0  34188  290.04 0854.42
2009/04/23 13:47:34.7    -192    347    346    397    526 331.0  45.5  34188  290.06 0854.42
2009/04/23 13:47:34.8    -170    281    287    329    436 328.7  45.8  34192  290.12 0854.42
2009/04/23 13:47:34.9     -62    205    175    215    277 343.1  43.5  34188  290.03 0854.42
2009/04/23 13:47:35.0    -104    218    138    242    278 334.5  32.3  34192  290.10 0854.42
2009/04/23 13:47:35.1    -274    186    152    332    365 304.1  26.4  34192  290.10 0854.42
2009/04/23 13:47:35.2    -295    108    100    315    331 290.2  17.7  34194  290.14 0854.42
2009/04/23 13:47:35.3    -308    -59    122    314    336 259.0  22.4  34194  290.16 0854.42
2009/04/23 13:47:35.4    -341    -39    121    344    365 263.4  19.5  34192  290.13 0854.42
2009/04/23 13:47:35.5    -308     41    120    311    333 277.7  22.3  34194  290.15 0854.42
2009/04/23 13:47:35.6    -131     26     92    134    162 281.4  37.8  34198  290.21 0854.42
2009/04/23 13:47:35.7    -261    206     14    333    334 308.3   2.5  34194  290.15 0854.42
2009/04/23 13:47:35.8    -157    302   -111    341    359 332.5 -18.0  34190  290.08 0854.42
2009/04/23 13:47:35.9     -29    304    -36    306    309 354.4  -6.9  34190  290.09 0854.42
2009/04/23 13:47:36.0    -195    379    -64    427    432 332.8  -8.6  34188  290.05 0854.42
2009/04/23 13:47:36.1    -130    307   -185    334    381 337.0 -35.8  34190  290.08 0854.42
2009/04/23 13:47:36.2    -276    -42    106    280    299 261.2  21.7  34198  290.20 0854.42
2009/04/23 13:47:36.3    -166    -49    132    174    218 253.6  41.2  34196  290.18 0854.42
2009/04/23 13:47:36.4    -148   -179    136    233    269 219.6  32.9  34192  290.12 0854.42
2009/04/23 13:47:36.5    -170     33    123    174    213 281.0  38.6  34196  290.19 0854.42
2009/04/23 13:47:36.6    -332    305    147    451    475 312.6  18.0  34202  290.29 0854.42
2009/04/23 13:47:36.7    -328    233     35    403    405 305.5   5.0  34208  290.39 0854.42
2009/04/23 13:47:36.8    -346    345   -151    489    512 314.9 -17.2  34216  290.51 0854.44
2009/04/23 13:47:36.9       0    316    -95    317    332   0.1 -16.8  34220  290.59 0854.44
2009/04/23 13:47:37.0     -96    299   -176    315    360 342.1 -36.0  34202  290.28 0854.44
2009/04/23 13:47:37.1      50    295    -83    300    312   9.8 -15.5  34210  290.41 0854.44
2009/04/23 13:47:37.2      89    285    122    299    322  17.4  23.5  34220  290.58 0854.44
2009/04/23 13:47:37.3     -70    259    275    269    384 344.9  50.6  34212  290.45 0854.44
2009/04/23 13:47:37.4     -73    194    112    208    236 339.3  30.6  34218  290.55 0854.44
2009/04/23 13:47:37.5     -93    127     70    158    172 323.9  25.3  34214  290.48 0854.44
2009/04/23 13:47:37.6     -90    247    176    264    317 339.9  36.9  34202  290.29 0854.44
2009/04/23 13:47:37.7     136    119    192    181    263  48.9  52.0  34214  290.49 0854.44
2009/04/23 13:47:37.8      51    276    186    281    336  10.6  36.6  34230  290.75 0854.44
2009/04/23 13:47:37.9     250    143    244    289    378  60.2  44.4  34218  290.55 0854.44
2009/04/23 13:47:38.0     271    250    130    370    392  47.3  20.1  34220  290.60 0854.44
2009/04/23 13:47:38.1     203     87    205    222    302  66.7  47.9  34264  291.33 0854.44
2009/04/23 13:47:38.2      48    107    239    118    266  24.1  72.1  34272  291.49 0854.44
2009/04/23 13:47:38.3      58    113    207    128    243  27.2  65.4  34270  291.45 0854.44
2009/04/23 13:47:38.4     139     95    176    169    244  55.6  51.2  34270  291.45 0854.44
2009/04/23 13:47:38.5      66    104    152    124    196  32.5  56.4  34282  291.64 0854.44
2009/04/23 13:47:38.6      31    172    122    175    213  10.5  38.0  34256  291.21 0854.44
2009/04/23 13:47:38.7     159    320     72    358    366  26.5  11.4  34212  290.45 0854.44
2009/04/23 13:47:38.8       4    257     63    258    266   0.9  13.9  34214  290.49 0854.46
2009/04/23 13:47:38.9     -17    260     20    261    262 356.2   4.4  34230  290.75 0854.46
2009/04/23 13:47:39.0     -11    145     31    146    150 355.6  12.2  34234  290.84 0854.46
2009/04/23 13:47:39.1     -89    107     94    140    168 320.3  37.0  34220  290.60 0854.46
2009/04/23 13:47:39.2    -137    -36    116    142    183 255.0  43.7  34212  290.47 0854.46
2009/04/23 13:47:39.3    -168    -43     21    174    176 255.6   6.9  34202  290.30 0854.46
2009/04/23 13:47:39.4     -49   -102    102    114    152 205.9  46.9  34206  290.36 0854.46
2009/04/23 13:47:39.5     -96   -160     71    187    200 211.0  21.5  34210  290.41 0854.46
2009/04/23 13:47:39.6    -205   -200    123    287    312 225.6  24.6  34206  290.36 0854.46
2009/04/23 13:47:39.7    -219   -144    204    263    332 236.7  41.7  34204  290.31 0854.46
2009/04/23 13:47:39.8    -145   -181     47    233    238 218.7  11.6  34208  290.37 0854.46
2009/04/23 13:47:39.9    -231   -267    130    354    377 220.9  21.0  34212  290.45 0854.46
2009/04/23 13:47:40.0    -222   -277    143    356    383 218.8  23.0  34214  290.49 0854.46
2009/04/23 13:47:40.1    -263   -156     92    306    320 239.3  16.8  34222  290.61 0854.46
2009/04/23 13:47:40.2    -298   -233    180    379    419 231.9  27.2  34220  290.60 0854.46
2009/04/23 13:47:40.3    -290   -140     18    323    324 244.2   3.2  34234  290.82 0854.46
2009/04/23 13:47:40.4    -228   -128    -43    262    266 240.7  -9.4  34232  290.80 0854.46
2009/04/23 13:47:40.5    -133   -152    -67    203    213 221.2 -23.8  34228  290.74 0854.46
2009/04/23 13:47:40.6      25     76    -98     81    127  18.3 -60.7  34232  290.79 0854.46
2009/04/23 13:47:40.7      81     75    -38    111    117  47.3 -23.3  34224  290.65 0854.46
2009/04/23 13:47:40.8      90     62    -22    110    113  55.4 -11.3  34224  290.67 0854.43
2009/04/23 13:47:40.9     111     22    -18    114    116  78.5  -9.3  34220  290.60 0854.43
2009/04/23 13:47:41.0      99    -93     66    136    151 133.2  27.3  34220  290.60 0854.43
2009/04/23 13:47:41.1      78    -56    116     97    151 126.0  56.3  34208  290.40 0854.43
2009/04/23 13:47:41.2       2     35    110     36    115   4.5  80.7  34210  290.43 0854.43
2009/04/23 13:47:41.3     -38      2    117     39    123 274.4  81.0  34208  290.40 0854.43
2009/04/23 13:47:41.4     -41     22    102     47    112 298.0  73.5  34206  290.36 0854.43
2009/04/23 13:47:41.5     164    -32    165    168    235 101.0  49.8  34198  290.23 0854.43
2009/04/23 13:47:41.6     180    -13    192    181    263  94.4  52.0  34194  290.15 0854.43
2009/04/23 13:47:41.7     123     31    211    127    246  75.8  66.2  34196  290.19 0854.43
2009/04/23 13:47:41.8     268     52    224    274    353  79.0  43.6  34198  290.23 0854.43
2009/04/23 13:47:41.9     198    100    163    223    276  63.1  39.7  34206  290.36 0854.43
2009/04/23 13:47:42.0     245    137    156    281    321  60.7  31.6  34206  290.36 0854.43
2009/04/23 13:47:42.1     192    159    191    250    314  50.4  41.3  34212  290.44 0854.43
2009/04/23 13:47:42.2     284    139    143    317    347  63.8  26.2  34210  290.42 0854.43
2009/04/23 13:47:42.3     239    163    126    290    316  55.8  25.0  34206  290.34 0854.43
2009/04/23 13:47:42.4     301    192    210    358    415  57.5  33.1  34220  290.60 0854.43
2009/04/23 13:47:42.5     187    238    198    303    361  38.1  36.2  34226  290.69 0854.43
2009/04/23 13:47:42.6     147    248    189    289    345  30.7  36.2  34230  290.76 0854.43
2009/04/23 13:47:42.7      40    324    219    327    393   7.1  37.0  34252  291.13 0854.43
2009/04/23 13:47:42.8      32    409    149    411    438   4.6  19.9  34270  291.45 0854.44
2009/04/23 13:47:42.9     -60    226    155    234    280 345.1  36.5  34260  291.26 0854.44
2009/04/23 13:47:43.0    -117    214    142    245    283 331.3  32.9  34236  290.87 0854.44
2009/04/23 13:47:43.1    -120    194    131    229    263 328.4  32.4  34232  290.80 0854.44
2009/04/23 13:47:43.2     -69    209    162    221    274 341.7  39.7  34266  291.36 0854.44
2009/04/23 13:47:43.3     -45    222    149    227    271 348.5  36.3  34290  291.77 0854.44
2009/04/23 13:47:43.4     -44    281    186    285    340 351.1  36.0  34304  292.01 0854.44
2009/04/23 13:47:43.5     -75    224    155    237    283 341.3  36.3  34294  291.85 0854.44
2009/04/23 13:47:43.6     -43    130    101    138    171 341.5  39.9  34292  291.81 0854.44
2009/04/23 13:47:43.7      17    103     69    105    125   9.3  36.0  34288  291.76 0854.44
2009/04/23 13:47:43.8     154     92    113    180    212  59.1  35.5  34254  291.16 0854.44
2009/04/23 13:47:43.9     235     38    158    239    286  80.8  36.5  34230  290.76 0854.44
2009/04/23 13:47:44.0     130     35    162    135    210  74.9  56.3  34228  290.72 0854.44
2009/04/23 13:47:44.1     -15    -51    144     54    153 196.9  79.1  34222  290.64 0854.44
2009/04/23 13:47:44.2      37     17    164     42    169  64.7  85.6  34216  290.52 0854.44
2009/04/23 13:47:44.3     256     35    284    259    384  82.1  53.0  34200  290.25 0854.44
2009/04/23 13:47:44.4     323    -50    173    327    369  98.8  30.3  34204  290.32 0854.44
2009/04/23 13:47:44.5     280   -107    277    300    408 110.9  47.6  34198  290.23 0854.44
2009/04/23 13:47:44.6     185    -73    273    200    338 111.7  60.4  34206  290.36 0854.44
2009/04/23 13:47:44.7     206      5    223    207    304  88.5  52.2  34202  290.29 0854.44
2009/04/23 13:47:44.8     270     23    153    272    312  85.0  31.9  34198  290.22 0854.47
2009/04/23 13:47:44.9     -27     31    146     42    151 318.6  83.3  34210  290.43 0854.47
2009/04/23 13:47:45.0      21   -308    115    309    329 176.0  21.3  34210  290.41 0854.47
2009/04/23 13:47:45.1    -105   -313     95    331    345 198.6  16.1  34218  290.55 0854.47
2009/04/23 13:47:45.2    -223   -195     58    297    303 228.9  11.1  34210  290.41 0854.47
2009/04/23 13:47:45.3    -208   -193    100    284    302 227.1  19.4  34210  290.42 0854.47
2009/04/23 13:47:45.4    -240   -122      8    270    271 243.0   1.7  34206  290.36 0854.47
2009/04/23 13:47:45.5    -340   -226     -1    409    410 236.3  -0.3  34208  290.38 0854.47
2009/04/23 13:47:45.6    -280   -290     33    404    406 224.0   4.7  34216  290.53 0854.47
2009/04/23 13:47:45.7    -369   -121    -99    389    402 251.8 -14.4  34192  290.13 0854.47
2009/04/23 13:47:45.8    -234   -188     19    301    302 231.1   3.8  34210  290.41 0854.47
2009/04/23 13:47:45.9    -135   -182    163    227    279 216.5  39.5  34214  290.49 0854.47
2009/04/23 13:47:46.0    -185   -257    201    317    375 215.8  35.5  34208  290.37 0854.47
2009/04/23 13:47:46.1    -214   -228    160    314    352 223.2  29.2  34212  290.47 0854.47
2009/04/23 13:47:46.2     -32   -254    131    257    288 187.3  29.2  34210  290.41 0854.47
2009/04/23 13:47:46.3     106   -393     41    408    411 164.8   5.8  34208  290.39 0854.47
2009/04/23 13:47:46.4     239   -400    156    467    493 149.1  18.5  34194  290.15 0854.47
2009/04/23 13:47:46.5     363   -442     99    573    582 140.6   9.9  34196  290.19 0854.47
2009/04/23 13:47:46.6     339   -357     42    493    495 136.5   5.0  34192  290.12 0854.47
2009/04/23 13:47:46.7     112   -378    185    395    436 163.5  27.1  34192  290.11 0854.47
2009/04/23 13:47:46.8     134   -450    271    470    542 163.4  32.6  34196  290.19 0854.47
2009/04/23 13:47:46.9      28   -601    154    602    622 177.3  14.4  34194  290.16 0854.47
2009/04/23 13:47:47.0     118   -635    130    646    659 169.4  11.4  34188  290.06 0854.47
2009/04/23 13:47:47.1       0   -448      6    449    450 180.0   0.8  34196  290.19 0854.47
2009/04/23 13:47:47.2     -15   -502    114    503    516 181.8  12.8  34200  290.25 0854.47
2009/04/23 13:47:47.3     -51   -652    196    655    684 184.5  16.7  34198  290.22 0854.47
2009/04/23 13:47:47.4    -163   -537    183    562    592 196.9  18.0  34194  290.14 0854.47
2009/04/23 13:47:47.5    -164   -549    118    574    587 196.7  11.7  34198  290.20 0854.47
2009/04/23 13:47:47.6    -207   -492    138    534    552 202.8  14.5  34194  290.14 0854.47
2009/04/23 13:47:47.7    -214   -444     81    494    501 205.8   9.3  34192  290.10 0854.47
2009/04/23 13:47:47.8     -80   -503    399    510    647 189.1  42.0  34198  290.20 0854.47
2009/04/23 13:47:47.9     -36   -694    258    695    741 183.0  21.3  34186  290.01 0854.47
2009/04/23 13:47:48.0     -22   -667      5    668    669 181.9   0.5  34194  290.14 0854.47
2009/04/23 13:47:48.1      69   -494      6    499    500 172.0   0.7  34188  290.05 0854.47
2009/04/23 13:47:48.2     223   -376    -31    438    440 149.3  -4.1  34192  290.12 0854.47
2009/04/23 13:47:48.3     257   -275     68    377    384 137.0  10.3  34194  290.16 0854.47
2009/04/23 13:47:48.4     245   -228     18    335    336 132.9   3.2  34198  290.23 0854.47
2009/04/23 13:47:48.5     318   -315    105    448    461 134.7  13.2  34200  290.26 0854.47
2009/04/23 13:47:48.6     186   -382     75    425    432 154.0  10.1  34192  290.12 0854.47
2009/04/23 13:47:48.7     -18   -355    -16    356    357 182.9  -2.7  34188  290.06 0854.47
2009/04/23 13:47:48.8      -8   -339     39    340    343 181.5   6.6  34202  290.28 0854.50
2009/04/23 13:47:48.9     190   -270    140    331    359 144.9  24.3  34194  290.16 0854.50
2009/04/23 13:47:49.0     335   -477    135    583    599 144.9  13.1  34194  290.15 0854.50
2009/04/23 13:47:49.1     453   -431    105    626    635 133.6   9.6  34198  290.23 0854.50
2009/04/23 13:47:49.2     454   -381    206    594    629 130.0  19.2  34194  290.16 0854.50
2009/04/23 13:47:49.3     229   -424    221    482    530 151.6  26.3  34192  290.12 0854.50
2009/04/23 13:47:49.4     262   -328     98    421    433 141.4  13.1  34202  290.28 0854.50
2009/04/23 13:47:49.5     326   -539     26    631    632 148.8   2.4  34198  290.23 0854.50
2009/04/23 13:47:49.6     342   -618    -11    707    708 151.0  -0.9  34202  290.27 0854.50
2009/04/23 13:47:49.7     382   -552      5    672    673 145.3   0.5  34192  290.12 0854.50
2009/04/23 13:47:49.8     286   -597     -4    662    663 154.4  -0.4  34198  290.22 0854.52
2009/04/23 13:47:49.9     265   -489     83    557    564 151.5   8.5  34196  290.19 0854.52
2009/04/23 13:47:50.0     390   -390     11    552    553 135.0   1.2  34198  290.21 0854.52
2009/04/23 13:47:50.1     276   -398     76    485    492 145.2   8.9  34200  290.25 0854.52
2009/04/23 13:47:50.2     143   -516     81    536    543 164.4   8.6  34200  290.24 0854.52
2009/04/23 13:47:50.3     114   -514    240    527    579 167.5  26.2  34198  290.21 0854.52
2009/04/23 13:47:50.4     -28   -393    233    394    457 184.1  33.5  34202  290.29 0854.52
2009/04/23 13:47:50.5      56   -387    122    392    411 171.7  17.3  34192  290.11 0854.52
2009/04/23 13:47:50.6      66   -183    -69    195    206 160.0 -24.8  34198  290.21 0854.52
2009/04/23 13:47:50.7      23   -285   -152    287    324 175.3 -34.5  34202  290.29 0854.52
2009/04/23 13:47:50.8     130   -476     27    494    495 164.7   3.1  34198  290.23 0854.52
2009/04/23 13:47:50.9     255   -400    142    475    496 147.4  16.7  34200  290.25 0854.52
2009/04/23 13:47:51.0     293   -458    176    544    572 147.4  17.9  34200  290.24 0854.52
2009/04/23 13:47:51.1     129   -426     99    446    458 163.1  12.6  34192  290.11 0854.52
2009/04/23 13:47:51.2      54   -579     92    582    590 174.6   9.0  34198  290.20 0854.52
2009/04/23 13:47:51.3     248   -511    170    569    595 154.1  16.7  34196  290.19 0854.52
2009/04/23 13:47:51.4     107   -499    221    511    556 167.9  25.1  34200  290.26 0854.52
2009/04/23 13:47:51.5     167   -484    194    513    548 161.0  21.8  34196  290.19 0854.52
2009/04/23 13:47:51.6     198   -521    262    558    616 159.2  27.1  34202  290.27 0854.52
2009/04/23 13:47:51.7      86   -616    105    623    632 172.0   9.6  34202  290.28 0854.52
2009/04/23 13:47:51.8     296   -707    273    767    815 157.3  19.6  34200  290.25 0854.49
2009/04/23 13:47:51.9      80   -658    161    663    683 173.0  13.7  34200  290.24 0854.49
2009/04/23 13:47:52.0     261   -514    151    577    597 153.0  14.7  34194  290.15 0854.49
2009/04/23 13:47:52.1     387   -437     -7    584    585 138.5  -0.7  34188  290.05 0854.49
2009/04/23 13:47:52.2     302   -332     -9    449    450 137.7  -1.2  34200  290.26 0854.49
2009/04/23 13:47:52.3     306   -272     65    410    416 131.6   9.0  34198  290.22 0854.49
2009/04/23 13:47:52.4     330   -202     19    388    389 121.5   2.9  34194  290.15 0854.49
2009/04/23 13:47:52.5     152   -298     12    335    336 153.0   2.1  34202  290.27 0854.49
2009/04/23 13:47:52.6     294   -227     87    372    383 127.8  13.2  34198  290.23 0854.49
2009/04/23 13:47:52.7     378   -355    228    520    567 133.2  25.2  34190  290.09 0854.49
2009/04/23 13:47:52.8     273   -554    216    618    655 153.7  19.3  34198  290.21 0854.49
2009/04/23 13:47:52.9     291   -577    149    647    665 153.2  13.0  34196  290.19 0854.49
2009/04/23 13:47:53.0     443   -619    237    762    798 144.4  17.3  34198  290.20 0854.49
2009/04/23 13:47:53.1     472   -583    226    751    785 141.0  16.8  34190  290.07 0854.49
2009/04/23 13:47:53.2     448   -573    226    728    763 142.0  17.3  34198  290.21 0854.49
2009/04/23 13:47:53.3     395   -619    122    735    746 147.4   9.5  34192  290.12 0854.49
2009/04/23 13:47:53.4     323   -573    272    658    712 150.6  23.8  34200  290.24 0854.49
2009/04/23 13:47:53.5     272   -748    178    797    817 160.0  12.6  34192  290.13 0854.49
2009/04/23 13:47:53.6     510   -663    289    837    886 142.4  19.1  34198  290.23 0854.49
2009/04/23 13:47:53.7     665   -369    249    761    801 119.0  18.1  34202  290.29 0854.49
2009/04/23 13:47:53.8     388   -411     68    566    571 136.7   6.9  34202  290.27 0854.47
2009/04/23 13:47:53.9     200   -479    110    520    532 157.3  12.0  34200  290.24 0854.47
2009/04/23 13:47:54.0     249   -363    123    441    458 145.5  15.6  34194  290.16 0854.47
2009/04/23 13:47:54.1     233   -293    219    375    434 141.5  33.0  34204  290.31 0854.47
2009/04/23 13:47:54.2      73   -587    336    592    680 172.9  32.1  34196  290.18 0854.47
2009/04/23 13:47:54.4     -58   -532    219    536    579 186.3  23.5  34200  290.26 0854.47
2009/04/23 13:47:54.4      28   -431    175    432    466 176.2  23.1  34200  290.24 0854.47
2009/04/23 13:47:54.5      48   -209    163    215    269 166.9  40.9  34198  290.22 0854.47
2009/04/23 13:47:54.6     399   -174    -88    436    445 113.6 -11.5  34196  290.19 0854.47
2009/04/23 13:47:54.8     205   -160    -14    261    262 128.0  -3.1  34192  290.12 0854.47
2009/04/23 13:47:54.8     197   -366    178    416    452 151.7  24.6  34192  290.12 0854.47
2009/04/23 13:47:55.0     295   -369    119    473    488 141.3  14.2  34198  290.22 0854.47
2009/04/23 13:47:55.1     243   -258     89    355    367 136.8  14.2  34202  290.27 0854.47
2009/04/23 13:47:55.2     258   -103    166    279    324 111.8  33.6  34196  290.19 0854.47
2009/04/23 13:47:55.3     -14    -22    236     27    237 212.5  90.0  34210  290.41 0854.47
2009/04/23 13:47:55.4     415   -130    218    435    486 107.4  28.6  34200  290.25 0854.47
2009/04/23 13:47:55.5     285   -202    125    350    371 125.3  20.4  34198  290.21 0854.47
2009/04/23 13:47:55.6     276    -10     79    277    289  92.1  16.0  34188  290.05 0854.47
2009/04/23 13:47:55.7     315     41    138    318    346  82.5  25.0  34198  290.23 0854.47
2009/04/23 13:47:55.8     359   -157    255    392    467 113.6  36.0  34196  290.17 0854.47
2009/04/23 13:47:55.9     387   -164    242    421    485 113.0  32.4  34202  290.30 0854.48
2009/04/23 13:47:56.0     318   -292    -17    433    434 132.6  -2.3  34194  290.14 0854.48
2009/04/23 13:47:56.1     405   -249     27    476    477 121.6   3.3  34200  290.25 0854.48
2009/04/23 13:47:56.2     369   -342    142    504    524 132.8  15.8  34202  290.29 0854.48
2009/04/23 13:47:56.3     294   -400     88    497    505 143.6  10.1  34198  290.20 0854.48
2009/04/23 13:47:56.4     343   -486     99    596    605 144.8   9.4  34194  290.15 0854.48
2009/04/23 13:47:56.5     407   -412    147    580    599 135.4  14.3  34182  289.93 0854.48
2009/04/23 13:47:56.6     420   -408    184    586    615 134.2  17.4  34188  290.03 0854.48
2009/04/23 13:47:56.7     303   -284    256    416    488 133.1  34.5  34186  290.01 0854.48
2009/04/23 13:47:56.8     312   -572    225    652    690 151.4  19.1  34188  290.05 0854.48
2009/04/23 13:47:56.9     193   -447    -19    488    489 156.6  -2.2  34192  290.13 0854.48
2009/04/23 13:47:57.0     137   -325     85    353    364 157.1  13.5  34192  290.13 0854.48
2009/04/23 13:47:57.1     211   -198    -27    290    292 133.2  -5.4  34198  290.20 0854.48
2009/04/23 13:47:57.2      66   -246    -32    255    258 164.8  -7.2  34182  289.95 0854.48
2009/04/23 13:47:57.3     -32   -307    176    309    355 186.0  32.3  34190  290.08 0854.48
2009/04/23 13:47:57.4      42   -269    298    273    404 171.1  53.0  34192  290.13 0854.48
2009/04/23 13:47:57.5      15   -297    272    298    403 177.1  47.1  34188  290.04 0854.48
2009/04/23 13:47:57.6     152   -161    176    222    283 136.7  42.7  34192  290.12 0854.48
2009/04/23 13:47:57.7     313   -222    138    384    408 125.4  20.6  34184  289.99 0854.48
2009/04/23 13:47:57.8     226   -273    -52    355    359 140.3  -8.4  34190  290.08 0854.48
2009/04/23 13:47:57.9     216   -332   -133    397    418 147.0 -23.3  34184  289.99 0854.48
2009/04/23 13:47:58.0     132   -222   -236    259    350 149.3 -51.5  34188  290.05 0854.48
2009/04/23 13:47:58.1     137   -202   -141    245    282 145.9 -37.1  34182  289.93 0854.48
2009/04/23 13:47:58.2      64    -30      6     71     72 115.3   4.9  34182  289.94 0854.48
2009/04/23 13:47:58.3     -35      8     58     36     68 283.3  64.7  34186  290.02 0854.48
2009/04/23 13:47:58.4     -90    -27     55     95    109 253.2  32.9  34190  290.08 0854.48
2009/04/23 13:47:58.5     -26    -55    -70     61     92 205.3 -58.7  34196  290.18 0854.48
2009/04/23 13:47:58.6      16   -125    -48    127    135 172.4 -25.4  34184  289.97 0854.48
2009/04/23 13:47:58.7     -56     13     73     58     93 283.3  56.9  34184  289.99 0854.48
2009/04/23 13:47:58.8    -140   -193    -80    239    252 216.1 -23.6  34176  289.85 0854.48
2009/04/23 13:47:58.9     -92   -284     12    299    300 197.9   2.3  34174  289.81 0854.48
2009/04/23 13:47:59.0    -244    -86    -18    259    260 250.5  -4.1  34196  290.19 0854.48
2009/04/23 13:47:59.1    -275    -13     75    276    287 267.2  15.3  34200  290.24 0854.48
2009/04/23 13:47:59.2    -146     86    -55    170    179 300.7 -17.9  34194  290.16 0854.48
2009/04/23 13:47:59.3    -172     29   -121    175    212 279.7 -42.2  34186  290.01 0854.48
2009/04/23 13:47:59.4    -280     82   -166    292    335 286.4 -36.5  34188  290.03 0854.48
2009/04/23 13:47:59.5    -200    -87   -286    219    360 246.5 -63.3  34190  290.07 0854.48
2009/04/23 13:47:59.6    -111     10   -158    112    193 275.2 -65.7  34194  290.14 0854.48
2009/04/23 13:47:59.7     125   -161   -104    205    229 142.2 -33.5  34186  290.02 0854.48
2009/04/23 13:47:59.8     103   -110    -94    151    177 136.8 -39.4  34182  289.96 0854.48
2009/04/23 13:47:59.9     218   -111    -92    245    261 117.1 -25.9  34184  289.98 0854.51
2009/04/23 13:48:00.0      34     18   -122     39    128  61.1 -85.6  34190  290.08 0854.51
2009/04/23 13:48:00.1     -24    -72   -176     77    192 198.7 -79.4  34192  290.11 0854.51
2009/04/23 13:48:00.2    -264     82   -291    277    401 287.3 -55.9  34178  289.87 0854.51
2009/04/23 13:48:00.3    -175     94   -213    199    291 298.4 -56.5  34184  289.98 0854.51
2009/04/23 13:48:00.4    -134     81   -323    157    359 301.1 -76.6  34196  290.17 0854.51
2009/04/23 13:48:00.5     -83   -428   -161    436    464 191.0 -25.4  34180  289.90 0854.51
2009/04/23 13:48:00.6    -287   -394    -75    488    494 216.1  -8.8  34182  289.93 0854.51
2009/04/23 13:48:00.7    -180   -135    269    226    351 233.1  55.8  34188  290.05 0854.51
2009/04/23 13:48:00.8    -223   -237    259    326    416 223.2  42.6  34184  289.98 0854.51
2009/04/23 13:48:00.9    -211   -211    241    299    384 225.0  43.3  34178  289.87 0854.51
2009/04/23 13:48:01.0    -314   -269    172    414    448 229.5  23.8  34180  289.92 0854.51
2009/04/23 13:48:01.1    -145   -278    108    314    333 207.5  19.1  34182  289.95 0854.51
2009/04/23 13:48:01.2    -234   -358    117    429    445 213.2  15.3  34174  289.80 0854.51
2009/04/23 13:48:01.3    -328   -269    -41    425    428 230.6  -5.6  34176  289.85 0854.51
2009/04/23 13:48:01.4    -321   -273    149    422    447 229.6  20.1  34178  289.88 0854.51
2009/04/23 13:48:01.5    -121   -414    -33    432    434 196.4  -4.4  34172  289.77 0854.51
2009/04/23 13:48:01.6    -361    -77    144    370    397 257.8  22.4  34184  289.98 0854.51
2009/04/23 13:48:01.7    -169   -324     16    366    367 207.6   2.5  34180  289.91 0854.51
2009/04/23 13:48:01.8     -61   -301      3    308    309 191.6   0.7  34180  289.92 0854.51
2009/04/23 13:48:01.9    -113   -312     38    332    335 200.0   6.6  34174  289.81 0854.53
2009/04/23 13:48:02.0    -428   -525   -190    678    704 219.2 -20.4  34172  289.78 0854.53
2009/04/23 13:48:02.1    -436   -575   -332    722    794 217.2 -30.9  34156  289.51 0854.53
2009/04/23 13:48:02.2    -580   -720   -316    925    978 218.9 -18.9  34154  289.48 0854.53
2009/04/23 13:48:02.3    -291   -625    134    690    703 205.0  11.0  34176  289.83 0854.53
2009/04/23 13:48:02.4    -453   -498   -186    674    699 222.3 -20.1  34152  289.43 0854.53
2009/04/23 13:48:02.5    -506   -534   -141    736    750 223.5 -10.9  34168  289.70 0854.53
2009/04/23 13:48:02.6    -478   -510   -201    700    729 223.1 -16.1  34158  289.55 0854.53
2009/04/23 13:48:02.7    -439   -482   -101    653    661 222.3  -8.8  34150  289.39 0854.53
2009/04/23 13:48:02.8    -330   -465   -114    571    583 215.3 -11.3  34152  289.44 0854.53
2009/04/23 13:48:02.9    -312   -465   -133    561    577 213.9 -13.4  34146  289.34 0854.53
2009/04/23 13:48:03.0    -280   -488   -165    563    587 209.9 -16.4  34146  289.32 0854.53
2009/04/23 13:48:03.1    -270   -456   -137    531    549 210.7 -14.5  34162  289.60 0854.53
2009/04/23 13:48:03.2    -222   -347   -125    413    431 212.6 -21.7  34154  289.46 0854.53
2009/04/23 13:48:03.3    -257   -373   -138    454    475 214.6 -17.0  34152  289.45 0854.53
2009/04/23 13:48:03.4    -264   -371   -153    456    482 215.4 -18.6  34146  289.35 0854.53
2009/04/23 13:48:03.5    -269   -330   -151    426    453 219.2 -19.5  34156  289.49 0854.53
2009/04/23 13:48:03.6    -344   -299   -141    457    479 229.0 -17.2  34162  289.62 0854.53
2009/04/23 13:48:03.7    -407   -230   -140    468    489 240.5 -16.7  34164  289.64 0854.53
2009/04/23 13:48:03.8    -528   -246   -200    583    617 245.0 -19.0  34164  289.64 0854.53
2009/04/23 13:48:03.9    -434   -287   -207    521    560 236.5 -27.4  34166  289.68 0854.52
2009/04/23 13:48:04.0    -626   -316   -224    702    736 243.2 -22.8  34156  289.49 0854.52
2009/04/23 13:48:04.1    -637   -307   -231    708    745 244.3 -18.1  34178  289.89 0854.52
2009/04/23 13:48:04.2    -495   -432   -289    658    718 228.9 -29.6  34166  289.66 0854.52
2009/04/23 13:48:04.3    -534   -405   -201    671    701 232.8 -16.7  34160  289.58 0854.52
2009/04/23 13:48:04.4    -600   -295   -187    669    695 243.8 -15.7  34164  289.65 0854.52
2009/04/23 13:48:04.5    -716   -351   -199    798    823 243.9 -14.0  34178  289.86 0854.52
2009/04/23 13:48:04.6    -669   -322   -215    743    774 244.3 -16.2  34182  289.94 0854.52
2009/04/23 13:48:04.7    -629   -309   -201    701    730 243.8 -16.0  34178  289.88 0854.52
2009/04/23 13:48:04.8    -599   -251   -230    650    690 247.3 -19.5  34178  289.87 0854.52
2009/04/23 13:48:04.9    -443   -479    -10    653    654 222.8  -0.9  34184  289.98 0854.52
2009/04/23 13:48:05.0    -432   -492     81    656    662 221.3   7.1  34194  290.14 0854.52
2009/04/23 13:48:05.1    -241   -524     53    577    580 204.7   5.3  34184  289.97 0854.52
2009/04/23 13:48:05.2    -593   -275     12    654    655 245.1   1.1  34188  290.06 0854.52
2009/04/23 13:48:05.3    -373   -395   -160    544    567 223.3 -16.4  34182  289.94 0854.52
2009/04/23 13:48:05.4     -94   -282   -103    298    315 198.5 -24.3  34176  289.83 0854.52
2009/04/23 13:48:05.5    -127   -300   -241    326    405 202.9 -44.5  34172  289.77 0854.52
2009/04/23 13:48:05.6     108   -339   -194    356    405 162.3 -35.4  34172  289.79 0854.52
2009/04/23 13:48:05.7     187   -340    -37    389    391 151.1  -5.5  34172  289.77 0854.52
2009/04/23 13:48:05.8      69   -127    197    145    244 151.5  60.0  34178  289.87 0854.52
2009/04/23 13:48:05.9    -206    -61    -35    216    219 253.4  -9.3  34174  289.80 0854.43
2009/04/23 13:48:06.0    -231   -161   -107    282    301 235.1 -26.1  34174  289.81 0854.43
2009/04/23 13:48:06.1     -66   -152     33    167    171 203.6  11.4  34170  289.75 0854.43
2009/04/23 13:48:06.2    -180   -145     -9    232    233 231.1  -2.2  34180  289.91 0854.43
2009/04/23 13:48:06.3    -206   -249    113    324    344 219.6  19.3  34172  289.79 0854.43
2009/04/23 13:48:06.4    -295   -338     30    449    450 221.1   3.9  34172  289.77 0854.43
2009/04/23 13:48:06.5    -404   -261    -22    482    483 237.1  -2.7  34170  289.73 0854.43
2009/04/23 13:48:06.6    -510   -260   -198    573    607 243.0 -19.1  34184  289.97 0854.43
2009/04/23 13:48:06.7    -501   -438   -250    666    711 228.8 -26.0  34172  289.78 0854.43
2009/04/23 13:48:06.8    -586   -348   -245    682    724 239.3 -25.0  34172  289.76 0854.43
2009/04/23 13:48:06.9    -505   -353   -253    617    666 235.0 -28.0  34168  289.72 0854.43
2009/04/23 13:48:07.0    -484   -262   -210    551    589 241.6 -26.4  34174  289.80 0854.43
2009/04/23 13:48:07.1    -435   -315   -204    538    575 234.0 -26.2  34176  289.85 0854.43
2009/04/23 13:48:07.2    -439   -279   -195    521    556 237.6 -25.9  34180  289.92 0854.43
2009/04/23 13:48:07.3    -290   -301   -186    419    458 223.9 -29.7  34180  289.92 0854.43
2009/04/23 13:48:07.4    -389   -134   -125    412    431 251.0 -17.0  34182  289.95 0854.43
2009/04/23 13:48:07.5      -8   -108   -151    109    186 184.4 -64.9  34178  289.89 0854.43
2009/04/23 13:48:07.6      -7   -222    -21    223    225 182.0  -5.4  34178  289.87 0854.43
2009/04/23 13:48:07.7    -171   -151     23    229    231 228.6   5.9  34180  289.92 0854.43
2009/04/23 13:48:07.8    -140    -23     17    143    145 260.4   6.9  34178  289.89 0854.43
2009/04/23 13:48:07.9    -142     -3     27    143    146 268.7  11.0  34180  289.92 0854.40
2009/04/23 13:48:08.0    -210    129    -74    247    259 301.6 -16.8  34180  289.92 0854.40
2009/04/23 13:48:08.1    -315    -59   -116    321    341 259.4 -25.0  34188  290.04 0854.40
2009/04/23 13:48:08.2    -245   -161   -124    294    319 236.7 -28.7  34184  289.98 0854.40
2009/04/23 13:48:08.3    -292   -261   -122    392    410 228.2 -22.4  34186  290.02 0854.40
2009/04/23 13:48:08.4     -89   -281    -73    295    304 197.6 -13.9  34180  289.92 0854.40
2009/04/23 13:48:08.5       7   -376    -42    377    380 178.9  -6.5  34178  289.89 0854.40
2009/04/23 13:48:08.6    -132   -427     38    448    450 197.2   4.9  34186  290.00 0854.40
2009/04/23 13:48:08.7    -201   -464    -26    506    507 203.5  -3.0  34182  289.93 0854.40
2009/04/23 13:48:08.8    -210   -426     84    476    484 206.3  10.0  34186  290.01 0854.40
2009/04/23 13:48:08.9    -121   -363    170    383    419 198.5  25.6  34188  290.04 0854.40
2009/04/23 13:48:09.0    -105   -309    113    327    347 198.9  19.1  34184  289.99 0854.40
2009/04/23 13:48:09.1    -156   -277     20    319    320 209.4   3.6  34176  289.85 0854.40
2009/04/23 13:48:09.2     -38   -305     69    308    316 187.1  12.8  34178  289.86 0854.40
2009/04/23 13:48:09.3     -23   -515     91    516    525 182.6  10.0  34180  289.92 0854.40
2009/04/23 13:48:09.4    -194   -385   -134    432    453 206.8 -17.3  34178  289.88 0854.40
2009/04/23 13:48:09.5    -302   -430   -184    526    558 215.1 -19.3  34182  289.96 0854.40
2009/04/23 13:48:09.6    -288   -602   -176    668    691 205.6 -14.8  34180  289.92 0854.40
2009/04/23 13:48:09.7    -115   -505    -89    519    527 192.9  -9.8  34182  289.96 0854.40
2009/04/23 13:48:09.8     -50   -520    -43    523    525 185.6  -4.8  34170  289.75 0854.40
2009/04/23 13:48:09.9      79   -587     38    593    595 172.3   3.7  34176  289.83 0854.41
2009/04/23 13:48:10.0      80   -574    124    580    594 172.0  12.1  34172  289.78 0854.41
2009/04/23 13:48:10.1     -74   -341    160    350    384 192.3  26.4  34174  289.81 0854.41
2009/04/23 13:48:10.2    -151   -438     79    464    471 199.1   9.7  34180  289.91 0854.41
2009/04/23 13:48:10.3    -130   -531     46    547    550 193.8   4.9  34174  289.82 0854.41
2009/04/23 13:48:10.4    -148   -466    171    490    520 197.7  19.3  34180  289.91 0854.41
2009/04/23 13:48:10.5      32   -386    264    388    469 175.2  37.6  34176  289.83 0854.41
2009/04/23 13:48:10.6     227   -344    291    413    505 146.6  38.6  34180  289.91 0854.41
2009/04/23 13:48:10.7     169   -627    177    650    674 164.9  15.3  34180  289.90 0854.41
2009/04/23 13:48:10.8     152   -599     52    619    622 165.7   4.9  34174  289.82 0854.41
2009/04/23 13:48:10.9     194   -693     15    720    721 164.3   1.2  34178  289.89 0854.42
2009/04/23 13:48:11.0     105   -599   -110    609    619 170.0 -10.3  34174  289.82 0854.42
2009/04/23 13:48:11.1       1   -459   -156    460    487 179.8 -18.8  34170  289.74 0854.42
2009/04/23 13:48:11.2     -47   -462    -84    465    473 185.9 -10.3  34170  289.73 0854.42
2009/04/23 13:48:11.3      66   -508   -168    513    540 172.6 -18.2  34170  289.75 0854.42
2009/04/23 13:48:11.4     -27   -599    -32    600    601 182.6  -3.1  34172  289.78 0854.42
2009/04/23 13:48:11.5     -31   -570    119    571    584 183.1  11.8  34170  289.73 0854.42
2009/04/23 13:48:11.6     110   -533     72    545    550 168.3   7.6  34174  289.82 0854.42
2009/04/23 13:48:11.7     252   -363    156    443    469 145.2  20.2  34172  289.78 0854.42
2009/04/23 13:48:11.8     220   -625    153    663    681 160.6  13.0  34176  289.85 0854.42
2009/04/23 13:48:11.9      44   -580    -12    582    583 175.6  -1.3  34174  289.80 0854.42
2009/04/23 13:48:12.0    -103   -466     19    478    479 192.5   2.4  34178  289.86 0854.42
2009/04/23 13:48:12.1     -59   -411     37    416    418 188.3   5.1  34180  289.92 0854.42
2009/04/23 13:48:12.2    -238   -373    -25    443    444 212.6  -3.3  34176  289.83 0854.42
2009/04/23 13:48:12.3    -184   -274   -140    331    359 213.8 -28.7  34174  289.81 0854.42
2009/04/23 13:48:12.4    -364   -163   -263    399    477 245.8 -40.9  34178  289.88 0854.42
2009/04/23 13:48:12.5    -268   -325   -270    422    500 219.5 -40.0  34176  289.83 0854.42
2009/04/23 13:48:12.6    -324   -374   -171    495    523 220.9 -24.0  34162  289.62 0854.42
2009/04/23 13:48:12.7    -336   -468    -88    577    584 215.7  -8.7  34182  289.95 0854.42
2009/04/23 13:48:12.8    -488   -217    -29    534    535 246.0  -3.2  34180  289.90 0854.42
2009/04/23 13:48:12.9    -442    -93    -57    452    456 258.1  -7.2  34188  290.04 0854.45
2009/04/23 13:48:13.0    -303   -430   -177    527    557 215.2 -18.6  34176  289.85 0854.45
2009/04/23 13:48:13.1    -396   -420    -25    578    579 223.3  -2.5  34188  290.05 0854.45
2009/04/23 13:48:13.2    -291   -567     13    638    639 207.2   1.2  34184  289.98 0854.45
2009/04/23 13:48:13.3    -222   -698     70    733    737 197.7   5.5  34190  290.09 0854.45
2009/04/23 13:48:13.4     -62   -834    -89    837    842 184.3  -6.1  34172  289.76 0854.45
2009/04/23 13:48:13.5      68   -733     55    737    739 174.7   4.3  34164  289.65 0854.45
2009/04/23 13:48:13.6     120   -690    160    701    720 170.1  12.9  34186  290.00 0854.45
2009/04/23 13:48:13.7     281   -656    286    714    769 156.8  23.1  34184  289.97 0854.45
2009/04/23 13:48:13.8     334   -603    296    690    750 151.0  24.8  34182  289.94 0854.45
2009/04/23 13:48:13.9     215   -745    190    776    800 163.9  13.8  34176  289.85 0854.45
2009/04/23 13:48:14.0      80   -740      9    745    746 173.8   0.7  34168  289.72 0854.45
2009/04/23 13:48:14.1     155   -671     78    689    694 167.0   6.5  34176  289.85 0854.45
2009/04/23 13:48:14.2     125   -808   -162    818    834 171.2 -11.2  34178  289.89 0854.45
2009/04/23 13:48:14.3     -58   -854   -140    856    868 183.9  -9.3  34170  289.75 0854.45
2009/04/23 13:48:14.4      25   -965   -130    966    975 178.5  -7.7  34174  289.82 0854.45
2009/04/23 13:48:14.5      96   -884    -34    890    891 173.8  -2.2  34176  289.83 0854.45
2009/04/23 13:48:14.6      93   -792    -12    798    799 173.3  -0.9  34174  289.81 0854.45
2009/04/23 13:48:14.7      43   -826    -29    828    829 177.0  -2.0  34178  289.87 0854.45
2009/04/23 13:48:14.8     133   -755     18    767    768 170.0   1.4  34178  289.87 0854.45
2009/04/23 13:48:14.9     149   -827     41    841    843 169.8   2.8  34170  289.75 0854.49
2009/04/23 13:48:15.0     112   -799     71    808    812 172.0   5.1  34178  289.87 0854.49
2009/04/23 13:48:15.1     280   -873    148    917    930 162.2   9.2  34172  289.78 0854.49
2009/04/23 13:48:15.2     198   -874    161    897    912 167.2  10.2  34180  289.90 0854.49
2009/04/23 13:48:15.3     227   -902    180    931    949 165.8  11.0  34178  289.88 0854.49
2009/04/23 13:48:15.4     329   -961    143   1017   1028 161.1   8.0  34172  289.79 0854.49
2009/04/23 13:48:15.5     329   -956    105   1012   1018 161.0   6.0  34182  289.96 0854.49
2009/04/23 13:48:15.6     263  -1032    113   1066   1073 165.7   6.1  34184  289.98 0854.49
2009/04/23 13:48:15.7     352  -1012     41   1072   1073 160.8   2.2  34188  290.03 0854.49
2009/04/23 13:48:15.9     363   -943     86   1011   1015 158.9   4.9  34182  289.96 0854.49
2009/04/23 13:48:15.9     288   -909    112    954    961 162.4   6.7  34174  289.82 0854.49
2009/04/23 13:48:16.0     162  -1155      2   1167   1168 172.0   0.1  34176  289.85 0854.49
2009/04/23 13:48:16.1     -28  -1020   -209   1021   1043 181.6 -11.6  34184  289.98 0854.49
2009/04/23 13:48:16.2    -150   -981   -164    993   1007 188.7  -9.4  34178  289.88 0854.49
2009/04/23 13:48:16.3      24  -1011   -193   1012   1031 178.6 -10.8  34172  289.79 0854.49
2009/04/23 13:48:16.4     -98  -1080    -89   1085   1089 185.2  -4.7  34170  289.74 0854.49
2009/04/23 13:48:16.5    -125  -1122    -86   1130   1133 186.4  -4.4  34170  289.75 0854.49
2009/04/23 13:48:16.6     -43  -1056    -48   1057   1058 182.4  -2.6  34164  289.63 0854.49
2009/04/23 13:48:16.7    -230  -1079    -51   1104   1106 192.1  -2.7  34172  289.77 0854.49
2009/04/23 13:48:16.8    -197  -1044    -42   1063   1064 190.7  -2.3  34176  289.84 0854.49
2009/04/23 13:48:16.9    -143   -989    -57   1000   1002 188.3  -3.3  34176  289.83 0854.41
2009/04/23 13:48:17.0     -68   -955   -101    958    964 184.1  -6.1  34172  289.77 0854.41
2009/04/23 13:48:17.1       3   -816    -98    817    823 179.8  -6.9  34168  289.70 0854.41
2009/04/23 13:48:17.2     -88   -753    -46    759    761 186.7  -3.5  34172  289.77 0854.41
2009/04/23 13:48:17.3    -122   -895    -26    904    905 187.8  -1.7  34168  289.72 0854.41
2009/04/23 13:48:17.4     -89   -819     16    824    825 186.2   1.1  34172  289.79 0854.41
2009/04/23 13:48:17.5     -43   -788     16    790    791 183.1   1.2  34166  289.68 0854.41
2009/04/23 13:48:17.6      13   -791    139    792    805 179.0  10.0  34176  289.85 0854.41
2009/04/23 13:48:17.7     -61   -796     43    799    801 184.4   3.1  34176  289.83 0854.41
2009/04/23 13:48:17.8     -74   -777     24    781    782 185.5   1.8  34172  289.78 0854.41
2009/04/23 13:48:17.9     -30   -870    -16    871    872 182.0  -1.1  34166  289.66 0854.41
2009/04/23 13:48:18.0       7   -816    -57    817    819 179.5  -4.0  34162  289.60 0854.41
2009/04/23 13:48:18.1      46   -753    -68    755    759 176.5  -5.2  34158  289.55 0854.41
2009/04/23 13:48:18.2      38   -750    -29    751    752 177.1  -2.2  34164  289.63 0854.41
2009/04/23 13:48:18.3      87   -704     34    710    711 172.9   2.8  34162  289.62 0854.41
2009/04/23 13:48:18.4      57   -756     -3    758    759 175.6  -0.3  34168  289.72 0854.41
2009/04/23 13:48:18.5      80   -737     -2    742    743 173.8  -0.2  34170  289.75 0854.41
2009/04/23 13:48:18.6     124   -733    -12    744    745 170.4  -1.0  34172  289.77 0854.41
2009/04/23 13:48:18.7      85   -803    -24    808    809 173.9  -1.7  34172  289.77 0854.41
2009/04/23 13:48:18.8    -122   -604   -141    617    633 191.5 -12.9  34164  289.65 0854.41
2009/04/23 13:48:18.9    -343   -838    -85    906    911 202.3  -5.4  34180  289.92 0854.39
2009/04/23 13:48:19.0    -273   -858   -184    901    921 197.7 -11.6  34184  289.97 0854.39
2009/04/23 13:48:19.1       5   -820      0    821    822 179.6   0.0  34168  289.70 0854.39
2009/04/23 13:48:19.2     -50   -746    -44    748    750 183.9  -3.4  34178  289.89 0854.39
2009/04/23 13:48:19.3     121   -794   -147    804    818 171.3 -10.4  34172  289.79 0854.39
2009/04/23 13:48:19.4      94   -679    -99    686    694 172.1  -8.2  34176  289.85 0854.39
2009/04/23 13:48:19.5     206   -580    -26    616    617 160.4  -2.5  34174  289.82 0854.39
2009/04/23 13:48:19.6      86   -534      3    542    543 170.8   0.3  34174  289.82 0854.39
2009/04/23 13:48:19.7     -41   -576    -97    578    587 184.1  -9.6  34180  289.91 0854.39
2009/04/23 13:48:19.8      44   -580    -75    582    587 175.6  -7.4  34180  289.90 0854.39
2009/04/23 13:48:19.9     163   -504    -47    530    533 162.1  -5.1  34178  289.87 0854.39
2009/04/23 13:48:20.0     136   -489    -87    508    516 164.4  -9.8  34180  289.91 0854.39
2009/04/23 13:48:20.1     106   -622    -96    631    639 170.3  -8.7  34182  289.96 0854.39
2009/04/23 13:48:20.2     156   -781   -113    797    806 168.7  -8.1  34182  289.95 0854.39
2009/04/23 13:48:20.3     138   -691   -210    705    736 168.7 -16.6  34178  289.88 0854.39
2009/04/23 13:48:20.4     291   -814   -199    865    888 160.3 -13.0  34172  289.79 0854.39
2009/04/23 13:48:20.5     290   -887    -96    934    939 161.9  -5.9  34176  289.83 0854.39
2009/04/23 13:48:20.7     302   -888   -280    939    980 161.2 -16.6  34182  289.96 0854.39
2009/04/23 13:48:20.7     439   -817   -287    928    972 151.7 -17.2  34182  289.94 0854.39
2009/04/23 13:48:20.9     342   -854   -106    921    928 158.2  -6.6  34160  289.56 0854.39
2009/04/23 13:48:20.9     152   -569    161    590    612 165.0  15.3  34170  289.73 0854.42
2009/04/23 13:48:21.0     413   -569    347    704    784 144.0  28.2  34178  289.89 0854.42
2009/04/23 13:48:21.1     280   -471    265    548    608 149.3  27.7  34180  289.91 0854.42
2009/04/23 13:48:21.2     236   -366    411    436    599 147.2  48.0  34194  290.16 0854.42
2009/04/23 13:48:21.3     420   -374    206    563    599 131.7  21.0  34188  290.03 0854.42
2009/04/23 13:48:21.4     252   -348    259    430    501 144.1  34.0  34184  289.98 0854.42
2009/04/23 13:48:21.6     174   -386    132    424    445 155.7  17.3  34194  290.14 0854.42
2009/04/23 13:48:21.7     136   -388     72    412    419 160.6  10.0  34182  289.94 0854.42
2009/04/23 13:48:21.8     176    -52   -116    184    217 106.6 -39.9  34140  289.24 0854.42
2009/04/23 13:48:21.9     205   -402     63    452    457 153.0   8.0  34184  289.99 0854.42
2009/04/23 13:48:22.0     241   -427    181    491    523 150.5  21.1  34178  289.89 0854.42
2009/04/23 13:48:22.1      68   -493    128    498    515 172.1  14.4  34184  289.98 0854.42
2009/04/23 13:48:22.2     146   -492    186    514    547 163.5  19.9  34188  290.06 0854.42
2009/04/23 13:48:22.3     190   -439    308    479    569 156.6  35.6  34188  290.06 0854.42
2009/04/23 13:48:22.4     114   -447    209    462    507 165.6  26.0  34184  289.98 0854.42
2009/04/23 13:48:22.5     210   -410    190    461    498 152.8  23.6  34188  290.03 0854.42
2009/04/23 13:48:22.6     241   -512    115    566    578 154.8  11.5  34188  290.05 0854.42
2009/04/23 13:48:22.7     284   -348      1    450    451 140.8   0.2  34188  290.04 0854.42
2009/04/23 13:48:22.8      40   -288     -2    291    292 172.0  -0.5  34178  289.88 0854.42
2009/04/23 13:48:22.9    -174   -497    170    527    554 199.3  17.9  34190  290.09 0854.42
2009/04/23 13:48:23.0     -23   -433    279    434    515 183.1  35.6  34182  289.96 0854.43
2009/04/23 13:48:23.1      11   -383    195    384    430 178.3  29.2  34182  289.94 0854.43
2009/04/23 13:48:23.2    -217   -458    137    507    526 205.4  15.2  34190  290.07 0854.43
2009/04/23 13:48:23.3    -196   -435     67    478    483 204.3   8.0  34186  290.01 0854.43
2009/04/23 13:48:23.4      36   -121     87    127    153 163.5  37.6  34192  290.11 0854.43
2009/04/23 13:48:23.5     283    -52    201    288    351 100.6  38.3  34188  290.04 0854.43
2009/04/23 13:48:23.6     294   -355    216    462    510 140.4  27.0  34196  290.18 0854.43
2009/04/23 13:48:23.7     102   -498    212    509    551 168.4  24.1  34194  290.14 0854.43
2009/04/23 13:48:23.8    -117   -394    276    412    495 196.6  37.0  34188  290.06 0854.43
2009/04/23 13:48:23.9    -224   -408    229    466    519 208.7  28.1  34192  290.10 0854.43
2009/04/23 13:48:24.0    -132   -281    235    311    389 205.3  40.7  34194  290.16 0854.43
2009/04/23 13:48:24.1    -201   -491    -71    531    536 202.3  -7.7  34190  290.07 0854.43
2009/04/23 13:48:24.2      35   -467   -292    469    552 175.6 -39.3  34184  289.97 0854.43
2009/04/23 13:48:24.3       5   -292   -210    293    360 178.9 -43.5  34188  290.06 0854.43
2009/04/23 13:48:24.4      41   -334   -166    337    375 172.9 -32.5  34194  290.15 0854.43
2009/04/23 13:48:24.5     110   -238    -95    263    279 155.1 -25.3  34196  290.19 0854.43
2009/04/23 13:48:24.6      83   -151    -41    173    178 151.0 -13.4  34192  290.11 0854.43
2009/04/23 13:48:24.7      24   -174      3    176    177 172.0   1.0  34192  290.11 0854.43
2009/04/23 13:48:24.8      12   -273    -19    274    275 177.3  -4.1  34192  290.10 0854.43
2009/04/23 13:48:24.9      94   -271     56    287    293 160.8  11.1  34192  290.12 0854.43
2009/04/23 13:48:25.0     135   -199     96    241    259 145.7  23.0  34190  290.09 0854.42
2009/04/23 13:48:25.1     120   -235     46    265    270 152.9   9.9  34192  290.10 0854.42
2009/04/23 13:48:25.2     181   -180     63    256    264 134.9  13.9  34194  290.15 0854.42
2009/04/23 13:48:25.3      86    -80    125    118    171 132.7  51.6  34198  290.21 0854.42
2009/04/23 13:48:25.4      96    -52     50    110    120 118.4  26.2  34198  290.21 0854.42
2009/04/23 13:48:25.5      51    -60     70     79    105 139.5  46.4  34196  290.19 0854.42
2009/04/23 13:48:25.6      31    -64     16     72     74 153.7  13.2  34196  290.19 0854.42
2009/04/23 13:48:25.7      50   -186    117    193    225 164.8  34.0  34194  290.14 0854.42
2009/04/23 13:48:25.8     -15   -238    133    239    273 183.6  31.4  34194  290.14 0854.42
2009/04/23 13:48:25.9     -30   -192    126    195    232 189.1  35.6  34196  290.19 0854.42
2009/04/23 13:48:26.0     -27   -256     35    258    261 186.2   7.8  34196  290.17 0854.42
2009/04/23 13:48:26.1      14   -221     48    222    228 176.2  12.4  34190  290.09 0854.42
2009/04/23 13:48:26.2     117   -233    129    261    291 153.3  28.2  34196  290.19 0854.42
2009/04/23 13:48:26.3      -9   -209     27    210    212 182.5   7.5  34196  290.18 0854.42
2009/04/23 13:48:26.4    -117   -234    -33    262    265 206.7  -7.3  34196  290.17 0854.42
2009/04/23 13:48:26.5    -103   -258    -82    279    290 201.8 -21.5  34192  290.12 0854.42
2009/04/23 13:48:26.6    -199   -272     30    338    340 216.2   5.1  34194  290.15 0854.42
2009/04/23 13:48:26.7    -171   -280    -22    329    330 211.4  -3.9  34196  290.18 0854.42
2009/04/23 13:48:26.8    -107   -175     77    206    219 211.4  21.3  34188  290.06 0854.42
2009/04/23 13:48:26.9    -117   -209     76    240    252 209.2  17.7  34198  290.20 0854.42
2009/04/23 13:48:27.0    -141   -354     24    382    383 201.8   3.7  34196  290.18 0854.43
2009/04/23 13:48:27.1    -137   -401     99    424    436 198.9  13.2  34192  290.11 0854.43
2009/04/23 13:48:27.2    -252   -326      1    413    414 217.8   0.2  34194  290.16 0854.43
2009/04/23 13:48:27.3    -221   -279     98    357    371 218.4  15.4  34192  290.13 0854.43
2009/04/23 13:48:27.4    -247   -204     50    321    326 230.5   9.0  34194  290.14 0854.43
2009/04/23 13:48:27.5    -336   -266     14    429    430 231.6   1.9  34194  290.14 0854.43
2009/04/23 13:48:27.6    -423   -214    -18    475    476 243.2  -2.2  34194  290.15 0854.43
2009/04/23 13:48:27.7    -431   -244    -96    496    506 240.5 -11.0  34196  290.18 0854.43
2009/04/23 13:48:27.8    -400   -110     22    415    416 254.6   3.1  34184  289.97 0854.43
2009/04/23 13:48:27.9    -345     49    170    349    388 278.1  27.7  34196  290.18 0854.43
2009/04/23 13:48:28.0    -278   -226    207    359    414 230.9  32.6  34204  290.33 0854.43
2009/04/23 13:48:28.1     -68   -257    201    266    333 194.9  40.9  34198  290.20 0854.43
2009/04/23 13:48:28.2     -77   -189    134    205    244 202.1  36.3  34196  290.19 0854.43
2009/04/23 13:48:28.3    -127   -225     72    259    269 209.4  15.6  34194  290.14 0854.43
2009/04/23 13:48:28.4     -72   -266     74    276    286 195.2  15.0  34196  290.19 0854.43
2009/04/23 13:48:28.5     -51   -285    115    290    311 190.2  22.7  34194  290.14 0854.43
2009/04/23 13:48:28.6     -81   -172    212    191    285 205.2  53.5  34198  290.22 0854.43
2009/04/23 13:48:28.7    -134   -191    218    234    319 215.2  47.8  34204  290.31 0854.43
2009/04/23 13:48:28.8    -190   -210     71    284    293 222.1  14.2  34198  290.22 0854.43
2009/04/23 13:48:28.9    -149   -270     80    309    320 209.0  14.6  34198  290.20 0854.43
2009/04/23 13:48:29.0    -104   -271    137    291    321 201.0  27.1  34196  290.19 0854.43
2009/04/23 13:48:29.1    -125   -289    129    316    341 203.4  23.4  34196  290.18 0854.43
2009/04/23 13:48:29.2     -90   -153    224    178    286 210.5  57.5  34196  290.17 0854.43
2009/04/23 13:48:29.3    -144   -129    241    194    309 228.0  56.9  34206  290.36 0854.43
2009/04/23 13:48:29.4     -88   -164    161    187    246 208.3  45.1  34206  290.35 0854.43
2009/04/23 13:48:29.5     -47    -99    189    110    218 205.5  67.2  34206  290.36 0854.43
2009/04/23 13:48:29.6     -17   -272    161    273    316 183.6  33.3  34196  290.17 0854.43
2009/04/23 13:48:29.7     -49   -341    227    345    412 188.2  36.5  34200  290.25 0854.43
2009/04/23 13:48:29.8    -147   -364    254    393    467 202.1  35.9  34202  290.29 0854.43
2009/04/23 13:48:29.9    -193   -281    233    342    413 214.5  37.6  34198  290.23 0854.43
2009/04/23 13:48:30.0    -227   -257    121    344    365 221.5  19.4  34202  290.30 0854.43
2009/04/23 13:48:30.1    -165   -220     23    276    278 216.9   4.9  34200  290.24 0854.43
2009/04/23 13:48:30.2      38   -130    138    136    193 163.5  49.9  34198  290.21 0854.43
2009/04/23 13:48:30.3       0   -114    145    115    185 180.0  57.1  34208  290.38 0854.43
2009/04/23 13:48:30.4       9      9    162     14    162  45.0  90.0  34208  290.40 0854.43
2009/04/23 13:48:30.5     -43    -44    134     62    147 224.1  73.1  34214  290.48 0854.43
2009/04/23 13:48:30.6     -37    -59    117     70    136 212.5  66.2  34216  290.52 0854.43
2009/04/23 13:48:30.7      -6     -7    116     10    116 219.6  90.0  34214  290.48 0854.43
2009/04/23 13:48:30.8       0    -43    115     44    123 180.9  78.6  34210  290.41 0854.43
2009/04/23 13:48:30.9    -188   -111      6    219    220 239.4   1.6  34206  290.35 0854.43
2009/04/23 13:48:31.0    -172   -103    127    201    237 238.9  35.5  34202  290.30 0854.45
2009/04/23 13:48:31.1    -234    -43     88    238    253 259.4  21.0  34212  290.44 0854.45
2009/04/23 13:48:31.2    -175     35    141    179    227 281.5  42.4  34208  290.40 0854.45
2009/04/23 13:48:31.3    -206     98    174    229    287 295.5  41.2  34218  290.54 0854.45
2009/04/23 13:48:31.4    -160     59    132    171    216 290.4  41.7  34220  290.58 0854.45
2009/04/23 13:48:31.5    -172    -17    141    173    223 264.3  43.7  34210  290.43 0854.45
2009/04/23 13:48:31.6    -157     68    166    172    239 293.3  49.0  34206  290.35 0854.45
2009/04/23 13:48:31.7    -179     59    107    189    217 288.4  31.9  34206  290.35 0854.45
2009/04/23 13:48:31.8    -276    125     88    304    317 294.4  16.1  34204  290.31 0854.45
2009/04/23 13:48:31.9    -322    -37    126    325    348 263.4  22.3  34198  290.20 0854.45
2009/04/23 13:48:32.0    -408    -53    184    412    451 262.5  25.7  34198  290.21 0854.44
2009/04/23 13:48:32.1    -333    345     72    480    486 316.0   8.6  34208  290.39 0854.44
2009/04/23 13:48:32.2    -208    402    176    453    485 332.6  22.4  34212  290.44 0854.44
2009/04/23 13:48:32.3    -365    298    113    472    486 309.2  13.5  34212  290.47 0854.44
2009/04/23 13:48:32.4    -511    324     79    606    612 302.4   7.5  34204  290.32 0854.44
2009/04/23 13:48:32.5    -470    405    -34    621    622 310.8  -3.1  34216  290.52 0854.44
2009/04/23 13:48:32.6    -335    320   -132    464    482 313.7 -20.7  34212  290.45 0854.44
2009/04/23 13:48:32.7    -377    167    -52    413    417 294.0  -7.2  34184  289.97 0854.44
2009/04/23 13:48:32.8    -568    367   -190    677    704 302.9 -15.7  34182  289.95 0854.44
2009/04/23 13:48:32.9    -174    275    122    326    348 327.7  21.5  34200  290.25 0854.44
2009/04/23 13:48:33.0     -82    217    124    233    263 339.3  30.3  34202  290.27 0854.44
2009/04/23 13:48:33.1      58    165    126    176    216  19.6  39.5  34202  290.30 0854.44
2009/04/23 13:48:33.2     -85    170    122    191    226 333.5  35.6  34194  290.14 0854.44
2009/04/23 13:48:33.3    -236    194    139    306    336 309.5  26.0  34202  290.29 0854.44
2009/04/23 13:48:33.4    -396    -95    214    408    460 256.4  30.0  34202  290.29 0854.44
2009/04/23 13:48:33.5    -223   -179    186    287    342 231.3  35.9  34200  290.24 0854.44
2009/04/23 13:48:33.6    -215    -52     92    222    240 256.3  24.1  34204  290.31 0854.44
2009/04/23 13:48:33.7    -198   -121     85    233    248 238.5  20.9  34204  290.32 0854.44
2009/04/23 13:48:33.8    -224   -213     60    310    316 226.4  11.0  34212  290.44 0854.44
2009/04/23 13:48:33.9    -343   -352    -27    492    493 224.3  -3.2  34228  290.74 0854.44
2009/04/23 13:48:34.0    -441   -313    -21    541    542 234.6  -2.2  34242  290.96 0854.46
2009/04/23 13:48:34.1    -554   -357    -25    660    661 237.2  -2.2  34240  290.92 0854.46
2009/04/23 13:48:34.2    -326   -393   -167    511    538 219.7 -18.2  34220  290.60 0854.46
2009/04/23 13:48:34.3     -24   -502     28    503    504 182.8   3.3  34204  290.32 0854.46
2009/04/23 13:48:34.4    -103   -353     43    368    371 196.4   6.7  34210  290.43 0854.46
2009/04/23 13:48:34.5     -94   -444    198    454    495 192.0  25.1  34198  290.20 0854.46
2009/04/23 13:48:34.6    -152   -456    189    481    516 198.5  22.5  34200  290.25 0854.46
2009/04/23 13:48:34.7    -254   -504     22    565    566 206.8   2.2  34204  290.33 0854.46
2009/04/23 13:48:34.8      25   -490     65    491    496 177.0   7.6  34200  290.25 0854.46
2009/04/23 13:48:34.9      -4   -452     14    453    454 180.6   1.8  34194  290.16 0854.46
2009/04/23 13:48:35.0     236   -280    -39    367    370 139.9  -6.1  34196  290.18 0854.46
2009/04/23 13:48:35.1     246   -227    288    336    442 132.7  44.9  34182  289.94 0854.46
2009/04/23 13:48:35.2     -13   -126    327    127    350 186.2  77.7  34194  290.15 0854.46
2009/04/23 13:48:35.3     -65   -369    366    375    524 190.0  49.4  34182  289.96 0854.46
2009/04/23 13:48:35.4     -10   -350    358    351    501 181.8  50.7  34180  289.90 0854.46
2009/04/23 13:48:35.5     -57   -307    173    313    357 190.6  31.4  34178  289.89 0854.46
2009/04/23 13:48:35.6    -145   -302   -121    335    356 205.7 -25.2  34200  290.25 0854.46
2009/04/23 13:48:35.7      54   -389   -117    393    410 172.0 -21.6  34194  290.16 0854.46
2009/04/23 13:48:35.8     -65   -310   -137    317    345 192.0 -29.3  34192  290.10 0854.46
2009/04/23 13:48:35.9     -27   -238   -115    240    266 186.7 -31.7  34196  290.17 0854.46
2009/04/23 13:48:36.0     -18   -290    -89    291    304 183.6 -21.8  34192  290.12 0854.47
2009/04/23 13:48:36.1      10   -224   -119    225    254 177.3 -34.6  34190  290.09 0854.47
2009/04/23 13:48:36.2     119   -256     83    283    295 155.1  16.4  34194  290.15 0854.47
2009/04/23 13:48:36.3       4   -331     64    332    339 179.2  11.0  34188  290.06 0854.47
2009/04/23 13:48:36.4     -29   -232      4    234    235 187.3   1.2  34190  290.09 0854.47
2009/04/23 13:48:36.5    -114   -179     26    213    215 212.5   7.2  34190  290.08 0854.47
2009/04/23 13:48:36.6     -27    -96    -10    100    101 196.0  -6.2  34190  290.09 0854.47
2009/04/23 13:48:36.7       5   -187    -49    188    195 178.4 -14.7  34190  290.08 0854.47
2009/04/23 13:48:36.8     158   -192    -97    249    267 140.6 -26.9  34182  289.93 0854.47
2009/04/23 13:48:36.9     260   -201     56    329    334 127.8   9.7  34182  289.94 0854.47
2009/04/23 13:48:37.0     336   -194     34    389    391 120.0   5.1  34174  289.82 0854.47
2009/04/23 13:48:37.1     351   -199     55    404    408 119.5   7.8  34182  289.94 0854.47
2009/04/23 13:48:37.2     127   -268     68    297    305 154.6  12.9  34184  289.97 0854.47
2009/04/23 13:48:37.3      65   -243     11    252    253 164.9   2.5  34180  289.92 0854.47
2009/04/23 13:48:37.4     238    -83     45    253    258 109.3  10.1  34178  289.88 0854.47
2009/04/23 13:48:37.5     242    -98     91    262    278 112.2  19.2  34184  289.97 0854.47
2009/04/23 13:48:37.6     124   -104    162    163    229 130.0  50.0  34178  289.89 0854.47
2009/04/23 13:48:37.7     -27    -45    130     53    140 211.6  77.0  34182  289.96 0854.47
2009/04/23 13:48:37.8     -56   -178     65    187    199 197.6  19.2  34182  289.94 0854.47
2009/04/23 13:48:37.9     -40   -192     81    197    213 192.0  23.4  34180  289.92 0854.47
2009/04/23 13:48:38.0     -24    -56    153     62    165 203.6  77.1  34188  290.04 0854.47
2009/04/23 13:48:38.1     -51    -63    147     82    168 219.2  68.5  34188  290.06 0854.47
2009/04/23 13:48:38.2       4    -73    267     74    277 176.4  84.6  34190  290.09 0854.47
2009/04/23 13:48:38.3     -30     55    257     63    264 331.0  86.4  34194  290.14 0854.47
2009/04/23 13:48:38.4     -36     82    277     90    291 335.9  81.0  34192  290.12 0854.47
2009/04/23 13:48:38.5     -25     37    236     45    240 325.7  90.0  34194  290.14 0854.47
2009/04/23 13:48:38.6     -34    -25    181     43    186 233.1  86.9  34194  290.16 0854.47
2009/04/23 13:48:38.7     -34    -67    230     76    242 207.2  80.7  34186  290.02 0854.47
2009/04/23 13:48:38.8     -19    -74    223     77    235 195.1  80.3  34188  290.06 0854.47
2009/04/23 13:48:38.9     -41   -115    164    123    205 199.6  59.4  34188  290.06 0854.47
2009/04/23 13:48:39.0    -110   -185    102    216    238 210.7  27.2  34182  289.94 0854.47
2009/04/23 13:48:39.1    -207    -90   -138    227    265 246.4 -38.8  34186  290.00 0854.47
2009/04/23 13:48:39.2    -305   -388   -175    494    525 218.2 -19.5  34182  289.93 0854.47
2009/04/23 13:48:39.3    -446   -342   -329    563    652 232.5 -37.4  34172  289.79 0854.47
2009/04/23 13:48:39.4    -448   -383    -19    590    591 229.5  -1.9  34182  289.93 0854.47
2009/04/23 13:48:39.5    -522   -502   -187    725    749 226.1 -14.5  34180  289.92 0854.47
2009/04/23 13:48:39.6    -647   -318   -130    722    734 243.8 -10.3  34188  290.03 0854.47
2009/04/23 13:48:39.7    -449   -729   -200    857    881 211.6 -13.2  34198  290.20 0854.47
2009/04/23 13:48:39.8    -523   -591   -236    790    824 221.5 -21.5  34204  290.31 0854.47
2009/04/23 13:48:39.9    -498   -536   -203    732    759 222.9 -20.1  34196  290.18 0854.47
2009/04/23 13:48:40.0    -504   -404   -245    647    691 231.3 -26.2  34204  290.33 0854.48
2009/04/23 13:48:40.1    -422   -382   -224    570    612 227.8 -27.2  34204  290.32 0854.48
2009/04/23 13:48:40.2    -471   -345   -267    584    642 233.8 -30.7  34204  290.33 0854.48
2009/04/23 13:48:40.3    -326   -495   -318    594    673 213.4 -34.9  34198  290.21 0854.48
2009/04/23 13:48:40.4    -301   -332   -429    449    621 222.2 -52.9  34198  290.22 0854.48
2009/04/23 13:48:40.5      80   -509    -80    516    523 171.0  -8.8  34194  290.14 0854.48
2009/04/23 13:48:40.6    -194   -150    177    246    303 232.2  39.5  34196  290.17 0854.48
2009/04/23 13:48:40.7    -301   -220    -24    374    375 233.8  -3.7  34194  290.16 0854.48
2009/04/23 13:48:40.8      29   -400    -43    402    405 175.8  -6.2  34198  290.22 0854.48
2009/04/23 13:48:40.9      64   -276    -99    284    300 166.9 -24.3  34198  290.22 0854.48
2009/04/23 13:48:41.0      98   -193    -62    217    225 152.9 -20.4  34200  290.25 0854.48
2009/04/23 13:48:41.1     118    -71    -12    139    140 121.1  -5.2  34200  290.25 0854.48
2009/04/23 13:48:41.2      60    -78     18     99    101 142.6  10.6  34192  290.13 0854.48
2009/04/23 13:48:41.3     -22     -7    110     24    112 251.8  88.5  34204  290.33 0854.48
2009/04/23 13:48:41.4    -129    -93     49    160    168 234.1  17.1  34202  290.28 0854.48
2009/04/23 13:48:41.6    -248    -62     37    256    259 255.8   8.2  34198  290.20 0854.48
2009/04/23 13:48:41.6    -367     64   -186    373    416 279.9 -32.8  34202  290.29 0854.48
2009/04/23 13:48:41.7    -253     55   -175    259    312 282.3 -41.7  34200  290.24 0854.48
2009/04/23 13:48:41.8     -13      8    -72     16     73 302.4 -90.0  34206  290.35 0854.48
2009/04/23 13:48:41.9     -10    -94    -27     95     99 186.2 -16.0  34204  290.33 0854.48
2009/04/23 13:48:42.0     -44    -67     27     81     86 213.4  18.9  34206  290.36 0854.48
2009/04/23 13:48:42.1      41    -96      3    105    106 156.8   1.8  34206  290.35 0854.48
2009/04/23 13:48:42.2      61    -72     -4     95     96 139.9  -2.6  34206  290.36 0854.48
2009/04/23 13:48:42.3      78   -209    -82    224    238 159.5 -25.4  34206  290.34 0854.48
2009/04/23 13:48:42.4     210   -255   -116    331    350 140.6 -24.3  34202  290.30 0854.48
2009/04/23 13:48:42.5     278   -243    -34    370    372 131.2  -5.3  34202  290.28 0854.48
2009/04/23 13:48:42.6     439   -232     33    497    499 117.9   3.9  34194  290.15 0854.48
2009/04/23 13:48:42.7     344   -198     54    398    402 119.9   7.8  34202  290.27 0854.48
2009/04/23 13:48:42.8     340   -306    162    458    486 132.0  19.5  34198  290.22 0854.48
2009/04/23 13:48:42.9     306   -236    185    387    428 127.8  27.3  34198  290.21 0854.48
2009/04/23 13:48:43.0     228   -287    231    367    433 141.5  35.3  34202  290.29 0854.48
2009/04/23 13:48:43.1     231   -162    205    283    349 125.1  39.5  34198  290.20 0854.48
2009/04/23 13:48:43.2     124   -203    190    239    305 148.6  42.7  34200  290.26 0854.48
2009/04/23 13:48:43.3     128   -238    187    271    329 151.7  37.8  34198  290.20 0854.48
2009/04/23 13:48:43.4     202   -272    166    340    378 143.4  27.9  34202  290.27 0854.48
2009/04/23 13:48:43.5     146   -226    127    270    298 147.0  27.1  34200  290.24 0854.48
2009/04/23 13:48:43.6       8   -236     83    237    252 178.0  19.4  34198  290.20 0854.48
2009/04/23 13:48:43.7     -35   -175    156    179    237 191.5  45.8  34196  290.19 0854.48
2009/04/23 13:48:43.8     -21   -151    175    153    232 188.1  54.3  34198  290.21 0854.48
2009/04/23 13:48:43.9      -2   -114    187    115    219 181.0  65.4  34198  290.23 0854.48
2009/04/23 13:48:44.0     -26   -112    181    116    214 193.4  64.6  34200  290.26 0854.49
2009/04/23 13:48:44.2      -8   -150    158    151    218 183.1  51.6  34200  290.26 0854.49
2009/04/23 13:48:44.2      19   -225    221    226    316 175.1  49.4  34202  290.27 0854.49
2009/04/23 13:48:44.3      -7   -273    200    274    339 181.6  39.8  34202  290.29 0854.49
2009/04/23 13:48:44.4      22   -248    217    250    331 174.9  45.5  34208  290.39 0854.49
2009/04/23 13:48:44.5      91   -186    121    208    240 153.9  32.7  34202  290.30 0854.49
2009/04/23 13:48:44.6      67    -59     85     90    123 131.8  48.5  34206  290.36 0854.49
2009/04/23 13:48:44.7     -27   -133    205    136    246 191.5  63.6  34204  290.33 0854.49
2009/04/23 13:48:44.8     114    -11    130    115    173  95.7  54.0  34204  290.33 0854.49
2009/04/23 13:48:44.9      -1    -66    135     67    150 180.9  72.4  34200  290.25 0854.49
2009/04/23 13:48:45.0     -25   -182    147    184    235 188.1  42.7  34200  290.25 0854.49
2009/04/23 13:48:45.1     -65   -213    128    223    257 197.0  32.4  34198  290.22 0854.49
2009/04/23 13:48:45.2     -36   -262    161    265    310 188.0  34.4  34202  290.27 0854.49
2009/04/23 13:48:45.3     -62   -472    204    477    518 187.6  24.6  34198  290.23 0854.49
2009/04/23 13:48:45.4     -55   -437    191    441    480 187.2  25.0  34200  290.25 0854.49
2009/04/23 13:48:45.5      19   -362    163    363    397 176.9  25.9  34202  290.27 0854.49
2009/04/23 13:48:45.6     -62   -363    171    369    406 189.7  26.9  34200  290.25 0854.49
2009/04/23 13:48:45.7    -157   -284    156    325    360 208.9  27.3  34202  290.27 0854.49
2009/04/23 13:48:45.8    -157   -208    178    261    315 217.0  37.6  34192  290.10 0854.49
2009/04/23 13:48:45.9    -474   -191   -102    512    523 248.1 -11.3  34160  289.57 0854.49
2009/04/23 13:48:46.0    -250   -301    247    392    463 219.6  35.5  34180  289.90 0854.51
2009/04/23 13:48:46.1    -382   -268    160    467    494 234.9  18.9  34192  290.12 0854.51
2009/04/23 13:48:46.2    -651   -134   -210    665    698 258.3 -17.5  34174  289.80 0854.51
2009/04/23 13:48:46.3    -560   -291   -228    632    671 242.5 -25.2  34178  289.87 0854.51
2009/04/23 13:48:46.4    -802   -408   -113    900    908 243.0  -7.2  34182  289.95 0854.51
2009/04/23 13:48:46.5    -667   -389   -133    773    785 239.7  -9.8  34172  289.78 0854.51
2009/04/23 13:48:46.6    -572   -277    160    636    656 244.1  14.2  34190  290.08 0854.51
2009/04/23 13:48:46.7    -428   -162   -126    458    476 249.2 -15.4  34172  289.76 0854.51
2009/04/23 13:48:46.8    -210   -115    104    240    261 241.1  24.9  34186  290.02 0854.51
2009/04/23 13:48:46.9    -114   -355    101    373    387 197.8  15.1  34196  290.18 0854.51
2009/04/23 13:48:47.0    -324   -592     29    675    676 208.7   2.5  34194  290.14 0854.51
2009/04/23 13:48:47.1    -479   -426    133    642    656 228.3  11.8  34192  290.13 0854.51
2009/04/23 13:48:47.2    -434   -469    232    640    680 222.8  20.8  34176  289.85 0854.51
2009/04/23 13:48:47.3    -565   -197    -29    599    600 250.7  -2.8  34176  289.85 0854.51
2009/04/23 13:48:47.4    -529   -235   -159    579    601 246.0 -15.4  34174  289.80 0854.51
2009/04/23 13:48:47.6    -244      7   -111    245    268 271.7 -30.6  34168  289.70 0854.51
2009/04/23 13:48:47.6    -465    155    -40    491    493 288.4  -4.7  34176  289.84 0854.51
2009/04/23 13:48:47.8    -505    156   -101    529    539 287.2 -10.9  34186  290.01 0854.51
2009/04/23 13:48:47.9    -798   -214     24    827    828 255.0   1.7  34188  290.06 0854.51
2009/04/23 13:48:47.9    -846   -396   -286    935    977 244.9 -21.9  34194  290.14 0854.51
2009/04/23 13:48:48.0    -846    -76   -263    850    889 264.8 -22.2  34196  290.18 0854.56
2009/04/23 13:48:48.2    -925   -277   -139    966    977 253.3  -8.2  34190  290.09 0854.56
2009/04/23 13:48:48.3    -963   -215   -212    987   1010 257.4 -12.2  34180  289.90 0854.56
2009/04/23 13:48:48.4    -757    -22   -210    758    787 268.3 -15.5  34180  289.91 0854.56
2009/04/23 13:48:48.5    -357    289    -67    460    465 309.0  -8.4  34174  289.82 0854.56
2009/04/23 13:48:48.6    -536   -254   -202    594    627 244.6 -23.9  34178  289.89 0854.56
2009/04/23 13:48:48.7    -822    -63   -204    825    850 265.6 -13.9  34178  289.88 0854.56
2009/04/23 13:48:48.8   -1129   -140   -111   1138   1144 262.9  -5.6  34190  290.09 0854.56
2009/04/23 13:48:48.9   -1076    -16   -220   1077   1100 269.1 -11.6  34186  290.02 0854.56
2009/04/23 13:48:49.0    -873     65   -273    876    917 274.3 -22.2  34174  289.82 0854.56
2009/04/23 13:48:49.1    -886     54   -136    888    899 273.5  -8.7  34188  290.05 0854.56
2009/04/23 13:48:49.2    -872     22   -386    873    954 271.5 -29.9  34198  290.20 0854.56
2009/04/23 13:48:49.3    -562   -271   -286    624    686 244.2 -30.8  34196  290.17 0854.56
2009/04/23 13:48:49.4    -356    -90   -510    368    628 255.7 -65.1  34190  290.07 0854.56
2009/04/23 13:48:49.5    -218   -108   -208    244    320 243.6 -49.4  34190  290.09 0854.56
2009/04/23 13:48:49.6     -51   -368   -150    372    401 188.0 -27.6  34196  290.18 0854.56
2009/04/23 13:48:49.7     162   -254   -160    302    341 147.5 -34.6  34192  290.11 0854.56
2009/04/23 13:48:49.8     235   -297   -223    379    439 141.6 -37.8  34186  290.00 0854.56
2009/04/23 13:48:49.9     183   -353   -263    398    477 152.5 -40.9  34182  289.95 0854.56
2009/04/23 13:48:50.0     281   -222   -211    359    416 128.4 -37.5  34182  289.93 0854.56
2009/04/23 13:48:50.1     547   -326   -187    637    663 120.8 -21.2  34168  289.72 0854.55
2009/04/23 13:48:50.2     780    -43    218    782    812  93.2  15.6  34170  289.74 0854.55
2009/04/23 13:48:50.3     856     46    786    858   1163  86.9  47.2  34188  290.03 0854.55
2009/04/23 13:48:50.4     590     12    512    591    781  88.8  45.4  34178  289.89 0854.55
2009/04/23 13:48:50.5     778     65    541    781    950  85.2  38.1  34178  289.88 0854.55
2009/04/23 13:48:50.6     606     -3    577    607    837  90.4  48.4  34176  289.85 0854.55
2009/04/23 13:48:50.7     548   -155    397    570    694 105.8  38.3  34178  289.87 0854.55
2009/04/23 13:48:50.8    -245   -306    255    393    468 218.7  36.0  34184  289.99 0854.55
2009/04/23 13:48:50.9    -281   -440    310    523    607 212.6  33.4  34186  290.00 0854.55
2009/04/23 13:48:51.0    -135   -332    304    359    470 202.2  44.7  34188  290.04 0854.55
2009/04/23 13:48:51.1    -113   -540    -78    552    558 191.9  -8.1  34170  289.74 0854.55
2009/04/23 13:48:51.2    -519   -581    262    780    824 221.8  18.6  34172  289.79 0854.55
2009/04/23 13:48:51.3    -178   -585     73    612    617 196.9   6.9  34186  290.01 0854.55
2009/04/23 13:48:51.4     -29   -482    232    483    535 183.5  27.3  34182  289.94 0854.55
2009/04/23 13:48:51.5     -29   -474    218    475    522 183.5  26.4  34178  289.86 0854.55
2009/04/23 13:48:51.6     -76   -282    343    293    451 195.2  55.4  34192  290.12 0854.55
2009/04/23 13:48:51.7    -148    -64    175    162    238 246.5  52.2  34188  290.06 0854.55
2009/04/23 13:48:51.8    -194      3    -70    195    208 270.9 -19.7  34186  290.02 0854.55
2009/04/23 13:48:51.9    -129   -143     30    193    196 222.1   9.0  34188  290.06 0854.55
2009/04/23 13:48:52.0    -396   -203     37    446    448 242.8   4.9  34188  290.05 0854.55
2009/04/23 13:48:52.1    -476    -73   -329    482    583 261.2 -42.0  34194  290.16 0854.46
2009/04/23 13:48:52.2    -485    176   -205    517    556 290.0 -27.3  34170  289.74 0854.46
2009/04/23 13:48:52.3    -355    243     13    431    432 304.4   1.8  34192  290.12 0854.46
2009/04/23 13:48:52.4    -303   -287    -23    418    419 226.5  -3.2  34190  290.07 0854.46
2009/04/23 13:48:52.5     -21      3   -100     22    102 279.7 -90.0  34198  290.23 0854.46
2009/04/23 13:48:52.6      42    -51    -71     67     97 140.4 -55.6  34202  290.30 0854.46
2009/04/23 13:48:52.7       5    -70    -19     71     74 175.6 -15.4  34194  290.14 0854.46
2009/04/23 13:48:52.8    -409     54     -8    413    414 277.6  -1.2  34206  290.36 0854.46
2009/04/23 13:48:52.9    -423   -201   -109    469    482 244.6 -13.1  34194  290.15 0854.46
2009/04/23 13:48:53.0    -560    -77    -31    566    567 262.1  -3.1  34202  290.28 0854.46
2009/04/23 13:48:53.1    -536    -65   -129    541    557 263.0 -13.4  34204  290.33 0854.44
2009/04/23 13:48:53.2    -326     56    -96    331    345 279.8 -16.2  34194  290.16 0854.44
2009/04/23 13:48:53.3    -142     33    207    146    253 283.3  61.5  34196  290.18 0854.44
2009/04/23 13:48:53.4    -138    372     20    397    398 339.6   3.0  34198  290.21 0854.44
2009/04/23 13:48:53.5     -63    313     45    320    324 348.5   8.0  34190  290.09 0854.44
2009/04/23 13:48:53.6     120    254    291    282    405  25.3  51.1  34194  290.15 0854.44
2009/04/23 13:48:53.7      95    298    350    313    469  17.8  53.7  34194  290.14 0854.44
2009/04/23 13:48:53.8     -30    381    328    383    504 355.4  44.9  34194  290.15 0854.44
2009/04/23 13:48:53.9     -90    258    308    274    412 340.8  53.7  34198  290.23 0854.44
2009/04/23 13:48:54.0    -122     13    272    123    298 276.1  74.0  34206  290.34 0854.44
2009/04/23 13:48:54.1      32    -23    194     40    198 126.0  89.0  34204  290.31 0854.44
2009/04/23 13:48:54.2      48    215     78    221    235  12.7  19.6  34204  290.31 0854.44
2009/04/23 13:48:54.3    -181     72     10    195    196 291.7   3.1  34214  290.48 0854.44
2009/04/23 13:48:54.4    -333     52     91    338    351 278.9  15.2  34208  290.38 0854.44
2009/04/23 13:48:54.5    -318    -90    181    331    377 254.2  31.3  34178  289.86 0854.44
2009/04/23 13:48:54.6    -311     77    -17    321    322 283.9  -3.1  34184  289.97 0854.44
2009/04/23 13:48:54.7    -161    380    180    413    450 337.0  25.1  34198  290.21 0854.44
2009/04/23 13:48:54.8    -133    242    173    277    326 331.1  35.1  34204  290.32 0854.44
2009/04/23 13:48:54.9    -290     -8    185    291    344 268.3  35.5  34200  290.26 0854.44
2009/04/23 13:48:55.0    -383     68    227    390    451 280.1  32.8  34194  290.14 0854.44
2009/04/23 13:48:55.1    -287     35    258    290    388 277.1  46.2  34178  289.89 0854.45
2009/04/23 13:48:55.2    -380    166    125    415    434 293.6  16.8  34200  290.24 0854.45
2009/04/23 13:48:55.3    -426   -115    236    442    501 254.9  30.3  34194  290.15 0854.45
2009/04/23 13:48:55.4    -436    -15    269    437    513 268.0  34.5  34192  290.13 0854.45
2009/04/23 13:48:55.5    -358    -33    242    360    433 264.6  37.3  34196  290.19 0854.45
2009/04/23 13:48:55.6    -377   -167    113    413    429 246.1  15.3  34200  290.24 0854.45
2009/04/23 13:48:55.7    -281   -236    205    368    421 230.0  31.4  34190  290.09 0854.45
2009/04/23 13:48:55.8    -264   -212     96    339    353 231.2  15.8  34192  290.10 0854.45
2009/04/23 13:48:55.9    -296   -119      2    320    321 248.0   0.5  34202  290.27 0854.45
2009/04/23 13:48:56.0    -261   -368    111    452    466 215.4  13.8  34190  290.09 0854.45
2009/04/23 13:48:56.1     -38   -265    289    268    394 188.2  52.3  34194  290.16 0854.45
2009/04/23 13:48:56.2       7   -201    273    202    339 177.8  60.0  34190  290.07 0854.45
2009/04/23 13:48:56.3       0   -228    245    229    335 180.0  52.2  34192  290.10 0854.45
2009/04/23 13:48:56.4     -56   -334    262    339    428 189.6  41.7  34184  289.99 0854.45
2009/04/23 13:48:56.5    -159   -361    314    395    504 203.8  42.6  34188  290.03 0854.45
2009/04/23 13:48:56.6    -161   -413    335    444    556 201.3  40.8  34188  290.06 0854.45
2009/04/23 13:48:56.7    -246   -363    200    439    482 214.1  26.2  34182  289.95 0854.45
2009/04/23 13:48:56.8      13   -334    273    335    432 177.8  43.5  34182  289.94 0854.45
2009/04/23 13:48:56.9    -134   -274    130    306    332 206.1  24.3  34174  289.81 0854.45
2009/04/23 13:48:57.0     -19   -448     51    449    452 182.5   6.6  34168  289.70 0854.45
2009/04/23 13:48:57.1     -36   -407    181    409    447 185.2  25.3  34180  289.90 0854.47
2009/04/23 13:48:57.2     -21   -334    179    335    379 183.7  30.6  34184  289.98 0854.47
2009/04/23 13:48:57.3       3   -243    172    244    298 179.3  38.6  34184  289.97 0854.47
2009/04/23 13:48:57.4     -16   -298    239    299    382 183.1  42.9  34182  289.96 0854.47
2009/04/23 13:48:57.5     -72   -190    250    204    322 200.7  56.6  34186  290.00 0854.47
2009/04/23 13:48:57.6    -181    -72     91    195    215 248.3  27.1  34164  289.65 0854.47
2009/04/23 13:48:57.7     -81    -13     91     83    123 260.3  52.2  34184  289.99 0854.47
2009/04/23 13:48:57.8    -413     32     41    415    418 274.5   5.7  34158  289.55 0854.47
2009/04/23 13:48:57.9    -559    171   -157    585    606 287.1 -15.1  34178  289.88 0854.47
2009/04/23 13:48:58.0    -275    226   -155    357    389 309.4 -29.5  34180  289.91 0854.47
2009/04/23 13:48:58.1     -74     56   -137     94    166 307.3 -67.0  34180  289.92 0854.47
2009/04/23 13:48:58.2     136      3    -13    137    138  88.7  -5.6  34184  289.99 0854.47
2009/04/23 13:48:58.3      67      0     60     68     90  90.0  45.8  34182  289.94 0854.47
2009/04/23 13:48:58.4       1   -160      0    161    162 179.3   0.2  34184  289.97 0854.47
2009/04/23 13:48:58.5     211   -164    -25    268    270 127.8  -5.4  34184  289.97 0854.47
2009/04/23 13:48:58.6     167   -332     -1    372    373 153.2  -0.2  34172  289.76 0854.47
2009/04/23 13:48:58.7     236   -243    242    339    416 135.8  39.1  34176  289.84 0854.47
2009/04/23 13:48:58.8     293   -114    255    315    405 111.3  43.1  34182  289.96 0854.47
2009/04/23 13:48:58.9     259    -95    256    277    377 110.2  47.8  34180  289.91 0854.47
2009/04/23 13:48:59.0     235   -506    338    558    652 155.1  34.1  34178  289.87 0854.47
2009/04/23 13:48:59.1     272   -654    374    709    801 157.4  30.1  34184  289.98 0854.48
2009/04/23 13:48:59.2     350   -588    122    685    696 149.3  10.1  34182  289.95 0854.48
2009/04/23 13:48:59.3      39   -617    385    619    728 176.4  34.9  34174  289.82 0854.48
2009/04/23 13:48:59.4      67   -418    446    424    615 170.8  51.9  34178  289.87 0854.48
2009/04/23 13:48:59.5       7   -336    265    337    428 178.8  42.1  34178  289.86 0854.48
2009/04/23 13:48:59.6     -24   -148    317    151    351 189.3  72.8  34184  289.98 0854.48
2009/04/23 13:48:59.7    -118   -444    350    460    578 194.9  41.2  34184  289.97 0854.48
2009/04/23 13:48:59.8     -52   -432    152    436    461 186.9  20.0  34182  289.95 0854.48
2009/04/23 13:48:59.9    -233   -434    145    493    514 208.3  16.4  34184  289.98 0854.48
2009/04/23 13:49:00.0    -228   -665     63    704    707 198.9   5.2  34186  290.00 0854.48
2009/04/23 13:49:00.1    -292   -608    274    675    728 205.7  23.2  34180  289.91 0854.48
2009/04/23 13:49:00.2     -33   -484     98    486    496 183.9  11.4  34172  289.79 0854.48
2009/04/23 13:49:00.3     -64   -638    270    642    696 185.8  24.2  34180  289.92 0854.48
2009/04/23 13:49:00.4     -39   -606    465    608    765 183.7  41.3  34178  289.86 0854.48
2009/04/23 13:49:00.5     565   -597    225    823    854 136.6  15.3  34188  290.04 0854.48
2009/04/23 13:49:00.6     356   -637    167    730    749 150.8  12.9  34174  289.82 0854.48
2009/04/23 13:49:00.7     477   -764     76    901    905 148.0   4.9  34170  289.73 0854.48
2009/04/23 13:49:00.8     443   -722    184    848    868 148.5  12.3  34178  289.87 0854.48
2009/04/23 13:49:00.9     342   -679     46    761    763 153.3   3.5  34170  289.73 0854.48
2009/04/23 13:49:01.0     322   -431      8    539    540 143.3   0.9  34182  289.94 0854.48
2009/04/23 13:49:01.1     161   -373    143    407    431 156.7  20.1  34182  289.95 0854.46
2009/04/23 13:49:01.2      78   -324    140    334    362 166.3  24.2  34172  289.79 0854.46
2009/04/23 13:49:01.3     -51   -372    179    376    416 187.8  27.3  34178  289.87 0854.46
2009/04/23 13:49:01.4    -142   -312    132    343    367 204.5  22.0  34182  289.94 0854.46
2009/04/23 13:49:01.5     -86   -338    244    349    425 194.3  38.5  34182  289.94 0854.46
2009/04/23 13:49:01.6    -242   -891    237    924    954 195.2  14.4  34182  289.96 0854.46
2009/04/23 13:49:01.7     113   -612    -40    623    625 169.5  -3.7  34178  289.86 0854.46
2009/04/23 13:49:01.8     258   -697    -14    744    745 159.7  -1.1  34174  289.82 0854.46
2009/04/23 13:49:01.9     308   -928   -123    978    986 161.6  -7.2  34174  289.82 0854.46
2009/04/23 13:49:02.0     260   -886   -199    924    946 163.6 -12.2  34174  289.81 0854.46
2009/04/23 13:49:02.1      32   -792    -54    793    795 177.6  -3.9  34172  289.78 0854.46
2009/04/23 13:49:02.2     186   -805    -67    827    830 167.0  -4.7  34174  289.81 0854.46
2009/04/23 13:49:02.3     128   -901   -105    911    918 171.9  -6.6  34180  289.90 0854.46
2009/04/23 13:49:02.4     251   -760     71    801    805 161.7   5.1  34162  289.61 0854.46
2009/04/23 13:49:02.5     348   -579    275    676    729 149.0  23.4  34164  289.64 0854.46
2009/04/23 13:49:02.6     146   -291    280    326    429 153.3  45.1  34168  289.72 0854.46
2009/04/23 13:49:02.7     109   -434    274    448    525 165.9  34.4  34178  289.89 0854.46
2009/04/23 13:49:02.8     -67   -355    321    362    483 190.8  46.2  34168  289.70 0854.46
2009/04/23 13:49:02.9      16   -209    296    210    362 175.5  61.2  34180  289.92 0854.46
2009/04/23 13:49:03.0     -19   -499    208    500    541 182.2  23.9  34172  289.79 0854.46
2009/04/23 13:49:03.1     190   -494    260    530    590 159.0  28.2  34164  289.64 0854.47
2009/04/23 13:49:03.2     130   -581    298    596    666 167.4  28.7  34162  289.60 0854.47
2009/04/23 13:49:03.3     237   -581    232    628    669 157.8  21.3  34158  289.53 0854.47
2009/04/23 13:49:03.4     125   -475    195    492    529 165.2  23.0  34164  289.64 0854.47
2009/04/23 13:49:03.5      87   -453    139    462    483 169.1  16.8  34162  289.61 0854.47
2009/04/23 13:49:03.6      27   -614    397    615    732 177.4  35.8  34154  289.46 0854.47
2009/04/23 13:49:03.7      32   -526    460    527    699 176.5  45.6  34166  289.67 0854.47
2009/04/23 13:49:03.8     371   -644    522    744    908 150.1  38.5  34162  289.61 0854.47
2009/04/23 13:49:03.9     372   -644    558    744    930 150.0  40.7  34168  289.71 0854.47
2009/04/23 13:49:04.0     271   -532    325    598    680 153.0  30.9  34172  289.77 0854.47
2009/04/23 13:49:04.1     187   -742    298    766    821 165.8  22.4  34160  289.57 0854.47
2009/04/23 13:49:04.2      53   -487    398    490    631 173.8  43.3  34170  289.73 0854.47
2009/04/23 13:49:04.3     -40   -429    385    432    578 185.3  46.3  34168  289.72 0854.47
2009/04/23 13:49:04.4     -53     -6    231     54    237 263.0  87.0  34178  289.87 0854.47
2009/04/23 13:49:04.5      40   -200    116    204    234 168.7  32.1  34164  289.63 0854.47
2009/04/23 13:49:04.6    -114    192    201    224    300 329.2  46.6  34172  289.78 0854.47
2009/04/23 13:49:04.7     -32    -50     86     60    104 212.6  61.5  34174  289.80 0854.47
2009/04/23 13:49:04.8      32    -64    139     72    156 152.8  70.8  34170  289.75 0854.47
2009/04/23 13:49:04.9    -103   -127    105    164    194 219.2  35.6  34172  289.77 0854.47
2009/04/23 13:49:05.0    -634      0    -30    635    636 270.0  -2.8  34172  289.77 0854.47
2009/04/23 13:49:05.1    -583     69   -151    588    608 276.8 -14.4  34170  289.73 0854.47
2009/04/23 13:49:05.2    -463    -49    -44    466    469 263.9  -5.5  34172  289.79 0854.47
2009/04/23 13:49:05.3    -516   -262    -37    579    581 243.0  -3.7  34178  289.86 0854.47
2009/04/23 13:49:05.4    -608   -183     13    635    636 253.2   1.2  34178  289.87 0854.47
2009/04/23 13:49:05.5    -489   -139    -10    509    510 254.1  -1.2  34150  289.40 0854.47
2009/04/23 13:49:05.6    -467    183    320    502    595 291.4  35.6  34174  289.82 0854.47
2009/04/23 13:49:05.7    -784     46    107    786    794 273.4   7.8  34158  289.54 0854.47
2009/04/23 13:49:05.8    -832    251     39    869    870 286.8   2.6  34166  289.66 0854.47
2009/04/23 13:49:05.9    -694    294   -138    754    767 293.0 -10.4  34168  289.70 0854.47
2009/04/23 13:49:06.0    -636    284   -121    697    708 294.1  -9.9  34160  289.57 0854.47
2009/04/23 13:49:06.1    -639    266   -190    693    719 292.6 -15.4  34162  289.61 0854.47
2009/04/23 13:49:06.2    -709    170   -365    730    816 283.5 -33.0  34156  289.52 0854.47
2009/04/23 13:49:06.3    -969     -1   -467    970   1076 269.9 -31.9  34170  289.75 0854.47
2009/04/23 13:49:06.4    -868   -381   -394    949   1027 246.3 -28.3  34172  289.78 0854.47
2009/04/23 13:49:06.5    -619   -599    -69    862    865 225.9  -4.6  34158  289.54 0854.47
2009/04/23 13:49:06.6    -481   -360    -57    602    605 233.2  -5.5  34170  289.75 0854.47
2009/04/23 13:49:06.7    -317   -303   -260    439    510 226.3 -37.8  34172  289.79 0854.47
2009/04/23 13:49:06.8    -241   -269   -124    362    383 221.8 -18.9  34164  289.64 0854.47
2009/04/23 13:49:06.9    -388   -301   -135    492    511 232.2 -15.4  34166  289.69 0854.47
2009/04/23 13:49:07.0    -355   -203    139    410    434 240.2  18.8  34174  289.82 0854.47
2009/04/23 13:49:07.1    -420   -250     32    489    491 239.2   3.8  34176  289.84 0854.50
2009/04/23 13:49:07.2    -498   -351   -122    610    623 234.8 -11.3  34164  289.64 0854.50
2009/04/23 13:49:07.3    -577   -278    -89    641    648 244.2  -7.9  34186  290.01 0854.50
2009/04/23 13:49:07.4    -648   -367    -52    745    747 240.5  -4.0  34194  290.14 0854.50
2009/04/23 13:49:07.5    -394   -416     32    574    575 223.5   3.2  34180  289.90 0854.50
2009/04/23 13:49:07.6    -457   -348   -142    575    593 232.7 -13.9  34184  289.97 0854.50
2009/04/23 13:49:07.7    -358   -445     47    572    575 218.8   4.7  34180  289.90 0854.50
2009/04/23 13:49:07.8    -273   -554   -190    618    646 206.3 -22.1  34178  289.87 0854.50
2009/04/23 13:49:07.9    -207   -511   -175    552    579 202.1 -22.8  34174  289.81 0854.50
2009/04/23 13:49:08.0     112   -596    -37    607    609 169.3  -3.5  34176  289.85 0854.50
2009/04/23 13:49:08.1     115   -452    185    467    502 165.7  22.9  34170  289.74 0854.50
2009/04/23 13:49:08.2      24   -408    338    409    530 176.5  43.7  34176  289.84 0854.50
2009/04/23 13:49:08.3     -76   -487    274    494    564 188.9  31.4  34184  289.97 0854.50
2009/04/23 13:49:08.4     -28    -98    211    102    234 196.0  72.8  34176  289.85 0854.50
2009/04/23 13:49:08.5     -19   -117    323    119    344 189.3  79.0  34174  289.81 0854.50
2009/04/23 13:49:08.6    -282      4    258    283    382 270.8  47.1  34174  289.82 0854.50
2009/04/23 13:49:08.7    -555     16    151    556    577 271.7  15.2  34186  290.00 0854.50
2009/04/23 13:49:08.8    -651   -161    248    671    715 256.1  21.3  34192  290.11 0854.50
2009/04/23 13:49:08.9    -449   -153    314    475    569 251.2  36.5  34176  289.84 0854.50
2009/04/23 13:49:09.0    -482    200    221    522    566 292.6  24.2  34194  290.14 0854.50
2009/04/23 13:49:09.1    -455    335    -11    566    567 306.4  -1.2  34182  289.94 0854.49
2009/04/23 13:49:09.2    -723    381    -24    818    819 297.8  -1.7  34194  290.16 0854.49
2009/04/23 13:49:09.3    -434    317     41    538    540 306.1   4.4  34184  289.99 0854.49
2009/04/23 13:49:09.4    -418    -18    109    419    433 267.5  14.6  34188  290.04 0854.49
2009/04/23 13:49:09.5    -555    -78     57    561    564 262.0   5.9  34192  290.11 0854.49
2009/04/23 13:49:09.6    -470      3    152    471    496 270.4  17.9  34196  290.17 0854.49
2009/04/23 13:49:09.7    -604    -75     61    609    613 262.9   5.8  34196  290.17 0854.49
2009/04/23 13:49:09.8    -579    -94     44    587    589 260.8   4.3  34202  290.29 0854.49
2009/04/23 13:49:09.9    -540   -192    -11    574    575 250.4  -1.2  34206  290.34 0854.49
2009/04/23 13:49:10.0    -608   -286   -105    673    682 244.8  -8.9  34212  290.46 0854.49
2009/04/23 13:49:10.1    -305   -382    -75    489    495 218.6  -8.8  34188  290.05 0854.49
2009/04/23 13:49:10.2    -201   -457    -16    500    501 203.7  -1.9  34182  289.93 0854.49
2009/04/23 13:49:10.3    -117   -426    108    442    456 195.4  13.8  34188  290.04 0854.49
2009/04/23 13:49:10.4    -146   -405    -21    431    432 199.9  -2.8  34182  289.95 0854.49
2009/04/23 13:49:10.5    -287   -562     26    632    633 207.1   2.4  34188  290.04 0854.49
2009/04/23 13:49:10.6    -276   -539     40    606    608 207.2   3.8  34188  290.03 0854.49
2009/04/23 13:49:10.7    -278   -392    -64    481    486 215.3  -7.6  34188  290.03 0854.49
2009/04/23 13:49:10.8      30   -386     75    388    396 175.5  11.0  34174  289.82 0854.49
2009/04/23 13:49:10.9     -11   -351    233    352    422 181.9  36.5  34182  289.93 0854.49
2009/04/23 13:49:11.0     143   -716    266    731    777 168.7  20.9  34188  290.04 0854.49
2009/04/23 13:49:11.1     158   -757    363    774    854 168.2  27.1  34172  289.77 0854.47
2009/04/23 13:49:11.2     235   -647    211    689    721 160.0  17.0  34174  289.81 0854.47
2009/04/23 13:49:11.3     375   -777    208    863    888 154.2  13.6  34174  289.81 0854.47
2009/04/23 13:49:11.4     407   -894    358    983   1046 155.5  20.9  34182  289.94 0854.47
2009/04/23 13:49:11.5     345   -732    309    810    866 154.8  22.0  34172  289.78 0854.47
2009/04/23 13:49:11.6     311   -507    401    595    717 148.5  37.2  34170  289.75 0854.47
2009/04/23 13:49:11.7     271   -505    333    574    663 151.8  32.8  34176  289.84 0854.47
2009/04/23 13:49:11.8     307   -453    338    548    643 145.9  34.6  34174  289.80 0854.47
2009/04/23 13:49:11.9       5   -377    107    378    394 179.1  15.9  34174  289.82 0854.47
2009/04/23 13:49:12.0     -91   -379    252    390    464 193.6  35.7  34178  289.88 0854.47
2009/04/23 13:49:12.1    -158   -503    144    528    548 197.5  15.3  34176  289.84 0854.47
2009/04/23 13:49:12.2     -39   -364    137    367    391 186.2  21.6  34178  289.89 0854.47
2009/04/23 13:49:12.3     109   -371    133    387    410 163.6  19.1  34186  290.00 0854.47
2009/04/23 13:49:12.4     318   -655     87    729    735 154.1   6.9  34168  289.72 0854.47
2009/04/23 13:49:12.5     523   -632    215    821    849 140.4  14.7  34178  289.88 0854.47
2009/04/23 13:49:12.6     337   -607    259    695    741 151.0  21.4  34172  289.78 0854.47
2009/04/23 13:49:12.7     128   -510    222    526    570 165.8  24.2  34174  289.82 0854.47
2009/04/23 13:49:12.8     -12   -625    114    626    637 181.2  10.4  34172  289.76 0854.47
2009/04/23 13:49:12.9     270   -569    181    630    656 154.6  16.0  34148  289.37 0854.47
2009/04/23 13:49:13.0     335   -294    149    446    471 131.3  18.5  34164  289.65 0854.47
2009/04/23 13:49:13.1     261   -144     15    299    300 118.9   2.9  34176  289.83 0854.44
2009/04/23 13:49:13.2      32   -181     72    184    197 169.8  22.5  34172  289.77 0854.44
2009/04/23 13:49:13.3      64   -289    379    297    481 167.5  57.9  34170  289.75 0854.44
2009/04/23 13:49:13.4     258   -112    192    282    341 113.6  37.6  34178  289.86 0854.44
2009/04/23 13:49:13.5     284   -114     48    307    311 111.8   9.0  34182  289.93 0854.44
2009/04/23 13:49:13.6     219   -250     23    333    334 138.9   4.0  34178  289.89 0854.44
2009/04/23 13:49:13.7      85   -372     -8    382    383 167.1  -1.3  34170  289.74 0854.44
2009/04/23 13:49:13.9      35   -235    136    238    274 171.5  32.3  34170  289.73 0854.44
2009/04/23 13:49:13.9      15    -58    176     61    186 164.8  81.0  34178  289.89 0854.44
2009/04/23 13:49:14.0     -38     24     84     46     95 302.5  68.8  34180  289.91 0854.44
2009/04/23 13:49:14.1      32     36     17     49     53  41.4  19.4  34180  289.92 0854.42
2009/04/23 13:49:14.2      65    -21      5     69     70 108.2   4.9  34182  289.94 0854.42
2009/04/23 13:49:14.4      92      0     36     93     99  90.0  22.0  34180  289.92 0854.42
2009/04/23 13:49:14.5      85    -10    -58     86    103  97.0 -41.4  34184  289.97 0854.42
2009/04/23 13:49:14.5     213     41   -152    217    264  79.0 -43.0  34180  289.92 0854.42
2009/04/23 13:49:14.7     245     -7     12    246    247  91.7   2.8  34172  289.78 0854.42
2009/04/23 13:49:14.8     142    -41    185    148    236 106.4  57.3  34174  289.80 0854.42
2009/04/23 13:49:14.9      89    255    -49    271    276  19.2 -10.4  34178  289.88 0854.42
2009/04/23 13:49:15.0     -26    339   -112    341    358 355.5 -23.5  34178  289.89 0854.42
2009/04/23 13:49:15.1     -54    261    -63    267    275 348.2 -13.4  34182  289.93 0854.42
2009/04/23 13:49:15.2      79    143    -88    164    186  29.0 -35.0  34182  289.94 0854.42
2009/04/23 13:49:15.3      74     61    -31     97    101  50.5 -23.3  34178  289.87 0854.42
2009/04/23 13:49:15.4     -46     63     76     79    109 323.9  49.0  34176  289.84 0854.42
2009/04/23 13:49:15.5     -61    120    107    135    172 332.8  42.7  34178  289.89 0854.42
2009/04/23 13:49:15.6      36     14     93     39    100  68.3  76.1  34180  289.91 0854.42
2009/04/23 13:49:15.7     -37      2     49     38     62 274.4  58.5  34176  289.84 0854.42
2009/04/23 13:49:15.8     -56     31    200     65    210 298.9  81.0  34176  289.84 0854.42
2009/04/23 13:49:15.9     -33    -50    183     60    192 213.4  80.7  34184  289.99 0854.42
2009/04/23 13:49:16.0     -21      0    114     22    116 270.0  89.1  34182  289.94 0854.42
2009/04/23 13:49:16.1     -23   -121    120    124    172 190.7  49.4  34176  289.85 0854.42
2009/04/23 13:49:16.2     144   -186    234    236    332 142.1  50.0  34178  289.88 0854.44
2009/04/23 13:49:16.3     206   -140    223    250    335 124.2  46.4  34170  289.75 0854.44
2009/04/23 13:49:16.4     230   -301    282    380    473 142.6  40.2  34172  289.77 0854.44
2009/04/23 13:49:16.5     101   -329    236    345    417 162.8  37.6  34172  289.77 0854.44
2009/04/23 13:49:16.6     206   -356    277    412    496 150.0  37.0  34170  289.74 0854.44
2009/04/23 13:49:16.7     144   -313    207    345    402 155.3  33.7  34172  289.76 0854.44
2009/04/23 13:49:16.8      24   -283    152    285    323 175.1  30.3  34170  289.73 0854.44
2009/04/23 13:49:16.9      49   -440     83    443    451 173.5  10.7  34174  289.82 0854.44
2009/04/23 13:49:17.0     153   -471     69    496    502 162.0   8.0  34170  289.74 0854.44
2009/04/23 13:49:17.1      77   -467     83    474    482 170.6  10.0  34170  289.74 0854.44
2009/04/23 13:49:17.2      64   -334     76    341    350 169.2  12.6  34172  289.77 0854.44
2009/04/23 13:49:17.3     -67   -284    -16    292    293 193.4  -3.2  34166  289.66 0854.44
2009/04/23 13:49:17.4    -120   -300   -109    324    343 201.9 -18.7  34172  289.77 0854.44
2009/04/23 13:49:17.5     -89   -292     53    306    311 197.0   9.9  34172  289.78 0854.44
2009/04/23 13:49:17.6    -127   -120     64    175    186 226.7  21.0  34164  289.65 0854.44
2009/04/23 13:49:17.7    -188    105    -11    216    217 299.3  -3.1  34170  289.74 0854.44
2009/04/23 13:49:17.8    -271    185    -47    329    333 304.3  -8.2  34168  289.71 0854.44
2009/04/23 13:49:17.9    -404    278   -169    491    520 304.5 -19.1  34172  289.76 0854.44
2009/04/23 13:49:18.0    -429    427     51    606    609 314.8   4.9  34172  289.76 0854.44
2009/04/23 13:49:18.1    -261    192    223    325    394 306.3  37.8  34170  289.74 0854.44
2009/04/23 13:49:18.2    -282    144    181    317    365 297.1  32.4  34168  289.72 0854.43
2009/04/23 13:49:18.3    -572    296     90    645    652 297.4   8.0  34174  289.81 0854.43
2009/04/23 13:49:18.4    -771    -85      9    776    777 263.6   0.7  34172  289.78 0854.43
2009/04/23 13:49:18.5    -432    275   -235    513    564 302.5 -30.7  34172  289.79 0854.43
2009/04/23 13:49:18.6    -481    372   -179    609    635 307.7 -16.4  34170  289.74 0854.43
2009/04/23 13:49:18.7    -547    161    -60    571    575 286.4  -6.1  34172  289.76 0854.43
2009/04/23 13:49:18.8    -548   -111    -17    560    561 258.6  -1.8  34166  289.68 0854.43
2009/04/23 13:49:18.9    -360      6    118    361    380 271.0  18.2  34172  289.79 0854.43
2009/04/23 13:49:19.0    -214    -59    111    223    249 254.5  28.2  34182  289.93 0854.43
2009/04/23 13:49:19.1    -313    -68    -89    321    334 257.6 -15.5  34162  289.60 0854.43
2009/04/23 13:49:19.2    -621   -265   -177    676    699 246.9 -14.7  34166  289.68 0854.43
2009/04/23 13:49:19.3    -521   -629    -97    817    823 219.6  -6.8  34180  289.92 0854.43
2009/04/23 13:49:19.4    -881   -470   -142    999   1010 241.9  -8.1  34148  289.36 0854.43
2009/04/23 13:49:19.5    -685   -176   -174    708    730 255.6 -13.8  34158  289.54 0854.43
2009/04/23 13:49:19.6     -45   -441    -56    444    448 185.9  -7.2  34172  289.78 0854.43
2009/04/23 13:49:19.7     -16   -518   -155    519    542 181.8 -16.7  34176  289.84 0854.43
2009/04/23 13:49:19.8     201   -566    109    601    611 160.4  10.3  34176  289.85 0854.43
2009/04/23 13:49:19.9     142   -456    -32    478    480 162.7  -3.9  34178  289.86 0854.43
2009/04/23 13:49:20.0     464   -436   -145    637    654 133.2 -12.9  34158  289.55 0854.43
2009/04/23 13:49:20.1     429   -432     67    609    613 135.2   6.4  34170  289.73 0854.43
2009/04/23 13:49:20.2     198   -248     71    318    326 141.3  12.6  34152  289.44 0854.43
2009/04/23 13:49:20.3    -133    -82     28    157    160 238.5  10.3  34170  289.75 0854.43
2009/04/23 13:49:20.4      21     21     80     31     85  45.1  78.2  34178  289.87 0854.43
2009/04/23 13:49:20.5     -38    106    137    113    177 340.0  56.3  34168  289.72 0854.43
2009/04/23 13:49:20.6    -109   -296    388    316    500 200.3  56.8  34168  289.72 0854.43
2009/04/23 13:49:20.7      15   -169    263    170    313 174.7  64.1  34162  289.61 0854.43
2009/04/23 13:49:20.8     -48   -479     62    482    487 185.8   7.4  34170  289.73 0854.43
2009/04/23 13:49:20.9     -90   -740    151    746    762 187.0  11.4  34172  289.79 0854.43
2009/04/23 13:49:21.0     156   -667    285    686    742 166.8  24.1  34162  289.62 0854.43
2009/04/23 13:49:21.1    -300   -649    352    716    797 204.8  28.1  34162  289.61 0854.43
2009/04/23 13:49:21.2     -12   -656   -102    657    666 181.1  -8.9  34146  289.32 0854.43
2009/04/23 13:49:21.3     -34   -527    -95    529    538 183.7 -10.3  34164  289.65 0854.43
2009/04/23 13:49:21.4    -249   -413    -57    483    487 211.1  -6.8  34166  289.67 0854.43
2009/04/23 13:49:21.5     -16   -322    227    323    394 183.0  38.6  34164  289.65 0854.43
2009/04/23 13:49:21.6    -144   -604    415    621    746 193.4  37.0  34144  289.30 0854.43
2009/04/23 13:49:21.7    -283   -311    239    421    484 222.3  32.3  34172  289.78 0854.43
2009/04/23 13:49:21.8     280   -200    285    345    447 125.5  43.7  34166  289.68 0854.43
2009/04/23 13:49:21.9     103   -381    255    395    470 164.9  35.9  34170  289.75 0854.43
2009/04/23 13:49:22.0      71   -506    145    512    533 172.0  15.8  34166  289.68 0854.43
2009/04/23 13:49:22.1      14   -457    219    458    507 178.2  27.3  34170  289.74 0854.43
2009/04/23 13:49:22.2     171   -520    142    548    567 161.8  14.5  34170  289.74 0854.46
2009/04/23 13:49:22.3     109   -587    291    598    665 169.4  27.9  34158  289.53 0854.46
2009/04/23 13:49:22.4      -1   -579    328    580    666 180.1  32.0  34166  289.69 0854.46
2009/04/23 13:49:22.5     -85   -540    329    547    638 189.0  33.8  34170  289.73 0854.46
2009/04/23 13:49:22.6    -201   -396    278    445    524 207.0  35.0  34164  289.64 0854.46
2009/04/23 13:49:22.7    -285   -113    259    307    401 248.3  44.4  34148  289.37 0854.46
2009/04/23 13:49:22.8    -251   -481    421    543    687 207.6  41.7  34172  289.77 0854.46
2009/04/23 13:49:22.9    -314   -530    217    616    653 210.7  20.1  34156  289.52 0854.46
2009/04/23 13:49:23.0     163   -203     94    261    277 141.3  20.9  34162  289.59 0854.46
2009/04/23 13:49:23.1      54     46    281     71    289  49.6  85.9  34180  289.90 0854.46
2009/04/23 13:49:23.2    -212   -212    233    300    379 225.0  41.7  34164  289.64 0854.46
2009/04/23 13:49:23.3    -570   -290    365    640    736 243.0  32.3  34164  289.64 0854.46
2009/04/23 13:49:23.4    -574     53    411    577    708 275.3  39.0  34186  290.00 0854.46
2009/04/23 13:49:23.5    -602    112    363    613    712 280.6  33.5  34166  289.68 0854.46
2009/04/23 13:49:23.6    -357    -43     59    360    365 263.0   9.4  34158  289.54 0854.46
2009/04/23 13:49:23.7     334   -171    179    376    416 117.1  27.3  34168  289.70 0854.46
2009/04/23 13:49:23.8      -1   -111    255    112    278 180.9  74.9  34162  289.61 0854.46
2009/04/23 13:49:23.9    -622   -203    -84    655    661 251.9  -7.4  34152  289.43 0854.46
2009/04/23 13:49:24.0    -438   -305    189    534    566 235.1  20.3  34158  289.55 0854.46
2009/04/23 13:49:24.1    -540    -45    157    542    565 265.2  16.1  34170  289.75 0854.46
2009/04/23 13:49:24.2    -563     -3    230    564    609 269.6  23.5  34170  289.75 0854.50
2009/04/23 13:49:24.3    -662   -412     31    780    781 238.1   2.3  34162  289.59 0854.50
2009/04/23 13:49:24.4    -557   -242     90    608    615 246.5   8.5  34152  289.44 0854.50
2009/04/23 13:49:24.5    -645   -420   -139    771    784 236.9 -10.2  34158  289.54 0854.50
2009/04/23 13:49:24.6    -824   -375   -250    906    939 245.5 -20.1  34156  289.51 0854.50
2009/04/23 13:49:24.7    -648   -390    -78    757    761 239.0  -5.9  34152  289.45 0854.50
2009/04/23 13:49:24.8    -701   -417    -89    816    821 239.3  -6.3  34158  289.53 0854.50
2009/04/23 13:49:24.9    -799   -344   -298    870    920 246.7 -18.9  34154  289.46 0854.50
2009/04/23 13:49:25.0    -807   -366   -219    887    914 245.6 -13.9  34174  289.80 0854.50
2009/04/23 13:49:25.1    -966   -382     67   1039   1042 248.4   3.7  34128  289.04 0854.50
2009/04/23 13:49:25.2    -777   -137   -253    790    829 260.0 -22.8  34158  289.55 0854.50
2009/04/23 13:49:25.3    -872      0   -260    873    911 270.0 -16.6  34168  289.72 0854.50
2009/04/23 13:49:25.4    -742    -48   -216    744    774 266.3 -21.0  34158  289.53 0854.50
2009/04/23 13:49:25.5    -631     -4   -333    632    714 269.6 -34.4  34158  289.53 0854.50
2009/04/23 13:49:25.6    -556     25   -350    557    657 272.6 -39.6  34158  289.53 0854.50
2009/04/23 13:49:25.7    -460     13   -312    461    556 271.7 -41.8  34158  289.55 0854.50
2009/04/23 13:49:25.8    -357      0   -280    358    454 270.0 -46.3  34164  289.63 0854.50
2009/04/23 13:49:25.9    -283    -74   -246    293    382 255.2 -48.5  34162  289.60 0854.50
2009/04/23 13:49:26.0    -277   -101   -235    295    377 250.0 -47.0  34162  289.59 0854.50
2009/04/23 13:49:26.1    -317   -181   -220    366    427 240.2 -38.4  34164  289.63 0854.50
2009/04/23 13:49:26.2     -70    -74   -208    103    232 223.3 -76.5  34164  289.65 0854.52
2009/04/23 13:49:26.3       0    -63   -159     64    171 180.9 -81.5  34166  289.69 0854.52
2009/04/23 13:49:26.4     102    -84   -107    133    170 129.5 -47.7  34168  289.72 0854.52
2009/04/23 13:49:26.5     296    -18   -148    297    331  93.5 -32.9  34162  289.61 0854.52
2009/04/23 13:49:26.6     297      4    -94    298    313  89.2 -17.6  34162  289.61 0854.52
2009/04/23 13:49:26.7     409    245    -73    477    483  59.1  -8.8  34148  289.37 0854.52
2009/04/23 13:49:26.8     411    196    -44    456    459  64.5  -5.6  34164  289.63 0854.52
2009/04/23 13:49:26.9     372    257   -104    453    465  55.4 -13.0  34160  289.58 0854.52
2009/04/23 13:49:27.0     163    232   -198    284    346  35.2 -42.8  34168  289.71 0854.52
2009/04/23 13:49:27.1     111     81   -194    138    238  53.6 -65.7  34172  289.77 0854.52
2009/04/23 13:49:27.2     157   -124   -198    201    282 128.4 -54.3  34172  289.78 0854.52
2009/04/23 13:49:27.3    -305     24    -70    307    315 274.6 -12.9  34170  289.73 0854.52
2009/04/23 13:49:27.4    -428     -3   -235    429    489 269.5 -35.7  34168  289.71 0854.52
2009/04/23 13:49:27.5    -187    -50   -295    194    353 254.9 -68.0  34170  289.73 0854.52
2009/04/23 13:49:27.6    -234     71   -398    245    467 287.1 -70.0  34166  289.68 0854.52
2009/04/23 13:49:27.7    -171    -21   -294    173    341 263.0 -71.3  34172  289.78 0854.52
2009/04/23 13:49:27.8    -101   -329   -223    345    410 197.2 -40.3  34168  289.71 0854.52
2009/04/23 13:49:27.9      62   -344   -293    350    456 169.8 -48.5  34154  289.46 0854.52
2009/04/23 13:49:28.0     227   -372   -244    436    499 148.6 -36.0  34162  289.59 0854.52
2009/04/23 13:49:28.1     437   -414   -296    603    671 133.5 -32.4  34168  289.72 0854.52
2009/04/23 13:49:28.2     609   -386   -221    722    755 122.4 -21.8  34162  289.60 0854.51
2009/04/23 13:49:28.3     438    -33    157    440    467  94.4  20.3  34196  290.19 0854.51
2009/04/23 13:49:28.4     661     61     -4    665    666  84.7  -0.4  34174  289.82 0854.51
2009/04/23 13:49:28.5     406   -161    169    437    468 111.7  22.2  34166  289.66 0854.51
2009/04/23 13:49:28.6      49   -475    385    478    613 174.0  42.9  34174  289.80 0854.51
2009/04/23 13:49:28.7    -102   -746    293    753    807 187.8  22.4  34172  289.78 0854.51
2009/04/23 13:49:28.8    -236   -795    118    830    839 196.5   8.1  34160  289.57 0854.51
2009/04/23 13:49:28.9      49   -646     15    648    649 175.6   1.4  34156  289.52 0854.51
2009/04/23 13:49:29.0     293   -588    272    658    712 153.5  23.8  34162  289.61 0854.51
2009/04/23 13:49:29.1     444   -458    136    639    654 135.9  12.0  34164  289.64 0854.51
2009/04/23 13:49:29.2     390   -233    279    455    533 120.9  34.4  34166  289.69 0854.51
2009/04/23 13:49:29.3     304   -531    467    612    769 150.2  41.2  34174  289.81 0854.51
2009/04/23 13:49:29.4     -77   -368    379    377    534 191.9  50.1  34166  289.66 0854.51
2009/04/23 13:49:29.5    -153   -173    350    232    419 221.4  63.6  34158  289.54 0854.51
2009/04/23 13:49:29.6    -141   -162    445    215    494 221.0  72.4  34176  289.83 0854.51
2009/04/23 13:49:29.7     437   -241    588    500    771 118.9  55.5  34174  289.80 0854.51
2009/04/23 13:49:29.8     277   -346    400    444    597 141.3  46.6  34170  289.74 0854.51
2009/04/23 13:49:29.9     -33   -318    236    320    397 186.0  40.1  34166  289.69 0854.51
2009/04/23 13:49:30.0      83   -362    195    372    420 167.0  30.0  34162  289.61 0854.51
2009/04/23 13:49:30.1      -8   -116    105    117    157 184.0  46.6  34166  289.69 0854.55
2009/04/23 13:49:30.2    -196    -13    121    197    231 266.1  35.0  34172  289.79 0854.55
2009/04/23 13:49:30.3    -244    -74     21    256    258 253.1   4.9  34170  289.73 0854.55
2009/04/23 13:49:30.4    -194    -31    120    197    230 260.8  34.4  34168  289.70 0854.55
2009/04/23 13:49:30.5      99    -95    121    138    183 133.6  46.2  34168  289.70 0854.55
2009/04/23 13:49:30.6      15   -168    199    169    261 174.7  55.4  34170  289.73 0854.55
2009/04/23 13:49:30.7      61    -33     96     70    118 118.9  60.5  34174  289.80 0854.55
2009/04/23 13:49:30.8      54    -94     37    109    116 150.1  18.9  34172  289.77 0854.55
2009/04/23 13:49:30.9     -20   -203     -1    205    206 185.8  -0.5  34160  289.57 0854.55
2009/04/23 13:49:31.0     -98   -269    -71    287    296 200.1 -13.9  34174  289.80 0854.55
2009/04/23 13:49:31.1    -141   -153    -88    209    226 222.8 -28.5  34176  289.85 0854.55
2009/04/23 13:49:31.2    -136   -229     -5    267    268 210.8  -1.3  34172  289.76 0854.55
2009/04/23 13:49:31.3     -89   -297     61    311    318 196.7  11.1  34174  289.80 0854.55
2009/04/23 13:49:31.4    -194   -548     49    582    585 199.5   4.9  34170  289.73 0854.55
2009/04/23 13:49:31.5     -21   -685     -8    686    687 181.8  -0.7  34166  289.66 0854.55
2009/04/23 13:49:31.6      58   -864    203    866    890 176.1  13.2  34154  289.47 0854.55
2009/04/23 13:49:31.7     -91   -832    -30    838    839 186.3  -2.1  34166  289.68 0854.55
2009/04/23 13:49:31.8    -269   -564    309    625    697 205.5  28.2  34164  289.63 0854.55
2009/04/23 13:49:31.9    -105   -479    349    491    602 192.4  39.0  34168  289.72 0854.55
2009/04/23 13:49:32.0     237   -486    208    541    579 154.0  22.1  34172  289.77 0854.55
2009/04/23 13:49:32.1     261   -186    359    321    481 125.5  53.7  34168  289.70 0854.55
2009/04/23 13:49:32.2     369   -166    277    405    490 114.2  37.8  34158  289.55 0854.55
2009/04/23 13:49:32.3     293   -471    244    555    606 148.1  25.2  34164  289.63 0854.55
2009/04/23 13:49:32.4     394   -489    180    629    655 141.2  16.0  34162  289.59 0854.55
2009/04/23 13:49:32.5     225   -311    336    385    511 144.1  45.7  34160  289.57 0854.55
2009/04/23 13:49:32.6     463   -106    323    475    574 102.9  37.6  34162  289.60 0854.55
2009/04/23 13:49:32.7     172      3    270    173    320  88.7  64.6  34154  289.47 0854.55
2009/04/23 13:49:32.8     -16   -259    441    260    511 183.6  66.8  34172  289.78 0854.55
2009/04/23 13:49:32.9    -163   -450    429    479    643 199.9  46.5  34166  289.68 0854.55
2009/04/23 13:49:33.0    -173   -508    341    537    636 198.8  35.5  34152  289.44 0854.55
2009/04/23 13:49:33.1    -231   -389    311    453    549 210.7  37.9  34160  289.58 0854.55
2009/04/23 13:49:33.2      17     42    211     46    215  21.8  88.5  34170  289.74 0854.55
2009/04/23 13:49:33.3     -67    -67    269     95    285 225.1  79.9  34170  289.75 0854.55
2009/04/23 13:49:33.4      -3   -171     37    172    177 181.1  12.4  34168  289.70 0854.55
2009/04/23 13:49:33.5      -7    -44     92     45    102 189.8  72.8  34168  289.70 0854.55
2009/04/23 13:49:33.6     -67     79     90    104    137 319.5  45.8  34172  289.79 0854.55
2009/04/23 13:49:33.7      57     68    168     89    190  40.1  70.0  34172  289.79 0854.55
2009/04/23 13:49:33.8     123    -17    201    125    236  97.9  65.4  34172  289.77 0854.55
2009/04/23 13:49:33.9     117   -187    234    221    321 147.9  51.9  34170  289.75 0854.55
2009/04/23 13:49:34.0     202   -242    197    316    372 140.1  35.0  34168  289.71 0854.55
2009/04/23 13:49:34.1     255   -210    149    331    362 129.5  26.0  34172  289.79 0854.55
2009/04/23 13:49:34.2     238   -139     75    276    287 120.4  15.3  34168  289.70 0854.52
2009/04/23 13:49:34.3     213    -51    223    220    313 103.5  50.4  34174  289.81 0854.52
2009/04/23 13:49:34.4      70    -84    224    110    249 140.3  71.9  34166  289.67 0854.52
2009/04/23 13:49:34.5      65     19    189     68    200  73.2  79.7  34172  289.77 0854.52
2009/04/23 13:49:34.6      44   -307    358    311    474 171.8  54.8  34174  289.80 0854.52
2009/04/23 13:49:34.7     158   -472    353    499    611 161.4  38.7  34166  289.69 0854.52
2009/04/23 13:49:34.8      93   -538    367    547    658 170.1  37.0  34176  289.84 0854.52
2009/04/23 13:49:34.9     216   -569    386    609    721 159.2  35.5  34166  289.66 0854.52
2009/04/23 13:49:35.0      87   -629    307    635    705 172.1  27.8  34162  289.60 0854.52
2009/04/23 13:49:35.1    -133   -497     91    515    524 195.1  10.1  34166  289.67 0854.52
2009/04/23 13:49:35.2       4   -245    152    246    289 179.0  34.8  34170  289.73 0854.51
2009/04/23 13:49:35.3      98   -133    205    166    263 143.5  56.6  34176  289.83 0854.51
2009/04/23 13:49:35.4      54      7    251     55    256  82.1  88.0  34166  289.69 0854.51
2009/04/23 13:49:35.5     -50   -250    302    256    395 191.5  55.4  34172  289.76 0854.51
2009/04/23 13:49:35.6    -153   -543    199    565    599 195.8  20.2  34156  289.52 0854.51
2009/04/23 13:49:35.7    -112   -513    -32    526    527 192.4  -3.5  34172  289.77 0854.51
2009/04/23 13:49:35.8      56   -277     77    283    294 168.5  15.3  34168  289.70 0854.51
2009/04/23 13:49:35.9      78    -71     23    106    109 132.2  12.6  34172  289.79 0854.51
2009/04/23 13:49:36.0     -62    155     71    168    182 338.2  24.1  34168  289.72 0854.51
2009/04/23 13:49:36.1    -306    189    147    360    388 301.8  23.2  34186  290.01 0854.51
2009/04/23 13:49:36.2    -399    285   -133    491    509 305.5 -15.2  34174  289.81 0854.51
2009/04/23 13:49:36.3    -392    201    -17    441    442 297.2  -2.2  34170  289.73 0854.51
2009/04/23 13:49:36.4    -334    145      3    365    366 293.5   0.5  34172  289.79 0854.51
2009/04/23 13:49:36.5    -254   -296    325    391    508 220.6  44.0  34176  289.84 0854.51
2009/04/23 13:49:36.6    -241   -187    323    306    444 232.2  51.9  34184  289.97 0854.51
2009/04/23 13:49:36.7    -363    -27     62    364    370 265.6   9.7  34182  289.94 0854.51
2009/04/23 13:49:36.8    -144    -38    215    150    262 255.0  61.8  34184  289.99 0854.51
2009/04/23 13:49:36.9      -8   -245     66    246    255 182.0  15.0  34180  289.92 0854.51
2009/04/23 13:49:37.0     151   -339   -113    372    389 155.9 -16.9  34174  289.81 0854.51
2009/04/23 13:49:37.1     213   -297     36    366    368 144.3   5.7  34170  289.74 0854.51
2009/04/23 13:49:37.2     120   -323     11    345    346 159.6   1.9  34166  289.67 0854.48
2009/04/23 13:49:37.3     106   -193     14    221    222 151.3   3.8  34170  289.74 0854.48
2009/04/23 13:49:37.4      55     52    155     76    172  46.8  72.4  34174  289.80 0854.48
2009/04/23 13:49:37.5     160     58     60    171    182  70.0  19.4  34172  289.77 0854.48
2009/04/23 13:49:37.6     189      0     54    190    198  90.0  16.0  34184  289.97 0854.48
2009/04/23 13:49:37.7     200   -135    110    242    265 124.1  26.2  34192  290.10 0854.48
2009/04/23 13:49:37.8     179   -231     97    293    309 142.1  18.4  34174  289.81 0854.48
2009/04/23 13:49:37.9     138   -452    -22    473    474 163.0  -2.7  34172  289.76 0854.48
2009/04/23 13:49:38.0     252   -372     13    450    451 145.8   1.7  34168  289.72 0854.48
2009/04/23 13:49:38.1     260   -329    130    420    440 141.7  17.2  34162  289.61 0854.48
2009/04/23 13:49:38.2     376   -207    226    430    485 118.9  30.0  34162  289.59 0854.48
2009/04/23 13:49:38.3     229   -162    235    281    366 125.3  44.1  34170  289.74 0854.48
2009/04/23 13:49:38.4     272    -82    313    285    423 106.8  53.2  34174  289.81 0854.48
2009/04/23 13:49:38.5     167   -168    263    237    354 135.2  53.5  34172  289.76 0854.48
2009/04/23 13:49:38.6     167   -137    227    217    314 129.3  51.4  34174  289.81 0854.48
2009/04/23 13:49:38.7      42    -31    190     53    197 126.0  84.6  34168  289.70 0854.48
2009/04/23 13:49:38.8      49   -195    266    202    334 165.7  59.1  34170  289.73 0854.48
2009/04/23 13:49:38.9      65     74    209     99    231  41.4  72.9  34160  289.58 0854.48
2009/04/23 13:49:39.0     -89   -263    181    278    331 198.7  36.0  34164  289.63 0854.48
2009/04/23 13:49:39.1      34   -440    292    442    529 175.5  36.6  34166  289.69 0854.48
2009/04/23 13:49:39.2     -42   -429    209    432    479 185.7  27.7  34166  289.68 0854.44
2009/04/23 13:49:39.3      26   -282    108    284    303 174.7  22.0  34168  289.71 0854.44
2009/04/23 13:49:39.4     235   -129     52    269    275 118.9  11.1  34170  289.73 0854.44
2009/04/23 13:49:39.5     248   -117    148    275    312 115.4  30.7  34162  289.59 0854.44
2009/04/23 13:49:39.6      65     26    146     71    162  68.2  72.4  34168  289.72 0854.44
2009/04/23 13:49:39.7     234    170    -15    290    291  54.1  -3.1  34166  289.66 0854.44
2009/04/23 13:49:39.8     209     40    -55    213    221  79.0 -14.5  34166  289.67 0854.44
2009/04/23 13:49:39.9      91   -217    -64    236    245 157.3 -15.2  34162  289.59 0854.44
2009/04/23 13:49:40.1     -45   -263    108    267    288 189.8  23.1  34164  289.64 0854.44
2009/04/23 13:49:40.1     246   -209     63    324    331 130.4  11.0  34168  289.71 0854.44
2009/04/23 13:49:40.2     316   -209    153    379    408 123.5  23.1  34168  289.71 0854.44
2009/04/23 13:49:40.3      34   -167    -72    171    185 168.2 -28.2  34168  289.70 0854.44
2009/04/23 13:49:40.4     116     23    -78    119    142  78.6 -40.4  34172  289.77 0854.44
2009/04/23 13:49:40.5      12    -27   -115     30    118 154.6 -89.8  34172  289.79 0854.44
2009/04/23 13:49:40.6      97    -71    -77    121    143 126.4 -39.9  34168  289.70 0854.44
2009/04/23 13:49:40.8      17   -161    -77    162    179 173.8 -31.6  34168  289.72 0854.44
2009/04/23 13:49:40.9     267    -66    -51    276    281 103.9 -10.5  34172  289.76 0854.44
2009/04/23 13:49:41.0     344     24    -73    345    353  86.0 -12.0  34172  289.76 0854.44
2009/04/23 13:49:41.1     337    -51    -37    341    344  98.7  -6.2  34172  289.76 0854.44
2009/04/23 13:49:41.2     113   -370    325    387    505 163.0  44.3  34164  289.64 0854.44
2009/04/23 13:49:41.3      44   -360    238    363    434 172.9  36.5  34170  289.73 0854.38
2009/04/23 13:49:41.4     -85   -357    113    368    385 193.4  17.1  34168  289.71 0854.38
2009/04/23 13:49:41.5     -99   -360    184    374    416 195.4  28.2  34172  289.78 0854.38
2009/04/23 13:49:41.6    -152   -317     50    352    356 205.6   8.2  34166  289.69 0854.38
2009/04/23 13:49:41.7    -229    -99   -126    250    279 246.5 -33.5  34166  289.68 0854.38
2009/04/23 13:49:41.8    -201    -15   -118    202    233 265.6 -37.5  34168  289.72 0854.38
2009/04/23 13:49:41.9     -77    101    -96    128    160 322.6 -45.1  34172  289.79 0854.38
2009/04/23 13:49:42.0     122     67    161    140    213  61.1  54.3  34170  289.74 0854.38
2009/04/23 13:49:42.1     -77   -317    282    327    431 193.7  45.4  34168  289.72 0854.38
2009/04/23 13:49:42.2    -107   -323    284    341    443 198.3  43.8  34176  289.83 0854.38
2009/04/23 13:49:42.3       4   -469    417    470    628 179.4  46.2  34168  289.71 0854.38
2009/04/23 13:49:42.4     -63   -489    441    494    662 187.4  46.3  34168  289.71 0854.38
2009/04/23 13:49:42.5     194   -409    260    453    522 154.6  32.4  34168  289.71 0854.38
2009/04/23 13:49:42.6     133   -437    207    457    501 163.1  26.2  34172  289.76 0854.38
2009/04/23 13:49:42.7      64   -552    210    556    594 173.3  21.7  34170  289.75 0854.38
2009/04/23 13:49:42.8       9   -550    210    551    589 179.0  22.0  34174  289.80 0854.38
2009/04/23 13:49:42.9     -19   -488    186    489    523 182.2  21.8  34174  289.81 0854.38
2009/04/23 13:49:43.0      15   -549    120    550    564 178.4  12.4  34170  289.75 0854.38
2009/04/23 13:49:43.1      86   -525     50    533    536 170.7   5.4  34172  289.79 0854.38
2009/04/23 13:49:43.2      70   -497      3    503    504 172.0   0.4  34170  289.74 0854.38
2009/04/23 13:49:43.3       3   -480      8    481    482 179.6   1.0  34170  289.74 0854.36
2009/04/23 13:49:43.4     -86   -424      9    433    434 191.6   1.2  34166  289.66 0854.36
2009/04/23 13:49:43.5     -72   -399    111    406    421 190.3  15.3  34172  289.77 0854.36
2009/04/23 13:49:43.6     -45   -387     37    390    392 186.7   5.4  34168  289.71 0854.36
2009/04/23 13:49:43.7     -31   -341    -15    343    344 185.3  -2.6  34168  289.72 0854.36
2009/04/23 13:49:43.8     -91   -296    -15    310    311 197.2  -2.8  34170  289.73 0854.36
2009/04/23 13:49:43.9    -309   -279    -95    417    428 227.9 -12.9  34168  289.70 0854.36
2009/04/23 13:49:44.0    -364   -393     50    537    540 222.8   5.3  34172  289.77 0854.36
2009/04/23 13:49:44.1    -453   -252   -121    519    533 240.9 -13.2  34174  289.82 0854.36
2009/04/23 13:49:44.2    -524   -258   -227    585    627 243.8 -26.8  34172  289.78 0854.36
2009/04/23 13:49:44.3    -473   -198   -231    513    562 247.3 -30.4  34168  289.72 0854.36
2009/04/23 13:49:44.4    -372   -228   -190    437    476 238.5 -29.4  34164  289.65 0854.36
2009/04/23 13:49:44.5    -497   -374   -203    623    656 233.0 -18.1  34174  289.82 0854.36
2009/04/23 13:49:44.6    -710   -258   -212    756    785 250.0 -20.4  34174  289.80 0854.36
2009/04/23 13:49:44.7    -774   -254   -326    815    877 251.8 -27.4  34170  289.73 0854.36
2009/04/23 13:49:44.8    -847     -4   -334    848    911 269.7 -27.2  34178  289.88 0854.36
2009/04/23 13:49:44.9    -670    -58   -227    673    711 265.0 -18.7  34176  289.83 0854.36
2009/04/23 13:49:45.0    -610   -153   -241    629    673 255.8 -26.4  34170  289.73 0854.36
2009/04/23 13:49:45.1    -515   -106   -285    527    599 258.3 -35.2  34170  289.75 0854.36
2009/04/23 13:49:45.2    -420   -139   -147    443    466 251.6 -23.8  34174  289.82 0854.36
2009/04/23 13:49:45.3    -460   -115   -254    475    538 255.9 -34.9  34172  289.79 0854.37
2009/04/23 13:49:45.4    -900   -271   -315    940    991 253.2 -23.6  34166  289.67 0854.37
2009/04/23 13:49:45.5    -764   -130   -241    776    812 260.3 -22.3  34166  289.66 0854.37
2009/04/23 13:49:45.6    -537     45   -118    539    552 274.8 -12.4  34180  289.90 0854.37
2009/04/23 13:49:45.7    -641    -69   -199    645    675 263.8 -22.1  34186  290.00 0854.37
2009/04/23 13:49:45.8    -659   -296   -214    723    754 245.8 -21.2  34190  290.09 0854.37
2009/04/23 13:49:45.9    -728   -108   -304    737    797 261.5 -28.1  34190  290.08 0854.37
2009/04/23 13:49:46.0    -589   -396   -191    710    736 236.1 -15.1  34188  290.06 0854.37
2009/04/23 13:49:46.1    -298   -340   -160    453    480 221.2 -24.7  34182  289.95 0854.37
2009/04/23 13:49:46.2    -357   -199   -150    409    435 240.9 -25.4  34182  289.94 0854.37
2009/04/23 13:49:46.3    -373   -395   -109    544    555 223.4 -11.3  34204  290.33 0854.37
2009/04/23 13:49:46.4    -250   -350    -31    431    433 215.6  -4.2  34200  290.24 0854.37
2009/04/23 13:49:46.5    -292   -304     26    422    423 223.9   3.6  34192  290.11 0854.37
2009/04/23 13:49:46.6    -419   -431     12    602    603 224.2   1.2  34186  290.00 0854.37
2009/04/23 13:49:46.7    -244   -407    122    475    491 211.0  14.4  34182  289.93 0854.37
2009/04/23 13:49:46.8    -217   -367    120    427    444 210.7  15.8  34190  290.09 0854.37
2009/04/23 13:49:46.9    -322   -446    -50    551    554 215.8  -5.2  34172  289.77 0854.37
2009/04/23 13:49:47.0    -330   -444    -11    554    555 216.6  -1.2  34172  289.77 0854.37
2009/04/23 13:49:47.1    -688   -469     70    833    837 235.7   4.9  34174  289.82 0854.37
2009/04/23 13:49:47.2    -738   -452   -259    866    903 238.5 -21.6  34176  289.84 0854.37
2009/04/23 13:49:47.3    -621   -510    113    804    813 230.6   8.0  34178  289.89 0854.40
2009/04/23 13:49:47.4    -453   -580     40    737    739 218.0   3.1  34172  289.79 0854.40
2009/04/23 13:49:47.5    -192   -409     91    452    462 205.2  11.4  34166  289.68 0854.40
2009/04/23 13:49:47.6    -123   -551    116    565    578 192.6  11.7  34166  289.66 0854.40
2009/04/23 13:49:47.7    -213   -349    232    410    471 211.4  32.0  34168  289.72 0854.40
2009/04/23 13:49:47.8     -41   -114    214    122    246 200.0  67.7  34178  289.87 0854.40
2009/04/23 13:49:47.9     -36   -487    528    489    719 184.2  52.6  34178  289.87 0854.40
2009/04/23 13:49:48.0    -179   -541    406    570    699 198.3  39.1  34162  289.61 0854.40
2009/04/23 13:49:48.1     -19   -626    225    627    666 181.8  20.7  34180  289.91 0854.40
2009/04/23 13:49:48.2    -190   -622     51    651    654 197.0   4.5  34172  289.77 0854.40
2009/04/23 13:49:48.3     -21   -554    222    555    597 182.2  23.0  34180  289.90 0854.40
2009/04/23 13:49:48.4     -52   -622    119    625    637 184.8  10.8  34178  289.87 0854.40
2009/04/23 13:49:48.5     -96   -495    333    505    604 191.0  36.5  34176  289.85 0854.40
2009/04/23 13:49:48.6      40   -643    203    645    677 176.4  17.5  34178  289.88 0854.40
2009/04/23 13:49:48.7      79   -688    253    693    737 173.4  21.0  34178  289.88 0854.40
2009/04/23 13:49:48.8      89   -722    114    728    738 172.9   8.9  34178  289.87 0854.40
2009/04/23 13:49:48.9     -14   -723    110    724    733 181.2   8.7  34178  289.86 0854.40
2009/04/23 13:49:49.0      34   -851    163    852    868 177.7  10.9  34176  289.83 0854.40
2009/04/23 13:49:49.1     122   -662    264    674    723 169.5  22.7  34178  289.89 0854.40
2009/04/23 13:49:49.2     147   -646    240    663    705 167.1  20.9  34176  289.85 0854.40
2009/04/23 13:49:49.3      57   -523    365    527    641 173.7  38.0  34184  289.98 0854.43
2009/04/23 13:49:49.4      12   -641    318    642    716 178.9  28.4  34180  289.90 0854.43
2009/04/23 13:49:49.5     -54   -716    257    718    762 184.4  20.6  34176  289.84 0854.43
2009/04/23 13:49:49.6     -36   -514    238    516    568 184.0  26.5  34182  289.96 0854.43
2009/04/23 13:49:49.7    -205   -561    199    598    631 200.1  18.4  34178  289.89 0854.43
2009/04/23 13:49:49.8    -167   -582    237    606    650 196.1  22.5  34182  289.94 0854.43
2009/04/23 13:49:49.9      43   -323    240    326    404 172.3  40.0  34178  289.89 0854.43
2009/04/23 13:49:50.0     -45   -338    303    341    456 187.6  46.3  34186  290.00 0854.43
2009/04/23 13:49:50.1     -56   -386    216    391    446 188.3  31.4  34180  289.92 0854.43
2009/04/23 13:49:50.2      16   -323    163    324    362 177.1  28.7  34182  289.93 0854.43
2009/04/23 13:49:50.3     -38   -302    140    305    335 187.2  26.4  34176  289.85 0854.43
2009/04/23 13:49:50.4    -144   -341    153    371    401 202.9  23.8  34178  289.89 0854.43
2009/04/23 13:49:50.5    -214   -421    164    473    501 207.0  19.2  34178  289.89 0854.43
2009/04/23 13:49:50.6    -229   -387     25    450    451 210.6   3.2  34176  289.85 0854.43
2009/04/23 13:49:50.7    -138   -515     67    534    539 195.1   7.2  34174  289.80 0854.43
2009/04/23 13:49:50.8    -159   -399     87    430    439 201.8  11.4  34178  289.87 0854.43
2009/04/23 13:49:50.9    -154   -361     60    393    398 203.2   8.8  34178  289.89 0854.43
2009/04/23 13:49:51.0       0   -128    -50    129    138 180.0 -26.9  34174  289.80 0854.43
2009/04/23 13:49:51.1    -208    -90    -93    227    245 246.5 -28.2  34178  289.88 0854.43
2009/04/23 13:49:51.2    -380    113   -141    397    422 286.6 -19.6  34172  289.78 0854.43
2009/04/23 13:49:51.3    -369   -144   -282    397    486 248.6 -43.2  34170  289.73 0854.47
2009/04/23 13:49:51.4    -543   -182   -249    574    625 251.4 -29.3  34186  290.00 0854.47
2009/04/23 13:49:51.5    -721   -300   -219    781    811 247.4 -20.3  34174  289.81 0854.47
2009/04/23 13:49:51.6    -687   -521   -322    863    921 232.8 -25.9  34162  289.60 0854.47
2009/04/23 13:49:51.7    -709   -301    -21    771    772 247.0  -1.6  34184  289.98 0854.47
2009/04/23 13:49:51.8    -739   -420    -46    851    853 240.4  -3.1  34170  289.73 0854.47
2009/04/23 13:49:51.9    -980   -198   -142   1000   1011 258.6  -8.1  34168  289.71 0854.47
2009/04/23 13:49:52.0    -930   -200     50    952    954 257.8   3.0  34184  289.98 0854.47
2009/04/23 13:49:52.1   -1020   -427   -212   1106   1127 247.3 -10.9  34178  289.86 0854.47
2009/04/23 13:49:52.2    -799   -441   -222    913    940 241.1 -13.7  34190  290.08 0854.47
2009/04/23 13:49:52.3    -215   -395     88    450    459 208.6  11.1  34174  289.80 0854.47
2009/04/23 13:49:52.4    -189   -217     99    288    305 221.0  19.1  34174  289.80 0854.47
2009/04/23 13:49:52.5    -251   -185    210    313    376 233.6  37.2  34162  289.59 0854.47
2009/04/23 13:49:52.6    -304   -106    223    323    392 250.7  38.0  34172  289.79 0854.47
2009/04/23 13:49:52.7    -353    -49    187    357    403 262.0  29.8  34184  289.99 0854.47
2009/04/23 13:49:52.8    -432   -295    284    524    596 235.7  30.8  34186  290.00 0854.47
2009/04/23 13:49:52.9    -194   -373    190    421    461 207.5  26.2  34188  290.04 0854.47
2009/04/23 13:49:53.0    -341   -453     12    568    569 217.0   1.2  34172  289.79 0854.47
2009/04/23 13:49:53.1    -278   -268     21    387    388 226.1   3.2  34170  289.74 0854.47
2009/04/23 13:49:53.2    -244   -453     34    515    517 208.4   3.8  34172  289.79 0854.47
2009/04/23 13:49:53.3    -445   -570      4    724    725 218.0   0.3  34162  289.62 0854.50
2009/04/23 13:49:53.4    -229   -530    -99    578    587 203.4  -9.8  34172  289.76 0854.50
2009/04/23 13:49:53.5    -151   -115   -138    190    234 232.7 -44.1  34170  289.75 0854.50
2009/04/23 13:49:53.6    -185   -338     19    386    387 208.7   2.9  34168  289.71 0854.50
2009/04/23 13:49:53.7    -378   -360   -124    523    538 226.4 -13.4  34182  289.96 0854.50
2009/04/23 13:49:53.8     -71   -330    115    338    358 192.3  18.8  34168  289.71 0854.50
2009/04/23 13:49:53.9     173   -506      6    535    536 161.1   0.7  34172  289.79 0854.50
2009/04/23 13:49:54.0     -32   -420   -141    422    444 184.5 -23.6  34170  289.73 0854.50
2009/04/23 13:49:54.1     -76   -592     60    597    601 187.4   5.8  34176  289.85 0854.50
2009/04/23 13:49:54.2      -1   -755   -127    756    767 180.1  -9.6  34176  289.85 0854.50
2009/04/23 13:49:54.3      -2   -701     -7    702    703 180.2  -0.6  34172  289.79 0854.50
2009/04/23 13:49:54.4     126   -810     98    821    827 171.1   6.9  34170  289.74 0854.50
2009/04/23 13:49:54.5     142   -647     51    663    666 167.6   4.5  34176  289.83 0854.50
2009/04/23 13:49:54.6     202   -364     52    417    421 151.0   7.1  34170  289.75 0854.50
2009/04/23 13:49:54.7     103   -113    123    154    197 137.7  42.7  34166  289.69 0854.50
2009/04/23 13:49:54.8      58    193    151    202    252  16.7  40.6  34176  289.83 0854.50
2009/04/23 13:49:54.9     -38    247    191    251    315 351.1  41.1  34178  289.86 0854.50
2009/04/23 13:49:55.0     -69    101     85    123    149 325.7  38.0  34180  289.91 0854.50
2009/04/23 13:49:55.1      -1    -20    171     21    172 184.5  90.0  34172  289.77 0854.50
2009/04/23 13:49:55.2     -86    102     89    134    160 319.9  36.7  34186  290.01 0854.50
2009/04/23 13:49:55.3     -24   -316    212    318    382 184.5  36.9  34164  289.65 0854.51
2009/04/23 13:49:55.4    -232   -485    240    538    589 205.7  25.7  34172  289.76 0854.51
2009/04/23 13:49:55.5    -238   -500    296    555    629 205.5  30.3  34172  289.76 0854.51
2009/04/23 13:49:55.6    -344   -480    301    591    663 215.6  29.2  34172  289.79 0854.51
2009/04/23 13:49:55.7    -245   -341    269    421    499 215.7  35.6  34170  289.74 0854.51
2009/04/23 13:49:55.8     -76   -100    260    126    288 217.4  72.7  34168  289.70 0854.51
2009/04/23 13:49:55.9    -408    -49    291    411    503 263.1  38.8  34192  290.13 0854.51
2009/04/23 13:49:56.0     -18   -306    288    307    420 183.5  47.9  34172  289.79 0854.51
2009/04/23 13:49:56.1    -357     30    314    359    476 274.9  45.8  34190  290.07 0854.51
2009/04/23 13:49:56.2    -377     15    367    378    526 272.3  49.1  34192  290.13 0854.51
2009/04/23 13:49:56.3    -346   -100    370    361    516 253.9  50.7  34212  290.45 0854.49
2009/04/23 13:49:56.4     -99    -39    325    107    342 248.3  80.9  34214  290.49 0854.49
2009/04/23 13:49:56.5      31    -48    256     58    262 146.6  87.5  34200  290.26 0854.49
2009/04/23 13:49:56.6    -189     21    183    191    264 276.6  49.0  34202  290.29 0854.49
2009/04/23 13:49:56.7    -201   -136    265    243    359 235.8  52.7  34200  290.26 0854.49
2009/04/23 13:49:56.8      11   -249    284    250    378 177.3  54.2  34192  290.11 0854.49
2009/04/23 13:49:56.9      93      9    172     94    196  83.9  69.1  34198  290.21 0854.49
2009/04/23 13:49:57.0     216    -76    244    230    335 109.5  52.1  34188  290.05 0854.49
2009/04/23 13:49:57.1     204    -61    206    214    297 106.8  49.0  34190  290.07 0854.49
2009/04/23 13:49:57.2      35    -30     98     47    108 130.4  72.9  34186  290.01 0854.49
2009/04/23 13:49:57.3       5     60    108     61    124   5.3  68.3  34182  289.96 0854.49
2009/04/23 13:49:57.4      96     49    187    108    215  62.9  67.7  34180  289.92 0854.49
2009/04/23 13:49:57.5     123     82    221    148    265  56.3  63.4  34184  289.98 0854.49
2009/04/23 13:49:57.6     -83    107    183    136    228 322.2  60.0  34174  289.80 0854.49
2009/04/23 13:49:57.7     -44    135    149    143    206 341.7  51.2  34190  290.09 0854.49
2009/04/23 13:49:57.8     -40     97    109    106    152 337.3  50.7  34194  290.16 0854.49
2009/04/23 13:49:57.9    -319    142     28    350    352 294.0   4.6  34182  289.93 0854.49
2009/04/23 13:49:58.0    -439     39     21    441    442 275.2   2.8  34188  290.04 0854.49
2009/04/23 13:49:58.1    -516    -23     59    517    521 267.4   6.6  34164  289.63 0854.49
2009/04/23 13:49:58.2    -120   -240    283    269    390 206.5  51.5  34168  289.71 0854.49
2009/04/23 13:49:58.3      50   -406    220    410    465 172.9  30.6  34180  289.90 0854.50
2009/04/23 13:49:58.4    -153   -474   -133    499    517 197.9 -15.0  34176  289.83 0854.50
2009/04/23 13:49:58.5      17   -542   -179    543    572 178.1 -18.3  34176  289.85 0854.50
2009/04/23 13:49:58.6     185   -472   -288    508    583 158.6 -36.5  34174  289.82 0854.50
2009/04/23 13:49:58.7     -30   -242   -228    244    333 187.1 -52.3  34176  289.85 0854.50
2009/04/23 13:49:58.8    -157   -330   -209    366    421 205.5 -36.7  34190  290.07 0854.50
2009/04/23 13:49:58.9     -63   -436   -247    441    505 188.2 -36.1  34184  289.98 0854.50
2009/04/23 13:49:59.0      65   -517   -165    522    547 172.8 -22.6  34176  289.85 0854.50
2009/04/23 13:49:59.1     246   -505     47    562    565 154.0   4.9  34180  289.92 0854.50
2009/04/23 13:49:59.2      44   -640    -89    642    649 176.0  -7.9  34178  289.89 0854.50
2009/04/23 13:49:59.3     193   -462   -273    501    570 157.3 -35.3  34188  290.04 0854.50
2009/04/23 13:49:59.4     360   -316   -193    480    517 131.3 -27.4  34188  290.05 0854.50
2009/04/23 13:49:59.5     277   -222     22    356    357 128.8   3.6  34186  290.01 0854.50
2009/04/23 13:49:59.6      26      8    211     28    212  71.4  90.0  34192  290.11 0854.50
2009/04/23 13:49:59.7     -67    -92    217    114    245 216.1  70.4  34196  290.19 0854.50
2009/04/23 13:49:59.8    -174   -288    296    337    448 211.1  45.8  34188  290.05 0854.50
2009/04/23 13:49:59.9    -225   -457    359    510    623 206.3  38.6  34190  290.07 0854.50
2009/04/23 13:50:00.0    -312   -361    229    478    530 220.9  27.3  34188  290.06 0854.50
2009/04/23 13:50:00.1    -228   -596    214    639    675 201.0  18.6  34180  289.90 0854.50
2009/04/23 13:50:00.2    -317   -654    296    727    784 205.9  23.5  34174  289.82 0854.50
2009/04/23 13:50:00.3     -86   -691    270    697    747 187.1  22.3  34182  289.94 0854.47
2009/04/23 13:50:00.4    -101   -700     10    708    709 188.2   0.8  34182  289.93 0854.47
2009/04/23 13:50:00.5      14   -603    -48    604    607 178.6  -4.6  34176  289.85 0854.47
2009/04/23 13:50:00.6      56   -765     58    767    769 175.8   4.4  34176  289.84 0854.47
2009/04/23 13:50:00.7    -130   -652     67    665    669 191.3   5.8  34176  289.85 0854.47
2009/04/23 13:50:00.8    -541   -349     61    645    649 237.2   5.5  34176  289.84 0854.47
2009/04/23 13:50:00.9    -283   -436    188    520    554 213.0  19.9  34174  289.82 0854.47
2009/04/23 13:50:01.0    -393   -319    153    507    530 230.9  16.8  34184  289.97 0854.47
2009/04/23 13:50:01.1      14   -103    210    105    234 171.9  71.7  34184  289.97 0854.47
2009/04/23 13:50:01.2      74     52    195     91    215  54.9  73.1  34184  289.99 0854.47
2009/04/23 13:50:01.3      99     32    254    105    274  71.8  76.3  34190  290.09 0854.47
2009/04/23 13:50:01.4     136    -45    181    144    231 108.4  57.1  34186  290.02 0854.47
2009/04/23 13:50:01.5     373   -172    126    412    431 114.8  17.0  34184  289.97 0854.47
2009/04/23 13:50:01.6     241   -269    108    362    378 138.2  16.6  34178  289.87 0854.47
2009/04/23 13:50:01.7     226   -339    127    408    428 146.3  17.3  34176  289.85 0854.47
2009/04/23 13:50:01.8      44   -418     75    421    428 173.9  10.1  34182  289.94 0854.47
2009/04/23 13:50:01.9     186   -305    -31    358    360 148.7  -5.1  34174  289.81 0854.47
2009/04/23 13:50:02.0     127   -152    -23    199    201 140.1  -6.7  34170  289.75 0854.47
2009/04/23 13:50:02.1     355   -288    198    458    498 129.1  25.0  34180  289.91 0854.47
2009/04/23 13:50:02.2     378   -257    243    458    518 124.2  30.2  34180  289.91 0854.47
2009/04/23 13:50:02.3     405   -304    346    507    613 126.9  37.6  34194  290.15 0854.46
2009/04/23 13:50:02.4     354   -321    271    478    549 132.2  32.0  34192  290.13 0854.46
2009/04/23 13:50:02.5     176   -386    265    425    500 155.4  35.0  34182  289.95 0854.46
2009/04/23 13:50:02.6     227   -328    217    400    455 145.3  30.9  34184  289.97 0854.46
2009/04/23 13:50:02.7     208   -406    174    457    489 152.8  22.0  34182  289.96 0854.46
2009/04/23 13:50:02.8     217   -543    280    586    649 158.2  27.4  34182  289.94 0854.46
2009/04/23 13:50:02.9     144   -440    135    463    483 161.9  16.3  34176  289.84 0854.46
2009/04/23 13:50:03.0     139   -320    147    350    379 156.5  24.1  34182  289.96 0854.46
2009/04/23 13:50:03.1      21   -286    137    287    318 175.6  27.4  34178  289.86 0854.46
2009/04/23 13:50:03.2    -120   -565    -69    578    583 192.1  -6.9  34186  290.02 0854.46
2009/04/23 13:50:03.3    -191   -654     28    682    683 196.3   2.4  34182  289.93 0854.46
2009/04/23 13:50:03.4     258   -587   -192    642    670 156.3 -21.6  34178  289.87 0854.46
2009/04/23 13:50:03.5     321   -413   -277    524    592 142.2 -34.6  34188  290.05 0854.46
2009/04/23 13:50:03.6      42   -261   -160    265    309 170.7 -38.4  34190  290.09 0854.46
2009/04/23 13:50:03.7     311   -588   -223    666    703 152.1 -18.6  34176  289.85 0854.46
2009/04/23 13:50:03.8     408   -599     76    726    731 145.7   6.0  34178  289.88 0854.46
2009/04/23 13:50:03.9     262   -656     34    707    708 158.2   2.8  34182  289.94 0854.46
2009/04/23 13:50:04.0     195   -561    -50    595    598 160.8  -4.9  34172  289.76 0854.46
2009/04/23 13:50:04.1     306   -530    -58    613    616 150.0  -5.5  34180  289.92 0854.46
2009/04/23 13:50:04.2     115   -823    186    832    853 172.0  12.6  34182  289.93 0854.46
2009/04/23 13:50:04.3     -63   -677   -115    681    691 185.4  -9.6  34182  289.95 0854.52
2009/04/23 13:50:04.4    -184   -686    -91    711    717 195.0  -7.3  34180  289.91 0854.52
2009/04/23 13:50:04.5    -284   -625   -197    687    715 204.5 -16.0  34188  290.05 0854.52
2009/04/23 13:50:04.6    -412   -622   -288    747    800 213.5 -26.6  34186  290.02 0854.52
2009/04/23 13:50:04.7    -300   -611   -235    681    720 206.2 -24.3  34158  289.54 0854.52
2009/04/23 13:50:04.8    -277   -571   -175    635    658 205.9 -20.1  34184  289.98 0854.52
2009/04/23 13:50:04.9    -306   -253    -36    398    400 230.4  -5.2  34188  290.06 0854.52
2009/04/23 13:50:05.0     -83   -505   -107    512    524 189.4 -11.8  34188  290.06 0854.52
2009/04/23 13:50:05.1    -132   -369     20    392    393 199.7   3.0  34184  289.99 0854.52
2009/04/23 13:50:05.2    -139   -400    128    424    443 199.2  16.8  34184  289.99 0854.52
2009/04/23 13:50:05.3    -226   -120    -85    256    269 242.0 -23.8  34200  290.24 0854.52
2009/04/23 13:50:05.4    -212   -217   -228    304    380 224.3 -45.0  34188  290.06 0854.52
2009/04/23 13:50:05.5    -280   -261   -130    384    406 227.0 -18.8  34190  290.08 0854.52
2009/04/23 13:50:05.6    -271   -249   -176    369    408 227.4 -31.7  34192  290.13 0854.52
2009/04/23 13:50:05.7     -37   -180    -55    184    193 191.8 -16.6  34196  290.19 0854.52
2009/04/23 13:50:05.8    -210   -202    -58    292    298 226.0 -11.3  34202  290.27 0854.52
2009/04/23 13:50:05.9     -56   -199   -184    207    276 195.8 -50.6  34194  290.14 0854.52
2009/04/23 13:50:06.1    -309     32   -189    311    363 276.1 -38.6  34188  290.04 0854.52
2009/04/23 13:50:06.1    -110   -252   -246    276    369 203.6 -50.7  34178  289.89 0854.52
2009/04/23 13:50:06.2      72   -300   -127    309    334 166.4 -28.1  34192  290.10 0854.52
2009/04/23 13:50:06.3     115   -280   -104    303    320 157.7 -23.9  34192  290.10 0854.60
2009/04/23 13:50:06.4     135   -254    -44    288    292 152.0  -8.8  34188  290.03 0854.60
2009/04/23 13:50:06.5      88   -287    -96    301    315 163.0 -22.6  34186  290.00 0854.60
2009/04/23 13:50:06.6     194   -270   -117    333    354 144.2 -19.4  34188  290.03 0854.60
2009/04/23 13:50:06.7     165   -259      9    308    309 147.5   1.7  34176  289.85 0854.60
2009/04/23 13:50:06.8     171   -167    131    240    273 134.4  31.3  34186  290.00 0854.60
2009/04/23 13:50:06.9     159   -255    154    301    338 148.1  29.2  34192  290.10 0854.60
2009/04/23 13:50:07.1     167   -250    163    301    342 146.2  30.8  34184  289.99 0854.60
2009/04/23 13:50:07.1     122   -399    122    418    436 163.0  16.3  34190  290.09 0854.60
2009/04/23 13:50:07.3      11   -248    183    249    309 177.3  39.7  34184  289.98 0854.60
2009/04/23 13:50:07.4    -112   -399    145    415    439 195.8  20.0  34188  290.04 0854.60
2009/04/23 13:50:07.5     -13   -464     42    465    467 181.6   5.2  34188  290.05 0854.60
2009/04/23 13:50:07.6     -79   -531     15    537    538 188.5   1.6  34182  289.96 0854.60
2009/04/23 13:50:07.7    -118   -429    156    446    473 195.4  19.3  34182  289.94 0854.60
2009/04/23 13:50:07.8    -115   -569    182    581    609 191.5  17.4  34182  289.95 0854.60
2009/04/23 13:50:07.9     -71   -510    121    516    530 188.0  13.2  34182  289.94 0854.60
2009/04/23 13:50:08.0     -38   -538    111    540    552 184.1  11.7  34182  289.94 0854.60
2009/04/23 13:50:08.1    -138   -456     38    477    479 196.9   4.6  34184  289.98 0854.60
2009/04/23 13:50:08.2    -176   -379     84    419    428 204.9  11.4  34182  289.94 0854.60
2009/04/23 13:50:08.3    -146   -310    107    343    360 205.2  17.3  34182  289.93 0854.60
2009/04/23 13:50:08.4    -171   -291    101    338    353 210.4  16.6  34178  289.89 0854.61
2009/04/23 13:50:08.5    -203   -281     43    347    350 215.9   7.1  34180  289.91 0854.61
2009/04/23 13:50:08.6    -212   -208    -16    298    299 225.6  -3.2  34182  289.95 0854.61
2009/04/23 13:50:08.7     -38   -140      7    146    147 195.2   2.9  34176  289.84 0854.61
2009/04/23 13:50:08.8      51      0     36     52     63  90.0  38.6  34180  289.92 0854.61
2009/04/23 13:50:08.9      73    -24     65     78    101 108.6  43.8  34184  289.97 0854.61
2009/04/23 13:50:09.0      53   -198    126    206    241 164.9  34.4  34174  289.80 0854.61
2009/04/23 13:50:09.1     -72   -220    118    232    260 198.3  29.2  34182  289.93 0854.61
2009/04/23 13:50:09.2    -123   -241     80    271    283 207.2  16.6  34182  289.93 0854.61
2009/04/23 13:50:09.3    -161   -215    206    269    338 216.9  41.3  34182  289.93 0854.61
2009/04/23 13:50:09.4    -254   -282    229    380    443 222.0  33.8  34176  289.85 0854.61
2009/04/23 13:50:09.5    -375    -90    149    386    413 256.4  22.2  34210  290.43 0854.61
2009/04/23 13:50:09.6    -325   -145    181    357    400 245.9  29.1  34210  290.42 0854.61
2009/04/23 13:50:09.7    -235   -233     70    332    340 225.2  12.0  34194  290.16 0854.61
2009/04/23 13:50:09.8    -248   -294    222    385    444 220.2  32.6  34194  290.14 0854.61
2009/04/23 13:50:09.9    -134   -134    155    190    245 225.0  43.7  34188  290.04 0854.61
2009/04/23 13:50:10.0    -187   -345     77    393    401 208.5  11.1  34186  290.01 0854.61
2009/04/23 13:50:10.1    -314   -307    155    440    467 225.6  19.4  34190  290.09 0854.61
2009/04/23 13:50:10.2     -30   -279    297    281    408 186.3  51.6  34186  290.01 0854.61
2009/04/23 13:50:10.3     -68   -223    232    234    329 197.0  50.1  34190  290.09 0854.61
2009/04/23 13:50:10.4    -217   -360    208    421    469 211.1  28.2  34184  289.99 0854.40
2009/04/23 13:50:10.5    -321   -517    118    609    621 211.9  11.0  34180  289.92 0854.40
2009/04/23 13:50:10.6    -194   -509    127    546    561 200.9  13.1  34182  289.96 0854.40
2009/04/23 13:50:10.7     -35   -511    198    513    549 184.0  22.1  34182  289.96 0854.40
2009/04/23 13:50:10.8     -46   -368    234    371    438 187.2  35.5  34182  289.94 0854.40
2009/04/23 13:50:10.9      32   -383    237    385    452 175.2  34.5  34192  290.11 0854.40
2009/04/23 13:50:11.0      29   -440    160    441    469 176.2  20.8  34200  290.24 0854.40
2009/04/23 13:50:11.1     -56   -300    289    306    420 190.6  48.0  34196  290.18 0854.40
2009/04/23 13:50:11.2     -84   -249    282    263    385 198.7  52.2  34198  290.23 0854.40
2009/04/23 13:50:11.3      56   -151    272    162    316 159.5  66.5  34196  290.19 0854.40
2009/04/23 13:50:11.4     153   -142    223    210    306 132.9  52.1  34192  290.10 0854.40
2009/04/23 13:50:11.5     231   -154    192    278    337 123.7  38.0  34186  290.02 0854.40
2009/04/23 13:50:11.6     -16   -215    103    216    239 184.4  27.3  34192  290.13 0854.40
2009/04/23 13:50:11.7      61   -225    119    234    262 164.8  29.2  34190  290.07 0854.40
2009/04/23 13:50:11.8    -117   -165     16    203    204 215.4   4.6  34186  290.02 0854.40
2009/04/23 13:50:11.9     -39   -281     58    284    291 188.0  11.6  34188  290.05 0854.40
2009/04/23 13:50:12.0     305   -192    -45    361    364 122.1  -7.2  34184  289.98 0854.40
2009/04/23 13:50:12.1     198   -266     -6    332    333 143.4  -1.1  34188  290.03 0854.40
2009/04/23 13:50:12.2      88   -358     65    369    375 166.2  10.1  34182  289.96 0854.40
2009/04/23 13:50:12.3      15   -296     58    297    303 177.1  11.1  34184  289.97 0854.40
2009/04/23 13:50:12.4      37   -214     85    218    233 170.0  22.3  34186  290.01 0854.37
2009/04/23 13:50:12.5      23   -165     -9    167    168 172.0  -3.1  34186  290.01 0854.37
2009/04/23 13:50:12.6     -48   -140     94    149    176 199.2  35.5  34186  290.01 0854.37
2009/04/23 13:50:12.7     -32   -145    241    149    283 192.5  65.4  34190  290.09 0854.37
2009/04/23 13:50:12.8    -137   -152     -1    205    206 222.1  -0.5  34190  290.08 0854.37
2009/04/23 13:50:12.9    -211   -186    -82    282    293 228.7 -21.0  34188  290.05 0854.37
2009/04/23 13:50:13.0    -214   -181    -77    281    291 229.8 -20.0  34196  290.17 0854.37
2009/04/23 13:50:13.1    -157   -123    -83    200    216 232.0 -28.0  34194  290.16 0854.37
2009/04/23 13:50:13.2    -141    -36    -81    146    166 255.4 -35.8  34194  290.16 0854.37
2009/04/23 13:50:13.3     -70    -54    -38     89     96 232.2 -28.5  34194  290.14 0854.37
2009/04/23 13:50:13.4       8    -95    -45     96    106 175.1 -31.5  34194  290.16 0854.37
2009/04/23 13:50:13.5      77   -104     74    130    149 143.5  31.9  34192  290.11 0854.37
2009/04/23 13:50:13.6      35   -171     28    175    178 168.4   9.3  34190  290.09 0854.37
2009/04/23 13:50:13.7     131   -131     61    186    196 135.0  18.4  34192  290.13 0854.37
2009/04/23 13:50:13.8     209   -179    -33    276    279 130.7  -6.9  34190  290.09 0854.37
2009/04/23 13:50:13.9     141   -170    -35    221    224 140.3  -9.0  34190  290.09 0854.37
2009/04/23 13:50:14.0     162   -182     -2    245    246 138.3  -0.5  34192  290.12 0854.37
2009/04/23 13:50:14.1     242   -175    -16    299    300 126.0  -3.1  34188  290.05 0854.37
2009/04/23 13:50:14.2     237   -195    -17    308    309 129.5  -3.2  34186  290.00 0854.37
2009/04/23 13:50:14.3     163   -225    -66    279    287 144.0 -13.4  34188  290.03 0854.37
2009/04/23 13:50:14.4     219   -144   -111    263    285 123.3 -28.7  34188  290.03 0854.36
2009/04/23 13:50:14.5     290   -174    -30    339    341 120.9  -5.2  34188  290.06 0854.36
2009/04/23 13:50:14.6     261   -158     15    306    307 121.1   2.9  34188  290.03 0854.36
2009/04/23 13:50:14.7     165   -147     47    222    228 131.8  12.0  34184  289.99 0854.36
2009/04/23 13:50:14.8      59   -124     91    138    165 154.7  36.3  34186  290.02 0854.36
2009/04/23 13:50:14.9      41    -68    118     80    142 148.4  62.7  34190  290.08 0854.36
2009/04/23 13:50:15.0      -6    -76    150     77    168 184.5  70.8  34188  290.06 0854.36
2009/04/23 13:50:15.1       1    -77    169     78    186 179.0  73.5  34192  290.11 0854.36
2009/04/23 13:50:15.2     -33   -115    178    120    214 196.0  62.7  34188  290.06 0854.36
2009/04/23 13:50:15.3     -77   -126    123    148    192 211.6  43.8  34188  290.06 0854.36
2009/04/23 13:50:15.4    -215    -61    127    224    257 254.1  32.1  34188  290.03 0854.36
2009/04/23 13:50:15.5    -364    -42     81    367    376 263.4  12.5  34178  289.89 0854.36
2009/04/23 13:50:15.6    -378     93    -41    390    393 283.9  -6.1  34194  290.16 0854.36
2009/04/23 13:50:15.7    -372     63   -105    378    393 279.6 -15.5  34200  290.25 0854.36
2009/04/23 13:50:15.8    -554     21   -106    555    566 272.2 -10.9  34214  290.50 0854.36
2009/04/23 13:50:15.9    -531     16    -47    532    535 271.8  -5.1  34202  290.30 0854.36
2009/04/23 13:50:16.0    -509   -288    113    586    597 240.5  11.0  34200  290.24 0854.36
2009/04/23 13:50:16.1    -360   -107    197    376    424 253.4  30.0  34194  290.14 0854.36
2009/04/23 13:50:16.2    -448   -126     19    466    467 254.3   2.4  34196  290.18 0854.36
2009/04/23 13:50:16.3    -504     10     95    505    515 271.2  10.7  34198  290.23 0854.36
2009/04/23 13:50:16.4    -654   -156   -108    673    682 256.6  -9.1  34212  290.46 0854.40
2009/04/23 13:50:16.5    -581   -279   -167    645    667 244.3 -14.5  34212  290.44 0854.40
2009/04/23 13:50:16.6    -465   -293   -190    550    582 237.8 -19.1  34202  290.27 0854.40
2009/04/23 13:50:16.7    -666   -358   -145    757    771 241.7 -10.9  34200  290.24 0854.40
2009/04/23 13:50:16.8    -533   -294   -177    609    635 241.1 -16.2  34166  289.69 0854.40
2009/04/23 13:50:16.9    -683   -219   -227    718    753 252.2 -22.6  34188  290.06 0854.40
2009/04/23 13:50:17.0    -482   -410    -81    634    640 229.6  -7.3  34192  290.13 0854.40
2009/04/23 13:50:17.1    -770   -327   -232    837    869 247.0 -15.5  34172  289.76 0854.40
2009/04/23 13:50:17.2    -549   -202   -157    586    607 249.8 -15.1  34186  290.02 0854.40
2009/04/23 13:50:17.3    -665   -274   -242    720    760 247.6 -18.6  34176  289.85 0854.40
2009/04/23 13:50:17.4    -507   -322     16    601    602 237.6   1.6  34194  290.15 0854.39
2009/04/23 13:50:17.5    -151   -308   -152    344    376 206.2 -29.6  34190  290.08 0854.39
2009/04/23 13:50:17.6     -53   -417    -37    421    423 187.3  -5.1  34196  290.19 0854.39
2009/04/23 13:50:17.7      31   -286     40    288    291 173.7   8.0  34192  290.10 0854.39
2009/04/23 13:50:17.8     -69   -397     -4    404    405 189.9  -0.6  34200  290.26 0854.39
2009/04/23 13:50:17.9    -132   -137   -165    191    252 224.1 -49.8  34198  290.22 0854.39
2009/04/23 13:50:18.0    -127      1   -131    128    183 270.8 -55.1  34188  290.04 0854.39
2009/04/23 13:50:18.1    -146   -297    -27    331    333 206.2  -4.8  34194  290.16 0854.39
2009/04/23 13:50:18.2    -206   -357    -16    413    414 210.0  -2.2  34198  290.22 0854.39
2009/04/23 13:50:18.3     -99   -371     54    385    389 195.1   8.1  34200  290.25 0854.39
2009/04/23 13:50:18.4    -148   -515    -88    536    544 196.1  -9.4  34190  290.07 0854.39
2009/04/23 13:50:18.5     -24   -419   -119    420    436 183.4 -20.5  34182  289.95 0854.39
2009/04/23 13:50:18.6    -103   -358    -16    373    374 196.0  -2.5  34184  289.98 0854.39
2009/04/23 13:50:18.7     -67   -269    102    278    296 194.0  21.0  34190  290.09 0854.39
2009/04/23 13:50:18.8    -183   -247    -59    308    314 216.5 -10.9  34184  289.98 0854.39
2009/04/23 13:50:18.9     -31   -112    -95    117    150 195.6 -48.1  34188  290.04 0854.39
2009/04/23 13:50:19.0     -20   -224    189    226    294 185.3  43.8  34190  290.07 0854.39
2009/04/23 13:50:19.1     -69   -154    161    169    233 204.1  48.7  34188  290.06 0854.39
2009/04/23 13:50:19.2     -77   -145    157    165    227 207.9  48.5  34188  290.04 0854.39
2009/04/23 13:50:19.3    -127    -84     50    153    162 236.7  18.1  34186  290.01 0854.39
2009/04/23 13:50:19.4    -158    -22     93    160    185 262.1  32.9  34186  290.01 0854.41
2009/04/23 13:50:19.5    -345    138     86    372    382 291.8  13.1  34184  289.99 0854.41
2009/04/23 13:50:19.6    -498    236    150    552    573 295.4  15.2  34190  290.09 0854.41
2009/04/23 13:50:19.7    -587   -153   -116    607    619 255.4 -10.9  34214  290.48 0854.41
2009/04/23 13:50:19.8    -458    -47   -103    461    473 264.0 -12.6  34192  290.10 0854.41
2009/04/23 13:50:19.9    -625   -126   -207    638    671 258.6 -18.0  34192  290.10 0854.41
2009/04/23 13:50:20.0    -602   -400   -187    723    747 236.4 -14.5  34186  290.01 0854.41
2009/04/23 13:50:20.1    -362   -600   -230    701    737 211.1 -23.3  34194  290.15 0854.41
2009/04/23 13:50:20.2    -387   -499   -158    632    652 217.8 -14.1  34192  290.11 0854.41
2009/04/23 13:50:20.3    -494   -524   -174    721    742 223.3 -13.6  34200  290.24 0854.41
2009/04/23 13:50:20.4    -383   -471   -175    608    633 219.1 -16.1  34190  290.08 0854.41
2009/04/23 13:50:20.5    -500   -346    -45    609    611 235.3  -4.2  34182  289.95 0854.41
2009/04/23 13:50:20.6    -292    103     56    310    316 289.5  10.2  34188  290.05 0854.41
2009/04/23 13:50:20.7    -451    311     95    548    557 304.6   9.9  34188  290.04 0854.41
2009/04/23 13:50:20.8    -424     83    308    433    531 281.1  39.1  34172  289.78 0854.41
2009/04/23 13:50:20.9    -274     15     33    275    277 273.3   6.9  34176  289.85 0854.41
2009/04/23 13:50:21.0    -488    100   -117    499    513 281.7 -13.3  34180  289.91 0854.41
2009/04/23 13:50:21.1    -657    130   -195    670    697 281.2 -21.0  34188  290.05 0854.41
2009/04/23 13:50:21.2    -586   -174    -14    612    613 253.5  -1.4  34182  289.95 0854.41
2009/04/23 13:50:21.3    -922   -296    -35    969    970 252.2  -2.1  34184  289.97 0854.41
2009/04/23 13:50:21.4   -1030   -139   -507   1040   1157 262.3 -32.3  34182  289.95 0854.40
2009/04/23 13:50:21.5    -988   -202   -291   1009   1050 258.4 -20.8  34176  289.84 0854.40
2009/04/23 13:50:21.6    -722   -327   -247    793    830 245.6 -22.3  34194  290.16 0854.40
2009/04/23 13:50:21.7    -650   -328   -208    729    758 243.2 -20.7  34202  290.28 0854.40
2009/04/23 13:50:21.8    -716   -263   -236    764    800 249.8 -17.2  34198  290.20 0854.40
2009/04/23 13:50:21.9    -374   -520    -82    641    647 215.7  -7.3  34202  290.30 0854.40
2009/04/23 13:50:22.0    -298   -657   -223    722    756 204.4 -17.2  34182  289.94 0854.40
2009/04/23 13:50:22.1     -93   -768   -157    774    790 187.0 -11.5  34180  289.90 0854.40
2009/04/23 13:50:22.2     115   -840     43    848    850 172.2   2.9  34178  289.87 0854.40
2009/04/23 13:50:22.3       1   -870    119    871    880 179.9   7.8  34180  289.91 0854.40
2009/04/23 13:50:22.4      35   -720    214    721    753 177.2  16.5  34172  289.77 0854.40
2009/04/23 13:50:22.5      -4   -522    143    523    543 180.5  15.3  34182  289.94 0854.40
2009/04/23 13:50:22.6      85   -764    154    769    785 173.6  11.3  34172  289.76 0854.40
2009/04/23 13:50:22.7     -32   -887    268    888    928 182.1  16.8  34188  290.04 0854.40
2009/04/23 13:50:22.8     183   -916    277    935    976 168.7  16.5  34188  290.04 0854.40
2009/04/23 13:50:22.9     231   -854    246    885    919 164.8  15.6  34184  289.99 0854.40
2009/04/23 13:50:23.0     101   -724    103    732    740 172.0   8.0  34182  289.95 0854.40
2009/04/23 13:50:23.1      39   -976    104    977    983 177.7   6.1  34182  289.94 0854.40
2009/04/23 13:50:23.2    -148   -979    352    991   1053 188.6  19.6  34166  289.69 0854.40
2009/04/23 13:50:23.3      -4  -1005    438   1006   1097 180.3  25.1  34186  290.00 0854.40
2009/04/23 13:50:23.4     131  -1025    324   1034   1084 172.7  17.4  34170  289.73 0854.38
2009/04/23 13:50:23.5      91  -1006   -160   1011   1024 174.8  -9.0  34182  289.96 0854.38
2009/04/23 13:50:23.6    -105   -987    -46    993    995 186.1  -2.7  34184  289.98 0854.38
2009/04/23 13:50:23.7    -102   -940   -156    946    959 186.2  -9.4  34182  289.93 0854.38
2009/04/23 13:50:23.8    -238   -849    -54    882    884 195.7  -3.5  34178  289.88 0854.38
2009/04/23 13:50:23.9     -85   -687   -258    693    739 187.1 -25.8  34186  290.01 0854.38
2009/04/23 13:50:24.0     -43   -302   -308    306    434 188.1 -54.5  34174  289.82 0854.38
2009/04/23 13:50:24.1    -151   -214    -98    263    280 215.2 -25.4  34188  290.05 0854.38
2009/04/23 13:50:24.2    -142   -465    -19    487    488 197.0  -2.3  34192  290.10 0854.38
2009/04/23 13:50:24.3    -163   -176   -143    240    279 222.8 -37.9  34180  289.92 0854.38
2009/04/23 13:50:24.4    -187   -178      3    259    260 226.4   0.8  34186  290.00 0854.38
2009/04/23 13:50:24.5      -3   -124    -93    125    155 181.8 -44.5  34186  290.01 0854.38
2009/04/23 13:50:24.6    -296    127   -192    323    375 293.3 -37.9  34176  289.84 0854.38
2009/04/23 13:50:24.7    -551     89   -193    559    592 279.2 -19.1  34202  290.29 0854.38
2009/04/23 13:50:24.8    -631     15    -59    632    635 271.4  -5.4  34182  289.94 0854.38
2009/04/23 13:50:24.9    -294   -354   -135    461    481 219.7 -16.4  34186  290.01 0854.38
2009/04/23 13:50:25.0    -545   -349     19    648    649 237.4   1.7  34178  289.87 0854.38
2009/04/23 13:50:25.1    -666   -223   -103    703    711 251.4  -8.4  34198  290.23 0854.38
2009/04/23 13:50:25.2    -611   -426     37    745    746 235.1   2.9  34188  290.04 0854.38
2009/04/23 13:50:25.3    -569   -296   -187    642    668 242.5 -21.0  34188  290.05 0854.38
2009/04/23 13:50:25.4    -233   -423    -98    484    494 208.9 -11.5  34150  289.40 0854.44
2009/04/23 13:50:25.5    -283   -194    -84    344    355 235.5 -13.8  34212  290.47 0854.44
2009/04/23 13:50:25.6      12   -438    -79    439    447 178.4 -10.2  34192  290.11 0854.44
2009/04/23 13:50:25.7    -136   -830     62    842    845 189.3   4.2  34190  290.07 0854.44
2009/04/23 13:50:25.8    -151   -980    198    992   1012 188.8  11.3  34184  289.97 0854.44
2009/04/23 13:50:25.9    -213   -795    155    823    838 195.0  10.7  34178  289.87 0854.44
2009/04/23 13:50:26.0     -69   -793     93    797    803 185.0   6.7  34182  289.95 0854.44
2009/04/23 13:50:26.1     -83   -575    366    582    687 188.2  35.2  34190  290.08 0854.44
2009/04/23 13:50:26.2      11   -680    342    681    762 179.0  28.7  34184  289.99 0854.44
2009/04/23 13:50:26.3      16   -650    343    651    735 178.5  30.1  34188  290.05 0854.44
2009/04/23 13:50:26.4     298   -484    286    569    636 148.4  28.7  34174  289.81 0854.44
2009/04/23 13:50:26.5     475   -245    431    535    687 117.3  43.0  34188  290.06 0854.44
2009/04/23 13:50:26.6     338   -333    228    475    526 134.6  27.3  34188  290.03 0854.44
2009/04/23 13:50:26.7     255   -458    180    525    556 150.9  18.9  34188  290.06 0854.44
2009/04/23 13:50:26.8     248   -241    266    347    437 134.2  41.4  34184  289.97 0854.44
2009/04/23 13:50:26.9     170   -303    193    348    397 150.6  31.4  34178  289.86 0854.44
2009/04/23 13:50:27.0    -176   -345    271    388    473 207.1  38.4  34188  290.05 0854.44
2009/04/23 13:50:27.1     -31   -290    284    292    407 186.3  49.2  34178  289.89 0854.44
2009/04/23 13:50:27.2     -43     68    125     81    148 327.5  64.6  34198  290.21 0854.44
2009/04/23 13:50:27.3     -22    -68    256     72    265 198.3  84.1  34202  290.30 0854.44
2009/04/23 13:50:27.4    -319   -237     71    398    405 233.4  10.1  34180  289.92 0854.34
2009/04/23 13:50:27.5    -415   -208   -159    465    492 243.4 -18.9  34178  289.86 0854.34
2009/04/23 13:50:27.6    -264   -309   -171    407    441 220.5 -28.6  34176  289.85 0854.34
2009/04/23 13:50:27.7    -224   -180   -158    288    328 231.1 -35.7  34190  290.07 0854.34
2009/04/23 13:50:27.8    -144   -276    -55    312    317 207.6 -10.1  34194  290.14 0854.34
2009/04/23 13:50:27.9      65   -205    127    216    250 162.4  33.4  34192  290.10 0854.34
2009/04/23 13:50:28.0    -259   -132   -139    291    322 242.9 -31.7  34204  290.32 0854.34
2009/04/23 13:50:28.1    -366   -110    -21    383    384 253.2  -3.1  34198  290.23 0854.34
2009/04/23 13:50:28.2    -527   -170   -322    554    640 252.1 -37.2  34188  290.03 0854.34
2009/04/23 13:50:28.3    -620    -86   -261    626    678 262.1 -28.5  34176  289.83 0854.34
2009/04/23 13:50:28.4    -388    -79   -211    397    449 258.4 -34.7  34176  289.83 0854.34
2009/04/23 13:50:28.5    -159   -112   -194    195    275 234.7 -54.4  34186  290.02 0854.34
2009/04/23 13:50:28.6      25   -106    -74    109    131 166.6 -41.8  34186  290.02 0854.34
2009/04/23 13:50:28.7     175    -34    -24    179    181 101.2  -7.7  34184  289.99 0854.34
2009/04/23 13:50:28.8     210     79   -115    225    252  69.2 -33.7  34188  290.03 0854.34
2009/04/23 13:50:28.9     532     73     -8    537    538  82.1  -0.9  34178  289.87 0854.34
2009/04/23 13:50:29.0     666     84    258    672    719  82.8  22.1  34178  289.86 0854.34
2009/04/23 13:50:29.1     657     40    365    659    753  86.5  31.4  34180  289.91 0854.34
2009/04/23 13:50:29.2     327   -229    194    400    444 125.1  27.7  34178  289.88 0854.34
2009/04/23 13:50:29.3     425   -317     14    531    532 126.8   1.6  34188  290.06 0854.34
2009/04/23 13:50:29.4     503   -476    -38    693    695 133.4  -3.1  34184  289.97 0854.33
2009/04/23 13:50:29.5     347   -342    -14    488    489 134.5  -1.7  34188  290.06 0854.33
2009/04/23 13:50:29.6     306   -588     61    663    667 152.5   5.3  34186  290.00 0854.33
2009/04/23 13:50:29.7     352   -612     58    707    710 150.1   4.7  34184  289.98 0854.33
2009/04/23 13:50:29.8     452   -192    241    492    547 113.1  28.1  34176  289.84 0854.33
2009/04/23 13:50:29.9     417   -415    331    589    675 134.8  31.9  34188  290.06 0854.33
2009/04/23 13:50:30.0     260   -399    357    477    595 146.9  40.6  34180  289.92 0854.33
2009/04/23 13:50:30.1     -13   -514    319    515    605 181.5  34.8  34188  290.03 0854.33
2009/04/23 13:50:30.2      65   -748    241    751    789 175.0  17.8  34188  290.05 0854.33
2009/04/23 13:50:30.3     243   -537    218    590    628 155.6  21.3  34188  290.03 0854.33
2009/04/23 13:50:30.4     190   -485    216    522    564 158.6  23.9  34182  289.94 0854.33
2009/04/23 13:50:30.5      78   -644    228    649    689 173.0  19.4  34184  289.99 0854.33
2009/04/23 13:50:30.6       0   -555    213    556    595 180.0  22.0  34186  290.02 0854.33
2009/04/23 13:50:30.7      31   -435    264    437    510 175.9  34.0  34182  289.93 0854.33
2009/04/23 13:50:30.8    -131   -323    297    349    458 202.1  44.8  34186  290.02 0854.33
2009/04/23 13:50:30.9    -124   -316    126    340    362 201.5  21.3  34188  290.06 0854.33
2009/04/23 13:50:31.0    -146   -372     86    400    410 201.5  12.2  34190  290.09 0854.33
2009/04/23 13:50:31.1    -280   -224     40    359    362 231.4   6.4  34190  290.08 0854.33
2009/04/23 13:50:31.2    -250   -225    -60    337    343 227.9 -10.1  34198  290.20 0854.33
2009/04/23 13:50:31.3    -222   -450     43    502    504 206.3   5.0  34188  290.03 0854.33
2009/04/23 13:50:31.4    -396   -493     16    633    634 218.8   1.5  34188  290.04 0854.35
2009/04/23 13:50:31.5    -232   -404     23    467    468 209.9   2.9  34188  290.03 0854.35
2009/04/23 13:50:31.6    -148   -167     -4    224    225 221.5  -1.1  34192  290.11 0854.35
2009/04/23 13:50:31.7     -39   -100     38    108    115 201.4  19.4  34194  290.16 0854.35
2009/04/23 13:50:31.8       2   -138     11    139    140 179.1   4.9  34192  290.13 0854.35
2009/04/23 13:50:31.9     235   -320    232    398    460 143.7  32.9  34194  290.14 0854.35
2009/04/23 13:50:32.0     241   -449    208    510    550 151.7  23.5  34190  290.07 0854.35
2009/04/23 13:50:32.1     248   -568     81    621    627 156.4   7.4  34192  290.11 0854.35
2009/04/23 13:50:32.2     176   -327     96    372    385 151.6  14.5  34192  290.10 0854.35
2009/04/23 13:50:32.3     114   -285    122    308    331 158.2  22.9  34184  289.98 0854.35
2009/04/23 13:50:32.4     -15   -340    -16    341    342 182.6  -2.7  34190  290.08 0854.35
2009/04/23 13:50:32.5     203   -372    -44    424    427 151.4  -6.0  34192  290.12 0854.35
2009/04/23 13:50:32.6     247   -351     51    430    434 144.8   6.9  34186  290.02 0854.35
2009/04/23 13:50:32.7      10   -627    195    628    658 179.0  17.3  34188  290.06 0854.35
2009/04/23 13:50:32.8     -53   -702    299    704    764 184.4  24.4  34180  289.92 0854.35
2009/04/23 13:50:32.9     383   -796    -34    884    885 154.3  -2.2  34188  290.03 0854.35
2009/04/23 13:50:33.0     167   -979      5    994    995 170.3   0.3  34188  290.05 0854.35
2009/04/23 13:50:33.1     372   -980    -51   1049   1051 159.2  -2.8  34192  290.12 0854.35
2009/04/23 13:50:33.2     310   -923    -55    974    976 161.4  -3.3  34180  289.92 0854.35
2009/04/23 13:50:33.3     184   -823    -76    844    848 167.4  -5.2  34184  289.97 0854.35
2009/04/23 13:50:33.4     260   -811   -242    852    886 162.2 -15.9  34192  290.11 0854.38
2009/04/23 13:50:33.5     288   -807     48    858    860 160.3   3.2  34186  290.00 0854.38
2009/04/23 13:50:33.6     178   -805     11    825    826 167.5   0.8  34178  289.87 0854.38
2009/04/23 13:50:33.7     190   -823     23    845    846 167.0   1.6  34178  289.88 0854.38
2009/04/23 13:50:33.8     122   -546    120    560    573 167.3  12.1  34176  289.83 0854.38
2009/04/23 13:50:33.9     140   -682     16    697    698 168.3   1.4  34190  290.08 0854.38
2009/04/23 13:50:34.0     164   -684     10    704    705 166.5   0.9  34188  290.05 0854.38
2009/04/23 13:50:34.1     191   -644    -32    672    673 163.5  -2.8  34184  289.99 0854.38
2009/04/23 13:50:34.2     188   -566   -181    597    625 161.6 -16.9  34192  290.13 0854.38
2009/04/23 13:50:34.3     194   -482   -155    520    543 158.1 -16.6  34188  290.06 0854.38
2009/04/23 13:50:34.4      66   -671   -116    675    686 174.3  -9.8  34190  290.09 0854.38
2009/04/23 13:50:34.5      10   -678   -139    679    694 179.1 -11.6  34184  289.99 0854.38
2009/04/23 13:50:34.6     -79   -730   -289    735    789 186.2 -26.9  34180  289.91 0854.38
2009/04/23 13:50:34.7    -210   -518   -269    560    621 202.1 -31.7  34176  289.83 0854.38
2009/04/23 13:50:34.9     -36   -330   -251    332    416 186.3 -45.2  34188  290.04 0854.38
2009/04/23 13:50:35.0    -121   -158   -286    200    348 217.4 -66.2  34198  290.20 0854.38
2009/04/23 13:50:35.1    -117   -158   -192    197    275 216.5 -53.8  34190  290.09 0854.38
2009/04/23 13:50:35.2    -196   -294   -162    354    389 213.7 -30.8  34192  290.10 0854.38
2009/04/23 13:50:35.3    -116   -475    -19    490    491 193.8  -2.2  34184  289.98 0854.38
2009/04/23 13:50:35.4    -288   -348    -87    452    461 219.6 -10.9  34178  289.88 0854.38
2009/04/23 13:50:35.5    -204   -268   -120    337    358 217.3 -19.7  34174  289.81 0854.33
2009/04/23 13:50:35.6     -68   -168    134    182    226 202.1  39.9  34178  289.87 0854.33
2009/04/23 13:50:35.7     -16    -16    121     24    123 225.0  89.1  34190  290.08 0854.33
2009/04/23 13:50:35.8     367   -261    124    451    468 125.4  15.4  34180  289.90 0854.33
2009/04/23 13:50:35.9     437   -479    157    649    668 137.6  13.7  34184  289.99 0854.33
2009/04/23 13:50:36.0     564   -752    125    940    949 143.1   7.6  34170  289.74 0854.33
2009/04/23 13:50:36.1     479   -654    199    811    836 143.8  13.8  34172  289.77 0854.33
2009/04/23 13:50:36.2     281   -582      8    647    648 154.2   0.7  34172  289.79 0854.33
2009/04/23 13:50:36.3     244   -579    -49    629    632 157.2  -4.5  34178  289.87 0854.33
2009/04/23 13:50:36.4     305   -739    -26    800    801 157.6  -1.9  34176  289.83 0854.33
2009/04/23 13:50:36.5     298   -646     97    712    719 155.2   7.8  34178  289.86 0854.33
2009/04/23 13:50:36.6     253   -500    258    561    617 153.2  26.5  34174  289.81 0854.33
2009/04/23 13:50:36.7     200   -384     78    433    441 152.5  10.2  34172  289.78 0854.33
2009/04/23 13:50:36.8     136   -391     54    415    419 160.8   7.4  34186  290.00 0854.33
2009/04/23 13:50:36.9    -116   -276    -13    300    301 202.8  -2.6  34186  290.02 0854.33
2009/04/23 13:50:37.0     121   -446    177    463    495 164.8  22.0  34184  289.98 0854.33
2009/04/23 13:50:37.1      87   -792    150    797    812 173.7  10.7  34178  289.89 0854.33
2009/04/23 13:50:37.2    -266   -312   -140    411    435 220.4 -18.9  34186  290.00 0854.33
2009/04/23 13:50:37.3     118   -163   -118    202    233 144.2 -37.5  34192  290.11 0854.33
2009/04/23 13:50:37.4     299   -184    119    352    372 121.7  18.8  34186  290.01 0854.33
2009/04/23 13:50:37.5     381   -512    137    639    654 143.4  12.1  34192  290.11 0854.37
2009/04/23 13:50:37.6      24   -394    154    395    423 176.5  22.4  34194  290.14 0854.37
2009/04/23 13:50:37.7     -18   -604    142    605    622 181.8  13.2  34180  289.91 0854.37
2009/04/23 13:50:37.8     366   -572    301    680    743 147.4  25.3  34194  290.15 0854.37
2009/04/23 13:50:37.9     481   -548    122    730    741 138.7   9.5  34174  289.80 0854.37
2009/04/23 13:50:38.0     386   -520    -39    648    650 143.4  -3.5  34188  290.03 0854.37
2009/04/23 13:50:38.1     257   -447   -100    516    526 150.1 -11.0  34184  289.99 0854.37
2009/04/23 13:50:38.2     449   -365    -58    579    583 129.1  -5.8  34178  289.88 0854.37
2009/04/23 13:50:38.3     570   -368    -81    679    684 122.9  -6.9  34186  290.00 0854.37
2009/04/23 13:50:38.4     561   -416   -219    699    733 126.6 -17.4  34176  289.84 0854.37
2009/04/23 13:50:38.5     440   -180   -123    476    492 112.3 -14.5  34178  289.86 0854.24
2009/04/23 13:50:38.6     128   -104   -152    165    224 129.1 -52.3  34188  290.06 0854.24
2009/04/23 13:50:38.7      73      1    174     74    189  89.2  75.5  34186  290.02 0854.24
2009/04/23 13:50:38.8     -33    -60    204     69    215 209.0  81.2  34198  290.21 0854.24
2009/04/23 13:50:38.9       0    -31     70     32     76 180.9  73.1  34194  290.14 0854.24
2009/04/23 13:50:39.0     -41     31     24     52     57 307.8  27.1  34190  290.09 0854.24
2009/04/23 13:50:39.1     -86   -118    -65    147    160 216.0 -29.7  34196  290.19 0854.24
2009/04/23 13:50:39.2     -29   -319      0    321    322 185.3   0.0  34192  290.10 0854.24
2009/04/23 13:50:39.3     -11   -324    -80    325    335 182.0 -13.9  34192  290.10 0854.24
2009/04/23 13:50:39.4      39   -240   -189    244    308 170.7 -46.1  34192  290.10 0854.24
2009/04/23 13:50:39.5     -74     28   -195     80    210 290.8 -81.2  34192  290.11 0854.24
2009/04/23 13:50:39.6    -217    206   -200    300    360 313.6 -41.3  34188  290.06 0854.24
2009/04/23 13:50:39.7    -161     12   -196    162    254 274.4 -60.7  34194  290.14 0854.24
2009/04/23 13:50:39.8     108    -32   -215    113    242 106.8 -74.3  34196  290.18 0854.24
2009/04/23 13:50:39.9     327     63     71    334    342  79.1  12.1  34192  290.11 0854.24
2009/04/23 13:50:40.0      83     54    262    100    280  57.1  78.2  34200  290.26 0854.24
2009/04/23 13:50:40.1      26    137    158    140    211  10.7  54.0  34192  290.11 0854.24
2009/04/23 13:50:40.2     -34    248     95    251    268 352.0  21.7  34188  290.03 0854.24
2009/04/23 13:50:40.3    -440    132   -124    460    477 286.8 -15.2  34192  290.12 0854.24
2009/04/23 13:50:40.4    -447     75   -294    454    540 279.6 -40.3  34204  290.32 0854.24
2009/04/23 13:50:40.5    -192    402   -160    446    475 334.4 -19.8  34192  290.12 0854.26
2009/04/23 13:50:40.6    -224    156      8    274    275 304.9   1.8  34198  290.22 0854.26
2009/04/23 13:50:40.7    -287   -178    -33    338    340 238.2  -5.6  34202  290.30 0854.26
2009/04/23 13:50:40.8    -377   -317   -159    493    518 229.9 -23.0  34188  290.03 0854.26
2009/04/23 13:50:40.9    -441   -121   -224    458    509 254.6 -32.5  34188  290.06 0854.26
2009/04/23 13:50:41.0    -321     24    -88    322    335 274.3 -15.4  34204  290.32 0854.26
2009/04/23 13:50:41.1    -150     80   -258    171    309 298.2 -68.0  34200  290.26 0854.26
2009/04/23 13:50:41.2    -214     -2    -82    215    230 269.4 -26.1  34198  290.23 0854.26
2009/04/23 13:50:41.3    -241   -102   -216    262    339 246.9 -48.1  34192  290.10 0854.26
2009/04/23 13:50:41.4    -206   -142   -190    251    314 235.4 -45.5  34196  290.17 0854.26
2009/04/23 13:50:41.5    -190    -90   -252    211    328 244.6 -60.4  34196  290.19 0854.26
2009/04/23 13:50:41.6    -255    -77   -124    267    294 253.2 -31.4  34204  290.31 0854.26
2009/04/23 13:50:41.7    -176   -113    -97    210    231 237.4 -31.4  34204  290.31 0854.26
2009/04/23 13:50:41.8     240   -151    -88    284    297 122.2 -22.1  34194  290.15 0854.26
2009/04/23 13:50:41.9     138    -65    228    153    274 115.2  62.8  34204  290.32 0854.26
2009/04/23 13:50:42.0      70   -474   -133    480    499 171.5 -15.5  34198  290.20 0854.26
2009/04/23 13:50:42.1     182   -300   -211    352    410 148.7 -38.1  34198  290.20 0854.26
2009/04/23 13:50:42.2     -59   -313    -90    319    331 190.7 -20.3  34192  290.12 0854.26
2009/04/23 13:50:42.3     -50   -204    104    211    235 193.8  28.2  34194  290.16 0854.26
2009/04/23 13:50:42.4     235   -451     66    509    514 152.5   7.4  34192  290.10 0854.26
2009/04/23 13:50:42.5     464   -370     69    594    599 128.6   6.7  34196  290.17 0854.29
2009/04/23 13:50:42.6     390   -287     69    485    490 126.4   8.1  34182  289.96 0854.29
2009/04/23 13:50:42.7     397   -130    298    418    513 108.2  39.1  34168  289.71 0854.29
2009/04/23 13:50:42.8     -93     76    194    121    228 309.1  64.7  34202  290.28 0854.29
2009/04/23 13:50:42.9    -147    -71    308    164    348 244.2  69.8  34194  290.14 0854.29
2009/04/23 13:50:43.0      31   -173    358    176    398 169.8  71.9  34204  290.33 0854.29
2009/04/23 13:50:43.1     -64   -137    317    152    351 204.9  72.7  34200  290.24 0854.29
2009/04/23 13:50:43.2      19   -141    241    143    280 172.0  66.7  34200  290.24 0854.29
2009/04/23 13:50:43.3     -78   -244    249    257    357 197.8  49.2  34192  290.10 0854.29
2009/04/23 13:50:43.4     -61   -206    262    215    338 196.5  56.5  34194  290.14 0854.29
2009/04/23 13:50:43.5     -91   -169    212    193    286 208.3  53.2  34194  290.14 0854.29
2009/04/23 13:50:43.6     -76   -160    106    178    207 205.6  33.5  34196  290.18 0854.29
2009/04/23 13:50:43.7    -265   -218     40    344    347 230.6   6.7  34192  290.13 0854.29
2009/04/23 13:50:43.8    -407   -162     99    439    451 248.3  12.8  34184  289.99 0854.29
2009/04/23 13:50:43.9    -403   -191    209    447    493 244.6  27.0  34208  290.40 0854.29
2009/04/23 13:50:44.0    -343    -46    243    347    423 262.3  38.5  34192  290.10 0854.29
2009/04/23 13:50:44.1    -506    -30     25    507    508 266.5   2.9  34206  290.35 0854.29
2009/04/23 13:50:44.2    -565     22    198    566    600 272.2  19.3  34206  290.36 0854.29
2009/04/23 13:50:44.3    -505      7     16    506    507 270.8   1.9  34212  290.47 0854.29
2009/04/23 13:50:44.4    -323    107     73    341    349 288.5  12.1  34204  290.32 0854.29
2009/04/23 13:50:44.5    -491   -136     64    510    515 254.5   7.2  34206  290.35 0854.26
2009/04/23 13:50:44.6    -480   -123      0    496    497 255.6   0.0  34206  290.34 0854.26
2009/04/23 13:50:44.7    -497     29     14    498    499 273.4   1.7  34208  290.40 0854.26
2009/04/23 13:50:44.8    -364     33    -14    366    367 275.2  -2.2  34208  290.38 0854.26
2009/04/23 13:50:44.9    -441     89     69    450    456 281.5   8.8  34214  290.50 0854.26
2009/04/23 13:50:45.0    -336   -277    119    436    453 230.5  15.3  34218  290.56 0854.26
2009/04/23 13:50:45.1    -401   -314    169    510    538 232.0  18.4  34222  290.63 0854.26
2009/04/23 13:50:45.2    -462   -519    167    695    715 221.7  13.6  34192  290.10 0854.26
2009/04/23 13:50:45.3     -25   -543    354    544    649 182.7  36.2  34204  290.32 0854.26
2009/04/23 13:50:45.4     227   -480    362    531    642 154.7  37.7  34214  290.49 0854.26
2009/04/23 13:50:45.5     297   -360    303    467    556 140.5  36.0  34204  290.31 0854.26
2009/04/23 13:50:45.6     282   -353    362    452    579 141.4  42.8  34200  290.24 0854.26
2009/04/23 13:50:45.7     367   -665    290    760    813 151.1  22.0  34188  290.05 0854.26
2009/04/23 13:50:45.8     343   -700    273    780    827 153.9  19.3  34192  290.13 0854.26
2009/04/23 13:50:45.9     371   -698    301    791    846 152.0  22.0  34190  290.09 0854.26
2009/04/23 13:50:46.0     396   -775    356    871    940 152.9  23.5  34192  290.12 0854.26
2009/04/23 13:50:46.1     367   -802    319    882    939 155.4  19.9  34192  290.11 0854.26
2009/04/23 13:50:46.2     269   -931    194    970    990 163.9  11.3  34186  290.02 0854.26
2009/04/23 13:50:46.3     289   -754     24    808    809 159.0   1.7  34180  289.92 0854.26
2009/04/23 13:50:46.4     210   -663    154    696    713 162.4  12.5  34182  289.93 0854.26
2009/04/23 13:50:46.5     114   -506     68    519    524 167.2   7.5  34186  290.02 0854.21
2009/04/23 13:50:46.6    -379   -510    106    636    645 216.6   9.5  34198  290.21 0854.21
2009/04/23 13:50:46.7    -454   -451     45    641    643 225.2   4.0  34202  290.30 0854.21
2009/04/23 13:50:46.8    -556   -484   -220    738    771 229.0 -16.6  34196  290.19 0854.21
2009/04/23 13:50:46.9    -573   -477   -240    746    783 230.2 -22.9  34196  290.19 0854.21
2009/04/23 13:50:47.0    -560   -537   -149    777    792 226.2 -10.9  34190  290.08 0854.21
2009/04/23 13:50:47.1    -363   -377    -87    524    532 223.9  -9.5  34204  290.31 0854.21
2009/04/23 13:50:47.2    -102   -500    -73    511    517 191.6  -8.2  34196  290.17 0854.21
2009/04/23 13:50:47.3      66   -615      9    619    620 173.8   0.9  34194  290.16 0854.21
2009/04/23 13:50:47.4     -35   -457   -129    459    476 184.4 -20.4  34198  290.22 0854.21
2009/04/23 13:50:47.5     -25   -649   -181    650    674 182.2 -20.2  34198  290.21 0854.21
2009/04/23 13:50:47.6      59   -554   -167    558    582 173.9 -21.7  34200  290.25 0854.21
2009/04/23 13:50:47.7     191   -491    -77    527    533 158.7  -8.4  34200  290.24 0854.21
2009/04/23 13:50:47.8     -12   -526    -44    527    530 181.4  -4.9  34196  290.18 0854.21
2009/04/23 13:50:47.9     -49   -432      9    435    436 186.6   1.2  34198  290.22 0854.21
2009/04/23 13:50:48.0      22   -328     85    329    340 176.1  14.6  34192  290.13 0854.21
2009/04/23 13:50:48.1     183   -387    216    429    480 154.6  28.7  34188  290.04 0854.21
2009/04/23 13:50:48.2     -27   -436     57    437    441 183.6   7.5  34196  290.19 0854.21
2009/04/23 13:50:48.3     -18   -560    206    561    597 181.9  21.0  34196  290.19 0854.21
2009/04/23 13:50:48.4      91   -701    300    707    768 172.6  24.4  34184  289.99 0854.21
2009/04/23 13:50:48.5     -87   -850    -40    855    857 185.9  -2.7  34198  290.21 0854.24
2009/04/23 13:50:48.6    -153   -762    -98    778    785 191.4  -7.2  34196  290.19 0854.24
2009/04/23 13:50:48.7    -248   -720     -7    762    763 199.1  -0.6  34186  290.02 0854.24
2009/04/23 13:50:48.8    -148   -533     -2    554    555 195.5  -0.3  34192  290.13 0854.24
2009/04/23 13:50:48.9     -54   -385   -145    389    415 188.1 -25.8  34194  290.14 0854.24
2009/04/23 13:50:49.0    -181   -325     -5    373    374 209.2  -0.9  34196  290.18 0854.24
2009/04/23 13:50:49.1    -188   -449   -106    487    499 202.7 -12.4  34196  290.18 0854.24
2009/04/23 13:50:49.2    -163   -463   -173    491    520 199.4 -24.7  34192  290.12 0854.24
2009/04/23 13:50:49.3    -208   -426   -162    475    501 206.0 -23.8  34202  290.27 0854.24
2009/04/23 13:50:49.4    -200   -321   -128    379    401 212.0 -18.7  34194  290.16 0854.24
2009/04/23 13:50:49.5    -131   -405   -156    426    453 198.0 -25.4  34198  290.22 0854.24
2009/04/23 13:50:49.6    -149   -293   -211    329    390 207.0 -40.1  34196  290.18 0854.24
2009/04/23 13:50:49.7    -148   -328   -235    360    429 204.3 -40.7  34206  290.34 0854.24
2009/04/23 13:50:49.8    -155   -180   -275    238    363 220.8 -59.2  34202  290.27 0854.24
2009/04/23 13:50:49.9    -484   -114   -324    498    594 256.7 -40.4  34202  290.28 0854.24
2009/04/23 13:50:50.0    -335      0   -109    336    354 270.0 -18.1  34208  290.37 0854.24
2009/04/23 13:50:50.1    -323   -324   -171    458    488 224.9 -25.9  34210  290.42 0854.24
2009/04/23 13:50:50.2    -139   -303   -120    334    356 204.6 -19.8  34208  290.38 0854.24
2009/04/23 13:50:50.3    -322      3   -121    323    344 270.6 -25.9  34208  290.37 0854.24
2009/04/23 13:50:50.4    -245    -34   -170    248    300 262.0 -42.0  34210  290.41 0854.24
2009/04/23 13:50:50.5     -10   -136   -161    137    211 184.5 -59.8  34202  290.30 0854.29
2009/04/23 13:50:50.6      89    -79    -43    120    127 131.8 -24.4  34206  290.35 0854.29
2009/04/23 13:50:50.7      -8    -81     -8     82     83 186.2  -5.6  34206  290.35 0854.29
2009/04/23 13:50:50.8     161   -300    -35    341    343 151.7  -6.0  34202  290.30 0854.29
2009/04/23 13:50:50.9     166   -176    111    243    267 136.7  26.2  34204  290.31 0854.29
2009/04/23 13:50:51.0      83   -130    -61    155    166 147.4 -27.2  34204  290.33 0854.29
2009/04/23 13:50:51.1     -87    -83    -68    121    138 226.4 -35.8  34204  290.31 0854.29
2009/04/23 13:50:51.2    -159   -121    -40    201    206 232.7 -11.3  34212  290.45 0854.29
2009/04/23 13:50:51.3     -83   -191    -87    209    226 203.6 -28.2  34210  290.43 0854.29
2009/04/23 13:50:51.4     -32   -236     24    239    241 187.8   5.9  34204  290.32 0854.29
2009/04/23 13:50:51.5    -148   -305     32    340    342 205.9   5.4  34206  290.35 0854.29
2009/04/23 13:50:51.6     -19   -497    -27    498    499 182.3  -3.2  34196  290.18 0854.29
2009/04/23 13:50:51.7       0   -520    121    521    535 180.0  13.1  34198  290.23 0854.29
2009/04/23 13:50:51.8     121   -337    281    359    455 160.2  42.0  34206  290.34 0854.29
2009/04/23 13:50:51.9      83   -445    175    453    485 169.4  22.3  34192  290.10 0854.29
2009/04/23 13:50:52.0      53   -423    158    427    455 172.8  21.1  34196  290.19 0854.29
2009/04/23 13:50:52.1    -146   -532    139    552    570 195.4  14.2  34200  290.26 0854.29
2009/04/23 13:50:52.2    -181   -567    117    596    608 197.7  11.1  34196  290.17 0854.29
2009/04/23 13:50:52.3    -157   -455     99    482    493 199.1  11.7  34200  290.25 0854.29
2009/04/23 13:50:52.4    -196   -511     62    548    552 201.0   6.5  34194  290.14 0854.29
2009/04/23 13:50:52.5    -225   -595    148    637    655 200.7  13.1  34190  290.09 0854.32
2009/04/23 13:50:52.6    -117   -554    275    567    630 192.0  27.8  34202  290.27 0854.32
2009/04/23 13:50:52.7    -219   -464    165    514    540 205.3  17.8  34202  290.30 0854.32
2009/04/23 13:50:52.8    -336   -434     83    550    557 217.8   8.6  34212  290.45 0854.32
2009/04/23 13:50:52.9    -361   -481    304    602    674 216.9  28.9  34196  290.18 0854.32
2009/04/23 13:50:53.0     184   -300    309    353    469 148.5  45.7  34202  290.29 0854.32
2009/04/23 13:50:53.1     238   -337    217    413    466 144.7  30.0  34198  290.21 0854.32
2009/04/23 13:50:53.2     197   -345   -139    398    421 150.3 -24.3  34196  290.17 0854.32
2009/04/23 13:50:53.3     185   -422   -151    461    486 156.3 -18.2  34204  290.32 0854.32
2009/04/23 13:50:53.4     225   -347     28    414    415 147.0   3.9  34200  290.24 0854.32
2009/04/23 13:50:53.5     161   -367     -1    401    402 156.3  -0.3  34198  290.21 0854.32
2009/04/23 13:50:53.6     157   -472     86    498    506 161.6   9.9  34196  290.18 0854.32
2009/04/23 13:50:53.7      35   -507    307    509    594 176.0  34.0  34184  289.99 0854.32
2009/04/23 13:50:53.8     159   -283    234    325    400 150.6  39.2  34194  290.16 0854.32
2009/04/23 13:50:53.9     168   -514    336    541    636 161.8  34.9  34196  290.17 0854.32
2009/04/23 13:50:54.0      37   -598     29    600    601 176.4   2.8  34196  290.17 0854.32
2009/04/23 13:50:54.1     -58   -639   -167    642    664 185.2 -14.6  34194  290.16 0854.32
2009/04/23 13:50:54.2     -47   -480    -92    483    492 185.7 -10.8  34198  290.20 0854.32
2009/04/23 13:50:54.3      -7   -411   -114    412    428 181.1 -15.5  34200  290.26 0854.32
2009/04/23 13:50:54.4     153   -152    -45    217    222 134.8 -11.9  34202  290.28 0854.32
2009/04/23 13:50:54.5     197    -76    -66    212    223 111.1 -17.3  34204  290.31 0854.30
2009/04/23 13:50:54.6     331   -211    -93    393    405 122.6 -13.4  34198  290.20 0854.30
2009/04/23 13:50:54.7     299   -298    -48    423    426 134.9  -6.5  34196  290.19 0854.30
2009/04/23 13:50:54.8     264   -387   -119    469    485 145.7 -14.3  34202  290.29 0854.30
2009/04/23 13:50:54.9     245   -215   -311    327    451 131.3 -52.8  34194  290.16 0854.30
2009/04/23 13:50:55.0     205   -288   -108    354    370 144.6 -22.1  34198  290.23 0854.30
2009/04/23 13:50:55.1      -5   -303    -99    304    320 181.1 -18.1  34186  290.02 0854.30
2009/04/23 13:50:55.2      15   -352   -140    353    379 177.5 -27.3  34198  290.20 0854.30
2009/04/23 13:50:55.3     -41   -161    103    167    196 194.5  34.8  34196  290.19 0854.30
2009/04/23 13:50:55.4    -229   -214     -6    314    315 226.9  -1.2  34200  290.26 0854.30
2009/04/23 13:50:55.5    -181    -80   -153    199    251 246.0 -46.1  34196  290.17 0854.30
2009/04/23 13:50:55.6    -200    -49   -309    207    371 256.1 -67.5  34204  290.31 0854.30
2009/04/23 13:50:55.7     -83    -56      0    101    102 235.8  -0.3  34206  290.35 0854.30
2009/04/23 13:50:55.8     -65    -30     -5     72     73 244.6  -4.1  34204  290.33 0854.30
2009/04/23 13:50:55.9     -92    177    125    200    235 332.4  35.0  34210  290.41 0854.30
2009/04/23 13:50:56.0      40     68     16     80     82  30.7  11.6  34218  290.57 0854.30
2009/04/23 13:50:56.1     448   -265    -17    521    522 120.6  -1.9  34204  290.33 0854.30
2009/04/23 13:50:56.2     289   -342    187    449    486 139.8  24.1  34186  290.01 0854.30
2009/04/23 13:50:56.3     198   -537    408    573    703 159.7  39.0  34192  290.10 0854.30
2009/04/23 13:50:56.4     236   -618    350    662    748 159.1  30.2  34190  290.08 0854.30
2009/04/23 13:50:56.5     186   -731    146    755    770 165.7  11.0  34194  290.14 0854.36
2009/04/23 13:50:56.6     150   -813    226    827    858 169.5  15.3  34194  290.15 0854.36
2009/04/23 13:50:56.7      95   -753    203    759    786 172.8  15.0  34196  290.19 0854.36
2009/04/23 13:50:56.8      58   -714    247    717    759 175.3  19.1  34202  290.28 0854.36
2009/04/23 13:50:56.9      54   -648    340    651    734 175.2  29.8  34192  290.10 0854.36
2009/04/23 13:50:57.0      71   -569    345    574    669 172.8  33.7  34198  290.20 0854.36
2009/04/23 13:50:57.1     -31   -716     41    717    719 182.5   3.3  34192  290.13 0854.36
2009/04/23 13:50:57.2     -35   -583     60    585    589 183.5   5.9  34196  290.19 0854.36
2009/04/23 13:50:57.3     271   -475     35    547    549 150.3   3.7  34200  290.24 0854.36
2009/04/23 13:50:57.4     307   -548     96    629    637 150.7   8.7  34192  290.11 0854.36
2009/04/23 13:50:57.5     151   -544    260    565    621 164.4  26.5  34196  290.17 0854.36
2009/04/23 13:50:57.6     306   -340    150    458    482 138.0  18.1  34192  290.13 0854.36
2009/04/23 13:50:57.7      59   -290    110    297    316 168.4  21.3  34196  290.19 0854.36
2009/04/23 13:50:57.8     -59   -315      5    321    322 190.6   1.0  34198  290.20 0854.36
2009/04/23 13:50:57.9     -71   -301    -55    310    315 193.3 -10.1  34194  290.15 0854.36
2009/04/23 13:50:58.0      -2   -238    -34    239    242 180.7  -8.2  34202  290.27 0854.36
2009/04/23 13:50:58.1     -74    -94   -112    120    164 218.3 -52.6  34204  290.33 0854.36
2009/04/23 13:50:58.2      26    152    -59    155    165   9.7 -26.1  34208  290.40 0854.36
2009/04/23 13:50:58.3     150    104    -10    183    184  55.1  -3.3  34204  290.31 0854.36
2009/04/23 13:50:58.4     130    100    -16    165    166  52.5  -5.6  34208  290.38 0854.36
2009/04/23 13:50:58.5     136    137     70    194    206  44.9  20.9  34204  290.31 0854.36
2009/04/23 13:50:58.6      19    163     50    165    173   6.7  17.1  34202  290.28 0854.36
2009/04/23 13:50:58.7      28     73     57     79     97  20.9  39.7  34212  290.47 0854.36
2009/04/23 13:50:58.8      16     48     99     51    111  18.7  70.8  34220  290.58 0854.36
2009/04/23 13:50:58.9     -18      6    105     19    106 288.6  90.0  34222  290.64 0854.36
2009/04/23 13:50:59.0       0     38     27     39     47 359.1  37.6  34224  290.65 0854.36
2009/04/23 13:50:59.1      -8     -8    106     12    106 223.2  90.0  34222  290.62 0854.36
2009/04/23 13:50:59.2      -8     48    -13     49     51 350.2 -15.5  34224  290.65 0854.36
2009/04/23 13:50:59.3      65     -6     12     66     68  96.1  11.0  34222  290.62 0854.36
2009/04/23 13:50:59.4      15     31    140     35    144  27.2  85.9  34228  290.74 0854.36
2009/04/23 13:50:59.5     -50    -59    184     78    199 220.5  75.5  34224  290.67 0854.35
2009/04/23 13:50:59.6      16    -36    160     40    164 156.4  85.9  34220  290.60 0854.35
2009/04/23 13:50:59.7     172    138     60    221    230  51.1  15.2  34272  291.47 0854.35
2009/04/23 13:50:59.8     121    131     95    179    202  42.5  30.3  34262  291.30 0854.35
2009/04/23 13:50:59.9      85    110     81    140    161  37.8  32.7  34250  291.09 0854.35
2009/04/23 13:51:00.0      36     16     67     40     78  65.6  65.7  34264  291.33 0854.35
2009/04/23 13:51:00.1     102      1    150    103    181  89.2  62.4  34258  291.23 0854.35
2009/04/23 13:51:00.2      93    -18    145     95    173 101.5  64.1  34252  291.15 0854.35
2009/04/23 13:51:00.3      -2      7     35      8     35 341.3  89.0  34236  290.86 0854.35
2009/04/23 13:51:00.4    -192     64    -26    203    205 288.6  -7.5  34228  290.74 0854.35
2009/04/23 13:51:00.5    -127     84     11    153    154 303.3   4.4  34228  290.72 0854.35
2009/04/23 13:51:00.6    -145     44     66    152    165 286.9  24.9  34236  290.87 0854.35
2009/04/23 13:51:00.7    -121     57     82    134    157 295.4  34.4  34236  290.86 0854.35
2009/04/23 13:51:00.8    -102     45     98    112    148 294.0  45.8  34236  290.87 0854.35
2009/04/23 13:51:00.9    -162     89    118    185    219 298.8  35.5  34252  291.15 0854.35
2009/04/23 13:51:01.0    -130     77    133    152    201 300.7  45.8  34260  291.28 0854.35
2009/04/23 13:51:01.1    -132      0     84    133    157 270.0  35.2  34258  291.25 0854.35
2009/04/23 13:51:01.2       5    -15     68     16     69 161.7  88.0  34272  291.47 0854.35
2009/04/23 13:51:01.3      40    -34    145     53    154 130.4  79.7  34284  291.67 0854.35
2009/04/23 13:51:01.4     226      3    248    227    336  89.0  52.9  34256  291.21 0854.35
2009/04/23 13:51:01.5     228     90    244    246    346  68.3  50.1  34242  290.97 0854.31
2009/04/23 13:51:01.6     311     92    228    325    397  73.5  38.5  34234  290.83 0854.31
2009/04/23 13:51:01.7     268     92    211    284    353  70.9  40.4  34258  291.23 0854.31
2009/04/23 13:51:01.8     165     55    206    175    270  71.4  55.6  34322  292.31 0854.31
2009/04/23 13:51:01.9      84    -11    164     85    184  97.5  70.6  34312  292.15 0854.31
2009/04/23 13:51:02.0     114      7    151    115    189  86.1  59.0  34286  291.72 0854.31
2009/04/23 13:51:02.1      51     31    181     60    190  58.5  80.7  34270  291.45 0854.31
2009/04/23 13:51:02.2      20     42    174     47    180  25.4  84.9  34260  291.28 0854.31
2009/04/23 13:51:02.3     120     28    208    124    242  76.8  66.4  34264  291.33 0854.31
2009/04/23 13:51:02.4     123    106    211    163    266  49.3  58.5  34266  291.36 0854.31
2009/04/23 13:51:02.5     148    143    183    207    276  46.0  45.9  34286  291.72 0854.31
2009/04/23 13:51:02.7      88     63    175    109    206  54.5  64.9  34276  291.54 0854.31
2009/04/23 13:51:02.8     145    -12    123    146    190  94.8  44.1  34280  291.62 0854.31
2009/04/23 13:51:02.9      31     -5    105     32    109  99.7  82.3  34324  292.37 0854.31
2009/04/23 13:51:03.0     -48   -124     94    134    163 201.4  38.4  34322  292.32 0854.31
2009/04/23 13:51:03.1       0   -180    153    181    237 180.0  44.8  34318  292.25 0854.31
2009/04/23 13:51:03.2      16   -206    184    207    276 175.5  46.2  34322  292.31 0854.31
2009/04/23 13:51:03.3      66   -139    197    154    250 154.6  58.2  34338  292.59 0854.31
2009/04/23 13:51:03.4     126     38    198    132    237  73.1  63.2  34336  292.56 0854.31
2009/04/23 13:51:03.5      81     51    197     97    219  57.6  72.1  34282  291.66 0854.31
2009/04/23 13:51:03.6     125      0    169    126    210  90.0  59.8  34268  291.40 0854.34
2009/04/23 13:51:03.7     173     42    182    179    255  76.3  50.4  34318  292.24 0854.34
2009/04/23 13:51:03.8     129     67    184    146    234  62.5  57.5  34296  291.88 0854.34
2009/04/23 13:51:03.9     161    103    174    192    259  57.5  47.0  34286  291.70 0854.34
2009/04/23 13:51:04.0     276     74    218    286    359  74.9  41.2  34306  292.05 0854.34
2009/04/23 13:51:04.1     220    165    194    276    337  53.1  38.7  34308  292.07 0854.34
2009/04/23 13:51:04.2      33     90    225     97    245  20.5  75.0  34296  291.89 0854.34
2009/04/23 13:51:04.3     120    107    204    161    259  48.2  57.7  34276  291.55 0854.34
2009/04/23 13:51:04.4     207     88    209    226    307  66.9  47.9  34298  291.92 0854.34
2009/04/23 13:51:04.5     257    193    222    322    391  53.1  38.0  34276  291.54 0854.34
2009/04/23 13:51:04.6     461    222    240    512    565  64.3  27.1  34278  291.59 0854.34
2009/04/23 13:51:04.7     408     71    202    415    461  80.1  27.8  34300  291.94 0854.34
2009/04/23 13:51:04.8     458    100    190    469    506  77.6  23.2  34276  291.54 0854.34
2009/04/23 13:51:04.9     330    115    184    350    395  70.8  30.1  34292  291.83 0854.34
2009/04/23 13:51:05.0     224     85     61    240    248  69.2  14.3  34284  291.67 0854.34
2009/04/23 13:51:05.1      38     54     44     67     80  35.2  36.5  34284  291.69 0854.34
2009/04/23 13:51:05.2       5    -35     74     36     82 172.0  72.4  34302  291.98 0854.34
2009/04/23 13:51:05.3       0    107     89    108    139 359.6  43.7  34292  291.83 0854.34
2009/04/23 13:51:05.4       2   -155    -10    156    157 179.1  -3.9  34296  291.89 0854.34
2009/04/23 13:51:05.5      73   -154     18    171    172 154.4   6.1  34304  292.01 0854.34
2009/04/23 13:51:05.6      13   -167      8    168    169 175.5   2.9  34294  291.84 0854.29
2009/04/23 13:51:05.7    -160   -140    128    213    248 228.9  34.0  34306  292.06 0854.29
2009/04/23 13:51:05.8     -86   -192    173    211    272 204.1  43.7  34308  292.07 0854.29
2009/04/23 13:51:05.9     -91   -218    131    237    270 202.7  31.4  34294  291.84 0854.29
2009/04/23 13:51:06.0    -114   -285     -6    308    309 201.9  -1.2  34288  291.73 0854.29
2009/04/23 13:51:06.1    -166   -292    163    337    374 209.6  27.7  34288  291.73 0854.29
2009/04/23 13:51:06.2     -65   -345    171    352    391 190.7  27.9  34268  291.42 0854.29
2009/04/23 13:51:06.3    -144   -329    196    360    409 203.7  31.3  34284  291.69 0854.29
2009/04/23 13:51:06.4    -191   -323    187    376    419 210.6  28.2  34266  291.36 0854.29
2009/04/23 13:51:06.5    -212   -324    163    388    420 213.2  24.2  34228  290.73 0854.29
2009/04/23 13:51:06.6    -142   -247    239    286    372 209.9  44.0  34234  290.83 0854.29
2009/04/23 13:51:06.7    -103   -152    208    184    277 214.1  54.2  34226  290.70 0854.29
2009/04/23 13:51:06.8    -133   -136    107    191    218 224.5  31.4  34232  290.79 0854.29
2009/04/23 13:51:06.9      51   -154     87    163    184 161.7  30.6  34224  290.65 0854.29
2009/04/23 13:51:07.0      71   -185     49    199    205 158.8  13.9  34220  290.60 0854.29
2009/04/23 13:51:07.1       2   -163    130    164    209 179.3  42.7  34222  290.64 0854.29
2009/04/23 13:51:07.2     116   -155     30    194    197 143.3   8.8  34220  290.60 0854.29
2009/04/23 13:51:07.3     256   -123     34    285    288 115.8   6.9  34216  290.53 0854.29
2009/04/23 13:51:07.4     200   -176    136    267    299 131.3  29.2  34220  290.58 0854.29
2009/04/23 13:51:07.5     233    -80    121    247    275 109.1  28.2  34220  290.58 0854.29
2009/04/23 13:51:07.6     270   -169    143    319    349 122.0  25.9  34212  290.47 0854.26
2009/04/23 13:51:07.7     207   -182    183    276    331 131.3  36.5  34218  290.54 0854.26
2009/04/23 13:51:07.8      32   -223    -71    226    237 171.8 -17.5  34210  290.42 0854.26
2009/04/23 13:51:07.9     175   -296     94    345    358 149.4  15.3  34204  290.32 0854.26
2009/04/23 13:51:08.0      14   -194    115    195    226 175.6  33.5  34212  290.47 0854.26
2009/04/23 13:51:08.1      43   -318    230    321    394 172.2  39.1  34208  290.40 0854.26
2009/04/23 13:51:08.2     133   -445     38    465    467 163.3   4.7  34204  290.32 0854.26
2009/04/23 13:51:08.3     189   -382    200    427    471 153.7  26.9  34204  290.33 0854.26
2009/04/23 13:51:08.4     151   -377    188    407    448 158.2  26.5  34202  290.29 0854.26
2009/04/23 13:51:08.5     228   -325    187    398    439 144.9  27.1  34200  290.24 0854.26
2009/04/23 13:51:08.6     105   -450    195    463    502 166.9  24.2  34202  290.29 0854.26
2009/04/23 13:51:08.7      33   -433    269    435    511 175.5  34.8  34202  290.30 0854.26
2009/04/23 13:51:08.8      -5   -376    308    377    486 180.9  43.5  34202  290.29 0854.26
2009/04/23 13:51:08.9      70   -440    338    446    559 170.9  41.1  34200  290.24 0854.26
2009/04/23 13:51:09.0     128   -428    364    447    576 163.3  43.4  34202  290.30 0854.26
2009/04/23 13:51:09.1     119   -529    288    543    614 167.3  30.2  34206  290.34 0854.26
2009/04/23 13:51:09.2      -4   -468    167    469    497 180.5  20.4  34202  290.30 0854.26
2009/04/23 13:51:09.3     129   -456     66    474    479 164.2   8.0  34206  290.35 0854.26
2009/04/23 13:51:09.4     206   -349     48    406    409 149.4   6.9  34204  290.33 0854.26
2009/04/23 13:51:09.5     149   -270      4    309    310 151.0   0.8  34208  290.37 0854.26
2009/04/23 13:51:09.6     253   -287     24    383    384 138.6   3.7  34206  290.35 0854.30
2009/04/23 13:51:09.7     298   -279    109    409    424 133.1  14.9  34206  290.36 0854.30
2009/04/23 13:51:09.8     226   -278    126    359    380 140.8  20.0  34208  290.40 0854.30
2009/04/23 13:51:09.9      79   -318    178    328    373 165.9  30.9  34210  290.43 0854.30
2009/04/23 13:51:10.0     164   -258     66    306    314 147.5  12.2  34210  290.41 0854.30
2009/04/23 13:51:10.1     155   -211     32    262    265 143.7   7.1  34210  290.41 0854.30
2009/04/23 13:51:10.2     148   -249     -1    290    291 149.3  -0.3  34208  290.39 0854.30
2009/04/23 13:51:10.3     206   -157    -71    260    270 127.3 -15.4  34204  290.32 0854.30
2009/04/23 13:51:10.4     260   -152     14    302    303 120.2   2.8  34208  290.39 0854.30
2009/04/23 13:51:10.5     380   -194   -101    427    439 117.1 -13.4  34208  290.38 0854.30
2009/04/23 13:51:10.6     442   -192    -26    483    484 113.5  -3.2  34210  290.42 0854.30
2009/04/23 13:51:10.7     418   -180      8    456    457 113.3   1.1  34210  290.43 0854.30
2009/04/23 13:51:10.8     432   -160    120    461    477 110.4  14.7  34208  290.39 0854.30
2009/04/23 13:51:10.9     425   -187    191    465    502 113.7  23.6  34212  290.44 0854.30
2009/04/23 13:51:11.0     364   -149    244    394    463 112.3  34.9  34208  290.38 0854.30
2009/04/23 13:51:11.1     520   -223    171    566    592 113.2  16.8  34212  290.44 0854.30
2009/04/23 13:51:11.2     315   -348    118    470    485 137.9  14.2  34208  290.39 0854.30
2009/04/23 13:51:11.3     232   -231     21    328    329 134.9   3.8  34202  290.30 0854.30
2009/04/23 13:51:11.4     301   -154      5    339    340 117.1   0.9  34206  290.35 0854.30
2009/04/23 13:51:11.5     425   -155      0    453    454 110.1   0.0  34214  290.50 0854.30
2009/04/23 13:51:11.6     116   -129    -34    174    178 137.9 -11.1  34206  290.36 0854.31
2009/04/23 13:51:11.7     -83   -264    137    277    309 197.6  28.2  34210  290.41 0854.31
2009/04/23 13:51:11.8      22   -227    323    229    395 174.4  61.3  34218  290.54 0854.31
2009/04/23 13:51:11.9     156   -329    260    365    448 154.7  38.8  34214  290.48 0854.31
2009/04/23 13:51:12.0       4   -193    251    194    317 178.6  58.6  34214  290.49 0854.31
2009/04/23 13:51:12.1      50     48      9     70     71  45.9   8.0  34212  290.45 0854.31
2009/04/23 13:51:12.2    -141    -77   -165    161    230 241.1 -54.8  34216  290.52 0854.31
2009/04/23 13:51:12.3    -116   -102   -211    155    261 228.7 -64.9  34214  290.48 0854.31
2009/04/23 13:51:12.4    -110    -62   -251    127    281 240.7 -75.4  34214  290.48 0854.31
2009/04/23 13:51:12.5    -130    -91   -188    160    246 234.9 -59.8  34216  290.52 0854.31
2009/04/23 13:51:12.6     -77   -170   -152    187    240 204.3 -47.7  34212  290.47 0854.31
2009/04/23 13:51:12.7     -20   -146   -117    148    188 188.0 -46.8  34212  290.47 0854.31
2009/04/23 13:51:12.8     107    -30    -24    112    115 105.9 -12.4  34210  290.43 0854.31
2009/04/23 13:51:12.9     255    -63     30    263    265 104.1   6.7  34214  290.48 0854.31
2009/04/23 13:51:13.0     289    -30    -20    291    292  96.1  -4.1  34212  290.46 0854.31
2009/04/23 13:51:13.1     208   -116    157    239    285 119.3  36.5  34212  290.46 0854.31
2009/04/23 13:51:13.2     229   -104    238    252    346 114.4  48.2  34206  290.36 0854.31
2009/04/23 13:51:13.3     207   -208    281    294    406 135.2  48.7  34210  290.43 0854.31
2009/04/23 13:51:13.4     308   -190    338    363    495 121.7  47.9  34216  290.51 0854.31
2009/04/23 13:51:13.5     396   -130    105    417    431 108.2  14.2  34210  290.43 0854.31
2009/04/23 13:51:13.6     222   -158   -131    273    302 125.5 -31.7  34204  290.31 0854.29
2009/04/23 13:51:13.7     243   -380   -110    452    466 147.4 -13.7  34204  290.31 0854.29
2009/04/23 13:51:13.8     219   -287     99    362    376 142.6  15.3  34212  290.45 0854.29
2009/04/23 13:51:13.9     252   -432    163    501    527 149.8  18.0  34202  290.27 0854.29
2009/04/23 13:51:14.0     174   -433    212    467    512 158.1  26.2  34202  290.30 0854.29
2009/04/23 13:51:14.1     176   -419    171    455    486 157.2  21.5  34202  290.30 0854.29
2009/04/23 13:51:14.2      96   -427    158    438    465 167.2  20.7  34204  290.31 0854.29
2009/04/23 13:51:14.3     180   -454     92    489    498 158.3  10.7  34206  290.35 0854.29
2009/04/23 13:51:14.4     101   -449    134    461    481 167.3  16.3  34202  290.29 0854.29
2009/04/23 13:51:14.5     187   -380    176    424    459 153.7  23.9  34206  290.34 0854.29
2009/04/23 13:51:14.6     108   -492    264    504    568 167.6  29.9  34212  290.45 0854.29
2009/04/23 13:51:14.7     125   -508    158    524    548 166.1  16.8  34202  290.28 0854.29
2009/04/23 13:51:14.8     185   -512    139    545    563 160.1  14.3  34202  290.30 0854.29
2009/04/23 13:51:14.9     189   -470    148    507    529 158.1  16.3  34204  290.33 0854.29
2009/04/23 13:51:15.0     118   -411    104    428    441 164.0  13.7  34204  290.33 0854.29
2009/04/23 13:51:15.1     159   -388     50    420    424 157.7   6.9  34206  290.34 0854.29
2009/04/23 13:51:15.2     245   -504     83    561    568 154.0   8.5  34204  290.31 0854.29
2009/04/23 13:51:15.3     189   -482    179    518    549 158.6  19.1  34202  290.28 0854.29
2009/04/23 13:51:15.4     259   -545    241    604    650 154.5  23.0  34200  290.26 0854.29
2009/04/23 13:51:15.5     294   -456    287    543    614 147.2  30.2  34204  290.31 0854.29
2009/04/23 13:51:15.6     300   -268    165    403    435 131.7  23.6  34196  290.19 0854.31
2009/04/23 13:51:15.7     209   -173     95    272    288 129.6  20.0  34208  290.37 0854.31
2009/04/23 13:51:15.8     183   -221    151    288    325 140.4  29.8  34208  290.39 0854.31
2009/04/23 13:51:15.9      90   -162    131    186    227 151.0  38.6  34208  290.40 0854.31
2009/04/23 13:51:16.0     302   -335    101    452    464 138.0  12.6  34208  290.39 0854.31
2009/04/23 13:51:16.1      39   -359    237    362    432 173.7  36.4  34206  290.36 0854.31
2009/04/23 13:51:16.2     -63   -188    174    199    264 198.5  45.6  34208  290.37 0854.31
2009/04/23 13:51:16.3     291   -299    269    418    497 135.8  35.6  34208  290.39 0854.31
2009/04/23 13:51:16.4     440   -398    153    594    614 132.2  14.5  34212  290.44 0854.31
2009/04/23 13:51:16.5     259   -408    300    484    569 147.6  34.8  34204  290.33 0854.31
2009/04/23 13:51:16.6     342   -363    108    499    511 136.7  12.3  34204  290.32 0854.31
2009/04/23 13:51:16.7     121   -400    321    419    527 163.1  41.3  34212  290.47 0854.31
2009/04/23 13:51:16.8      30   -486    297    487    570 176.4  34.4  34212  290.46 0854.31
2009/04/23 13:51:16.9      30   -426    177    428    463 175.9  23.7  34208  290.39 0854.31
2009/04/23 13:51:17.0      98   -419    124    431    449 166.8  16.1  34202  290.29 0854.31
2009/04/23 13:51:17.1     353   -326    160    481    508 132.7  18.5  34208  290.37 0854.31
2009/04/23 13:51:17.2     451   -176    -40    485    487 111.3  -4.8  34210  290.42 0854.31
2009/04/23 13:51:17.3     499   -241   -189    555    586 115.8 -23.9  34226  290.68 0854.31
2009/04/23 13:51:17.4     581   -378   -102    694    702 123.1  -8.4  34212  290.44 0854.31
2009/04/23 13:51:17.5     387   -331    -19    510    511 130.6  -2.2  34204  290.32 0854.31
2009/04/23 13:51:17.6     302   -298     47    425    428 134.6   6.4  34200  290.26 0854.34
2009/04/23 13:51:17.7      85   -362    187    372    416 166.8  28.7  34214  290.48 0854.34
2009/04/23 13:51:17.8     111   -598    208    609    644 169.4  18.9  34214  290.48 0854.34
2009/04/23 13:51:17.9       3   -594    216    595    632 179.6  20.8  34212  290.45 0854.34
2009/04/23 13:51:18.0     -88   -457    181    466    499 191.0  22.4  34216  290.52 0854.34
2009/04/23 13:51:18.1     187   -594    225    623    663 162.5  19.9  34212  290.45 0854.34
2009/04/23 13:51:18.2     234   -467    264    523    585 153.4  28.8  34204  290.33 0854.34
2009/04/23 13:51:18.3     360   -339    285    495    571 133.3  32.4  34212  290.45 0854.34
2009/04/23 13:51:18.4     229   -572    223    617    657 158.2  19.9  34204  290.33 0854.34
2009/04/23 13:51:18.5     152   -474    160    498    524 162.2  17.8  34208  290.40 0854.34
2009/04/23 13:51:18.6      69   -352     84    359    369 168.8  13.2  34210  290.43 0854.34
2009/04/23 13:51:18.7     128   -376     95    398    410 161.2  13.5  34210  290.43 0854.34
2009/04/23 13:51:18.8     138   -271     11    305    306 153.0   2.1  34214  290.49 0854.34
2009/04/23 13:51:18.9     114   -160    -60    197    207 144.6 -17.0  34214  290.48 0854.34
2009/04/23 13:51:19.0     141   -221     17    263    264 147.5   3.8  34212  290.44 0854.34
2009/04/23 13:51:19.1     207   -153     20    258    259 126.6   4.6  34204  290.32 0854.34
2009/04/23 13:51:19.2     317   -118    -12    339    340 110.4  -2.1  34212  290.47 0854.34
2009/04/23 13:51:19.3     286    -66     95    294    310 103.2  18.0  34212  290.44 0854.34
2009/04/23 13:51:19.4      51   -139     40    149    155 159.9  15.2  34212  290.45 0854.34
2009/04/23 13:51:19.5     -10   -107     46    108    117 185.3  24.1  34216  290.53 0854.34
2009/04/23 13:51:19.6      30    -91    109     97    145 161.5  53.7  34214  290.50 0854.27
2009/04/23 13:51:19.7      50    -98     20    111    113 152.8  10.6  34210  290.43 0854.27
2009/04/23 13:51:19.8     140   -137    -23    197    199 134.4  -6.7  34208  290.38 0854.27
2009/04/23 13:51:19.9     170   -182     49    250    255 137.0  11.1  34216  290.51 0854.27
2009/04/23 13:51:20.0     192   -174    -42    260    264 132.2  -9.3  34222  290.63 0854.27
2009/04/23 13:51:20.1     366   -126    -42    388    391 109.1  -6.3  34218  290.55 0854.27
2009/04/23 13:51:20.2     310    -33     60    312    318  96.1  11.0  34212  290.46 0854.27
2009/04/23 13:51:20.3     108     15    153    110    188  82.1  60.8  34220  290.58 0854.27
2009/04/23 13:51:20.4     158    -18    108    160    193  96.6  37.0  34216  290.53 0854.27
2009/04/23 13:51:20.5     190    -62    145    200    247 108.2  39.5  34214  290.49 0854.27
2009/04/23 13:51:20.6     294   -125     56    320    326 113.1  10.0  34218  290.54 0854.19
2009/04/23 13:51:20.7     319    -89     71    332    340 105.7  12.2  34214  290.49 0854.19
2009/04/23 13:51:20.8     270    -42     69    274    283  99.0  14.3  34214  290.49 0854.19
2009/04/23 13:51:20.9     223    -16    108    224    248  94.3  27.4  34218  290.54 0854.19
2009/04/23 13:51:21.0     205    -38     94    209    229 100.6  25.9  34218  290.55 0854.19
2009/04/23 13:51:21.1     115    -41    118    123    170 109.9  49.2  34214  290.50 0854.19
2009/04/23 13:51:21.2      61      8     98     62    115  82.1  64.7  34226  290.69 0854.19
2009/04/23 13:51:21.3      47     30     74     56     92  57.5  58.5  34234  290.82 0854.19
2009/04/23 13:51:21.4       0     45     55     46     71   0.9  56.3  34222  290.64 0854.19
2009/04/23 13:51:21.5     -64     43     32     78     84 304.2  23.0  34220  290.58 0854.19
2009/04/23 13:51:21.6      26     31     32     41     52  39.7  42.7  34220  290.60 0854.19
2009/04/23 13:51:21.7      20     76     68     79    104  15.1  45.4  34220  290.58 0854.19
2009/04/23 13:51:21.8      11    147     71    148    164   4.4  27.4  34222  290.64 0854.19
2009/04/23 13:51:21.9      -2    142     72    143    160 359.1  28.7  34222  290.64 0854.19
2009/04/23 13:51:22.0      52    106    115    119    165  26.3  49.2  34228  290.72 0854.19
2009/04/23 13:51:22.1     124    121     92    174    196  45.6  30.1  34214  290.50 0854.19
2009/04/23 13:51:22.2     133    111     87    174    194  50.4  28.2  34216  290.52 0854.19
2009/04/23 13:51:22.3     123    123     94    174    197  45.0  30.8  34214  290.50 0854.19
2009/04/23 13:51:22.4      83    175     46    194    200  25.4  13.5  34224  290.67 0854.19
2009/04/23 13:51:22.5     120    224    -23    255    257  28.3  -5.2  34260  291.26 0854.19
2009/04/23 13:51:22.6     158    186     58    245    252  40.3  13.5  34236  290.87 0854.24
2009/04/23 13:51:22.7      78    219    102    233    254  19.8  25.1  34268  291.39 0854.24
2009/04/23 13:51:22.8      94    246    106    264    284  21.0  23.0  34246  291.04 0854.24
2009/04/23 13:51:22.9      33    235    114    238    263   8.1  27.3  34252  291.12 0854.24
2009/04/23 13:51:23.0      31    231    103    234    255   7.8  25.2  34242  290.97 0854.24
2009/04/23 13:51:23.1      16    206     38    207    211   4.5  10.6  34234  290.82 0854.24
2009/04/23 13:51:23.2     110    172     61    205    214  32.6  16.6  34226  290.70 0854.24
2009/04/23 13:51:23.3     295    176    149    344    374  59.1  25.0  34288  291.74 0854.24
2009/04/23 13:51:23.4     298     60    167    304    346  78.5  31.3  34278  291.56 0854.24
2009/04/23 13:51:23.5     260     27    202    262    330  83.9  41.4  34286  291.72 0854.24
2009/04/23 13:51:23.6     161     46    214    168    272  74.1  57.9  34240  290.92 0854.24
2009/04/23 13:51:23.7      23    -35    181     42    185 146.6  87.5  34248  291.08 0854.24
2009/04/23 13:51:23.8      18     10    192     21    193  59.3  90.0  34244  290.99 0854.24
2009/04/23 13:51:23.9     102     19    217    104    240  79.0  72.8  34238  290.91 0854.24
2009/04/23 13:51:24.0      58     58    176     83    194  45.0  73.1  34280  291.60 0854.24
2009/04/23 13:51:24.1     -86    106    198    137    240 320.8  62.1  34328  292.44 0854.24
2009/04/23 13:51:24.2     199     48    178    205    271  76.3  45.4  34248  291.05 0854.24
2009/04/23 13:51:24.3     106     82    158    135    207  52.2  55.4  34244  290.99 0854.24
2009/04/23 13:51:24.4      36    103    166    110    199  19.2  63.4  34248  291.08 0854.24
2009/04/23 13:51:24.5     -42     64     94     77    121 326.6  56.4  34264  291.35 0854.24
2009/04/23 13:51:24.6     -53     53    158     76    175 314.9  72.7  34282  291.64 0854.27
2009/04/23 13:51:24.7     -42    105    146    114    185 338.2  58.2  34282  291.64 0854.27
2009/04/23 13:51:24.8      57    -41    135     71    152 125.9  70.4  34264  291.33 0854.27
2009/04/23 13:51:24.9     178    -52    160    186    245 106.4  45.1  34242  290.96 0854.27
2009/04/23 13:51:25.0     208    -29    215    211    301  98.1  50.4  34246  291.02 0854.27
2009/04/23 13:51:25.1     216    -74    164    229    281 109.1  39.1  34248  291.05 0854.27
2009/04/23 13:51:25.2      89    -92    149    129    197 135.9  54.6  34236  290.86 0854.27
2009/04/23 13:51:25.3       1    -80     98     81    127 179.1  56.3  34238  290.91 0854.27
2009/04/23 13:51:25.4       0    -66    106     67    125 180.0  64.7  34242  290.96 0854.27
2009/04/23 13:51:25.5     138   -136    238    194    307 134.6  56.4  34228  290.71 0854.27
2009/04/23 13:51:25.6      18   -236    216    237    320 175.5  47.1  34224  290.65 0854.27
2009/04/23 13:51:25.7     -46   -294    283    298    410 188.9  48.2  34218  290.57 0854.27
2009/04/23 13:51:25.8     -22   -288    225    289    366 184.5  41.9  34218  290.54 0854.27
2009/04/23 13:51:25.9       4   -265    215    266    342 179.1  43.3  34220  290.58 0854.27
2009/04/23 13:51:26.0      46   -173    160    179    240 165.1  46.4  34224  290.65 0854.27
2009/04/23 13:51:26.1     119   -314    213    336    397 159.2  35.5  34220  290.59 0854.27
2009/04/23 13:51:26.2       7   -241    199    242    313 178.2  43.6  34224  290.66 0854.27
2009/04/23 13:51:26.3      43   -308     61    312    319 172.0  11.1  34234  290.83 0854.27
2009/04/23 13:51:26.4     -37   -297    -54    300    305 187.2 -10.3  34232  290.80 0854.27
2009/04/23 13:51:26.5     -67   -247     22    256    258 195.2   5.0  34230  290.75 0854.27
2009/04/23 13:51:26.6      58   -238     27    246    248 166.2   6.5  34230  290.75 0854.27
2009/04/23 13:51:26.7      11   -314    -94    315    329 177.9 -16.7  34224  290.65 0854.27
2009/04/23 13:51:26.8     -30   -253      0    255    256 186.9   0.2  34228  290.71 0854.27
2009/04/23 13:51:26.9     -93   -282     65    298    306 198.3  12.4  34222  290.63 0854.27
2009/04/23 13:51:27.0     -91   -268    -46    284    288 198.7  -9.4  34226  290.70 0854.27
2009/04/23 13:51:27.1       2   -277   -178    278    330 179.5 -40.0  34228  290.73 0854.27
2009/04/23 13:51:27.2     -42   -187   -247    192    312 192.9 -62.7  34232  290.80 0854.27
2009/04/23 13:51:27.3    -172   -222   -171    281    328 217.8 -38.8  34232  290.78 0854.27
2009/04/23 13:51:27.4    -220   -144   -124    264    291 236.7 -31.5  34234  290.82 0854.27
2009/04/23 13:51:27.5    -209   -188    -95    282    297 228.0 -23.3  34236  290.85 0854.27
2009/04/23 13:51:27.6    -220   -161    -81    273    285 233.8 -16.6  34236  290.87 0854.27
2009/04/23 13:51:27.7    -210   -105    -78    235    247 243.4 -23.8  34244  290.99 0854.27
2009/04/23 13:51:27.8    -267    -71    -93    277    293 255.0 -18.7  34252  291.12 0854.27
2009/04/23 13:51:27.9    -189    -67    -70    201    212 250.5 -23.8  34250  291.09 0854.27
2009/04/23 13:51:28.0    -209    -66    -97    220    240 252.5 -29.6  34248  291.07 0854.27
2009/04/23 13:51:28.1    -211    -91   -111    230    255 246.7 -31.7  34242  290.97 0854.27
2009/04/23 13:51:28.2    -329   -200   -106    386    401 238.7 -15.4  34248  291.08 0854.27
2009/04/23 13:51:28.3    -229   -109   -117    254    279 244.5 -30.8  34236  290.85 0854.27
2009/04/23 13:51:28.4    -175    -80   -100    193    217 245.4 -33.9  34236  290.87 0854.27
2009/04/23 13:51:28.5    -196    -74   -117    210    240 249.2 -35.8  34246  291.03 0854.27
2009/04/23 13:51:28.6    -183    -91    -84    205    221 243.4 -27.5  34248  291.06 0854.26
2009/04/23 13:51:28.7    -198    -59    -70    207    219 253.2 -18.9  34246  291.04 0854.26
2009/04/23 13:51:28.8    -119    -81    -88    145    169 235.8 -38.6  34242  290.96 0854.26
2009/04/23 13:51:28.9     -76   -119    -71    142    158 212.6 -32.9  34250  291.09 0854.26
2009/04/23 13:51:29.0    -161      4    -94    162    187 271.7 -37.3  34260  291.28 0854.26
2009/04/23 13:51:29.1    -187     14    -52    188    196 274.4 -15.5  34260  291.28 0854.26
2009/04/23 13:51:29.2     -72     19    -63     75     97 285.0 -48.7  34268  291.40 0854.26
2009/04/23 13:51:29.3     -33    -19    -33     39     51 239.3 -49.2  34266  291.38 0854.26
2009/04/23 13:51:29.4      -8    -56      0     57     58 188.9   0.8  34264  291.35 0854.26
2009/04/23 13:51:29.5     -52   -201     -7    208    209 194.7  -2.1  34254  291.16 0854.26
2009/04/23 13:51:29.6     -81   -254    107    267    287 197.8  23.0  34236  290.85 0854.26
2009/04/23 13:51:29.7     -66   -347    147    354    383 190.8  23.7  34224  290.66 0854.26
2009/04/23 13:51:29.9      35   -314     94    317    331 173.5  16.6  34224  290.66 0854.26
2009/04/23 13:51:29.9       5   -332     78    333    343 179.1  13.3  34222  290.64 0854.26
2009/04/23 13:51:30.1      10   -267     -3    268    269 177.8  -0.7  34226  290.68 0854.26
2009/04/23 13:51:30.2      19   -271     15    272    273 176.0   3.3  34226  290.68 0854.26
2009/04/23 13:51:30.3      55   -295    124    301    325 169.4  23.7  34228  290.73 0854.26
2009/04/23 13:51:30.4      34   -340     96    342    356 174.2  15.8  34232  290.81 0854.26
2009/04/23 13:51:30.5      33   -209     45    212    217 170.9  12.2  34234  290.82 0854.26
2009/04/23 13:51:30.6       0   -253    107    254    275 180.0  24.2  34232  290.80 0854.26
2009/04/23 13:51:30.7     113   -205    159    235    283 151.0  37.4  34238  290.90 0854.23
2009/04/23 13:51:30.8      85   -167    185    188    263 152.8  49.9  34244  291.00 0854.23
2009/04/23 13:51:30.9     -51   -196    211    203    292 194.7  51.2  34242  290.95 0854.23
2009/04/23 13:51:31.0      15   -326     85    327    338 177.2  14.6  34238  290.88 0854.23
2009/04/23 13:51:31.1       5   -404    137    405    428 179.2  18.8  34226  290.70 0854.23
2009/04/23 13:51:31.2      20   -341    191    342    391 176.5  31.5  34228  290.74 0854.23
2009/04/23 13:51:31.3       1   -291    152    292    329 179.8  29.6  34226  290.70 0854.23
2009/04/23 13:51:31.4     -56   -397     79    402    410 188.1  11.1  34226  290.70 0854.23
2009/04/23 13:51:31.5     -97   -449    -10    460    461 192.3  -1.3  34220  290.60 0854.23
2009/04/23 13:51:31.6    -209   -399    -70    451    457 207.6  -8.8  34228  290.73 0854.23
2009/04/23 13:51:31.7     -46   -332     52    336    340 188.0   8.8  34228  290.74 0854.23
2009/04/23 13:51:31.8     -91   -292    109    307    325 197.4  20.3  34222  290.63 0854.23
2009/04/23 13:51:31.9     -83   -506    426    513    666 189.4  44.0  34214  290.48 0854.23
2009/04/23 13:51:32.0    -120   -571    256    584    637 191.9  25.2  34228  290.74 0854.23
2009/04/23 13:51:32.1     -78   -480     76    487    494 189.2   8.9  34228  290.71 0854.23
2009/04/23 13:51:32.2      25   -552    139    553    571 177.4  14.2  34228  290.74 0854.23
2009/04/23 13:51:32.3    -148   -598     80    616    622 193.9   7.5  34228  290.72 0854.23
2009/04/23 13:51:32.4     -55   -481    202    485    525 186.6  23.9  34230  290.76 0854.23
2009/04/23 13:51:32.5     -26   -363    229    364    430 184.2  35.2  34232  290.80 0854.23
2009/04/23 13:51:32.6      25   -332    271    333    429 175.7  43.5  34234  290.83 0854.23
2009/04/23 13:51:32.7      65   -410    316    416    522 170.9  41.2  34230  290.76 0854.24
2009/04/23 13:51:32.8      34   -482    340    484    591 175.9  38.5  34230  290.77 0854.24
2009/04/23 13:51:32.9     184   -592    438    621    759 162.7  38.6  34242  290.98 0854.24
2009/04/23 13:51:33.0     296   -659    381    723    817 155.8  30.1  34240  290.92 0854.24
2009/04/23 13:51:33.1     305   -645    266    714    761 154.7  21.4  34224  290.65 0854.24
2009/04/23 13:51:33.2     221   -553     59    596    599 158.2   5.7  34204  290.32 0854.24
2009/04/23 13:51:33.3     -26   -451     86    452    461 183.4  10.8  34222  290.61 0854.24
2009/04/23 13:51:33.4    -201   -497    197    537    571 202.1  21.0  34218  290.55 0854.24
2009/04/23 13:51:33.5      43   -571    329    573    660 175.6  32.4  34208  290.40 0854.24
2009/04/23 13:51:33.6    -477   -373     85    606    613 232.0   8.0  34208  290.37 0854.24
2009/04/23 13:51:33.7    -522    -88    167    530    556 260.4  17.5  34210  290.43 0854.24
2009/04/23 13:51:33.8     -62   -446    400    451    602 188.0  45.9  34212  290.45 0854.24
2009/04/23 13:51:33.9    -253   -608    297    659    722 202.6  25.9  34216  290.52 0854.24
2009/04/23 13:51:34.0    -261   -488    162    554    578 208.1  16.3  34192  290.12 0854.24
2009/04/23 13:51:34.1    -267   -443   -154    518    541 211.1 -16.6  34210  290.41 0854.24
2009/04/23 13:51:34.2    -209   -493    -99    536    546 203.0 -10.5  34204  290.33 0854.24
2009/04/23 13:51:34.3    -220   -529   -151    573    593 202.6 -14.8  34206  290.34 0854.24
2009/04/23 13:51:34.4    -115   -502   -202    516    554 192.9 -26.9  34204  290.33 0854.24
2009/04/23 13:51:34.5     116   -682     36    692    693 170.3   3.0  34202  290.27 0854.24
2009/04/23 13:51:34.6     153   -650    -43    668    670 166.7  -3.7  34208  290.39 0854.24
2009/04/23 13:51:34.7     270   -716   -138    766    779 159.3 -10.2  34192  290.12 0854.25
2009/04/23 13:51:34.8     214   -703   -147    736    751 163.1 -11.3  34202  290.28 0854.25
2009/04/23 13:51:34.9     253   -627   -122    677    689 158.0 -10.2  34192  290.12 0854.25
2009/04/23 13:51:35.0     287   -632     70    695    699 155.6   5.8  34198  290.20 0854.25
2009/04/23 13:51:35.1     343   -845     82    913    917 157.9   5.2  34178  289.87 0854.25
2009/04/23 13:51:35.2     447   -951    119   1051   1058 154.8   6.5  34164  289.65 0854.25
2009/04/23 13:51:35.3     530   -918    237   1061   1088 150.0  12.6  34162  289.61 0854.25
2009/04/23 13:51:35.4     256   -923    -73    958    961 164.5  -4.4  34172  289.77 0854.25
2009/04/23 13:51:35.5      80   -956     20    960    961 175.2   1.2  34186  290.01 0854.25
2009/04/23 13:51:35.6      98   -989     40    994    995 174.3   2.3  34178  289.87 0854.25
2009/04/23 13:51:35.7      83  -1000     74   1004   1007 175.2   4.2  34170  289.73 0854.25
2009/04/23 13:51:35.8     189  -1040    271   1058   1093 169.7  14.4  34166  289.69 0854.25
2009/04/23 13:51:35.9     185  -1099     84   1115   1118 170.4   4.3  34170  289.73 0854.25
2009/04/23 13:51:36.0     295   -898     48    946    948 161.8   2.9  34172  289.76 0854.25
2009/04/23 13:51:36.1     239   -780     92    816    822 163.0   6.5  34176  289.84 0854.25
2009/04/23 13:51:36.2      85   -879    207    884    908 174.4  13.2  34178  289.89 0854.25
2009/04/23 13:51:36.3      24   -996    191    997   1016 178.6  10.9  34168  289.71 0854.25
2009/04/23 13:51:36.4       4   -743    124    744    755 179.6   9.5  34172  289.77 0854.25
2009/04/23 13:51:36.5     153   -805    -43    820    822 169.2  -3.0  34178  289.87 0854.25
2009/04/23 13:51:36.6     177  -1039    127   1054   1062 170.3   6.9  34176  289.85 0854.25
2009/04/23 13:51:36.7     209   -996    266   1018   1053 168.1  14.7  34164  289.65 0854.22
2009/04/23 13:51:36.8    -162   -898    336    913    972 190.2  21.1  34176  289.85 0854.22
2009/04/23 13:51:36.9    -140   -868     34    880    881 189.2   2.2  34172  289.77 0854.22
2009/04/23 13:51:37.0    -258   -840   -248    879    914 197.1 -15.8  34154  289.46 0854.22
2009/04/23 13:51:37.1      40   -902   -232    903    933 177.4 -14.4  34182  289.95 0854.22
2009/04/23 13:51:37.2     138   -681   -182    695    719 168.5 -14.7  34178  289.86 0854.22
2009/04/23 13:51:37.3      23   -475   -136    476    495 177.2 -20.7  34182  289.96 0854.22
2009/04/23 13:51:37.4     223   -669    -76    706    711 161.6  -6.2  34182  289.94 0854.22
2009/04/23 13:51:37.5     116   -471   -111    486    499 166.1 -12.9  34180  289.91 0854.22
2009/04/23 13:51:37.6     308   -517    -39    602    604 149.2  -3.7  34174  289.81 0854.22
2009/04/23 13:51:37.7     335   -855     35    919    920 158.6   2.2  34180  289.90 0854.22
2009/04/23 13:51:37.8     413   -688   -159    803    819 149.0 -11.2  34158  289.55 0854.22
2009/04/23 13:51:37.9     418   -356     11    550    551 130.4   1.2  34184  289.97 0854.22
2009/04/23 13:51:38.0     230   -318     16    393    394 144.1   2.3  34172  289.79 0854.22
2009/04/23 13:51:38.1      47   -286    -13    290    291 170.7  -2.6  34188  290.05 0854.22
2009/04/23 13:51:38.2     267   -158     -1    311    312 120.7  -0.4  34190  290.09 0854.22
2009/04/23 13:51:38.3     253   -333    410    419    586 142.7  49.4  34198  290.23 0854.22
2009/04/23 13:51:38.4     284     64    168    292    336  77.2  32.6  34190  290.07 0854.22
2009/04/23 13:51:38.5     669   -262     10    719    720 111.4   0.8  34192  290.10 0854.22
2009/04/23 13:51:38.6     334   -542    224    637    675 148.4  20.1  34194  290.16 0854.22
2009/04/23 13:51:38.7     328   -372    111    497    510 138.6  12.6  34196  290.17 0854.27
2009/04/23 13:51:38.8     247   -387    163    460    488 147.4  20.3  34196  290.17 0854.27
2009/04/23 13:51:38.9     219   -373    219    433    485 149.6  28.9  34206  290.35 0854.27
2009/04/23 13:51:39.0     -75   -337    247    346    425 192.7  39.1  34202  290.30 0854.27
2009/04/23 13:51:39.1       5      8    170     10    170  32.5  90.0  34208  290.40 0854.27
2009/04/23 13:51:39.2    -112   -139    219    179    282 219.0  56.4  34208  290.37 0854.27
2009/04/23 13:51:39.3       5    162    121    163    203   1.8  40.1  34212  290.47 0854.27
2009/04/23 13:51:39.4      57    -12    213     59    221 102.4  84.6  34200  290.25 0854.27
2009/04/23 13:51:39.5     -75   -248    311    260    405 196.9  56.1  34210  290.42 0854.27
2009/04/23 13:51:39.6    -144   -331    299    361    468 203.5  44.0  34198  290.21 0854.27
2009/04/23 13:51:39.7    -155   -285    224    325    394 208.5  37.9  34208  290.38 0854.27
2009/04/23 13:51:39.8    -223   -195    107    297    316 228.9  19.9  34206  290.34 0854.27
2009/04/23 13:51:39.9    -202   -272    122    340    361 216.6  20.6  34202  290.28 0854.27
2009/04/23 13:51:40.0    -296   -284     -9    411    412 226.2  -1.4  34212  290.44 0854.27
2009/04/23 13:51:40.1    -134   -292    110    322    341 204.6  18.9  34208  290.38 0854.27
2009/04/23 13:51:40.2    -119   -390    147    408    434 197.0  19.9  34202  290.29 0854.27
2009/04/23 13:51:40.3     -83   -313    108    324    342 194.9  18.4  34208  290.38 0854.27
2009/04/23 13:51:40.4     -18   -394    138    395    419 182.7  19.3  34204  290.33 0854.27
2009/04/23 13:51:40.5      32   -434    107    436    449 175.7  13.8  34202  290.28 0854.27
2009/04/23 13:51:40.6     -24   -314     19    315    316 184.4   3.5  34200  290.26 0854.27
2009/04/23 13:51:40.7    -130   -264    -42    295    299 206.3  -8.3  34206  290.36 0854.26
2009/04/23 13:51:40.8       2   -181     31    182    185 179.1   9.9  34208  290.38 0854.26
2009/04/23 13:51:40.9      77   -342    137    351    376 167.3  22.7  34210  290.43 0854.26
2009/04/23 13:51:41.0       5   -346    287    347    450 179.1  43.7  34210  290.41 0854.26
2009/04/23 13:51:41.1    -112   -279    250    301    391 201.9  43.8  34218  290.55 0854.26
2009/04/23 13:51:41.2    -152   -246    210    290    358 211.6  39.5  34210  290.43 0854.26
2009/04/23 13:51:41.3    -306   -218    140    376    401 234.5  21.4  34218  290.54 0854.26
2009/04/23 13:51:41.4    -286    -58    118    292    314 258.5  23.4  34226  290.68 0854.26
2009/04/23 13:51:41.5    -502     93   -103    511    522 280.6 -11.5  34222  290.64 0854.26
2009/04/23 13:51:41.6    -546    -22   -120    547    561 267.7 -12.4  34216  290.53 0854.26
2009/04/23 13:51:41.7    -556    163   -100    580    589 286.4  -9.8  34260  291.26 0854.13
2009/04/23 13:51:41.8    -399    102    -35    412    414 284.4  -4.9  34260  291.28 0854.13
2009/04/23 13:51:41.9    -355    302   -101    467    478 310.4 -12.3  34246  291.03 0854.13
2009/04/23 13:51:42.0    -129    426    -52    446    450 343.1  -6.7  34228  290.72 0854.13
2009/04/23 13:51:42.1      59    435    -29    440    441   7.8  -3.9  34234  290.84 0854.13
2009/04/23 13:51:42.2      76    527   -130    533    549   8.3 -13.8  34228  290.74 0854.13
2009/04/23 13:51:42.3     -28    522   -128    523    539 356.9 -13.8  34230  290.75 0854.13
2009/04/23 13:51:42.4    -311    523   -173    609    634 329.3 -15.9  34200  290.26 0854.13
2009/04/23 13:51:42.5    -369    282   -391    465    607 307.4 -48.7  34226  290.70 0854.13
2009/04/23 13:51:42.6    -540    220    280    584    647 292.2  27.4  34218  290.57 0854.13
2009/04/23 13:51:42.7    -350    531    232    637    677 326.6  20.9  34228  290.73 0854.13
2009/04/23 13:51:42.8    -211    780    -62    809    812 344.9  -4.4  34216  290.53 0854.13
2009/04/23 13:51:42.9    -302    906    185    956    974 341.5  11.0  34208  290.40 0854.13
2009/04/23 13:51:43.0    -652    760    346   1002   1061 319.4  19.1  34244  291.01 0854.13
2009/04/23 13:51:43.1    -455    479    359    661    752 316.5  30.9  34252  291.12 0854.13
2009/04/23 13:51:43.2    -439    442    258    623    674 315.2  23.9  34264  291.33 0854.13
2009/04/23 13:51:43.3    -274    409    180    493    524 326.2  20.9  34228  290.73 0854.13
2009/04/23 13:51:43.4    -138    664    246    679    722 348.2  20.8  34238  290.88 0854.13
2009/04/23 13:51:43.5    -184    519    386    551    672 340.4  38.5  34258  291.22 0854.13
2009/04/23 13:51:43.6    -133    407      2    429    430 341.9   0.4  34240  290.94 0854.13
2009/04/23 13:51:43.7     348    415     10    542    543  40.0   1.1  34244  291.01 0854.10
2009/04/23 13:51:43.8     223    619    220    659    695  19.8  18.5  34238  290.89 0854.10
2009/04/23 13:51:43.9     310    448    -29    546    547  34.7  -3.1  34246  291.04 0854.10
2009/04/23 13:51:44.0     231    483    223    536    580  25.6  24.1  34248  291.06 0854.10
2009/04/23 13:51:44.1     297    536    248    614    662  29.0  23.2  34248  291.06 0854.10
2009/04/23 13:51:44.2     278    285     90    399    410  44.3  12.8  34248  291.06 0854.10
2009/04/23 13:51:44.3     294    344    194    453    492  40.6  24.6  34254  291.17 0854.10
2009/04/23 13:51:44.4     294    387    157    487    512  37.2  17.9  34250  291.10 0854.10
2009/04/23 13:51:44.5     387    379    259    542    600  45.6  27.3  34250  291.10 0854.10
2009/04/23 13:51:44.6     495    434    202    659    690  48.7  17.0  34224  290.66 0854.10
2009/04/23 13:51:44.7     837    513    349    982   1042  58.5  20.4  34238  290.89 0854.10
2009/04/23 13:51:44.8    1007    272    287   1044   1084  74.9  15.4  34246  291.02 0854.10
2009/04/23 13:51:44.9     867     49    122    869    878  86.8   8.0  34222  290.64 0854.10
2009/04/23 13:51:45.0     822    -32    269    823    867  92.2  18.1  34254  291.17 0854.10
2009/04/23 13:51:45.1     743    194    278    768    816  75.3  20.8  34220  290.59 0854.10
2009/04/23 13:51:45.2     952    142    513    963   1091  81.5  30.3  34238  290.89 0854.10
2009/04/23 13:51:45.3     801     61    101    804    811  85.6   7.2  34238  290.91 0854.10
2009/04/23 13:51:45.4     273     59    328    280    431  77.7  55.4  34260  291.27 0854.10
2009/04/23 13:51:45.5     585   -179    -28    612    613 107.1  -2.7  34252  291.12 0854.10
2009/04/23 13:51:45.6     668    409     82    784    789  58.5   6.0  34244  291.00 0854.10
2009/04/23 13:51:45.7     960    571    -78   1118   1121  59.3  -4.0  34246  291.04 0854.03
2009/04/23 13:51:45.8     824    588     64   1013   1016  54.5   3.6  34238  290.91 0854.03
2009/04/23 13:51:45.9    1106    713    192   1317   1332  57.2   8.3  34238  290.90 0854.03
2009/04/23 13:51:46.0     917    586   -213   1089   1110  57.4 -11.1  34244  290.99 0854.03
2009/04/23 13:51:46.1     493    138   -105    513    524  74.3 -11.6  34220  290.60 0854.03
2009/04/23 13:51:46.2     502    189     64    537    541  69.3   6.9  34244  290.99 0854.03
2009/04/23 13:51:46.3     657    246    197    702    730  69.4  15.7  34222  290.62 0854.03
2009/04/23 13:51:46.4     402    772     91    871    876  27.5   6.0  34240  290.93 0854.03
2009/04/23 13:51:46.5      41    382   -106    385    400   6.2 -15.4  34244  291.01 0854.03
2009/04/23 13:51:46.6     202    613     33    646    647  18.3   3.0  34238  290.89 0854.03
2009/04/23 13:51:46.7      70    300    -88    309    322  13.3 -16.0  34238  290.90 0854.03
2009/04/23 13:51:46.8     -74    171    -58    187    196 336.6 -17.3  34248  291.06 0854.03
2009/04/23 13:51:46.9     118    -24    -33    121    126 101.5 -15.5  34244  291.01 0854.03
2009/04/23 13:51:47.0     325    -22     -7    326    327  93.9  -1.3  34236  290.85 0854.03
2009/04/23 13:51:47.1     299   -112    -63    320    327 110.6 -11.1  34234  290.83 0854.03
2009/04/23 13:51:47.2      44     57     36     73     81  37.8  28.2  34234  290.84 0854.03
2009/04/23 13:51:47.3     -66    433    220    439    491 351.3  28.6  34238  290.88 0854.03
2009/04/23 13:51:47.4     196    331    155    385    415  30.7  23.1  34240  290.92 0854.03
2009/04/23 13:51:47.5     314    123    119    338    359  68.5  19.5  34242  290.98 0854.03
2009/04/23 13:51:47.6     238     79    198    251    319  71.6  42.3  34218  290.54 0854.03
2009/04/23 13:51:47.7     456     88     99    465    476  79.0  12.1  34226  290.68 0854.13
2009/04/23 13:51:47.8     310     64    126    317    341  78.3  22.9  34234  290.83 0854.13
2009/04/23 13:51:47.9     268    -29    220    270    348  96.2  43.6  34234  290.82 0854.13
2009/04/23 13:51:48.0     211     49    224    217    311  76.7  51.2  34240  290.92 0854.13
2009/04/23 13:51:48.1      36     37    176     52    183  44.2  83.1  34238  290.89 0854.13
2009/04/23 13:51:48.2     -71    -43    196     84    213 238.5  75.5  34252  291.13 0854.13
2009/04/23 13:51:48.3       2     28    171     29    173   4.4  90.0  34246  291.03 0854.13
2009/04/23 13:51:48.4      40     90    176     99    201  24.1  68.3  34244  291.01 0854.13
2009/04/23 13:51:48.5    -119    -41    125    126    177 250.9  50.0  34252  291.13 0854.13
2009/04/23 13:51:48.6     -35     42    167     55    175 320.3  80.7  34248  291.08 0854.13
2009/04/23 13:51:48.7     -26     28     71     39     81 316.6  68.8  34248  291.08 0854.13
2009/04/23 13:51:48.8      43    -69    150     82    170 148.4  69.1  34240  290.92 0854.13
2009/04/23 13:51:48.9     -79   -143    200    164    258 209.2  56.4  34256  291.21 0854.13
2009/04/23 13:51:49.0    -165   -161    161    231    281 225.8  38.4  34252  291.12 0854.13
2009/04/23 13:51:49.1     -81   -170    276    189    334 205.4  62.5  34264  291.33 0854.13
2009/04/23 13:51:49.2    -211   -108    121    238    266 242.9  29.1  34264  291.34 0854.13
2009/04/23 13:51:49.3    -135   -181    231    227    323 216.7  50.6  34270  291.43 0854.13
2009/04/23 13:51:49.4    -145   -215    282    260    383 214.1  52.5  34264  291.34 0854.13
2009/04/23 13:51:49.5    -123   -211    272    245    366 210.3  53.5  34268  291.40 0854.13
2009/04/23 13:51:49.6    -268   -242    201    362    414 227.9  31.4  34264  291.35 0854.13
2009/04/23 13:51:49.7    -163   -223    129    277    305 216.3  27.1  34256  291.19 0854.16
2009/04/23 13:51:49.8    -265    -37    -29    268    270 262.0  -6.2  34248  291.05 0854.16
2009/04/23 13:51:49.9    -162    -82    -35    182    186 243.1 -10.9  34260  291.26 0854.16
2009/04/23 13:51:50.0    -270   -172   -110    321    339 237.5 -23.8  34258  291.22 0854.16
2009/04/23 13:51:50.1    -505   -187   -144    539    558 249.6 -15.0  34258  291.23 0854.16
2009/04/23 13:51:50.2    -174   -211    161    274    317 219.6  33.1  34268  291.39 0854.16
2009/04/23 13:51:50.3    -119   -235    255    264    367 207.0  49.1  34278  291.57 0854.16
2009/04/23 13:51:50.4    -134   -386    249    409    478 199.2  34.3  34260  291.28 0854.16
2009/04/23 13:51:50.5    -135   -302    182    331    377 204.1  31.3  34260  291.27 0854.16
2009/04/23 13:51:50.6     -76   -129    191    150    242 210.7  58.2  34258  291.25 0854.16
2009/04/23 13:51:50.7     -20   -101    195    104    221 191.6  69.8  34260  291.28 0854.16
2009/04/23 13:51:50.8    -218   -264    136    343    368 219.6  22.8  34260  291.27 0854.16
2009/04/23 13:51:50.9    -235   -326     52    403    407 215.8   7.5  34260  291.26 0854.16
2009/04/23 13:51:51.0    -272   -323     70    423    429 220.1   9.5  34254  291.18 0854.16
2009/04/23 13:51:51.1    -267   -286      6    392    393 223.0   0.9  34238  290.91 0854.16
2009/04/23 13:51:51.2    -264   -306    -66    405    411 220.8  -9.3  34230  290.75 0854.16
2009/04/23 13:51:51.3    -235   -263     95    354    367 221.8  15.0  34238  290.91 0854.16
2009/04/23 13:51:51.4    -128   -154    173    201    265 219.7  44.9  34246  291.04 0854.16
2009/04/23 13:51:51.5     -43   -161    190    167    252 195.1  54.3  34248  291.08 0854.16
2009/04/23 13:51:51.6     -25   -187    145    189    238 187.8  41.4  34258  291.25 0854.16
2009/04/23 13:51:51.7     -76   -136     53    156    165 209.2  18.9  34262  291.32 0854.17
2009/04/23 13:51:51.8     -94   -197    -33    219    222 205.5  -8.6  34254  291.18 0854.17
2009/04/23 13:51:51.9    -116   -227     36    256    259 207.2   8.0  34256  291.19 0854.17
2009/04/23 13:51:52.0    -121   -328     10    350    351 200.3   1.8  34252  291.15 0854.17
2009/04/23 13:51:52.1    -303   -503   -151    588    608 211.0 -14.4  34242  290.95 0854.17
2009/04/23 13:51:52.2    -376   -445   -258    583    637 220.2 -30.0  34238  290.88 0854.17
2009/04/23 13:51:52.3    -167   -511   -139    538    556 198.2 -14.5  34240  290.92 0854.17
2009/04/23 13:51:52.4    -101   -729   -106    736    744 187.9  -8.2  34246  291.02 0854.17
2009/04/23 13:51:52.5       0   -739   -198    740    767 180.0 -15.0  34232  290.79 0854.17
2009/04/23 13:51:52.6      61   -786    -75    789    793 175.5  -5.5  34234  290.83 0854.17
2009/04/23 13:51:52.7      28   -860   -164    861    877 178.1 -10.8  34222  290.64 0854.17
2009/04/23 13:51:52.8     135   -936   -296    946    991 171.8 -22.3  34232  290.81 0854.17
2009/04/23 13:51:52.9     314   -801   -237    861    894 158.6 -15.4  34224  290.67 0854.17
2009/04/23 13:51:53.0     435   -847    -63    953    956 152.8  -3.8  34218  290.54 0854.17
2009/04/23 13:51:53.1     528   -900     59   1044   1046 149.6   3.3  34224  290.65 0854.17
2009/04/23 13:51:53.2     301   -955     85   1002   1006 162.5   4.9  34210  290.41 0854.17
2009/04/23 13:51:53.3     327   -922    204    979   1001 160.4  11.8  34224  290.66 0854.17
2009/04/23 13:51:53.4     427   -586    306    726    787 143.9  24.3  34220  290.58 0854.17
2009/04/23 13:51:53.5     179   -745    540    767    938 166.5  38.6  34232  290.78 0854.17
2009/04/23 13:51:53.6      76  -1085    444   1088   1175 176.0  23.5  34224  290.65 0854.17
2009/04/23 13:51:53.7     543   -877    117   1032   1039 148.3   6.5  34222  290.64 0854.24
2009/04/23 13:51:53.8     306   -741     72    802    806 157.5   5.2  34228  290.74 0854.24
2009/04/23 13:51:53.9     150   -431    194    457    496 160.8  24.3  34224  290.66 0854.24
2009/04/23 13:51:54.0     200   -314    311    373    485 147.4  44.1  34218  290.55 0854.24
2009/04/23 13:51:54.1     375   -209    367    430    565 119.1  44.8  34222  290.63 0854.24
2009/04/23 13:51:54.2     140   -155    302    210    367 137.9  62.0  34242  290.95 0854.24
2009/04/23 13:51:54.3     -82     16    212     84    228 281.0  77.1  34244  291.01 0854.24
2009/04/23 13:51:54.4     -86    -84    185    121    221 225.6  64.1  34234  290.82 0854.24
2009/04/23 13:51:54.5     192   -231    -17    301    302 140.4  -3.3  34232  290.80 0854.24
2009/04/23 13:51:54.6     245   -350   -168    428    459 145.0 -27.2  34230  290.77 0854.24
2009/04/23 13:51:54.7     143   -350   -176    379    417 157.7 -31.0  34216  290.53 0854.24
2009/04/23 13:51:54.8      17    124   -123    126    176   8.0 -53.8  34222  290.62 0854.24
2009/04/23 13:51:54.9     172    281   -349    330    480  31.5 -56.4  34232  290.80 0854.24
2009/04/23 13:51:55.0      78    320   -193    330    382  13.8 -37.4  34228  290.74 0854.24
2009/04/23 13:51:55.1      88    261   -197    276    339  18.7 -43.5  34228  290.71 0854.24
2009/04/23 13:51:55.2       3    281   -140    282    314   0.7 -32.8  34228  290.71 0854.24
2009/04/23 13:51:55.3     -57    243    -36    250    253 346.6  -8.2  34222  290.63 0854.24
2009/04/23 13:51:55.4       1    392     -6    393    394   0.3  -0.9  34230  290.76 0854.24
2009/04/23 13:51:55.5      -1    331    -34    332    334 359.8  -5.9  34230  290.76 0854.24
2009/04/23 13:51:55.6      65    171     97    184    208  20.9  29.8  34242  290.96 0854.24
2009/04/23 13:51:55.7    -122    161    152    203    253 322.8  40.6  34242  290.95 0854.25
2009/04/23 13:51:55.8    -115    208    111    239    263 331.0  27.1  34234  290.83 0854.25
2009/04/23 13:51:55.9     -92    189     57    211    219 333.9  15.2  34242  290.96 0854.25
2009/04/23 13:51:56.0     -28    361     71    363    371 355.5  11.1  34238  290.89 0854.25
2009/04/23 13:51:56.2    -114    293    -12    315    316 338.6  -2.2  34238  290.88 0854.25
2009/04/23 13:51:56.2    -108    210     64    237    246 332.8  15.2  34230  290.76 0854.25
2009/04/23 13:51:56.4     -78    291    196    302    360 344.9  36.0  34244  291.00 0854.25
2009/04/23 13:51:56.4    -167    376    105    412    426 336.1  14.3  34240  290.92 0854.25
2009/04/23 13:51:56.6    -162    324    111    363    380 333.4  17.0  34256  291.20 0854.25
2009/04/23 13:51:56.7    -142    389     74    415    422 340.0  10.1  34276  291.53 0854.25
2009/04/23 13:51:56.8    -204    343    155    400    428 329.2  22.2  34250  291.11 0854.25
2009/04/23 13:51:56.9    -278    256    193    379    425 312.7  29.2  34266  291.38 0854.25
2009/04/23 13:51:57.0    -185    300    157    353    386 328.4  25.6  34278  291.59 0854.25
2009/04/23 13:51:57.1     113    184    251    217    331  31.6  54.8  34256  291.19 0854.25
2009/04/23 13:51:57.2      12    166    249    167    299   4.4  63.2  34262  291.31 0854.25
2009/04/23 13:51:57.3      67    211    217    222    310  17.6  49.8  34258  291.24 0854.25
2009/04/23 13:51:57.4     215    334    194    398    442  32.7  27.9  34256  291.19 0854.25
2009/04/23 13:51:57.5     148    180    111    234    258  39.4  27.2  34262  291.29 0854.25
2009/04/23 13:51:57.6      61    193    138    203    245  17.6  37.6  34266  291.38 0854.25
2009/04/23 13:51:57.7      81    299    233    310    387  15.2  40.7  34332  292.49 0854.25
2009/04/23 13:51:57.8     225    298    197    374    422  37.1  30.1  34338  292.59 0854.29
2009/04/23 13:51:57.9     275    275    146    390    416  45.0  21.6  34330  292.45 0854.29
2009/04/23 13:51:58.0     409    353     17    541    542  49.2   1.9  34292  291.81 0854.29
2009/04/23 13:51:58.1     481    201    189    522    556  67.3  19.9  34300  291.96 0854.29
2009/04/23 13:51:58.2     385    118    363    403    542  73.0  46.8  34328  292.43 0854.29
2009/04/23 13:51:58.3     519    206    450    559    717  68.3  42.9  34318  292.25 0854.29
2009/04/23 13:51:58.4     583    363    302    687    750  58.1  25.2  34252  291.12 0854.29
2009/04/23 13:51:58.5     792    227    467    825    948  74.0  32.1  34232  290.80 0854.29
2009/04/23 13:51:58.6     528    -65    174    533    561  97.1  18.1  34266  291.38 0854.29
2009/04/23 13:51:58.7     515    -28    181    516    546  93.2  20.0  34254  291.16 0854.29
2009/04/23 13:51:58.8     538    -81     22    545    546  98.6   2.4  34272  291.48 0854.29
2009/04/23 13:51:58.9     832   -192      7    854    855 103.0   0.5  34292  291.82 0854.29
2009/04/23 13:51:59.0     747   -286    114    800    809 111.0   8.1  34282  291.64 0854.29
2009/04/23 13:51:59.1     758   -418    -40    866    868 118.9  -2.7  34288  291.73 0854.29
2009/04/23 13:51:59.2     553   -227    -86    598    605 112.3  -8.3  34286  291.72 0854.29
2009/04/23 13:51:59.3     257   -299   -108    395    410 139.4 -15.4  34276  291.53 0854.29
2009/04/23 13:51:59.4      17   -478   -201    479    519 177.9 -28.6  34272  291.46 0854.29
2009/04/23 13:51:59.5      75   -713     66    718    722 173.9   5.3  34282  291.66 0854.29
2009/04/23 13:51:59.6      47   -728    115    730    740 176.3   9.0  34282  291.64 0854.29
2009/04/23 13:51:59.7      88   -798    259    803    844 173.7  17.9  34280  291.61 0854.29
2009/04/23 13:51:59.8     255   -663    277    711    763 158.9  22.5  34264  291.33 0854.31
2009/04/23 13:51:59.9     199   -366    251    417    486 151.5  34.0  34272  291.46 0854.31
2009/04/23 13:52:00.0     207   -555    276    593    654 159.5  26.9  34248  291.08 0854.31
2009/04/23 13:52:00.1    -142   -677    163    692    711 191.9  13.3  34278  291.58 0854.31
2009/04/23 13:52:00.2    -116   -697   -102    707    715 189.5  -8.3  34274  291.51 0854.31
2009/04/23 13:52:00.3      47   -620    -66    622    626 175.6  -6.1  34264  291.35 0854.31
2009/04/23 13:52:00.4      29   -673    188    674    700 177.5  15.6  34236  290.87 0854.31
2009/04/23 13:52:00.5      30   -357    345    359    497 175.2  49.0  34294  291.86 0854.31
2009/04/23 13:52:00.6     195   -236    346    307    462 140.4  54.2  34280  291.62 0854.31
2009/04/23 13:52:00.7     111   -244    325    269    421 155.5  56.3  34270  291.44 0854.31
2009/04/23 13:52:00.8      59     37    243     70    252  57.5  83.8  34274  291.52 0854.31
2009/04/23 13:52:00.9     -13   -176    263    177    317 184.5  62.8  34264  291.33 0854.31
2009/04/23 13:52:01.0    -130   -406    337    427    543 197.8  42.2  34252  291.13 0854.31
2009/04/23 13:52:01.1    -331   -382    207    506    546 220.9  23.5  34248  291.06 0854.31
2009/04/23 13:52:01.2    -129   -329    290    354    457 201.4  43.7  34244  291.01 0854.31
2009/04/23 13:52:01.3    -116   -586    203    598    632 191.2  18.8  34244  290.99 0854.31
2009/04/23 13:52:01.4     -35   -726    318    727    793 182.8  25.2  34240  290.93 0854.31
2009/04/23 13:52:01.5      25   -697    312    698    764 177.9  25.8  34238  290.91 0854.31
2009/04/23 13:52:01.6     -45   -651    387    653    759 184.0  33.5  34232  290.79 0854.31
2009/04/23 13:52:01.7     -72   -570    310    575    653 187.2  30.7  34242  290.98 0854.31
2009/04/23 13:52:01.8    -146   -753    432    768    881 191.0  31.9  34234  290.82 0854.29
2009/04/23 13:52:01.9     -56   -687    481    690    841 184.7  38.4  34246  291.02 0854.29
2009/04/23 13:52:02.0    -304   -621    205    692    722 206.1  16.5  34244  291.01 0854.29
2009/04/23 13:52:02.1    -266   -735    -91    782    788 199.9  -6.7  34242  290.95 0854.29
2009/04/23 13:52:02.2    -406   -665   -108    780    788 211.4  -7.9  34238  290.88 0854.29
2009/04/23 13:52:02.3    -481   -711    -49    859    861 214.1  -3.3  34232  290.80 0854.29
2009/04/23 13:52:02.4    -193   -708    144    735    750 195.3  11.1  34240  290.94 0854.29
2009/04/23 13:52:02.5    -305   -540    222    621    659 209.4  20.4  34224  290.65 0854.29
2009/04/23 13:52:02.6    -295   -361    223    467    517 219.3  27.3  34234  290.83 0854.29
2009/04/23 13:52:02.7    -187   -391    201    434    478 205.6  26.6  34230  290.77 0854.29
2009/04/23 13:52:02.8    -418   -169    -24    452    453 247.9  -3.1  34232  290.78 0854.29
2009/04/23 13:52:02.9    -288   -372    262    471    538 217.8  31.4  34228  290.74 0854.29
2009/04/23 13:52:03.0    -291    -92    212    306    372 252.3  38.3  34230  290.77 0854.29
2009/04/23 13:52:03.1    -359     84     13    369    370 283.2   2.1  34240  290.93 0854.29
2009/04/23 13:52:03.2       7    -27    108     29    111 164.9  84.9  34252  291.13 0854.29
2009/04/23 13:52:03.3      53     -9    154     54    163  99.7  80.2  34250  291.11 0854.29
2009/04/23 13:52:03.4      79   -173    123    191    227 155.3  35.6  34230  290.75 0854.29
2009/04/23 13:52:03.5     122   -161     11    203    204 142.8   3.1  34248  291.08 0854.29
2009/04/23 13:52:03.6     203   -166     68    263    272 129.3  14.5  34236  290.85 0854.29
2009/04/23 13:52:03.7     254   -112      3    278    279 114.0   0.8  34240  290.93 0854.29
2009/04/23 13:52:03.8     328   -170    -38    370    372 117.4  -5.9  34228  290.72 0854.29
2009/04/23 13:52:03.9     113   -137     41    178    183 140.4  13.2  34230  290.75 0854.29
2009/04/23 13:52:04.0     201   -145     86    248    263 125.9  19.2  34228  290.71 0854.29
2009/04/23 13:52:04.1      95   -145    125    174    214 146.8  39.3  34224  290.67 0854.29
2009/04/23 13:52:04.2     -24   -282    248    284    377 184.9  45.8  34224  290.67 0854.29
2009/04/23 13:52:04.3     -68   -331    168    339    378 191.7  28.2  34228  290.71 0854.29
2009/04/23 13:52:04.4    -131   -377    140    400    424 199.2  19.3  34220  290.58 0854.29
2009/04/23 13:52:04.5     -61   -220    166    229    282 195.6  39.5  34226  290.68 0854.29
2009/04/23 13:52:04.6    -105   -298    163    317    356 199.4  29.3  34228  290.72 0854.29
2009/04/23 13:52:04.7    -141   -265    142    301    332 208.0  27.1  34224  290.65 0854.29
2009/04/23 13:52:04.8    -257   -255     92    363    375 225.2  14.3  34232  290.81 0854.27
2009/04/23 13:52:04.9    -213   -234     36    317    320 222.3   6.6  34226  290.70 0854.27
2009/04/23 13:52:05.0    -265   -102    -20    284    285 248.9  -4.1  34228  290.73 0854.27
2009/04/23 13:52:05.1     -78    -83    131    115    174 223.3  54.3  34232  290.81 0854.27
2009/04/23 13:52:05.2    -378   -248      5    453    454 236.7   0.7  34224  290.67 0854.27
2009/04/23 13:52:05.3    -317   -303   -121    439    456 226.3 -15.4  34228  290.72 0854.27
2009/04/23 13:52:05.4    -216   -178     33    281    284 230.5   6.9  34220  290.59 0854.27
2009/04/23 13:52:05.5     220   -181     56    286    292 129.5  11.1  34228  290.73 0854.27
2009/04/23 13:52:05.6       2    -37     50     38     62 175.5  58.5  34232  290.79 0854.27
2009/04/23 13:52:05.7      -3    -45    -79     46     91 184.5 -71.6  34234  290.82 0854.27
2009/04/23 13:52:05.8      56     89     18    106    108  32.5  10.1  34230  290.75 0854.27
2009/04/23 13:52:05.9     235    111    148    261    300  64.7  31.9  34224  290.65 0854.27
2009/04/23 13:52:06.0     166     69    168    180    246  67.4  47.9  34194  290.16 0854.27
2009/04/23 13:52:06.1     -48     -1    252     49    256 268.3  89.6  34218  290.57 0854.27
2009/04/23 13:52:06.2    -169   -422    343    455    569 201.9  40.7  34220  290.60 0854.27
2009/04/23 13:52:06.3     -44   -409    351    412    541 186.3  44.7  34226  290.68 0854.27
2009/04/23 13:52:06.4      12   -204    320    205    380 176.6  64.6  34224  290.66 0854.27
2009/04/23 13:52:06.5      41    -87    163     97    189 154.6  66.4  34224  290.67 0854.27
2009/04/23 13:52:06.6      -1     13    151     14    151 353.8  90.0  34224  290.65 0854.27
2009/04/23 13:52:06.7     -83    141    239    164    289 329.5  62.6  34236  290.85 0854.27
2009/04/23 13:52:06.8     256    146    293    295    415  60.2  50.0  34228  290.74 0854.31
2009/04/23 13:52:06.9     334    108    241    352    426  72.1  37.6  34242  290.97 0854.31
2009/04/23 13:52:07.0     249     78    268    262    374  72.5  50.7  34244  291.01 0854.31
2009/04/23 13:52:07.1     174    111    206    207    292  57.5  50.0  34248  291.07 0854.31
2009/04/23 13:52:07.2     165    109    173    198    262  56.5  45.8  34244  290.99 0854.31
2009/04/23 13:52:07.3      53    -17    177     56    185 108.2  81.6  34242  290.98 0854.31
2009/04/23 13:52:07.4     456    205     70    500    506  65.8   8.0  34236  290.85 0854.31
2009/04/23 13:52:07.5     392    137    289    416    506  70.7  38.0  34254  291.17 0854.31
2009/04/23 13:52:07.6     271     90    388    286    482  71.6  60.0  34308  292.08 0854.31
2009/04/23 13:52:07.7     170     87    458    191    496  62.9  76.2  34260  291.26 0854.31
2009/04/23 13:52:07.8     306   -358    377    471    603 139.5  42.8  34246  291.04 0854.31
2009/04/23 13:52:07.9     458   -298    251    547    601 123.1  26.4  34220  290.58 0854.31
2009/04/23 13:52:08.0     466    -57     98    470    481  97.0  11.8  34216  290.51 0854.31
2009/04/23 13:52:08.1     506    -10    397    507    643  91.2  42.1  34194  290.15 0854.31
2009/04/23 13:52:08.2     336   -116    125    356    377 109.2  20.0  34198  290.20 0854.31
2009/04/23 13:52:08.3     420   -275     52    503    506 123.2   5.9  34216  290.52 0854.31
2009/04/23 13:52:08.4     399    241   -139    467    487  58.8 -21.4  34232  290.79 0854.31
2009/04/23 13:52:08.5     390    343    105    520    531  48.7  11.4  34208  290.38 0854.31
2009/04/23 13:52:08.6     159    289     35    330    332  28.9   6.1  34218  290.57 0854.31
2009/04/23 13:52:08.7     179     -8    -57    180    188  92.8 -22.8  34220  290.60 0854.31
2009/04/23 13:52:08.8     206    -55    271    214    345 105.1  57.7  34206  290.34 0854.31
2009/04/23 13:52:08.9     228     99    351    249    430  66.5  61.2  34220  290.59 0854.31
2009/04/23 13:52:09.0     427    -39    280    430    513  95.3  36.2  34212  290.47 0854.31
2009/04/23 13:52:09.1     226     -3    271    227    353  90.8  56.0  34230  290.76 0854.31
2009/04/23 13:52:09.2      21   -233    263    235    352 174.7  53.7  34236  290.85 0854.31
2009/04/23 13:52:09.3      42   -193    352    198    403 167.7  68.2  34242  290.98 0854.31
2009/04/23 13:52:09.4      26    -77    180     82    197 161.3  74.0  34246  291.03 0854.31
2009/04/23 13:52:09.5    -218    -69    235    229    328 252.3  50.7  34228  290.73 0854.31
2009/04/23 13:52:09.6    -414    296    216    510    553 305.6  24.3  34244  290.99 0854.31
2009/04/23 13:52:09.7    -356    -63    182    362    405 259.9  28.7  34250  291.11 0854.31
2009/04/23 13:52:09.8    -427   -225    174    483    514 242.2  19.9  34238  290.90 0854.31
2009/04/23 13:52:09.9    -420     43     52    423    427 276.0   7.1  34244  290.99 0854.31
2009/04/23 13:52:10.0    -369   -107    184    385    426 253.8  27.3  34244  291.01 0854.31
2009/04/23 13:52:10.1    -287   -291    249    410    479 224.6  34.2  34258  291.24 0854.31
2009/04/23 13:52:10.2    -211    -91    294    230    373 246.7  58.2  34264  291.35 0854.31
2009/04/23 13:52:10.3    -280    204    228    347    415 306.1  36.5  34256  291.20 0854.31
2009/04/23 13:52:10.4    -368    234    344    437    556 302.5  42.2  34264  291.33 0854.31
2009/04/23 13:52:10.5    -412     29    137    413    436 274.1  18.4  34262  291.29 0854.31
2009/04/23 13:52:10.6    -412   -261    324    488    585 237.6  36.7  34270  291.45 0854.31
2009/04/23 13:52:10.7      63   -374    503    380    630 170.4  59.3  34260  291.28 0854.31
2009/04/23 13:52:10.8     380     17    329    381    503  87.4  45.2  34248  291.05 0854.26
2009/04/23 13:52:10.9     325   -124    147    349    378 111.0  24.2  34262  291.32 0854.26
2009/04/23 13:52:11.0     414   -149    454    441    632 109.8  50.9  34240  290.92 0854.26
2009/04/23 13:52:11.1     385   -113    442    402    597 106.4  53.2  34228  290.72 0854.26
2009/04/23 13:52:11.2     405   -167    372    439    575 112.4  44.5  34230  290.75 0854.26
2009/04/23 13:52:11.3     333   -258    329    422    535 127.8  41.7  34246  291.03 0854.26
2009/04/23 13:52:11.4     376   -142    324    403    517 110.7  43.0  34248  291.07 0854.26
2009/04/23 13:52:11.5     158   -318    343    356    494 153.6  49.0  34250  291.09 0854.26
2009/04/23 13:52:11.6     164   -411    346    443    562 158.2  42.0  34236  290.87 0854.26
2009/04/23 13:52:11.7     -50    -73    252     89    267 214.7  80.2  34246  291.03 0854.26
2009/04/23 13:52:11.8     179    -85    263    199    329 115.5  59.1  34238  290.90 0854.26
2009/04/23 13:52:11.9     -79   -218    224    232    322 200.0  49.0  34250  291.09 0854.26
2009/04/23 13:52:12.0       4   -235    249    236    343 178.9  51.9  34222  290.61 0854.26
2009/04/23 13:52:12.1     -28   -290    281    292    405 185.6  49.0  34214  290.50 0854.26
2009/04/23 13:52:12.2     141   -340    230    369    434 157.4  34.9  34204  290.33 0854.26
2009/04/23 13:52:12.3     249    -17    235    250    343  93.9  48.0  34214  290.49 0854.26
2009/04/23 13:52:12.4     133     50      5    143    144  69.2   2.3  34220  290.58 0854.26
2009/04/23 13:52:12.5    -208    -90   -107    227    250 246.5 -31.5  34236  290.87 0854.26
2009/04/23 13:52:12.6    -328   -192    -21    381    382 239.7  -3.2  34248  291.06 0854.26
2009/04/23 13:52:12.7    -555   -317    -46    640    642 240.3  -4.1  34228  290.74 0854.26
2009/04/23 13:52:12.8    -542   -516    -90    749    755 226.4  -6.9  34210  290.43 0854.26
2009/04/23 13:52:12.9    -443   -538   -126    698    710 219.5 -10.3  34218  290.54 0854.26
2009/04/23 13:52:13.0    -357   -474    -36    594    596 217.0  -3.5  34220  290.59 0854.26
2009/04/23 13:52:13.1    -390   -399    -29    559    560 224.3  -3.0  34220  290.58 0854.26
2009/04/23 13:52:13.2    -223   -350   -161    416    446 212.5 -26.6  34220  290.58 0854.26
2009/04/23 13:52:13.3    -121   -181    122    218    249 213.8  31.6  34236  290.87 0854.26
2009/04/23 13:52:13.4    -120   -299    328    323    460 201.9  50.4  34248  291.07 0854.26
2009/04/23 13:52:13.5    -146   -406    190    432    471 199.8  25.3  34210  290.41 0854.26
2009/04/23 13:52:13.6      28   -343    110    345    363 175.3  17.7  34212  290.47 0854.26
2009/04/23 13:52:13.7     -30   -280     78    282    293 186.3  15.6  34208  290.37 0854.26
2009/04/23 13:52:13.8    -102   -267   -103    286    303 201.0 -24.8  34222  290.61 0854.26
2009/04/23 13:52:13.9     -34   -319    -15    321    322 186.2  -2.7  34212  290.46 0854.26
2009/04/23 13:52:14.0     -39   -371      0    374    375 186.1   0.0  34212  290.45 0854.26
2009/04/23 13:52:14.1    -326   -482   -191    583    613 214.1 -23.3  34208  290.37 0854.26
2009/04/23 13:52:14.2    -291   -578    -45    648    650 206.8  -4.0  34212  290.45 0854.26
2009/04/23 13:52:14.3    -198   -531     68    568    573 200.5   6.9  34204  290.31 0854.26
2009/04/23 13:52:14.4     220   -357    213    420    470 148.4  28.9  34208  290.38 0854.26
2009/04/23 13:52:14.5     122   -367    260    387    466 161.6  37.2  34224  290.65 0854.26
2009/04/23 13:52:14.6     203   -228    248    306    393 138.3  43.3  34220  290.60 0854.26
2009/04/23 13:52:14.7     148   -233     85    277    290 147.5  17.1  34218  290.54 0854.26
2009/04/23 13:52:14.8     145   -187    179    237    297 142.2  40.7  34220  290.59 0854.26
2009/04/23 13:52:14.9      89   -188     71    209    221 154.6  18.9  34216  290.53 0854.26
2009/04/23 13:52:15.0     124   -148     72    194    206 139.9  21.3  34216  290.53 0854.26
2009/04/23 13:52:15.1      62   -188     82    199    215 161.7  23.4  34220  290.60 0854.26
2009/04/23 13:52:15.2      11   -234     59    235    243 177.3  14.3  34216  290.51 0854.26
2009/04/23 13:52:15.3     -60   -204    -19    213    214 196.5  -5.2  34214  290.48 0854.26
2009/04/23 13:52:15.4     -65   -244     -7    253    254 194.9  -1.8  34204  290.32 0854.26
2009/04/23 13:52:15.5    -208   -366    114    422    438 209.6  15.2  34212  290.46 0854.26
2009/04/23 13:52:15.6     -29   -378    135    380    403 184.5  20.3  34210  290.43 0854.26
2009/04/23 13:52:15.7     -47   -297    130    301    327 189.1  24.8  34212  290.46 0854.26
2009/04/23 13:52:15.8    -143   -203     51    249    255 215.2  11.6  34212  290.44 0854.26
2009/04/23 13:52:15.9     -15   -155     72    156    171 185.8  26.6  34208  290.40 0854.26
2009/04/23 13:52:16.0      14   -168     66    169    181 175.1  22.5  34214  290.48 0854.26
2009/04/23 13:52:16.1      69   -194     48    207    213 160.4  13.2  34212  290.47 0854.26
2009/04/23 13:52:16.2    -122    -76    -40    145    151 238.0 -15.4  34212  290.45 0854.26
2009/04/23 13:52:16.3      93    213    -61    233    241  23.6 -14.7  34198  290.20 0854.26
2009/04/23 13:52:16.4      60      9    250     61    257  81.2  86.4  34206  290.36 0854.26
2009/04/23 13:52:16.5    -155     -2    178    156    236 269.2  54.3  34224  290.67 0854.26
2009/04/23 13:52:16.6    -127    148    204    196    282 319.5  51.2  34224  290.65 0854.26
2009/04/23 13:52:16.7    -114    192    196    224    297 329.2  45.8  34230  290.75 0854.26
2009/04/23 13:52:16.8     -89    136    149    163    220 326.6  47.7  34228  290.74 0854.27
2009/04/23 13:52:16.9       9    120     90    121    150   4.4  40.1  34236  290.87 0854.27
2009/04/23 13:52:17.0     -54    214     20    221    222 345.7   5.2  34220  290.58 0854.27
2009/04/23 13:52:17.1      28    140     32    143    147  11.6  12.6  34228  290.72 0854.27
2009/04/23 13:52:17.2      34    133      7    138    139  14.7   2.9  34228  290.72 0854.27
2009/04/23 13:52:17.3       0    180     22    181    183   0.0   7.1  34228  290.74 0854.27
2009/04/23 13:52:17.4    -285    115    141    308    338 292.0  26.3  34234  290.83 0854.27
2009/04/23 13:52:17.5    -362     56    123    367    388 278.9  18.6  34234  290.83 0854.27
2009/04/23 13:52:17.6    -324   -101    129    340    363 252.7  21.7  34242  290.96 0854.27
2009/04/23 13:52:17.7    -176   -227    132    288    316 217.8  26.3  34238  290.90 0854.27
2009/04/23 13:52:17.8    -173   -209    127    272    300 219.6  27.1  34236  290.87 0854.27
2009/04/23 13:52:17.9    -112   -128    117    171    207 221.2  37.6  34232  290.79 0854.27
2009/04/23 13:52:18.0     -56    -83     87    101    133 214.3  45.8  34230  290.77 0854.27
2009/04/23 13:52:18.1     -93      0     70     94    117 270.0  40.1  34234  290.84 0854.27
2009/04/23 13:52:18.2    -135    -26    -28    138    141 259.0 -11.5  34240  290.94 0854.27
2009/04/23 13:52:18.3    -119   -185    -26    221    223 212.7  -6.7  34250  291.11 0854.27
2009/04/23 13:52:18.4     -89   -295    120    309    331 196.9  22.4  34254  291.17 0854.27
2009/04/23 13:52:18.5     -40   -150    160    156    223 195.1  50.4  34244  290.99 0854.27
2009/04/23 13:52:18.6     -66    -86    170    109    201 217.4  64.6  34244  290.99 0854.27
2009/04/23 13:52:18.7    -112   -110    162    158    226 225.6  50.7  34236  290.86 0854.27
2009/04/23 13:52:18.8    -267     30    115    269    292 276.6  24.3  34258  291.24 0854.32
2009/04/23 13:52:18.9    -317    121    181    340    385 291.0  30.3  34248  291.08 0854.32
2009/04/23 13:52:19.0    -155   -206    272    258    374 217.0  51.9  34220  290.60 0854.32
2009/04/23 13:52:19.1    -169   -157    185    232    296 227.1  42.7  34228  290.71 0854.32
2009/04/23 13:52:19.2     -19   -123    202    125    237 188.9  65.6  34234  290.82 0854.32
2009/04/23 13:52:19.4    -167     -7    154    168    227 267.4  47.7  34244  291.01 0854.32
2009/04/23 13:52:19.4    -136   -126    130    186    226 227.3  38.4  34234  290.82 0854.32
2009/04/23 13:52:19.5    -119   -186     41    221    225 212.6  10.6  34228  290.74 0854.32
2009/04/23 13:52:19.6     188   -141    170    235    290 126.9  39.5  34232  290.78 0854.32
2009/04/23 13:52:19.7     -30   -111    131    116    174 195.2  54.0  34230  290.77 0854.32
2009/04/23 13:52:19.9    -239   -413    206    478    520 210.0  24.9  34220  290.59 0854.32
2009/04/23 13:52:19.9    -119   -630    289    642    704 190.7  25.9  34220  290.60 0854.32
2009/04/23 13:52:20.0    -109   -697    166    706    726 188.9  13.3  34222  290.61 0854.32
2009/04/23 13:52:20.1    -143   -646     82    662    668 192.5   7.1  34220  290.60 0854.32
2009/04/23 13:52:20.2    -134   -569    164    585    608 193.3  15.7  34228  290.71 0854.32
2009/04/23 13:52:20.3    -272   -571     48    633    635 205.5   4.4  34214  290.50 0854.32
2009/04/23 13:52:20.4    -322   -461     -2    563    564 215.0  -0.3  34218  290.55 0854.32
2009/04/23 13:52:20.5    -112   -469    -87    483    491 193.4 -10.2  34208  290.39 0854.32
2009/04/23 13:52:20.6    -241   -490   -105    547    558 206.2 -10.9  34204  290.31 0854.32
2009/04/23 13:52:20.7    -274   -359    160    452    479 217.3  20.3  34212  290.47 0854.32
2009/04/23 13:52:20.8     -23    -82    207     86    224 196.0  76.8  34218  290.57 0854.36
2009/04/23 13:52:20.9      14   -157    173    158    234 174.7  52.7  34212  290.45 0854.36
2009/04/23 13:52:21.0     117   -280    188    304    357 157.3  34.8  34202  290.27 0854.36
2009/04/23 13:52:21.1    -117   -426    271    442    518 195.4  34.4  34208  290.40 0854.36
2009/04/23 13:52:21.2     -92   -386    280    397    485 193.4  38.6  34204  290.33 0854.36
2009/04/23 13:52:21.3     -55   -446    102    450    462 187.1  12.8  34208  290.39 0854.36
2009/04/23 13:52:21.4    -277   -317     56    422    426 221.1   7.6  34200  290.24 0854.36
2009/04/23 13:52:21.5     -91    -26     65     95    115 254.1  37.6  34194  290.16 0854.36
2009/04/23 13:52:21.6     -95    149    252    178    308 327.4  61.3  34206  290.36 0854.36
2009/04/23 13:52:21.7     -42    144    142    151    207 343.5  48.0  34212  290.47 0854.36
2009/04/23 13:52:21.8     -31      9     77     33     83 286.8  76.1  34220  290.58 0854.36
2009/04/23 13:52:21.9     -20   -131    131    133    186 188.9  49.8  34214  290.50 0854.36
2009/04/23 13:52:22.0     -31    -94    105    100    145 198.3  51.2  34212  290.45 0854.36
2009/04/23 13:52:22.1     -49   -145     92    154    179 198.7  33.7  34208  290.40 0854.36
2009/04/23 13:52:22.2      -8   -170     40    171    176 182.7  13.2  34210  290.41 0854.36
2009/04/23 13:52:22.3       0   -207     39    208    212 180.0  10.8  34210  290.41 0854.36
2009/04/23 13:52:22.4     -55   -254    107    260    281 192.3  23.6  34212  290.46 0854.36
2009/04/23 13:52:22.5     -56   -183    177    192    261 197.2  47.7  34218  290.56 0854.36
2009/04/23 13:52:22.6    -144   -219    221    263    343 213.4  44.2  34216  290.51 0854.36
2009/04/23 13:52:22.7    -185   -188    289    265    392 224.5  52.9  34218  290.57 0854.36
2009/04/23 13:52:22.9    -244    -63    169    253    304 255.4  37.0  34206  290.36 0854.39
2009/04/23 13:52:23.0      -8   -281    270    282    390 181.8  48.8  34192  290.13 0854.39
2009/04/23 13:52:23.0    -266   -652    319    705    773 202.2  26.2  34190  290.07 0854.39
2009/04/23 13:52:23.2    -392   -561    233    685    724 215.0  18.8  34194  290.15 0854.39
2009/04/23 13:52:23.3     122    -49    270    132    300 111.8  72.1  34212  290.44 0854.39
2009/04/23 13:52:23.4     101   -179    224    206    304 150.4  52.5  34214  290.48 0854.39
2009/04/23 13:52:23.5    -123   -330    181    353    396 200.4  29.3  34206  290.35 0854.39
2009/04/23 13:52:23.6    -290   -489    186    569    599 210.7  18.1  34196  290.17 0854.39
2009/04/23 13:52:23.7    -245   -450    290    513    589 208.6  32.0  34204  290.31 0854.39
2009/04/23 13:52:23.8    -220   -535    269    579    638 202.4  26.7  34212  290.45 0854.39
2009/04/23 13:52:23.9      -4   -264    215    265    341 180.9  43.4  34212  290.44 0854.42
2009/04/23 13:52:24.0     -30   -406    346    408    534 184.3  44.7  34210  290.42 0854.42
2009/04/23 13:52:24.1      12   -408    269    409    489 178.2  36.5  34210  290.41 0854.42
2009/04/23 13:52:24.2     -30   -383    156    385    415 184.6  23.2  34204  290.31 0854.42
2009/04/23 13:52:24.3     248   -299     93    389    401 140.3  13.5  34182  289.96 0854.42
2009/04/23 13:52:24.4      50   -508    370    511    630 174.3  39.5  34196  290.19 0854.42
2009/04/23 13:52:24.5      82   -315    249    326    410 165.3  41.2  34202  290.30 0854.42
2009/04/23 13:52:24.6      27   -466    173    467    498 176.6  21.4  34198  290.23 0854.42
2009/04/23 13:52:24.7     -45   -369    212    372    428 187.1  32.3  34200  290.26 0854.42
2009/04/23 13:52:24.8    -263   -324     98    418    430 219.0  13.2  34182  289.95 0854.42
2009/04/23 13:52:24.9     -61   -275    359    282    456 192.5  58.0  34208  290.38 0854.42
2009/04/23 13:52:25.0       2     37    231     38    234   4.4  90.0  34202  290.30 0854.42
2009/04/23 13:52:25.1    -109    -25    273    112    295 256.7  76.8  34212  290.44 0854.42
2009/04/23 13:52:25.2    -204     16    245    205    319 274.6  55.8  34194  290.14 0854.42
2009/04/23 13:52:25.3    -193     68    106    205    230 289.5  29.3  34206  290.36 0854.42
2009/04/23 13:52:25.4    -348   -468    332    584    671 216.6  32.2  34196  290.18 0854.42
2009/04/23 13:52:25.5    -340   -416    137    538    556 219.3  14.3  34212  290.45 0854.42
2009/04/23 13:52:25.6    -143   -392    321    418    527 200.1  41.5  34196  290.18 0854.42
2009/04/23 13:52:25.7    -112   -469    365    483    605 193.5  40.9  34192  290.13 0854.42
2009/04/23 13:52:25.8    -141   -407    346    432    553 199.2  42.7  34192  290.13 0854.42
2009/04/23 13:52:25.9    -117   -154      1    194    195 217.4   0.5  34200  290.26 0854.42
2009/04/23 13:52:26.0    -246    -45     12    251    252 259.6   2.9  34194  290.15 0854.42
2009/04/23 13:52:26.1    -247    -41    177    251    307 260.5  38.6  34212  290.44 0854.42
2009/04/23 13:52:26.2    -306     14     67    307    315 272.8  12.4  34210  290.41 0854.42
2009/04/23 13:52:26.3    -254    -61    -89    262    276 256.3 -23.6  34214  290.49 0854.42
2009/04/23 13:52:26.4    -263    -55    -72    269    279 258.1 -15.0  34218  290.56 0854.42
2009/04/23 13:52:26.5    -596   -140   -218    613    650 256.8 -24.7  34216  290.52 0854.42
2009/04/23 13:52:26.6    -772    -12   -306    773    831 269.1 -27.3  34204  290.33 0854.42
2009/04/23 13:52:26.7    -593   -162   -169    615    639 254.7 -15.4  34202  290.28 0854.42
2009/04/23 13:52:26.8    -616   -123   -189    629    657 258.7 -16.8  34216  290.52 0854.42
2009/04/23 13:52:26.9    -554    -76   -101    560    570 262.2 -10.3  34226  290.69 0854.42
2009/04/23 13:52:27.0    -644   -112    -20    654    655 260.1  -1.8  34238  290.89 0854.42
2009/04/23 13:52:27.1    -495   -248    -11    554    555 243.4  -1.2  34226  290.70 0854.42
2009/04/23 13:52:27.2    -268   -324    -43    421    424 219.6  -5.9  34214  290.48 0854.42
2009/04/23 13:52:27.3     -52   -375   -105    379    393 187.9 -20.2  34212  290.45 0854.42
2009/04/23 13:52:27.4      36   -290   -162    293    334 172.9 -35.8  34210  290.42 0854.42
2009/04/23 13:52:27.5     187   -378   -137    422    444 153.6 -18.1  34206  290.34 0854.42
2009/04/23 13:52:27.6     298   -244     35    386    388 129.4   5.3  34206  290.35 0854.42
2009/04/23 13:52:27.7     162   -221    158    275    317 143.7  32.6  34206  290.36 0854.42
2009/04/23 13:52:27.8     167    -34    155    171    230 101.7  47.1  34202  290.28 0854.42
2009/04/23 13:52:27.9     178   -129    120    220    250 126.0  31.0  34206  290.34 0854.42
2009/04/23 13:52:28.0     323   -382    163    501    527 139.8  18.0  34196  290.17 0854.42
2009/04/23 13:52:28.1     526   -380    153    650    668 125.9  13.3  34198  290.21 0854.42
2009/04/23 13:52:28.2     594   -375     84    703    709 122.2   6.9  34192  290.10 0854.42
2009/04/23 13:52:28.3     219   -590    120    630    642 159.6  10.8  34200  290.25 0854.42
2009/04/23 13:52:28.4     129   -625    241    639    682 168.3  21.7  34192  290.10 0854.42
2009/04/23 13:52:28.5     141   -403    245    428    493 160.7  32.3  34200  290.25 0854.42
2009/04/23 13:52:28.6     120   -386    109    405    420 162.7  15.1  34198  290.21 0854.42
2009/04/23 13:52:28.7      -7    -54    213     55    219 188.0  85.4  34214  290.48 0854.42
2009/04/23 13:52:28.8      82    -23    155     86    177 105.9  68.8  34210  290.43 0854.42
2009/04/23 13:52:28.9      87    -77    197    117    229 131.8  66.7  34190  290.08 0854.42
2009/04/23 13:52:29.0     249   -121    301    278    409 116.0  52.5  34214  290.49 0854.42
2009/04/23 13:52:29.1    -151     71    276    168    323 295.3  65.8  34210  290.41 0854.42
2009/04/23 13:52:29.2    -125    317    -29    341    343 338.5  -4.9  34202  290.30 0854.42
2009/04/23 13:52:29.3    -146    215    -37    261    264 325.7  -8.2  34210  290.41 0854.42
2009/04/23 13:52:29.4     -15    232     50    233    239 356.2  12.1  34206  290.34 0854.42
2009/04/23 13:52:29.5    -315    420     87    525    533 323.1   9.5  34204  290.33 0854.42
2009/04/23 13:52:29.6    -152    223    198    271    335 325.7  39.7  34210  290.42 0854.42
2009/04/23 13:52:29.7    -329   -171    253    371    449 242.5  37.6  34206  290.34 0854.42
2009/04/23 13:52:29.8    -590     79    106    596    606 277.7  10.1  34226  290.68 0854.42
2009/04/23 13:52:29.9    -552     60    104    556    566 276.2  10.6  34212  290.45 0854.42
2009/04/23 13:52:30.0    -544    115    143    557    576 282.0  14.4  34220  290.59 0854.42
2009/04/23 13:52:30.1    -528    -36    -20    530    531 266.1  -2.2  34226  290.69 0854.42
2009/04/23 13:52:30.2    -546    -60    170    550    576 263.7  17.2  34210  290.43 0854.42
2009/04/23 13:52:30.3    -410   -278     34    496    498 235.8   4.0  34212  290.45 0854.42
2009/04/23 13:52:30.4    -625   -318   -180    702    725 243.0 -14.4  34194  290.15 0854.42
2009/04/23 13:52:30.5    -783   -303   -322    840    899 248.8 -26.5  34176  289.84 0854.42
2009/04/23 13:52:30.6    -776   -323   -236    841    873 247.4 -20.3  34196  290.19 0854.42
2009/04/23 13:52:30.7    -935   -362   -351   1003   1063 248.8 -19.3  34192  290.11 0854.42
2009/04/23 13:52:30.8    -892   -241   -268    925    964 254.9 -16.2  34192  290.12 0854.42
2009/04/23 13:52:30.9    -644   -188    -86    671    677 253.7  -7.3  34218  290.55 0854.42
2009/04/23 13:52:31.0    -234   -276   -136    362    386 220.3 -26.0  34214  290.50 0854.42
2009/04/23 13:52:31.1    -181   -401   -169    441    472 204.3 -26.5  34218  290.56 0854.42
2009/04/23 13:52:31.2    -533    -75   -160    539    563 262.0 -16.5  34204  290.33 0854.42
2009/04/23 13:52:31.3    -587   -121   -188    600    628 258.3 -22.4  34214  290.48 0854.42
2009/04/23 13:52:31.4    -644    -80   -255    650    698 262.9 -27.1  34224  290.65 0854.42
2009/04/23 13:52:31.5    -455    -77   -278    462    539 260.4 -38.2  34216  290.51 0854.42
2009/04/23 13:52:31.6    -434   -117   -274    450    526 254.8 -38.6  34196  290.17 0854.42
2009/04/23 13:52:31.7    -369   -100   -394    383    549 254.9 -55.5  34186  290.00 0854.42
2009/04/23 13:52:31.8    -323    -84   -275    334    432 255.3 -48.1  34186  290.02 0854.42
2009/04/23 13:52:31.9    -452     -9   -220    453    503 268.8 -32.1  34210  290.42 0854.42
2009/04/23 13:52:32.0    -467    -27   -172    468    498 266.6 -25.4  34214  290.49 0854.42
2009/04/23 13:52:32.1    -479     91   -251    488    548 280.8 -33.7  34200  290.24 0854.42
2009/04/23 13:52:32.2    -602     56   -280    605    666 275.4 -31.0  34200  290.26 0854.42
2009/04/23 13:52:32.3    -466      0   -249    467    529 270.0 -34.7  34206  290.35 0854.42
2009/04/23 13:52:32.4    -697     12   -268    698    747 271.0 -26.5  34198  290.23 0854.42
2009/04/23 13:52:32.5    -586     -9   -183    587    614 269.1 -22.3  34210  290.41 0854.42
2009/04/23 13:52:32.6    -551   -103   -162    561    583 259.4 -20.8  34218  290.56 0854.42
2009/04/23 13:52:32.7    -683   -143   -101    699    707 258.1  -8.2  34208  290.37 0854.42
2009/04/23 13:52:32.8    -654   -109   -178    664    688 260.5 -15.1  34218  290.56 0854.42
2009/04/23 13:52:32.9    -522   -146   -222    543    586 254.3 -27.9  34202  290.27 0854.42
2009/04/23 13:52:33.0    -426   -191   -246    467    527 245.8 -34.5  34198  290.20 0854.42
2009/04/23 13:52:33.1    -525    -72   -161    530    553 262.1 -21.7  34198  290.23 0854.42
2009/04/23 13:52:33.2    -448   -251   -151    514    536 240.7 -16.4  34196  290.18 0854.42
2009/04/23 13:52:33.3    -436   -240    -58    498    502 241.2  -6.7  34204  290.32 0854.42
2009/04/23 13:52:33.4    -548   -243    -83    600    606 246.0  -7.9  34198  290.20 0854.42
2009/04/23 13:52:33.5    -513   -398   -111    650    660 232.2  -9.7  34202  290.28 0854.42
2009/04/23 13:52:33.6    -435   -326   -172    544    571 233.2 -17.6  34194  290.16 0854.42
2009/04/23 13:52:33.7    -374   -134   -223    398    456 250.2 -35.9  34206  290.34 0854.42
2009/04/23 13:52:33.8    -535    -63   -273    539    604 263.2 -33.5  34200  290.25 0854.42
2009/04/23 13:52:33.9    -519    -36   -286    521    594 266.0 -35.7  34198  290.22 0854.41
2009/04/23 13:52:34.0    -551    -22   -274    552    616 267.6 -32.6  34198  290.22 0854.41
2009/04/23 13:52:34.1    -547    -12   -239    548    597 268.7 -29.5  34196  290.19 0854.41
2009/04/23 13:52:34.2    -512    -35   -179    514    544 266.0 -24.3  34198  290.21 0854.41
2009/04/23 13:52:34.3    -443     62   -197    448    489 278.0 -29.6  34198  290.23 0854.41
2009/04/23 13:52:34.4    -405     -6   -166    406    438 269.1 -27.8  34198  290.21 0854.41
2009/04/23 13:52:34.5    -428     26   -145    429    452 273.5 -23.6  34196  290.19 0854.41
2009/04/23 13:52:34.6    -423     54   -153    427    453 277.4 -25.1  34200  290.26 0854.41
2009/04/23 13:52:34.7    -429    101   -176    441    474 283.3 -27.3  34196  290.19 0854.41
2009/04/23 13:52:34.8    -446    104   -155    459    484 283.2 -23.7  34194  290.15 0854.41
2009/04/23 13:52:34.9    -463     79   -147    470    492 279.8 -22.3  34196  290.18 0854.41
2009/04/23 13:52:35.0    -394    -59   -179    399    437 261.4 -30.2  34198  290.22 0854.41
2009/04/23 13:52:35.1    -405     36   -165    407    439 275.1 -27.8  34196  290.17 0854.41
2009/04/23 13:52:35.2    -451     77   -220    458    508 279.7 -31.8  34198  290.22 0854.41
2009/04/23 13:52:35.3    -485    130   -321    503    596 285.1 -40.0  34196  290.19 0854.41
2009/04/23 13:52:35.4    -380     65   -289    386    482 279.7 -45.1  34202  290.29 0854.41
2009/04/23 13:52:35.5    -286   -130   -202    315    374 245.6 -40.0  34204  290.32 0854.41
2009/04/23 13:52:35.6    -477   -204   -229    519    567 246.8 -29.7  34206  290.36 0854.41
2009/04/23 13:52:35.7    -323   -219   -122    391    409 235.8 -22.3  34200  290.26 0854.41
2009/04/23 13:52:35.8    -424    -68   -272    430    508 260.9 -39.9  34202  290.30 0854.41
2009/04/23 13:52:35.9    -419   -166   -234    451    508 248.3 -33.9  34212  290.45 0854.40
2009/04/23 13:52:36.0    -423   -161   -212    453    500 249.1 -31.4  34202  290.27 0854.40
2009/04/23 13:52:36.1    -373    -22   -196    374    422 266.6 -34.4  34206  290.34 0854.40
2009/04/23 13:52:36.2    -502   -139   -352    521    628 254.5 -41.7  34210  290.42 0854.40
2009/04/23 13:52:36.3    -479   -259    -99    545    554 241.6 -10.4  34210  290.43 0854.40
2009/04/23 13:52:36.4    -518   -247    -97    574    583 244.5  -9.6  34206  290.36 0854.40
2009/04/23 13:52:36.5    -465   -259    -68    533    538 240.8  -7.3  34206  290.36 0854.40
2009/04/23 13:52:36.6    -437   -204   -136    483    501 244.9 -20.3  34216  290.51 0854.40
2009/04/23 13:52:36.7    -462   -136   -170    482    511 253.6 -24.7  34210  290.42 0854.40
2009/04/23 13:52:36.8    -376   -233   -201    443    486 238.3 -30.6  34208  290.37 0854.40
2009/04/23 13:52:36.9    -369   -194    -93    417    428 242.3 -12.6  34192  290.11 0854.40
2009/04/23 13:52:37.0    -410    -84   -132    419    440 258.3 -17.6  34222  290.61 0854.40
2009/04/23 13:52:37.1    -477    -60   -241    481    537 262.8 -33.1  34202  290.28 0854.40
2009/04/23 13:52:37.2    -493   -138   -280    513    584 254.3 -35.4  34204  290.31 0854.40
2009/04/23 13:52:37.3    -473    -87   -262    482    548 259.5 -35.3  34200  290.24 0854.40
2009/04/23 13:52:37.4    -457   -173   -263    489    555 249.2 -35.0  34208  290.40 0854.40
2009/04/23 13:52:37.5    -402   -222   -253    460    524 241.1 -35.7  34208  290.37 0854.40
2009/04/23 13:52:37.6    -341   -194   -183    393    433 240.3 -31.3  34222  290.63 0854.40
2009/04/23 13:52:37.7    -227   -206   -157    307    344 227.8 -33.6  34208  290.40 0854.40
2009/04/23 13:52:37.8    -178   -208   -189    274    332 220.6 -42.3  34214  290.49 0854.40
2009/04/23 13:52:37.9    -228   -269   -151    353    383 220.3 -29.2  34224  290.66 0854.41
2009/04/23 13:52:38.0    -150   -308   -109    343    359 206.1 -22.8  34214  290.49 0854.41
2009/04/23 13:52:38.1    -180   -366    -79    409    417 206.2 -11.0  34216  290.53 0854.41
2009/04/23 13:52:38.2    -248   -321    -90    406    417 217.8 -12.6  34218  290.55 0854.41
2009/04/23 13:52:38.3    -248   -231   -163    340    377 227.0 -31.7  34210  290.42 0854.41
2009/04/23 13:52:38.4    -326   -207    -90    387    398 237.6 -13.1  34228  290.72 0854.41
2009/04/23 13:52:38.5    -319   -224   -119    391    409 234.9 -16.9  34232  290.80 0854.41
2009/04/23 13:52:38.6    -289   -159   -104    330    346 241.2 -22.6  34228  290.72 0854.41
2009/04/23 13:52:38.7    -187   -196    -98    272    289 223.7 -25.1  34216  290.53 0854.41
2009/04/23 13:52:38.8    -310   -181    -55    360    365 239.7  -8.7  34220  290.59 0854.41
2009/04/23 13:52:38.9    -260   -195      6    326    327 233.1   1.1  34226  290.68 0854.41
2009/04/23 13:52:39.0    -220   -307    -57    378    383 215.6  -8.7  34218  290.55 0854.41
2009/04/23 13:52:39.1    -277   -179    -53    330    335 237.1  -9.1  34208  290.37 0854.41
2009/04/23 13:52:39.2    -244   -244     13    346    347 225.0   2.2  34226  290.69 0854.41
2009/04/23 13:52:39.3    -233   -273    -19    360    361 220.5  -3.1  34222  290.62 0854.41
2009/04/23 13:52:39.4    -297   -226     14    374    375 232.7   2.2  34230  290.77 0854.41
2009/04/23 13:52:39.5    -252   -380     38    457    459 213.6   4.9  34230  290.75 0854.41
2009/04/23 13:52:39.6    -200   -290     97    353    367 214.6  15.4  34228  290.72 0854.41
2009/04/23 13:52:39.7    -229   -224     52    321    326 225.7   9.2  34232  290.78 0854.41
2009/04/23 13:52:39.8    -128   -202    169    240    293 212.5  38.6  34226  290.70 0854.41
2009/04/23 13:52:39.9    -321   -130     35    347    349 247.9   5.9  34232  290.81 0854.42
2009/04/23 13:52:40.0    -134   -253    122    287    311 207.9  24.3  34224  290.65 0854.42
2009/04/23 13:52:40.1     -92   -397    111    408    423 193.1  15.3  34220  290.58 0854.42
2009/04/23 13:52:40.2     -40   -455    103    457    469 185.1  12.8  34210  290.42 0854.42
2009/04/23 13:52:40.3      -7   -401     86    402    412 181.1  12.1  34210  290.43 0854.42
2009/04/23 13:52:40.4       0   -376    112    377    394 179.9  16.5  34212  290.47 0854.42
2009/04/23 13:52:40.5      37   -214    166    218    274 170.2  41.4  34210  290.42 0854.42
2009/04/23 13:52:40.6      33   -184    196    188    271 169.8  51.2  34214  290.49 0854.42
2009/04/23 13:52:40.7     -21   -307    181    308    357 184.0  33.1  34210  290.42 0854.42
2009/04/23 13:52:40.8      20   -268    196    269    332 175.6  39.7  34210  290.41 0854.42
2009/04/23 13:52:40.9      12   -260    202    261    330 177.3  41.7  34202  290.27 0854.42
2009/04/23 13:52:41.0      74   -221    191    234    302 161.3  43.7  34210  290.41 0854.42
2009/04/23 13:52:41.1      99   -195    189    219    289 153.0  45.4  34210  290.42 0854.42
2009/04/23 13:52:41.2      48    -88    141    101    173 151.5  61.1  34216  290.53 0854.42
2009/04/23 13:52:41.3     -11   -143    208    144    252 184.4  62.1  34216  290.53 0854.42
2009/04/23 13:52:41.4     103   -161    191    192    270 147.5  50.2  34214  290.48 0854.42
2009/04/23 13:52:41.5      20    -49    116     54    127 157.3  73.1  34222  290.62 0854.42
2009/04/23 13:52:41.6      41   -205    193    210    285 168.7  47.5  34208  290.39 0854.42
2009/04/23 13:52:41.7      38   -127    195    133    236 163.1  62.6  34216  290.53 0854.42
2009/04/23 13:52:41.8      67   -254    194    263    326 165.1  40.1  34208  290.37 0854.42
2009/04/23 13:52:42.0      85   -353    143    364    391 166.5  22.7  34200  290.25 0854.41
2009/04/23 13:52:42.0      41   -327    135    330    356 172.8  23.5  34200  290.25 0854.41
2009/04/23 13:52:42.1      54   -247    139    253    288 167.6  31.3  34206  290.34 0854.41
2009/04/23 13:52:42.2      38   -186    167    190    252 168.4  45.8  34206  290.36 0854.41
2009/04/23 13:52:42.3      32   -230    188    233    299 171.9  43.3  34206  290.36 0854.41
2009/04/23 13:52:42.4     142   -230    159    271    314 148.4  33.0  34206  290.36 0854.41
2009/04/23 13:52:42.5      72   -203    158    216    267 160.4  39.7  34208  290.39 0854.41
2009/04/23 13:52:42.6      42   -151    119    157    197 164.4  41.2  34210  290.43 0854.41
2009/04/23 13:52:42.7      34   -125    124    130    179 164.8  48.7  34214  290.50 0854.41
2009/04/23 13:52:42.8      33    -70    129     78    150 154.6  66.2  34224  290.65 0854.41
2009/04/23 13:52:42.9     -20    -67    140     71    156 196.9  71.4  34220  290.60 0854.41
2009/04/23 13:52:43.0     -42    -66    116     79    140 212.5  62.6  34220  290.58 0854.41
2009/04/23 13:52:43.1    -113   -203    178    233    293 209.0  41.4  34212  290.46 0854.41
2009/04/23 13:52:43.2    -105   -226    258    250    359 204.9  50.9  34212  290.46 0854.41
2009/04/23 13:52:43.3     -77   -193    227    209    308 201.8  52.2  34218  290.54 0854.41
2009/04/23 13:52:43.4     -78   -166    239    184    301 205.2  58.5  34222  290.63 0854.41
2009/04/23 13:52:43.5     -43   -213    216    218    306 191.5  50.0  34210  290.42 0854.41
2009/04/23 13:52:43.6    -129   -219    183    255    313 210.5  39.3  34212  290.46 0854.41
2009/04/23 13:52:43.7    -140   -294    199    326    381 205.5  34.3  34224  290.67 0854.41
2009/04/23 13:52:43.8     -72   -193    230    207    309 200.5  53.5  34234  290.83 0854.41
2009/04/23 13:52:43.9       6    -78    248     79    260 175.5  81.8  34242  290.98 0854.39
2009/04/23 13:52:44.0    -108   -252    393    275    479 203.2  61.7  34208  290.39 0854.39
2009/04/23 13:52:44.1     -79   -359    384    368    531 192.5  51.5  34218  290.54 0854.39
2009/04/23 13:52:44.2    -241   -277    274    368    458 221.0  40.2  34238  290.90 0854.39
2009/04/23 13:52:44.3    -321   -204    132    381    404 237.5  19.2  34238  290.88 0854.39
2009/04/23 13:52:44.4    -114     83    -12    142    143 306.0  -5.2  34228  290.74 0854.39
2009/04/23 13:52:44.5    -211    -84    162    228    279 248.3  39.1  34252  291.12 0854.39
2009/04/23 13:52:44.6    -252    -84    185    266    324 251.6  38.4  34246  291.04 0854.39
2009/04/23 13:52:44.7    -294    -45    218    298    369 261.2  39.7  34254  291.18 0854.39
2009/04/23 13:52:44.8     249    -77    214    261    337 107.3  43.6  34244  290.99 0854.39
2009/04/23 13:52:44.9     -44   -131    299    139    329 198.7  73.4  34234  290.82 0854.41
2009/04/23 13:52:45.0    -207    -45    119    212    243 257.6  31.9  34260  291.26 0854.41
2009/04/23 13:52:45.1    -211    -36    187    215    284 260.3  45.6  34242  290.95 0854.41
2009/04/23 13:52:45.2    -331   -182    138    378    402 241.1  21.0  34272  291.49 0854.41
2009/04/23 13:52:45.3    -304   -144    133    337    362 244.6  22.8  34270  291.45 0854.41
2009/04/23 13:52:45.4    -260   -137    164    294    336 242.2  31.6  34284  291.67 0854.41
2009/04/23 13:52:45.5    -248   -108    118    271    295 246.3  25.1  34260  291.27 0854.41
2009/04/23 13:52:45.6     254   -154    268    298    400 121.3  46.6  34228  290.74 0854.41
2009/04/23 13:52:45.7     -65   -116    250    134    283 209.4  69.8  34228  290.73 0854.41
2009/04/23 13:52:45.8     -69   -207    274    219    350 198.5  57.3  34218  290.54 0854.41
2009/04/23 13:52:45.9      46    -97    267    108    288 154.7  77.0  34234  290.82 0854.41
2009/04/23 13:52:46.0    -170   -103    138    200    242 238.7  37.8  34246  291.03 0854.41
2009/04/23 13:52:46.1    -221   -168    139    278    310 232.7  28.2  34252  291.14 0854.41
2009/04/23 13:52:46.2    -135   -274    220    306    376 206.3  39.5  34234  290.84 0854.41
2009/04/23 13:52:46.3     -89    -32     99     95    137 250.0  51.6  34238  290.91 0854.41
2009/04/23 13:52:46.4    -174   -164    190    240    306 226.8  42.7  34252  291.12 0854.41
2009/04/23 13:52:46.5    -164   -345    343    383    514 205.5  46.4  34218  290.57 0854.41
2009/04/23 13:52:46.6    -137   -135    188    193    269 225.6  49.4  34232  290.78 0854.41
2009/04/23 13:52:46.7    -139   -211    221    253    335 213.4  45.7  34224  290.65 0854.41
2009/04/23 13:52:46.8    -136   -255    223    290    365 208.1  41.5  34216  290.52 0854.41
2009/04/23 13:52:46.9    -146   -245    208    286    353 210.8  39.7  34204  290.32 0854.42
2009/04/23 13:52:47.0    -198   -327    204    383    433 211.1  30.3  34208  290.38 0854.42
2009/04/23 13:52:47.1    -105   -333    247    350    428 197.5  38.6  34208  290.38 0854.42
2009/04/23 13:52:47.2    -101   -319    229    335    405 197.6  37.6  34210  290.42 0854.42
2009/04/23 13:52:47.3     -83   -366    155    376    406 192.8  23.7  34210  290.42 0854.42
2009/04/23 13:52:47.4    -193   -373    143    421    445 207.4  18.8  34214  290.48 0854.42
2009/04/23 13:52:47.5    -141   -321    169    351    389 203.7  27.7  34212  290.45 0854.42
2009/04/23 13:52:47.6    -151   -290    201    327    383 207.5  34.8  34210  290.42 0854.42
2009/04/23 13:52:47.7    -172   -259    196    312    368 213.6  35.5  34220  290.59 0854.42
2009/04/23 13:52:47.8     -44   -265    133    269    300 189.6  28.2  34216  290.51 0854.42
2009/04/23 13:52:47.9     -89   -245    109    261    282 200.1  24.1  34214  290.48 0854.42
2009/04/23 13:52:48.0     -67   -152     86    167    187 203.8  29.3  34214  290.48 0854.42
2009/04/23 13:52:48.1     -88   -188    124    208    242 205.2  33.7  34232  290.79 0854.42
2009/04/23 13:52:48.2     -31   -138    192    142    238 192.9  59.8  34244  290.99 0854.42
2009/04/23 13:52:48.3      -6    -48    143     49    151 187.1  81.2  34254  291.16 0854.42
2009/04/23 13:52:48.4      -2    -19     99     20    101 186.2  89.1  34250  291.09 0854.42
2009/04/23 13:52:48.5      19     23    101     30    105  39.6  82.8  34258  291.25 0854.42
2009/04/23 13:52:48.6     106     50    126    118    172  64.6  52.0  34268  291.40 0854.42
2009/04/23 13:52:48.7      25     37     50     45     67  34.3  52.2  34268  291.42 0854.42
2009/04/23 13:52:48.8      65    109      1    127    128  30.8   0.8  34258  291.23 0854.42
2009/04/23 13:52:48.9     -92     88     65    128    143 314.0  29.2  34238  290.91 0854.44
2009/04/23 13:52:49.0     -85     69      5    110    111 309.1   2.9  34244  290.99 0854.44
2009/04/23 13:52:49.2     -97     32     61    103    119 288.6  33.5  34240  290.92 0854.44
2009/04/23 13:52:49.2    -149    -62     28    162    165 247.4  10.1  34252  291.13 0854.44
2009/04/23 13:52:49.4    -157   -247    -13    293    294 212.5  -2.6  34246  291.02 0854.44
2009/04/23 13:52:49.5    -163   -239     61    290    297 214.2  12.0  34224  290.65 0854.44
2009/04/23 13:52:49.6    -244   -235     63    340    346 226.1  10.6  34232  290.79 0854.44
2009/04/23 13:52:49.7     -59   -157    221    168    277 200.7  59.0  34244  290.99 0854.44
2009/04/23 13:52:49.8     -31    -31    223     44    227 225.1  89.1  34248  291.08 0854.44
2009/04/23 13:52:49.9      82      0    114     83    141  90.4  60.5  34248  291.08 0854.44
2009/04/23 13:52:50.0     -25    -87      3     91     92 196.0   2.3  34234  290.82 0854.44
2009/04/23 13:52:50.1     -51    -10     65     53     83 258.6  56.4  34226  290.70 0854.44
2009/04/23 13:52:50.2     -12    -67    117     69    135 190.7  66.7  34238  290.89 0854.44
2009/04/23 13:52:50.3     -57   -120    176    133    220 205.5  59.2  34236  290.86 0854.44
2009/04/23 13:52:50.4     -64   -126    122    142    187 207.2  45.1  34232  290.81 0854.44
2009/04/23 13:52:50.5     -82   -162     73    182    196 207.0  23.0  34228  290.74 0854.44
2009/04/23 13:52:50.6     -95   -196    161    218    271 205.9  39.9  34222  290.61 0854.44
2009/04/23 13:52:50.7    -154   -223    100    272    289 214.7  21.0  34222  290.61 0854.44
2009/04/23 13:52:50.8    -203   -183     84    274    287 228.0  17.1  34228  290.71 0854.44
2009/04/23 13:52:50.9    -160   -150     71    220    232 226.8  17.9  34240  290.94 0854.44
2009/04/23 13:52:51.0    -128   -214     41    250    254 210.8   9.5  34224  290.65 0854.47
2009/04/23 13:52:51.1     -86   -192     74    211    224 204.3  19.4  34246  291.04 0854.47
2009/04/23 13:52:51.2    -107   -232     80    256    269 204.9  17.4  34234  290.83 0854.47
2009/04/23 13:52:51.3     -76   -194     30    209    212 201.4   8.2  34234  290.84 0854.47
2009/04/23 13:52:51.4     -83   -161     71    182    195 207.2  22.0  34252  291.13 0854.47
2009/04/23 13:52:51.5     -31   -222    138    225    263 188.0  34.5  34232  290.80 0854.47
2009/04/23 13:52:51.6      23   -221     97    223    243 174.0  25.1  34234  290.83 0854.47
2009/04/23 13:52:51.7      13   -168    147    169    223 175.3  45.8  34242  290.96 0854.47
2009/04/23 13:52:51.8      56   -219    161    227    278 165.5  38.8  34238  290.90 0854.47
2009/04/23 13:52:51.9      66   -206    120    217    247 162.2  31.4  34238  290.90 0854.47
2009/04/23 13:52:52.0      41   -189     76    194    208 167.5  22.5  34234  290.82 0854.47
2009/04/23 13:52:52.1      71   -109    124    131    180 147.0  48.2  34248  291.08 0854.47
2009/04/23 13:52:52.2     173   -140    130    223    258 129.1  32.9  34240  290.93 0854.47
2009/04/23 13:52:52.3     155   -160     88    224    240 135.9  22.5  34222  290.63 0854.47
2009/04/23 13:52:52.4     166   -168    115    237    263 135.5  27.4  34228  290.73 0854.47
2009/04/23 13:52:52.5     180   -146    109    232    256 129.1  27.1  34228  290.73 0854.47
2009/04/23 13:52:52.6     197    -47    134    203    243 103.5  36.5  34232  290.81 0854.47
2009/04/23 13:52:52.7     195    -46    141    201    245 103.5  38.6  34226  290.69 0854.47
2009/04/23 13:52:52.8     127     -2    157    128    202  91.3  56.4  34240  290.94 0854.47
2009/04/23 13:52:52.9      11     57    108     59    123  11.6  68.9  34256  291.20 0854.47
2009/04/23 13:52:53.0     -37     29    101     48    111 307.8  72.9  34264  291.33 0854.52
2009/04/23 13:52:53.1     -25     76    111     81    137 341.5  60.5  34252  291.15 0854.52
2009/04/23 13:52:53.2      22     22     95     32    100  45.1  81.0  34242  290.96 0854.52
2009/04/23 13:52:53.3       9    -78    106     79    132 172.9  59.4  34230  290.75 0854.52
2009/04/23 13:52:53.4       8     -2    120      9    120 108.2  90.0  34242  290.96 0854.52
2009/04/23 13:52:53.5      81    -28    139     86    163 109.5  65.1  34228  290.74 0854.52
2009/04/23 13:52:53.6      61    -72    152     95    179 139.9  64.9  34228  290.72 0854.52
2009/04/23 13:52:53.7     -14     -2    109     15    110 258.5  90.0  34236  290.87 0854.52
2009/04/23 13:52:53.8      27     35    111     45    119  37.0  77.0  34234  290.82 0854.52
2009/04/23 13:52:53.9      12      0    116     13    116  85.6  90.0  34228  290.72 0854.52
2009/04/23 13:52:54.0       3     -3    142      5    142 135.0  90.0  34234  290.82 0854.52
2009/04/23 13:52:54.1      28     -2    156     29    158  94.3  90.0  34234  290.82 0854.52
2009/04/23 13:52:54.2       8    -15    142     18    143 151.0  90.0  34226  290.70 0854.52
2009/04/23 13:52:54.3      33    109    116    114    162  16.9  50.1  34238  290.89 0854.52
2009/04/23 13:52:54.4     -65    -41    222     77    234 237.6  80.3  34236  290.86 0854.52
2009/04/23 13:52:54.5     -85     83    134    120    179 314.4  53.5  34238  290.89 0854.52
2009/04/23 13:52:54.6    -158     41     87    164    185 284.8  30.1  34228  290.72 0854.52
2009/04/23 13:52:54.7    -226   -146     84    270    283 237.1  17.3  34226  290.68 0854.52
2009/04/23 13:52:54.8    -225   -154     49    273    278 235.6  10.3  34224  290.65 0854.52
2009/04/23 13:52:54.9    -207   -219     47    302    306 223.4   9.0  34230  290.75 0854.52
2009/04/23 13:52:55.0     -58   -207     93    216    235 195.8  24.9  34234  290.82 0854.49
2009/04/23 13:52:55.1     -61   -156    111    168    201 201.4  36.7  34228  290.72 0854.49
2009/04/23 13:52:55.2    -170   -121     76    209    222 234.5  20.9  34234  290.84 0854.49
2009/04/23 13:52:55.3    -256    -99      0    275    276 248.7   0.0  34272  291.46 0854.49
2009/04/23 13:52:55.4    -212   -166    -61    270    277 232.0 -12.9  34254  291.16 0854.49
2009/04/23 13:52:55.5    -202   -194    -71    281    291 226.2 -14.3  34246  291.04 0854.49
2009/04/23 13:52:55.6    -183   -178    -74    256    266 225.8 -20.8  34232  290.78 0854.49
2009/04/23 13:52:55.7    -112   -213    -78    241    254 207.9 -18.1  34236  290.85 0854.49
2009/04/23 13:52:55.8     -81   -243    -37    257    260 198.5  -8.3  34230  290.76 0854.49
2009/04/23 13:52:55.9     -54   -163     -4    172    173 198.3  -1.6  34228  290.72 0854.49
2009/04/23 13:52:56.0     -18   -235     55    236    243 184.4  13.2  34224  290.66 0854.49
2009/04/23 13:52:56.1     -28   -104    -37    108    115 195.2 -19.1  34228  290.72 0854.49
2009/04/23 13:52:56.2     -62    -38      8     73     74 238.5   6.9  34242  290.96 0854.49
2009/04/23 13:52:56.3     -65    -17      3     68     69 254.9   2.9  34242  290.98 0854.49
2009/04/23 13:52:56.4    -109    -58     44    124    131 241.6  20.0  34244  291.01 0854.49
2009/04/23 13:52:56.5     -61    -61    -47     87     98 225.1 -35.7  34236  290.87 0854.49
2009/04/23 13:52:56.6    -127    -54     -3    139    140 246.9  -1.3  34244  290.99 0854.49
2009/04/23 13:52:56.7     -77    -51    -28     93     98 236.3 -17.0  34240  290.94 0854.49
2009/04/23 13:52:56.8     -17   -177    -35    178    182 185.8 -11.1  34230  290.75 0854.49
2009/04/23 13:52:56.9    -130   -140    -10    192    193 222.8  -3.1  34230  290.77 0854.49
2009/04/23 13:52:57.0     -76   -119    -39    142    148 212.5 -15.4  34228  290.74 0854.41
2009/04/23 13:52:57.1    -101    -93    -13    138    139 227.3  -5.6  34226  290.69 0854.41
2009/04/23 13:52:57.2    -127    -58    -56    140    150 245.2 -27.4  34248  291.06 0854.41
2009/04/23 13:52:57.3     -87   -101    -49    134    142 221.0 -25.3  34232  290.81 0854.41
2009/04/23 13:52:57.4     -58   -104    -52    120    130 209.0 -29.5  34230  290.77 0854.41
2009/04/23 13:52:57.5    -120    -39    -90    127    155 251.8 -43.5  34242  290.96 0854.41
2009/04/23 13:52:57.6    -121    -14    -76    122    143 263.0 -39.9  34248  291.08 0854.41
2009/04/23 13:52:57.7    -115    -29    -41    119    125 255.8 -23.3  34256  291.21 0854.41
2009/04/23 13:52:57.8    -104      7    -45    105    114 273.9 -28.5  34264  291.35 0854.41
2009/04/23 13:52:57.9     -80    -49    -53     95    108 238.5 -35.8  34260  291.26 0854.41
2009/04/23 13:52:58.0    -122    -40    -83    129    153 251.6 -40.0  34252  291.15 0854.41
2009/04/23 13:52:58.1    -137    -78    -48    158    165 240.2 -22.3  34260  291.28 0854.41
2009/04/23 13:52:58.2    -133    -87    -72    160    175 236.7 -30.3  34258  291.23 0854.41
2009/04/23 13:52:58.3     -75    -77    -59    108    123 224.1 -35.7  34264  291.33 0854.41
2009/04/23 13:52:58.4     -87    -84    -51    122    132 226.0 -28.0  34268  291.42 0854.41
2009/04/23 13:52:58.5     -93    -73    -43    119    126 231.8 -24.8  34274  291.52 0854.41
2009/04/23 13:52:58.6     -81    -54    -33     98    103 236.3 -23.6  34266  291.38 0854.41
2009/04/23 13:52:58.7     -84    -45    -31     96    101 241.6 -18.1  34266  291.38 0854.41
2009/04/23 13:52:58.8    -127    -92    -18    157    159 234.0  -6.7  34274  291.50 0854.41
2009/04/23 13:52:58.9    -147   -139    -13    203    204 226.7  -3.7  34278  291.57 0854.41
2009/04/23 13:52:59.0    -174    -85    -69    194    205 243.8 -24.4  34268  291.42 0854.34
2009/04/23 13:52:59.1    -101      0    -50    102    113 270.0 -32.2  34268  291.42 0854.34
2009/04/23 13:52:59.2     -44     60     25     75     80 323.9  18.9  34268  291.42 0854.34
2009/04/23 13:52:59.3     -58    -42     61     72     94 234.1  44.8  34270  291.43 0854.34
2009/04/23 13:52:59.4     -72    -62     67     96    117 229.1  38.0  34268  291.42 0854.34
2009/04/23 13:52:59.5       5    -95     50     96    108 176.9  29.3  34260  291.26 0854.34
2009/04/23 13:52:59.6      26   -154     55    157    167 170.2  19.6  34226  290.70 0854.34
2009/04/23 13:52:59.7     -23   -236     56    238    245 185.6  13.2  34220  290.58 0854.34
2009/04/23 13:52:59.8    -100   -277    102    295    313 200.0  19.1  34220  290.58 0854.34
2009/04/23 13:52:59.9     -38   -310     84    313    325 187.1  15.0  34220  290.59 0854.34
2009/04/23 13:53:00.0     -68   -349     76    356    365 191.1  12.2  34222  290.64 0854.34
2009/04/23 13:53:00.1     -13   -369     64    370    376 182.1   9.9  34220  290.60 0854.34
2009/04/23 13:53:00.2      14   -328     21    329    330 177.5   3.8  34222  290.62 0854.34
2009/04/23 13:53:00.3      46   -362     33    365    367 172.7   5.2  34222  290.62 0854.34
2009/04/23 13:53:00.4      -9   -309    100    310    326 181.8  18.0  34216  290.53 0854.34
2009/04/23 13:53:00.5      -9   -300     64    301    308 181.8  12.0  34222  290.63 0854.34
2009/04/23 13:53:00.6     -29   -280     18    282    283 186.0   3.8  34222  290.61 0854.34
2009/04/23 13:53:00.7       0   -285     56    286    292 180.1  11.1  34220  290.58 0854.34
2009/04/23 13:53:00.8     -56   -277     97    283    300 191.6  18.9  34224  290.66 0854.34
2009/04/23 13:53:00.9     -31   -292    102    294    312 186.2  19.2  34216  290.53 0854.34
2009/04/23 13:53:01.0     -33   -321    117    323    343 186.0  20.8  34222  290.62 0854.38
2009/04/23 13:53:01.1     106   -293    171    312    355 160.0  31.3  34218  290.55 0854.38
2009/04/23 13:53:01.2     190   -385    257    430    500 153.7  33.6  34216  290.52 0854.38
2009/04/23 13:53:01.3     189   -369    123    415    433 152.8  16.5  34216  290.51 0854.38
2009/04/23 13:53:01.4      95   -337    121    351    372 164.2  19.1  34214  290.49 0854.38
2009/04/23 13:53:01.5       0   -348    191    349    397 179.9  31.3  34220  290.60 0854.38
2009/04/23 13:53:01.6     -16   -299    160    300    340 183.1  30.6  34214  290.48 0854.38
2009/04/23 13:53:01.7     -44   -275     77    279    290 189.1  15.6  34216  290.51 0854.38
2009/04/23 13:53:01.8      13   -209     21    210    212 176.2   5.9  34220  290.58 0854.38
2009/04/23 13:53:01.9      76   -269      3    280    281 164.2   0.7  34220  290.58 0854.38
2009/04/23 13:53:02.0     219   -304    -26    375    376 144.2  -4.0  34222  290.62 0854.38
2009/04/23 13:53:02.1      35   -283    137    286    317 172.9  27.4  34224  290.65 0854.38
2009/04/23 13:53:02.2      50   -230     -1    236    237 167.7  -0.3  34220  290.59 0854.38
2009/04/23 13:53:02.3     119   -187    -43    222    227 147.5 -11.1  34222  290.62 0854.38
2009/04/23 13:53:02.4     112   -146     62    185    196 142.6  18.6  34222  290.64 0854.38
2009/04/23 13:53:02.5      43   -128     53    136    145 161.3  22.5  34226  290.69 0854.38
2009/04/23 13:53:02.6       3   -193    -42    194    199 179.1 -12.4  34222  290.64 0854.38
2009/04/23 13:53:02.7      20   -209    -86    211    227 174.4 -27.5  34228  290.74 0854.38
2009/04/23 13:53:02.8      25   -102    -37    106    113 166.2 -19.6  34224  290.67 0854.38
2009/04/23 13:53:02.9     -67    -93     50    115    125 216.0  25.1  34222  290.64 0854.38
2009/04/23 13:53:03.0      23   -180     23    182    184 172.7   7.2  34230  290.77 0854.40
2009/04/23 13:53:03.1       4   -173    -31    174    177 178.4 -10.3  34232  290.79 0854.40
2009/04/23 13:53:03.2     -74    -96    -32    122    127 217.8 -15.0  34230  290.77 0854.40
2009/04/23 13:53:03.3     -64    -87    -42    109    116 216.5 -25.9  34230  290.77 0854.40
2009/04/23 13:53:03.4     -25    -46    -73     53     90 209.0 -64.9  34234  290.82 0854.40
2009/04/23 13:53:03.5      -2     26     -6     27     28 355.5 -13.4  34236  290.86 0854.40
2009/04/23 13:53:03.6     114      8     45    115    123  85.7  22.5  34236  290.86 0854.40
2009/04/23 13:53:03.7     158     37     74    163    179  76.7  26.2  34230  290.77 0854.40
2009/04/23 13:53:03.8     107     20    101    109    148  79.0  47.9  34234  290.82 0854.40
2009/04/23 13:53:03.9      28    -31    102     42    110 137.7  76.6  34240  290.94 0854.40
2009/04/23 13:53:04.0      49     -9     96     50    108 100.6  70.8  34238  290.91 0854.40
2009/04/23 13:53:04.1     164     32    130    168    212  79.0  41.7  34232  290.79 0854.40
2009/04/23 13:53:04.2     -13    -54    181     56    189 194.3  82.3  34244  291.01 0854.40
2009/04/23 13:53:04.3      -1    -10    120     11    120 188.0  90.0  34244  291.01 0854.40
2009/04/23 13:53:04.4      60     51    109     79    134  49.6  60.5  34244  291.01 0854.40
2009/04/23 13:53:04.5     122     17    145    124    190  82.1  55.4  34244  290.99 0854.40
2009/04/23 13:53:04.6     131     -3    129    132    184  91.7  49.8  34240  290.94 0854.40
2009/04/23 13:53:04.7     151     55    179    161    240  70.0  53.3  34240  290.94 0854.40
2009/04/23 13:53:04.8      45    -10    161     47    167 102.4  83.3  34246  291.03 0854.40
2009/04/23 13:53:04.9     106     65    101    125    160  58.5  43.3  34242  290.96 0854.40
2009/04/23 13:53:05.0      77     49     89     92    128  57.6  49.4  34238  290.91 0854.31
2009/04/23 13:53:05.1      73     78     94    108    143  43.2  45.8  34242  290.96 0854.31
2009/04/23 13:53:05.2      46    115     42    124    132  21.8  18.9  34234  290.82 0854.31
2009/04/23 13:53:05.3      63     94     23    114    117  33.8  11.6  34232  290.81 0854.31
2009/04/23 13:53:05.4      30    150     10    154    155  11.6   3.8  34234  290.84 0854.31
2009/04/23 13:53:05.5      13    153     17    154    155   4.9   6.5  34234  290.84 0854.31
2009/04/23 13:53:05.6       2    150      4    151    152   0.9   1.8  34232  290.81 0854.31
2009/04/23 13:53:05.7      70    137     38    155    160  27.2  13.9  34238  290.89 0854.31
2009/04/23 13:53:05.8      21    126     61    128    141   9.7  27.2  34242  290.98 0854.31
2009/04/23 13:53:05.9     -22    131     19    133    135 350.2   8.5  34246  291.04 0854.31
2009/04/23 13:53:06.0      80    140     52    162    171  29.9  17.9  34238  290.91 0854.28
2009/04/23 13:53:06.1      21    119    -31    121    125  10.2 -14.5  34248  291.08 0854.28
2009/04/23 13:53:06.2      62     85     37    106    113  36.1  19.2  34242  290.98 0854.28
2009/04/23 13:53:06.3      49    128     55    138    148  20.9  23.0  34246  291.04 0854.28
2009/04/23 13:53:06.4     -26    116     62    119    134 347.1  29.3  34244  291.01 0854.28
2009/04/23 13:53:06.5     -30    119     59    123    136 345.7  27.3  34246  291.04 0854.28
2009/04/23 13:53:06.6     -19     71     63     74     97 344.9  44.8  34248  291.08 0854.28
2009/04/23 13:53:06.7     -11     39     66     41     77 343.1  64.7  34244  291.01 0854.28
2009/04/23 13:53:06.8     -34      4     95     35    101 277.9  79.2  34244  291.01 0854.28
2009/04/23 13:53:06.9     -32     -8     28     34     44 254.9  44.8  34230  290.77 0854.28
2009/04/23 13:53:07.0     -71   -128   -122    147    191 208.9 -48.2  34214  290.48 0854.28
2009/04/23 13:53:07.1     -15   -132    106    133    170 186.7  42.7  34220  290.58 0854.28
2009/04/23 13:53:07.2    -152    -38    -66    157    170 255.8 -28.5  34208  290.38 0854.28
2009/04/23 13:53:07.3    -322     14   -123    323    345 272.5 -26.2  34202  290.27 0854.28
2009/04/23 13:53:07.4    -331    -96    -95    345    358 253.8 -15.4  34210  290.42 0854.28
2009/04/23 13:53:07.5    -275    -95    -83    291    302 250.9 -20.7  34206  290.36 0854.28
2009/04/23 13:53:07.6    -160   -143     84    215    230 228.2  22.5  34218  290.55 0854.28
2009/04/23 13:53:07.7     -66   -187     71    199    211 199.4  20.2  34220  290.58 0854.28
2009/04/23 13:53:07.8       6   -113    116    114    162 176.9  50.1  34228  290.72 0854.28
2009/04/23 13:53:07.9     -21   -136    149    138    203 188.9  52.2  34236  290.87 0854.28
2009/04/23 13:53:08.0    -102   -163     -7    193    194 212.1  -2.1  34230  290.75 0854.24
2009/04/23 13:53:08.1    -125   -158     39    202    206 218.3  11.0  34226  290.70 0854.24
2009/04/23 13:53:08.2    -120   -112     12    165    166 227.1   4.4  34226  290.70 0854.24
2009/04/23 13:53:08.3    -143    -65     10    158    159 245.6   3.8  34224  290.67 0854.24
2009/04/23 13:53:08.4    -158   -130   -135    205    245 230.5 -40.9  34208  290.37 0854.24
2009/04/23 13:53:08.5    -264   -207   -185    336    383 231.9 -35.7  34208  290.40 0854.24
2009/04/23 13:53:08.6      76   -270     87    281    295 164.2  17.3  34220  290.59 0854.24
2009/04/23 13:53:08.7    -214   -369    -64    427    432 210.2  -8.6  34222  290.61 0854.24
2009/04/23 13:53:08.8    -173   -419     30    454    456 202.5   3.8  34242  290.97 0854.24
2009/04/23 13:53:08.9      -6   -476     27    477    478 180.8   3.3  34242  290.98 0854.24
2009/04/23 13:53:09.0      61   -488     39    492    494 172.8   4.6  34220  290.59 0854.24
2009/04/23 13:53:09.1      24   -318    159    319    356 175.6  28.6  34228  290.71 0854.24
2009/04/23 13:53:09.2     -85   -437     55    446    450 191.1   7.1  34220  290.60 0854.24
2009/04/23 13:53:09.3    -104   -377    148    392    419 195.5  21.7  34230  290.75 0854.24
2009/04/23 13:53:09.4    -150   -399    248    427    493 200.7  32.8  34236  290.85 0854.24
2009/04/23 13:53:09.5     -83   -479    182    487    519 189.9  21.5  34218  290.57 0854.24
2009/04/23 13:53:09.6    -120   -469    165    485    513 194.4  18.8  34218  290.54 0854.24
2009/04/23 13:53:09.7    -135   -388    103    411    424 199.2  14.2  34224  290.67 0854.24
2009/04/23 13:53:09.8     -80   -317    163    328    366 194.3  28.4  34224  290.66 0854.24
2009/04/23 13:53:09.9    -160   -318     98    357    371 206.7  15.4  34226  290.69 0854.24
2009/04/23 13:53:10.0    -194   -282    160    343    378 214.6  27.0  34224  290.66 0854.25
2009/04/23 13:53:10.1    -221   -398    194    456    495 209.0  24.5  34228  290.71 0854.25
2009/04/23 13:53:10.2    -392   -380     99    546    556 225.9  10.3  34216  290.53 0854.25
2009/04/23 13:53:10.3    -651   -377   -131    753    765 239.9  -9.9  34214  290.48 0854.25
2009/04/23 13:53:10.4    -585   -473   -153    753    769 231.0 -11.5  34206  290.36 0854.25
2009/04/23 13:53:10.5    -628   -382   -149    736    751 238.7 -11.5  34206  290.35 0854.25
2009/04/23 13:53:10.6    -665   -429   -218    792    822 237.2 -15.4  34214  290.50 0854.25
2009/04/23 13:53:10.7    -439   -245    -93    504    513 240.8 -10.5  34218  290.57 0854.25
2009/04/23 13:53:10.8    -297   -160    -47    338    342 241.6  -8.0  34218  290.55 0854.25
2009/04/23 13:53:10.9    -179    -22    -10    181    182 262.8  -3.2  34224  290.67 0854.25
2009/04/23 13:53:11.0    -116    -73    102    138    171 237.6  40.4  34222  290.64 0854.25
2009/04/23 13:53:11.1    -105   -122     -3    162    163 220.8  -1.1  34218  290.55 0854.25
2009/04/23 13:53:11.2    -157    -41    -35    163    167 255.4 -12.4  34212  290.45 0854.25
2009/04/23 13:53:11.3    -316   -256   -124    407    425 231.0 -21.9  34214  290.48 0854.25
2009/04/23 13:53:11.4    -424   -168   -229    457    511 248.3 -33.1  34216  290.51 0854.25
2009/04/23 13:53:11.5    -278   -147   -214    315    380 242.1 -41.8  34212  290.47 0854.25
2009/04/23 13:53:11.6    -391   -324   -266    508    573 230.4 -34.4  34204  290.33 0854.25
2009/04/23 13:53:11.7    -294   -295   -281    417    502 224.9 -41.6  34212  290.47 0854.25
2009/04/23 13:53:11.8    -376   -458   -178    593    620 219.4 -16.7  34212  290.46 0854.25
2009/04/23 13:53:11.9    -543   -402   -326    676    750 233.5 -32.1  34188  290.03 0854.25
2009/04/23 13:53:12.0    -389   -422   -333    575    664 222.7 -37.2  34170  289.74 0854.27
2009/04/23 13:53:12.1    -294   -503   -354    583    682 210.3 -38.6  34170  289.74 0854.27
2009/04/23 13:53:12.2    -296   -595   -375    665    763 206.5 -36.3  34196  290.18 0854.27
2009/04/23 13:53:12.3    -371   -487   -297    613    681 217.3 -32.1  34172  289.78 0854.27
2009/04/23 13:53:12.4    -261   -448   -322    519    610 210.3 -39.3  34164  289.64 0854.27
2009/04/23 13:53:12.5    -305   -250   -181    395    434 230.7 -30.7  34204  290.31 0854.27
2009/04/23 13:53:12.6    -282   -410   -102    498    509 214.5 -11.6  34202  290.27 0854.27
2009/04/23 13:53:12.7    -218   -458     64    508    513 205.5   7.2  34208  290.40 0854.27
2009/04/23 13:53:12.8    -270   -649   -246    703    745 202.6 -19.3  34134  289.13 0854.27
2009/04/23 13:53:12.9    -338   -728   -246    803    839 204.9 -21.9  34126  289.01 0854.27
2009/04/23 13:53:13.0    -438   -607   -239    749    786 215.9 -22.8  34150  289.39 0854.27
2009/04/23 13:53:13.1    -367   -574   -187    682    707 212.6 -20.0  34168  289.71 0854.27
2009/04/23 13:53:13.2    -122   -637    151    649    667 190.9  13.1  34200  290.26 0854.27
2009/04/23 13:53:13.3     145   -877    -27    890    891 170.6  -1.8  34166  289.67 0854.27
2009/04/23 13:53:13.4     189   -919    -42    939    940 168.3  -2.6  34162  289.59 0854.27
2009/04/23 13:53:13.5     114   -767   -215    776    806 171.5 -15.5  34180  289.91 0854.27
2009/04/23 13:53:13.6     235   -843    -91    876    881 164.4  -6.0  34182  289.96 0854.27
2009/04/23 13:53:13.7     296   -870    -18    920    921 161.2  -1.2  34188  290.06 0854.27
2009/04/23 13:53:13.8     203   -643   -123    675    687 162.4 -10.4  34184  289.99 0854.27
2009/04/23 13:53:13.9    -128   -488   -180    505    537 194.8 -19.7  34196  290.18 0854.27
2009/04/23 13:53:14.0     -67   -667   -112    671    681 185.8  -9.5  34194  290.16 0854.23
2009/04/23 13:53:14.1    -130   -724   -218    736    767 190.2 -21.4  34182  289.95 0854.23
2009/04/23 13:53:14.2    -127   -918    -86    927    932 187.9  -5.3  34192  290.10 0854.23
2009/04/23 13:53:14.3     -41   -858     48    860    862 182.8   3.2  34190  290.09 0854.23
2009/04/23 13:53:14.4      34   -709    -98    710    717 177.2  -7.9  34188  290.03 0854.23
2009/04/23 13:53:14.5     -45   -762   -156    764    781 183.4 -11.6  34188  290.05 0854.23
2009/04/23 13:53:14.6      -3   -854    -60    855    858 180.2  -4.0  34174  289.80 0854.23
2009/04/23 13:53:14.7      60   -885    -60    887    889 176.1  -3.9  34168  289.72 0854.23
2009/04/23 13:53:14.8      34   -834    -24    835    836 177.7  -1.7  34168  289.72 0854.23
2009/04/23 13:53:14.9     -76   -812    -31    816    817 185.4  -2.2  34166  289.67 0854.23
2009/04/23 13:53:15.0     -35   -783    -65    784    787 182.6  -4.8  34146  289.32 0854.23
2009/04/23 13:53:15.1     179   -668     28    692    693 165.0   2.4  34170  289.75 0854.23
2009/04/23 13:53:15.2     130   -652     21    665    666 168.7   1.9  34170  289.73 0854.23
2009/04/23 13:53:15.4      19   -700    -85    701    707 178.4  -7.0  34144  289.30 0854.23
2009/04/23 13:53:15.5     -17   -624    -71    625    630 181.6  -6.5  34160  289.57 0854.23
2009/04/23 13:53:15.5     -28   -600    -81    601    607 182.7  -7.7  34146  289.32 0854.23
2009/04/23 13:53:15.6     -70   -677    -95    681    688 185.9  -8.0  34146  289.34 0854.23
2009/04/23 13:53:15.8     -53   -602   -180    605    632 185.1 -16.6  34166  289.67 0854.23
2009/04/23 13:53:15.9     -48   -590   -125    593    607 184.7 -11.9  34176  289.83 0854.23
2009/04/23 13:53:16.0    -112   -621   -178    632    657 190.2 -15.8  34188  290.04 0854.23
2009/04/23 13:53:16.1     -44   -657     43    659    661 183.9   3.8  34156  289.49 0854.18
2009/04/23 13:53:16.2     -55   -592    119    595    607 185.4  11.3  34164  289.64 0854.18
2009/04/23 13:53:16.3     -25   -539     82    540    547 182.7   8.7  34176  289.85 0854.18
2009/04/23 13:53:16.4      69   -521     25    526    527 172.4   2.8  34176  289.84 0854.18
2009/04/23 13:53:16.5      27   -560    -49    561    564 177.2  -5.1  34180  289.90 0854.18
2009/04/23 13:53:16.6      49   -543     31    546    547 174.8   3.3  34182  289.94 0854.18
2009/04/23 13:53:16.7      43   -498     28    500    501 175.0   3.2  34182  289.95 0854.18
2009/04/23 13:53:16.8      60   -469     79    473    480 172.7   9.5  34170  289.73 0854.18
2009/04/23 13:53:16.9      59   -497     97    501    511 173.2  11.0  34170  289.73 0854.18
2009/04/23 13:53:17.0     -22   -486    129    487    504 182.6  14.9  34162  289.61 0854.18
2009/04/23 13:53:17.1      78   -436    157    444    470 169.8  20.3  34168  289.70 0854.18
2009/04/23 13:53:17.2      99   -490    171    500    529 168.6  18.9  34160  289.58 0854.18
2009/04/23 13:53:17.3      23   -451    180    452    486 177.0  23.0  34152  289.45 0854.18
2009/04/23 13:53:17.4     165   -471    139    500    520 160.7  15.6  34160  289.57 0854.18
2009/04/23 13:53:17.5     116   -450    118    465    480 165.5  14.3  34158  289.54 0854.18
2009/04/23 13:53:17.6     178   -383    162    423    452 155.1  22.1  34156  289.49 0854.18
2009/04/23 13:53:17.7     193   -319    130    374    397 148.8  19.2  34158  289.55 0854.18
2009/04/23 13:53:17.8      77   -278    108    289    308 164.4  21.3  34158  289.53 0854.18
2009/04/23 13:53:17.9      32   -211     -9    214    215 171.3  -2.6  34162  289.60 0854.18
2009/04/23 13:53:18.0      51   -185      2    193    194 164.4   0.8  34160  289.57 0854.18
2009/04/23 13:53:18.1      36   -209    -12    213    214 170.2  -3.3  34160  289.57 0854.22
2009/04/23 13:53:18.2      25   -228    -16    230    231 173.5  -4.1  34154  289.46 0854.22
2009/04/23 13:53:18.3     -57   -243     61    250    258 193.4  13.7  34160  289.58 0854.22
2009/04/23 13:53:18.4      -1   -213    -11    214    215 180.5  -3.2  34158  289.55 0854.22
2009/04/23 13:53:18.5      24   -272    -80    274    285 174.9 -21.2  34162  289.59 0854.22
2009/04/23 13:53:18.6     -58   -221    -42    229    233 194.7 -10.5  34164  289.63 0854.22
2009/04/23 13:53:18.7       2   -303    -16    304    305 179.5  -3.1  34164  289.64 0854.22
2009/04/23 13:53:18.8      86   -267    -15    281    282 162.0  -3.2  34172  289.78 0854.22
2009/04/23 13:53:18.9      74   -198     -4    212    213 159.5  -1.2  34170  289.74 0854.22
2009/04/23 13:53:19.0      55   -136     24    147    150 157.7   9.5  34172  289.79 0854.22
2009/04/23 13:53:19.1      76   -128     52    149    157 149.2  20.0  34174  289.82 0854.22
2009/04/23 13:53:19.2     107    -68     63    128    142 122.5  27.8  34180  289.92 0854.22
2009/04/23 13:53:19.3     181    -72     69    196    208 111.8  19.4  34184  289.99 0854.22
2009/04/23 13:53:19.4     205    -62     93    215    234 106.8  25.1  34178  289.87 0854.22
2009/04/23 13:53:19.5     211   -116    116    241    267 118.8  27.3  34182  289.95 0854.22
2009/04/23 13:53:19.6     112    -71    131    133    186 122.5  49.8  34192  290.11 0854.22
2009/04/23 13:53:19.7       4    -64    113     65    130 176.4  67.2  34200  290.26 0854.22
2009/04/23 13:53:19.8     107    -21     89    110    141 101.5  43.7  34194  290.14 0854.22
2009/04/23 13:53:19.9     142    -28     54    145    154 101.5  20.9  34186  290.02 0854.22
2009/04/23 13:53:20.0     137    -64     77    152    170 115.3  28.7  34188  290.04 0854.22
2009/04/23 13:53:20.1      90   -200    103    220    242 155.7  27.0  34190  290.09 0854.22
2009/04/23 13:53:20.2     140   -236     43    275    279 149.2   8.9  34192  290.10 0854.22
2009/04/23 13:53:20.3      55   -291    114    297    318 169.3  22.0  34192  290.12 0854.22
2009/04/23 13:53:20.4     123   -326    132    349    373 159.3  21.7  34192  290.10 0854.22
2009/04/23 13:53:20.5      83   -440    114    448    463 169.3  14.3  34186  290.00 0854.22
2009/04/23 13:53:20.6       0   -369    143    370    396 179.9  22.2  34184  289.99 0854.22
2009/04/23 13:53:20.7       7   -409    190    410    451 179.0  26.9  34200  290.24 0854.22
2009/04/23 13:53:20.8      -6   -429    226    430    485 180.8  30.0  34204  290.32 0854.22
2009/04/23 13:53:20.9      53   -397    213    401    454 172.3  30.3  34204  290.33 0854.22
2009/04/23 13:53:21.0      16   -371    250    372    448 177.5  37.3  34208  290.38 0854.22
2009/04/23 13:53:21.1      47   -454    236    457    514 174.0  29.4  34222  290.64 0854.22
2009/04/23 13:53:21.2      20   -437    239    438    498 177.3  30.9  34238  290.88 0854.22
2009/04/23 13:53:21.3     -10   -352    206    353    408 181.7  33.0  34220  290.59 0854.22
2009/04/23 13:53:21.4     -79   -243     14    256    257 198.0   3.1  34212  290.44 0854.22
2009/04/23 13:53:21.5      21   -123    164    125    206 170.3  58.7  34218  290.55 0854.22
2009/04/23 13:53:21.6     162   -169    100    235    255 136.1  24.3  34208  290.37 0854.22
2009/04/23 13:53:21.7      94   -202     84    223    238 155.1  21.5  34212  290.44 0854.22
2009/04/23 13:53:21.8      73   -220    141    232    271 161.5  34.4  34206  290.34 0854.22
2009/04/23 13:53:21.9     151   -163    117    223    251 137.2  30.1  34200  290.26 0854.22
2009/04/23 13:53:22.0     156   -259     93    303    317 148.8  17.1  34198  290.20 0854.22
2009/04/23 13:53:22.1     129   -295     30    323    325 156.3   5.4  34202  290.27 0854.20
2009/04/23 13:53:22.2     145   -294     37    328    331 153.7   6.5  34198  290.23 0854.20
2009/04/23 13:53:22.3     245   -334     44    415    418 143.8   6.1  34196  290.17 0854.20
2009/04/23 13:53:22.4     326   -466    -71    569    574 145.0  -7.2  34206  290.36 0854.20
2009/04/23 13:53:22.5     253   -407    -18    480    481 148.1  -2.2  34208  290.39 0854.20
2009/04/23 13:53:22.6     282   -350     46    450    453 141.2   5.9  34208  290.39 0854.20
2009/04/23 13:53:22.7     277   -444     21    524    525 148.0   2.4  34200  290.26 0854.20
2009/04/23 13:53:22.8     280   -431     29    515    516 147.0   3.3  34202  290.30 0854.20
2009/04/23 13:53:22.9     281   -361   -117    458    473 142.2 -14.4  34208  290.40 0854.20
2009/04/23 13:53:23.0     242   -334   -143    413    438 144.0 -19.1  34212  290.46 0854.20
2009/04/23 13:53:23.1     307   -411    -29    514    515 143.3  -3.3  34208  290.40 0854.20
2009/04/23 13:53:23.2     275   -275   -127    390    411 135.0 -18.0  34208  290.38 0854.20
2009/04/23 13:53:23.3     257   -275     78    377    386 136.9  11.8  34206  290.35 0854.20
2009/04/23 13:53:23.4     207   -291    -78    358    367 144.6 -12.3  34210  290.43 0854.20
2009/04/23 13:53:23.5      25   -180    -12    182    183 172.0  -3.9  34210  290.43 0854.20
2009/04/23 13:53:23.6     241   -211    151    321    354 131.3  27.1  34208  290.37 0854.20
2009/04/23 13:53:23.7     296   -346     24    456    457 139.5   3.1  34182  289.95 0854.20
2009/04/23 13:53:23.8     243   -475     -6    534    535 152.9  -0.7  34198  290.21 0854.20
2009/04/23 13:53:23.9     206   -451      2    496    497 155.4   0.3  34206  290.34 0854.20
2009/04/23 13:53:24.0     202   -414   -105    461    473 153.9 -12.9  34210  290.42 0854.20
2009/04/23 13:53:24.1     268   -291    -25    396    397 137.4  -3.7  34206  290.35 0854.17
2009/04/23 13:53:24.2     163   -278     -9    323    324 149.5  -1.6  34212  290.44 0854.17
2009/04/23 13:53:24.3     110   -215     -5    242    243 152.8  -1.3  34206  290.36 0854.17
2009/04/23 13:53:24.4     146   -307    -35    341    343 154.5  -6.0  34210  290.43 0854.17
2009/04/23 13:53:24.5     155   -617     52    637    640 165.8   4.7  34192  290.11 0854.17
2009/04/23 13:53:24.6     210   -586   -123    623    636 160.2 -11.2  34190  290.09 0854.17
2009/04/23 13:53:24.7     121   -344     85    365    375 160.6  13.1  34198  290.21 0854.17
2009/04/23 13:53:24.8     246   -282    122    375    395 139.0  18.0  34196  290.18 0854.17
2009/04/23 13:53:24.9      24   -780    153    781    797 178.2  11.1  34194  290.15 0854.17
2009/04/23 13:53:25.0      65   -590    208    594    629 173.7  20.1  34190  290.09 0854.17
2009/04/23 13:53:25.1       2   -525    183    526    558 179.7  19.2  34198  290.21 0854.17
2009/04/23 13:53:25.2     125   -538    197    553    587 166.9  20.4  34184  289.98 0854.17
2009/04/23 13:53:25.3      89   -516      0    524    525 170.2   0.0  34190  290.07 0854.17
2009/04/23 13:53:25.4     266   -581     80    639    645 155.4   7.2  34192  290.11 0854.17
2009/04/23 13:53:25.5      66   -384     29    390    392 170.2   4.4  34198  290.20 0854.17
2009/04/23 13:53:25.6      19   -371    -93    372    384 177.0 -14.1  34194  290.16 0854.17
2009/04/23 13:53:25.7    -242   -358    104    433    446 214.1  13.5  34206  290.34 0854.17
2009/04/23 13:53:25.8     -70   -343    263    351    438 191.6  40.6  34210  290.43 0854.17
2009/04/23 13:53:25.9      99   -474    332    485    587 168.1  37.6  34202  290.28 0854.17
2009/04/23 13:53:26.0     404   -686     96    797    803 149.5   6.9  34206  290.36 0854.17
2009/04/23 13:53:26.1     210   -525    197    566    600 158.2  19.2  34204  290.32 0854.21
2009/04/23 13:53:26.2     167   -553    -74    578    583 163.2  -7.3  34194  290.15 0854.21
2009/04/23 13:53:26.3      98   -392    118    405    422 165.9  16.3  34204  290.33 0854.21
2009/04/23 13:53:26.4      95   -393    102    405    418 166.3  14.2  34204  290.31 0854.21
2009/04/23 13:53:26.5     -63   -407     88    413    423 188.9  12.1  34210  290.43 0854.21
2009/04/23 13:53:26.6      42   -386    -84    389    399 173.8 -12.3  34206  290.35 0854.21
2009/04/23 13:53:26.7      52   -329     72    334    342 170.9  12.2  34210  290.43 0854.21
2009/04/23 13:53:26.8     -96   -433     87    444    453 192.6  11.1  34206  290.36 0854.21
2009/04/23 13:53:26.9      -8   -522    114    523    536 180.9  12.4  34208  290.40 0854.21
2009/04/23 13:53:27.0      80   -562    143    568    586 171.9  14.2  34204  290.31 0854.21
2009/04/23 13:53:27.1     183   -634    172    660    682 163.9  14.6  34196  290.19 0854.25
2009/04/23 13:53:27.2     216   -677     97    711    718 162.3   7.8  34198  290.22 0854.25
2009/04/23 13:53:27.3      80   -620     83    626    632 172.6   7.6  34194  290.15 0854.25
2009/04/23 13:53:27.4     114   -613     31    624    625 169.4   2.9  34190  290.08 0854.25
2009/04/23 13:53:27.5     145   -513    -29    534    535 164.2  -3.2  34186  290.02 0854.25
2009/04/23 13:53:27.6     105   -615      9    624    625 170.3   0.9  34184  289.98 0854.25
2009/04/23 13:53:27.7     134   -631     10    646    647 168.0   0.9  34180  289.91 0854.25
2009/04/23 13:53:27.8      78   -618     62    623    627 172.8   5.7  34188  290.04 0854.25
2009/04/23 13:53:27.9      65   -545      3    549    550 173.1   0.4  34182  289.94 0854.25
2009/04/23 13:53:28.0       4   -477     31    478    480 179.4   3.8  34172  289.78 0854.25
2009/04/23 13:53:28.1      26   -492     45    493    496 176.9   5.3  34170  289.74 0854.25
2009/04/23 13:53:28.2      93   -411     35    422    424 167.2   4.9  34170  289.73 0854.25
2009/04/23 13:53:28.3     113   -404     39    420    422 164.3   5.4  34164  289.65 0854.25
2009/04/23 13:53:28.4     144   -387     12    413    414 159.6   1.8  34168  289.72 0854.25
2009/04/23 13:53:28.5     212   -468     84    515    522 155.6   9.3  34166  289.67 0854.25
2009/04/23 13:53:28.6     132   -501     93    519    528 165.2  10.2  34164  289.65 0854.25
2009/04/23 13:53:28.7     199   -469     86    510    518 157.0   9.6  34162  289.61 0854.25
2009/04/23 13:53:28.8      41   -448      7    451    452 174.7   0.9  34174  289.82 0854.25
2009/04/23 13:53:28.9      13   -421    -53    422    426 178.2  -7.2  34172  289.77 0854.25
2009/04/23 13:53:29.0       7   -482    -18    483    484 179.1  -2.2  34168  289.71 0854.25
2009/04/23 13:53:29.1      61   -399     -8    404    405 171.3  -1.3  34170  289.73 0854.19
2009/04/23 13:53:29.2     -50   -494    128    497    514 185.8  14.5  34164  289.64 0854.19
2009/04/23 13:53:29.3     -63   -410    111    415    430 188.8  15.0  34168  289.70 0854.19
2009/04/23 13:53:29.4     -84   -345    197    356    406 193.7  31.4  34164  289.65 0854.19
2009/04/23 13:53:29.5    -178   -223     40    286    289 218.5   8.0  34170  289.73 0854.19
2009/04/23 13:53:29.6       0   -251     60    252    260 180.0  13.5  34156  289.49 0854.19
2009/04/23 13:53:29.7     139   -250    -79    287    298 151.0 -15.4  34168  289.70 0854.19
2009/04/23 13:53:29.8     122   -214    -50    247    253 150.4 -11.6  34170  289.73 0854.19
2009/04/23 13:53:29.9     115   -127    -50    172    180 137.7 -16.4  34170  289.75 0854.19
2009/04/23 13:53:30.0      68    -58    -30     90     94 130.9 -23.6  34172  289.77 0854.19
2009/04/23 13:53:30.1     101      7      5    102    103  85.7   2.8  34172  289.77 0854.19
2009/04/23 13:53:30.2      98     -6     88     99    132  93.9  45.9  34168  289.72 0854.19
2009/04/23 13:53:30.3     142    -78    156    163    225 118.8  48.5  34188  290.04 0854.19
2009/04/23 13:53:30.4     267    -58    185    274    330 102.4  37.2  34166  289.68 0854.19
2009/04/23 13:53:30.5     264     -3    160    265    309  90.8  34.0  34164  289.64 0854.19
2009/04/23 13:53:30.6     125     37    244    131    276  73.2  69.6  34184  289.98 0854.19
2009/04/23 13:53:30.7     -44     37    134     58    146 309.6  75.0  34192  290.13 0854.19
2009/04/23 13:53:30.8     -71     86    174    112    206 320.4  64.6  34202  290.28 0854.19
2009/04/23 13:53:30.9     -92     79    184    122    220 310.9  63.4  34194  290.14 0854.19
2009/04/23 13:53:31.0     185     50    373    192    419  74.9  70.7  34174  289.81 0854.19
2009/04/23 13:53:31.1     288    -40    318    291    431  97.9  53.0  34178  289.89 0854.18
2009/04/23 13:53:31.2     304     54    234    309    387  79.9  40.9  34168  289.72 0854.18
2009/04/23 13:53:31.3     277     83    149    290    326  73.2  29.3  34172  289.76 0854.18
2009/04/23 13:53:31.4     278     58     91    285    300  78.1  17.7  34178  289.88 0854.18
2009/04/23 13:53:31.5     204     34    128    207    243  80.5  34.8  34172  289.77 0854.18
2009/04/23 13:53:31.6     208     -9     51    209    216  92.5  13.7  34174  289.80 0854.18
2009/04/23 13:53:31.7     153     11     31    154    158  85.6  11.4  34170  289.75 0854.18
2009/04/23 13:53:31.8     128     47     26    137    140  69.6  11.1  34174  289.80 0854.18
2009/04/23 13:53:31.9      92    -46     41    103    110 116.6  23.0  34174  289.82 0854.18
2009/04/23 13:53:32.0      82    -14     48     84     96 100.1  32.9  34172  289.79 0854.18
2009/04/23 13:53:32.1     -25    -32     67     41     78 217.8  65.7  34176  289.85 0854.18
2009/04/23 13:53:32.2     -67   -103     41    124    131 213.0  18.4  34178  289.89 0854.18
2009/04/23 13:53:32.3     -53    -55      0     77     78 224.2  -0.3  34186  290.01 0854.18
2009/04/23 13:53:32.4     -46    -56     20     73     76 219.7  15.3  34180  289.91 0854.18
2009/04/23 13:53:32.5     -26    -55     27     61     66 205.3  25.1  34180  289.92 0854.18
2009/04/23 13:53:32.6    -106     -1    -54    107    119 269.2 -33.6  34180  289.92 0854.18
2009/04/23 13:53:32.7     -77   -141     51    161    169 208.7  17.7  34180  289.91 0854.18
2009/04/23 13:53:32.8    -131   -183    119    226    255 215.6  30.1  34186  290.02 0854.18
2009/04/23 13:53:32.9    -120   -193    118    228    256 211.9  29.5  34186  290.00 0854.18
2009/04/23 13:53:33.0    -154   -180     86    237    253 220.6  19.9  34184  289.98 0854.18
2009/04/23 13:53:33.1     -96   -289     54    305    310 198.5  10.1  34180  289.90 0854.22
2009/04/23 13:53:33.2     -59   -333     30    339    341 190.1   5.1  34184  289.98 0854.22
2009/04/23 13:53:33.3     -49   -347    105    351    367 188.1  16.6  34192  290.10 0854.22
2009/04/23 13:53:33.4     -46   -329     92    333    346 188.0  15.6  34192  290.13 0854.22
2009/04/23 13:53:33.5     -28   -301     58    303    309 185.3  11.0  34172  289.78 0854.22
2009/04/23 13:53:33.6     -77   -379    178    387    425 191.5  26.4  34186  290.00 0854.22
2009/04/23 13:53:33.7     -95   -400    150    412    438 193.4  20.9  34188  290.05 0854.22
2009/04/23 13:53:33.8    -114   -382     41    399    402 196.6   6.0  34188  290.04 0854.22
2009/04/23 13:53:33.9     -77   -379     18    387    388 191.5   2.8  34182  289.94 0854.22
2009/04/23 13:53:34.0    -119   -333     60    354    360 199.8   9.7  34182  289.94 0854.22
2009/04/23 13:53:34.1     -45   -330     74    334    343 187.8  12.5  34180  289.91 0854.22
2009/04/23 13:53:34.2     -59   -445     34    449    451 187.6   4.3  34186  290.02 0854.22
2009/04/23 13:53:34.3     -25   -437     41    438    441 183.4   5.4  34176  289.85 0854.22
2009/04/23 13:53:34.4    -104   -396     20    410    411 194.8   2.9  34188  290.04 0854.22
2009/04/23 13:53:34.5     -66   -555      6    559    560 186.8   0.7  34190  290.07 0854.22
2009/04/23 13:53:34.6    -290   -704    -18    762    763 202.4  -1.4  34182  289.94 0854.22
2009/04/23 13:53:34.7     -86   -631     -6    637    638 187.8  -0.6  34174  289.82 0854.22
2009/04/23 13:53:34.8      98   -659     53    667    670 171.5   4.6  34184  289.97 0854.22
2009/04/23 13:53:34.9      29   -535     78    536    542 176.9   8.3  34192  290.11 0854.22
2009/04/23 13:53:35.0     -28   -516     -2    517    518 183.2  -0.3  34188  290.05 0854.22
2009/04/23 13:53:35.1     -39   -507    -81    509    516 184.5  -9.1  34186  290.00 0854.22
2009/04/23 13:53:35.2     -86   -578    -19    585    586 188.5  -1.9  34192  290.12 0854.23
2009/04/23 13:53:35.3     -80   -695     53    700    702 186.6   4.4  34198  290.20 0854.23
2009/04/23 13:53:35.4    -323   -615   -164    695    715 207.8 -13.3  34180  289.91 0854.23
2009/04/23 13:53:35.5    -505   -513   -186    720    744 224.5 -14.5  34166  289.68 0854.23
2009/04/23 13:53:35.6    -464   -532   -224    707    741 221.1 -22.6  34166  289.69 0854.23
2009/04/23 13:53:35.7    -526   -634   -239    825    858 219.7 -20.9  34164  289.65 0854.23
2009/04/23 13:53:35.8    -694   -575   -338    902    963 230.4 -26.0  34170  289.73 0854.23
2009/04/23 13:53:35.9    -725   -476   -307    868    920 236.7 -24.7  34164  289.63 0854.23
2009/04/23 13:53:36.0    -711   -438   -196    835    858 238.4 -13.3  34178  289.88 0854.23
2009/04/23 13:53:36.1    -564   -439   -248    715    756 232.1 -24.3  34172  289.77 0854.23
2009/04/23 13:53:36.2    -388   -263    -72    469    475 235.8  -8.8  34200  290.25 0854.23
2009/04/23 13:53:36.3    -390   -308    -92    498    507 231.7 -10.5  34188  290.06 0854.23
2009/04/23 13:53:36.4    -370   -382    -88    532    540 224.1  -9.4  34210  290.41 0854.23
2009/04/23 13:53:36.5    -114   -346   -129    365    387 198.3 -24.5  34214  290.50 0854.23
2009/04/23 13:53:36.6     112   -297    -61    318    324 159.3 -11.0  34202  290.27 0854.23
2009/04/23 13:53:36.7      16   -347   -154    348    380 177.3 -30.0  34190  290.08 0854.23
2009/04/23 13:53:36.8      89   -373    -87    384    394 166.5 -12.9  34182  289.96 0854.23
2009/04/23 13:53:36.9     -17   -447    -25    448    449 182.2  -3.3  34190  290.09 0854.23
2009/04/23 13:53:37.0     148   -655      0    672    673 167.2   0.0  34198  290.21 0854.23
2009/04/23 13:53:37.1     190   -567    -39    599    601 161.4  -3.8  34184  289.98 0854.23
2009/04/23 13:53:37.2     240   -511    -43    565    567 154.8  -4.4  34190  290.09 0854.28
2009/04/23 13:53:37.3     100   -528    -48    538    541 169.3  -5.2  34188  290.04 0854.28
2009/04/23 13:53:37.4     -34   -476     84    478    486 184.1  10.0  34190  290.08 0854.28
2009/04/23 13:53:37.5       6   -384     50    385    389 179.1   7.4  34198  290.20 0854.28
2009/04/23 13:53:37.6     -12   -454    -33    455    457 181.6  -4.2  34190  290.07 0854.28
2009/04/23 13:53:37.7      -4   -436    -36    437    439 180.6  -4.8  34194  290.14 0854.28
2009/04/23 13:53:37.8     152   -367    -46    398    401 157.4  -6.7  34194  290.15 0854.28
2009/04/23 13:53:37.9     -42   -355   -301    358    467 186.8 -48.7  34196  290.19 0854.28
2009/04/23 13:53:38.0    -243   -165   -237    294    377 235.8 -47.5  34192  290.11 0854.28
2009/04/23 13:53:38.1    -432    -60   -162    437    466 262.0 -25.4  34192  290.12 0854.28
2009/04/23 13:53:38.2    -618   -209   -197    653    683 251.3 -16.8  34184  289.99 0854.28
2009/04/23 13:53:38.3    -516   -214   -128    559    574 247.4 -12.9  34196  290.17 0854.28
2009/04/23 13:53:38.4    -164   -317   -108    357    372 207.4 -21.7  34178  289.89 0854.28
2009/04/23 13:53:38.5    -124   -265     30    293    295 205.2   5.9  34200  290.26 0854.28
2009/04/23 13:53:38.6    -106   -206   -136    232    268 207.2 -37.5  34192  290.10 0854.28
2009/04/23 13:53:38.7    -130   -238    -20    272    273 208.7  -4.4  34190  290.07 0854.28
2009/04/23 13:53:38.8    -403   -150   -142    431    453 249.5 -23.6  34196  290.19 0854.28
2009/04/23 13:53:38.9    -180   -168   -109    247    269 226.9 -29.7  34200  290.24 0854.28
2009/04/23 13:53:39.0     -89   -187   -195    208    285 205.6 -52.3  34208  290.37 0854.28
2009/04/23 13:53:39.1    -113   -140     -4    181    182 219.0  -1.3  34200  290.25 0854.28
2009/04/23 13:53:39.2     241   -261      6    356    357 137.2   1.1  34192  290.13 0854.29
2009/04/23 13:53:39.3     391   -367     75    537    543 133.2   8.0  34198  290.21 0854.29
2009/04/23 13:53:39.4     363   -320    -43    485    487 131.4  -5.1  34196  290.17 0854.29
2009/04/23 13:53:39.5     440   -376     18    580    581 130.5   1.8  34190  290.07 0854.29
2009/04/23 13:53:39.6     544   -343     21    643    644 122.2   1.9  34200  290.26 0854.29
2009/04/23 13:53:39.7     433   -341    -11    552    553 128.2  -1.2  34196  290.18 0854.29
2009/04/23 13:53:39.8     472   -349    -22    588    589 126.5  -2.2  34200  290.24 0854.29
2009/04/23 13:53:39.9     566   -360      0    672    673 122.5   0.0  34196  290.19 0854.29
2009/04/23 13:53:40.0     630   -340    -63    716    719 118.4  -5.1  34188  290.05 0854.29
2009/04/23 13:53:40.1     333   -453   -194    563    596 143.6 -19.1  34192  290.10 0854.29
2009/04/23 13:53:40.2     437   -468   -274    641    697 137.0 -29.0  34194  290.14 0854.29
2009/04/23 13:53:40.3     529   -458   -241    700    740 130.9 -24.1  34190  290.08 0854.29
2009/04/23 13:53:40.4     445   -377   -350    584    680 130.3 -38.1  34188  290.06 0854.29
2009/04/23 13:53:40.5     440   -242   -323    503    597 118.8 -40.0  34190  290.09 0854.29
2009/04/23 13:53:40.6     252   -123   -287    281    401 116.0 -55.1  34194  290.16 0854.29
2009/04/23 13:53:40.7     266    -37   -163    269    314  97.9 -38.5  34192  290.10 0854.29
2009/04/23 13:53:40.8      38    -53     -2     66     67 144.8  -2.2  34198  290.21 0854.29
2009/04/23 13:53:40.9     196   -306     18    364    365 147.4   2.9  34202  290.28 0854.29
2009/04/23 13:53:41.0     164   -373    -67    408    414 156.3  -9.3  34206  290.34 0854.29
2009/04/23 13:53:41.1      72   -186    141    200    244 158.8  38.6  34202  290.28 0854.29
2009/04/23 13:53:41.2     176   -213    149    277    314 140.3  30.6  34202  290.27 0854.33
2009/04/23 13:53:41.3     145   -182    216    233    317 141.5  47.7  34206  290.36 0854.33
2009/04/23 13:53:41.4      41     -3    138     42    144  94.4  82.3  34216  290.52 0854.33
2009/04/23 13:53:41.5     -46    -67    210     82    225 214.7  77.4  34218  290.57 0854.33
2009/04/23 13:53:41.6     -81    -39    108     90    140 244.2  56.3  34210  290.41 0854.33
2009/04/23 13:53:41.7    -152   -126     81    198    213 230.2  23.1  34204  290.33 0854.33
2009/04/23 13:53:41.8    -301   -135    -56    331    336 245.8  -9.7  34204  290.33 0854.33
2009/04/23 13:53:41.9    -242   -204   -117    317    337 229.8 -25.7  34204  290.32 0854.33
2009/04/23 13:53:42.0    -269   -127    -85    298    311 244.7 -16.0  34200  290.24 0854.33
2009/04/23 13:53:42.1    -398   -111    -60    414    419 254.3  -8.3  34200  290.26 0854.33
2009/04/23 13:53:42.2    -424   -117    -89    441    450 254.5 -11.5  34198  290.21 0854.33
2009/04/23 13:53:42.3    -508   -163   -138    534    552 252.2 -14.5  34198  290.21 0854.33
2009/04/23 13:53:42.4    -240   -280     75    369    377 220.6  11.6  34204  290.33 0854.33
2009/04/23 13:53:42.5    -276   -432     61    514    518 212.6   6.9  34202  290.29 0854.33
2009/04/23 13:53:42.7    -341   -290    215    449    497 229.6  27.3  34208  290.37 0854.33
2009/04/23 13:53:42.8    -473   -205   -156    516    539 246.5 -21.7  34206  290.36 0854.33
2009/04/23 13:53:42.9    -306   -291    -16    423    424 226.4  -2.2  34226  290.68 0854.33
2009/04/23 13:53:43.0    -301   -245     85    389    399 230.8  12.4  34228  290.74 0854.33
2009/04/23 13:53:43.1    -265   -224    -13    348    349 229.8  -2.3  34230  290.77 0854.33
2009/04/23 13:53:43.2    -277    -83    -22    290    291 253.2  -4.4  34238  290.88 0854.33
2009/04/23 13:53:43.3    -308   -115    -39    329    332 249.5  -6.9  34240  290.93 0854.35
2009/04/23 13:53:43.4    -339   -207     88    398    408 238.6  12.5  34228  290.72 0854.35
2009/04/23 13:53:43.5    -214   -193     90    289    303 228.0  17.4  34232  290.80 0854.35
2009/04/23 13:53:43.6    -148   -210    -22    258    260 215.2  -4.9  34232  290.80 0854.35
2009/04/23 13:53:43.7    -247   -145   -150    287    323 239.6 -34.0  34206  290.36 0854.35
2009/04/23 13:53:43.8    -399    -58   -271    404    486 261.7 -41.4  34206  290.34 0854.35
2009/04/23 13:53:43.9    -350      9   -293    351    457 271.6 -48.4  34198  290.22 0854.35
2009/04/23 13:53:44.0    -468   -122   -328    484    584 255.4 -41.8  34208  290.38 0854.35
2009/04/23 13:53:44.1    -703   -154   -405    720    826 257.6 -36.3  34202  290.30 0854.35
2009/04/23 13:53:44.2    -676   -300   -407    740    844 246.1 -35.7  34202  290.28 0854.35
2009/04/23 13:53:44.3    -543   -356   -403    650    764 236.7 -39.2  34184  289.98 0854.35
2009/04/23 13:53:44.4    -599   -251   -394    650    760 247.3 -38.5  34198  290.20 0854.35
2009/04/23 13:53:44.5    -654   -283   -430    713    832 246.6 -38.2  34192  290.12 0854.35
2009/04/23 13:53:44.6    -612   -268   -349    669    754 246.4 -34.2  34202  290.27 0854.35
2009/04/23 13:53:44.7    -537   -307   -186    619    646 240.3 -21.6  34210  290.43 0854.35
2009/04/23 13:53:44.8    -561   -185   -237    591    636 251.7 -27.5  34208  290.40 0854.35
2009/04/23 13:53:44.9    -559   -187   -202    590    623 251.4 -24.0  34212  290.44 0854.35
2009/04/23 13:53:45.0    -620   -335   -229    705    741 241.6 -23.1  34216  290.52 0854.35
2009/04/23 13:53:45.1    -496   -210   -277    539    606 247.0 -33.7  34196  290.19 0854.35
2009/04/23 13:53:45.2    -536   -324   -357    627    721 238.8 -36.7  34212  290.46 0854.35
2009/04/23 13:53:45.3    -483   -356   -279    601    662 233.6 -31.0  34200  290.25 0854.39
2009/04/23 13:53:45.4    -423   -177   -206    459    503 247.3 -30.3  34198  290.23 0854.39
2009/04/23 13:53:45.5    -432   -230   -188    490    524 241.9 -26.4  34208  290.37 0854.39
2009/04/23 13:53:45.6    -381   -336   -147    509    529 228.6 -20.9  34208  290.38 0854.39
2009/04/23 13:53:45.7    -337   -303   -288    454    537 228.0 -39.9  34206  290.35 0854.39
2009/04/23 13:53:45.8    -341   -355   -267    493    560 223.8 -35.2  34196  290.19 0854.39
2009/04/23 13:53:45.9    -218   -297   -250    369    445 216.2 -41.8  34206  290.34 0854.39
2009/04/23 13:53:46.0    -214   -336   -184    399    439 212.5 -30.9  34210  290.41 0854.39
2009/04/23 13:53:46.1    -320    -30   -224    322    392 264.5 -42.9  34214  290.50 0854.39
2009/04/23 13:53:46.2    -221   -132   -189    258    319 239.1 -44.3  34218  290.56 0854.39
2009/04/23 13:53:46.3     -97   -225   -116    246    271 203.4 -31.5  34208  290.39 0854.39
2009/04/23 13:53:46.4      12   -157   -121    158    199 175.6 -45.8  34210  290.43 0854.39
2009/04/23 13:53:46.5      27   -171   -100    174    200 170.9 -37.1  34208  290.38 0854.39
2009/04/23 13:53:46.6     -22   -239    -66    241    251 185.3 -15.4  34206  290.36 0854.39
2009/04/23 13:53:46.7     -10   -187    -58    188    196 183.1 -21.8  34208  290.38 0854.39
2009/04/23 13:53:46.8      -5   -170    -68    171    184 181.8 -27.2  34210  290.43 0854.39
2009/04/23 13:53:46.9      26   -128    -76    131    151 168.5 -37.3  34208  290.40 0854.39
2009/04/23 13:53:47.0     -68   -160    -73    175    189 203.2 -28.5  34206  290.36 0854.39
2009/04/23 13:53:47.1      87    -87    -44    124    132 134.9 -19.6  34208  290.38 0854.39
2009/04/23 13:53:47.2      30   -107   -100    112    150 164.0 -50.8  34218  290.55 0854.39
2009/04/23 13:53:47.3     129   -166     89    211    229 142.2  24.3  34204  290.33 0854.37
2009/04/23 13:53:47.4     182    -96    103    206    230 117.8  28.2  34206  290.35 0854.37
2009/04/23 13:53:47.5     113    -24    158    116    196 102.4  60.0  34208  290.40 0854.37
2009/04/23 13:53:47.6      -7   -151    136    152    203 182.7  46.4  34210  290.43 0854.37
2009/04/23 13:53:47.7      -8   -266    115    267    290 181.8  25.1  34206  290.34 0854.37
2009/04/23 13:53:47.8      64   -317     88    324    336 168.4  15.3  34204  290.33 0854.37
2009/04/23 13:53:47.9      37   -192    230    196    302 168.9  55.3  34210  290.42 0854.37
2009/04/23 13:53:48.0     -79   -422     68    430    436 190.7   9.0  34200  290.24 0854.37
2009/04/23 13:53:48.1      97   -339    181    353    396 164.0  29.3  34208  290.38 0854.37
2009/04/23 13:53:48.2      24   -461    163    462    491 177.0  19.5  34192  290.13 0854.37
2009/04/23 13:53:48.3      78   -536    -82    542    549 171.6  -8.6  34202  290.30 0854.32
2009/04/23 13:53:48.4      97   -458   -168    469    499 168.0 -19.7  34202  290.29 0854.32
2009/04/23 13:53:48.5     -34   -491   -111    493    506 184.0 -12.7  34204  290.32 0854.32
2009/04/23 13:53:48.6     -81   -573   -171    579    604 188.1 -16.5  34206  290.34 0854.32
2009/04/23 13:53:48.7    -176   -550   -149    578    597 197.8 -14.5  34204  290.31 0854.32
2009/04/23 13:53:48.8     -45   -525    -60    528    532 185.0  -6.6  34206  290.35 0854.32
2009/04/23 13:53:48.9     153   -419    -32    447    449 159.9  -4.1  34198  290.22 0854.32
2009/04/23 13:53:49.0     -22   -567     68    568    573 182.3   6.9  34200  290.25 0854.32
2009/04/23 13:53:49.1     110   -673    -13    683    684 170.7  -1.2  34212  290.44 0854.32
2009/04/23 13:53:49.2     111   -697    -39    707    709 170.9  -3.2  34204  290.32 0854.32
2009/04/23 13:53:49.3     109   -550    137    561    578 168.8  13.8  34206  290.34 0854.32
2009/04/23 13:53:49.4     186   -619    138    647    662 163.2  12.1  34206  290.34 0854.32
2009/04/23 13:53:49.5     228   -583     56    627    630 158.6   5.2  34198  290.23 0854.32
2009/04/23 13:53:49.6     179   -527    136    557    574 161.2  13.8  34200  290.24 0854.32
2009/04/23 13:53:49.7     274   -366     92    458    468 143.2  11.4  34196  290.19 0854.32
2009/04/23 13:53:49.8     281   -516    207    588    624 151.4  19.4  34202  290.27 0854.32
2009/04/23 13:53:49.9     231   -427     69    486    492 151.5   8.1  34212  290.45 0854.32
2009/04/23 13:53:50.0     186   -393     41    435    438 154.7   5.4  34204  290.31 0854.32
2009/04/23 13:53:50.1     235   -443    113    502    515 152.0  12.8  34192  290.13 0854.32
2009/04/23 13:53:50.2     161   -347     21    383    384 155.1   3.2  34202  290.27 0854.32
2009/04/23 13:53:50.3     208   -375    -44    430    433 151.0  -5.9  34208  290.38 0854.36
2009/04/23 13:53:50.4     252   -364    -17    443    444 145.3  -2.2  34204  290.33 0854.36
2009/04/23 13:53:50.5     247   -387   -101    460    472 147.5 -12.4  34208  290.39 0854.36
2009/04/23 13:53:50.6     189   -339     69    389    396 150.9  10.1  34184  289.98 0854.36
2009/04/23 13:53:50.7     156   -268    -24    311    313 149.7  -4.6  34204  290.31 0854.36
2009/04/23 13:53:50.8     139   -282     37    315    318 153.7   6.7  34192  290.12 0854.36
2009/04/23 13:53:50.9     203   -422     34    469    471 154.3   4.2  34186  290.01 0854.36
2009/04/23 13:53:51.0     176   -386     -1    425    426 155.5  -0.3  34196  290.19 0854.36
2009/04/23 13:53:51.1     201   -351     -9    405    406 150.1  -1.4  34196  290.17 0854.36
2009/04/23 13:53:51.2     212   -333     -4    395    396 147.5  -0.6  34194  290.15 0854.36
2009/04/23 13:53:51.3     174   -296     17    344    345 149.6   2.9  34192  290.10 0854.36
2009/04/23 13:53:51.4     174   -246    128    302    328 144.8  24.3  34190  290.07 0854.36
2009/04/23 13:53:51.5     125   -286    196    313    369 156.4  35.3  34184  289.98 0854.36
2009/04/23 13:53:51.6     131   -275    104    305    323 154.5  18.9  34188  290.05 0854.36
2009/04/23 13:53:51.7     135   -240     83    276    289 150.6  16.8  34202  290.27 0854.36
2009/04/23 13:53:51.8     142   -301    114    334    354 154.7  18.9  34220  290.59 0854.36
2009/04/23 13:53:51.9     105   -329    133    346    370 162.3  22.0  34220  290.60 0854.36
2009/04/23 13:53:52.0     205   -333    134    392    415 148.4  18.9  34214  290.50 0854.36
2009/04/23 13:53:52.1     215   -355     29    416    418 148.8   4.0  34226  290.68 0854.36
2009/04/23 13:53:52.2     232   -331     12    405    406 145.0   1.8  34222  290.61 0854.36
2009/04/23 13:53:52.3     176   -311    106    358    374 150.5  16.5  34216  290.52 0854.34
2009/04/23 13:53:52.4     110   -330    106    348    365 161.5  17.0  34216  290.52 0854.34
2009/04/23 13:53:52.5     158   -317     91    355    367 153.5  14.4  34218  290.54 0854.34
2009/04/23 13:53:52.6      59   -212     91    221    239 164.4  23.6  34222  290.61 0854.34
2009/04/23 13:53:52.7     127   -159     52    204    211 141.3  14.3  34224  290.67 0854.34
2009/04/23 13:53:52.8     170   -205     58    267    274 140.3  12.4  34224  290.65 0854.34
2009/04/23 13:53:52.9      70   -210     51    222    228 161.5  13.1  34220  290.58 0854.34
2009/04/23 13:53:53.0      51   -157     13    166    167 162.0   4.6  34224  290.65 0854.34
2009/04/23 13:53:53.1      28   -139     43    142    149 168.5  16.8  34216  290.53 0854.34
2009/04/23 13:53:53.2      31    -92     78     98    125 161.3  42.7  34220  290.58 0854.34
2009/04/23 13:53:53.3      58    -59      4     83     84 135.5   3.3  34220  290.60 0854.34
2009/04/23 13:53:53.4      53    -48     -9     72     73 132.2  -7.3  34224  290.67 0854.34
2009/04/23 13:53:53.5      74    -50    -11     90     91 124.2  -7.3  34228  290.72 0854.34
2009/04/23 13:53:53.6     123   -102     22    160    162 129.6   8.0  34228  290.72 0854.34
2009/04/23 13:53:53.7     105   -196     77    223    237 151.7  19.2  34218  290.55 0854.34
2009/04/23 13:53:53.8     188   -186     93    265    282 134.7  19.4  34212  290.44 0854.34
2009/04/23 13:53:53.9     158   -208    110    262    284 142.8  24.2  34206  290.36 0854.34
2009/04/23 13:53:54.0      55   -390    137    395    419 171.9  19.2  34206  290.36 0854.34
2009/04/23 13:53:54.1      48   -399    120    402    420 173.0  16.6  34198  290.21 0854.34
2009/04/23 13:53:54.2     159   -405    200    436    479 158.5  26.4  34188  290.06 0854.34
2009/04/23 13:53:54.3     169   -264    178    314    360 147.4  32.1  34194  290.16 0854.27
2009/04/23 13:53:54.4      74   -275    244    285    375 164.9  45.0  34194  290.15 0854.27
2009/04/23 13:53:54.5     203   -147     87    252    267 126.0  19.2  34198  290.20 0854.27
2009/04/23 13:53:54.6     259   -154    101    302    319 120.7  18.6  34208  290.39 0854.27
2009/04/23 13:53:54.7     252   -124     33    281    284 116.2   6.9  34220  290.59 0854.27
2009/04/23 13:53:54.8     199    -86     -8    217    218 113.5  -2.2  34216  290.53 0854.27
2009/04/23 13:53:54.9      79   -116     54    141    150 145.7  22.0  34192  290.11 0854.27
2009/04/23 13:53:55.0     139    -50     17    148    150 110.0   6.9  34206  290.36 0854.27
2009/04/23 13:53:55.1      90    -79     80    120    144 131.3  36.5  34202  290.28 0854.27
2009/04/23 13:53:55.2      18    -45     89     49    101 157.3  68.8  34200  290.25 0854.27
2009/04/23 13:53:55.3      75    -77     87    108    138 135.9  43.3  34202  290.30 0854.27
2009/04/23 13:53:55.4      67   -109    126    129    180 148.4  49.4  34202  290.30 0854.27
2009/04/23 13:53:55.5      -1   -103     74    104    127 180.9  39.5  34204  290.31 0854.27
2009/04/23 13:53:55.6     -22    -47     58     53     78 205.5  52.2  34204  290.31 0854.27
2009/04/23 13:53:55.7     -33    -35     66     49     82 223.2  59.4  34206  290.36 0854.27
2009/04/23 13:53:55.8     -41    -26     47     49     67 237.6  50.0  34210  290.41 0854.27
2009/04/23 13:53:55.9     -44    -14     21     47     51 251.4  26.2  34202  290.28 0854.27
2009/04/23 13:53:56.0     -49    -46     71     68     98 226.9  50.7  34196  290.19 0854.27
2009/04/23 13:53:56.1      12     -4    122     13    122 108.2  90.0  34206  290.36 0854.27
2009/04/23 13:53:56.2      -6     76     74     77    106 355.5  49.0  34204  290.33 0854.27
2009/04/23 13:53:56.3     193   -122    206    229    308 122.4  46.9  34188  290.05 0854.32
2009/04/23 13:53:56.4      38   -189    174    193    259 168.5  46.9  34170  289.75 0854.32
2009/04/23 13:53:56.5     -31   -290    131    292    320 186.3  25.8  34182  289.95 0854.32
2009/04/23 13:53:56.6    -120   -236     95    265    282 207.0  19.9  34182  289.93 0854.32
2009/04/23 13:53:56.7       6   -227    -16    228    229 178.4  -4.1  34178  289.89 0854.32
2009/04/23 13:53:56.8      58   -206   -219    215    306 164.2 -54.8  34186  290.02 0854.32
2009/04/23 13:53:56.9     172   -171   -189    243    307 134.9 -46.1  34186  290.02 0854.32
2009/04/23 13:53:57.0     235    107      7    259    260  65.4   1.6  34200  290.26 0854.32
2009/04/23 13:53:57.1     155    170    107    231    254  42.3  26.6  34228  290.71 0854.32
2009/04/23 13:53:57.2     195    236    189    307    360  39.6  34.8  34230  290.77 0854.32
2009/04/23 13:53:57.3     219    233    194    321    375  43.2  34.0  34230  290.77 0854.32
2009/04/23 13:53:57.4     177    277    203    329    386  32.6  34.9  34262  291.32 0854.32
2009/04/23 13:53:57.5     166    269    164    317    356  31.7  29.4  34286  291.71 0854.32
2009/04/23 13:53:57.6     263    210    201    337    392  51.4  33.5  34288  291.73 0854.32
2009/04/23 13:53:57.7     158    183    222    242    328  40.8  47.5  34286  291.70 0854.32
2009/04/23 13:53:57.8     222    108    282    248    375  64.0  54.2  34240  290.94 0854.32
2009/04/23 13:53:57.9     188    148    191    240    306  51.8  42.7  34210  290.41 0854.32
2009/04/23 13:53:58.0      75     52    210     92    229  54.9  74.9  34228  290.74 0854.32
2009/04/23 13:53:58.1     155     74    140    172    221  64.5  43.7  34222  290.62 0854.32
2009/04/23 13:53:58.2     -23     49    125     55    136 334.5  74.9  34248  291.08 0854.32
2009/04/23 13:53:58.3    -109     22    133    112    173 281.5  55.8  34260  291.26 0854.34
2009/04/23 13:53:58.4     -67     -3     98     68    119 267.4  62.1  34236  290.87 0854.34
2009/04/23 13:53:58.5     -17     95     67     97    117 349.8  38.0  34254  291.16 0854.34
2009/04/23 13:53:58.6       0    159    120    160    200   0.0  40.7  34260  291.28 0854.34
2009/04/23 13:53:58.7      25     77    123     82    147  18.3  63.6  34250  291.11 0854.34
2009/04/23 13:53:58.8     123     92     41    154    160  53.1  15.0  34234  290.82 0854.34
2009/04/23 13:53:58.9      85    235    -30    251    253  20.0  -6.9  34226  290.70 0854.34
2009/04/23 13:53:59.1    -109    193     16    222    223 330.6   4.2  34216  290.53 0854.34
2009/04/23 13:53:59.1      -3     -2     50      4     50 237.6  90.0  34214  290.50 0854.34
2009/04/23 13:53:59.2    -101   -303    247    320    404 198.5  41.7  34186  290.01 0854.34
2009/04/23 13:53:59.3     108    -68    186    128    225 122.4  62.1  34212  290.45 0854.34
2009/04/23 13:53:59.4     153   -284   -100    323    338 151.7 -22.2  34208  290.38 0854.34
2009/04/23 13:53:59.5     412   -130    109    433    447 107.5  14.2  34208  290.39 0854.34
2009/04/23 13:53:59.6     353     79     -7    362    363  77.3  -1.1  34212  290.45 0854.34
2009/04/23 13:53:59.7     219     95     38    239    243  66.5   9.0  34218  290.56 0854.34
2009/04/23 13:53:59.8     155    -44     65    162    174 105.9  22.8  34210  290.41 0854.34
2009/04/23 13:53:59.9     135     63    113    150    187  64.8  40.7  34206  290.35 0854.34
2009/04/23 13:54:00.0     -81    -96    140    126    188 220.1  53.3  34208  290.40 0854.34
2009/04/23 13:54:00.1    -260    -87     89    275    290 251.4  17.9  34222  290.63 0854.34
2009/04/23 13:54:00.3    -341   -234    151    414    440 235.5  20.9  34212  290.46 0854.34
2009/04/23 13:54:00.3      69    -96    270    119    295 144.0  74.9  34208  290.39 0854.34
2009/04/23 13:54:00.4      -6   -114    296    115    317 183.1  77.8  34202  290.29 0854.34
2009/04/23 13:54:00.5     -73   -202    223    215    309 200.0  51.2  34192  290.10 0854.34
2009/04/23 13:54:00.6       7   -205     47    206    212 178.0  12.9  34196  290.19 0854.34
2009/04/23 13:54:00.7    -138   -179     16    227    228 217.6   4.2  34204  290.31 0854.34
2009/04/23 13:54:00.8    -139   -258    108    294    313 208.3  21.1  34194  290.14 0854.34
2009/04/23 13:54:00.9       5   -212     84    213    228 178.4  22.8  34194  290.16 0854.34
2009/04/23 13:54:01.0      47   -150      2    158    159 162.6   0.8  34198  290.21 0854.34
2009/04/23 13:54:01.1      -4   -241    212    242    321 181.0  45.7  34198  290.22 0854.34
2009/04/23 13:54:01.2     142   -286    182    320    368 153.5  32.3  34192  290.11 0854.34
2009/04/23 13:54:01.3      88   -195     70    215    227 155.7  18.1  34196  290.18 0854.34
2009/04/23 13:54:01.4     -47   -336    336    340    478 188.0  49.9  34206  290.34 0854.34
2009/04/23 13:54:01.5     -41   -558    241    560    609 184.2  24.8  34200  290.24 0854.34
2009/04/23 13:54:01.6     152     16     84    153    174  83.9  31.4  34202  290.28 0854.34
2009/04/23 13:54:01.7    -226   -242    411    332    528 223.1  57.0  34206  290.34 0854.34
2009/04/23 13:54:01.8    -331     67    288    339    444 281.6  44.7  34210  290.43 0854.34
2009/04/23 13:54:01.9    -255   -349    218    433    484 216.1  28.7  34198  290.22 0854.34
2009/04/23 13:54:02.0    -136   -250     95    285    301 208.5  18.5  34198  290.22 0854.34
2009/04/23 13:54:02.1      77    -99    -35    126    131 142.2 -15.5  34206  290.36 0854.34
2009/04/23 13:54:02.2     223   -136    -14    262    263 121.3  -3.2  34206  290.36 0854.34
2009/04/23 13:54:02.3     129     57    -57    142    153  66.0 -27.4  34198  290.21 0854.31
2009/04/23 13:54:02.4     266     25    -48    268    273  84.5 -10.3  34204  290.31 0854.31
2009/04/23 13:54:02.5     329   -123    -51    352    356 110.6  -8.4  34202  290.30 0854.31
2009/04/23 13:54:02.6     302    -88    -66    315    322 106.4 -11.9  34206  290.34 0854.31
2009/04/23 13:54:02.7     251   -132     51    284    289 117.9  10.3  34202  290.27 0854.31
2009/04/23 13:54:02.8     122    -77    101    145    176 122.5  38.6  34216  290.52 0854.31
2009/04/23 13:54:02.9      65    -72     49     98    109 137.7  28.2  34212  290.47 0854.31
2009/04/23 13:54:03.0      85    -31    101     91    135 110.4  53.3  34214  290.48 0854.31
2009/04/23 13:54:03.1     141   -117    147    184    235 129.8  42.7  34214  290.48 0854.31
2009/04/23 13:54:03.2      63      0    154     64    166  90.0  76.1  34208  290.38 0854.31
2009/04/23 13:54:03.3     221     -4    144    222    264  91.3  35.7  34212  290.44 0854.31
2009/04/23 13:54:03.4     332    -49    152    336    368  98.5  26.0  34214  290.49 0854.31
2009/04/23 13:54:03.5     318    -44    221    322    390  98.0  37.7  34202  290.30 0854.31
2009/04/23 13:54:03.6     312   -257    135    405    428 129.5  18.5  34196  290.17 0854.31
2009/04/23 13:54:03.7     154   -316    305    352    465 153.9  45.4  34196  290.19 0854.31
2009/04/23 13:54:03.8     320   -363    228    485    535 138.6  27.1  34192  290.13 0854.31
2009/04/23 13:54:03.9     380   -267    182    465    499 125.1  22.5  34188  290.06 0854.31
2009/04/23 13:54:04.0     343   -343    375    486    613 135.0  41.6  34194  290.15 0854.31
2009/04/23 13:54:04.1     255   -400    333    475    580 147.4  38.5  34198  290.21 0854.31
2009/04/23 13:54:04.2     328   -377    333    500    600 139.0  36.7  34190  290.07 0854.31
2009/04/23 13:54:04.3     256   -264    323    368    489 135.9  45.8  34184  289.99 0854.33
2009/04/23 13:54:04.4     248   -292    387    384    545 139.7  50.2  34192  290.13 0854.33
2009/04/23 13:54:04.5     157   -196    297    252    389 141.3  55.6  34198  290.20 0854.33
2009/04/23 13:54:04.6     125   -138    263    187    322 137.9  61.2  34196  290.17 0854.33
2009/04/23 13:54:04.7      25      8    216     27    217  71.4  90.0  34200  290.25 0854.33
2009/04/23 13:54:04.8     200    -23    272    202    338  96.8  59.9  34202  290.27 0854.33
2009/04/23 13:54:04.9     202    -67    214    213    301 108.4  50.1  34196  290.19 0854.33
2009/04/23 13:54:05.0     -12    -58    178     60    187 191.6  81.2  34198  290.23 0854.33
2009/04/23 13:54:05.1      14   -114    263    115    287 172.9  75.0  34208  290.37 0854.33
2009/04/23 13:54:05.2      -3   -170    335    171    376 181.1  71.0  34206  290.36 0854.33
2009/04/23 13:54:05.3     232   -272    343    358    495 139.5  48.7  34202  290.29 0854.33
2009/04/23 13:54:05.4      24   -258    322    260    413 174.7  57.0  34192  290.11 0854.33
2009/04/23 13:54:05.5      14   -137    222    138    261 173.8  64.9  34206  290.35 0854.33
2009/04/23 13:54:05.6      -9   -117    181    118    216 184.5  64.1  34202  290.30 0854.33
2009/04/23 13:54:05.7      22   -259    318    261    411 175.1  56.4  34198  290.23 0854.33
2009/04/23 13:54:05.8    -125   -243    341    274    437 207.2  57.3  34196  290.18 0854.33
2009/04/23 13:54:05.9    -102   -241    226    262    346 202.9  45.2  34202  290.27 0854.33
2009/04/23 13:54:06.0      -1   -214    134    215    253 180.5  35.2  34202  290.27 0854.33
2009/04/23 13:54:06.1      33   -144    212    148    258 167.1  61.7  34204  290.31 0854.33
2009/04/23 13:54:06.2     -18   -164    275    166    321 186.5  66.1  34202  290.27 0854.33
2009/04/23 13:54:06.3    -199   -180    191    269    329 227.8  38.8  34192  290.12 0854.33
2009/04/23 13:54:06.4      48     23    -36     54     64  64.6 -40.9  34200  290.26 0854.33
2009/04/23 13:54:06.5     213    168    178    272    325  51.8  36.3  34212  290.44 0854.33
2009/04/23 13:54:06.6      55     12    184     57    192  77.6  82.0  34216  290.53 0854.33
2009/04/23 13:54:06.7     -52    -57    226     78    239 222.3  80.3  34210  290.41 0854.33
2009/04/23 13:54:06.8     -67   -220    218    231    317 196.9  48.4  34204  290.32 0854.33
2009/04/23 13:54:06.9    -189   -261    -46    323    327 216.0  -8.1  34196  290.17 0854.33
2009/04/23 13:54:07.0      57   -309    -94    315    329 169.4 -16.6  34198  290.22 0854.33
2009/04/23 13:54:07.1     -20    -77   -180     80    196 195.1 -79.2  34206  290.36 0854.33
2009/04/23 13:54:07.2     -80    -54   -189     97    212 235.8 -75.2  34212  290.47 0854.33
2009/04/23 13:54:07.3      38    -10    -74     40     84 105.1 -73.2  34222  290.62 0854.33
2009/04/23 13:54:07.4      66   -140    -90    155    179 154.7 -37.1  34218  290.57 0854.33
2009/04/23 13:54:07.5      90   -140   -136    167    215 147.0 -48.1  34226  290.69 0854.33
2009/04/23 13:54:07.6      50   -131    -90    141    167 159.1 -39.9  34234  290.82 0854.33
2009/04/23 13:54:07.7     -55    -53     39     77     86 225.9  29.3  34238  290.89 0854.33
2009/04/23 13:54:07.8       4   -252     26    253    255 179.0   6.0  34218  290.56 0854.33
2009/04/23 13:54:07.9      18   -239     65    240    249 175.5  15.3  34208  290.37 0854.33
2009/04/23 13:54:08.0     109   -282    104    303    321 158.8  18.9  34216  290.51 0854.33
2009/04/23 13:54:08.1     128   -385    147    406    431 161.6  20.9  34194  290.16 0854.33
2009/04/23 13:54:08.2      85   -471     94    479    489 169.7  11.1  34192  290.10 0854.33
2009/04/23 13:54:08.3       7   -552    193    553    586 179.2  19.3  34192  290.12 0854.36
2009/04/23 13:54:08.4     -24   -524    203    525    562 182.7  22.2  34196  290.19 0854.36
2009/04/23 13:54:08.5     -44   -476    214    479    524 185.4  25.7  34192  290.13 0854.36
2009/04/23 13:54:08.6     -58   -492    286    496    572 186.8  32.6  34202  290.30 0854.36
2009/04/23 13:54:08.7     -68   -438    217    444    494 188.9  27.9  34192  290.13 0854.36
2009/04/23 13:54:08.8     -46   -280   -163    284    327 189.3 -37.0  34198  290.22 0854.36
2009/04/23 13:54:08.9    -126   -149     -4    196    197 220.3  -1.3  34198  290.21 0854.36
2009/04/23 13:54:09.0     -65    -83     21    106    109 218.3  11.1  34206  290.36 0854.36
2009/04/23 13:54:09.1    -132   -261      6    293    294 207.0   1.2  34202  290.27 0854.36
2009/04/23 13:54:09.2     -34    -98    -25    104    108 199.2 -13.9  34202  290.28 0854.36
2009/04/23 13:54:09.3     -55   -113     76    126    147 205.9  34.4  34200  290.26 0854.37
2009/04/23 13:54:09.4    -234   -177     72    294    303 232.9  13.9  34214  290.49 0854.37
2009/04/23 13:54:09.5    -274    -94     85    290    303 250.9  16.3  34220  290.59 0854.37
2009/04/23 13:54:09.6    -203     59     18    212    213 286.4   4.9  34208  290.38 0854.37
2009/04/23 13:54:09.7    -256     -2     70    257    267 269.4  15.3  34212  290.44 0854.37
2009/04/23 13:54:09.8    -179    -75     79    195    210 247.2  23.1  34218  290.57 0854.37
2009/04/23 13:54:09.9    -339   -226    -43    408    411 236.3  -6.1  34218  290.55 0854.37
2009/04/23 13:54:10.0    -361   -138     -1    387    388 249.0  -0.2  34218  290.54 0854.37
2009/04/23 13:54:10.1    -208   -230    -35    311    314 222.1  -6.5  34210  290.41 0854.37
2009/04/23 13:54:10.2    -211   -186   -145    282    317 228.7 -33.8  34212  290.44 0854.37
2009/04/23 13:54:10.3     -85   -106   -112    137    176 218.7 -48.1  34214  290.48 0854.37
2009/04/23 13:54:10.5    -238   -102     51    260    266 246.7  11.1  34216  290.51 0854.37
2009/04/23 13:54:10.6    -251    -22     56    253    260 264.8  12.6  34212  290.44 0854.37
2009/04/23 13:54:10.7    -161    -94     47    187    193 239.8  14.3  34214  290.50 0854.37
2009/04/23 13:54:10.8    -146   -138     79    202    216 226.7  22.8  34218  290.55 0854.37
2009/04/23 13:54:10.9    -200   -151     44    251    255 232.9  10.0  34220  290.59 0854.37
2009/04/23 13:54:11.0    -129   -220      3    256    257 210.5   0.7  34220  290.58 0854.37
2009/04/23 13:54:11.1    -185   -209     28    280    282 221.4   5.9  34226  290.68 0854.37
2009/04/23 13:54:11.2    -241   -220     26    327    329 227.7   4.6  34230  290.75 0854.37
2009/04/23 13:54:11.3    -350   -175     -2    392    393 243.4  -0.4  34224  290.66 0854.37
2009/04/23 13:54:11.4    -156   -176     27    236    238 221.4   6.7  34224  290.65 0854.39
2009/04/23 13:54:11.5     -99   -109    137    148    201 222.3  47.9  34222  290.62 0854.39
2009/04/23 13:54:11.6     -30   -216    106    219    243 188.1  27.8  34218  290.56 0854.39
2009/04/23 13:54:11.7     -76   -373     34    381    383 191.6   5.2  34218  290.55 0854.39
2009/04/23 13:54:11.8     -39   -416    116    418    434 185.4  15.6  34204  290.33 0854.39
2009/04/23 13:54:11.9      26   -427     92    428    438 176.5  12.2  34190  290.07 0854.39
2009/04/23 13:54:12.0      68   -524     75    529    535 172.5   8.1  34194  290.16 0854.39
2009/04/23 13:54:12.1      -1   -477     49    478    481 180.2   5.9  34196  290.18 0854.39
2009/04/23 13:54:12.2       8   -511      1    512    513 179.0   0.2  34196  290.18 0854.39
2009/04/23 13:54:12.3      14   -489     57    490    494 178.3   6.7  34202  290.29 0854.39
2009/04/23 13:54:12.4     123   -293    125    318    341 157.2  22.7  34210  290.43 0854.39
2009/04/23 13:54:12.5     -16   -364    219    365    425 182.6  33.8  34216  290.53 0854.39
2009/04/23 13:54:12.6      39   -285    249    288    380 172.2  45.2  34232  290.81 0854.39
2009/04/23 13:54:12.7      21   -255    186    256    316 175.1  39.7  34222  290.61 0854.39
2009/04/23 13:54:12.8     -52   -257    126    263    291 191.5  27.3  34210  290.42 0854.39
2009/04/23 13:54:12.9     -15   -259    136    260    293 183.5  29.8  34210  290.42 0854.39
2009/04/23 13:54:13.0     -12   -193     37    194    198 183.8  11.0  34208  290.40 0854.39
2009/04/23 13:54:13.1      -7   -315     70    316    324 181.4  12.6  34214  290.48 0854.39
2009/04/23 13:54:13.2     -76   -442     67    449    454 189.8   8.5  34198  290.22 0854.39
2009/04/23 13:54:13.3    -121   -612     47    624    626 191.2   4.4  34210  290.43 0854.39
2009/04/23 13:54:13.4     -79   -533   -128    539    555 188.5 -13.4  34200  290.24 0854.41
2009/04/23 13:54:13.5    -184   -422    120    461    477 203.6  14.7  34204  290.32 0854.41
2009/04/23 13:54:13.6     -84   -367     96    377    390 192.9  14.4  34202  290.27 0854.41
2009/04/23 13:54:13.7     -47   -302    167    306    348 188.9  31.0  34202  290.28 0854.41
2009/04/23 13:54:13.8     -48   -281    106    286    305 189.8  21.0  34202  290.27 0854.41
2009/04/23 13:54:13.9      29   -165    130    168    212 170.0  41.7  34204  290.31 0854.41
2009/04/23 13:54:14.0      37   -253    166    256    305 171.5  35.7  34202  290.27 0854.41
2009/04/23 13:54:14.1     -32   -234    104    237    258 188.0  25.2  34198  290.20 0854.41
2009/04/23 13:54:14.2     -72   -166     34    182    186 203.6  10.6  34194  290.16 0854.41
2009/04/23 13:54:14.3    -124   -128     35    179    183 224.1  11.1  34200  290.25 0854.41
2009/04/23 13:54:14.4    -187   -212   -118    284    307 221.4 -28.2  34200  290.26 0854.41
2009/04/23 13:54:14.5    -130   -194   -125    234    265 213.8 -34.7  34198  290.22 0854.41
2009/04/23 13:54:14.6    -127    -75   -112    148    185 239.3 -45.6  34198  290.23 0854.41
2009/04/23 13:54:14.7    -143    -24   -125    146    192 260.3 -49.2  34206  290.35 0854.41
2009/04/23 13:54:14.8    -170     30   -174    173    245 280.1 -54.5  34218  290.57 0854.41
2009/04/23 13:54:14.9    -184    -50   -193    191    271 254.7 -54.5  34210  290.41 0854.41
2009/04/23 13:54:15.0    -107    -21   -113    110    157 258.5 -55.3  34202  290.30 0854.41
2009/04/23 13:54:15.1      74     32    -48     81     94  66.0 -38.4  34212  290.47 0854.41
2009/04/23 13:54:15.2      42     -1   -101     43    109  92.6 -79.9  34214  290.50 0854.41
2009/04/23 13:54:15.3      47     10    -90     49    102  77.6 -73.3  34218  290.57 0854.41
2009/04/23 13:54:15.4      66     28    -61     72     94  66.5 -49.2  34226  290.69 0854.42
2009/04/23 13:54:15.5      92    -43    -25    102    106 115.4 -13.9  34226  290.69 0854.42
2009/04/23 13:54:15.6      35    -52    -68     63     92 145.7 -56.6  34244  291.01 0854.42
2009/04/23 13:54:15.7      88      6    -58     89    106  85.6 -40.0  34242  290.98 0854.42
2009/04/23 13:54:15.8     176    -33    -63    180    190 100.8 -23.8  34214  290.50 0854.42
2009/04/23 13:54:15.9     227     34     49    230    236  81.4  12.2  34214  290.49 0854.42
2009/04/23 13:54:16.0     238    -14     83    239    254  93.4  19.2  34204  290.32 0854.42
2009/04/23 13:54:16.1     229    -87    104    246    267 110.8  24.2  34208  290.37 0854.42
2009/04/23 13:54:16.2     241   -164    172    292    338 124.2  33.3  34202  290.27 0854.42
2009/04/23 13:54:16.3     248   -168    217    300    370 124.1  39.5  34202  290.28 0854.42
2009/04/23 13:54:16.4     -62   -530    378    534    654 186.7  38.7  34194  290.16 0854.42
2009/04/23 13:54:16.5     100   -492    245    503    559 168.4  27.9  34188  290.04 0854.42
2009/04/23 13:54:16.6     264   -264    269    374    460 134.9  39.5  34194  290.16 0854.42
2009/04/23 13:54:16.7     282   -572    308    638    708 153.7  27.8  34194  290.16 0854.42
2009/04/23 13:54:16.8     118   -576    478    589    758 168.4  43.3  34196  290.18 0854.42
2009/04/23 13:54:16.9     219   -735    566    768    954 163.4  40.1  34194  290.16 0854.42
2009/04/23 13:54:17.0     285   -536    108    608    618 152.0  10.1  34186  290.01 0854.42
2009/04/23 13:54:17.1     280   -441     65    523    528 147.6   7.1  34190  290.07 0854.42
2009/04/23 13:54:17.2     237   -430    -62    491    495 151.1  -7.2  34198  290.23 0854.42
2009/04/23 13:54:17.3     148   -505     26    527    528 163.6   2.9  34202  290.28 0854.42
2009/04/23 13:54:17.4     215   -360    -61    420    425 149.1  -8.3  34196  290.19 0854.42
2009/04/23 13:54:17.5     265   -245    -97    362    375 132.8 -15.1  34200  290.25 0854.42
2009/04/23 13:54:17.6     198   -191    115    276    299 134.0  23.8  34200  290.26 0854.42
2009/04/23 13:54:17.7     231   -267     62    354    360 139.1  10.0  34210  290.42 0854.42
2009/04/23 13:54:17.8     155   -448    -44    475    478 160.9  -5.4  34210  290.42 0854.42
2009/04/23 13:54:17.9     177   -475    180    508    539 159.5  19.5  34200  290.24 0854.42
2009/04/23 13:54:18.0     128   -460    290    478    559 164.4  34.1  34198  290.21 0854.42
2009/04/23 13:54:18.1     260   -298    108    396    411 138.9  15.3  34202  290.28 0854.42
2009/04/23 13:54:18.2     197   -343   -101    396    409 150.1 -14.4  34196  290.17 0854.42
2009/04/23 13:54:18.3     105   -544   -127    555    570 169.0 -12.9  34194  290.16 0854.42
2009/04/23 13:54:18.4     136   -327    -98    355    369 157.4 -15.4  34196  290.18 0854.42
2009/04/23 13:54:18.5      76   -375      5    383    384 168.4   0.8  34202  290.28 0854.42
2009/04/23 13:54:18.6    -303   -554    -58    632    635 208.7  -5.3  34206  290.35 0854.42
2009/04/23 13:54:18.7    -140   -412   -125    436    454 198.8 -16.0  34196  290.17 0854.42
2009/04/23 13:54:18.8      -6   -398    151    399    426 180.9  21.8  34210  290.43 0854.42
2009/04/23 13:54:18.9     -71   -303    188    312    364 193.3  34.0  34210  290.42 0854.42
2009/04/23 13:54:19.0    -296   -352     60    461    465 220.1   7.5  34208  290.38 0854.42
2009/04/23 13:54:19.1     -98   -446    156    457    484 192.5  18.9  34212  290.44 0854.42
2009/04/23 13:54:19.2       0   -596    109    597    607 180.0  10.4  34210  290.42 0854.42
2009/04/23 13:54:19.3      86   -612    -71    619    624 172.0  -6.6  34202  290.30 0854.42
2009/04/23 13:54:19.4     206   -537   -126    576    590 159.0 -12.4  34204  290.31 0854.41
2009/04/23 13:54:19.5     449   -396    -31    599    600 131.4  -3.0  34204  290.32 0854.41
2009/04/23 13:54:19.6     408   -384     28    561    562 133.2   2.9  34198  290.23 0854.41
2009/04/23 13:54:19.7     420   -315     40    525    527 126.9   4.4  34202  290.28 0854.41
2009/04/23 13:54:19.8     447   -229    140    503    523 117.2  15.6  34202  290.30 0854.41
2009/04/23 13:54:19.9     400   -223    271    459    533 119.2  33.4  34198  290.23 0854.41
2009/04/23 13:54:20.0     426   -164    160    457    484 111.1  20.0  34204  290.32 0854.41
2009/04/23 13:54:20.1     408   -495     97    642    650 140.5   8.6  34196  290.18 0854.41
2009/04/23 13:54:20.2     327   -496     84    595    602 146.6   8.1  34192  290.10 0854.41
2009/04/23 13:54:20.3     451   -534    158    700    718 139.8  12.8  34176  289.83 0854.41
2009/04/23 13:54:20.4     388   -536    246    662    706 144.1  21.4  34178  289.87 0854.41
2009/04/23 13:54:20.5     436   -464    224    638    676 136.8  20.2  34190  290.07 0854.41
2009/04/23 13:54:20.6     386   -405    252    560    614 136.4  25.9  34184  289.98 0854.41
2009/04/23 13:54:20.7     387   -399    189    557    589 135.9  18.8  34178  289.86 0854.41
2009/04/23 13:54:20.8     406   -504    107    648    657 141.2   9.4  34188  290.06 0854.41
2009/04/23 13:54:20.9     329   -486    203    587    622 145.9  19.1  34184  289.98 0854.41
2009/04/23 13:54:21.0     337   -410    328    531    624 140.6  34.6  34180  289.91 0854.41
2009/04/23 13:54:21.1     288   -325    176    435    469 138.5  23.2  34188  290.05 0854.41
2009/04/23 13:54:21.2     288   -288    221    408    464 135.0  30.9  34186  290.02 0854.41
2009/04/23 13:54:21.3     298   -294    334    419    535 134.6  42.7  34188  290.05 0854.41
2009/04/23 13:54:21.4     184   -571    357    601    699 162.1  33.5  34182  289.93 0854.43
2009/04/23 13:54:21.5     209   -662    431    695    817 162.5  34.8  34178  289.88 0854.43
2009/04/23 13:54:21.6     127   -622    367    636    734 168.4  32.6  34178  289.89 0854.43
2009/04/23 13:54:21.7      86   -454    211    463    508 169.3  26.2  34182  289.96 0854.43
2009/04/23 13:54:21.8     134   -483    236    502    554 164.5  27.1  34188  290.04 0854.43
2009/04/23 13:54:21.9     186   -624    330    652    730 163.4  29.1  34178  289.86 0854.43
2009/04/23 13:54:22.0     144   -635    346    652    738 167.2  30.2  34178  289.89 0854.43
2009/04/23 13:54:22.1      -8   -553    356    554    658 180.9  35.7  34184  289.98 0854.43
2009/04/23 13:54:22.2       5   -660     10    661    662 179.5   0.9  34184  289.97 0854.43
2009/04/23 13:54:22.3     177   -238    173    297    343 143.3  32.8  34168  289.71 0854.43
2009/04/23 13:54:22.4       4   -533    151    534    555 179.5  15.8  34190  290.07 0854.43
2009/04/23 13:54:22.5     136   -546    272    563    625 166.0  27.7  34178  289.88 0854.43
2009/04/23 13:54:22.6      78   -450    274    457    532 170.1  33.7  34178  289.89 0854.43
2009/04/23 13:54:22.7     -92   -663      8    670    671 187.9   0.7  34182  289.95 0854.43
2009/04/23 13:54:22.8      35   -524     74    526    532 176.1   8.0  34178  289.89 0854.43
2009/04/23 13:54:22.9      23   -527     54    528    531 177.4   5.9  34176  289.84 0854.43
2009/04/23 13:54:23.0      57   -420    149    424    449 172.2  20.1  34172  289.78 0854.43
2009/04/23 13:54:23.1     -69   -442    213    448    496 188.9  27.3  34178  289.89 0854.43
2009/04/23 13:54:23.2       0   -351    290    352    456 180.1  43.7  34184  289.99 0854.43
2009/04/23 13:54:23.3      29   -380    327    382    502 175.5  44.8  34182  289.95 0854.43
2009/04/23 13:54:23.4    -106   -361    366    377    525 196.4  49.2  34186  290.01 0854.45
2009/04/23 13:54:23.5    -121   -436    346    453    570 195.6  41.2  34190  290.09 0854.45
2009/04/23 13:54:23.6    -124   -463    406    480    628 195.1  44.7  34188  290.03 0854.45
2009/04/23 13:54:23.7    -337   -416    205    536    573 219.0  22.0  34176  289.85 0854.45
2009/04/23 13:54:23.8    -377   -102    175    391    428 254.9  25.9  34180  289.92 0854.45
2009/04/23 13:54:23.9    -265    -46     96    270    287 260.1  19.6  34188  290.03 0854.45
2009/04/23 13:54:24.0    -353   -445    316    569    650 218.4  31.5  34174  289.81 0854.45
2009/04/23 13:54:24.1    -288   -406    176    499    529 215.4  20.1  34180  289.91 0854.45
2009/04/23 13:54:24.2    -165   -421    169    453    483 201.4  21.5  34178  289.86 0854.45
2009/04/23 13:54:24.3    -280   -264    279    385    475 226.7  39.5  34188  290.05 0854.45
2009/04/23 13:54:24.4    -387   -260    207    467    510 236.1  25.3  34184  289.98 0854.45
2009/04/23 13:54:24.5    -488   -184    153    522    545 249.3  16.4  34192  290.11 0854.45
2009/04/23 13:54:24.6    -389   -302    256    493    555 232.1  29.6  34196  290.18 0854.45
2009/04/23 13:54:24.7    -100   -373    263    387    467 195.1  37.4  34214  290.48 0854.45
2009/04/23 13:54:24.8    -429   -333    194    544    577 232.2  20.4  34210  290.43 0854.45
2009/04/23 13:54:24.9    -490   -142    139    511    530 253.8  15.3  34226  290.70 0854.45
2009/04/23 13:54:25.0    -508   -244    -65    564    568 244.3  -6.6  34190  290.07 0854.45
2009/04/23 13:54:25.1    -373   -488   -159    615    636 217.4 -14.5  34156  289.52 0854.45
2009/04/23 13:54:25.2    -241   -281   -130    371    393 220.5 -24.4  34188  290.04 0854.45
2009/04/23 13:54:25.3    -181   -288    -26    341    343 212.1  -4.5  34204  290.33 0854.45
2009/04/23 13:54:25.4    -402   -148    251    429    497 249.7  33.0  34228  290.74 0854.43
2009/04/23 13:54:25.5    -325   -276    228    427    484 229.6  30.3  34218  290.56 0854.43
2009/04/23 13:54:25.6    -270   -359    139    450    472 217.0  17.2  34202  290.28 0854.43
2009/04/23 13:54:25.7    -397   -433     50    588    591 222.5   4.9  34198  290.22 0854.43
2009/04/23 13:54:25.8    -384   -494    -47    626    628 217.9  -4.4  34202  290.30 0854.43
2009/04/23 13:54:25.9    -327   -411    -37    526    528 218.5  -4.1  34194  290.16 0854.43
2009/04/23 13:54:26.0    -425   -467     50    632    635 222.3   4.6  34198  290.21 0854.43
2009/04/23 13:54:26.1    -425   -385    -72    574    579 227.8  -7.2  34202  290.27 0854.43
2009/04/23 13:54:26.2    -210   -441   -112    489    502 205.5 -12.9  34196  290.17 0854.43
2009/04/23 13:54:26.3    -337   -279     87    438    447 230.4  11.3  34212  290.46 0854.43
2009/04/23 13:54:26.4    -274   -291    117    400    417 223.3  16.3  34200  290.24 0854.43
2009/04/23 13:54:26.5    -251   -307     36    397    399 219.2   5.2  34202  290.27 0854.43
2009/04/23 13:54:26.6    -286   -186    -43    342    345 236.9  -7.2  34202  290.28 0854.43
2009/04/23 13:54:26.7    -216   -197    -13    293    294 227.6  -2.6  34206  290.36 0854.43
2009/04/23 13:54:26.8    -211   -276    -19    348    349 217.4  -3.3  34198  290.23 0854.43
2009/04/23 13:54:26.9    -244   -186     99    307    323 232.7  17.9  34206  290.34 0854.43
2009/04/23 13:54:27.0    -220   -296     93    369    381 216.6  14.2  34208  290.37 0854.43
2009/04/23 13:54:27.1    -348   -314     83    469    477 227.9  10.1  34216  290.52 0854.43
2009/04/23 13:54:27.2    -233   -370     65    438    443 212.2   8.5  34196  290.19 0854.43
2009/04/23 13:54:27.3    -181   -464    160    499    525 201.3  17.8  34208  290.40 0854.43
2009/04/23 13:54:27.4    -347   -444     23    564    565 218.0   2.3  34202  290.30 0854.45
2009/04/23 13:54:27.5    -409   -217    133    464    483 242.0  16.0  34222  290.61 0854.45
2009/04/23 13:54:27.6    -199   -499     84    538    545 201.8   8.9  34192  290.13 0854.45
2009/04/23 13:54:27.7    -135   -493     52    512    515 195.3   5.8  34208  290.37 0854.45
2009/04/23 13:54:27.8    -363   -200     27    415    416 241.1   3.7  34208  290.39 0854.45
2009/04/23 13:54:27.9    -209   -409    131    460    479 207.1  15.9  34198  290.22 0854.45
2009/04/23 13:54:28.0    -328   -396     91    515    524 219.6  10.0  34206  290.35 0854.45
2009/04/23 13:54:28.1    -309   -287    112    422    437 227.1  14.9  34204  290.33 0854.45
2009/04/23 13:54:28.2    -367   -286     90    466    475 232.0  11.0  34212  290.47 0854.45
2009/04/23 13:54:28.3    -318   -187     57    370    375 239.5   8.8  34208  290.40 0854.45
2009/04/23 13:54:28.4    -258   -234    209    349    406 227.8  33.7  34208  290.38 0854.45
2009/04/23 13:54:28.5    -280   -284    215    400    454 224.6  30.7  34226  290.70 0854.45
2009/04/23 13:54:28.6    -189   -335    132    385    408 209.4  18.9  34202  290.30 0854.45
2009/04/23 13:54:28.7     -99   -288    118    305    327 199.1  22.2  34208  290.37 0854.45
2009/04/23 13:54:28.8     -87   -215     36    233    236 202.1   8.8  34208  290.37 0854.45
2009/04/23 13:54:28.9     -82   -142    115    165    201 210.1  38.4  34216  290.52 0854.45
2009/04/23 13:54:29.0     -77   -263    160    275    318 196.3  32.8  34220  290.58 0854.45
2009/04/23 13:54:29.1      72   -217    177    229    289 161.5  41.7  34214  290.48 0854.45
2009/04/23 13:54:29.2      56   -274    140    280    313 168.4  28.6  34214  290.48 0854.45
2009/04/23 13:54:29.3     -47   -305    161    309    348 188.9  29.6  34212  290.45 0854.45
2009/04/23 13:54:29.4     -23   -219    162    221    274 186.2  39.7  34210  290.42 0854.46
2009/04/23 13:54:29.5    -140   -193    128    239    271 216.1  30.6  34220  290.59 0854.46
2009/04/23 13:54:29.6      65     -8    141     66    155  97.0  73.1  34218  290.55 0854.46
2009/04/23 13:54:29.7      93    -67    158    115    195 125.9  60.5  34218  290.57 0854.46
2009/04/23 13:54:29.8      86    -39    168     95    193 114.8  68.1  34214  290.48 0854.46
2009/04/23 13:54:29.9      35      7    151     36    155  78.5  86.9  34218  290.57 0854.46
2009/04/23 13:54:30.0      16     42    110     45    118  20.9  77.0  34216  290.53 0854.46
2009/04/23 13:54:30.1     -84    -13    123     86    150 260.8  61.5  34216  290.53 0854.46
2009/04/23 13:54:30.2    -214     22     67    216    227 276.1  17.4  34238  290.89 0854.46
2009/04/23 13:54:30.3    -153     11     65    154    167 274.4  24.3  34240  290.94 0854.46
2009/04/23 13:54:30.4    -168    -37     60    173    184 257.4  19.2  34218  290.57 0854.47
2009/04/23 13:54:30.5    -109    -60    -34    125    130 241.1 -15.5  34208  290.40 0854.47
2009/04/23 13:54:30.6    -159    -41      7    165    166 255.4   2.5  34210  290.41 0854.47
2009/04/23 13:54:30.7    -164   -106     -9    196    197 237.1  -2.8  34220  290.58 0854.47
2009/04/23 13:54:30.8    -196   -108     -8    224    225 241.2  -2.3  34218  290.55 0854.47
2009/04/23 13:54:30.9    -244    -98    -74    264    274 248.0 -20.4  34218  290.56 0854.47
2009/04/23 13:54:31.0    -221    -25    -28    223    225 263.4  -7.3  34220  290.60 0854.47
2009/04/23 13:54:31.1    -146    -69    -76    162    178 244.6 -31.5  34222  290.62 0854.47
2009/04/23 13:54:31.2     -90    -99    -18    134    136 222.3  -7.7  34220  290.58 0854.47
2009/04/23 13:54:31.3     -11   -175     -7    176    177 183.8  -2.3  34220  290.60 0854.47
2009/04/23 13:54:31.4      38   -242     -9    246    247 171.1  -2.2  34222  290.61 0854.47
2009/04/23 13:54:31.5      51   -274    -35    279    282 169.3  -7.3  34222  290.63 0854.47
2009/04/23 13:54:31.6      32   -227    -26    230    232 171.9  -6.5  34208  290.40 0854.47
2009/04/23 13:54:31.7      63   -201     28    211    213 162.6   7.8  34214  290.50 0854.47
2009/04/23 13:54:31.8     -36   -139    112    144    182 194.7  41.7  34210  290.41 0854.47
2009/04/23 13:54:31.9     -72   -105     87    128    154 214.3  37.4  34212  290.47 0854.47
2009/04/23 13:54:32.0     -97    -48     90    109    141 243.8  43.7  34216  290.52 0854.47
2009/04/23 13:54:32.1     -86     14      4     88     89 279.7   2.9  34210  290.43 0854.47
2009/04/23 13:54:32.2       0      0     51      1     51 350.3  90.0  34216  290.53 0854.47
2009/04/23 13:54:32.3     -36    -94     73    101    124 200.9  39.5  34222  290.64 0854.47
2009/04/23 13:54:32.4    -174   -143     53    226    233 230.5  13.2  34220  290.58 0854.46
2009/04/23 13:54:32.5    -126   -154    125    200    235 219.2  35.0  34218  290.57 0854.46
2009/04/23 13:54:32.6     -77   -159    145    177    228 205.9  43.7  34222  290.64 0854.46
2009/04/23 13:54:32.7    -106   -126    184    165    247 220.1  53.5  34224  290.65 0854.46
2009/04/23 13:54:32.8    -217    -19    -78    218    232 264.8 -19.7  34214  290.50 0854.46
2009/04/23 13:54:32.9    -231    -76     37    244    247 251.8   8.8  34212  290.46 0854.46
2009/04/23 13:54:33.0    -224    -62     20    233    234 254.5   5.0  34220  290.59 0854.46
2009/04/23 13:54:33.1    -217    -94     17    237    238 246.5   4.2  34218  290.56 0854.46
2009/04/23 13:54:33.2    -184    -55     52    193    200 253.2  15.2  34220  290.58 0854.46
2009/04/23 13:54:33.3    -269    -20     84    270    283 265.6  17.4  34232  290.78 0854.46
2009/04/23 13:54:33.4    -265    -41     73    269    279 261.2  15.3  34236  290.87 0854.46
2009/04/23 13:54:33.5    -291    -45      4    295    296 261.2   0.8  34268  291.41 0854.46
2009/04/23 13:54:33.6    -294    -87     16    307    308 253.4   3.1  34258  291.24 0854.46
2009/04/23 13:54:33.7    -327   -126      4    351    352 248.8   0.7  34264  291.35 0854.46
2009/04/23 13:54:33.8     -62    -75    127     98    160 219.6  58.5  34230  290.77 0854.46
2009/04/23 13:54:33.9     -65    -41    111     77    135 237.6  62.6  34230  290.77 0854.46
2009/04/23 13:54:34.0     -53    -36    107     65    125 235.8  65.7  34226  290.69 0854.46
2009/04/23 13:54:34.1     -31    -87    140     93    168 199.6  63.6  34222  290.62 0854.46
2009/04/23 13:54:34.2     -59    -67    133     90    160 221.4  62.8  34226  290.70 0854.46
2009/04/23 13:54:34.3     -90    -57    116    107    157 237.5  52.5  34232  290.81 0854.46
2009/04/23 13:54:34.4     -31    -35    112     47    121 221.4  76.1  34232  290.81 0854.47
2009/04/23 13:54:34.5      -7    -34    101     35    106 191.6  81.2  34222  290.62 0854.47
2009/04/23 13:54:34.6      78      1    108     79    133  89.2  60.5  34224  290.65 0854.47
2009/04/23 13:54:34.7      24    -58    111     63    127 157.3  68.3  34214  290.48 0854.47
2009/04/23 13:54:34.8      41   -112     99    120    155 159.5  43.7  34210  290.41 0854.47
2009/04/23 13:54:34.9      58   -122    108    136    173 154.6  42.7  34206  290.36 0854.47
2009/04/23 13:54:35.0     117   -172    132    209    247 145.7  35.5  34206  290.34 0854.47
2009/04/23 13:54:35.1      64   -283    156    291    330 167.1  30.6  34204  290.32 0854.47
2009/04/23 13:54:35.2     138   -183    105    230    252 143.0  26.2  34208  290.37 0854.47
2009/04/23 13:54:35.3     125   -286    153    313    348 156.4  27.9  34198  290.23 0854.47
2009/04/23 13:54:35.4      74   -303    153    313    348 166.2  27.9  34202  290.27 0854.47
2009/04/23 13:54:35.5     254   -309    105    401    415 140.6  14.7  34204  290.31 0854.47
2009/04/23 13:54:35.6     283   -356     89    456    465 141.5  11.1  34202  290.28 0854.47
2009/04/23 13:54:35.7     241   -373    149    445    470 147.2  18.6  34202  290.28 0854.47
2009/04/23 13:54:35.8     157   -358    201    392    440 156.3  29.2  34212  290.44 0854.47
2009/04/23 13:54:35.9     216   -350    220    412    467 148.3  30.3  34202  290.28 0854.47
2009/04/23 13:54:36.0     161   -305    223    346    411 152.1  35.7  34208  290.37 0854.47
2009/04/23 13:54:36.1     126   -413    106    432    445 163.0  13.9  34202  290.29 0854.47
2009/04/23 13:54:36.2      77   -415    111    423    438 169.4  14.7  34206  290.34 0854.47
2009/04/23 13:54:36.3       4   -354     89    355    367 179.3  14.2  34206  290.35 0854.47
2009/04/23 13:54:36.4     -36   -272    105    275    294 187.6  22.0  34206  290.36 0854.49
2009/04/23 13:54:36.5     -10   -232    108    233    256 182.7  26.6  34208  290.37 0854.49
2009/04/23 13:54:36.6     -95   -242     17    261    262 201.4   3.8  34212  290.46 0854.49
2009/04/23 13:54:36.7     -32   -224     49    227    233 188.1  12.4  34212  290.47 0854.49
2009/04/23 13:54:36.8     -23   -247     16    249    250 185.3   3.8  34214  290.48 0854.49
2009/04/23 13:54:36.9     -19   -274     -1    275    276 184.0  -0.3  34218  290.54 0854.49
2009/04/23 13:54:37.0       0   -296     15    297    298 180.1   2.9  34222  290.61 0854.49
2009/04/23 13:54:37.1      23   -298     46    299    303 175.5   8.8  34220  290.58 0854.49
2009/04/23 13:54:37.2     -13   -260    -12    261    262 182.9  -2.8  34218  290.56 0854.49
2009/04/23 13:54:37.3    -209   -389    -86    442    451 208.3 -11.1  34228  290.73 0854.49
2009/04/23 13:54:37.4    -114   -467      6    481    482 193.8   0.8  34216  290.51 0854.49
2009/04/23 13:54:37.5    -153   -438    117    465    480 199.3  14.2  34212  290.47 0854.49
2009/04/23 13:54:37.6    -123   -369    -15    390    391 198.5  -2.2  34234  290.83 0854.49
2009/04/23 13:54:37.8     -60   -296     14    303    304 191.6   2.8  34224  290.65 0854.49
2009/04/23 13:54:37.8      -7   -250     67    251    260 181.8  15.0  34224  290.65 0854.49
2009/04/23 13:54:38.0       8   -228     67    229    239 178.0  16.3  34222  290.61 0854.49
2009/04/23 13:54:38.0      74   -159     64    176    187 154.8  20.7  34222  290.62 0854.49
2009/04/23 13:54:38.1      23   -251    -26    253    255 174.7  -6.1  34230  290.76 0854.49
2009/04/23 13:54:38.3      56   -328    -34    333    335 170.3  -6.0  34228  290.71 0854.49
2009/04/23 13:54:38.4      79   -319     10    329    330 166.0   1.9  34224  290.67 0854.49
2009/04/23 13:54:38.5      64   -316     77    323    333 168.4  13.5  34228  290.72 0854.47
2009/04/23 13:54:38.6     103   -333     33    349    351 162.8   5.4  34220  290.59 0854.47
2009/04/23 13:54:38.7      80   -312     -7    323    324 165.5  -1.4  34220  290.59 0854.47
2009/04/23 13:54:38.8     139   -294    -10    326    327 154.7  -1.8  34220  290.59 0854.47
2009/04/23 13:54:38.9     178   -286    -13    338    339 148.1  -2.2  34222  290.62 0854.47
2009/04/23 13:54:39.0     102   -244    -68    265    274 157.2 -14.5  34224  290.65 0854.47
2009/04/23 13:54:39.1      55   -175    -60    184    194 162.4 -18.1  34224  290.67 0854.47
2009/04/23 13:54:39.2      -5   -205   -106    206    231 181.6 -33.7  34224  290.65 0854.47
2009/04/23 13:54:39.3      -8   -210    -75    211    224 182.2 -19.6  34222  290.62 0854.47
2009/04/23 13:54:39.4      -3   -190    -79    191    206 181.0 -28.2  34216  290.53 0854.47
2009/04/23 13:54:39.5      38   -141    -49    147    154 164.9 -23.6  34220  290.58 0854.47
2009/04/23 13:54:39.6     -18    -92     -3     94     95 191.1  -2.2  34222  290.62 0854.47
2009/04/23 13:54:39.7     -16    -78     12     80     82 191.6   9.0  34222  290.62 0854.47
2009/04/23 13:54:39.8     -21    -38      7     44     45 209.9  10.1  34226  290.70 0854.47
2009/04/23 13:54:39.9       5     -1    -22      6     22 108.4 -87.2  34230  290.75 0854.47
2009/04/23 13:54:40.0      75     34    -35     83     90  65.2 -29.0  34222  290.64 0854.47
2009/04/23 13:54:40.1      65     41     12     77     78  57.6   9.0  34226  290.70 0854.47
2009/04/23 13:54:40.2       8     25    -12     27     29  18.7 -27.4  34228  290.74 0854.47
2009/04/23 13:54:40.3      44    -23    -62     50     79 118.0 -61.3  34230  290.77 0854.47
2009/04/23 13:54:40.4     121    -45    -41    130    136 110.4 -22.8  34228  290.74 0854.47
2009/04/23 13:54:40.5     113     -8     14    114    115  94.3   7.1  34222  290.62 0854.45
2009/04/23 13:54:40.6      46      9     73     47     86  78.5  64.6  34226  290.70 0854.45
2009/04/23 13:54:40.7      19     12    102     23    104  57.6  88.0  34234  290.82 0854.45
2009/04/23 13:54:40.8       0     -3     94      4     94 184.5  90.0  34234  290.84 0854.45
2009/04/23 13:54:40.9     105     -1     98    106    144  90.9  47.9  34228  290.72 0854.45
2009/04/23 13:54:41.0     101    -54    136    115    178 118.4  55.6  34228  290.72 0854.45
2009/04/23 13:54:41.1      90      6    186     91    207  85.6  72.7  34230  290.75 0854.45
2009/04/23 13:54:41.2     -25     33     64     42     76 323.0  64.6  34240  290.92 0854.45
2009/04/23 13:54:41.3      37     29    111     48    120  51.4  75.0  34234  290.82 0854.45
2009/04/23 13:54:41.4      30     48    100     57    115  32.5  67.7  34232  290.79 0854.45
2009/04/23 13:54:41.5      61     39    125     73    144  57.5  66.8  34232  290.81 0854.45
2009/04/23 13:54:41.6      -9     41    120     43    127 347.5  80.2  34242  290.96 0854.45
2009/04/23 13:54:41.7     -31     -3     50     32     59 263.9  64.6  34240  290.92 0854.45
2009/04/23 13:54:41.8     -67    -58     40     89     97 229.1  25.7  34240  290.92 0854.45
2009/04/23 13:54:41.9      49    -60     78     78    110 140.3  50.1  34236  290.87 0854.45
2009/04/23 13:54:42.0      21   -136    103    138    172 171.1  40.7  34226  290.69 0854.45
2009/04/23 13:54:42.1      88   -225    188    242    306 158.6  41.7  34222  290.63 0854.45
2009/04/23 13:54:42.2      58   -276    106    283    302 168.0  21.3  34226  290.70 0854.45
2009/04/23 13:54:42.3     -30   -294     58    296    302 186.0  11.1  34226  290.70 0854.45
2009/04/23 13:54:42.4    -124   -293    104    319    336 202.9  18.1  34226  290.69 0854.45
2009/04/23 13:54:42.5    -144   -266     71    303    312 208.5  13.2  34226  290.68 0854.44
2009/04/23 13:54:42.6    -171   -286     48    334    338 210.9   8.3  34228  290.71 0854.44
2009/04/23 13:54:42.7    -122   -214     61    247    255 209.6  13.9  34222  290.61 0854.44
2009/04/23 13:54:42.8     -55   -273     65    279    287 191.5  13.2  34220  290.59 0854.44
2009/04/23 13:54:42.9     -82   -156     10    177    178 207.6   3.3  34224  290.65 0854.44
2009/04/23 13:54:43.0    -122    -93      7    154    155 232.7   2.8  34222  290.64 0854.44
2009/04/23 13:54:43.1    -195   -138      6    240    241 234.7   1.6  34220  290.59 0854.44
2009/04/23 13:54:43.2    -224   -157    -70    274    283 235.0 -14.4  34236  290.85 0854.44
2009/04/23 13:54:43.3    -228    -93    -49    247    252 247.8 -11.3  34230  290.75 0854.44
2009/04/23 13:54:43.4    -155    -96    -58    183    191 238.2 -22.8  34226  290.70 0854.44
2009/04/23 13:54:43.5    -136    -59      9    149    150 246.5   3.8  34214  290.50 0854.44
2009/04/23 13:54:43.6     -83    -76     59    113    127 227.3  29.3  34220  290.58 0854.44
2009/04/23 13:54:43.7    -118   -100     81    155    174 229.6  29.8  34218  290.55 0854.44
2009/04/23 13:54:43.8    -176   -151    104    233    255 229.3  25.7  34226  290.68 0854.44
2009/04/23 13:54:43.9    -171   -150     79    228    242 228.7  19.2  34226  290.70 0854.44
2009/04/23 13:54:44.0    -191   -179     49    263    268 226.9  10.6  34222  290.63 0854.44
2009/04/23 13:54:44.1    -134   -157     27    207    209 220.5   7.5  34224  290.65 0854.44
2009/04/23 13:54:44.2    -110   -172    -10    205    206 212.6  -2.8  34220  290.58 0854.44
2009/04/23 13:54:44.3     -74   -192     -8    206    207 201.2  -2.2  34220  290.60 0854.44
2009/04/23 13:54:44.4     -93   -128    -69    159    173 216.1 -29.3  34222  290.62 0854.44
2009/04/23 13:54:44.5    -123   -216    -49    249    254 209.6 -11.3  34224  290.65 0854.41
2009/04/23 13:54:44.6    -232   -181    -81    295    307 232.2 -15.4  34252  291.12 0854.41
2009/04/23 13:54:44.7    -200   -182    -58    271    278 227.8 -12.2  34250  291.10 0854.41
2009/04/23 13:54:44.8    -215   -101    -93    238    255 244.7 -27.2  34252  291.14 0854.41
2009/04/23 13:54:44.9    -128   -202   -138    240    276 212.5 -36.8  34248  291.07 0854.41
2009/04/23 13:54:45.0    -103   -284   -125    303    327 200.0 -28.1  34240  290.93 0854.41
2009/04/23 13:54:45.1    -102   -326   -106    342    359 197.4 -17.2  34242  290.98 0854.41
2009/04/23 13:54:45.2      -7   -365    -39    366    369 181.2  -6.2  34240  290.93 0854.41
2009/04/23 13:54:45.3     -21   -347    -40    348    351 183.5  -6.6  34248  291.05 0854.41
2009/04/23 13:54:45.4     -32   -366    -14    368    369 185.1  -2.2  34242  290.96 0854.41
2009/04/23 13:54:45.5       1   -372     11    373    374 179.8   1.8  34234  290.83 0854.41
2009/04/23 13:54:45.6       1   -347     32    348    350 179.7   5.3  34218  290.55 0854.41
2009/04/23 13:54:45.7       6   -359     97    360    373 179.0  15.1  34220  290.59 0854.41
2009/04/23 13:54:45.8      50   -348    177    352    393 171.7  28.6  34222  290.64 0854.41
2009/04/23 13:54:45.9     181   -261    143    318    348 145.3  25.9  34218  290.55 0854.41
2009/04/23 13:54:46.0     165   -312    290    353    456 152.1  43.7  34212  290.46 0854.41
2009/04/23 13:54:46.1     181   -231    294    294    415 141.9  50.1  34216  290.52 0854.41
2009/04/23 13:54:46.2      81   -119    258    145    295 145.8  68.5  34230  290.75 0854.41
2009/04/23 13:54:46.3      28    -57    192     64    202 153.7  81.0  34236  290.87 0854.41
2009/04/23 13:54:46.4      15    -96    164     98    191 170.7  66.2  34236  290.86 0854.41
2009/04/23 13:54:46.5      36   -220    206    223    303 170.7  47.9  34230  290.76 0854.41
2009/04/23 13:54:46.6     -68   -175    186    189    265 201.4  49.8  34230  290.75 0854.41
2009/04/23 13:54:46.7     -46   -153    191    160    249 196.9  56.1  34222  290.62 0854.41
2009/04/23 13:54:46.8    -102   -123    215    161    268 219.6  59.4  34236  290.87 0854.41
2009/04/23 13:54:46.9    -151   -158    148    219    264 223.7  37.3  34242  290.95 0854.41
2009/04/23 13:54:47.0    -156   -156    190    222    292 225.0  44.9  34240  290.92 0854.41
2009/04/23 13:54:47.1    -174   -193    201    261    329 222.1  41.5  34230  290.75 0854.41
2009/04/23 13:54:47.2    -102   -280    207    299    363 200.1  37.9  34236  290.86 0854.41
2009/04/23 13:54:47.3    -119   -224    142    254    290 208.0  31.6  34240  290.92 0854.41
2009/04/23 13:54:47.4     -89   -269    122    284    309 198.3  25.1  34242  290.97 0854.41
2009/04/23 13:54:47.5     -71   -282    153    291    328 194.2  30.0  34246  291.02 0854.41
2009/04/23 13:54:47.6    -101   -236    145    257    295 203.2  31.9  34250  291.09 0854.41
2009/04/23 13:54:47.7     -76   -209     99    223    243 200.1  25.7  34244  290.99 0854.41
2009/04/23 13:54:47.8      -6   -260    133    261    292 181.4  29.2  34232  290.80 0854.41
2009/04/23 13:54:47.9       0   -341    119    342    363 179.9  19.2  34228  290.71 0854.41
2009/04/23 13:54:48.0     -42   -334    189    337    386 187.2  31.6  34230  290.76 0854.41
2009/04/23 13:54:48.1     -84   -265    159    279    321 197.6  32.4  34228  290.71 0854.41
2009/04/23 13:54:48.2     -46   -269    207    274    343 189.8  40.9  34234  290.83 0854.41
2009/04/23 13:54:48.3     -85   -365    219    375    434 193.2  33.0  34228  290.72 0854.41
2009/04/23 13:54:48.4    -109   -458    324    471    571 193.4  37.8  34222  290.62 0854.41
2009/04/23 13:54:48.5     -80   -329    310    339    459 193.7  47.1  34222  290.63 0854.44
2009/04/23 13:54:48.6     -85   -346    198    357    408 193.8  31.4  34224  290.67 0854.44
2009/04/23 13:54:48.7     -93   -269    134    285    314 199.1  27.0  34228  290.73 0854.44
2009/04/23 13:54:48.8     -78   -280    194    291    349 195.6  36.6  34242  290.96 0854.44
2009/04/23 13:54:48.9     -47   -303    326    307    447 188.9  52.1  34244  290.99 0854.44
2009/04/23 13:54:49.0    -104   -283    228    302    378 200.3  40.9  34224  290.66 0854.44
2009/04/23 13:54:49.1    -178   -409     87    447    456 203.5  11.1  34222  290.63 0854.44
2009/04/23 13:54:49.2    -306   -325     46    447    450 223.3   5.9  34226  290.70 0854.44
2009/04/23 13:54:49.3    -325   -361    -29    486    487 222.0  -3.5  34222  290.62 0854.44
2009/04/23 13:54:49.4    -251   -297     11    389    390 220.2   1.7  34220  290.60 0854.44
2009/04/23 13:54:49.5    -221   -273     79    352    361 219.0  12.8  34224  290.67 0854.44
2009/04/23 13:54:49.6    -190   -357     81    405    414 208.0  11.3  34228  290.72 0854.44
2009/04/23 13:54:49.7    -165   -348    147    386    413 205.3  22.0  34236  290.85 0854.44
2009/04/23 13:54:49.8     -62   -433    180    438    473 188.2  23.6  34234  290.82 0854.44
2009/04/23 13:54:49.9     -77   -428    118    435    451 190.3  15.2  34230  290.77 0854.44
2009/04/23 13:54:50.0     -41   -468    135    470    490 185.1  16.0  34212  290.45 0854.44
2009/04/23 13:54:50.1    -125   -462     84    479    487 195.2  10.0  34222  290.64 0854.44
2009/04/23 13:54:50.2    -118   -340    194    361    409 199.2  30.7  34232  290.79 0854.44
2009/04/23 13:54:50.3    -115   -324    153    345    377 199.6  25.6  34228  290.72 0854.44
2009/04/23 13:54:50.4    -117   -298     92    321    335 201.4  16.0  34230  290.76 0854.44
2009/04/23 13:54:50.5     132   -343    123    368    389 158.8  18.5  34228  290.72 0854.47
2009/04/23 13:54:50.6      65   -269    155    277    317 166.4  31.7  34232  290.78 0854.47
2009/04/23 13:54:50.7     154   -328    192    363    410 154.8  30.2  34238  290.88 0854.47
2009/04/23 13:54:50.8      80   -288    106    300    318 164.4  20.3  34232  290.78 0854.47
2009/04/23 13:54:50.9      17   -291    131    292    320 176.6  25.8  34234  290.82 0854.47
2009/04/23 13:54:51.0      96   -466    121    476    492 168.3  14.3  34232  290.78 0854.47
2009/04/23 13:54:51.1      85   -418     22    427    428 168.5   3.0  34230  290.75 0854.47
2009/04/23 13:54:51.2      23   -393    -26    394    395 176.6  -3.8  34226  290.69 0854.47
2009/04/23 13:54:51.3     -15   -332    -99    333    348 182.7 -16.6  34240  290.93 0854.47
2009/04/23 13:54:51.4       8   -333    -18    334    335 178.6  -3.2  34238  290.91 0854.47
2009/04/23 13:54:51.5       0   -310    -26    311    313 180.0  -4.9  34242  290.97 0854.47
2009/04/23 13:54:51.6     -75   -262     34    273    276 196.1   7.2  34238  290.90 0854.47
2009/04/23 13:54:51.7      13   -289    141    290    322 177.3  27.8  34238  290.90 0854.47
2009/04/23 13:54:51.8      17   -231     88    232    248 175.6  21.7  34240  290.92 0854.47
2009/04/23 13:54:51.9     -28   -197      4    200    201 188.2   1.2  34242  290.96 0854.47
2009/04/23 13:54:52.0    -167    -64    -54    179    186 248.9 -21.5  34240  290.94 0854.47
2009/04/23 13:54:52.1     -91    -61      7    110    111 235.8   3.8  34242  290.96 0854.47
2009/04/23 13:54:52.2    -104    -47    -90    115    146 245.6 -46.1  34242  290.98 0854.47
2009/04/23 13:54:52.3    -101   -100    -42    143    150 225.2 -16.6  34246  291.04 0854.47
2009/04/23 13:54:52.4     -95   -165     -4    191    192 210.1  -1.3  34246  291.04 0854.47
2009/04/23 13:54:52.5     -84   -210    -54    227    234 201.8 -13.4  34246  291.04 0854.47
2009/04/23 13:54:52.6     -79   -232    -38    246    249 198.9  -8.8  34248  291.07 0854.47
2009/04/23 13:54:52.7    -101   -215    -39    238    242 205.3  -9.3  34256  291.21 0854.47
2009/04/23 13:54:52.8     -68   -161    -71    175    188 202.9 -27.5  34258  291.23 0854.47
2009/04/23 13:54:52.9     -69   -102    -83    124    149 214.3 -41.4  34258  291.23 0854.47
2009/04/23 13:54:53.0    -137    -78    -57    158    167 240.2 -24.8  34258  291.25 0854.47
2009/04/23 13:54:53.1    -104    -35    -72    110    131 251.4 -40.4  34264  291.33 0854.47
2009/04/23 13:54:53.2    -115    -38    -70    122    140 251.4 -36.8  34266  291.38 0854.47
2009/04/23 13:54:53.3     -90      0    -77     91    119 270.0 -49.2  34266  291.37 0854.47
2009/04/23 13:54:53.4     -53     17   -100     56    114 288.6 -72.7  34270  291.43 0854.47
2009/04/23 13:54:53.5      29      1    -47     30     55  87.4 -69.1  34274  291.52 0854.48
2009/04/23 13:54:53.6     -23     50    -52     56     76 334.7 -52.4  34264  291.35 0854.48
2009/04/23 13:54:53.7     -98     86     -5    131    132 311.3  -2.2  34256  291.21 0854.48
2009/04/23 13:54:53.8     -61     82     20    103    105 323.0  11.0  34252  291.15 0854.48
2009/04/23 13:54:53.9     -89     56     18    106    108 302.5  10.1  34256  291.21 0854.48
2009/04/23 13:54:54.0     -81     39     27     90     95 295.8  16.8  34262  291.30 0854.48
2009/04/23 13:54:54.1     -59    -13     17     61     64 257.6  16.3  34264  291.33 0854.48
2009/04/23 13:54:54.2     -36     -3     52     37     63 263.9  60.6  34272  291.47 0854.48
2009/04/23 13:54:54.3     -22     26     74     35     81 320.4  73.5  34272  291.49 0854.48
2009/04/23 13:54:54.4     -15      4     79     16     80 285.1  89.6  34270  291.43 0854.48
2009/04/23 13:54:54.5     -24      4     81     25     84 279.7  81.8  34270  291.45 0854.48
2009/04/23 13:54:54.6     -44    -33    101     56    115 233.1  68.8  34272  291.49 0854.48
2009/04/23 13:54:54.7     -22     46     79     52     94 334.5  64.6  34270  291.43 0854.48
2009/04/23 13:54:54.8      -8     -5     53     10     53 237.6  89.1  34270  291.45 0854.48
2009/04/23 13:54:54.9       0   -172     89    173    194 180.2  29.3  34254  291.18 0854.48
2009/04/23 13:54:55.0       9   -168    121    169    207 176.9  39.3  34254  291.16 0854.48
2009/04/23 13:54:55.1     -18   -238    106    239    261 184.5  25.3  34244  290.99 0854.48
2009/04/23 13:54:55.2     -84   -205     52    222    229 202.3  13.2  34242  290.98 0854.48
2009/04/23 13:54:55.3     -61   -185     38    195    199 198.3  11.1  34238  290.91 0854.48
2009/04/23 13:54:55.4     -86   -201     42    219    224 203.2  11.0  34228  290.74 0854.48
2009/04/23 13:54:55.5     -57   -151     30    162    165 200.7  10.6  34230  290.75 0854.52
2009/04/23 13:54:55.6      -7    -85     18     86     88 184.9  12.2  34236  290.86 0854.52
2009/04/23 13:54:55.7      17    -11     62     21     65 122.5  81.0  34254  291.18 0854.52
2009/04/23 13:54:55.8      52    -59     44     80     91 138.6  31.4  34244  291.01 0854.52
2009/04/23 13:54:55.9      59    -79     27     99    103 143.0  15.3  34238  290.89 0854.52
2009/04/23 13:54:56.0      13    -87     28     89     94 171.1  17.9  34236  290.86 0854.52
2009/04/23 13:54:56.1      24    -71     23     76     80 161.3  17.3  34236  290.86 0854.52
2009/04/23 13:54:56.2      -5    -50     34     51     61 186.2  36.5  34238  290.89 0854.52
2009/04/23 13:54:56.3       2     -9     37     10     38 164.9  82.8  34244  291.01 0854.52
2009/04/23 13:54:56.4      54     -4     43     55     69  94.3  42.7  34244  291.01 0854.52
2009/04/23 13:54:56.5      80    -66     63    104    121 129.5  34.0  34236  290.86 0854.52
2009/04/23 13:54:56.6      83   -105     55    134    144 141.7  23.0  34238  290.89 0854.52
2009/04/23 13:54:56.7      64   -101     93    120    151 147.5  41.7  34244  290.99 0854.52
2009/04/23 13:54:56.8      12    -84     91     85    124 171.5  51.6  34260  291.26 0854.52
2009/04/23 13:54:56.9       0   -115    110    116    159 180.4  48.7  34242  290.98 0854.52
2009/04/23 13:54:57.0       0   -197    222    198    297 180.0  53.7  34234  290.83 0854.52
2009/04/23 13:54:57.1      50   -266    214    271    345 169.3  42.4  34234  290.83 0854.52
2009/04/23 13:54:57.2      -3   -256    131    257    288 180.7  29.2  34236  290.85 0854.52
2009/04/23 13:54:57.3     -15   -291    133    292    320 183.1  26.0  34230  290.76 0854.52
2009/04/23 13:54:57.4     -18   -239     93    240    257 184.4  22.3  34254  291.17 0854.52
2009/04/23 13:54:57.5      69   -209    158    221    271 161.5  39.1  34238  290.90 0854.47
2009/04/23 13:54:57.6      45   -212    263    217    340 168.0  56.3  34246  291.02 0854.47
2009/04/23 13:54:57.7      39   -143    181    149    234 164.8  56.4  34246  291.03 0854.47
2009/04/23 13:54:57.8      -1    -66    186     67    197 180.9  79.5  34240  290.92 0854.47
2009/04/23 13:54:57.9     -29   -165    240    168    292 190.2  61.7  34238  290.90 0854.47
2009/04/23 13:54:58.0     -32   -103    219    109    244 197.4  71.9  34242  290.98 0854.47
2009/04/23 13:54:58.1       1     -4    125      5    125 161.5  90.0  34248  291.08 0854.47
2009/04/23 13:54:58.2     104    -23    108    107    152 102.8  50.1  34246  291.04 0854.47
2009/04/23 13:54:58.3      89    -24    121     93    152 105.1  58.5  34246  291.04 0854.47
2009/04/23 13:54:58.4     -13     -2    120     14    120 258.5  90.0  34256  291.20 0854.47
2009/04/23 13:54:58.5     -41    -52    140     67    155 217.8  72.8  34258  291.25 0854.47
2009/04/23 13:54:58.6    -152    -72    133    169    215 244.7  42.2  34280  291.60 0854.47
2009/04/23 13:54:58.7    -316    -38    134    319    346 263.0  24.1  34252  291.15 0854.47
2009/04/23 13:54:58.8    -168   -233    202    288    351 215.8  38.5  34236  290.86 0854.47
2009/04/23 13:54:58.9    -147   -152    131    212    249 223.9  34.8  34236  290.87 0854.47
2009/04/23 13:54:59.0     -70   -133    110    151    186 207.6  39.7  34228  290.72 0854.47
2009/04/23 13:54:59.1    -119   -225     94    255    271 208.0  21.0  34228  290.73 0854.47
2009/04/23 13:54:59.2    -131   -213    100    251    270 211.6  23.0  34230  290.76 0854.47
2009/04/23 13:54:59.3    -102   -157    119    188    222 213.2  35.5  34244  290.99 0854.47
2009/04/23 13:54:59.4    -120   -137     68    183    195 221.2  20.7  34252  291.13 0854.47
2009/04/23 13:54:59.5    -173    -69    -24    187    189 248.3  -7.3  34252  291.15 0854.48
2009/04/23 13:54:59.6    -127   -168      0    211    212 217.2  -0.3  34256  291.20 0854.48
2009/04/23 13:54:59.7     -67   -212     -1    223    224 197.6  -0.5  34238  290.91 0854.48
2009/04/23 13:54:59.8    -154   -218    -33    268    271 215.2  -7.2  34234  290.82 0854.48
2009/04/23 13:54:59.9     -64   -194     -9    205    206 198.5  -2.6  34240  290.92 0854.48
2009/04/23 13:55:00.0     -58   -189     98    198    220 197.2  28.2  34248  291.06 0854.48
2009/04/23 13:55:00.1     -58   -174    113    184    215 198.5  34.4  34254  291.18 0854.48
2009/04/23 13:55:00.2    -100   -152    107    183    211 213.4  33.4  34268  291.40 0854.48
2009/04/23 13:55:00.3     -86   -139    101    164    192 211.9  35.0  34270  291.43 0854.48
2009/04/23 13:55:00.4     -57    -90     60    107    122 212.5  31.4  34268  291.42 0854.48
2009/04/23 13:55:00.5     -52   -109     62    121    135 205.5  29.2  34254  291.18 0854.48
2009/04/23 13:55:00.6       4    -85    100     86    131 176.9  54.8  34252  291.13 0854.48
2009/04/23 13:55:00.7      10    -63     96     64    115 170.2  64.1  34244  291.01 0854.48
2009/04/23 13:55:00.8       8    -49     62     50     79 170.2  56.9  34248  291.08 0854.48
2009/04/23 13:55:00.9      31    -48     70     58     90 147.5  56.3  34250  291.09 0854.48
2009/04/23 13:55:01.0       2    -89     82     90    121 178.2  47.5  34240  290.92 0854.48
2009/04/23 13:55:01.1      -7   -114     74    115    136 183.6  35.6  34234  290.84 0854.48
2009/04/23 13:55:01.2       8    -87     63     88    108 174.2  39.7  34240  290.92 0854.48
2009/04/23 13:55:01.3      -5   -142     87    143    167 182.2  34.4  34236  290.86 0854.48
2009/04/23 13:55:01.4     -10   -194    122    195    230 183.1  35.5  34232  290.79 0854.48
2009/04/23 13:55:01.5     -61   -202    138    212    252 197.0  36.0  34232  290.80 0854.49
2009/04/23 13:55:01.6     -89   -200    113    220    247 204.1  29.3  34242  290.97 0854.49
2009/04/23 13:55:01.7     -80   -211    137    226    264 200.9  34.4  34244  290.99 0854.49
2009/04/23 13:55:01.8    -103   -240    120    262    288 203.2  26.4  34258  291.22 0854.49
2009/04/23 13:55:01.9    -121   -224     89    255    271 208.5  19.2  34260  291.27 0854.49
2009/04/23 13:55:02.0    -150   -226     76    272    283 213.6  15.6  34272  291.48 0854.49
2009/04/23 13:55:02.1    -179   -299     -3    349    350 211.0  -0.6  34258  291.25 0854.49
2009/04/23 13:55:02.2     -90   -322      5    335    336 195.7   1.0  34258  291.25 0854.49
2009/04/23 13:55:02.3     -21   -339    -47    340    344 183.6  -7.9  34242  290.96 0854.49
2009/04/23 13:55:02.4    -132   -278     58    309    315 205.5  10.7  34252  291.12 0854.49
2009/04/23 13:55:02.5     -79   -267     59    279    286 196.5  12.0  34284  291.67 0854.49
2009/04/23 13:55:02.6     -46   -321     82    325    336 188.2  14.3  34268  291.42 0854.49
2009/04/23 13:55:02.7     -80   -206    207    222    303 201.2  47.9  34268  291.41 0854.49
2009/04/23 13:55:02.8    -111   -278    118    300    322 201.8  22.5  34252  291.14 0854.49
2009/04/23 13:55:02.9     -28   -187    108    190    218 188.5  32.1  34248  291.06 0854.49
2009/04/23 13:55:03.0       2   -136     68    137    152 179.0  27.8  34250  291.11 0854.49
2009/04/23 13:55:03.1     -42   -141     56    148    158 196.5  21.7  34248  291.08 0854.49
2009/04/23 13:55:03.2     -80   -230     81    244    258 199.2  18.5  34248  291.05 0854.49
2009/04/23 13:55:03.3    -132   -194     84    235    249 214.3  20.2  34240  290.93 0854.49
2009/04/23 13:55:03.4     -98   -153     14    182    183 212.7   4.6  34238  290.91 0854.49
2009/04/23 13:55:03.5     -32   -191     58    194    203 189.6  16.8  34238  290.91 0854.48
2009/04/23 13:55:03.6     -94   -185    123    208    241 207.1  33.5  34256  291.21 0854.48
2009/04/23 13:55:03.7     -79   -219    145    234    275 200.0  34.8  34244  291.00 0854.48
2009/04/23 13:55:03.8     -97   -230    101    250    269 202.8  23.0  34234  290.83 0854.48
2009/04/23 13:55:03.9    -108   -270    114    291    312 201.9  22.4  34242  290.95 0854.48
2009/04/23 13:55:04.0     -90   -300    116    314    334 196.7  21.3  34238  290.88 0854.48
2009/04/23 13:55:04.1     -96   -320     94    335    349 196.8  15.8  34238  290.91 0854.48
2009/04/23 13:55:04.2     -74   -333     80    342    352 192.6  13.2  34240  290.93 0854.48
2009/04/23 13:55:04.3     -62   -352     18    358    359 190.0   2.9  34242  290.96 0854.48
2009/04/23 13:55:04.4      -3   -358     20    359    360 180.6   3.3  34240  290.93 0854.48
2009/04/23 13:55:04.5       0   -406     30    407    409 180.0   4.2  34240  290.92 0854.48
2009/04/23 13:55:04.6      -7   -455     56    456    460 181.0   7.1  34236  290.87 0854.48
2009/04/23 13:55:04.8      -7   -470     43    471    474 180.9   5.3  34232  290.81 0854.48
2009/04/23 13:55:04.9     -42   -458     19    461    462 185.3   2.4  34234  290.82 0854.48
2009/04/23 13:55:04.9      53   -527     59    530    534 174.2   6.4  34232  290.79 0854.48
2009/04/23 13:55:05.1      90   -508     39    517    519 169.9   4.3  34234  290.83 0854.48
2009/04/23 13:55:05.2      51   -444     13    447    448 173.4   1.8  34244  290.99 0854.48
2009/04/23 13:55:05.3     136   -409     -8    432    433 161.6  -1.2  34238  290.89 0854.48
2009/04/23 13:55:05.4     211   -380     21    435    436 151.0   2.8  34220  290.58 0854.48
2009/04/23 13:55:05.5     270   -403    321    486    582 146.2  36.5  34216  290.52 0854.48
2009/04/23 13:55:05.6     210   -272    231    344    414 142.3  37.2  34232  290.79 0854.45
2009/04/23 13:55:05.7      70   -222    224    233    323 162.4  48.8  34230  290.75 0854.45
2009/04/23 13:55:05.8     243   -245    174    346    387 135.2  28.7  34228  290.71 0854.45
2009/04/23 13:55:05.9     132   -350    223    375    436 159.3  33.5  34228  290.73 0854.45
2009/04/23 13:55:06.0      85   -363    279    373    465 166.7  40.6  34228  290.73 0854.45
2009/04/23 13:55:06.1     171   -352    270    392    475 154.0  38.0  34218  290.55 0854.45
2009/04/23 13:55:06.2      27   -311    216    313    380 174.9  37.8  34222  290.62 0854.45
2009/04/23 13:55:06.3      99   -208    164    231    283 154.5  38.6  34224  290.65 0854.45
2009/04/23 13:55:06.4      59   -320    116    326    346 169.5  20.3  34238  290.88 0854.45
2009/04/23 13:55:06.5     112   -328     94    347    360 161.1  15.1  34240  290.93 0854.45
2009/04/23 13:55:06.6      16   -268     69    269    278 176.5  14.5  34238  290.90 0854.45
2009/04/23 13:55:06.7      33   -123     56    128    139 164.9  25.1  34240  290.92 0854.45
2009/04/23 13:55:06.8      13    -94    109     95    144 172.0  54.3  34242  290.96 0854.45
2009/04/23 13:55:06.9     -27   -194    187    197    271 188.1  48.5  34234  290.82 0854.45
2009/04/23 13:55:07.0     -18   -231    248    232    339 184.5  52.2  34224  290.65 0854.45
2009/04/23 13:55:07.1    -128   -176     70    218    230 216.0  17.9  34224  290.67 0854.45
2009/04/23 13:55:07.2     -27    -82    123     87    150 198.7  61.1  34226  290.70 0854.45
2009/04/23 13:55:07.3      24     -7    110     26    113 106.8  86.9  34246  291.04 0854.45
2009/04/23 13:55:07.4     -15    -56    117     59    131 195.1  71.4  34242  290.98 0854.45
2009/04/23 13:55:07.5       8   -193     75    194    207 177.5  22.0  34226  290.69 0854.45
2009/04/23 13:55:07.6     -39   -165    133    170    215 193.4  42.0  34234  290.84 0854.41
2009/04/23 13:55:07.7     -89   -175    174    197    262 207.0  46.2  34238  290.90 0854.41
2009/04/23 13:55:07.8     -57   -138    142    150    206 202.7  48.2  34236  290.87 0854.41
2009/04/23 13:55:07.9     -17   -123    154    125    198 188.0  56.9  34242  290.96 0854.41
2009/04/23 13:55:08.0     -32   -108    147    113    185 196.5  58.5  34248  291.06 0854.41
2009/04/23 13:55:08.1     -39   -113    117    120    167 199.2  49.4  34246  291.03 0854.41
2009/04/23 13:55:08.2     -86   -103    102    135    169 219.6  40.9  34244  290.99 0854.41
2009/04/23 13:55:08.3    -125    -96     68    158    172 232.3  24.9  34238  290.91 0854.41
2009/04/23 13:55:08.4     -43    -82     76     93    120 207.6  43.7  34244  290.99 0854.41
2009/04/23 13:55:08.5       8    -79    132     80    154 173.8  65.1  34256  291.21 0854.41
2009/04/23 13:55:08.6     -16   -154    148    155    214 186.2  49.0  34250  291.11 0854.41
2009/04/23 13:55:08.7     -29    -95    122    100    157 196.9  56.4  34246  291.03 0854.41
2009/04/23 13:55:08.8       2    -37     93     38    100 175.5  77.0  34276  291.54 0854.41
2009/04/23 13:55:08.9      -5    -71     91     72    116 184.5  57.5  34262  291.32 0854.41
2009/04/23 13:55:09.0     -74   -117    134    139    193 212.5  49.2  34246  291.03 0854.41
2009/04/23 13:55:09.1    -164   -164    161    232    282 225.0  37.8  34234  290.83 0854.41
2009/04/23 13:55:09.2     -29    -89    151     94    177 198.5  65.1  34242  290.98 0854.41
2009/04/23 13:55:09.3      -4   -234    235    235    332 181.0  50.1  34236  290.85 0854.41
2009/04/23 13:55:09.4      95    -46    166    106    196 115.8  64.6  34242  290.98 0854.41
2009/04/23 13:55:09.5      -9   -147    210    148    256 183.6  61.5  34238  290.91 0854.41
2009/04/23 13:55:09.6     -11   -178    194    179    263 183.6  52.2  34232  290.78 0854.41
2009/04/23 13:55:09.7     -15   -184    181    185    258 184.9  49.4  34226  290.68 0854.41
2009/04/23 13:55:09.8       7   -204    120    205    237 178.0  33.1  34228  290.72 0854.41
2009/04/23 13:55:09.9     -51   -219    100    225    246 193.3  25.7  34226  290.70 0854.41
2009/04/23 13:55:10.0      14   -308    144    309    340 177.4  26.9  34220  290.60 0854.41
2009/04/23 13:55:10.1      51   -326    116    331    351 171.0  19.4  34214  290.50 0854.41
2009/04/23 13:55:10.2     -16   -346    124    347    368 182.7  20.4  34208  290.38 0854.41
2009/04/23 13:55:10.3       0   -299    196    300    358 180.1  36.2  34204  290.33 0854.41
2009/04/23 13:55:10.4     -23   -254    211    256    331 185.3  43.7  34210  290.41 0854.41
2009/04/23 13:55:10.5      10   -225    181    226    289 177.3  42.8  34212  290.46 0854.41
2009/04/23 13:55:10.6      52   -283    176    288    337 169.5  34.3  34212  290.44 0854.41
2009/04/23 13:55:10.7      -2   -144    137    145    199 180.9  48.5  34210  290.43 0854.41
2009/04/23 13:55:10.8      47   -167    151    174    230 164.2  45.4  34222  290.64 0854.41
2009/04/23 13:55:10.9     -73   -148    195    166    256 206.3  55.4  34222  290.62 0854.41
2009/04/23 13:55:11.0      21    -25    175     33    178 140.4  90.0  34256  291.20 0854.41
2009/04/23 13:55:11.1    -126    -80    100    150    180 237.6  37.0  34242  290.96 0854.41
2009/04/23 13:55:11.2    -207    -90     77    227    240 246.4  18.9  34240  290.92 0854.41
2009/04/23 13:55:11.3    -103   -167    172    197    261 211.6  45.8  34244  291.00 0854.41
2009/04/23 13:55:11.4    -373   -183      0    416    417 243.8   0.1  34232  290.78 0854.41
2009/04/23 13:55:11.5    -380    -97   -115    393    410 255.7 -16.4  34240  290.94 0854.41
2009/04/23 13:55:11.6    -385    -65   -110    391    406 260.4 -20.4  34236  290.86 0854.41
2009/04/23 13:55:11.7    -284    -62   -149    291    326 257.6 -33.7  34234  290.82 0854.41
2009/04/23 13:55:11.8    -274     86     73    288    298 287.5  14.3  34238  290.90 0854.41
2009/04/23 13:55:11.9    -359    -70    -48    366    370 258.9  -7.6  34250  291.10 0854.41
2009/04/23 13:55:12.0    -361    -60   -134    366    389 260.6 -25.4  34252  291.13 0854.41
2009/04/23 13:55:12.1    -247     16    -72    248    258 273.9 -21.0  34228  290.71 0854.41
2009/04/23 13:55:12.2    -260     86    -21    274    275 288.4  -4.4  34232  290.80 0854.41
2009/04/23 13:55:12.3    -234   -164    121    286    310 234.9  24.2  34236  290.85 0854.41
2009/04/23 13:55:12.4    -236   -150      3    280    281 237.5   0.7  34238  290.88 0854.41
2009/04/23 13:55:12.5    -253   -208     41    328    331 230.5   7.2  34232  290.79 0854.41
2009/04/23 13:55:12.6    -140    -98     46    172    179 234.9  15.0  34238  290.91 0854.43
2009/04/23 13:55:12.7     -37   -247    -59    250    257 188.7 -13.4  34242  290.95 0854.43
2009/04/23 13:55:12.8     -33   -217    -62    220    228 188.7 -20.4  34236  290.87 0854.43
2009/04/23 13:55:12.9     -39   -206    -11    210    211 190.7  -3.1  34234  290.84 0854.43
2009/04/23 13:55:13.0    -129   -176      0    219    220 216.3   0.2  34232  290.81 0854.43
2009/04/23 13:55:13.1    -189    -62     92    199    219 251.8  26.6  34234  290.82 0854.43
2009/04/23 13:55:13.2    -247    -49     48    252    257 258.6  10.8  34238  290.88 0854.43
2009/04/23 13:55:13.3    -253     16      7    254    255 273.7   1.8  34240  290.93 0854.43
2009/04/23 13:55:13.4    -246   -103    104    267    286 247.3  22.3  34224  290.65 0854.43
2009/04/23 13:55:13.5    -265    -43    214    269    343 260.8  42.7  34236  290.85 0854.43
2009/04/23 13:55:13.6    -276     26     25    278    280 275.5   5.2  34224  290.65 0854.43
2009/04/23 13:55:13.7    -300     19    -32    301    303 273.7  -6.2  34224  290.66 0854.43
2009/04/23 13:55:13.8    -353     86    -11    364    365 283.7  -1.8  34244  291.00 0854.43
2009/04/23 13:55:13.9    -346     98     79    360    369 285.9  12.4  34242  290.98 0854.43
2009/04/23 13:55:14.0    -262    -73      3    273    274 254.3   0.8  34244  291.00 0854.43
2009/04/23 13:55:14.1    -143    -63     33    157    161 246.0  12.0  34246  291.03 0854.43
2009/04/23 13:55:14.2      26    -78     81     83    115 161.3  50.0  34254  291.16 0854.43
2009/04/23 13:55:14.3     -16    -99    120    101    156 189.3  55.6  34250  291.09 0854.43
2009/04/23 13:55:14.4      40    -96    131    105    167 157.3  57.1  34244  290.99 0854.43
2009/04/23 13:55:14.5      54    -74    168     92    191 143.9  68.9  34256  291.20 0854.43
2009/04/23 13:55:14.6       0   -179    198    180    267 180.2  53.0  34238  290.88 0854.44
2009/04/23 13:55:14.7     -23   -387    223    388    447 183.4  32.6  34224  290.67 0854.44
2009/04/23 13:55:14.8       5   -406    240    407    472 179.3  33.3  34224  290.65 0854.44
2009/04/23 13:55:14.9     -13   -407    234    408    470 181.9  32.4  34222  290.61 0854.44
2009/04/23 13:55:15.0     -73   -455    154    461    487 189.1  18.5  34218  290.57 0854.44
2009/04/23 13:55:15.1      13   -521    171    522    550 178.5  18.2  34230  290.77 0854.44
2009/04/23 13:55:15.2     133   -333    267    359    447 158.2  40.4  34228  290.72 0854.44
2009/04/23 13:55:15.3      -8   -296    252    297    389 181.6  44.5  34242  290.98 0854.44
2009/04/23 13:55:15.4     -63   -510    217    514    557 187.1  24.3  34218  290.55 0854.44
2009/04/23 13:55:15.5     -22   -489    140    490    510 182.7  16.0  34216  290.52 0854.44
2009/04/23 13:55:15.6      69   -416     -3    422    423 170.6  -0.5  34210  290.41 0854.44
2009/04/23 13:55:15.7     117   -324     85    345    356 160.1  13.9  34218  290.57 0854.44
2009/04/23 13:55:15.8      76   -232     -4    245    246 161.7  -1.2  34220  290.58 0854.44
2009/04/23 13:55:15.9      12   -279    107    280    299 177.4  22.0  34212  290.46 0854.44
2009/04/23 13:55:16.0    -189   -301    -71    356    364 212.2 -11.3  34220  290.59 0854.44
2009/04/23 13:55:16.1    -268   -562    -38    623    625 205.5  -3.5  34214  290.48 0854.44
2009/04/23 13:55:16.2    -283   -477   -131    555    571 210.7 -13.3  34208  290.38 0854.44
2009/04/23 13:55:16.3    -133   -125     74    183    197 226.9  23.1  34212  290.45 0854.44
2009/04/23 13:55:16.4     -90   -270    -34    285    288 198.5  -6.9  34214  290.49 0854.44
2009/04/23 13:55:16.5    -138   -213    -54    255    261 213.0 -12.2  34214  290.49 0854.44
2009/04/23 13:55:16.6    -124   -232    103    264    283 208.1  22.3  34214  290.49 0854.46
2009/04/23 13:55:16.7      78   -272     80    284    296 164.0  15.8  34214  290.49 0854.46
2009/04/23 13:55:16.8     187   -288    224    344    410 146.9  36.2  34208  290.40 0854.46
2009/04/23 13:55:16.9     208   -262    184    335    382 141.6  31.3  34214  290.49 0854.46
2009/04/23 13:55:17.0     313   -213    153    379    408 124.2  23.1  34218  290.54 0854.46
2009/04/23 13:55:17.1     311   -227    109    386    402 126.1  15.8  34210  290.42 0854.46
2009/04/23 13:55:17.2      61   -430     77    435    442 171.9  10.1  34228  290.73 0854.46
2009/04/23 13:55:17.3     177   -331    -14    376    377 151.9  -2.2  34228  290.72 0854.46
2009/04/23 13:55:17.4     171   -248     46    302    306 145.5   8.8  34226  290.70 0854.46
2009/04/23 13:55:17.5     185   -366     -9    411    412 153.2  -1.3  34224  290.67 0854.46
2009/04/23 13:55:17.6     179   -248    -80    307    318 144.2 -14.6  34222  290.63 0854.46
2009/04/23 13:55:17.7     225   -185    -87    292    305 129.5 -16.6  34224  290.65 0854.46
2009/04/23 13:55:17.8      66   -103    -20    123    125 147.0  -9.4  34224  290.67 0854.46
2009/04/23 13:55:17.9       7    -95     63     96    114 175.6  35.6  34222  290.62 0854.46
2009/04/23 13:55:18.0      32    -84    129     91    157 159.1  61.3  34220  290.60 0854.46
2009/04/23 13:55:18.1     -73   -184    174    199    264 201.8  45.6  34216  290.53 0854.46
2009/04/23 13:55:18.2    -103   -250    111    271    292 202.5  23.1  34220  290.59 0854.46
2009/04/23 13:55:18.3     -74   -338     48    347    351 192.4   8.0  34216  290.52 0854.46
2009/04/23 13:55:18.4    -115   -454    -36    469    471 194.3  -4.5  34218  290.56 0854.46
2009/04/23 13:55:18.5     -71   -468    -24    474    475 188.7  -3.0  34226  290.68 0854.46
2009/04/23 13:55:18.6     -34   -549     26    551    552 183.6   2.8  34216  290.53 0854.46
2009/04/23 13:55:18.7    -109   -591      2    601    602 190.5   0.2  34216  290.51 0854.46
2009/04/23 13:55:18.8    -116   -621     30    632    633 190.6   2.8  34216  290.52 0854.46
2009/04/23 13:55:18.9     -38   -529     -2    531    532 184.1  -0.2  34218  290.55 0854.46
2009/04/23 13:55:19.0     201   -359     92    412    423 150.7  12.6  34214  290.50 0854.46
2009/04/23 13:55:19.1     288   -520    156    595    616 151.0  14.7  34208  290.39 0854.46
2009/04/23 13:55:19.2     397   -626    302    742    801 147.6  23.5  34202  290.29 0854.46
2009/04/23 13:55:19.3     280   -663    267    721    768 157.1  21.3  34212  290.45 0854.46
2009/04/23 13:55:19.4     276   -626    326    685    758 156.2  27.3  34206  290.36 0854.46
2009/04/23 13:55:19.5      10   -706    274    707    758 179.2  22.3  34204  290.33 0854.46
2009/04/23 13:55:19.6     -69   -558    167    563    588 187.1  16.5  34208  290.39 0854.46
2009/04/23 13:55:19.7     -65   -470     78    475    482 187.9   9.3  34202  290.30 0854.46
2009/04/23 13:55:19.8    -159   -437    153    466    491 200.1  18.2  34208  290.37 0854.46
2009/04/23 13:55:19.9     -93   -441    183    451    486 192.0  23.4  34206  290.34 0854.46
2009/04/23 13:55:20.0    -184   -493    120    527    541 200.5  12.9  34208  290.40 0854.46
2009/04/23 13:55:20.1    -292   -415    -36    508    510 215.2  -4.1  34212  290.45 0854.46
2009/04/23 13:55:20.2    -217   -568     72    609    614 200.9   6.8  34206  290.36 0854.46
2009/04/23 13:55:20.3      47   -677     52    679    681 176.0   4.4  34190  290.09 0854.46
2009/04/23 13:55:20.4      29   -436    161    437    465 176.1  21.0  34208  290.39 0854.46
2009/04/23 13:55:20.5      55   -506    125    510    526 173.8  13.8  34202  290.28 0854.46
2009/04/23 13:55:20.6      27   -462     86    463    471 176.6  10.6  34208  290.40 0854.45
2009/04/23 13:55:20.7     -39   -357     15    360    361 186.3   2.5  34210  290.43 0854.45
2009/04/23 13:55:20.8      74   -362    162    370    403 168.3  25.2  34208  290.37 0854.45
2009/04/23 13:55:20.9     -78   -406    313    414    519 191.0  40.9  34216  290.51 0854.45
2009/04/23 13:55:21.0      28   -426    263    427    501 176.2  34.6  34208  290.39 0854.45
2009/04/23 13:55:21.1     -92   -542    334    550    643 189.7  34.2  34214  290.48 0854.45
2009/04/23 13:55:21.2    -151   -502    284    525    596 196.8  30.8  34208  290.37 0854.45
2009/04/23 13:55:21.3     -42   -404    268    407    487 186.0  36.4  34218  290.55 0854.45
2009/04/23 13:55:21.4     -76   -493    288    499    576 188.8  32.6  34218  290.57 0854.45
2009/04/23 13:55:21.5     -42   -394    246    397    467 186.1  35.0  34210  290.43 0854.45
2009/04/23 13:55:21.6     -42   -319    412    322    522 187.6  58.2  34208  290.40 0854.45
2009/04/23 13:55:21.7      -7   -422    290    423    512 181.0  37.7  34208  290.39 0854.45
2009/04/23 13:55:21.8      75   -397    419    405    582 169.3  51.2  34206  290.35 0854.45
2009/04/23 13:55:21.9      13   -288    346    289    450 177.3  56.2  34212  290.46 0854.45
2009/04/23 13:55:22.0      83   -544    329    551    641 171.3  33.7  34222  290.61 0854.45
2009/04/23 13:55:22.1      53   -449    271    453    527 173.2  33.7  34212  290.44 0854.45
2009/04/23 13:55:22.2      21   -517    256    518    577 177.7  28.2  34212  290.45 0854.45
2009/04/23 13:55:22.3     103   -203    296    228    373 153.0  58.5  34222  290.64 0854.45
2009/04/23 13:55:22.4     141   -463    414    485    637 163.1  44.8  34214  290.49 0854.45
2009/04/23 13:55:22.5      18   -463    423    464    627 177.8  47.1  34212  290.46 0854.45
2009/04/23 13:55:22.6      48   -346    311    350    468 172.0  46.3  34214  290.50 0854.44
2009/04/23 13:55:22.7     226   -191    303    296    423 130.2  50.8  34214  290.49 0854.44
2009/04/23 13:55:22.8     210   -166    383    268    467 128.4  61.8  34210  290.41 0854.44
2009/04/23 13:55:22.9      95   -201    338    223    404 154.7  63.6  34224  290.67 0854.44
2009/04/23 13:55:23.0      42   -268    328    272    426 171.1  56.3  34218  290.57 0854.44
2009/04/23 13:55:23.1     112   -244    294    269    398 155.3  52.9  34220  290.60 0854.44
2009/04/23 13:55:23.2     241   -138    289    278    401 119.8  51.3  34216  290.52 0854.44
2009/04/23 13:55:23.3     336   -213    322    399    512 122.4  43.1  34222  290.61 0854.44
2009/04/23 13:55:23.4     400   -244    248    469    530 121.4  30.2  34218  290.57 0854.44
2009/04/23 13:55:23.5     223   -341    341    408    531 146.8  44.1  34218  290.54 0854.44
2009/04/23 13:55:23.6     213   -359    336    418    536 149.3  43.1  34208  290.40 0854.44
2009/04/23 13:55:23.7     208   -279    304    349    462 143.3  45.6  34214  290.48 0854.44
2009/04/23 13:55:23.8      87    -53    189    103    215 121.5  68.9  34212  290.47 0854.44
2009/04/23 13:55:23.9     126   -146    226    193    297 139.2  55.3  34220  290.59 0854.44
2009/04/23 13:55:24.0     101   -212    237    235    333 154.5  50.2  34226  290.68 0854.44
2009/04/23 13:55:24.1      29   -214    251    216    331 172.2  55.0  34220  290.58 0854.44
2009/04/23 13:55:24.2      22   -391    250    392    464 176.8  35.6  34214  290.50 0854.44
2009/04/23 13:55:24.3      57   -391    275    396    482 171.7  38.1  34206  290.36 0854.44
2009/04/23 13:55:24.4      -9   -293    278    294    404 181.8  48.4  34214  290.49 0854.44
2009/04/23 13:55:24.5    -138   -368    160    394    425 200.6  23.4  34214  290.48 0854.44
2009/04/23 13:55:24.6      25   -215    221    217    309 173.3  50.2  34216  290.51 0854.38
2009/04/23 13:55:24.7      27   -198    191    200    276 172.0  48.7  34216  290.53 0854.38
2009/04/23 13:55:24.8      59   -214    255    223    338 164.4  54.4  34218  290.54 0854.38
2009/04/23 13:55:24.9      34   -279    276    282    394 172.9  49.4  34214  290.50 0854.38
2009/04/23 13:55:25.0     184   -300    257    353    436 148.5  39.7  34216  290.53 0854.38
2009/04/23 13:55:25.1      98   -294    217    311    379 161.5  38.4  34218  290.55 0854.38
2009/04/23 13:55:25.2     -12   -164    171    165    237 184.2  51.2  34212  290.45 0854.38
2009/04/23 13:55:25.3      14      1    104     15    105  85.6  90.0  34222  290.64 0854.38
2009/04/23 13:55:25.4     -88   -130    173    158    234 214.2  52.7  34218  290.55 0854.38
2009/04/23 13:55:25.5     -72   -219    198    231    304 198.3  44.8  34214  290.48 0854.38
2009/04/23 13:55:25.6    -102   -233    185    255    315 203.6  39.7  34216  290.53 0854.38
2009/04/23 13:55:25.7    -211   -263    173    338    379 218.7  29.2  34214  290.49 0854.38
2009/04/23 13:55:25.8    -261   -255    145    365    392 225.7  22.9  34212  290.45 0854.38
2009/04/23 13:55:25.9    -318   -259     48    411    414 230.8   6.7  34208  290.39 0854.38
2009/04/23 13:55:26.0    -299   -222    132    373    397 233.4  19.6  34214  290.50 0854.38
2009/04/23 13:55:26.1    -125   -372    362    393    534 198.6  47.5  34218  290.56 0854.38
2009/04/23 13:55:26.2    -185   -290    204    345    400 212.6  33.5  34218  290.55 0854.38
2009/04/23 13:55:26.3    -136   -191    128    235    267 215.6  31.0  34220  290.59 0854.38
2009/04/23 13:55:26.4    -117    -98    129    153    200 230.0  44.5  34222  290.62 0854.38
2009/04/23 13:55:26.5    -254   -307    174    399    435 219.6  25.1  34226  290.70 0854.38
2009/04/23 13:55:26.6    -245   -190    169    311    353 232.2  30.9  34234  290.83 0854.42
2009/04/23 13:55:26.7    -320   -239     72    400    407 233.2  10.3  34230  290.77 0854.42
2009/04/23 13:55:26.8    -325   -160    142    363    389 243.8  22.5  34232  290.81 0854.42
2009/04/23 13:55:26.9    -346   -173    173    388    424 243.4  25.7  34234  290.84 0854.42
2009/04/23 13:55:27.0    -334    -90    201    347    401 254.9  32.7  34258  291.25 0854.42
2009/04/23 13:55:27.1    -340    -12    239    341    416 267.9  38.6  34260  291.27 0854.42
2009/04/23 13:55:27.2    -338    119    -55    359    364 289.4  -8.7  34246  291.03 0854.42
2009/04/23 13:55:27.3    -249    -30    -37    251    254 263.0  -8.6  34244  291.00 0854.42
2009/04/23 13:55:27.4    -188   -144    137    237    273 232.5  32.7  34246  291.04 0854.42
2009/04/23 13:55:27.5    -339    -25   -121    340    362 265.7 -19.7  34238  290.88 0854.42
2009/04/23 13:55:27.6    -254    -76   -180    266    321 253.2 -41.7  34232  290.78 0854.42
2009/04/23 13:55:27.7    -360    -13   -113    361    378 267.9 -22.4  34244  291.00 0854.42
2009/04/23 13:55:27.8    -330    -73   -110    339    357 257.5 -18.1  34248  291.05 0854.42
2009/04/23 13:55:27.9    -395    -19    -65    396    402 267.2  -9.3  34226  290.69 0854.42
2009/04/23 13:55:28.0    -496   -132     64    514    518 255.1   7.1  34260  291.27 0854.42
2009/04/23 13:55:28.1    -420   -115    199    436    479 254.6  26.2  34248  291.07 0854.42
2009/04/23 13:55:28.2    -451    -91    154    461    487 258.5  18.5  34256  291.19 0854.42
2009/04/23 13:55:28.3    -136   -321    -38    349    352 203.0  -6.2  34246  291.03 0854.42
2009/04/23 13:55:28.4      23   -278    -88    280    294 175.1 -17.5  34242  290.97 0854.42
2009/04/23 13:55:28.5      99   -287     54    304    309 160.9  10.1  34242  290.97 0854.42
2009/04/23 13:55:28.6     -22   -177    -74    179    193 187.3 -27.8  34256  291.21 0854.43
2009/04/23 13:55:28.7      48   -281    -11    286    287 170.2  -2.2  34242  290.95 0854.43
2009/04/23 13:55:28.8     -27   -326    143    328    357 184.9  25.1  34226  290.69 0854.43
2009/04/23 13:55:28.9     210   -510    245    552    603 157.6  25.6  34216  290.51 0854.43
2009/04/23 13:55:29.0     182   -504    104    537    548 160.1  11.0  34216  290.53 0854.43
2009/04/23 13:55:29.1      -1   -505     90    506    515 180.2  10.1  34222  290.61 0854.43
2009/04/23 13:55:29.2      35   -561     63    563    567 176.4   6.5  34216  290.53 0854.43
2009/04/23 13:55:29.3     -88   -631    106    638    647 188.0   9.5  34218  290.55 0854.43
2009/04/23 13:55:29.4     -72   -529    151    534    556 187.8  15.8  34216  290.53 0854.43
2009/04/23 13:55:29.5    -161   -474     88    501    509 198.8  10.0  34226  290.68 0854.43
2009/04/23 13:55:29.6    -157   -452    -38    479    481 199.2  -4.6  34220  290.59 0854.43
2009/04/23 13:55:29.7     -32   -324     -2    326    327 185.8  -0.4  34216  290.51 0854.43
2009/04/23 13:55:29.8      73   -460    -54    466    470 170.9  -6.7  34234  290.83 0854.43
2009/04/23 13:55:29.9    -167   -538   -174    564    590 197.3 -22.1  34240  290.93 0854.43
2009/04/23 13:55:30.0     -67   -254   -242    263    357 194.9 -52.0  34242  290.98 0854.43
2009/04/23 13:55:30.1     206   -264   -145    336    365 142.0 -29.3  34236  290.86 0854.43
2009/04/23 13:55:30.2     215   -189   -129    287    314 131.3 -30.3  34236  290.87 0854.43
2009/04/23 13:55:30.3      86    -77     13    116    117 131.8   6.9  34238  290.89 0854.43
2009/04/23 13:55:30.4     -31   -192    112    195    224 189.3  32.4  34230  290.77 0854.43
2009/04/23 13:55:30.5       7    -94    220     95    239 175.6  75.3  34252  291.15 0854.43
2009/04/23 13:55:30.6      30   -217    204    220    300 172.0  47.9  34232  290.80 0854.45
2009/04/23 13:55:30.7      20   -161    198    163    256 172.7  56.4  34234  290.84 0854.45
2009/04/23 13:55:30.8      54    -17    181     57    189 107.7  81.6  34236  290.87 0854.45
2009/04/23 13:55:30.9      53   -120    141    132    193 155.9  52.1  34236  290.87 0854.45
2009/04/23 13:55:31.0      40     13    126     43    133  72.3  81.2  34236  290.87 0854.45
2009/04/23 13:55:31.1      67   -113    123    132    180 149.2  47.9  34242  290.96 0854.45
2009/04/23 13:55:31.2     154   -240    203    286    350 147.3  38.8  34238  290.91 0854.45
2009/04/23 13:55:31.3      37    -93    235    101    255 158.2  75.3  34240  290.94 0854.45
2009/04/23 13:55:31.4      79   -151    185    171    251 152.4  52.2  34238  290.91 0854.45
2009/04/23 13:55:31.5     176   -340    301    383    487 152.6  42.2  34232  290.78 0854.45
2009/04/23 13:55:31.7     296   -392    338    492    596 142.9  37.8  34222  290.62 0854.45
2009/04/23 13:55:31.8     374   -547    289    663    723 145.6  25.1  34212  290.47 0854.45
2009/04/23 13:55:31.9     355   -570    363    672    763 148.1  30.8  34214  290.50 0854.45
2009/04/23 13:55:32.0     225   -473    202    525    562 154.5  22.1  34222  290.62 0854.45
2009/04/23 13:55:32.1     179   -331    -14    377    378 151.5  -2.2  34220  290.60 0854.45
2009/04/23 13:55:32.2     163   -265    -72    312    321 148.4 -13.1  34228  290.71 0854.45
2009/04/23 13:55:32.3     123   -232    -23    263    265 152.1  -5.2  34228  290.73 0854.45
2009/04/23 13:55:32.4      13   -220    -78    221    234 176.4 -24.0  34226  290.69 0854.45
2009/04/23 13:55:32.5     -99   -209    -36    232    235 205.4  -8.8  34224  290.66 0854.45
2009/04/23 13:55:32.6    -206   -268    -23    339    340 217.5  -4.0  34216  290.52 0854.45
2009/04/23 13:55:32.7    -235   -303     18    384    385 217.8   2.8  34224  290.66 0854.43
2009/04/23 13:55:32.8     -84   -252    129    266    295 198.5  27.4  34230  290.76 0854.43
2009/04/23 13:55:32.9     -43   -211    161    216    269 191.6  40.4  34230  290.76 0854.43
2009/04/23 13:55:33.0      68   -191    162    203    259 160.4  42.7  34232  290.80 0854.43
2009/04/23 13:55:33.1     137   -174     76    222    235 141.9  18.9  34224  290.65 0854.43
2009/04/23 13:55:33.2      75   -163     10    180    181 155.1   3.3  34224  290.67 0854.43
2009/04/23 13:55:33.3      66   -174    -55    187    194 159.3 -21.7  34220  290.58 0854.43
2009/04/23 13:55:33.4     105   -107    115    151    189 135.5  41.2  34226  290.69 0854.43
2009/04/23 13:55:33.5     126   -133    125    184    222 136.6  37.4  34224  290.67 0854.43
2009/04/23 13:55:33.6     297   -350    180    460    493 139.7  22.5  34218  290.56 0854.43
2009/04/23 13:55:33.7     262   -243    209    358    414 132.9  32.9  34216  290.52 0854.45
2009/04/23 13:55:33.8     350   -510     89    619    626 145.5   8.2  34208  290.40 0854.45
2009/04/23 13:55:33.9     373   -260    338    455    566 124.9  40.2  34230  290.77 0854.45
2009/04/23 13:55:34.0     325   -274    146    426    451 130.1  18.9  34226  290.70 0854.45
2009/04/23 13:55:34.1     321   -218    147    389    415 124.2  21.7  34224  290.65 0854.45
2009/04/23 13:55:34.2     271   -338     50    434    437 141.3   6.7  34222  290.61 0854.45
2009/04/23 13:55:34.3     119   -297   -157    321    357 158.1 -32.4  34222  290.64 0854.45
2009/04/23 13:55:34.4     317   -144   -123    349    370 114.5 -24.5  34226  290.69 0854.45
2009/04/23 13:55:34.5     277   -225    101    357    372 129.1  15.9  34210  290.43 0854.45
2009/04/23 13:55:34.6     313   -160    234    352    422 117.2  36.6  34208  290.38 0854.45
2009/04/23 13:55:34.7     381    -28    306    382    489  94.3  42.8  34212  290.44 0854.45
2009/04/23 13:55:34.8     256    -58    274    263    379 102.8  51.3  34204  290.32 0854.45
2009/04/23 13:55:34.9     135     97    198    167    259  54.3  55.8  34216  290.53 0854.45
2009/04/23 13:55:35.0     146     11    185    147    236  85.7  57.5  34218  290.57 0854.45
2009/04/23 13:55:35.1      33   -301     99    303    319 173.7  18.2  34206  290.34 0854.45
2009/04/23 13:55:35.2    -211   -224    -99    309    324 223.3 -22.9  34202  290.29 0854.45
2009/04/23 13:55:35.3       3   -207   -180    208    275 179.1 -50.0  34220  290.59 0854.45
2009/04/23 13:55:35.4      39    145    -52    151    160  15.2 -19.1  34218  290.57 0854.45
2009/04/23 13:55:35.5     191    148    139    242    279  52.2  32.4  34212  290.46 0854.45
2009/04/23 13:55:35.6       0      3    198      4    198 350.3  90.0  34208  290.38 0854.45
2009/04/23 13:55:35.7      38    119    309    125    333  17.8  77.0  34208  290.39 0854.42
2009/04/23 13:55:35.8     113   -117    362    163    397 135.9  74.3  34206  290.35 0854.42
2009/04/23 13:55:35.9       0      0    335      1    335  90.0  90.0  34186  290.00 0854.42
2009/04/23 13:55:36.0     147    -31    303    151    338 101.9  71.7  34210  290.41 0854.42
2009/04/23 13:55:36.1      43     -5    280     44    283  97.0  90.0  34222  290.63 0854.42
2009/04/23 13:55:36.2     262   -132    297    294    417 116.9  50.2  34218  290.57 0854.42
2009/04/23 13:55:36.3     267    -56    216    273    348 101.9  42.4  34208  290.37 0854.42
2009/04/23 13:55:36.4     275     69    189    284    341  75.8  36.6  34216  290.53 0854.42
2009/04/23 13:55:36.5     149    220    -86    266    279  34.1 -23.0  34248  291.05 0854.42
2009/04/23 13:55:36.6     132    121     77    180    195  47.6  24.6  34236  290.86 0854.42
2009/04/23 13:55:36.7     370     46    203    373    424  82.8  31.0  34240  290.92 0854.42
2009/04/23 13:55:36.8     366    239   -160    438    466  56.8 -25.3  34286  291.70 0854.42
2009/04/23 13:55:36.9     176   -181    267    253    367 135.7  51.6  34248  291.05 0854.42
2009/04/23 13:55:37.0     166   -169    180    238    298 135.5  40.9  34222  290.61 0854.42
2009/04/23 13:55:37.1     285    -31    151    287    324  96.4  30.0  34214  290.49 0854.42
2009/04/23 13:55:37.2     231   -113    151    258    298 116.2  33.1  34212  290.46 0854.42
2009/04/23 13:55:37.3      59    -91     90    109    141 146.6  43.7  34210  290.43 0854.42
2009/04/23 13:55:37.4     -56     35    113     67    131 302.4  66.7  34228  290.74 0854.42
2009/04/23 13:55:37.5      80     27     92     85    125  71.4  52.2  34218  290.57 0854.42
2009/04/23 13:55:37.6     195   -106    183    223    288 118.6  43.7  34218  290.54 0854.42
2009/04/23 13:55:37.7     163   -197    156    257    300 140.4  34.4  34214  290.49 0854.41
2009/04/23 13:55:37.8     118   -202    223    235    323 149.7  48.5  34206  290.36 0854.41
2009/04/23 13:55:37.9      50    -14    155     52    163 105.9  81.0  34212  290.45 0854.41
2009/04/23 13:55:38.0     281     66    190    289    345  76.7  36.3  34206  290.36 0854.41
2009/04/23 13:55:38.1     341     69    205    349    404  78.4  33.3  34214  290.50 0854.41
2009/04/23 13:55:38.2     355    109    142    372    398  72.8  22.0  34248  291.05 0854.41
2009/04/23 13:55:38.3     398    223    107    457    470  60.7  13.2  34278  291.58 0854.41
2009/04/23 13:55:38.4      64     65    265     92    280  44.7  80.3  34240  290.93 0854.41
2009/04/23 13:55:38.5     136    127    136    187    231  47.1  39.7  34262  291.30 0854.41
2009/04/23 13:55:38.6     202    570    202    605    638  19.5  18.5  34260  291.27 0854.41
2009/04/23 13:55:38.7     113    522    245    535    588  12.3  26.2  34266  291.38 0854.41
2009/04/23 13:55:38.8     104    488    205    500    540  12.1  23.5  34260  291.26 0854.41
2009/04/23 13:55:38.9     323    418    193    529    563  37.7  21.0  34256  291.21 0854.41
2009/04/23 13:55:39.0     184    439    -14    477    478  22.7  -1.7  34246  291.03 0854.41
2009/04/23 13:55:39.1     132    349     -2    374    375  20.7  -0.4  34248  291.06 0854.41
2009/04/23 13:55:39.2     360    555    -34    662    663  33.0  -3.0  34216  290.53 0854.41
2009/04/23 13:55:39.3     239    525     28    577    578  24.5   2.8  34186  290.02 0854.41
2009/04/23 13:55:39.4     149    410    119    437    454  20.0  15.3  34178  289.88 0854.41
2009/04/23 13:55:39.5     -14    311     81    312    323 357.3  14.7  34192  290.12 0854.41
2009/04/23 13:55:39.6    -134    399    103    422    435 341.4  13.8  34194  290.16 0854.41
2009/04/23 13:55:39.7    -558    389    -88    681    687 304.9  -7.4  34176  289.85 0854.39
2009/04/23 13:55:39.8    -497    490   -232    699    736 314.6 -23.6  34172  289.78 0854.39
2009/04/23 13:55:39.9    -478    572   -262    746    791 320.1 -19.4  34212  290.44 0854.39
2009/04/23 13:55:40.0    -318    643   -110    718    727 333.7  -8.7  34216  290.52 0854.39
2009/04/23 13:55:40.1     -32    435    -40    437    440 355.8  -5.3  34200  290.24 0854.39
2009/04/23 13:55:40.2    -273     73     77    283    294 285.0  15.3  34218  290.54 0854.39
2009/04/23 13:55:40.3      60     44     44     75     86  54.0  33.5  34198  290.21 0854.39
2009/04/23 13:55:40.4      24    203    -72    205    217   6.9 -24.6  34212  290.47 0854.39
2009/04/23 13:55:40.5     -26    341   -111    342    359 355.6 -23.2  34222  290.62 0854.39
2009/04/23 13:55:40.6     -37    183   -384    187    427 348.5 -76.8  34248  291.08 0854.39
2009/04/23 13:55:40.7    -388     75   -159    396    426 281.0 -27.4  34212  290.44 0854.39
2009/04/23 13:55:40.8    -432     12   -248    433    498 271.7 -36.8  34206  290.35 0854.39
2009/04/23 13:55:40.9    -338    -17     22    339    340 267.1   3.8  34198  290.23 0854.39
2009/04/23 13:55:41.0    -193     84   -136    211    251 293.7 -40.0  34210  290.41 0854.39
2009/04/23 13:55:41.1    -146    320   -111    352    370 335.5 -17.6  34202  290.28 0854.39
2009/04/23 13:55:41.2      49    317   -104    321    338   8.9 -18.0  34206  290.35 0854.39
2009/04/23 13:55:41.3      61    243    -64    251    260  14.3 -14.3  34206  290.34 0854.39
2009/04/23 13:55:41.4      92    266   -100    282    299  19.2 -24.6  34212  290.44 0854.39
2009/04/23 13:55:41.5     146    229   -115    272    295  32.5 -28.6  34202  290.29 0854.39
2009/04/23 13:55:41.6     112    237   -122    263    289  25.2 -31.4  34196  290.17 0854.39
2009/04/23 13:55:41.7     278    183    151    334    366  56.6  25.9  34192  290.10 0854.39
2009/04/23 13:55:41.8     130    291     74    319    328  24.1  13.1  34194  290.15 0854.39
2009/04/23 13:55:41.9     -39    194    -61    198    207 348.5 -21.8  34218  290.57 0854.39
2009/04/23 13:55:42.0     -26    190   -115    192    223 352.0 -38.1  34228  290.74 0854.39
2009/04/23 13:55:42.1     -92    289     44    304    308 342.2   8.2  34218  290.56 0854.39
2009/04/23 13:55:42.2    -253    423    -78    493    500 329.1  -9.0  34220  290.59 0854.39
2009/04/23 13:55:42.3    -274    428    -33    509    511 327.4  -3.7  34218  290.56 0854.39
2009/04/23 13:55:42.4      45    587   -120    589    602   4.5 -11.6  34238  290.90 0854.39
2009/04/23 13:55:42.5     128    488     32    505    507  14.8   3.6  34220  290.59 0854.39
2009/04/23 13:55:42.6      34    540     90    542    550   3.6   9.5  34216  290.52 0854.39
2009/04/23 13:55:42.7    -169    476     29    506    507 340.4   3.3  34218  290.54 0854.39
2009/04/23 13:55:42.8    -355    586     52    686    688 328.8   4.3  34200  290.24 0854.39
2009/04/23 13:55:42.9    -583    483    -76    758    762 309.6  -5.8  34196  290.19 0854.39
2009/04/23 13:55:43.0    -527    562    -92    771    777 316.9  -6.9  34200  290.24 0854.39
2009/04/23 13:55:43.1    -448    516   -108    684    693 319.0  -9.0  34206  290.36 0854.39
2009/04/23 13:55:43.2    -385    493   -136    626    641 322.0 -12.3  34198  290.23 0854.39
2009/04/23 13:55:43.3    -272    541    -55    606    609 333.3  -5.2  34198  290.22 0854.39
2009/04/23 13:55:43.4    -314    519    -39    607    609 328.8  -3.7  34198  290.20 0854.39
2009/04/23 13:55:43.5     -55    573     90    576    584 354.4   8.9  34210  290.41 0854.39
2009/04/23 13:55:43.6     -93    672    -57    679    682 352.1  -4.9  34202  290.29 0854.39
2009/04/23 13:55:43.7     -40    566    -22    568    569 355.9  -2.2  34198  290.23 0854.37
2009/04/23 13:55:43.8    -225    477   -145    528    548 334.7 -15.4  34212  290.45 0854.37
2009/04/23 13:55:43.9    -200    564    -33    599    600 340.4  -3.2  34212  290.46 0854.37
2009/04/23 13:55:44.0    -173    395      0    432    433 336.4   0.0  34234  290.84 0854.37
2009/04/23 13:55:44.1     -61    355     98    361    375 350.2  15.3  34206  290.35 0854.37
2009/04/23 13:55:44.2     -83    214    148    230    273 338.6  35.7  34210  290.41 0854.37
2009/04/23 13:55:44.3     -87    233    202    249    320 339.5  43.3  34220  290.58 0854.37
2009/04/23 13:55:44.4    -166    177    168    243    295 316.8  37.8  34214  290.49 0854.37
2009/04/23 13:55:44.5    -145     -6    171    146    224 267.4  55.6  34214  290.48 0854.37
2009/04/23 13:55:44.6      22    -98    159    101    188 167.1  64.7  34242  290.98 0854.37
2009/04/23 13:55:44.7      85     22    213     88    230  75.4  76.6  34230  290.75 0854.37
2009/04/23 13:55:44.8      94    -19    224     96    243 101.5  75.3  34232  290.81 0854.37
2009/04/23 13:55:44.9     -35    107    274    113    296 341.7  76.6  34248  291.07 0854.37
2009/04/23 13:55:45.0     -62    -29    414     69    419 244.7  90.0  34250  291.11 0854.37
2009/04/23 13:55:45.1     187     41    290    192    347  77.6  63.5  34218  290.56 0854.37
2009/04/23 13:55:45.2      18      8    231     21    231  64.7  90.0  34234  290.84 0854.37
2009/04/23 13:55:45.3      82     27    138     87    163  71.4  64.7  34230  290.77 0854.37
2009/04/23 13:55:45.4     -17      5    139     18    140 288.2  90.0  34232  290.81 0854.37
2009/04/23 13:55:45.5     -50     35    133     62    146 305.1  73.1  34280  291.60 0854.37
2009/04/23 13:55:45.6     -23    -18    182     30    184 232.2  90.0  34292  291.81 0854.37
2009/04/23 13:55:45.7     -46     49    217     68    227 316.8  82.3  34270  291.43 0854.34
2009/04/23 13:55:45.8    -201    -80     80    217    231 248.2  20.9  34286  291.72 0854.34
2009/04/23 13:55:45.9    -271   -107     24    292    294 248.3   4.9  34288  291.73 0854.34
2009/04/23 13:55:46.0    -193    -27    137    195    238 262.0  38.6  34270  291.43 0854.34
2009/04/23 13:55:46.1    -158   -171    125    234    265 222.8  30.3  34246  291.02 0854.34
2009/04/23 13:55:46.2    -363   -231    151    431    457 237.6  19.4  34234  290.82 0854.34
2009/04/23 13:55:46.3    -649   -288     36    711    712 246.1   2.9  34244  291.01 0854.34
2009/04/23 13:55:46.4    -484   -308   -134    574    590 237.5 -13.2  34206  290.36 0854.34
2009/04/23 13:55:46.5    -315   -108    -11    334    335 251.0  -1.9  34226  290.69 0854.34
2009/04/23 13:55:46.6    -319     -9    -57    320    326 268.3 -10.1  34218  290.56 0854.34
2009/04/23 13:55:46.7    -128    -65     70    144    160 243.0  28.0  34226  290.70 0854.34
2009/04/23 13:55:46.8    -129   -187    195    228    300 214.7  44.9  34222  290.63 0854.34
2009/04/23 13:55:46.9    -273   -242    230    365    431 228.4  35.3  34246  291.04 0854.34
2009/04/23 13:55:47.0    -487   -142     33    508    510 253.7   3.8  34256  291.20 0854.34
2009/04/23 13:55:47.1    -349   -131   -135    373    396 249.4 -25.2  34256  291.20 0854.34
2009/04/23 13:55:47.2    -281   -122   -102    307    323 246.5 -23.7  34258  291.24 0854.34
2009/04/23 13:55:47.3    -234   -106    -98    258    275 245.6 -26.4  34240  290.92 0854.34
2009/04/23 13:55:47.4    -229   -138   -102    268    286 238.9 -26.4  34242  290.95 0854.34
2009/04/23 13:55:47.5    -342   -131   -115    367    384 248.9 -22.5  34240  290.94 0854.34
2009/04/23 13:55:47.6    -218     25    -75    220    232 276.6 -23.3  34252  291.15 0854.34
2009/04/23 13:55:47.7    -258    142    -82    295    307 298.9 -15.5  34240  290.93 0854.31
2009/04/23 13:55:47.8    -294     58    -83    300    312 281.2 -15.5  34250  291.09 0854.31
2009/04/23 13:55:47.9    -274     64   -171    282    329 283.2 -38.6  34260  291.26 0854.31
2009/04/23 13:55:48.0    -364     38    -25    367    368 276.1  -4.0  34268  291.39 0854.31
2009/04/23 13:55:48.1    -400   -216   -137    455    476 241.6 -16.8  34244  291.00 0854.31
2009/04/23 13:55:48.2    -384   -101    -87    398    408 255.2 -12.4  34256  291.21 0854.31
2009/04/23 13:55:48.3    -286    104      4    305    306 290.0   0.8  34248  291.07 0854.31
2009/04/23 13:55:48.4    -317    268   -113    416    432 310.2 -15.2  34240  290.94 0854.31
2009/04/23 13:55:48.5    -265    216   -113    343    361 309.2 -23.6  34214  290.49 0854.31
2009/04/23 13:55:48.6    -329    147   -143    361    388 294.1 -27.3  34206  290.35 0854.31
2009/04/23 13:55:48.7    -328    185   -148    377    405 299.5 -26.9  34218  290.55 0854.31
2009/04/23 13:55:48.8    -291    146   -123    326    348 296.6 -26.0  34232  290.79 0854.31
2009/04/23 13:55:48.9    -300    118    -10    323    324 291.6  -1.9  34240  290.93 0854.31
2009/04/23 13:55:49.0    -339     53   -132    344    368 278.9 -26.4  34226  290.69 0854.31
2009/04/23 13:55:49.1    -308     57   -202    314    373 280.6 -40.0  34214  290.50 0854.31
2009/04/23 13:55:49.2    -202    193   -192    280    339 313.8 -42.1  34226  290.70 0854.31
2009/04/23 13:55:49.3    -244    127   -178    276    328 297.5 -40.3  34232  290.80 0854.31
2009/04/23 13:55:49.4    -170     93    -79    195    210 298.8 -27.5  34234  290.82 0854.31
2009/04/23 13:55:49.5    -289    110   -135    310    338 290.8 -29.3  34222  290.64 0854.31
2009/04/23 13:55:49.6    -221    140   -109    262    283 302.4 -28.5  34222  290.61 0854.31
2009/04/23 13:55:49.7    -363    169   -138    401    424 295.0 -23.9  34218  290.56 0854.29
2009/04/23 13:55:49.8    -425    234   -173    486    515 298.9 -24.8  34222  290.62 0854.29
2009/04/23 13:55:49.9    -282    253    -45    379    382 311.9  -6.8  34244  291.00 0854.29
2009/04/23 13:55:50.0    -355    214   -166    415    446 301.2 -27.4  34214  290.50 0854.29
2009/04/23 13:55:50.1    -350    238   -141    424    446 304.2 -23.8  34244  290.99 0854.29
2009/04/23 13:55:50.2    -362    170   -102    401    414 295.2 -14.3  34246  291.02 0854.29
2009/04/23 13:55:50.3    -234    309    -29    388    390 322.8  -4.4  34240  290.94 0854.29
2009/04/23 13:55:50.4    -284    189    -48    342    346 303.7  -8.1  34240  290.94 0854.29
2009/04/23 13:55:50.5    -245    238    -19    342    343 314.2  -3.2  34242  290.98 0854.29
2009/04/23 13:55:50.6    -335    188     -1    385    386 299.3  -0.2  34248  291.06 0854.29
2009/04/23 13:55:50.7    -317    188   -102    369    383 300.7 -15.5  34248  291.08 0854.29
2009/04/23 13:55:50.8    -254    225   -105    340    356 311.6 -17.2  34236  290.86 0854.29
2009/04/23 13:55:50.9     -45    407     43    410    413 353.7   6.1  34230  290.75 0854.29
2009/04/23 13:55:51.0    -114    403     98    419    431 344.2  13.2  34236  290.85 0854.29
2009/04/23 13:55:51.1    -128    349     46    372    375 339.8   7.1  34246  291.03 0854.29
2009/04/23 13:55:51.2      29    191    146    194    242   8.7  40.7  34230  290.77 0854.29
2009/04/23 13:55:51.3     121    162    153    203    254  36.7  40.7  34232  290.78 0854.29
2009/04/23 13:55:51.4      -9    199    140    200    244 357.3  38.5  34230  290.75 0854.29
2009/04/23 13:55:51.5      62    182    167    193    255  18.9  45.4  34230  290.75 0854.29
2009/04/23 13:55:51.6     103    283    245    302    388  20.0  43.5  34260  291.27 0854.29
2009/04/23 13:55:51.7     111    245    188    270    329  24.5  38.4  34242  290.97 0854.34
2009/04/23 13:55:51.8      15    204     21    205    207   4.5   5.9  34240  290.92 0854.34
2009/04/23 13:55:51.9      -3    235    123    236    266 359.1  29.5  34264  291.33 0854.34
2009/04/23 13:55:52.0     -43    254    192    258    321 350.3  40.4  34294  291.84 0854.34
2009/04/23 13:55:52.1    -101    234    170    256    307 336.6  36.5  34276  291.55 0854.34
2009/04/23 13:55:52.2     -13    181    196    182    267 355.8  52.2  34322  292.33 0854.34
2009/04/23 13:55:52.3      74    116    166    138    215  32.5  56.3  34320  292.29 0854.34
2009/04/23 13:55:52.4      83    171    159    191    248  25.9  43.8  34324  292.37 0854.34
2009/04/23 13:55:52.5      14    190    156    191    246   4.5  43.7  34320  292.30 0854.34
2009/04/23 13:55:52.6     -24    222    100    224    245 353.8  25.9  34320  292.28 0854.34
2009/04/23 13:55:52.7     -38    180     40    185    190 348.0  12.4  34314  292.20 0854.34
2009/04/23 13:55:52.8      19    171     20    173    175   6.5   6.9  34308  292.08 0854.34
2009/04/23 13:55:52.9     -23    168     52    170    178 352.0  17.1  34312  292.17 0854.34
2009/04/23 13:55:53.0       6    203     55    204    212   1.8  15.2  34312  292.17 0854.34
2009/04/23 13:55:53.1       8    152     27    153    156   3.1  10.1  34308  292.08 0854.34
2009/04/23 13:55:53.2     -40    150     -6    156    157 344.9  -2.2  34312  292.15 0854.34
2009/04/23 13:55:53.3      -4    128     -2    129    130 358.2  -1.3  34290  291.79 0854.34
2009/04/23 13:55:53.4     -42    155     26    161    164 344.9   9.3  34254  291.18 0854.34
2009/04/23 13:55:53.5    -151    187     59    241    249 321.0  13.9  34238  290.88 0854.34
2009/04/23 13:55:53.6    -171    182     98    250    268 316.8  22.5  34244  291.00 0854.34
2009/04/23 13:55:53.7    -151    209     97    258    275 324.2  21.5  34248  291.07 0854.37
2009/04/23 13:55:53.8    -101    146     85    178    197 325.3  27.2  34276  291.54 0854.37
2009/04/23 13:55:53.9     -62    114     43    130    137 331.5  18.4  34304  292.01 0854.37
2009/04/23 13:55:54.0     -14    181      9    182    183 355.3   2.9  34330  292.46 0854.37
2009/04/23 13:55:54.1     121    256    170    284    330  25.3  34.0  34328  292.41 0854.37
2009/04/23 13:55:54.2      95     22    165     98    191  76.7  66.4  34326  292.40 0854.37
2009/04/23 13:55:54.3      67     92    122    114    166  36.1  52.2  34308  292.10 0854.37
2009/04/23 13:55:54.4      27     84    108     89    139  18.3  56.4  34308  292.10 0854.37
2009/04/23 13:55:54.5       5    236     63    237    246   1.4  15.0  34260  291.26 0854.37
2009/04/23 13:55:54.6     -39    193    133    198    238 348.4  37.3  34272  291.49 0854.37
2009/04/23 13:55:54.7     -67    181    128    194    232 339.5  36.3  34290  291.79 0854.42
2009/04/23 13:55:54.8       2    145     98    146    175   0.9  36.7  34308  292.08 0854.42
2009/04/23 13:55:54.9     101     45     35    111    117  65.6  17.4  34326  292.39 0854.42
2009/04/23 13:55:55.0      97     17     39     99    106  79.9  22.5  34334  292.52 0854.42
2009/04/23 13:55:55.1     180     32     82    183    200  79.9  25.7  34330  292.46 0854.42
2009/04/23 13:55:55.2     213    127     39    249    253  59.1   8.9  34302  291.99 0854.42
2009/04/23 13:55:55.3     176     64    161    188    247  69.8  44.9  34354  292.88 0854.42
2009/04/23 13:55:55.4     214    166     96    271    287  52.2  20.2  34330  292.47 0854.42
2009/04/23 13:55:55.5     150    118     99    192    216  51.8  29.3  34340  292.64 0854.42
2009/04/23 13:55:55.6     167    142    103    220    242  49.6  27.0  34368  293.10 0854.42
2009/04/23 13:55:55.7     186     93    131    209    246  63.4  35.5  34362  293.01 0854.42
2009/04/23 13:55:55.8     233    199     36    307    310  49.5   6.7  34308  292.09 0854.42
2009/04/23 13:55:55.9      85     73     67    113    131  49.1  33.5  34316  292.23 0854.42
2009/04/23 13:55:56.0     -68    184     30    197    200 339.5   8.8  34318  292.27 0854.42
2009/04/23 13:55:56.1     -27    198     91    200    219 352.0  26.2  34328  292.44 0854.42
2009/04/23 13:55:56.2     128    149    153    197    249  40.8  41.7  34332  292.48 0854.42
2009/04/23 13:55:56.3     128    187    174    227    286  34.5  41.6  34342  292.67 0854.42
2009/04/23 13:55:56.4     219    177    156    282    322  51.1  31.4  34352  292.84 0854.42
2009/04/23 13:55:56.5     141    161    120    215    246  41.2  31.6  34334  292.52 0854.42
2009/04/23 13:55:56.6     190    148    110    242    265  52.0  26.2  34326  292.38 0854.42
2009/04/23 13:55:56.7     341    207    123    400    419  58.7  17.2  34324  292.35 0854.45
2009/04/23 13:55:56.8     472    384     92    609    616  50.9   8.6  34312  292.16 0854.45
2009/04/23 13:55:56.9     544    317     92    630    637  59.8   8.3  34332  292.51 0854.45
2009/04/23 13:55:57.0     598    259    219    652    688  66.6  18.6  34342  292.66 0854.45
2009/04/23 13:55:57.1     512    242    111    567    578  64.7  11.1  34306  292.04 0854.45
2009/04/23 13:55:57.2     531    250    242    587    634  64.8  23.7  34334  292.54 0854.45
2009/04/23 13:55:57.3     553    241    225    604    644  66.5  21.4  34322  292.32 0854.45
2009/04/23 13:55:57.4     474    274    239    548    597  60.0  25.1  34264  291.34 0854.45
2009/04/23 13:55:57.5     460    372    149    592    611  51.0  14.2  34242  290.98 0854.45
2009/04/23 13:55:57.7     379    333    198    505    542  48.7  22.5  34248  291.08 0854.45
2009/04/23 13:55:57.7     397    263    139    477    497  56.5  16.3  34270  291.44 0854.45
2009/04/23 13:55:57.9     180    197     47    267    272  42.4  10.1  34292  291.80 0854.45
2009/04/23 13:55:58.0     160    350     97    385    398  24.6  14.2  34294  291.86 0854.45
2009/04/23 13:55:58.1     256    249    161    358    392  45.8  25.9  34326  292.39 0854.45
2009/04/23 13:55:58.2     272    349     21    443    444  38.0   2.8  34322  292.32 0854.45
2009/04/23 13:55:58.3     213    332     65    395    401  32.7   9.4  34290  291.78 0854.45
2009/04/23 13:55:58.4     279    250     -8    375    376  48.1  -1.3  34280  291.62 0854.45
2009/04/23 13:55:58.5     274    243    -14    367    368  48.4  -2.2  34276  291.54 0854.45
2009/04/23 13:55:58.6     171    203    -10    266    267  40.1  -2.2  34282  291.65 0854.45
2009/04/23 13:55:58.7     189    151     -1    243    244  51.4  -0.3  34270  291.43 0854.45
2009/04/23 13:55:58.8     369    184    121    413    431  63.4  16.4  34286  291.70 0854.46
2009/04/23 13:55:58.9     329     90     53    342    347  74.6   8.9  34318  292.24 0854.46
2009/04/23 13:55:59.0     234    129    122    268    294  61.2  26.2  34310  292.13 0854.46
2009/04/23 13:55:59.1     139     87    129    165    209  58.0  42.0  34304  292.03 0854.46
2009/04/23 13:55:59.2     182   -108    133    212    250 120.7  35.2  34328  292.43 0854.46
2009/04/23 13:55:59.3     152    -66    174    166    240 113.6  51.4  34348  292.76 0854.46
2009/04/23 13:55:59.4      77    -41    140     88    165 118.0  64.7  34354  292.86 0854.46
2009/04/23 13:55:59.5      68     11    158     69    172  80.3  75.0  34352  292.83 0854.46
2009/04/23 13:55:59.6     125     -7    179    126    218  93.5  61.3  34346  292.75 0854.46
2009/04/23 13:55:59.7     171    -35    172    175    245 101.7  49.8  34346  292.75 0854.46
2009/04/23 13:55:59.8     -56     -6    141     57    152 263.0  77.1  34370  293.15 0854.46
2009/04/23 13:55:59.9     -33    -50    169     61    179 213.4  79.7  34374  293.22 0854.46
2009/04/23 13:56:00.0     -95     27    151     99    180 285.9  63.9  34368  293.10 0854.46
2009/04/23 13:56:00.1      -7     22    122     24    124 341.7  89.6  34352  292.85 0854.46
2009/04/23 13:56:00.2      26      8    102     28    105  71.4  84.8  34348  292.78 0854.46
2009/04/23 13:56:00.3      32     94     28    100    104  18.7  15.8  34336  292.58 0854.46
2009/04/23 13:56:00.4     -47    217      4    223    224 347.7   1.2  34314  292.20 0854.46
2009/04/23 13:56:00.5    -110    203    -78    232    246 331.5 -18.7  34300  291.94 0854.46
2009/04/23 13:56:00.6       0     39     28     40     48 359.1  38.6  34302  291.98 0854.46
2009/04/23 13:56:00.7      48    174    103    181    208  15.4  32.4  34310  292.13 0854.46
2009/04/23 13:56:00.8     120    138     74    184    198  41.0  23.0  34298  291.93 0854.46
2009/04/23 13:56:00.9     113    106      6    156    157  46.9   2.5  34272  291.49 0854.46
2009/04/23 13:56:01.0      83    147    -33    169    173  29.4 -11.3  34264  291.35 0854.46
2009/04/23 13:56:01.1      92     89    -48    129    137  46.0 -25.4  34264  291.33 0854.46
2009/04/23 13:56:01.2     154     42     97    160    187  74.5  34.2  34274  291.52 0854.46
2009/04/23 13:56:01.3     260    151     27    301    303  59.8   5.2  34258  291.24 0854.46
2009/04/23 13:56:01.4     227    154     52    275    280  55.8  10.8  34252  291.12 0854.46
2009/04/23 13:56:01.5     249     79    115    262    286  72.3  25.2  34258  291.24 0854.46
2009/04/23 13:56:01.6     226    124     66    259    268  61.2  14.3  34250  291.10 0854.46
2009/04/23 13:56:01.7      60     44    108     75    131  54.1  62.1  34260  291.28 0854.46
2009/04/23 13:56:01.8     -43     69    107     82    134 328.4  58.5  34272  291.47 0854.46
2009/04/23 13:56:01.9     -28     44    112     53    123 327.4  73.1  34290  291.77 0854.46
2009/04/23 13:56:02.0     -22    107    131    110    171 348.4  55.8  34272  291.49 0854.46
2009/04/23 13:56:02.1     -60    212    168    221    277 344.2  41.2  34262  291.31 0854.46
2009/04/23 13:56:02.2     100    211    129    234    267  25.3  31.4  34272  291.48 0854.46
2009/04/23 13:56:02.3     176    166    189    243    307  46.7  41.7  34284  291.67 0854.46
2009/04/23 13:56:02.4     138    216     76    257    269  32.6  16.6  34278  291.58 0854.46
2009/04/23 13:56:02.5      -7    -35    129     36    133 191.6  84.4  34290  291.79 0854.46
2009/04/23 13:56:02.6      76     15     72     78    106  78.5  47.9  34302  291.98 0854.46
2009/04/23 13:56:02.7     -22    216     48    218    224 354.2  12.6  34298  291.93 0854.46
2009/04/23 13:56:02.8     -28    216    140    218    259 352.4  35.6  34298  291.92 0854.43
2009/04/23 13:56:02.9     151    206     93    256    272  36.3  20.7  34308  292.07 0854.43
2009/04/23 13:56:03.0     219    186     24    288    290  49.6   4.9  34308  292.07 0854.43
2009/04/23 13:56:03.1     221    173     14    281    282  52.0   2.9  34318  292.24 0854.43
2009/04/23 13:56:03.2     259    186    134    319    346  54.3  24.1  34270  291.45 0854.43
2009/04/23 13:56:03.3     223    163    105    277    296  53.8  22.0  34260  291.26 0854.43
2009/04/23 13:56:03.4     230     68    233    241    335  73.4  49.1  34298  291.92 0854.43
2009/04/23 13:56:03.5     460     86    234    468    523  79.4  28.7  34288  291.76 0854.43
2009/04/23 13:56:03.6     280    149     35    318    320  62.0   6.4  34254  291.16 0854.43
2009/04/23 13:56:03.7     158    118    143    198    244  53.4  39.3  34270  291.43 0854.43
2009/04/23 13:56:03.8     330    -21     62    331    337  93.7  10.7  34282  291.64 0854.43
2009/04/23 13:56:03.9     307    136    -90    336    348  66.1 -15.0  34264  291.35 0854.43
2009/04/23 13:56:04.0     219     37    123    223    254  80.3  31.3  34300  291.96 0854.43
2009/04/23 13:56:04.1     200      0     86    201    218  90.0  24.3  34318  292.25 0854.43
2009/04/23 13:56:04.2      23    -92     -3     95     96 165.7  -2.2  34316  292.22 0854.43
2009/04/23 13:56:04.3     -32   -123     85    128    153 194.7  36.0  34318  292.27 0854.43
2009/04/23 13:56:04.4       1    -72     87     73    113 179.1  55.8  34318  292.25 0854.43
2009/04/23 13:56:04.5     144    -73    137    162    212 117.1  44.5  34318  292.25 0854.43
2009/04/23 13:56:04.6     150    -60    224    162    276 111.8  60.6  34320  292.30 0854.43
2009/04/23 13:56:04.7     306   -104    264    324    417 108.8  43.5  34306  292.05 0854.43
2009/04/23 13:56:04.8     195    -85    289    213    359 113.7  60.1  34312  292.14 0854.44
2009/04/23 13:56:04.9      56     46    313     73    321  50.4  87.1  34310  292.11 0854.44
2009/04/23 13:56:05.0     167    107    309    199    367  57.4  64.4  34294  291.85 0854.44
2009/04/23 13:56:05.1     284    412    272    501    570  34.6  30.9  34224  290.67 0854.44
2009/04/23 13:56:05.2      98    631    279    639    697   8.9  25.2  34280  291.60 0854.44
2009/04/23 13:56:05.3     -45    526    259    529    589 355.0  28.2  34302  291.99 0854.44
2009/04/23 13:56:05.4    -122    598    212    611    647 348.4  19.2  34286  291.71 0854.44
2009/04/23 13:56:05.5    -656    518    171    836    854 308.3  11.6  34234  290.82 0854.44
2009/04/23 13:56:05.6    -131    515    250    532    587 345.7  27.1  34258  291.24 0854.44
2009/04/23 13:56:05.7    -292    513   -101    591    600 330.4  -9.7  34236  290.87 0854.44
2009/04/23 13:56:05.8     -29    377   -115    379    396 355.5 -21.8  34212  290.47 0854.44
2009/04/23 13:56:05.9     401     62    121    406    424  81.2  16.6  34276  291.53 0854.44
2009/04/23 13:56:06.0     340     78    265    349    438  77.0  41.1  34292  291.80 0854.44
2009/04/23 13:56:06.1     451    148     24    475    476  71.8   2.9  34248  291.07 0854.44
2009/04/23 13:56:06.2     574    138    182    591    619  76.5  17.2  34292  291.80 0854.44
2009/04/23 13:56:06.3     363     62    366    369    519  80.2  49.9  34308  292.10 0854.44
2009/04/23 13:56:06.4     562    366    157    671    690  56.9  13.2  34252  291.12 0854.44
2009/04/23 13:56:06.5    1050    383     95   1119   1124  70.0   4.9  34270  291.44 0854.44
2009/04/23 13:56:06.6    1176    360     17   1231   1232  73.0   0.8  34254  291.17 0854.44
2009/04/23 13:56:06.7    1222    318    -50   1263   1265  75.4  -2.3  34256  291.20 0854.44
2009/04/23 13:56:06.8     787    466    185    915    934  59.4  11.5  34208  290.40 0854.45
2009/04/23 13:56:06.9     822    232     43    855    857  74.2   2.9  34242  290.95 0854.45
2009/04/23 13:56:07.0     450    164   -132    480    497  70.0 -20.1  34232  290.81 0854.45
2009/04/23 13:56:07.1     417    344      2    541    542  50.5   0.2  34232  290.80 0854.45
2009/04/23 13:56:07.2     256    281     58    381    386  42.3   8.7  34240  290.93 0854.45
2009/04/23 13:56:07.3     320      0     -2    321    322  90.0  -0.5  34244  291.00 0854.45
2009/04/23 13:56:07.4     448    269     52    523    526  59.0   5.7  34240  290.92 0854.45
2009/04/23 13:56:07.5     508    -15     46    509    512  91.7   5.2  34234  290.83 0854.45
2009/04/23 13:56:07.6     265    -28   -137    267    300  96.1 -33.7  34202  290.29 0854.45
2009/04/23 13:56:07.7      24    193   -162    195    253   7.3 -48.2  34212  290.44 0854.45
2009/04/23 13:56:07.8    -100    207     29    231    233 334.1   7.2  34240  290.92 0854.45
2009/04/23 13:56:07.9    -142    -72    -69    160    174 243.0 -29.0  34242  290.96 0854.45
2009/04/23 13:56:08.0    -186   -107     65    215    225 240.0  16.8  34230  290.75 0854.45
2009/04/23 13:56:08.1    -181    -97    197    206    285 241.6  49.0  34256  291.21 0854.45
2009/04/23 13:56:08.2    -219    -80    205    234    311 250.0  45.8  34254  291.16 0854.45
2009/04/23 13:56:08.3    -166    -68    161    180    241 247.8  46.6  34256  291.20 0854.45
2009/04/23 13:56:08.4     -89   -133    226    161    277 213.8  61.1  34256  291.21 0854.45
2009/04/23 13:56:08.5      37    -40    231     55    237 136.8  86.9  34260  291.28 0854.45
2009/04/23 13:56:08.6    -128   -167    327    211    389 217.4  64.6  34262  291.30 0854.45
2009/04/23 13:56:08.7    -155    -94    203    182    272 238.9  53.3  34256  291.19 0854.45
2009/04/23 13:56:08.8     -93   -257    135    274    305 200.0  28.0  34254  291.16 0854.43
2009/04/23 13:56:08.9    -196    -83    114    214    242 246.9  30.3  34250  291.09 0854.43
2009/04/23 13:56:09.0    -287     94      2    303    304 288.2   0.5  34234  290.82 0854.43
2009/04/23 13:56:09.1    -227     82    -76    242    254 290.0 -17.6  34234  290.83 0854.43
2009/04/23 13:56:09.2    -235     78     37    248    251 288.6   8.5  34240  290.93 0854.43
2009/04/23 13:56:09.3    -203      3     59    204    213 270.9  16.3  34240  290.92 0854.43
2009/04/23 13:56:09.4    -319    -77     67    329    336 256.3  11.6  34238  290.88 0854.43
2009/04/23 13:56:09.5    -368    122     53    388    392 288.4   7.8  34218  290.54 0854.43
2009/04/23 13:56:09.6    -416    330    172    532    560 308.4  17.9  34218  290.57 0854.43
2009/04/23 13:56:09.7    -448    448    242    634    678 315.0  22.0  34230  290.75 0854.43
2009/04/23 13:56:09.8    -406    439    212    599    636 317.2  19.5  34244  291.01 0854.43
2009/04/23 13:56:09.9    -352    524    153    632    651 326.1  13.7  34230  290.76 0854.43
2009/04/23 13:56:10.0    -552    460    128    719    731 309.8  10.1  34228  290.74 0854.43
2009/04/23 13:56:10.1    -640    381     40    745    747 300.8   3.1  34238  290.91 0854.43
2009/04/23 13:56:10.2    -422    301    305    519    601 305.5  33.4  34236  290.85 0854.43
2009/04/23 13:56:10.3    -243    535     74    588    593 335.5   7.2  34236  290.85 0854.43
2009/04/23 13:56:10.4    -249    656     76    702    707 339.2   6.2  34262  291.29 0854.43
2009/04/23 13:56:10.5     -70    743    134    747    760 354.6  10.2  34242  290.96 0854.43
2009/04/23 13:56:10.6     -31    511    157    512    536 356.5  17.1  34238  290.91 0854.43
2009/04/23 13:56:10.7      54    445    -58    449    453   7.0  -7.5  34254  291.18 0854.43
2009/04/23 13:56:10.8      62    440     72    445    451   8.1   9.2  34224  290.67 0854.41
2009/04/23 13:56:10.9      66    427    162    433    462   8.9  21.5  34242  290.95 0854.41
2009/04/23 13:56:11.0      73    365    203    373    424  11.4  31.0  34256  291.21 0854.41
2009/04/23 13:56:11.1     -80    354    127    364    386 347.2  19.3  34252  291.15 0854.41
2009/04/23 13:56:11.2    -207    325    199    386    434 327.4  29.3  34264  291.33 0854.41
2009/04/23 13:56:11.3    -145    283    134    319    346 332.8  24.1  34258  291.25 0854.41
2009/04/23 13:56:11.4     -89    354    154    365    396 345.9  24.2  34266  291.37 0854.41
2009/04/23 13:56:11.5     -66    473    185    478    512 352.0  22.3  34302  291.99 0854.41
2009/04/23 13:56:11.6    -137    520    209    538    577 345.2  22.4  34292  291.81 0854.41
2009/04/23 13:56:11.7    -146    582    141    600    617 345.9  13.3  34300  291.95 0854.41
2009/04/23 13:56:11.8     -93    469    160    479    506 348.8  18.5  34308  292.07 0854.41
2009/04/23 13:56:11.9    -152    458    168    483    511 341.5  20.0  34306  292.04 0854.41
2009/04/23 13:56:12.0     -72    406    152    413    440 349.9  21.0  34302  291.99 0854.41
2009/04/23 13:56:12.1     169    469    357    499    613  19.9  39.2  34278  291.58 0854.41
2009/04/23 13:56:12.2      -9    631    330    632    712 359.1  29.8  34290  291.77 0854.41
2009/04/23 13:56:12.3     -50    641    205    644    676 355.5  17.7  34272  291.46 0854.41
2009/04/23 13:56:12.4       6    720    174    721    742   0.5  13.6  34260  291.28 0854.41
2009/04/23 13:56:12.5     321    520      2    612    613  31.7   0.2  34300  291.95 0854.41
2009/04/23 13:56:12.6     211    516   -116    558    571  22.3 -11.8  34280  291.60 0854.41
2009/04/23 13:56:12.7     177    486    -56    518    522  20.1  -6.2  34276  291.54 0854.41
2009/04/23 13:56:12.8     361    457     -2    583    584  38.3  -0.3  34282  291.65 0854.43
2009/04/23 13:56:12.9     500    357     47    615    617  54.5   4.4  34232  290.79 0854.43
2009/04/23 13:56:13.0     298    316   -449    435    625  43.3 -55.3  34230  290.75 0854.43
2009/04/23 13:56:13.1     772    249   -289    812    863  72.1 -19.6  34230  290.77 0854.43
2009/04/23 13:56:13.2     904    192   -261    925    962  78.0 -15.8  34242  290.98 0854.43
2009/04/23 13:56:13.3     913    190   -250    933    966  78.2 -15.1  34218  290.56 0854.43
2009/04/23 13:56:13.4     597    220    -67    637    641  69.7  -6.1  34210  290.43 0854.43
2009/04/23 13:56:13.5     238     33   -261    241    355  82.1 -57.0  34228  290.71 0854.43
2009/04/23 13:56:13.6     243   -178   -247    302    390 126.2 -47.9  34240  290.93 0854.43
2009/04/23 13:56:13.7      10     85   -242     86    256   6.7 -84.1  34230  290.75 0854.43
2009/04/23 13:56:13.8     121    134   -185    181    258  42.1 -55.1  34232  290.80 0854.43
2009/04/23 13:56:13.9      84    115   -230    143    270  36.1 -69.3  34228  290.73 0854.43
2009/04/23 13:56:14.0     299     41   -170    302    346  82.1 -36.3  34224  290.66 0854.43
2009/04/23 13:56:14.1     584   -225     40    626    628 111.1   3.7  34252  291.15 0854.43
2009/04/23 13:56:14.2     424   -185     73    463    469 113.6   9.0  34238  290.90 0854.43
2009/04/23 13:56:14.3     101      0    218    102    240  90.0  73.2  34256  291.20 0854.43
2009/04/23 13:56:14.4     270    163     80    316    327  58.9  14.3  34250  291.09 0854.43
2009/04/23 13:56:14.5     105    -95     39    142    148 132.2  15.3  34226  290.70 0854.43
2009/04/23 13:56:14.6     186     45    200    192    277  76.3  51.2  34234  290.83 0854.43
2009/04/23 13:56:14.7     201     34     80    204    219  80.3  22.8  34230  290.75 0854.43
2009/04/23 13:56:14.8     343    103     91    359    371  73.2  14.3  34222  290.62 0854.45
2009/04/23 13:56:14.9     331    117     -7    352    353  70.5  -1.3  34222  290.62 0854.45
2009/04/23 13:56:15.0     438    114    194    453    492  75.3  24.6  34216  290.52 0854.45
2009/04/23 13:56:15.1     292    138    270    323    420  64.7  44.1  34238  290.89 0854.45
2009/04/23 13:56:15.2     197    144    243    245    345  53.8  50.0  34246  291.02 0854.45
2009/04/23 13:56:15.3     258     30    313    260    406  83.2  56.3  34234  290.84 0854.45
2009/04/23 13:56:15.4     307     83    311    319    445  74.9  49.4  34248  291.07 0854.45
2009/04/23 13:56:15.5      97    -15    250     99    268  98.8  77.4  34266  291.38 0854.45
2009/04/23 13:56:15.6      22     26    214     35    216  39.7  90.0  34264  291.35 0854.45
2009/04/23 13:56:15.7      93   -117    236    150    279 141.3  64.7  34256  291.19 0854.45
2009/04/23 13:56:15.8     -75   -239    277    251    373 197.6  53.3  34256  291.20 0854.43
2009/04/23 13:56:15.9    -215   -153    148    265    303 234.5  31.4  34262  291.29 0854.43
2009/04/23 13:56:16.0    -223   -377    165    439    468 210.7  21.5  34256  291.19 0854.43
2009/04/23 13:56:16.1      17   -228    353    229    420 175.6  64.3  34268  291.39 0854.43
2009/04/23 13:56:16.2       7   -155    320    156    356 177.3  72.1  34260  291.27 0854.43
2009/04/23 13:56:16.3      32   -234    247    237    342 172.0  51.4  34244  291.00 0854.43
2009/04/23 13:56:16.4     -44   -304    283    308    418 188.2  47.6  34240  290.94 0854.43
2009/04/23 13:56:16.5     139   -139    279    197    341 135.1  61.4  34250  291.10 0854.43
2009/04/23 13:56:16.6     -25   -319    357    321    480 184.5  53.6  34242  290.97 0854.43
2009/04/23 13:56:16.7     -71   -350    413    358    546 191.5  54.8  34262  291.29 0854.43
2009/04/23 13:56:16.8     -69   -296    327    304    446 193.1  52.2  34264  291.33 0854.43
2009/04/23 13:56:16.9    -133   -232    131    268    298 209.9  28.0  34272  291.46 0854.43
2009/04/23 13:56:17.0      81    -85     41    118    125 136.3  19.2  34272  291.47 0854.43
2009/04/23 13:56:17.1      76   -188     84    203    219 157.9  23.6  34266  291.37 0854.43
2009/04/23 13:56:17.2      96   -310    106    325    342 162.8  18.1  34252  291.13 0854.43
2009/04/23 13:56:17.3     145   -166    238    221    324 138.8  52.5  34268  291.39 0854.43
2009/04/23 13:56:17.4     337    -20    296    338    449  93.4  45.8  34266  291.38 0854.43
2009/04/23 13:56:17.5     285     87    256    299    393  72.9  44.9  34262  291.32 0854.43
2009/04/23 13:56:17.6     299    254    142    393    418  49.6  19.9  34262  291.29 0854.43
2009/04/23 13:56:17.7     159    100    232    189    299  57.8  56.4  34258  291.22 0854.43
2009/04/23 13:56:17.8     455    164    325    484    582  70.1  37.0  34256  291.20 0854.42
2009/04/23 13:56:17.9     276    209    362    347    501  52.9  51.5  34274  291.50 0854.42
2009/04/23 13:56:18.0     301    300    157    425    453  45.1  21.1  34272  291.46 0854.42
2009/04/23 13:56:18.1     430     82    267    438    512  79.2  34.2  34258  291.22 0854.42
2009/04/23 13:56:18.2     244    243    239    345    419  45.1  38.0  34262  291.30 0854.42
2009/04/23 13:56:18.3     452     70    129    458    477  81.2  15.8  34252  291.15 0854.42
2009/04/23 13:56:18.4     615    187     93    644    651  73.1   8.2  34270  291.45 0854.42
2009/04/23 13:56:18.5     443    391    131    591    606  48.6  12.5  34272  291.46 0854.42
2009/04/23 13:56:18.6      34    276    224    279    357   7.2  42.9  34288  291.74 0854.42
2009/04/23 13:56:18.7     -23    307    211    308    373 355.6  37.8  34290  291.79 0854.42
2009/04/23 13:56:18.8     -39    253    140    257    292 351.1  31.3  34300  291.96 0854.42
2009/04/23 13:56:18.9    -113    211    -76    240    252 331.7 -17.6  34282  291.63 0854.42
2009/04/23 13:56:19.0     -96      7   -331     97    344 274.4 -87.7  34282  291.65 0854.42
2009/04/23 13:56:19.1     133     36   -243    138    279  74.9 -72.5  34238  290.88 0854.42
2009/04/23 13:56:19.2     -96    -69    -98    119    154 234.1 -48.1  34252  291.15 0854.42
2009/04/23 13:56:19.3      96    -10    152     97    180  96.1  64.7  34264  291.35 0854.42
2009/04/23 13:56:19.4     -59    -12    171     61    181 258.5  79.7  34280  291.62 0854.42
2009/04/23 13:56:19.5    -117    -78    141    141    199 236.3  50.1  34284  291.69 0854.42
2009/04/23 13:56:19.6    -174     -9     99    175    201 267.0  31.9  34276  291.54 0854.42
2009/04/23 13:56:19.7    -348     22     53    349    354 273.7   8.7  34276  291.54 0854.42
2009/04/23 13:56:19.8    -344     41     47    347    351 276.9   7.8  34292  291.83 0854.44
2009/04/23 13:56:19.9    -315     91     23    328    329 286.2   4.0  34302  291.98 0854.44
2009/04/23 13:56:20.0    -394     27    -67    395    401 274.0  -9.7  34302  291.97 0854.44
2009/04/23 13:56:20.1    -299    -74    111    309    328 256.1  20.6  34286  291.72 0854.44
2009/04/23 13:56:20.2     -62     29    109     69    129 295.4  64.7  34286  291.71 0854.44
2009/04/23 13:56:20.3    -116    133    107    177    206 319.0  34.2  34286  291.72 0854.44
2009/04/23 13:56:20.4    -158   -309    209    347    405 207.1  34.0  34264  291.34 0854.44
2009/04/23 13:56:20.5    -175   -349    126    391    411 206.6  17.9  34266  291.36 0854.44
2009/04/23 13:56:20.6    -121   -205    219    239    324 210.7  47.1  34264  291.33 0854.44
2009/04/23 13:56:20.7     -83   -315    233    326    400 194.8  39.0  34270  291.45 0854.44
2009/04/23 13:56:20.8     -65     17    107     68    126 285.1  64.7  34288  291.76 0854.44
2009/04/23 13:56:20.9    -162   -222    176    275    326 216.1  35.6  34272  291.48 0854.44
2009/04/23 13:56:21.0    -134   -131    157    188    244 225.8  43.8  34276  291.54 0854.44
2009/04/23 13:56:21.1    -248   -147    156    289    328 239.3  30.7  34286  291.72 0854.44
2009/04/23 13:56:21.2    -327   -149     87    360    371 245.4  13.7  34290  291.79 0854.44
2009/04/23 13:56:21.3    -326   -393   -120    512    526 219.7 -13.3  34288  291.76 0854.44
2009/04/23 13:56:21.4    -330   -310   -159    453    480 226.8 -24.6  34278  291.56 0854.44
2009/04/23 13:56:21.5    -190   -186     -7    267    268 225.6  -1.6  34292  291.80 0854.44
2009/04/23 13:56:21.6    -225   -293   -115    370    387 217.6 -22.4  34278  291.56 0854.44
2009/04/23 13:56:21.7    -252   -120   -127    280    307 244.6 -30.6  34284  291.68 0854.44
2009/04/23 13:56:21.8    -129   -178    -61    220    229 216.0 -15.5  34280  291.60 0854.48
2009/04/23 13:56:21.9    -137    -64     92    152    177 244.8  34.2  34292  291.81 0854.48
2009/04/23 13:56:22.0     -27   -371    -67    372    379 184.3 -10.2  34278  291.57 0854.48
2009/04/23 13:56:22.1    -388   -115    -82    405    414 253.4 -11.5  34276  291.53 0854.48
2009/04/23 13:56:22.2    -212    -76   -163    226    278 250.1 -43.9  34274  291.50 0854.48
2009/04/23 13:56:22.3    -149    -21   -103    151    182 261.6 -42.0  34274  291.50 0854.48
2009/04/23 13:56:22.4    -119    -94    -98    152    180 231.8 -40.1  34270  291.45 0854.48
2009/04/23 13:56:22.5     -49   -123     75    133    152 201.8  31.9  34258  291.23 0854.48
2009/04/23 13:56:22.6     -47   -134    -87    143    167 199.6 -38.8  34256  291.20 0854.48
2009/04/23 13:56:22.7    -220    -44    -99    225    245 258.5 -29.7  34264  291.33 0854.48
2009/04/23 13:56:22.8    -194    -76   -190    209    282 248.5 -51.4  34268  291.39 0854.48
2009/04/23 13:56:22.9     -27      2   -116     28    119 274.3 -90.0  34274  291.50 0854.48
2009/04/23 13:56:23.0      52    -50    -50     73     88 134.0 -42.0  34274  291.50 0854.48
2009/04/23 13:56:23.1    -127    198    -25    236    238 327.4  -6.2  34268  291.39 0854.48
2009/04/23 13:56:23.2    -198    338    153    392    420 329.6  22.5  34270  291.45 0854.48
2009/04/23 13:56:23.3    -102    225    197    248    316 335.5  42.4  34270  291.43 0854.48
2009/04/23 13:56:23.4    -112    129    113    172    205 319.0  36.3  34272  291.47 0854.48
2009/04/23 13:56:23.5      23    243     63    245    254   5.6  14.5  34272  291.46 0854.48
2009/04/23 13:56:23.7      48    120    110    130    170  21.9  44.5  34266  291.38 0854.48
2009/04/23 13:56:23.7      13    145    130    146    195   5.3  46.2  34264  291.35 0854.48
2009/04/23 13:56:23.9      22    148    100    150    180   8.5  37.0  34268  291.40 0854.50
2009/04/23 13:56:23.9      18    301    152    302    338   3.5  28.7  34260  291.26 0854.50
2009/04/23 13:56:24.0     102    160    182    191    263  32.6  48.7  34264  291.34 0854.50
2009/04/23 13:56:24.1     119    195    129    229    262  31.4  31.9  34260  291.26 0854.50
2009/04/23 13:56:24.3     132    279    237    309    389  25.3  41.3  34258  291.23 0854.50
2009/04/23 13:56:24.4    -101    251    168    271    318 338.1  34.8  34266  291.36 0854.50
2009/04/23 13:56:24.5     113    190    119    222    251  30.8  30.3  34272  291.48 0854.50
2009/04/23 13:56:24.6      34    175     94    179    202  11.1  29.8  34270  291.45 0854.50
2009/04/23 13:56:24.6     302    173    178    349    391  60.2  29.2  34248  291.08 0854.50
2009/04/23 13:56:24.8     241    298    135    384    407  39.0  20.0  34252  291.15 0854.50
2009/04/23 13:56:24.9     150    140    204    206    289  46.9  50.0  34258  291.24 0854.50
2009/04/23 13:56:25.0     158     32    252    162    299  78.6  64.6  34260  291.26 0854.50
2009/04/23 13:56:25.1     258   -153    290    300    417 120.7  49.0  34258  291.22 0854.50
2009/04/23 13:56:25.2      13     88    220     89    237   8.5  77.0  34276  291.55 0854.50
2009/04/23 13:56:25.3      63     63    338     90    349  45.0  84.9  34272  291.48 0854.50
2009/04/23 13:56:25.4      33     27    345     43    347  50.5  90.0  34288  291.75 0854.50
2009/04/23 13:56:25.5      93   -102    346    139    372 137.7  77.1  34270  291.44 0854.50
2009/04/23 13:56:25.6     156   -147    323    215    388 133.3  63.5  34254  291.17 0854.50
2009/04/23 13:56:25.7     209    193    372    285    468  47.3  59.0  34252  291.12 0854.50
2009/04/23 13:56:25.8     357    183    437    402    593  62.9  52.8  34234  290.82 0854.50
2009/04/23 13:56:25.9     320    151    442    355    566  64.7  57.3  34248  291.05 0854.51
2009/04/23 13:56:26.0     388     97    466    401    614  75.9  55.0  34254  291.18 0854.51
2009/04/23 13:56:26.1     322    153    453    357    576  64.5  57.8  34258  291.22 0854.51
2009/04/23 13:56:26.2     378    230    365    443    573  58.7  43.7  34262  291.31 0854.51
2009/04/23 13:56:26.3     294    187    265    349    438  57.5  41.1  34264  291.33 0854.51
2009/04/23 13:56:26.4     248     91    296    265    397  69.8  53.6  34270  291.45 0854.51
2009/04/23 13:56:26.5     267     76    263    278    382  74.1  48.0  34268  291.42 0854.51
2009/04/23 13:56:26.6     186     54     90    194    213  73.6  27.0  34260  291.26 0854.51
2009/04/23 13:56:26.7     122     62      4    137    138  63.0   1.8  34260  291.26 0854.51
2009/04/23 13:56:26.8     147    106    -64    182    194  54.0 -19.4  34256  291.20 0854.51
2009/04/23 13:56:26.9     236     86     44    252    256  69.8  10.0  34262  291.31 0854.51
2009/04/23 13:56:27.0     123    154     10    198    199  38.5   2.9  34260  291.28 0854.51
2009/04/23 13:56:27.1      67    197     42    209    214  18.9  11.4  34254  291.18 0854.51
2009/04/23 13:56:27.2      73    135    158    154    220  28.5  50.7  34260  291.28 0854.51
2009/04/23 13:56:27.3     293    112    118    314    335  68.9  21.6  34264  291.34 0854.51
2009/04/23 13:56:27.4     231     23     84    233    248  84.1  19.9  34246  291.02 0854.51
2009/04/23 13:56:27.5     288     94     98    304    320  71.8  17.9  34270  291.43 0854.51
2009/04/23 13:56:27.6     189     36    250    193    315  79.2  58.6  34286  291.70 0854.51
2009/04/23 13:56:27.7     125     79    245    149    286  57.6  65.7  34284  291.67 0854.51
2009/04/23 13:56:27.8     123    102    263    161    308  50.4  65.6  34282  291.63 0854.51
2009/04/23 13:56:27.9      64    193    121    204    237  18.3  33.5  34272  291.49 0854.53
2009/04/23 13:56:28.0     150    208     67    257    266  36.0  14.7  34270  291.43 0854.53
2009/04/23 13:56:28.1     186    102     75    213    226  61.1  19.4  34266  291.37 0854.53
2009/04/23 13:56:28.2      99     26    127    103    163  74.9  56.9  34278  291.57 0854.53
2009/04/23 13:56:28.3     198     19    171    199    262  84.3  45.1  34274  291.50 0854.53
2009/04/23 13:56:28.4     205     -6    245    206    320  91.9  55.7  34272  291.48 0854.53
2009/04/23 13:56:28.5     273   -106    116    293    315 111.3  22.7  34266  291.36 0854.53
2009/04/23 13:56:28.6     329    -35    103    331    347  96.1  17.3  34268  291.40 0854.53
2009/04/23 13:56:28.7     254      1    174    255    308  89.6  37.6  34270  291.43 0854.53
2009/04/23 13:56:28.8     274     32    280    276    393  83.2  50.4  34262  291.32 0854.53
2009/04/23 13:56:28.9     237      3    289    238    374  89.1  56.4  34260  291.28 0854.53
2009/04/23 13:56:29.0     231    -59    286    239    372 104.4  56.2  34260  291.28 0854.53
2009/04/23 13:56:29.1      89    -26    181     93    203 106.4  70.8  34264  291.33 0854.53
2009/04/23 13:56:29.2     335     29    198    337    390  84.9  33.1  34254  291.17 0854.53
2009/04/23 13:56:29.3     277     50    124    282    308  79.6  25.2  34248  291.07 0854.53
2009/04/23 13:56:29.4      79     40    175     89    196  62.9  71.0  34264  291.33 0854.53
2009/04/23 13:56:29.5     145    120    204    189    278  50.5  52.2  34254  291.17 0854.53
2009/04/23 13:56:29.6     265    260    127    372    394  45.6  18.9  34238  290.91 0854.53
2009/04/23 13:56:29.7     277    277   -119    392    410  45.0 -16.9  34242  290.97 0854.53
2009/04/23 13:56:29.8     279    188   -131    337    361  56.1 -26.9  34248  291.05 0854.53
2009/04/23 13:56:29.9     234     86    122    250    278  69.8  28.0  34256  291.21 0854.54
2009/04/23 13:56:30.0     404    264     23    484    485  56.8   2.8  34256  291.20 0854.54
2009/04/23 13:56:30.1     479     36    179    481    513  85.7  21.5  34254  291.17 0854.54
2009/04/23 13:56:30.2     490    254     77    552    558  62.6   8.0  34290  291.79 0854.54
2009/04/23 13:56:30.3     561    244     63    612    616  66.5   5.9  34292  291.81 0854.54
2009/04/23 13:56:30.4     373    228     45    438    441  58.5   6.0  34306  292.06 0854.54
2009/04/23 13:56:30.5     446    211    103    494    505  64.7  11.8  34288  291.75 0854.54
2009/04/23 13:56:30.6     467    161    112    495    508  70.9  12.8  34238  290.91 0854.54
2009/04/23 13:56:30.7     508    291    168    586    610  60.2  16.0  34272  291.46 0854.54
2009/04/23 13:56:30.8     399    106    303    413    512  75.1  39.9  34270  291.44 0854.54
2009/04/23 13:56:30.9     320     13    306    321    443  87.6  48.6  34278  291.57 0854.54
2009/04/23 13:56:31.0     268    -45    306    272    409  99.6  53.7  34272  291.47 0854.54
2009/04/23 13:56:31.1     416    102    288    429    516  76.2  37.1  34248  291.05 0854.54
2009/04/23 13:56:31.2     524    134    359    542    650  75.6  36.6  34244  291.01 0854.54
2009/04/23 13:56:31.3     602    199    315    635    708  71.7  28.4  34200  290.24 0854.54
2009/04/23 13:56:31.4     616     26    274    617    675  87.5  25.6  34218  290.56 0854.54
2009/04/23 13:56:31.5     575    140    255    592    644  76.3  24.8  34224  290.65 0854.54
2009/04/23 13:56:31.6     563     23    229    564    608  87.6  23.1  34236  290.85 0854.54
2009/04/23 13:56:31.7     561    114    171    573    598  78.5  16.6  34210  290.41 0854.54
2009/04/23 13:56:31.8     481    138    360    501    616  74.0  39.5  34218  290.56 0854.54
2009/04/23 13:56:31.9     567    111    289    578    646  78.9  28.6  34222  290.64 0854.54
2009/04/23 13:56:32.0     458    160    132    486    504  70.7  15.3  34202  290.30 0854.54
2009/04/23 13:56:32.1     461    171    273    492    562  69.6  31.4  34220  290.58 0854.54
2009/04/23 13:56:32.2     449    149    246    474    534  71.6  29.6  34210  290.42 0854.54
2009/04/23 13:56:32.3     412     88    308    422    522  77.8  39.7  34214  290.49 0854.54
2009/04/23 13:56:32.4     453     41    155    455    481  84.8  18.8  34206  290.34 0854.54
2009/04/23 13:56:32.5     316    -43    181    319    366  97.9  32.1  34214  290.50 0854.54
2009/04/23 13:56:32.6     119   -166    237    205    313 144.2  54.8  34222  290.61 0854.54
2009/04/23 13:56:32.7     172   -180    229    250    339 136.3  47.5  34218  290.56 0854.54
2009/04/23 13:56:32.8     159   -224    203    275    341 144.6  40.0  34218  290.56 0854.54
2009/04/23 13:56:32.9     150   -221    173    268    318 145.9  35.9  34222  290.63 0854.54
2009/04/23 13:56:33.0     158   -164    180    229    291 136.1  42.2  34228  290.73 0854.54
2009/04/23 13:56:33.1     191   -217    159    290    330 138.6  31.3  34234  290.83 0854.54
2009/04/23 13:56:33.2     162   -220    158    274    316 143.7  32.7  34236  290.85 0854.54
2009/04/23 13:56:33.3      28   -110    102    114    152 165.3  46.9  34244  291.01 0854.54
2009/04/23 13:56:33.4      19    -78    113     81    139 165.7  60.6  34248  291.06 0854.54
2009/04/23 13:56:33.5     -15    -63    118     65    134 193.4  68.8  34250  291.09 0854.54
2009/04/23 13:56:33.6      34    -80    110     88    140 156.8  56.9  34262  291.30 0854.54
2009/04/23 13:56:33.7      30    -18    101     36    107 120.7  80.7  34242  290.98 0854.54
2009/04/23 13:56:33.8      63     17    127     66    143  74.9  70.8  34264  291.35 0854.54
2009/04/23 13:56:33.9      32      0    102     33    107  90.0  80.7  34266  291.38 0854.51
2009/04/23 13:56:34.0     112     -4    111    113    158  92.1  49.8  34266  291.37 0854.51
2009/04/23 13:56:34.1      87     72    105    114    154  50.5  47.9  34264  291.35 0854.51
2009/04/23 13:56:34.2     -20     93     81     96    125 347.5  44.3  34260  291.26 0854.51
2009/04/23 13:56:34.3     169     32    144    173    225  79.2  43.8  34262  291.32 0854.51
2009/04/23 13:56:34.4     115      2    203    116    233  88.7  67.7  34270  291.43 0854.51
2009/04/23 13:56:34.5      81     27    216     86    232  71.4  77.1  34276  291.55 0854.51
2009/04/23 13:56:34.6     182     22    238    184    300  83.0  58.5  34268  291.39 0854.51
2009/04/23 13:56:34.7     123     32    182    128    222  75.4  61.5  34266  291.38 0854.51
2009/04/23 13:56:34.8     162     18    151    164    222  83.4  47.9  34268  291.42 0854.51
2009/04/23 13:56:34.9      88     28    160     93    185  72.3  67.2  34264  291.35 0854.51
2009/04/23 13:56:35.0     204    -16    181    205    273  94.6  45.9  34266  291.38 0854.51
2009/04/23 13:56:35.1     101     63    146    120    188  58.0  56.4  34276  291.54 0854.51
2009/04/23 13:56:35.2     105     97    148    144    206  47.3  50.7  34264  291.35 0854.51
2009/04/23 13:56:35.3     119     31    142    123    187  75.4  54.8  34266  291.37 0854.51
2009/04/23 13:56:35.4     118     14     84    119    145  83.0  38.6  34252  291.13 0854.51
2009/04/23 13:56:35.5     125     61     65    140    154  63.8  27.1  34256  291.20 0854.51
2009/04/23 13:56:35.6      67     52     72     85    111  52.2  44.3  34254  291.16 0854.51
2009/04/23 13:56:35.7      71     60     91     94    130  49.6  49.4  34264  291.33 0854.51
2009/04/23 13:56:35.8      53     84    -24    100    104  32.1 -13.9  34252  291.15 0854.51
2009/04/23 13:56:35.9      -8     41    -70     42     81 348.4 -70.6  34254  291.16 0854.49
2009/04/23 13:56:36.0     -45     45    -37     64     73 315.0 -36.8  34256  291.21 0854.49
2009/04/23 13:56:36.1     -84     28     14     89     91 288.6   9.5  34260  291.26 0854.49
2009/04/23 13:56:36.2     -98   -110     75    148    165 221.5  29.1  34284  291.69 0854.49
2009/04/23 13:56:36.3    -112   -189     51    220    226 210.7  13.2  34284  291.69 0854.49
2009/04/23 13:56:36.4     -45   -238     98    243    262 190.9  23.0  34296  291.89 0854.49
2009/04/23 13:56:36.5     -50   -193     98    200    222 194.7  28.0  34296  291.88 0854.49
2009/04/23 13:56:36.6     -66   -190    102    202    226 199.2  28.7  34298  291.93 0854.49
2009/04/23 13:56:36.7     -56   -129    108    141    177 203.7  41.4  34310  292.12 0854.49
2009/04/23 13:56:36.8     -76   -121    109    144    180 212.1  40.9  34298  291.91 0854.49
2009/04/23 13:56:36.9     -22   -153     77    155    173 188.5  28.5  34252  291.15 0854.52
2009/04/23 13:56:37.0     -18    -88     97     90    132 191.6  52.2  34262  291.32 0854.52
2009/04/23 13:56:37.1     -18    -38     87     43     97 205.4  72.4  34270  291.45 0854.52
2009/04/23 13:56:37.2     -10    -81     94     82    124 187.1  54.3  34256  291.20 0854.52
2009/04/23 13:56:37.3     -70   -111     67    132    148 212.1  28.7  34238  290.91 0854.52
2009/04/23 13:56:37.4     -65   -118     61    136    149 209.0  25.7  34238  290.91 0854.52
2009/04/23 13:56:37.5     -60    -87     43    107    115 214.7  23.0  34236  290.87 0854.52
2009/04/23 13:56:37.6     -54    -72     47     91    102 217.0  29.3  34240  290.94 0854.52
2009/04/23 13:56:37.7     -68    -51     12     86     87 233.1   8.0  34242  290.98 0854.52
2009/04/23 13:56:37.8     -56    -57     10     81     82 224.5   7.5  34240  290.92 0854.52
2009/04/23 13:56:37.9     -43    -68    -11     81     82 212.5  -8.2  34238  290.89 0854.52
2009/04/23 13:56:38.0     -30    -50    -22     59     62 210.7 -25.4  34232  290.81 0854.52
2009/04/23 13:56:38.1     -40    -33    -25     53     58 230.5 -31.5  34238  290.91 0854.52
2009/04/23 13:56:38.2     -55    -37    -11     67     68 235.8  -9.3  34240  290.92 0854.52
2009/04/23 13:56:38.3     -39    -39    -17     56     59 225.0 -17.6  34244  290.99 0854.52
2009/04/23 13:56:38.4     -18    -30    -31     36     47 210.7 -50.2  34246  291.03 0854.52
2009/04/23 13:56:38.5       4    -14    -49     15     51 161.5 -86.2  34248  291.08 0854.52
2009/04/23 13:56:38.6      -5      4    -40      7     40 309.5 -90.0  34258  291.25 0854.52
2009/04/23 13:56:38.7      33     26    -20     43     47  52.2 -30.6  34256  291.21 0854.52
2009/04/23 13:56:38.8      40     13     -1     43     44  71.4  -2.2  34252  291.15 0854.52
2009/04/23 13:56:38.9       0      0     -7      0      7   0.0 -90.0  34252  291.15 0854.51
2009/04/23 13:56:39.0     -24      4    -51     25     56 279.7 -77.2  34270  291.43 0854.51
2009/04/23 13:56:39.1     -10     31    -69     33     76 341.7 -77.3  34288  291.74 0854.51
2009/04/23 13:56:39.2     -17     -9    -84     20     86 241.1 -90.0  34302  292.00 0854.51
2009/04/23 13:56:39.3     -55     12    -82     57     99 282.4 -65.9  34292  291.81 0854.51
2009/04/23 13:56:39.4     -68     25    -52     73     89 290.8 -43.5  34284  291.69 0854.51
2009/04/23 13:56:39.5     -13     17   -102     22    104 322.2 -90.0  34292  291.81 0854.51
2009/04/23 13:56:39.6      19    -72   -104     75    128 164.9 -65.0  34288  291.74 0854.51
2009/04/23 13:56:39.7      96      0   -181     97    205  90.4 -74.2  34282  291.66 0854.51
2009/04/23 13:56:39.8      40    -33   -121     52    131 129.5 -79.4  34278  291.59 0854.51
2009/04/23 13:56:39.9     -19    -58    -17     62     65 198.3 -15.5  34252  291.15 0854.51
2009/04/23 13:56:40.0     -37   -264   -111    267    289 188.0 -28.5  34238  290.90 0854.51
2009/04/23 13:56:40.1     -86   -284   -100    298    315 197.0 -18.7  34234  290.83 0854.51
2009/04/23 13:56:40.2     -62   -325    -58    332    338 190.9  -9.9  34234  290.84 0854.51
2009/04/23 13:56:40.3      25   -297    -27    299    301 175.1  -5.2  34240  290.92 0854.51
2009/04/23 13:56:40.4      39   -337    -37    340    343 173.3  -6.2  34236  290.86 0854.51
2009/04/23 13:56:40.5      40   -282     24    285    287 171.9   4.9  34234  290.82 0854.51
2009/04/23 13:56:40.6    -112   -317     51    337    341 199.5   8.7  34238  290.91 0854.51
2009/04/23 13:56:40.7     -77   -276     19    287    288 195.6   3.9  34238  290.90 0854.51
2009/04/23 13:56:40.8     -27   -364     68    365    372 184.4  10.6  34248  291.06 0854.51
2009/04/23 13:56:40.9     -37   -355     56    357    362 186.0   9.0  34248  291.06 0854.51
2009/04/23 13:56:41.0    -148   -342    -71    373    380 203.5 -10.9  34240  290.94 0854.51
2009/04/23 13:56:41.1    -102   -326    -94    342    355 197.4 -15.4  34238  290.91 0854.51
2009/04/23 13:56:41.2    -119   -303    -68    326    334 201.6 -11.9  34232  290.81 0854.51
2009/04/23 13:56:41.3     -47   -245    103    250    270 190.9  23.6  34240  290.93 0854.51
2009/04/23 13:56:41.4     -16   -214    131    215    251 184.5  34.4  34246  291.02 0854.51
2009/04/23 13:56:41.5     -71   -269    137    279    310 194.9  28.0  34250  291.09 0854.51
2009/04/23 13:56:41.6     -87   -275    105    289    307 197.6  20.9  34244  291.00 0854.51
2009/04/23 13:56:41.7     -71   -215     27    227    229 198.3   6.9  34244  291.01 0854.51
2009/04/23 13:56:41.8      60   -205     74    214    227 163.5  19.2  34248  291.06 0854.51
2009/04/23 13:56:41.9      37   -152     77    157    174 166.2  28.0  34242  290.96 0854.51
2009/04/23 13:56:42.0     -73   -269    -77    279    290 195.2 -15.4  34250  291.09 0854.51
2009/04/23 13:56:42.1    -114   -206      7    236    237 208.9   1.8  34250  291.10 0854.51
2009/04/23 13:56:42.2     -55   -116      4    129    130 205.3   1.8  34250  291.09 0854.51
2009/04/23 13:56:42.3      28   -133     69    137    153 168.0  28.7  34250  291.11 0854.51
2009/04/23 13:56:42.4      98   -187    108    212    237 152.4  29.2  34248  291.06 0854.51
2009/04/23 13:56:42.5     110   -167    137    201    243 146.6  37.6  34244  291.01 0854.51
2009/04/23 13:56:42.6      53    -88    143    104    176 148.8  60.5  34260  291.28 0854.51
2009/04/23 13:56:42.7     -10   -139    138    140    196 184.5  49.9  34254  291.16 0854.51
2009/04/23 13:56:42.8     -36   -160    175    165    240 192.9  52.0  34246  291.04 0854.51
2009/04/23 13:56:42.9     -27   -132    122    135    181 191.6  47.1  34250  291.09 0854.51
2009/04/23 13:56:43.0     -27   -157    148    160    217 189.8  47.9  34248  291.08 0854.51
2009/04/23 13:56:43.1     -18    -88    131     90    158 191.6  62.4  34248  291.08 0854.51
2009/04/23 13:56:43.2     -25    -91    128     95    159 195.6  59.8  34250  291.11 0854.51
2009/04/23 13:56:43.3     -13    -21    109     26    112 212.5  86.9  34276  291.54 0854.51
2009/04/23 13:56:43.4     -21    -58    149     62    161 200.0  76.3  34258  291.25 0854.51
2009/04/23 13:56:43.5     -45   -142    100    150    180 197.8  37.0  34246  291.04 0854.51
2009/04/23 13:56:43.6     -35    -81    124     89    152 203.6  60.6  34250  291.09 0854.51
2009/04/23 13:56:43.7      -6    -26    112     27    115 193.4  86.9  34264  291.35 0854.51
2009/04/23 13:56:43.8       1    -66    110     67    128 179.1  65.7  34266  291.37 0854.51
2009/04/23 13:56:43.9      -5    -67    107     68    126 184.4  64.7  34258  291.23 0854.51
2009/04/23 13:56:44.0      18    -69    127     72    145 164.9  68.3  34260  291.28 0854.51
2009/04/23 13:56:44.1      13    -59     98     61    115 167.5  64.7  34256  291.21 0854.51
2009/04/23 13:56:44.2      45    -24     98     52    110 118.0  69.8  34266  291.37 0854.51
2009/04/23 13:56:44.3       5    -80     84     81    116 176.4  50.7  34258  291.23 0854.51
2009/04/23 13:56:44.4       4    -51     68     52     85 174.7  59.0  34258  291.25 0854.51
2009/04/23 13:56:44.5     -38    -24     58     45     73 237.6  57.5  34264  291.35 0854.51
2009/04/23 13:56:44.6     -61    -12     35     63     72 258.5  31.4  34258  291.23 0854.51
2009/04/23 13:56:44.7     -65      8     -3     66     67 277.0  -3.1  34246  291.04 0854.51
2009/04/23 13:56:44.8     -70      5    -20     71     73 274.4 -20.7  34248  291.06 0854.51
2009/04/23 13:56:44.9     -79     11      5     80     81 278.0   3.8  34244  291.01 0854.51
2009/04/23 13:56:45.0     -67     45     32     81     87 304.2  22.0  34250  291.11 0854.51
2009/04/23 13:56:45.1     -45     40     63     61     87 311.3  50.1  34260  291.26 0854.51
2009/04/23 13:56:45.2      18     88     45     91    101  12.0  28.2  34262  291.30 0854.51
2009/04/23 13:56:45.3      41     60     44     73     85  34.3  34.4  34262  291.30 0854.51
2009/04/23 13:56:45.4      56     35     28     67     72  57.5  23.1  34266  291.38 0854.51
2009/04/23 13:56:45.5      67     52     35     85     91  52.2  23.6  34308  292.08 0854.51
2009/04/23 13:56:45.6      22     65     23     69     74  18.7  18.9  34314  292.20 0854.51
2009/04/23 13:56:45.7      -1     69     24     70     75 359.0  19.2  34310  292.13 0854.51
2009/04/23 13:56:45.8       1     67     45     68     81   0.9  36.5  34314  292.20 0854.51
2009/04/23 13:56:45.9      -4     77     57     78     96 356.4  39.7  34306  292.06 0854.51
2009/04/23 13:56:46.0     119     58      5    133    134  63.8   2.3  34308  292.08 0854.51
2009/04/23 13:56:46.1     -15     88    -21     90     93 350.2 -13.4  34310  292.13 0854.51
2009/04/23 13:56:46.2      -2    117     66    118    135 359.0  31.9  34330  292.46 0854.51
2009/04/23 13:56:46.3     -12    160     72    161    176 355.6  25.7  34328  292.44 0854.51
2009/04/23 13:56:46.4     -26    214     91    216    234 352.9  24.2  34356  292.92 0854.51
2009/04/23 13:56:46.5      36    257    130    260    290   8.1  28.5  34352  292.84 0854.51
2009/04/23 13:56:46.6      44    335    154    338    371   7.6  26.2  34360  292.97 0854.51
2009/04/23 13:56:46.7     -18    356    138    357    382 357.1  22.3  34352  292.83 0854.51
2009/04/23 13:56:46.8    -116    187     78    221    235 328.1  19.4  34344  292.71 0854.51
2009/04/23 13:56:46.9     -94    190     -9    213    214 333.7  -2.6  34346  292.73 0854.52
2009/04/23 13:56:47.0    -123    127     62    177    188 315.9  19.4  34354  292.86 0854.52
2009/04/23 13:56:47.1     -20    138     92    140    167 351.5  36.3  34368  293.10 0854.52
2009/04/23 13:56:47.2       9    126    103    127    163   4.4  43.3  34362  293.00 0854.52
2009/04/23 13:56:47.3     283    215    100    356    371  52.7  15.8  34250  291.10 0854.52
2009/04/23 13:56:47.4     201    140     63    246    255  55.1  14.5  34278  291.56 0854.52
2009/04/23 13:56:47.5     393    290    114    489    503  53.6  13.1  34312  292.17 0854.52
2009/04/23 13:56:47.6     389    359    230    530    577  47.3  25.1  34352  292.83 0854.52
2009/04/23 13:56:47.7     333    335    235    473    528  44.8  28.5  34354  292.87 0854.52
2009/04/23 13:56:47.8     330    328    234    466    521  45.2  28.7  34384  293.38 0854.52
2009/04/23 13:56:47.9     182    295    289    347    451  31.7  43.8  34376  293.24 0854.52
2009/04/23 13:56:48.0     343    273    202    439    483  51.4  26.5  34362  292.99 0854.52
2009/04/23 13:56:48.1     297    234    148    379    406  51.8  22.4  34332  292.49 0854.52
2009/04/23 13:56:48.2     367    207    152    422    448  60.6  20.8  34348  292.78 0854.52
2009/04/23 13:56:48.3     348    337    159    485    511  46.0  18.2  34322  292.33 0854.52
2009/04/23 13:56:48.4     234    293    195    375    422  38.6  29.5  34328  292.43 0854.52
2009/04/23 13:56:48.5     259    303    240    399    465  40.6  33.8  34330  292.47 0854.52
2009/04/23 13:56:48.6     180    316    126    364    386  29.7  19.1  34312  292.17 0854.52
2009/04/23 13:56:48.7      -9    253    139    254    289 357.8  31.3  34312  292.16 0854.52
2009/04/23 13:56:48.8      75    234      7    246    247  17.8   1.8  34320  292.30 0854.52
2009/04/23 13:56:48.9     373    208      0    428    429  60.9   0.0  34358  292.93 0854.49
2009/04/23 13:56:49.0     323    285     21    432    433  48.6   2.8  34344  292.69 0854.49
2009/04/23 13:56:49.1     433    493     94    657    664  41.3   8.2  34276  291.55 0854.49
2009/04/23 13:56:49.2     427    358    134    558    574  50.0  13.5  34256  291.19 0854.49
2009/04/23 13:56:49.3     611    332    219    696    730  61.5  17.5  34292  291.81 0854.49
2009/04/23 13:56:49.4     520    397     76    655    660  52.6   6.7  34238  290.89 0854.49
2009/04/23 13:56:49.5     563    296    150    637    655  62.3  13.3  34254  291.16 0854.49
2009/04/23 13:56:49.6     458    291    126    543    558  57.6  13.1  34234  290.84 0854.49
2009/04/23 13:56:49.7     490    300    101    575    584  58.5  10.0  34290  291.77 0854.49
2009/04/23 13:56:49.8     701    369    194    793    817  62.2  13.8  34312  292.17 0854.49
2009/04/23 13:56:49.9     769    258    243    812    848  71.4  16.7  34292  291.83 0854.49
2009/04/23 13:56:50.0     818    239    200    853    877  73.7  13.2  34248  291.08 0854.49
2009/04/23 13:56:50.1     703    363    207    792    819  62.7  14.7  34286  291.72 0854.49
2009/04/23 13:56:50.2     724    329    154    796    811  65.6  11.0  34302  291.98 0854.49
2009/04/23 13:56:50.3     922    321    348    977   1037  70.8  20.4  34284  291.69 0854.49
2009/04/23 13:56:50.5     893    180    292    911    957  78.6  17.8  34276  291.53 0854.49
2009/04/23 13:56:50.6     943    326    174    998   1014  70.9   9.9  34254  291.17 0854.49
2009/04/23 13:56:50.7     832    504    149    973    985  58.8   8.7  34240  290.94 0854.49
2009/04/23 13:56:50.8     666    323    214    741    772  64.1  16.1  34270  291.45 0854.49
2009/04/23 13:56:50.9     521     50    -32    524    525  84.4  -3.5  34316  292.22 0854.49
2009/04/23 13:56:51.0     599   -138     50    615    618 103.0   4.7  34308  292.07 0854.50
2009/04/23 13:56:51.1     667     63     60    671    674  84.5   5.2  34306  292.04 0854.50
2009/04/23 13:56:51.2     603    178    158    629    649  73.5  14.2  34254  291.16 0854.50
2009/04/23 13:56:51.3     505    294     14    585    586  59.8   1.4  34232  290.78 0854.50
2009/04/23 13:56:51.4     341    132   -114    366    384  68.8 -17.3  34278  291.57 0854.50
2009/04/23 13:56:51.5     498   -112     44    511    514 102.7   5.0  34298  291.92 0854.50
2009/04/23 13:56:51.6     631    241     84    676    682  69.1   7.1  34230  290.77 0854.50
2009/04/23 13:56:51.7     561    349    133    661    675  58.1  11.4  34248  291.06 0854.50
2009/04/23 13:56:51.8     577    320     92    660    667  61.0   8.0  34244  290.99 0854.50
2009/04/23 13:56:51.9     438    194     93    480    489  66.1  11.0  34280  291.61 0854.50
2009/04/23 13:56:52.0     414    173     39    449    451  67.3   5.0  34268  291.41 0854.50
2009/04/23 13:56:52.1     408     31     68    410    416  85.6   9.4  34288  291.75 0854.50
2009/04/23 13:56:52.2     344     69    -28    351    353  78.6  -4.6  34304  292.02 0854.50
2009/04/23 13:56:52.3     345    -92    163    358    393 105.0  26.2  34330  292.46 0854.50
2009/04/23 13:56:52.4     347    -96    125    361    383 105.6  19.1  34332  292.48 0854.50
2009/04/23 13:56:52.5     364    -23    128    365    386  93.7  20.0  34302  291.97 0854.50
2009/04/23 13:56:52.6     202   -122     57    237    244 121.1  13.5  34298  291.92 0854.50
2009/04/23 13:56:52.7      96   -143     72    173    187 145.9  23.8  34314  292.18 0854.50
2009/04/23 13:56:52.8     137   -189     32    234    237 143.9   8.0  34340  292.64 0854.50
2009/04/23 13:56:52.9     136      0    107    137    173  90.0  42.2  34332  292.49 0854.50
2009/04/23 13:56:53.0     295      0    203    296    358  90.0  37.6  34342  292.68 0854.50
2009/04/23 13:56:53.1     243     -7     66    244    253  91.7  15.3  34336  292.55 0854.50
2009/04/23 13:56:53.2     277     83     18    290    291  73.2   3.6  34326  292.38 0854.50
2009/04/23 13:56:53.3     378    131     32    401    403  70.9   4.7  34268  291.40 0854.50
2009/04/23 13:56:53.4     512    120     66    527    532  76.7   7.2  34256  291.20 0854.50
2009/04/23 13:56:53.5     492    251    -74    553    558  62.9  -7.7  34288  291.74 0854.50
2009/04/23 13:56:53.6     252    318     30    406    408  38.4   4.2  34296  291.89 0854.50
2009/04/23 13:56:53.7     337    166     18    376    377  63.7   2.8  34278  291.56 0854.50
2009/04/23 13:56:53.8     417    140     31    441    443  71.4   4.0  34304  292.01 0854.50
2009/04/23 13:56:53.9     143    257    136    295    324  29.0  26.5  34286  291.72 0854.50
2009/04/23 13:56:54.0     204    305    187    368    412  33.8  29.1  34298  291.90 0854.50
2009/04/23 13:56:54.1     320    313     58    448    452  45.6   7.5  34310  292.13 0854.50
2009/04/23 13:56:54.2     283    258    -28    384    386  47.7  -4.2  34294  291.86 0854.50
2009/04/23 13:56:54.3     162    324     36    363    365  26.6   5.7  34282  291.66 0854.50
2009/04/23 13:56:54.4     215    313    -99    381    394  34.5 -14.7  34274  291.52 0854.50
2009/04/23 13:56:54.5     189    206    -85    280    293  42.5 -17.0  34274  291.50 0854.50
2009/04/23 13:56:54.6     258    178    143    314    345  55.4  26.3  34322  292.34 0854.50
2009/04/23 13:56:54.7     188    165      0    251    252  48.7   0.0  34294  291.85 0854.50
2009/04/23 13:56:54.8     414    163   -110    446    460  68.4 -13.9  34274  291.50 0854.50
2009/04/23 13:56:54.9     288    164    -98    332    347  60.2 -16.5  34270  291.44 0854.50
2009/04/23 13:56:55.0     211    150   -110    260    282  54.5 -28.6  34268  291.39 0854.45
2009/04/23 13:56:55.1     206     19    -17    207    208  84.5  -4.9  34278  291.57 0854.45
2009/04/23 13:56:55.2     231    132    120    267    292  60.3  25.7  34298  291.90 0854.45
2009/04/23 13:56:55.3     264     91     93    280    296  71.0  18.4  34308  292.09 0854.45
2009/04/23 13:56:55.4     175     65     47    187    193  69.6  14.3  34292  291.83 0854.45
2009/04/23 13:56:55.5     219    110     82    246    260  63.4  18.6  34268  291.41 0854.45
2009/04/23 13:56:55.6     204     96     70    226    237  64.6  17.3  34264  291.33 0854.45
2009/04/23 13:56:55.7     173    109    114    205    234  57.8  31.4  34282  291.64 0854.45
2009/04/23 13:56:55.8      98    117    108    153    187  40.1  38.8  34300  291.95 0854.45
2009/04/23 13:56:55.9      86     48     99     99    140  60.7  50.1  34306  292.06 0854.45
2009/04/23 13:56:56.0     127     34    112    132    173  74.9  44.8  34312  292.15 0854.45
2009/04/23 13:56:56.1     131     85     52    157    166  57.1  18.6  34282  291.64 0854.45
2009/04/23 13:56:56.2      38     46     57     60     82  39.6  49.0  34288  291.74 0854.45
2009/04/23 13:56:56.3       1     33     80     34     86   2.7  76.1  34308  292.08 0854.45
2009/04/23 13:56:56.4      -6     20     74     22     77 341.5  81.8  34318  292.25 0854.45
2009/04/23 13:56:56.5       7     35     56     36     66  11.6  64.6  34322  292.34 0854.45
2009/04/23 13:56:56.6       2     64     22     65     69   1.8  19.2  34320  292.29 0854.45
2009/04/23 13:56:56.7     -39     47    -12     62     64 320.4 -11.3  34322  292.34 0854.45
2009/04/23 13:56:56.8     -66    -65     41     93    101 225.6  25.1  34312  292.15 0854.45
2009/04/23 13:56:56.9     -81    -90     64    122    137 221.9  29.8  34306  292.05 0854.45
2009/04/23 13:56:57.0     -99   -148     48    179    186 213.8  15.0  34304  292.03 0854.41
2009/04/23 13:56:57.1    -189   -147     47    240    245 232.2  11.1  34308  292.07 0854.41
2009/04/23 13:56:57.2    -151   -201     -5    252    253 217.0  -1.3  34288  291.73 0854.41
2009/04/23 13:56:57.3    -116   -182     78    216    230 212.5  19.9  34304  292.03 0854.41
2009/04/23 13:56:57.4     -74   -205    130    219    254 200.0  33.5  34316  292.23 0854.41
2009/04/23 13:56:57.5     -83   -175     61    194    204 205.5  17.4  34306  292.06 0854.41
2009/04/23 13:56:57.6     -79   -116   -106    141    176 214.3 -45.1  34232  290.81 0854.41
2009/04/23 13:56:57.7     -41   -166   -102    172    199 194.0 -37.9  34252  291.15 0854.41
2009/04/23 13:56:57.8    -122   -154    -55    197    205 218.3 -15.8  34250  291.09 0854.41
2009/04/23 13:56:57.9     -56   -159    -66    169    181 199.6 -26.9  34282  291.64 0854.41
2009/04/23 13:56:58.0    -117   -160    -71    199    211 216.3 -24.6  34298  291.91 0854.41
2009/04/23 13:56:58.1     -54   -207    -11    214    215 194.7  -3.2  34294  291.86 0854.41
2009/04/23 13:56:58.2     -90   -277     68    292    300 198.0  13.2  34300  291.94 0854.41
2009/04/23 13:56:58.3     -68   -217     90    228    245 197.4  23.0  34294  291.84 0854.41
2009/04/23 13:56:58.4     -79   -213     87    228    244 200.5  21.7  34294  291.85 0854.41
2009/04/23 13:56:58.5     -93   -221     20    241    242 202.9   5.0  34286  291.72 0854.41
2009/04/23 13:56:58.6    -193   -278    -17    339    340 214.7  -3.0  34220  290.60 0854.41
2009/04/23 13:56:58.7    -137   -225    -83    264    277 211.4 -17.5  34216  290.53 0854.41
2009/04/23 13:56:58.8     -10   -207    -72    208    220 182.9 -23.8  34200  290.26 0854.41
2009/04/23 13:56:58.9     -32   -229   -107    232    255 188.1 -30.8  34186  290.02 0854.41
2009/04/23 13:56:59.0       9   -228    -79    229    242 177.5 -24.3  34190  290.07 0854.41
2009/04/23 13:56:59.1      18   -215    -66    216    225 175.1 -22.1  34192  290.13 0854.41
2009/04/23 13:56:59.2     -16   -263    -48    264    269 183.5 -10.5  34204  290.32 0854.41
2009/04/23 13:56:59.3      15   -243    -36    244    247 176.4  -8.6  34186  290.02 0854.41
2009/04/23 13:56:59.4     -27   -214    -61    216    224 187.3 -20.4  34206  290.36 0854.41
2009/04/23 13:56:59.5     -27   -205     -1    207    208 187.6  -0.5  34204  290.31 0854.41
2009/04/23 13:56:59.6     -13   -219     34    220    223 183.6   8.8  34190  290.09 0854.41
2009/04/23 13:56:59.7     -24   -202     41    204    209 186.9  11.6  34214  290.48 0854.41
2009/04/23 13:56:59.8     -15   -243     -2    244    245 183.6  -0.5  34212  290.44 0854.41
2009/04/23 13:56:59.9    -135   -218     -5    257    258 211.7  -1.3  34262  291.29 0854.41
2009/04/23 13:57:00.0    -172   -230     14    288    289 216.9   2.9  34264  291.33 0854.45
2009/04/23 13:57:00.1    -122   -237    -19    267    268 207.4  -4.1  34216  290.53 0854.45
2009/04/23 13:57:00.2     -82   -257     -8    270    271 197.8  -1.8  34228  290.71 0854.45
2009/04/23 13:57:00.3     -78   -180     -4    197    198 203.4  -1.3  34278  291.59 0854.45
2009/04/23 13:57:00.4    -108    -97     -2    146    147 228.2  -1.2  34286  291.72 0854.45
2009/04/23 13:57:00.5     -55    -28    -29     62     68 242.9 -31.5  34288  291.76 0854.45
2009/04/23 13:57:00.6     -54     54    -56     77     95 315.0 -44.1  34276  291.54 0854.45
2009/04/23 13:57:00.7    -161     82    -37    181    185 297.1 -11.6  34270  291.45 0854.45
2009/04/23 13:57:00.8    -120     78    -56    144    154 302.9 -26.4  34248  291.06 0854.45
2009/04/23 13:57:00.9     -70     35    -28     79     83 297.1 -23.8  34256  291.21 0854.45
2009/04/23 13:57:01.0    -111    -10    -14    112    113 264.8  -7.2  34276  291.55 0854.45
2009/04/23 13:57:01.1    -141    -34    -24    146    148 256.3  -9.3  34270  291.43 0854.45
2009/04/23 13:57:01.2    -144    -97     49    174    181 236.0  15.8  34286  291.72 0854.45
2009/04/23 13:57:01.3    -103   -124     25    162    165 219.9   9.0  34292  291.83 0854.45
2009/04/23 13:57:01.4     -95   -134     64    165    176 215.4  22.5  34296  291.89 0854.45
2009/04/23 13:57:01.5     -55   -180     59    189    199 197.2  17.4  34282  291.66 0854.45
2009/04/23 13:57:01.6     -88   -147    -55    172    181 211.0 -17.9  34234  290.82 0854.45
2009/04/23 13:57:01.7    -149   -153    -67    214    224 224.3 -22.5  34218  290.55 0854.45
2009/04/23 13:57:01.8     -80   -130    -66    153    166 211.6 -29.3  34218  290.55 0854.45
2009/04/23 13:57:01.9     -36   -174     -8    178    179 191.8  -2.8  34228  290.72 0854.45
2009/04/23 13:57:02.0     -44   -111    -74    120    140 201.9 -39.4  34222  290.62 0854.44
2009/04/23 13:57:02.1     -68   -157    -24    172    174 203.4  -8.0  34226  290.70 0854.44
2009/04/23 13:57:02.2     -94   -200     34    222    225 205.3   8.9  34246  291.03 0854.44
2009/04/23 13:57:02.3     -47   -176     17    183    184 194.9   5.4  34232  290.81 0854.44
2009/04/23 13:57:02.4     -60   -191     15    201    202 197.4   4.4  34238  290.89 0854.44
2009/04/23 13:57:02.5     -42   -195     -2    200    201 192.3  -0.7  34244  291.01 0854.44
2009/04/23 13:57:02.6     -49   -179      3    186    187 195.4   1.0  34272  291.49 0854.44
2009/04/23 13:57:02.7    -101   -148     -1    180    181 214.3  -0.5  34270  291.45 0854.44
2009/04/23 13:57:02.8     -91   -151     41    177    182 211.2  13.2  34272  291.47 0854.44
2009/04/23 13:57:02.9     -93   -170    129    194    232 208.7  36.5  34256  291.20 0854.44
2009/04/23 13:57:03.0     -68   -132    136    149    201 207.2  47.5  34264  291.33 0854.44
2009/04/23 13:57:03.1    -103   -129    129    166    210 218.5  41.7  34258  291.23 0854.44
2009/04/23 13:57:03.2    -120   -105    126    160    203 228.7  42.2  34282  291.66 0854.44
2009/04/23 13:57:03.3    -105    -31     96    110    146 253.6  45.8  34276  291.55 0854.44
2009/04/23 13:57:03.4      -5     71    116     72    136 355.5  64.7  34268  291.42 0854.44
2009/04/23 13:57:03.5     -74    -81    162    110    195 222.3  62.6  34246  291.03 0854.44
2009/04/23 13:57:03.6       1    -18    123     19    124 175.5  90.0  34260  291.26 0854.44
2009/04/23 13:57:03.7       1     22    111     23    113   4.5  89.0  34272  291.47 0854.44
2009/04/23 13:57:03.8     -32     20    108     38    114 302.4  81.2  34280  291.62 0854.44
2009/04/23 13:57:03.9     -33   -119    169    124    209 195.6  60.3  34254  291.18 0854.44
2009/04/23 13:57:04.0     -81   -136    199    159    254 210.7  57.3  34252  291.13 0854.44
2009/04/23 13:57:04.1    -105   -141    192    176    260 216.7  52.7  34248  291.05 0854.44
2009/04/23 13:57:04.2     -31   -153    174    157    234 191.6  53.3  34252  291.15 0854.44
2009/04/23 13:57:04.3       7    -60    154     61    165 172.9  77.6  34246  291.03 0854.44
2009/04/23 13:57:04.4       2   -167    153    168    227 179.1  47.1  34242  290.98 0854.44
2009/04/23 13:57:04.5      91   -144    188    171    254 147.5  52.7  34236  290.87 0854.44
2009/04/23 13:57:04.6      21     63    123     67    140  18.7  68.9  34252  291.13 0854.44
2009/04/23 13:57:04.7      21    -66    186     70    198 161.7  78.6  34242  290.98 0854.44
2009/04/23 13:57:04.8       1     24    160     25    161   2.7  90.0  34258  291.25 0854.44
2009/04/23 13:57:04.9       8     45    145     46    152  10.7  81.2  34246  291.04 0854.44
2009/04/23 13:57:05.0      -1   -120    164    121    203 180.9  60.3  34236  290.87 0854.44
2009/04/23 13:57:05.1      18   -237    202    238    312 175.5  44.7  34226  290.70 0854.44
2009/04/23 13:57:05.2     -32   -204    218    207    300 188.9  52.0  34220  290.58 0854.44
2009/04/23 13:57:05.3     -59   -177    210    187    281 198.5  54.0  34224  290.66 0854.44
2009/04/23 13:57:05.4       0   -108    137    109    175 180.5  57.5  34234  290.84 0854.44
2009/04/23 13:57:05.5       0    -97    158     98    185 179.5  64.9  34244  290.99 0854.44
2009/04/23 13:57:05.6     -30    -64    102     71    124 205.4  62.6  34248  291.08 0854.44
2009/04/23 13:57:05.7    -130    -91    147    159    216 234.9  47.9  34250  291.11 0854.44
2009/04/23 13:57:05.8     -58    -64     63     87    107 222.3  39.7  34250  291.11 0854.44
2009/04/23 13:57:05.9      15    -43    135     46    142 160.0  81.2  34262  291.30 0854.44
2009/04/23 13:57:06.0      27     -5     99     28    102 101.5  84.4  34256  291.20 0854.44
2009/04/23 13:57:06.1     -51     43     59     67     89 310.4  46.4  34248  291.06 0854.44
2009/04/23 13:57:06.2    -225    -17     11    226    227 265.6   2.8  34264  291.35 0854.44
2009/04/23 13:57:06.3    -206     -8     40    207    211 267.6  11.1  34270  291.43 0854.44
2009/04/23 13:57:06.4    -188    -50     20    195    197 255.0   5.9  34262  291.32 0854.44
2009/04/23 13:57:06.5    -132    -84     73    157    173 237.5  26.6  34254  291.16 0854.44
2009/04/23 13:57:06.6     -72    -87     92    114    146 219.7  43.7  34250  291.09 0854.44
2009/04/23 13:57:06.7    -147   -121     33    191    194 230.5   9.9  34262  291.30 0854.44
2009/04/23 13:57:06.8    -119   -119     31    169    172 225.1  10.6  34266  291.37 0854.44
2009/04/23 13:57:06.9    -119   -110     -8    163    164 227.1  -3.1  34278  291.57 0854.44
2009/04/23 13:57:07.0     -89   -172    -27    194    196 207.4  -8.0  34254  291.16 0854.44
2009/04/23 13:57:07.1     -38   -181     -5    186    187 192.0  -1.8  34240  290.92 0854.44
2009/04/23 13:57:07.2       8   -200     17    201    202 177.5   4.9  34252  291.15 0854.44
2009/04/23 13:57:07.3      16   -155     10    156    157 173.8   3.8  34262  291.32 0854.44
2009/04/23 13:57:07.4       8   -211     -8    212    213 177.8  -2.2  34266  291.38 0854.44
2009/04/23 13:57:07.5      42   -186    -51    191    198 167.1 -15.2  34270  291.45 0854.44
2009/04/23 13:57:07.6      44   -118    -21    126    128 159.5  -9.8  34270  291.43 0854.44
2009/04/23 13:57:07.7      61    -70    -33     93     99 139.0 -19.6  34274  291.50 0854.44
2009/04/23 13:57:07.8      49    -73    -27     89     93 146.2 -22.3  34274  291.50 0854.44
2009/04/23 13:57:07.9     101    -48    -51    112    123 115.4 -30.1  34288  291.76 0854.44
2009/04/23 13:57:08.0     122    -76    -30    145    149 122.0 -11.9  34298  291.93 0854.44
2009/04/23 13:57:08.1      79      6    -57     80     98  85.6 -43.9  34308  292.10 0854.44
2009/04/23 13:57:08.2     118     -5    -17    119    121  92.6  -8.2  34314  292.20 0854.44
2009/04/23 13:57:08.3     108     -4     -2    109    110  92.1  -1.2  34338  292.59 0854.44
2009/04/23 13:57:08.4      86     -2     30     87     93  91.7  19.4  34338  292.61 0854.44
2009/04/23 13:57:08.5      68    -27     31     74     80 111.7  24.1  34336  292.56 0854.44
2009/04/23 13:57:08.6      71    -45      1     85     86 122.5   0.8  34328  292.44 0854.44
2009/04/23 13:57:08.7      58    -63     45     86     97 137.2  29.8  34336  292.58 0854.44
2009/04/23 13:57:08.8      76    -92     60    120    134 140.4  28.7  34328  292.42 0854.44
2009/04/23 13:57:08.9      20   -115     60    117    131 169.8  29.2  34316  292.23 0854.44
2009/04/23 13:57:09.0      35    -86     61     94    112 157.7  35.6  34284  291.67 0854.44
2009/04/23 13:57:09.1      77    -93     54    122    133 140.4  25.2  34276  291.55 0854.44
2009/04/23 13:57:09.2     153    -31     90    157    180 101.5  32.1  34326  292.40 0854.44
2009/04/23 13:57:09.3     150    -92    124    176    215 121.5  39.1  34304  292.03 0854.44
2009/04/23 13:57:09.4      82   -120    143    146    204 145.8  49.9  34278  291.57 0854.44
2009/04/23 13:57:09.5      80    -63    115    103    154 128.2  53.7  34358  292.95 0854.44
2009/04/23 13:57:09.6      88    -34    108     95    143 111.3  54.2  34376  293.24 0854.44
2009/04/23 13:57:09.7     -29   -108    123    112    166 195.2  53.0  34310  292.13 0854.44
2009/04/23 13:57:09.8    -119   -186    159    221    272 212.6  39.5  34260  291.26 0854.44
2009/04/23 13:57:09.9     -85   -195    190    213    285 203.7  46.2  34246  291.02 0854.44
2009/04/23 13:57:10.0     -29   -206    178    209    274 188.0  44.8  34240  290.93 0854.39
2009/04/23 13:57:10.1     -20   -240    182    241    302 184.9  40.7  34242  290.97 0854.39
2009/04/23 13:57:10.2     -80   -287    115    298    319 195.6  22.0  34256  291.21 0854.39
2009/04/23 13:57:10.3     -18   -295     66    296    304 183.5  12.6  34250  291.10 0854.39
2009/04/23 13:57:10.4      21   -330     99    331    346 176.2  16.6  34242  290.98 0854.39
2009/04/23 13:57:10.5      84   -276    122    289    313 163.0  24.2  34240  290.92 0854.39
2009/04/23 13:57:10.6     108   -271    124    292    317 158.2  24.3  34244  291.00 0854.39
2009/04/23 13:57:10.7      80   -270     94    282    298 163.5  18.5  34238  290.90 0854.39
2009/04/23 13:57:10.8      67   -204    104    215    238 161.7  27.8  34240  290.94 0854.39
2009/04/23 13:57:10.9      19   -219     61    220    229 174.9  15.6  34232  290.81 0854.39
2009/04/23 13:57:11.0      71   -233     27    244    246 163.1   6.5  34226  290.70 0854.39
2009/04/23 13:57:11.1     -38   -269     25    272    274 188.2   5.4  34226  290.70 0854.39
2009/04/23 13:57:11.2     -47   -234    131    239    272 191.5  31.3  34218  290.56 0854.39
2009/04/23 13:57:11.3    -163   -298    191    340    389 208.8  31.9  34202  290.30 0854.39
2009/04/23 13:57:11.4    -348   -436    -34    559    561 218.6  -3.5  34210  290.43 0854.39
2009/04/23 13:57:11.5    -297   -526   -101    605    614 209.4  -9.5  34160  289.58 0854.39
2009/04/23 13:57:11.6    -282   -509   -162    583    606 209.0 -15.5  34162  289.61 0854.39
2009/04/23 13:57:11.7    -292   -441   -170    530    556 213.5 -22.9  34184  289.97 0854.39
2009/04/23 13:57:11.8    -204   -468   -141    511    530 203.6 -20.0  34176  289.84 0854.39
2009/04/23 13:57:11.9    -192   -478   -163    516    542 201.9 -17.6  34158  289.53 0854.39
2009/04/23 13:57:12.0    -191   -462   -158    501    526 202.5 -17.6  34160  289.57 0854.36
2009/04/23 13:57:12.1    -181   -461   -118    496    510 201.5 -13.4  34156  289.49 0854.36
2009/04/23 13:57:12.2    -182   -441   -119    478    493 202.5 -14.1  34156  289.50 0854.36
2009/04/23 13:57:12.3    -198   -435   -145    478    500 204.5 -16.9  34160  289.56 0854.36
2009/04/23 13:57:12.4    -156   -431   -137    459    480 200.0 -16.6  34160  289.56 0854.36
2009/04/23 13:57:12.5    -179   -459   -135    493    512 201.3 -15.4  34158  289.54 0854.36
2009/04/23 13:57:12.6    -192   -426   -134    468    487 204.3 -16.0  34162  289.61 0854.36
2009/04/23 13:57:12.7    -147   -406    -94    432    443 200.0 -12.4  34158  289.55 0854.36
2009/04/23 13:57:12.8    -154   -360   -108    392    407 203.2 -15.4  34160  289.57 0854.36
2009/04/23 13:57:12.9    -129   -296    -93    324    337 203.6 -20.7  34164  289.65 0854.36
2009/04/23 13:57:13.0     -75   -296   -113    306    326 194.3 -25.5  34164  289.63 0854.36
2009/04/23 13:57:13.1     -23   -301   -118    302    324 184.5 -26.8  34166  289.66 0854.36
2009/04/23 13:57:13.2     -43   -302    -90    306    318 188.1 -21.4  34160  289.58 0854.36
2009/04/23 13:57:13.3     -64   -296    -91    303    316 192.3 -21.7  34162  289.61 0854.36
2009/04/23 13:57:13.4     -42   -240    -90    244    260 190.0 -25.4  34162  289.59 0854.36
2009/04/23 13:57:13.5     -53   -261    -69    267    276 191.5 -14.5  34162  289.59 0854.36
2009/04/23 13:57:13.6     -41   -271    -49    275    280 188.7 -10.1  34158  289.54 0854.36
2009/04/23 13:57:13.7       4   -267    -18    268    269 179.0  -3.9  34164  289.63 0854.36
2009/04/23 13:57:13.8      -8   -258    -14    259    260 181.8  -3.1  34166  289.66 0854.36
2009/04/23 13:57:13.9      -8   -277    -29    278    280 181.8  -6.1  34176  289.85 0854.36
2009/04/23 13:57:14.0      -6   -315    -24    316    317 181.1  -4.4  34180  289.92 0854.38
2009/04/23 13:57:14.1       0   -321    -30    322    324 180.1  -5.5  34176  289.85 0854.38
2009/04/23 13:57:14.2     -59   -316    -99    322    338 190.7 -17.2  34196  290.18 0854.38
2009/04/23 13:57:14.3      56   -289    -26    295    297 168.9  -5.1  34172  289.78 0854.38
2009/04/23 13:57:14.4     -39   -209    -59    213    222 190.7 -15.5  34178  289.89 0854.38
2009/04/23 13:57:14.5      95   -311    -44    326    329 163.0  -7.7  34184  289.97 0854.38
2009/04/23 13:57:14.6      28   -392    -21    393    394 175.9  -3.2  34188  290.03 0854.38
2009/04/23 13:57:14.7      81   -301    -54    312    317 164.9  -9.9  34180  289.92 0854.38
2009/04/23 13:57:14.8     100   -242     76    262    273 157.5  16.3  34178  289.88 0854.38
2009/04/23 13:57:14.9     173   -356     47    397    400 154.0   6.8  34178  289.87 0854.38
2009/04/23 13:57:15.0      55   -380   -119    385    402 171.8 -22.2  34174  289.81 0854.38
2009/04/23 13:57:15.1      72   -377   -138    384    409 169.2 -19.8  34188  290.03 0854.38
2009/04/23 13:57:15.2      83   -369   -108    379    395 167.3 -15.9  34182  289.96 0854.38
2009/04/23 13:57:15.3     117   -383    -28    401    402 163.0  -4.1  34178  289.86 0854.38
2009/04/23 13:57:15.4     108   -367     92    383    394 163.5  13.5  34198  290.20 0854.38
2009/04/23 13:57:15.5     129   -399     12    420    421 162.0   1.7  34190  290.09 0854.38
2009/04/23 13:57:15.6      67   -420    -36    426    428 170.9  -4.9  34202  290.28 0854.38
2009/04/23 13:57:15.7      29   -386    -55    388    393 175.6  -8.1  34208  290.37 0854.38
2009/04/23 13:57:15.8      73   -391    -42    398    401 169.4  -6.1  34202  290.30 0854.38
2009/04/23 13:57:15.9      16   -428    -54    429    433 177.8  -7.2  34198  290.22 0854.38
2009/04/23 13:57:16.0      12   -407   -169    408    441 178.2 -28.2  34192  290.11 0854.41
2009/04/23 13:57:16.1    -118   -328   -104    349    365 199.9 -16.7  34194  290.16 0854.41
2009/04/23 13:57:16.2    -107   -328      0    346    347 198.1   0.1  34198  290.21 0854.41
2009/04/23 13:57:16.3      13   -286    -33    287    289 177.3  -6.7  34198  290.20 0854.41
2009/04/23 13:57:16.4       0   -231    -29    232    234 180.0  -7.3  34200  290.24 0854.41
2009/04/23 13:57:16.5      67   -285    -16    293    294 166.7  -3.3  34198  290.20 0854.41
2009/04/23 13:57:16.6       0   -298     -1    299    300 180.0  -0.3  34196  290.17 0854.41
2009/04/23 13:57:16.7       3   -312      5    313    314 179.3   1.0  34192  290.12 0854.41
2009/04/23 13:57:16.8     -22   -338     32    339    341 183.7   5.4  34188  290.06 0854.41
2009/04/23 13:57:16.9      99   -380     61    393    398 165.3   8.9  34198  290.20 0854.41
2009/04/23 13:57:17.0     119   -396     96    414    426 163.2  13.1  34198  290.21 0854.41
2009/04/23 13:57:17.1     132   -396    107    418    432 161.6  14.4  34198  290.22 0854.41
2009/04/23 13:57:17.2     150   -317    123    351    371 154.7  20.0  34204  290.33 0854.41
2009/04/23 13:57:17.3     151   -270    135    310    338 150.8  24.9  34200  290.25 0854.41
2009/04/23 13:57:17.4     132   -320    214    347    407 157.6  34.6  34202  290.30 0854.41
2009/04/23 13:57:17.5      98   -291    236    308    388 161.3  41.4  34206  290.35 0854.41
2009/04/23 13:57:17.6     137   -337    167    364    400 157.8  26.3  34196  290.18 0854.41
2009/04/23 13:57:17.7      33   -459    144    461    484 175.9  17.4  34198  290.22 0854.41
2009/04/23 13:57:17.8      -5   -411    149    412    439 180.8  19.9  34202  290.29 0854.41
2009/04/23 13:57:17.9      20   -534    -10    535    536 177.8  -1.2  34202  290.28 0854.41
2009/04/23 13:57:18.0      64   -532    -41    536    538 173.1  -4.4  34206  290.35 0854.43
2009/04/23 13:57:18.1      58   -489     25    493    494 173.1   2.9  34204  290.32 0854.43
2009/04/23 13:57:18.3      12   -404    -88    405    415 178.2 -12.4  34214  290.50 0854.43
2009/04/23 13:57:18.4     -34   -364    -93    366    378 185.4 -14.3  34216  290.52 0854.43
2009/04/23 13:57:18.5      67   -408   -125    414    432 170.6 -21.7  34218  290.56 0854.43
2009/04/23 13:57:18.6      67   -318    -76    326    335 168.1 -13.1  34212  290.47 0854.43
2009/04/23 13:57:18.7      29   -280   -127    282    309 174.0 -30.6  34212  290.44 0854.43
2009/04/23 13:57:18.8     -52   -239   -132    245    278 192.3 -35.0  34232  290.78 0854.43
2009/04/23 13:57:18.9     -51   -223   -140    229    268 193.1 -38.8  34232  290.80 0854.43
2009/04/23 13:57:19.0     -19   -247    -84    248    261 184.5 -23.3  34232  290.78 0854.43
2009/04/23 13:57:19.1     -63   -226   -133    235    270 195.6 -36.5  34234  290.83 0854.45
2009/04/23 13:57:19.2      -8   -190   -105    191    217 182.5 -35.8  34234  290.84 0854.45
2009/04/23 13:57:19.3      49   -246    -89    251    267 168.5 -19.7  34224  290.65 0854.45
2009/04/23 13:57:19.4      86   -276    -47    290    294 162.6  -9.3  34212  290.44 0854.45
2009/04/23 13:57:19.5      99   -257    -19    276    277 158.8  -4.1  34206  290.36 0854.45
2009/04/23 13:57:19.6     -41   -183     -9    188    189 192.9  -2.8  34224  290.67 0854.45
2009/04/23 13:57:19.7     -21   -159    -56    161    170 187.8 -23.8  34244  290.99 0854.45
2009/04/23 13:57:19.8      25   -147    -35    150    155 170.2 -13.2  34236  290.86 0854.45
2009/04/23 13:57:19.9     -16   -114    -53    116    127 188.0 -30.6  34248  291.08 0854.45
2009/04/23 13:57:20.0      14   -130    -46    131    138 173.7 -24.4  34248  291.06 0854.45
2009/04/23 13:57:20.1      85   -134    -52    159    167 147.5 -23.3  34242  290.96 0854.45
2009/04/23 13:57:20.2      80   -137    -58    159    169 149.7 -25.1  34236  290.86 0854.45
2009/04/23 13:57:20.3      42   -162    -60    168    178 165.5 -24.8  34240  290.94 0854.45
2009/04/23 13:57:20.4      -7   -181     18    182    183 182.5   5.7  34226  290.70 0854.45
2009/04/23 13:57:20.5      15   -207     11    208    209 175.6   3.3  34222  290.62 0854.45
2009/04/23 13:57:20.6      59   -188      0    198    199 162.4   0.2  34220  290.60 0854.45
2009/04/23 13:57:20.7      89   -235     48    252    257 159.3  10.8  34214  290.49 0854.45
2009/04/23 13:57:20.8      18   -237     -5    238    239 175.6  -1.3  34214  290.49 0854.45
2009/04/23 13:57:20.9      -4   -292    -13    293    294 180.9  -2.6  34216  290.53 0854.45
2009/04/23 13:57:21.0      81   -310     -2    321    322 165.3  -0.5  34220  290.58 0854.45
2009/04/23 13:57:21.1      -7   -325    -30    326    328 181.4  -5.4  34216  290.53 0854.47
2009/04/23 13:57:21.2     -28   -324    -12    326    327 185.1  -2.2  34212  290.46 0854.47
2009/04/23 13:57:21.3       5   -362    -20    363    364 179.2  -3.2  34204  290.33 0854.47
2009/04/23 13:57:21.4     -43   -321     26    324    326 187.8   4.6  34202  290.27 0854.47
2009/04/23 13:57:21.5     -51   -299     31    304    306 189.8   5.9  34198  290.22 0854.47
2009/04/23 13:57:21.6     -90   -285     42    299    303 197.6   8.0  34206  290.34 0854.47
2009/04/23 13:57:21.7     -23   -263      1    265    266 185.1   0.2  34202  290.29 0854.47
2009/04/23 13:57:21.8     -12   -274     21    275    276 182.6   4.4  34206  290.34 0854.47
2009/04/23 13:57:21.9      -8   -263      8    264    265 181.8   1.8  34210  290.41 0854.47
2009/04/23 13:57:22.0      17   -223     31    224    227 175.6   8.0  34206  290.36 0854.47
2009/04/23 13:57:22.1     103   -256     54    277    283 158.1  11.1  34206  290.36 0854.47
2009/04/23 13:57:22.2      58   -276    127    283    310 168.0  25.9  34198  290.22 0854.47
2009/04/23 13:57:22.3      26   -268    116    270    293 174.4  25.1  34194  290.15 0854.47
2009/04/23 13:57:22.4      25   -247    122    249    277 174.2  28.2  34192  290.12 0854.47
2009/04/23 13:57:22.5      64   -250    110    259    281 165.5  24.3  34198  290.20 0854.47
2009/04/23 13:57:22.6      84   -254     94    268    284 161.7  20.0  34200  290.26 0854.47
2009/04/23 13:57:22.7      91   -283     76    298    308 162.2  14.3  34208  290.37 0854.47
2009/04/23 13:57:22.8     131   -334     82    359    369 158.5  12.9  34210  290.42 0854.47
2009/04/23 13:57:22.9      87   -292    107    305    323 163.3  20.1  34206  290.36 0854.47
2009/04/23 13:57:23.0      97   -339    118    353    373 164.0  18.5  34208  290.37 0854.47
2009/04/23 13:57:23.1     107   -316     96    334    348 161.3  16.0  34206  290.35 0854.50
2009/04/23 13:57:23.2     121   -290     69    315    323 157.3  12.4  34210  290.41 0854.50
2009/04/23 13:57:23.3     108   -280     64    301    308 158.8  12.2  34204  290.31 0854.50
2009/04/23 13:57:23.4     112   -195    108    225    249 150.1  27.3  34222  290.63 0854.50
2009/04/23 13:57:23.5      45   -114    160    123    201 158.2  58.5  34232  290.79 0854.50
2009/04/23 13:57:23.6      95   -201    112    223    249 154.5  28.5  34212  290.46 0854.50
2009/04/23 13:57:23.7      -5    -76    139     77    158 184.4  68.5  34240  290.94 0854.50
2009/04/23 13:57:23.8      -2    -52     64     53     83 182.7  55.8  34238  290.91 0854.50
2009/04/23 13:57:23.9     122   -220    214    252    330 151.0  44.7  34228  290.73 0854.50
2009/04/23 13:57:24.0     102   -199    183    224    289 152.8  43.7  34228  290.73 0854.50
2009/04/23 13:57:24.1     135   -274    158    306    344 153.7  29.4  34228  290.74 0854.50
2009/04/23 13:57:24.2      83   -325    156    336    370 165.6  26.9  34232  290.81 0854.50
2009/04/23 13:57:24.3      24   -211    103    213    236 173.3  27.8  34232  290.81 0854.50
2009/04/23 13:57:24.4     -46   -178    133    185    227 194.7  39.5  34238  290.91 0854.50
2009/04/23 13:57:24.5      58   -281    121    288    312 168.2  23.9  34232  290.78 0854.50
2009/04/23 13:57:24.6      55   -272     88    278    292 168.5  17.7  34230  290.76 0854.50
2009/04/23 13:57:24.7      51   -266     85    271    285 169.1  17.4  34224  290.65 0854.50
2009/04/23 13:57:24.8      57   -308     76    314    324 169.4  13.6  34230  290.76 0854.50
2009/04/23 13:57:24.9      41   -275    105    279    298 171.5  21.7  34228  290.71 0854.50
2009/04/23 13:57:25.0      81   -320    119    331    351 165.7  20.6  34228  290.72 0854.50
2009/04/23 13:57:25.1     156   -344    113    378    395 155.6  16.7  34222  290.62 0854.53
2009/04/23 13:57:25.2     102   -309    178    326    371 161.7  31.3  34226  290.69 0854.53
2009/04/23 13:57:25.3      92   -249    120    266    291 159.7  26.2  34224  290.66 0854.53
2009/04/23 13:57:25.4      66   -186    117    198    229 160.4  33.5  34226  290.70 0854.53
2009/04/23 13:57:25.5      41   -202    120    207    239 168.4  32.7  34224  290.67 0854.53
2009/04/23 13:57:25.6      60   -268    127    275    302 167.3  27.0  34224  290.65 0854.53
2009/04/23 13:57:25.7     154   -268     76    310    320 150.1  13.9  34214  290.49 0854.53
2009/04/23 13:57:25.8     153   -214     74    264    275 144.4  15.8  34218  290.56 0854.53
2009/04/23 13:57:25.9      93   -255     82    272    285 159.9  16.8  34222  290.61 0854.53
2009/04/23 13:57:26.0      63   -299    115    306    326 168.0  21.5  34244  290.99 0854.53
2009/04/23 13:57:26.1     105   -321    189    338    387 161.9  31.5  34220  290.59 0854.53
2009/04/23 13:57:26.2     105   -319    197    336    389 161.7  33.3  34228  290.71 0854.53
2009/04/23 13:57:26.3      53   -288    164    293    335 169.5  31.6  34228  290.73 0854.53
2009/04/23 13:57:26.4      51   -221    163    227    279 166.9  39.5  34228  290.73 0854.53
2009/04/23 13:57:26.5     239   -185    137    303    332 127.7  26.2  34226  290.68 0854.53
2009/04/23 13:57:26.6     171   -203    135    266    298 139.9  29.2  34222  290.61 0854.53
2009/04/23 13:57:26.7     165   -236    116    289    311 145.0  23.0  34224  290.65 0854.53
2009/04/23 13:57:26.8     209   -257     21    332    333 140.9   3.6  34222  290.64 0854.53
2009/04/23 13:57:26.9     155   -263     31    306    308 149.5   5.9  34218  290.54 0854.53
2009/04/23 13:57:27.0     231   -200      4    306    307 130.9   0.8  34224  290.65 0854.53
2009/04/23 13:57:27.1     233   -307     61    386    391 142.7   9.0  34228  290.74 0854.50
2009/04/23 13:57:27.2     188   -322     55    374    379 149.7   8.5  34224  290.66 0854.50
2009/04/23 13:57:27.3     229   -276     55    359    364 140.3   8.8  34224  290.66 0854.50
2009/04/23 13:57:27.4     237   -286     89    372    383 140.4  13.5  34224  290.67 0854.50
2009/04/23 13:57:27.5     183   -290    164    344    381 147.7  27.3  34228  290.71 0854.50
2009/04/23 13:57:27.6     112   -246    139    271    304 155.5  29.2  34228  290.73 0854.50
2009/04/23 13:57:27.7      32   -284    104    286    304 173.5  20.9  34232  290.78 0854.50
2009/04/23 13:57:27.8      72   -227    126    239    270 162.4  30.1  34228  290.73 0854.50
2009/04/23 13:57:27.9     133   -227    126    264    292 149.7  27.3  34230  290.75 0854.50
2009/04/23 13:57:28.0     166   -298    119    342    363 150.9  19.2  34230  290.77 0854.50
2009/04/23 13:57:28.1     219   -276     82    353    363 141.6  13.1  34228  290.74 0854.50
2009/04/23 13:57:28.2     169   -266     59    316    322 147.5  10.6  34234  290.82 0854.50
2009/04/23 13:57:28.3     152   -246    103    290    308 148.4  19.6  34232  290.80 0854.50
2009/04/23 13:57:28.4     196   -246    172    315    358 141.5  31.0  34232  290.81 0854.50
2009/04/23 13:57:28.5     155   -255    214    299    367 148.6  39.2  34240  290.93 0854.50
2009/04/23 13:57:28.6      63   -324    179    331    376 169.0  30.9  34238  290.91 0854.50
2009/04/23 13:57:28.7      82   -305    118    317    338 164.9  21.4  34238  290.91 0854.50
2009/04/23 13:57:28.8     105   -302    115    320    340 160.8  20.4  34240  290.93 0854.50
2009/04/23 13:57:28.9      98   -291     60    308    314 161.3  11.1  34240  290.92 0854.50
2009/04/23 13:57:29.0      46   -300     71    304    313 171.3  13.1  34240  290.92 0854.50
2009/04/23 13:57:29.1      50   -314    -12    319    320 170.9  -2.2  34242  290.95 0854.47
2009/04/23 13:57:29.2     109   -276     25    297    299 158.4   4.9  34242  290.95 0854.47
2009/04/23 13:57:29.3      38   -248     -1    252    253 171.1  -0.3  34240  290.92 0854.47
2009/04/23 13:57:29.4     -12   -204     42    205    210 183.4  11.6  34240  290.94 0854.47
2009/04/23 13:57:29.5      67   -193     36    205    209 160.8  10.1  34242  290.96 0854.47
2009/04/23 13:57:29.6     148   -204    -36    253    256 144.0  -8.2  34242  290.95 0854.47
2009/04/23 13:57:29.7      95   -147     -3    176    177 147.0  -1.3  34240  290.92 0854.47
2009/04/23 13:57:29.8      74   -177     93    192    213 157.3  27.4  34242  290.98 0854.47
2009/04/23 13:57:29.9      77   -233     87    246    262 161.7  19.6  34250  291.10 0854.47
2009/04/23 13:57:30.0     186   -224     68    292    300 140.3  13.2  34254  291.16 0854.47
2009/04/23 13:57:30.1     166   -196    111    258    280 139.7  24.9  34240  290.92 0854.47
2009/04/23 13:57:30.2     155   -212    111    263    285 143.9  24.3  34230  290.76 0854.47
2009/04/23 13:57:30.3      41   -244    194    248    314 170.3  42.1  34234  290.83 0854.47
2009/04/23 13:57:30.4      46   -229    157    234    281 168.4  37.0  34240  290.93 0854.47
2009/04/23 13:57:30.5     -33   -324    100    326    342 186.0  17.0  34232  290.81 0854.47
2009/04/23 13:57:30.6     -56   -312    123    318    340 190.2  22.3  34230  290.76 0854.47
2009/04/23 13:57:30.7      87   -365     90    376    387 166.5  13.6  34232  290.81 0854.47
2009/04/23 13:57:30.8     181   -315    108    364    380 150.1  16.6  34236  290.86 0854.47
2009/04/23 13:57:30.9     239   -391     89    459    468 148.6  11.0  34236  290.85 0854.47
2009/04/23 13:57:31.0     232   -408    122    470    486 150.4  14.6  34238  290.88 0854.47
2009/04/23 13:57:31.1     207   -376    114    430    445 151.1  14.9  34230  290.77 0854.41
2009/04/23 13:57:31.2     211   -407    107    459    472 152.6  13.2  34234  290.83 0854.41
2009/04/23 13:57:31.3     195   -456    116    497    511 156.8  13.2  34232  290.78 0854.41
2009/04/23 13:57:31.4     164   -374      0    409    410 156.3   0.0  34232  290.80 0854.41
2009/04/23 13:57:31.5     125   -313     67    338    345 158.2  11.3  34230  290.77 0854.41
2009/04/23 13:57:31.6      68   -427    126    433    452 170.9  16.3  34236  290.85 0854.41
2009/04/23 13:57:31.7      61   -372    220    378    437 170.7  33.0  34232  290.80 0854.41
2009/04/23 13:57:31.8      55   -357    265    362    448 171.2  39.7  34244  290.99 0854.41
2009/04/23 13:57:31.9     -38   -376    294    378    478 185.8  41.9  34238  290.90 0854.41
2009/04/23 13:57:32.0     101   -314     90    331    344 162.1  15.2  34238  290.88 0854.41
2009/04/23 13:57:32.1     154   -352    -15    385    386 156.3  -2.3  34234  290.84 0854.41
2009/04/23 13:57:32.2     188   -313     34    366    368 149.0   5.4  34228  290.71 0854.41
2009/04/23 13:57:32.3     213   -594    191    632    661 160.2  16.8  34228  290.74 0854.41
2009/04/23 13:57:32.4     241   -505    239    560    608 154.5  24.6  34224  290.66 0854.41
2009/04/23 13:57:32.5     300   -538    394    617    732 150.8  35.6  34230  290.75 0854.41
2009/04/23 13:57:32.6     266   -418    222    496    543 147.5  25.8  34232  290.79 0854.41
2009/04/23 13:57:32.7     278   -456     16    535    536 148.6   1.8  34228  290.74 0854.41
2009/04/23 13:57:32.8     245   -413     90    481    490 149.3  10.6  34222  290.61 0854.41
2009/04/23 13:57:32.9     104   -554    -22    564    565 169.3  -2.2  34228  290.74 0854.41
2009/04/23 13:57:33.0     248   -464    -32    527    528 151.9  -3.5  34226  290.69 0854.41
2009/04/23 13:57:33.1     181   -431    160    468    495 157.2  18.9  34218  290.57 0854.41
2009/04/23 13:57:33.2      67   -383    190    389    432 170.0  28.0  34216  290.51 0854.41
2009/04/23 13:57:33.3      56   -346    156    351    384 170.7  25.6  34218  290.54 0854.41
2009/04/23 13:57:33.4    -138   -481     25    501    502 196.1   2.9  34218  290.57 0854.41
2009/04/23 13:57:33.5    -211   -465     57    511    515 204.5   6.4  34228  290.71 0854.41
2009/04/23 13:57:33.6    -170   -431    -50    464    467 201.6  -6.2  34232  290.78 0854.41
2009/04/23 13:57:33.7    -259   -421     -1    495    496 211.6  -0.2  34232  290.81 0854.41
2009/04/23 13:57:33.8    -160   -339     68    376    383 205.3  10.3  34230  290.77 0854.41
2009/04/23 13:57:33.9    -112   -377     77    394    402 196.5  11.1  34232  290.79 0854.41
2009/04/23 13:57:34.0     -50   -320     33    325    327 189.0   5.9  34232  290.80 0854.41
2009/04/23 13:57:34.1     -91   -449    -26    459    460 191.5  -3.3  34228  290.73 0854.41
2009/04/23 13:57:34.2    -208   -546     44    585    587 200.9   4.3  34220  290.59 0854.41
2009/04/23 13:57:34.3    -321   -608    -50    688    690 207.9  -4.2  34230  290.77 0854.41
2009/04/23 13:57:34.4    -297   -450   -145    540    560 213.4 -15.1  34228  290.72 0854.41
2009/04/23 13:57:34.5    -157   -367    -12    400    401 203.2  -1.8  34228  290.71 0854.41
2009/04/23 13:57:34.6    -120   -301   -146    325    356 201.8 -30.1  34240  290.93 0854.41
2009/04/23 13:57:34.7     -90   -311    -55    324    329 196.3  -9.8  34238  290.90 0854.41
2009/04/23 13:57:34.8      88   -364     21    375    376 166.4   3.3  34226  290.69 0854.41
2009/04/23 13:57:34.9     174   -383     70    421    427 155.6   9.4  34224  290.65 0854.41
2009/04/23 13:57:35.0     215   -294     70    365    372 143.9  11.0  34216  290.52 0854.41
2009/04/23 13:57:35.1     189   -295    116    351    370 147.3  18.4  34218  290.55 0854.42
2009/04/23 13:57:35.2     247   -325    111    409    424 142.7  15.2  34208  290.39 0854.42
2009/04/23 13:57:35.3     220   -377     54    437    441 149.8   7.1  34206  290.34 0854.42
2009/04/23 13:57:35.4     304   -283    136    416    438 133.0  18.1  34202  290.29 0854.42
2009/04/23 13:57:35.5     143   -139     62    200    210 134.2  17.3  34202  290.28 0854.42
2009/04/23 13:57:35.6     124   -223    176    256    310 151.0  37.6  34214  290.49 0854.42
2009/04/23 13:57:35.7     216   -217    261    307    402 135.1  44.8  34208  290.38 0854.42
2009/04/23 13:57:35.8     349   -152    232    381    446 113.6  34.3  34212  290.44 0854.42
2009/04/23 13:57:35.9     272   -104    255    292    387 111.1  45.6  34198  290.21 0854.42
2009/04/23 13:57:36.0     195    -99    204    219    299 116.9  47.9  34202  290.29 0854.42
2009/04/23 13:57:36.1     207   -395    239    447    506 152.3  30.5  34208  290.40 0854.42
2009/04/23 13:57:36.2      69   -495    227    500    549 172.0  26.2  34212  290.46 0854.42
2009/04/23 13:57:36.3     134   -395    344    418    541 161.2  43.7  34218  290.54 0854.42
2009/04/23 13:57:36.4     184   -222    265    289    392 140.3  47.3  34218  290.57 0854.42
2009/04/23 13:57:36.5     319   -137    280    348    446 113.2  43.0  34210  290.43 0854.42
2009/04/23 13:57:36.6     292      7    184    293    345  88.5  35.3  34202  290.28 0854.42
2009/04/23 13:57:36.7     226    127    -90    260    275  60.7 -24.4  34204  290.32 0854.42
2009/04/23 13:57:36.8     171      7    -68    172    184  87.6 -27.2  34206  290.36 0854.42
2009/04/23 13:57:36.9     245     42    -32    249    252  80.1  -7.3  34204  290.32 0854.42
2009/04/23 13:57:37.0     210    -16     12    211    212  94.6   3.3  34210  290.41 0854.42
2009/04/23 13:57:37.1     113   -150    197    189    273 143.0  51.2  34214  290.48 0854.41
2009/04/23 13:57:37.2      66    -16    194     69    205 104.2  80.2  34226  290.69 0854.41
2009/04/23 13:57:37.3     287    -72     72    296    305 104.2  13.7  34208  290.39 0854.41
2009/04/23 13:57:37.4     242   -116    214    269    343 115.8  42.7  34212  290.46 0854.41
2009/04/23 13:57:37.5     131   -400    110    421    436 161.9  14.6  34216  290.51 0854.41
2009/04/23 13:57:37.6     252   -578     46    631    633 156.4   4.2  34212  290.47 0854.41
2009/04/23 13:57:37.7     275   -472    221    547    589 149.7  23.2  34212  290.47 0854.41
2009/04/23 13:57:37.8     398   -567    315    694    762 144.9  26.2  34188  290.04 0854.41
2009/04/23 13:57:37.9     343   -668    319    751    815 152.8  24.5  34182  289.96 0854.41
2009/04/23 13:57:38.0     392   -487    136    626    641 141.2  12.3  34190  290.08 0854.41
2009/04/23 13:57:38.1     358   -475    172    595    620 143.0  16.1  34202  290.29 0854.41
2009/04/23 13:57:38.2     307   -351    135    467    487 138.8  16.1  34194  290.15 0854.41
2009/04/23 13:57:38.3     321   -350    198    475    514 137.5  24.1  34202  290.29 0854.41
2009/04/23 13:57:38.4     152   -485     20    509    510 162.6   2.3  34210  290.42 0854.41
2009/04/23 13:57:38.5      12   -559     64    560    564 178.7   6.6  34200  290.26 0854.41
2009/04/23 13:57:38.6     -68   -549    192    554    587 187.1  19.2  34190  290.08 0854.41
2009/04/23 13:57:38.7     188   -450    147    488    510 157.3  16.8  34210  290.42 0854.41
2009/04/23 13:57:38.8     334   -424    180    540    570 141.8  18.4  34204  290.33 0854.41
2009/04/23 13:57:38.9     218   -371     43    431    434 149.6   5.8  34208  290.39 0854.41
2009/04/23 13:57:39.0     -73   -307   -229    316    390 193.4 -43.9  34202  290.30 0854.41
2009/04/23 13:57:39.1    -248   -432   -198    499    536 209.9 -27.4  34208  290.38 0854.37
2009/04/23 13:57:39.2       9   -288   -214    289    359 178.2 -44.4  34204  290.32 0854.37
2009/04/23 13:57:39.3       7   -409     16    410    411 178.9   2.2  34194  290.16 0854.37
2009/04/23 13:57:39.4    -132   -372    -62    395    400 199.6  -9.0  34200  290.25 0854.37
2009/04/23 13:57:39.5    -100   -202     22    226    228 206.3   5.7  34202  290.30 0854.37
2009/04/23 13:57:39.6     -98    -14    -22    100    103 261.6 -12.4  34206  290.35 0854.37
2009/04/23 13:57:39.7    -165     57   -140    175    224 289.1 -47.1  34206  290.36 0854.37
2009/04/23 13:57:39.8    -234   -245    -43    340    343 223.7  -7.3  34206  290.35 0854.37
2009/04/23 13:57:39.9       3   -204    117    205    236 179.0  32.4  34216  290.52 0854.37
2009/04/23 13:57:40.0      85   -218    120    235    263 158.6  29.1  34208  290.37 0854.37
2009/04/23 13:57:40.1      57   -112     58    126    138 152.8  27.1  34206  290.35 0854.41
2009/04/23 13:57:40.2      26   -169    108    172    203 171.1  35.5  34204  290.31 0854.41
2009/04/23 13:57:40.3     -29   -538    183    539    570 183.2  18.8  34206  290.35 0854.41
2009/04/23 13:57:40.4     260   -347    321    434    539 143.2  40.1  34198  290.22 0854.41
2009/04/23 13:57:40.5     277   -268    220    386    444 134.1  32.3  34202  290.29 0854.41
2009/04/23 13:57:40.6     304   -182    158    355    388 121.0  25.7  34198  290.21 0854.41
2009/04/23 13:57:40.7     217   -301    145    372    399 144.2  22.3  34198  290.20 0854.41
2009/04/23 13:57:40.8     317   -315     54    448    452 134.8   6.9  34194  290.16 0854.41
2009/04/23 13:57:40.9     296   -318     16    435    436 137.0   2.1  34184  289.97 0854.41
2009/04/23 13:57:41.0     328   -298     53    444    448 132.3   6.9  34176  289.83 0854.41
2009/04/23 13:57:41.1     408   -204     59    457    461 116.6   7.4  34174  289.80 0854.41
2009/04/23 13:57:41.2     273   -222     -6    352    353 129.1  -1.1  34180  289.91 0854.41
2009/04/23 13:57:41.3     233   -279     34    364    366 140.1   5.4  34178  289.89 0854.41
2009/04/23 13:57:41.4     239   -548    123    599    612 156.4  11.7  34178  289.86 0854.41
2009/04/23 13:57:41.5     220   -601    136    641    656 159.9  12.0  34178  289.87 0854.41
2009/04/23 13:57:41.6     216   -632     84    669    675 161.1   7.2  34174  289.80 0854.41
2009/04/23 13:57:41.7     290   -589    204    657    689 153.7  17.3  34174  289.82 0854.41
2009/04/23 13:57:41.8     345   -543    239    644    686 147.5  21.3  34172  289.77 0854.41
2009/04/23 13:57:41.9     374   -593    254    701    745 147.8  20.9  34178  289.88 0854.41
2009/04/23 13:57:42.0     369   -267    294    456    542 126.0  35.7  34176  289.83 0854.41
2009/04/23 13:57:42.1     236   -171    197    292    352 126.0  37.3  34188  290.03 0854.40
2009/04/23 13:57:42.2     264   -111    122    287    311 112.8  24.3  34176  289.85 0854.40
2009/04/23 13:57:42.3     296   -150     89    332    344 116.9  15.1  34176  289.84 0854.40
2009/04/23 13:57:42.4     127    -80     87    151    174 122.4  32.9  34180  289.92 0854.40
2009/04/23 13:57:42.5     144   -128    101    193    217 131.6  29.8  34180  289.92 0854.40
2009/04/23 13:57:42.6     312   -165     26    353    354 117.9   4.3  34178  289.86 0854.40
2009/04/23 13:57:42.7     182   -258    163    316    355 144.8  29.4  34162  289.59 0854.40
2009/04/23 13:57:42.8     212   -290    110    360    377 143.9  17.1  34174  289.81 0854.40
2009/04/23 13:57:42.9     244   -174     19    300    301 125.5   3.8  34180  289.90 0854.40
2009/04/23 13:57:43.0     214   -535    163    577    600 158.2  15.8  34166  289.66 0854.40
2009/04/23 13:57:43.2     130   -472     76    490    497 164.6   8.9  34180  289.91 0854.40
2009/04/23 13:57:43.2     202   -451    -27    495    496 155.9  -3.1  34186  290.01 0854.40
2009/04/23 13:57:43.3     109   -510   -106    522    533 167.9 -11.5  34172  289.77 0854.40
2009/04/23 13:57:43.4      16   -386    112    387    403 177.5  16.1  34188  290.06 0854.40
2009/04/23 13:57:43.5     265   -341   -102    433    445 142.1 -13.3  34182  289.95 0854.40
2009/04/23 13:57:43.6     303   -536    -18    616    617 150.5  -1.7  34180  289.91 0854.40
2009/04/23 13:57:43.7     377   -544     93    663    670 145.3   8.0  34172  289.77 0854.40
2009/04/23 13:57:43.8     257   -491     16    555    556 152.4   1.7  34186  290.02 0854.40
2009/04/23 13:57:43.9     246   -439   -101    504    515 150.7 -11.3  34186  290.01 0854.40
2009/04/23 13:57:44.0     147   -399    -16    426    427 159.8  -2.2  34190  290.07 0854.40
2009/04/23 13:57:44.1     234   -305     10    385    386 142.5   1.6  34190  290.08 0854.34
2009/04/23 13:57:44.2     308   -289     20    423    424 133.1   2.8  34196  290.19 0854.34
2009/04/23 13:57:44.3      16   -360    169    361    398 177.4  27.0  34188  290.03 0854.34
2009/04/23 13:57:44.4      36   -306    106    309    327 173.3  19.1  34192  290.10 0854.34
2009/04/23 13:57:44.5      88   -295     55    309    314 163.3  10.1  34192  290.10 0854.34
2009/04/23 13:57:44.6     134   -393    180    416    453 161.2  25.1  34192  290.11 0854.34
2009/04/23 13:57:44.7     298   -417    291    513    589 144.4  32.3  34188  290.04 0854.34
2009/04/23 13:57:44.8     244   -407    247    475    535 149.1  29.6  34186  290.00 0854.34
2009/04/23 13:57:44.9      84   -701    326    707    778 173.1  26.6  34194  290.14 0854.34
2009/04/23 13:57:45.0     122   -677    196    689    717 169.8  15.9  34194  290.15 0854.34
2009/04/23 13:57:45.1     281   -717    112    771    780 158.6   8.3  34196  290.17 0854.34
2009/04/23 13:57:45.2     307   -709     43    773    775 156.6   3.2  34190  290.08 0854.34
2009/04/23 13:57:45.3     245   -678    197    722    749 160.1  15.3  34194  290.16 0854.34
2009/04/23 13:57:45.4     142   -700    259    715    761 168.5  19.9  34194  290.16 0854.34
2009/04/23 13:57:45.5     278   -607     -2    668    669 155.4  -0.2  34198  290.21 0854.34
2009/04/23 13:57:45.6     224   -881    273    910    951 165.7  16.7  34198  290.22 0854.34
2009/04/23 13:57:45.7     165   -657    131    678    691 165.9  11.0  34200  290.24 0854.34
2009/04/23 13:57:45.8     231   -811    281    844    890 164.1  18.4  34192  290.11 0854.34
2009/04/23 13:57:45.9      -9   -870     91    871    876 180.6   6.0  34192  290.11 0854.34
2009/04/23 13:57:46.1     111   -823    205    831    857 172.3  13.9  34202  290.29 0854.34
2009/04/23 13:57:46.2     242   -602     -2    650    651 158.1  -0.2  34200  290.25 0854.38
2009/04/23 13:57:46.3      95   -508    -12    517    518 169.4  -1.4  34202  290.27 0854.38
2009/04/23 13:57:46.4    -173   -433   -134    467    486 201.8 -16.0  34208  290.40 0854.38
2009/04/23 13:57:46.5     -85   -258   -181    272    326 198.3 -41.1  34204  290.31 0854.38
2009/04/23 13:57:46.6      97   -174    -40    200    205 150.8 -11.5  34208  290.40 0854.38
2009/04/23 13:57:46.7      72   -158    110    174    205 155.3  35.5  34200  290.26 0854.38
2009/04/23 13:57:46.8     113    -99     43    151    158 131.4  16.0  34208  290.40 0854.38
2009/04/23 13:57:46.9     149   -106     74    183    197 125.5  23.1  34210  290.43 0854.38
2009/04/23 13:57:47.0     158    -86    -86    181    200 118.6 -31.6  34214  290.48 0854.38
2009/04/23 13:57:47.1      31   -128      0    132    133 166.2  -0.3  34210  290.43 0854.38
2009/04/23 13:57:47.2    -252   -149    -88    293    307 239.4 -16.8  34216  290.51 0854.38
2009/04/23 13:57:47.3     -53    151    -98    161    188 340.4 -38.8  34218  290.57 0854.38
2009/04/23 13:57:47.4     228   -294    162    373    406 142.2  25.0  34212  290.47 0854.38
2009/04/23 13:57:47.5     151   -413     22    440    441 159.9   2.9  34202  290.29 0854.38
2009/04/23 13:57:47.6     239   -403     54    469    473 149.3   6.6  34204  290.32 0854.38
2009/04/23 13:57:47.7     324   -201    101    382    396 121.9  14.9  34204  290.33 0854.38
2009/04/23 13:57:47.8     288   -125    181    315    363 113.5  32.6  34202  290.30 0854.38
2009/04/23 13:57:47.9     134   -192     95    235    253 145.0  23.0  34202  290.27 0854.38
2009/04/23 13:57:48.0     250   -111     45    274    278 114.0   9.5  34208  290.37 0854.38
2009/04/23 13:57:48.1     285   -156     30    326    328 118.8   5.4  34204  290.32 0854.38
2009/04/23 13:57:48.2     413   -243     12    480    481 120.5   1.5  34206  290.34 0854.37
2009/04/23 13:57:48.3     413   -388    122    568    582 133.2  12.1  34200  290.24 0854.37
2009/04/23 13:57:48.4     445   -448    122    632    644 135.2  11.0  34202  290.28 0854.37
2009/04/23 13:57:48.5     392   -258    -25    470    471 123.3  -3.1  34208  290.39 0854.37
2009/04/23 13:57:48.6     296   -161    -38    338    341 118.6  -6.5  34208  290.40 0854.37
2009/04/23 13:57:48.7     241    -14     25    242    244  93.5   5.9  34210  290.42 0854.37
2009/04/23 13:57:48.8     144    -11    132    145    196  94.4  47.1  34206  290.35 0854.37
2009/04/23 13:57:48.9     185   -255    184    316    365 144.0  33.0  34208  290.38 0854.37
2009/04/23 13:57:49.0     261   -200    202    330    386 127.5  34.4  34208  290.37 0854.37
2009/04/23 13:57:49.1     226   -154    151    274    312 124.4  31.3  34208  290.39 0854.37
2009/04/23 13:57:49.2      41   -264    102    268    286 171.1  22.0  34210  290.41 0854.37
2009/04/23 13:57:49.3     283   -290     34    406    408 135.7   4.9  34208  290.38 0854.37
2009/04/23 13:57:49.4     386   -241    112    456    470 122.0  13.8  34214  290.49 0854.37
2009/04/23 13:57:49.5      72   -223    245    235    339 162.0  51.3  34212  290.46 0854.37
2009/04/23 13:57:49.6     278   -382    113    473    487 143.9  13.5  34206  290.34 0854.37
2009/04/23 13:57:49.7     269   -304    157    407    436 138.5  22.2  34196  290.19 0854.37
2009/04/23 13:57:49.8     202   -346    175    401    437 149.7  25.1  34210  290.43 0854.37
2009/04/23 13:57:49.9     185   -127      4    225    226 124.4   1.2  34204  290.33 0854.37
2009/04/23 13:57:50.0      81   -119     -2    145    146 145.8  -1.2  34210  290.43 0854.37
2009/04/23 13:57:50.1     169    -43   -105    175    204 104.4 -38.4  34212  290.47 0854.37
2009/04/23 13:57:50.2     194    -52    -39    201    205 105.1 -11.1  34218  290.55 0854.40
2009/04/23 13:57:50.3     178     38    -72    183    196  77.8 -27.2  34214  290.50 0854.40
2009/04/23 13:57:50.4     113      8    -37    114    120  85.6 -18.1  34214  290.48 0854.40
2009/04/23 13:57:50.5     146    -35     -1    151    152 103.7  -0.7  34212  290.47 0854.40
2009/04/23 13:57:50.6     158    -13     -5    159    160  94.8  -2.1  34216  290.52 0854.40
2009/04/23 13:57:50.7     132      5     47    133    142  87.5  19.4  34218  290.55 0854.40
2009/04/23 13:57:50.8     180      3     65    181    192  88.7  20.2  34210  290.41 0854.40
2009/04/23 13:57:50.9     329   -124    130    352    375 110.8  21.1  34216  290.52 0854.40
2009/04/23 13:57:51.0     256    -30     60    258    266  96.8  13.2  34218  290.54 0854.40
2009/04/23 13:57:51.1     216    -78    201    230    305 109.9  45.8  34222  290.61 0854.40
2009/04/23 13:57:51.2     130   -133    146    187    237 135.7  41.7  34226  290.69 0854.40
2009/04/23 13:57:51.3     106   -332     42    349    352 162.3   6.9  34208  290.38 0854.40
2009/04/23 13:57:51.4     134   -376    150    400    427 160.3  21.6  34220  290.58 0854.40
2009/04/23 13:57:51.5     250   -316    147    404    429 141.6  20.9  34220  290.58 0854.40
2009/04/23 13:57:51.6     273   -280    138    392    415 135.7  20.1  34218  290.55 0854.40
2009/04/23 13:57:51.7     192   -217    150    291    327 138.5  29.4  34220  290.58 0854.40
2009/04/23 13:57:51.8     121   -191    170    227    283 147.7  40.7  34220  290.58 0854.40
2009/04/23 13:57:51.9     103   -274    119    293    316 159.3  23.5  34210  290.42 0854.40
2009/04/23 13:57:52.0     -81   -290    205    302    365 195.6  37.4  34214  290.50 0854.40
2009/04/23 13:57:52.1    -120   -243    118    271    295 206.3  25.1  34216  290.53 0854.40
2009/04/23 13:57:52.2      26   -362    165    363    398 175.9  26.2  34216  290.52 0854.44
2009/04/23 13:57:52.3     172   -284    149    333    364 148.8  25.8  34220  290.59 0854.44
2009/04/23 13:57:52.4     206   -261    271    333    429 141.8  43.5  34216  290.52 0854.44
2009/04/23 13:57:52.5     271   -139    255    305    397 117.3  44.2  34226  290.69 0854.44
2009/04/23 13:57:52.6     301     17    235    302    382  86.6  41.9  34230  290.76 0854.44
2009/04/23 13:57:52.7     218     79    161    233    283  70.0  37.8  34230  290.75 0854.44
2009/04/23 13:57:52.8     256   -116    108    282    301 114.4  22.0  34218  290.56 0854.44
2009/04/23 13:57:52.9     206   -347    274    404    488 149.3  37.4  34204  290.33 0854.44
2009/04/23 13:57:53.0     210   -260    145    335    365 141.2  25.1  34204  290.32 0854.44
2009/04/23 13:57:53.1      70   -370     88    377    388 169.3  13.2  34204  290.32 0854.44
2009/04/23 13:57:53.2    -276   -331    -39    432    434 219.8  -5.2  34208  290.38 0854.44
2009/04/23 13:57:53.3    -192   -231     25    301    303 219.7   4.9  34212  290.44 0854.44
2009/04/23 13:57:53.4    -186   -302      0    355    356 211.7   0.0  34218  290.57 0854.44
2009/04/23 13:57:53.5    -168   -292    -18    338    339 209.9  -3.2  34224  290.66 0854.44
2009/04/23 13:57:53.6     -93   -224     25    243    245 202.7   5.9  34226  290.70 0854.44
2009/04/23 13:57:53.7       1   -142     -5    143    144 179.5  -2.2  34226  290.69 0854.44
2009/04/23 13:57:53.8     171    -19     13    173    174  96.6   4.4  34216  290.52 0854.44
2009/04/23 13:57:53.9     212    -16    112    213    240  94.4  30.1  34218  290.55 0854.44
2009/04/23 13:57:54.0     130    -91    123    159    201 125.1  41.7  34218  290.55 0854.44
2009/04/23 13:57:54.1     163    -76     22    181    183 115.1   7.2  34206  290.35 0854.44
2009/04/23 13:57:54.2     285    123    -96    311    325  66.7 -22.2  34214  290.49 0854.45
2009/04/23 13:57:54.3     296   -100     32    313    315 108.8   5.9  34214  290.49 0854.45
2009/04/23 13:57:54.4     167   -127     17    210    211 127.3   4.9  34218  290.55 0854.45
2009/04/23 13:57:54.5     120    -61     16    135    137 117.1   7.1  34218  290.57 0854.45
2009/04/23 13:57:54.6     100    -23     14    103    105 103.3   8.0  34218  290.57 0854.45
2009/04/23 13:57:54.7     -82    -92     92    124    154 221.4  39.7  34220  290.60 0854.45
2009/04/23 13:57:54.8     117     24    150    120    192  78.1  56.9  34206  290.36 0854.45
2009/04/23 13:57:54.9      12   -499    353    500    612 178.6  38.6  34194  290.14 0854.45
2009/04/23 13:57:55.0    -176   -506    328    536    628 199.2  34.3  34194  290.15 0854.45
2009/04/23 13:57:55.1      98   -178    299    204    361 151.0  62.6  34206  290.34 0854.45
2009/04/23 13:57:55.2    -166   -486    365    514    630 198.9  38.8  34212  290.47 0854.45
2009/04/23 13:57:55.3    -318   -328   -135    458    478 224.1 -16.5  34200  290.25 0854.45
2009/04/23 13:57:55.4     -42   -360    -75    363    371 186.7 -11.8  34210  290.43 0854.45
2009/04/23 13:57:55.5     -32   -534   -143    535    554 183.5 -15.0  34210  290.41 0854.45
2009/04/23 13:57:55.6     -20   -311   -121    312    334 183.8 -26.7  34204  290.31 0854.45
2009/04/23 13:57:55.7     -50   -356   -105    360    375 188.1 -21.1  34208  290.40 0854.45
2009/04/23 13:57:55.8      10   -268   -272    269    382 177.8 -54.6  34216  290.52 0854.45
2009/04/23 13:57:55.9    -200   -213   -113    293    314 223.2 -26.6  34218  290.56 0854.45
2009/04/23 13:57:56.0    -215   -100   -163    238    288 244.9 -42.0  34220  290.58 0854.45
2009/04/23 13:57:56.1    -142     56   -127    153    198 291.7 -48.2  34218  290.57 0854.45
2009/04/23 13:57:56.2     -16     79    -30     81     86 348.4 -24.8  34214  290.50 0854.47
2009/04/23 13:57:56.3     134     85    128    160    204  57.5  43.0  34212  290.47 0854.47
2009/04/23 13:57:56.4     135    -59    201    148    249 113.5  60.0  34202  290.28 0854.47
2009/04/23 13:57:56.5      -4     99    217    100    238 357.3  73.8  34220  290.60 0854.47
2009/04/23 13:57:56.6       0    -55    268     56    273 180.9  89.0  34218  290.57 0854.47
2009/04/23 13:57:56.7      61   -140    241    154    286 156.3  64.6  34218  290.54 0854.47
2009/04/23 13:57:56.8      96   -100    176    139    224 136.3  57.9  34220  290.58 0854.47
2009/04/23 13:57:56.9      33     58    171     67    183  29.9  77.6  34238  290.89 0854.47
2009/04/23 13:57:57.0       8     98    195     99    218   4.9  71.0  34242  290.98 0854.47
2009/04/23 13:57:57.1     113     51    264    125    292  65.6  73.1  34226  290.70 0854.47
2009/04/23 13:57:57.2     186    -37    272    190    331 101.4  61.7  34218  290.56 0854.47
2009/04/23 13:57:57.3     -46   -228    136    233    269 191.6  32.9  34212  290.44 0854.47
2009/04/23 13:57:57.4     -86   -341    113    352    370 194.3  17.8  34208  290.38 0854.47
2009/04/23 13:57:57.5     -46   -362    282    365    461 187.3  41.6  34206  290.34 0854.47
2009/04/23 13:57:57.6     -82   -514    310    521    606 189.1  33.5  34210  290.41 0854.47
2009/04/23 13:57:57.7    -253   -566    366    620    719 204.1  33.4  34200  290.26 0854.47
2009/04/23 13:57:57.8    -328   -631    397    712    815 207.5  31.5  34206  290.34 0854.47
2009/04/23 13:57:57.9    -289   -560    494    631    801 207.3  42.0  34196  290.18 0854.47
2009/04/23 13:57:58.0    -106   -291    517    310    602 200.1  66.4  34214  290.50 0854.47
2009/04/23 13:57:58.1     230    -75      8    243    244 108.2   2.1  34216  290.51 0854.47
2009/04/23 13:57:58.2       9    -66    -27     67     72 172.0 -27.4  34222  290.64 0854.48
2009/04/23 13:57:58.3     142    -10    151    143    207  94.3  51.6  34234  290.82 0854.48
2009/04/23 13:57:58.4     262     -7    121    263    289  91.7  26.6  34240  290.92 0854.48
2009/04/23 13:57:58.5      78    168    146    186    236  24.9  42.2  34248  291.06 0854.48
2009/04/23 13:57:58.6      -4    -93    147     94    174 182.7  64.6  34242  290.96 0854.48
2009/04/23 13:57:58.7     181     61    223    192    294  71.2  55.0  34282  291.63 0854.48
2009/04/23 13:57:58.8     235      0    287    236    371  89.9  56.4  34262  291.32 0854.48
2009/04/23 13:57:58.9     -17     53    245     56    251 341.3  87.7  34256  291.21 0854.48
2009/04/23 13:57:59.0      26     26    214     37    217  45.0  90.0  34258  291.23 0854.48
2009/04/23 13:57:59.1     122     17    229    124    260  82.1  69.3  34234  290.84 0854.48
2009/04/23 13:57:59.2      12    -47    135     49    143 164.9  79.2  34226  290.70 0854.48
2009/04/23 13:57:59.3      69    -38     98     79    125 118.8  56.9  34226  290.69 0854.48
2009/04/23 13:57:59.4     -15   -146    110    147    183 186.2  40.4  34220  290.60 0854.48
2009/04/23 13:57:59.5     -46   -260    116    265    289 190.0  25.2  34206  290.36 0854.48
2009/04/23 13:57:59.6    -212   -219     94    306    321 224.1  17.1  34190  290.09 0854.48
2009/04/23 13:57:59.7    -191   -120    -97    226    245 237.8 -29.3  34200  290.26 0854.48
2009/04/23 13:57:59.8     -19   -152   -131    154    202 187.1 -49.2  34206  290.35 0854.48
2009/04/23 13:57:59.9       2   -188    -57    189    198 179.1 -17.0  34206  290.35 0854.48
2009/04/23 13:58:00.0     123    -83    -30    149    152 124.2 -11.5  34212  290.45 0854.48
2009/04/23 13:58:00.1     138    -33    -69    143    158 103.7 -32.2  34210  290.43 0854.48
2009/04/23 13:58:00.2     -17   -171    175    172    245 185.8  50.4  34212  290.45 0854.49
2009/04/23 13:58:00.3       4   -177    134    178    222 178.6  40.7  34216  290.52 0854.49
2009/04/23 13:58:00.4     -85   -113     72    142    159 217.0  29.1  34206  290.35 0854.49
2009/04/23 13:58:00.5     -71     53    -29     89     93 306.9 -23.8  34208  290.38 0854.49
2009/04/23 13:58:00.6      89     86    115    124    169  46.0  47.9  34216  290.52 0854.49
2009/04/23 13:58:00.7      55     37    136     67    151  55.8  72.8  34218  290.55 0854.49
2009/04/23 13:58:00.8      38     25    126     46    134  55.8  79.7  34230  290.75 0854.49
2009/04/23 13:58:00.9       4     56    130     57    141   4.5  75.0  34232  290.81 0854.49
2009/04/23 13:58:01.0       6     32    164     33    167  11.6  89.1  34240  290.92 0854.49
2009/04/23 13:58:01.1     -47   -231    221    236    323 191.6  47.9  34210  290.42 0854.49
2009/04/23 13:58:01.2    -113   -295    194    316    370 201.0  34.6  34202  290.30 0854.50
2009/04/23 13:58:01.3    -145   -330     88    361    372 203.7  13.8  34202  290.28 0854.50
2009/04/23 13:58:01.4    -212   -312    191    378    423 214.3  28.7  34204  290.33 0854.50
2009/04/23 13:58:01.5    -191   -374     84    420    429 207.1  11.3  34206  290.34 0854.50
2009/04/23 13:58:01.6    -135   -225    167    263    311 211.0  35.5  34208  290.37 0854.50
2009/04/23 13:58:01.7    -119   -249    100    277    294 205.6  20.9  34206  290.36 0854.50
2009/04/23 13:58:01.8      -8   -256    115    257    281 181.8  25.7  34206  290.34 0854.50
2009/04/23 13:58:01.9      28   -339    120    341    362 175.2  19.4  34204  290.32 0854.50
2009/04/23 13:58:02.0     -17   -444    116    445    460 182.2  14.6  34192  290.11 0854.50
2009/04/23 13:58:02.1     -75   -442    183    449    484 189.7  23.5  34196  290.18 0854.50
2009/04/23 13:58:02.2     -35   -501    256    503    564 184.0  29.2  34190  290.09 0854.50
2009/04/23 13:58:02.3     -20   -406    185    407    447 182.9  26.2  34194  290.16 0854.50
2009/04/23 13:58:02.4    -176   -358     87    400    410 206.2  12.4  34184  289.99 0854.50
2009/04/23 13:58:02.5     -73   -494    104    500    511 188.5  11.8  34194  290.15 0854.50
2009/04/23 13:58:02.6      70   -449    164    455    483 171.1  20.6  34192  290.10 0854.50
2009/04/23 13:58:02.7     -29   -482    206    483    525 183.5  24.6  34190  290.08 0854.50
2009/04/23 13:58:02.8     131   -455     63    474    479 163.9   7.6  34188  290.06 0854.50
2009/04/23 13:58:02.9    -276   -610    291    670    730 204.4  25.0  34196  290.17 0854.50
2009/04/23 13:58:03.0    -189   -452    173    491    521 202.7  19.4  34190  290.08 0854.50
2009/04/23 13:58:03.1    -360   -584    244    687    729 211.6  20.3  34182  289.96 0854.50
2009/04/23 13:58:03.2    -310   -393    303    501    585 218.3  34.0  34186  290.02 0854.50
2009/04/23 13:58:03.3      13   -298    303    299    425 177.4  50.2  34194  290.15 0854.50
2009/04/23 13:58:03.4     116   -245    254    272    372 154.7  47.9  34194  290.15 0854.50
2009/04/23 13:58:03.5     204   -191    189    280    337 133.1  37.3  34186  290.02 0854.50
2009/04/23 13:58:03.6     177   -121    227    215    312 124.4  51.9  34204  290.32 0854.50
2009/04/23 13:58:03.7     267    -77    260    278    380 106.2  48.0  34200  290.25 0854.50
2009/04/23 13:58:03.8     113    -30    227    118    255 105.1  70.6  34200  290.26 0854.50
2009/04/23 13:58:03.9     301    -57    136    307    335 100.8  25.3  34194  290.14 0854.50
2009/04/23 13:58:04.0      88   -195    140    215    256 155.7  36.0  34198  290.22 0854.50
2009/04/23 13:58:04.1      16   -220    112    221    247 175.8  29.1  34200  290.24 0854.50
2009/04/23 13:58:04.2      42   -221     23    226    228 169.1   5.9  34194  290.16 0854.50
2009/04/23 13:58:04.3      33   -197    118    200    232 170.2  33.5  34198  290.21 0854.50
2009/04/23 13:58:04.4     253   -208    102    328    344 129.5  17.3  34186  290.01 0854.50
2009/04/23 13:58:04.5     237   -151    214    282    354 122.5  41.2  34192  290.11 0854.50
2009/04/23 13:58:04.6     253   -100    264    273    379 111.7  49.1  34196  290.18 0854.50
2009/04/23 13:58:04.7      80    -33    167     87    188 112.6  70.4  34204  290.31 0854.50
2009/04/23 13:58:04.8     102   -257    184    277    332 158.2  36.7  34192  290.10 0854.50
2009/04/23 13:58:04.9     100   -288    155    305    342 160.8  29.1  34188  290.03 0854.50
2009/04/23 13:58:05.0      92   -317    128    331    354 163.9  22.2  34182  289.96 0854.50
2009/04/23 13:58:05.1     122   -405    157    424    452 163.2  21.1  34190  290.07 0854.50
2009/04/23 13:58:05.2     189   -322    125    374    395 149.6  18.6  34192  290.10 0854.49
2009/04/23 13:58:05.3     184   -616    192    643    672 163.4  16.7  34184  289.97 0854.49
2009/04/23 13:58:05.4     154   -519    189    542    574 163.5  20.0  34174  289.82 0854.49
2009/04/23 13:58:05.5     -35   -749    269    750    796 182.7  20.6  34186  290.02 0854.49
2009/04/23 13:58:05.6     161   -539    198    563    597 163.3  19.4  34186  290.00 0854.49
2009/04/23 13:58:05.7     110   -431     21    446    447 165.6   2.8  34192  290.11 0854.49
2009/04/23 13:58:05.8     294   -424     64    517    522 145.3   7.1  34184  289.97 0854.49
2009/04/23 13:58:05.9      60   -372    179    377    417 170.8  27.3  34172  289.77 0854.49
2009/04/23 13:58:06.0     242   -454    189    515    548 151.9  21.1  34174  289.82 0854.49
2009/04/23 13:58:06.1     237   -478    322    534    623 153.6  34.0  34172  289.78 0854.49
2009/04/23 13:58:06.2     193   -450    282    490    565 156.8  32.4  34182  289.94 0854.49
2009/04/23 13:58:06.3     161   -458    321    486    582 160.6  36.5  34180  289.90 0854.49
2009/04/23 13:58:06.4     285   -345    285    448    530 140.4  35.5  34192  290.10 0854.49
2009/04/23 13:58:06.5     163   -256    228    304    380 147.4  40.6  34184  289.98 0854.49
2009/04/23 13:58:06.6     266   -137    181    300    350 117.3  34.1  34192  290.10 0854.49
2009/04/23 13:58:06.7     221   -207    150    304    338 133.1  28.2  34194  290.15 0854.49
2009/04/23 13:58:06.8     245   -271    250    366    443 138.0  37.6  34190  290.07 0854.49
2009/04/23 13:58:06.9     380   -321    136    498    517 130.2  15.3  34192  290.10 0854.49
2009/04/23 13:58:07.0     252   -396    174    470    501 147.5  21.3  34188  290.06 0854.49
2009/04/23 13:58:07.1     212   -435    224    485    534 154.0  26.6  34188  290.05 0854.49
2009/04/23 13:58:07.2     210   -362    152    419    445 149.9  20.8  34178  289.87 0854.51
2009/04/23 13:58:07.3     223   -392     58    452    456 150.4   7.4  34182  289.95 0854.51
2009/04/23 13:58:07.4     192   -296     68    354    361 147.0  11.0  34178  289.89 0854.51
2009/04/23 13:58:07.5     186   -247     95    310    325 143.0  17.1  34186  290.00 0854.51
2009/04/23 13:58:07.6     229   -362    125    429    447 147.6  16.3  34184  289.99 0854.51
2009/04/23 13:58:07.7     115   -355    175    374    412 162.0  27.0  34174  289.82 0854.51
2009/04/23 13:58:07.8     -49   -403    231    407    467 187.0  32.3  34178  289.88 0854.51
2009/04/23 13:58:07.9     -30   -425    236    427    487 184.1  31.4  34172  289.79 0854.51
2009/04/23 13:58:08.0     -60   -346    262    352    438 189.9  40.4  34162  289.60 0854.51
2009/04/23 13:58:08.1     -28   -304    323    306    444 185.3  51.9  34186  290.02 0854.51
2009/04/23 13:58:08.2      24   -366    282    367    462 176.1  41.6  34190  290.09 0854.51
2009/04/23 13:58:08.3      41   -312    278    315    420 172.4  45.9  34194  290.16 0854.51
2009/04/23 13:58:08.4     201   -169    204    263    332 130.0  41.7  34190  290.09 0854.51
2009/04/23 13:58:08.5     295   -150    138    332    359 117.0  23.9  34178  289.86 0854.51
2009/04/23 13:58:08.6     315   -220    187    385    428 125.0  27.8  34186  290.00 0854.51
2009/04/23 13:58:08.8     148   -237    131    280    309 148.1  27.1  34184  289.97 0854.51
2009/04/23 13:58:08.8     218   -266    150    345    376 140.6  25.0  34170  289.74 0854.51
2009/04/23 13:58:08.9      73   -327     39    336    339 167.3   6.7  34180  289.91 0854.51
2009/04/23 13:58:09.0     101   -306     26    323    325 161.7   4.7  34180  289.90 0854.51
2009/04/23 13:58:09.1     231   -231    -39    327    330 135.0  -6.8  34178  289.87 0854.51
2009/04/23 13:58:09.2     266   -212    -99    341    356 128.6 -16.2  34178  289.89 0854.51
2009/04/23 13:58:09.3     112   -283     86    305    317 158.4  15.8  34180  289.92 0854.51
2009/04/23 13:58:09.5      74   -331    167    340    378 167.4  28.0  34182  289.96 0854.51
2009/04/23 13:58:09.5      -5   -300    125    301    325 181.0  23.9  34176  289.85 0854.51
2009/04/23 13:58:09.6     257   -163    107    305    323 122.4  20.1  34180  289.90 0854.51
2009/04/23 13:58:09.7     362   -201    150    415    442 119.0  19.9  34190  290.07 0854.51
2009/04/23 13:58:09.8     146   -213    -86    259    272 145.5 -23.8  34186  290.02 0854.51
2009/04/23 13:58:09.9      99   -156    -45    186    192 147.5 -13.7  34188  290.04 0854.51
2009/04/23 13:58:10.0     -14   -175     36    176    180 184.9  11.6  34188  290.06 0854.51
2009/04/23 13:58:10.1      90   -236     16    253    254 159.1   3.8  34194  290.14 0854.51
2009/04/23 13:58:10.2      79   -272     55    284    290 163.7  11.1  34188  290.03 0854.51
2009/04/23 13:58:10.3     140   -218    179    260    315 147.3  37.9  34182  289.93 0854.51
2009/04/23 13:58:10.4     130   -167    240    212    320 142.2  54.0  34176  289.83 0854.51
2009/04/23 13:58:10.5      48   -239    102    244    264 168.5  24.1  34168  289.70 0854.51
2009/04/23 13:58:10.6     203   -191    122    279    304 133.2  25.2  34172  289.76 0854.51
2009/04/23 13:58:10.7     123   -261    135    289    318 154.7  26.9  34172  289.78 0854.51
2009/04/23 13:58:10.8     203   -184      8    274    275 132.2   1.8  34186  290.02 0854.51
2009/04/23 13:58:10.9     134   -116    -73    178    192 130.7 -27.8  34192  290.11 0854.51
2009/04/23 13:58:11.0     269   -133    -67    301    309 116.4 -12.6  34188  290.03 0854.51
2009/04/23 13:58:11.1     330   -109    107    348    365 108.3  17.1  34174  289.81 0854.51
2009/04/23 13:58:11.2     204    -99    110    228    253 116.0  27.4  34178  289.86 0854.48
2009/04/23 13:58:11.3     136    -62     84    150    171 114.8  31.9  34182  289.94 0854.48
2009/04/23 13:58:11.4     118   -118    156    168    229 134.9  47.9  34184  289.99 0854.48
2009/04/23 13:58:11.5     131   -205    191    244    309 147.4  42.0  34180  289.90 0854.48
2009/04/23 13:58:11.6      53   -160    189    169    253 161.7  53.3  34182  289.94 0854.48
2009/04/23 13:58:11.7      14   -104    149    106    182 172.0  61.3  34184  289.99 0854.48
2009/04/23 13:58:11.8     124   -180    104    219    242 145.5  27.1  34184  289.98 0854.48
2009/04/23 13:58:11.9     219   -112    202    246    318 117.1  43.6  34184  289.97 0854.48
2009/04/23 13:58:12.0     338   -314    151    462    487 132.9  18.1  34188  290.03 0854.48
2009/04/23 13:58:12.1     369   -248    165    445    474 124.0  21.4  34188  290.05 0854.48
2009/04/23 13:58:12.2     133   -387    220    410    465 160.9  30.6  34174  289.82 0854.48
2009/04/23 13:58:12.3     112   -542     93    554    562 168.3   9.6  34186  290.02 0854.48
2009/04/23 13:58:12.4      90   -527     37    535    537 170.3   4.0  34186  290.02 0854.48
2009/04/23 13:58:12.5     118   -456    -15    472    473 165.5  -1.9  34186  290.01 0854.48
2009/04/23 13:58:12.6     223   -389     47    449    452 150.1   6.1  34176  289.83 0854.48
2009/04/23 13:58:12.7     352   -375    232    515    564 136.8  25.9  34182  289.94 0854.48
2009/04/23 13:58:12.8     347   -368    129    507    524 136.7  14.3  34182  289.96 0854.48
2009/04/23 13:58:12.9     320   -556    197    642    672 150.1  17.1  34184  289.99 0854.48
2009/04/23 13:58:13.0     296   -497     75    579    584 149.2   7.4  34192  290.12 0854.48
2009/04/23 13:58:13.1     254   -533     61    591    595 154.5   5.9  34192  290.10 0854.48
2009/04/23 13:58:13.2     321   -619    108    698    707 152.6   8.8  34188  290.05 0854.46
2009/04/23 13:58:13.3     254   -463   -122    529    543 151.3 -13.0  34188  290.04 0854.46
2009/04/23 13:58:13.5     331   -375    -95    501    511 138.6 -10.8  34186  290.00 0854.46
2009/04/23 13:58:13.6     377   -243    -64    449    454 122.9  -8.2  34188  290.05 0854.46
2009/04/23 13:58:13.6     401    -77     12    409    410 100.9   1.7  34184  289.97 0854.46
2009/04/23 13:58:13.8     371    -96     57    384    389 104.5   8.5  34178  289.89 0854.46
2009/04/23 13:58:13.9     122   -203    109    237    260 149.0  26.4  34186  290.00 0854.46
2009/04/23 13:58:14.0     100   -167     24    195    197 149.0   7.2  34186  290.02 0854.46
2009/04/23 13:58:14.1      93   -296     89    311    324 162.6  16.0  34192  290.10 0854.46
2009/04/23 13:58:14.2     149   -275     -2    314    315 151.5  -0.4  34188  290.05 0854.46
2009/04/23 13:58:14.3      39   -357     -7    360    361 173.7  -1.3  34186  290.01 0854.46
2009/04/23 13:58:14.4     223   -136    -72    262    272 121.5 -15.4  34190  290.09 0854.46
2009/04/23 13:58:14.5     200   -111    -62    229    238 119.1 -15.2  34192  290.12 0854.46
2009/04/23 13:58:14.6     165   -105     37    196    200 122.5  10.8  34186  290.01 0854.46
2009/04/23 13:58:14.7     209   -102     77    233    246 116.2  18.5  34188  290.05 0854.46
2009/04/23 13:58:14.8      77   -142    179    162    241 151.5  53.3  34198  290.21 0854.46
2009/04/23 13:58:14.9     -17   -105    184    107    212 189.3  67.0  34204  290.33 0854.46
2009/04/23 13:58:15.0    -102   -324    242    340    417 197.6  39.1  34192  290.10 0854.46
2009/04/23 13:58:15.1       0   -264    172    265    315 179.9  36.2  34194  290.15 0854.46
2009/04/23 13:58:15.2      86   -247     78    262    274 160.8  16.6  34196  290.19 0854.46
2009/04/23 13:58:15.3     130   -175    119    219    249 143.3  30.8  34202  290.29 0854.47
2009/04/23 13:58:15.4     175   -162     83    239    254 132.9  19.2  34200  290.24 0854.47
2009/04/23 13:58:15.5     112   -125    -74    168    183 138.1 -29.5  34196  290.18 0854.47
2009/04/23 13:58:15.6     138   -136    -75    194    207 134.6 -26.4  34192  290.13 0854.47
2009/04/23 13:58:15.7     172    -88    -68    194    205 117.3 -24.0  34196  290.19 0854.47
2009/04/23 13:58:15.8     233    -76    -69    246    256 108.2 -15.8  34196  290.19 0854.47
2009/04/23 13:58:15.9     198   -117     -5    231    232 120.7  -1.3  34198  290.23 0854.47
2009/04/23 13:58:16.0     201   -102     24    226    228 116.9   6.1  34200  290.25 0854.47
2009/04/23 13:58:16.1     196    -70     57    209    217 109.7  15.3  34198  290.23 0854.47
2009/04/23 13:58:16.2     276    -34     54    279    285  97.2  11.0  34200  290.24 0854.47
2009/04/23 13:58:16.3     234   -346    264    418    494 145.9  35.5  34194  290.15 0854.47
2009/04/23 13:58:16.4     145   -443    288    467    548 161.9  34.5  34190  290.07 0854.47
2009/04/23 13:58:16.5     454   -215    266    503    569 115.3  30.2  34196  290.19 0854.47
2009/04/23 13:58:16.6     476   -261     49    544    547 118.8   5.2  34194  290.16 0854.47
2009/04/23 13:58:16.7     239   -355    167    429    460 146.1  22.7  34198  290.22 0854.47
2009/04/23 13:58:16.8     249   -362    -37    440    442 145.5  -4.9  34196  290.19 0854.47
2009/04/23 13:58:16.9     360   -226     11    426    427 122.1   1.6  34200  290.26 0854.47
2009/04/23 13:58:17.0     338   -252      6    422    423 126.8   0.8  34200  290.26 0854.47
2009/04/23 13:58:17.1     224   -139    -10    264    265 121.8  -2.2  34206  290.36 0854.47
2009/04/23 13:58:17.2     158   -120    -18    199    200 127.1  -5.4  34206  290.36 0854.47
2009/04/23 13:58:17.3     228   -108     99    253    271 115.3  22.5  34202  290.29 0854.50
2009/04/23 13:58:17.4     247    -46    -20    252    253 100.6  -4.6  34204  290.31 0854.50
2009/04/23 13:58:17.5     113     24    -34    116    122  77.6 -16.6  34204  290.31 0854.50
2009/04/23 13:58:17.6     196   -110    -82    225    239 119.3 -25.3  34206  290.36 0854.50
2009/04/23 13:58:17.7     144    -68    -14    160    161 115.4  -5.2  34204  290.33 0854.50
2009/04/23 13:58:17.8     119    -80     28    144    147 124.2  11.1  34204  290.31 0854.50
2009/04/23 13:58:17.9     196    -39     22    200    202 101.5   6.5  34204  290.33 0854.50
2009/04/23 13:58:18.0     258   -175    -33    313    315 124.2  -6.1  34210  290.42 0854.50
2009/04/23 13:58:18.1     232   -276    137    361    386 139.9  21.8  34212  290.47 0854.50
2009/04/23 13:58:18.2     362   -195   -143    412    436 118.3 -24.3  34210  290.41 0854.50
2009/04/23 13:58:18.3     336   -319    -72    464    470 133.5  -8.8  34206  290.34 0854.50
2009/04/23 13:58:18.4     318   -428    -56    534    538 143.4  -6.1  34212  290.46 0854.50
2009/04/23 13:58:18.5     219   -490    -64    537    541 155.9  -6.9  34208  290.40 0854.50
2009/04/23 13:58:18.6     314   -552      9    636    637 150.4   0.9  34206  290.35 0854.50
2009/04/23 13:58:18.7     268   -533    -17    597    598 153.3  -1.7  34212  290.44 0854.50
2009/04/23 13:58:18.8     212   -411    -67    463    468 152.7  -8.3  34194  290.15 0854.50
2009/04/23 13:58:18.9     279   -493     37    567    569 150.5   3.8  34200  290.24 0854.50
2009/04/23 13:58:19.0     250   -442    -12    508    509 150.5  -1.4  34198  290.22 0854.50
2009/04/23 13:58:19.1     175   -382     27    421    422 155.4   3.8  34200  290.26 0854.50
2009/04/23 13:58:19.2      59   -368    121    373    393 170.9  18.0  34204  290.32 0854.50
2009/04/23 13:58:19.3      50   -489     77    492    499 174.1   8.9  34208  290.37 0854.51
2009/04/23 13:58:19.4     192   -527     79    562    568 160.0   8.0  34214  290.48 0854.51
2009/04/23 13:58:19.5     264   -522    -32    585    586 153.2  -3.1  34216  290.53 0854.51
2009/04/23 13:58:19.6     301   -578     11    652    653 152.5   1.0  34198  290.20 0854.51
2009/04/23 13:58:19.7     197   -590      3    623    624 161.5   0.3  34206  290.35 0854.51
2009/04/23 13:58:19.8     130   -588   -100    603    612 167.5  -9.5  34212  290.47 0854.51
2009/04/23 13:58:19.9     -38   -691   -129    693    705 183.2 -10.6  34222  290.61 0854.51
2009/04/23 13:58:20.0      19   -523   -157    524    548 177.9 -16.7  34226  290.69 0854.51
2009/04/23 13:58:20.1     -32   -473   -183    475    509 183.9 -26.6  34234  290.83 0854.51
2009/04/23 13:58:20.2     -67   -506   -171    511    538 187.6 -23.3  34226  290.69 0854.51
2009/04/23 13:58:20.3     -58   -574    -55    578    581 185.8  -5.5  34228  290.71 0854.51
2009/04/23 13:58:20.4       7   -473   -117    474    489 179.1 -13.9  34218  290.56 0854.51
2009/04/23 13:58:20.5      24   -620   -211    621    657 177.8 -18.8  34218  290.55 0854.51
2009/04/23 13:58:20.6      54   -553   -100    556    566 174.4 -10.3  34220  290.60 0854.51
2009/04/23 13:58:20.7      24   -470    -87    471    479 177.0 -10.5  34216  290.52 0854.51
2009/04/23 13:58:20.8    -172   -484    -34    514    516 199.6  -3.8  34228  290.71 0854.51
2009/04/23 13:58:20.9     -98   -569    -31    578    579 189.8  -3.1  34236  290.85 0854.51
2009/04/23 13:58:21.0     -18   -578    -37    579    581 181.8  -3.7  34242  290.98 0854.51
2009/04/23 13:58:21.1     -52   -668     57    671    674 184.5   4.9  34226  290.70 0854.51
2009/04/23 13:58:21.2      88   -618     39    625    627 171.9   3.6  34228  290.71 0854.51
2009/04/23 13:58:21.3     141   -680    -33    695    696 168.2  -2.8  34222  290.63 0854.52
2009/04/23 13:58:21.4      96   -645   -113    653    663 171.5  -9.9  34218  290.55 0854.52
2009/04/23 13:58:21.5     122   -628   -127    640    653 169.0 -11.2  34208  290.40 0854.52
2009/04/23 13:58:21.6     132   -549    -81    565    571 166.4  -8.2  34214  290.49 0854.52
2009/04/23 13:58:21.7     185   -557    -57    587    590 161.6  -5.6  34216  290.51 0854.52
2009/04/23 13:58:21.8     140   -593   -105    610    620 166.7  -9.8  34208  290.37 0854.52
2009/04/23 13:58:21.9     170   -559   -129    585    600 163.1 -12.5  34208  290.37 0854.52
2009/04/23 13:58:22.0     181   -608    -76    635    640 163.4  -6.9  34202  290.30 0854.52
2009/04/23 13:58:22.1     205   -577    -66    613    617 160.4  -6.2  34208  290.37 0854.52
2009/04/23 13:58:22.2     134   -607    -96    622    630 167.5  -8.8  34212  290.45 0854.52
2009/04/23 13:58:22.3     131   -570   -152    585    605 167.0 -14.6  34212  290.46 0854.51
2009/04/23 13:58:22.4     141   -643   -163    659    679 167.6 -13.9  34210  290.43 0854.51
2009/04/23 13:58:22.5     192   -526     53    561    564 160.0   5.4  34204  290.31 0854.51
2009/04/23 13:58:22.6     261   -472    -21    540    541 151.0  -2.3  34200  290.26 0854.51
2009/04/23 13:58:22.7     248   -421    -67    489    494 149.5  -7.9  34200  290.25 0854.51
2009/04/23 13:58:22.8     127   -465    -56    483    487 164.7  -6.7  34212  290.44 0854.51
2009/04/23 13:58:22.9     135   -422    -97    444    455 162.2 -12.4  34218  290.55 0854.51
2009/04/23 13:58:23.0     196   -411    -92    456    466 154.5 -11.5  34210  290.41 0854.51
2009/04/23 13:58:23.1     164   -397   -143    430    453 157.5 -23.8  34218  290.56 0854.51
2009/04/23 13:58:23.2      62   -336    -68    342    349 169.5 -11.3  34216  290.52 0854.51
2009/04/23 13:58:23.3      58   -413   -127    418    438 172.0 -17.0  34210  290.41 0854.51
2009/04/23 13:58:23.4      70   -434   -156    440    468 170.8 -19.6  34206  290.36 0854.51
2009/04/23 13:58:23.5     133   -479   -138    498    517 164.4 -15.5  34192  290.12 0854.51
2009/04/23 13:58:23.6     204   -406   -138    455    476 153.3 -17.0  34200  290.25 0854.51
2009/04/23 13:58:23.7     224   -387   -156    448    475 150.0 -19.3  34198  290.23 0854.51
2009/04/23 13:58:23.8     309   -406    -58    511    515 142.7  -6.5  34202  290.27 0854.51
2009/04/23 13:58:23.9     182   -356    -72    400    407 152.9 -10.3  34214  290.50 0854.51
2009/04/23 13:58:24.0     158   -342   -119    377    396 155.2 -17.5  34212  290.45 0854.51
2009/04/23 13:58:24.1     265   -330    -93    424    435 141.2 -12.4  34196  290.17 0854.51
2009/04/23 13:58:24.2     231   -340      3    412    413 145.7   0.5  34194  290.16 0854.51
2009/04/23 13:58:24.3     244   -346     52    424    428 144.8   7.1  34198  290.21 0854.50
2009/04/23 13:58:24.4     226   -273    226    355    420 140.4  35.5  34192  290.10 0854.50
2009/04/23 13:58:24.5     251   -333    291    418    509 143.0  38.3  34206  290.34 0854.50
2009/04/23 13:58:24.6     216   -379    311    437    536 150.4  39.1  34192  290.10 0854.50
2009/04/23 13:58:24.7     173   -303    296    350    458 150.3  44.4  34192  290.12 0854.50
2009/04/23 13:58:24.8     132   -351    230    376    440 159.3  34.4  34186  290.02 0854.50
2009/04/23 13:58:24.9     108   -339     68    356    363 162.3  10.8  34192  290.13 0854.50
2009/04/23 13:58:25.0      85   -315     57    327    333 164.8  10.0  34192  290.13 0854.50
2009/04/23 13:58:25.1      19   -393    150    394    421 177.1  22.0  34196  290.17 0854.50
2009/04/23 13:58:25.2     182   -438     97    475    486 157.4  11.6  34198  290.20 0854.50
2009/04/23 13:58:25.3     188   -467     98    504    514 158.1  11.0  34194  290.15 0854.50
2009/04/23 13:58:25.4     225   -330    196    400    445 145.7  28.1  34194  290.16 0854.50
2009/04/23 13:58:25.5     232   -331    158    405    434 145.0  22.4  34196  290.17 0854.50
2009/04/23 13:58:25.6     161   -294    150    336    367 151.3  25.8  34192  290.13 0854.50
2009/04/23 13:58:25.7      61   -311    211    318    381 168.9  36.6  34196  290.18 0854.50
2009/04/23 13:58:25.8     116   -386    173    404    439 163.2  24.8  34198  290.21 0854.50
2009/04/23 13:58:25.9      50   -354    203    358    411 171.9  32.0  34196  290.18 0854.50
2009/04/23 13:58:26.0     -67   -338    234    345    416 191.2  37.4  34198  290.23 0854.50
2009/04/23 13:58:26.1      78   -361    239    370    440 167.7  35.7  34198  290.22 0854.50
2009/04/23 13:58:26.2     151   -330    196    363    412 155.4  30.7  34198  290.20 0854.50
2009/04/23 13:58:26.3     105   -377    167    392    426 164.3  24.5  34200  290.26 0854.50
2009/04/23 13:58:26.4       5   -476    205    477    519 179.3  24.9  34196  290.18 0854.50
2009/04/23 13:58:26.5     150   -374    306    404    506 158.1  41.1  34206  290.35 0854.50
2009/04/23 13:58:26.6     164   -354    148    391    418 155.1  21.7  34200  290.26 0854.50
2009/04/23 13:58:26.7     127   -283    112    311    331 155.9  19.9  34204  290.31 0854.50
2009/04/23 13:58:26.8     -10   -243    112    244    268 182.5  26.6  34204  290.32 0854.50
2009/04/23 13:58:26.9      -6   -324     54    325    330 181.2   9.5  34212  290.46 0854.50
2009/04/23 13:58:27.0     -55   -286    110    292    312 190.9  21.6  34210  290.41 0854.50
2009/04/23 13:58:27.1    -150   -308    195    343    394 206.1  32.3  34202  290.30 0854.50
2009/04/23 13:58:27.2      53   -189    121    197    231 164.2  35.0  34204  290.31 0854.50
2009/04/23 13:58:27.3     152   -170     81    229    242 138.1  20.0  34208  290.39 0854.50
2009/04/23 13:58:27.4     147    -92     89    174    195 122.2  29.1  34208  290.40 0854.50
2009/04/23 13:58:27.5     163   -113      1    199    200 124.9   0.5  34206  290.35 0854.50
2009/04/23 13:58:27.6     119   -157     77    198    212 142.8  22.3  34208  290.40 0854.50
2009/04/23 13:58:27.7     153    -83     76    175    190 118.4  24.9  34210  290.41 0854.50
2009/04/23 13:58:27.8     170    -55      5    179    180 108.2   1.6  34206  290.36 0854.50
2009/04/23 13:58:27.9     219   -116     23    249    251 118.0   5.4  34206  290.34 0854.50
2009/04/23 13:58:28.0     183   -239    -93    302    317 142.6 -17.2  34212  290.44 0854.50
2009/04/23 13:58:28.1     198   -108    -73    226    237 118.6 -22.8  34208  290.37 0854.50
2009/04/23 13:58:28.2     140    -89     -1    167    168 122.5  -0.5  34210  290.41 0854.50
2009/04/23 13:58:28.3     168    -31     46    171    178 100.6  15.0  34210  290.43 0854.49
2009/04/23 13:58:28.4     247      0     55    248    255  90.0  12.6  34210  290.42 0854.49
2009/04/23 13:58:28.5     194    -80     82    210    225 112.4  22.8  34208  290.38 0854.49
2009/04/23 13:58:28.6     208    -33    -11    211    212  99.0  -3.1  34208  290.40 0854.49
2009/04/23 13:58:28.7     223    -76     91    236    252 108.8  22.0  34212  290.46 0854.49
2009/04/23 13:58:28.8     188    -47     24    194    196 104.2   7.2  34210  290.43 0854.49
2009/04/23 13:58:28.9     136    -59      7    149    150 113.5   2.8  34208  290.40 0854.49
2009/04/23 13:58:29.0     135     -9    -46    136    143  93.9 -23.3  34212  290.45 0854.49
2009/04/23 13:58:29.1     134    -10    -47    135    142  94.4 -23.8  34212  290.45 0854.49
2009/04/23 13:58:29.3     179    -28    -57    182    190  99.0 -22.8  34210  290.43 0854.49
2009/04/23 13:58:29.3     185    -47    -53    191    198 104.4 -20.2  34212  290.47 0854.49
2009/04/23 13:58:29.4     149    -70    -26    165    168 115.3  -9.0  34212  290.47 0854.49
2009/04/23 13:58:29.5     169    -45     15    175    176 105.1   5.2  34212  290.45 0854.49
2009/04/23 13:58:29.6     193    -64     37    204    208 108.6  10.3  34210  290.41 0854.49
2009/04/23 13:58:29.7     154    -46    -20    161    163 106.6  -7.3  34212  290.47 0854.49
2009/04/23 13:58:29.8     201    -91    109    221    246 114.4  28.2  34212  290.46 0854.49
2009/04/23 13:58:29.9     143   -209    192    254    318 145.7  40.9  34216  290.53 0854.49
2009/04/23 13:58:30.0     161   -257    211    304    370 147.9  38.0  34220  290.60 0854.49
2009/04/23 13:58:30.1     120   -330    191    352    400 160.0  30.9  34208  290.37 0854.49
2009/04/23 13:58:30.2     -10   -182    242    183    303 183.4  59.2  34216  290.51 0854.49
2009/04/23 13:58:30.3     298   -215    100    368    382 125.9  15.3  34208  290.40 0854.49
2009/04/23 13:58:30.4     265   -293    -42    396    399 137.8  -6.1  34208  290.40 0854.49
2009/04/23 13:58:30.5     322   -205     28    383    384 122.5   4.2  34212  290.45 0854.49
2009/04/23 13:58:30.6     150   -193     37    245    248 142.1   8.8  34212  290.44 0854.49
2009/04/23 13:58:30.7     113   -247    157    272    314 155.3  32.6  34216  290.51 0854.49
2009/04/23 13:58:30.8      96   -248    119    266    291 158.8  25.7  34218  290.54 0854.49
2009/04/23 13:58:30.9     115   -216     20    245    246 151.9   4.9  34218  290.54 0854.49
2009/04/23 13:58:31.0      76   -228     25    241    243 161.5   6.0  34216  290.53 0854.49
2009/04/23 13:58:31.1     228   -299      4    377    378 142.7   0.7  34204  290.32 0854.49
2009/04/23 13:58:31.2     176   -276     29    328    330 147.5   5.2  34206  290.35 0854.49
2009/04/23 13:58:31.3     246   -395    115    466    481 148.1  13.9  34212  290.45 0854.49
2009/04/23 13:58:31.4      -4   -392     75    393    401 180.6  10.8  34214  290.49 0854.49
2009/04/23 13:58:31.5      56   -277    114    283    305 168.4  23.1  34212  290.46 0854.49
2009/04/23 13:58:31.6      27   -294    123    296    320 174.7  23.8  34214  290.49 0854.49
2009/04/23 13:58:31.7     -16   -205    182    206    274 184.7  45.9  34216  290.51 0854.49
2009/04/23 13:58:31.8     -31   -231    123    234    264 187.8  29.8  34216  290.53 0854.49
2009/04/23 13:58:31.9     -45   -236     11    241    242 190.9   2.8  34214  290.48 0854.49
2009/04/23 13:58:32.0      37   -137    -71    142    158 164.9 -32.9  34222  290.64 0854.49
2009/04/23 13:58:32.1      77   -144    -66    164    176 151.9 -27.5  34222  290.64 0854.49
2009/04/23 13:58:32.2     160   -176    -99    239    258 137.7 -28.0  34224  290.65 0854.49
2009/04/23 13:58:32.3     156   -260    -90    304    317 149.0 -21.4  34218  290.54 0854.50
2009/04/23 13:58:32.4     166   -209    -74    268    279 141.5 -15.5  34210  290.41 0854.50
2009/04/23 13:58:32.5     233   -173    -13    291    292 126.6  -2.6  34216  290.53 0854.50
2009/04/23 13:58:32.6     228    -86     83    244    258 110.8  18.9  34214  290.49 0854.50
2009/04/23 13:58:32.7     102   -123     60    161    171 140.4  21.3  34220  290.60 0854.50
2009/04/23 13:58:32.8     167    -69     49    181    188 112.6  15.3  34222  290.64 0854.50
2009/04/23 13:58:32.9     162    -34     86    166    186 102.2  29.3  34216  290.53 0854.50
2009/04/23 13:58:33.0     105     17     81    107    134  80.8  41.2  34222  290.64 0854.50
2009/04/23 13:58:33.1     124     -8     43    125    133  93.9  19.2  34222  290.64 0854.50
2009/04/23 13:58:33.2     146    -36     49    151    159 104.2  18.1  34220  290.60 0854.50
2009/04/23 13:58:33.3     153    -31     74    157    173 101.5  27.1  34218  290.57 0854.50
2009/04/23 13:58:33.4     101    -10     96    102    140  96.1  48.0  34220  290.60 0854.50
2009/04/23 13:58:33.5     -10      5     51     12     52 295.3  88.0  34240  290.94 0854.50
2009/04/23 13:58:33.6     -41     27     51     50     71 303.3  50.1  34240  290.94 0854.50
2009/04/23 13:58:33.7     -61     33     27     70     75 298.9  21.0  34236  290.86 0854.50
2009/04/23 13:58:33.8     -61    -21     50     65     82 250.9  41.7  34236  290.87 0854.50
2009/04/23 13:58:33.9     -67    -56     36     88     95 230.0  23.6  34226  290.69 0854.50
2009/04/23 13:58:34.0     -95    -49     13    108    109 242.5   7.1  34218  290.57 0854.50
2009/04/23 13:58:34.1     -97    -62    -40    116    123 237.6 -19.1  34220  290.58 0854.50
2009/04/23 13:58:34.2     -62    -58    -11     86     87 226.9  -7.3  34220  290.58 0854.50
2009/04/23 13:58:34.3     -37    -76      1     85     86 205.9   0.8  34214  290.48 0854.49
2009/04/23 13:58:34.4      -8   -104     57    105    119 184.5  31.3  34222  290.64 0854.49
2009/04/23 13:58:34.5     -11   -106     42    107    114 186.2  22.0  34218  290.57 0854.49
2009/04/23 13:58:34.6     -56   -114     36    128    134 206.3  15.8  34216  290.53 0854.49
2009/04/23 13:58:34.7      -8   -130      6    131    132 183.6   2.9  34216  290.53 0854.49
2009/04/23 13:58:34.8      15   -111     57    113    126 171.9  29.2  34220  290.58 0854.49
2009/04/23 13:58:34.9      22    -50     53     55     76 156.4  50.0  34222  290.64 0854.49
2009/04/23 13:58:35.0      43    -31     48     54     72 126.0  46.9  34220  290.60 0854.49
2009/04/23 13:58:35.1      89     21     28     92     97  76.3  16.8  34218  290.55 0854.49
2009/04/23 13:58:35.2     148     47     47    156    163  72.3  16.8  34218  290.55 0854.49
2009/04/23 13:58:35.3     178     95    114    203    232  61.8  31.6  34218  290.57 0854.49
2009/04/23 13:58:35.4      35     52    155     63    167  34.3  76.8  34238  290.91 0854.49
2009/04/23 13:58:35.5      31     54     98     63    116  29.9  64.6  34236  290.86 0854.49
2009/04/23 13:58:35.6      73     50    129     89    156  55.4  61.8  34228  290.74 0854.49
2009/04/23 13:58:35.7      92     38    115    100    152  67.4  54.3  34222  290.62 0854.49
2009/04/23 13:58:35.8      17      9    100     20    101  61.1  89.0  34242  290.96 0854.49
2009/04/23 13:58:35.9     185     69    142    198    243  69.4  39.1  34220  290.58 0854.49
2009/04/23 13:58:36.0     235      4    102    236    257  89.0  24.9  34214  290.49 0854.49
2009/04/23 13:58:36.1     173    -43     81    179    196 103.9  25.9  34216  290.52 0854.49
2009/04/23 13:58:36.2     141   -160    -11    214    215 138.6  -3.1  34222  290.62 0854.49
2009/04/23 13:58:36.3     198   -165    -81    258    271 129.8 -17.5  34220  290.58 0854.50
2009/04/23 13:58:36.4     313    -23    -33    314    316  94.3  -6.1  34218  290.56 0854.50
2009/04/23 13:58:36.5     272    -75    -78    283    294 105.5 -15.4  34220  290.59 0854.50
2009/04/23 13:58:36.6     306   -144    -23    339    340 115.3  -4.0  34218  290.57 0854.50
2009/04/23 13:58:36.7     281   -132     -7    311    312 115.2  -1.4  34222  290.61 0854.50
2009/04/23 13:58:36.8     345    -94    -58    358    363 105.3  -9.3  34218  290.54 0854.50
2009/04/23 13:58:36.9     297   -151     51    334    338 116.9   8.7  34212  290.47 0854.50
2009/04/23 13:58:37.0     237     58    -40    245    249  76.1  -9.3  34224  290.65 0854.50
2009/04/23 13:58:37.1     225    -38    -18    229    230  99.7  -4.6  34222  290.64 0854.50
2009/04/23 13:58:37.2     153    -12     64    154    166  94.8  24.1  34238  290.89 0854.50
2009/04/23 13:58:37.3     232      9    174    233    290  87.6  40.4  34248  291.07 0854.50
2009/04/23 13:58:37.4     339      1    124    340    361  89.7  20.9  34240  290.93 0854.50
2009/04/23 13:58:37.5     254    -24     63    256    264  95.5  13.9  34238  290.88 0854.50
2009/04/23 13:58:37.6     164    -80    -27    183    186 116.2  -8.6  34236  290.87 0854.50
2009/04/23 13:58:37.7     186     15     29    187    190  85.2   9.0  34242  290.98 0854.50
2009/04/23 13:58:37.8     149    -40     -4    155    156 105.1  -1.8  34254  291.16 0854.50
2009/04/23 13:58:37.9     276    -76     61    287    294 105.5  12.0  34244  291.00 0854.50
2009/04/23 13:58:38.0     243    -67     26    253    255 105.5   6.0  34236  290.85 0854.50
2009/04/23 13:58:38.1     215      3     82    216    231  89.2  21.7  34242  290.98 0854.50
2009/04/23 13:58:38.2     183    -60    109    193    221 108.4  31.9  34230  290.75 0854.50
2009/04/23 13:58:38.3      52   -123    118    134    178 156.8  46.2  34230  290.77 0854.49
2009/04/23 13:58:38.4      59   -134    123    147    191 156.3  44.1  34230  290.77 0854.49
2009/04/23 13:58:38.5      -8   -111     95    112    146 184.5  44.3  34236  290.86 0854.49
2009/04/23 13:58:38.6     -42    -80    129     91    157 208.1  61.3  34232  290.81 0854.49
2009/04/23 13:58:38.7     -70    -94     93    118    150 216.5  42.7  34228  290.74 0854.49
2009/04/23 13:58:38.8    -114    -29     67    118    135 255.4  32.4  34236  290.86 0854.49
2009/04/23 13:58:38.9     -63    -58     69     87    111 227.3  43.3  34234  290.82 0854.49
2009/04/23 13:58:39.0     -68    -27     29     74     79 248.3  22.0  34234  290.82 0854.49
2009/04/23 13:58:39.1     -58      6     24     59     63 276.1  23.0  34236  290.87 0854.49
2009/04/23 13:58:39.2      -3     -7     -4      8      9 205.4 -31.6  34240  290.92 0854.49
2009/04/23 13:58:39.3      36     19    -12     41     43  62.0 -16.6  34242  290.96 0854.49
2009/04/23 13:58:39.4      27     45    -16     53     56  30.7 -17.6  34238  290.91 0854.49
2009/04/23 13:58:39.5      21     78    -26     81     85  15.1 -23.3  34232  290.81 0854.49
2009/04/23 13:58:39.6      52     35    -22     64     67  55.8 -23.3  34232  290.81 0854.49
2009/04/23 13:58:39.7      51    -19     25     55     60 110.8  27.1  34238  290.91 0854.49
2009/04/23 13:58:39.8     -21    -21     71     30     77 225.0  77.0  34250  291.09 0854.49
2009/04/23 13:58:39.9     -91    -53     67    106    125 239.8  35.5  34252  291.13 0854.49
2009/04/23 13:58:40.0    -123    -89     43    152    158 234.0  15.8  34240  290.94 0854.49
2009/04/23 13:58:40.2     -77   -159    118    177    212 205.9  36.5  34248  291.06 0854.49
2009/04/23 13:58:40.2     -91   -169    131    193    233 208.3  37.4  34250  291.09 0854.49
2009/04/23 13:58:40.3    -160   -110     90    195    214 235.4  26.6  34248  291.08 0854.49
2009/04/23 13:58:40.5    -190   -138    101    235    255 234.0  24.9  34258  291.24 0854.49
2009/04/23 13:58:40.5    -164    -99    113    192    222 238.7  33.4  34288  291.74 0854.49
2009/04/23 13:58:40.7    -181    -47     78    188    203 255.2  23.6  34316  292.22 0854.49
2009/04/23 13:58:40.8    -197    -17     74    198    211 265.0  21.3  34318  292.25 0854.49
2009/04/23 13:58:40.9    -226     26    100    228    248 276.8  25.2  34320  292.30 0854.49
2009/04/23 13:58:41.0    -203     41     86    208    225 281.5  23.8  34318  292.27 0854.49
2009/04/23 13:58:41.1    -197     65     91    208    227 288.4  25.1  34306  292.05 0854.49
2009/04/23 13:58:41.2    -148    132    102    199    223 311.8  29.3  34300  291.96 0854.49
2009/04/23 13:58:41.3    -112    125    111    168    201 318.1  36.7  34294  291.86 0854.49
2009/04/23 13:58:41.4     -55     72    149     91    174 322.6  65.4  34292  291.83 0854.49
2009/04/23 13:58:41.5    -120     71    107    140    176 300.7  41.4  34296  291.88 0854.49
2009/04/23 13:58:41.6     -91    119    113    151    188 322.6  40.7  34288  291.74 0854.49
2009/04/23 13:58:41.7      40     93     91    102    136  23.6  46.4  34272  291.47 0854.49
2009/04/23 13:58:41.8      22     26    134     35    138  39.6  84.9  34276  291.55 0854.49
2009/04/23 13:58:41.9     -15     36     81     40     90 337.3  72.4  34294  291.86 0854.49
2009/04/23 13:58:42.0     -16    113    149    115    188 351.5  58.5  34346  292.73 0854.49
2009/04/23 13:58:42.1       0     53     56     54     77 359.1  49.1  34352  292.85 0854.49
2009/04/23 13:58:42.2      17     26     -1     32     33  32.6  -2.2  34366  293.09 0854.49
2009/04/23 13:58:42.3      27     16    -14     32     34  59.3 -31.5  34364  293.05 0854.49
2009/04/23 13:58:42.4      48    -46     31     67     73 134.1  27.1  34350  292.80 0854.48
2009/04/23 13:58:42.5      25      0     21     26     33  90.0  43.7  34334  292.54 0854.48
2009/04/23 13:58:42.6     -21     43     -1     48     49 333.7  -2.2  34344  292.71 0854.48
2009/04/23 13:58:42.7      32     32     95     46    105  44.2  72.8  34348  292.78 0854.48
2009/04/23 13:58:42.8     175    117    118    211    241  56.3  31.9  34312  292.15 0854.48
2009/04/23 13:58:42.9     101    126     96    162    188  38.7  33.7  34276  291.54 0854.48
2009/04/23 13:58:43.0     111     23    145    114    184  78.1  57.9  34320  292.30 0854.48
2009/04/23 13:58:43.1     158     45    120    165    204  74.1  39.7  34286  291.72 0854.48
2009/04/23 13:58:43.2     193     34     90    197    216  79.9  26.2  34272  291.49 0854.48
2009/04/23 13:58:43.3     190     29     25    193    195  81.2   7.5  34256  291.20 0854.48
2009/04/23 13:58:43.4     166     78      3    184    185  64.6   1.2  34246  291.04 0854.49
2009/04/23 13:58:43.5     171     56     20    180    182  71.8   6.5  34278  291.57 0854.49
2009/04/23 13:58:43.6     275    109     42    296    300  68.3   8.2  34296  291.87 0854.49
2009/04/23 13:58:43.7     210    142     49    254    259  55.9  11.0  34286  291.70 0854.49
2009/04/23 13:58:43.8     186    153     19    242    243  50.5   4.6  34274  291.51 0854.49
2009/04/23 13:58:43.9     202    123     39    237    241  58.5   9.5  34298  291.90 0854.49
2009/04/23 13:58:44.0     233    116    114    261    284  63.6  25.1  34356  292.91 0854.49
2009/04/23 13:58:44.1     213    114    101    242    262  61.8  23.8  34368  293.11 0854.49
2009/04/23 13:58:44.2     211    104     48    236    242  63.6  11.6  34392  293.52 0854.49
2009/04/23 13:58:44.3     160    116      8    198    199  54.0   2.3  34370  293.15 0854.49
2009/04/23 13:58:44.4      65     65    -11     93     94  45.0  -7.3  34376  293.26 0854.49
2009/04/23 13:58:44.5      21     16     49     27     55  52.2  67.7  34374  293.22 0854.49
2009/04/23 13:58:44.6      23     97     78    100    126  13.8  41.7  34358  292.93 0854.49
2009/04/23 13:58:44.7      64    111     61    129    142  29.9  27.1  34344  292.69 0854.49
2009/04/23 13:58:44.8      -8    114      0    115    116 355.6   0.2  34312  292.17 0854.49
2009/04/23 13:58:44.9      19     59     -2     63     64  18.3  -2.2  34306  292.06 0854.49
2009/04/23 13:58:45.0      17    101     -6    103    104   9.8  -3.7  34328  292.44 0854.49
2009/04/23 13:58:45.1      58     54      0     80     81  46.9  -0.3  34346  292.73 0854.49
2009/04/23 13:58:45.2      58     67    -43     89     98  41.0 -32.2  34328  292.42 0854.49
2009/04/23 13:58:45.3     157     94     -4    183    184  59.1  -1.3  34338  292.61 0854.49
2009/04/23 13:58:45.4     181     55     16    190    191  72.9   4.9  34348  292.78 0854.49
2009/04/23 13:58:45.5     143     91      6    170    171  57.6   2.1  34338  292.59 0854.49
2009/04/23 13:58:45.6      87    114     83    144    166  37.4  32.7  34328  292.42 0854.49
2009/04/23 13:58:45.7     121    100    131    158    205  50.4  43.8  34336  292.56 0854.49
2009/04/23 13:58:45.8      52     86    129    101    163  31.2  58.2  34340  292.63 0854.49
2009/04/23 13:58:45.9       7     40     77     41     87  10.7  69.8  34342  292.66 0854.49
2009/04/23 13:58:46.0      11      0     89     12     89  90.0  90.0  34354  292.86 0854.49
2009/04/23 13:58:46.1     -14     -9     89     17     90 237.6  89.6  34368  293.10 0854.49
2009/04/23 13:58:46.2      -9    -19     96     22     98 205.4  87.5  34376  293.26 0854.49
2009/04/23 13:58:46.3     -26     21     55     34     64 309.5  64.7  34376  293.26 0854.49
2009/04/23 13:58:46.4    -127    -83     70    152    167 236.7  26.6  34358  292.95 0854.49
2009/04/23 13:58:46.5    -182   -121     52    219    226 236.3  13.5  34346  292.73 0854.49
2009/04/23 13:58:46.6    -128   -166     64    210    220 217.6  17.1  34298  291.91 0854.49
2009/04/23 13:58:46.7    -162   -207     82    264    277 218.1  17.4  34306  292.04 0854.49
2009/04/23 13:58:46.8    -238   -173     74    295    305 234.1  14.2  34340  292.62 0854.49
2009/04/23 13:58:46.9    -102   -182    111    209    236 209.4  30.3  34306  292.05 0854.49
2009/04/23 13:58:47.0     -38   -144    169    150    225 195.1  54.2  34318  292.27 0854.49
2009/04/23 13:58:47.1    -102   -156    231    187    297 213.2  56.9  34338  292.60 0854.49
2009/04/23 13:58:47.2    -154   -173     98    232    251 221.7  24.2  34350  292.79 0854.49
2009/04/23 13:58:47.3    -136   -189     89    234    250 215.8  21.7  34360  292.98 0854.49
2009/04/23 13:58:47.4    -114   -193     93    225    243 210.5  23.6  34374  293.20 0854.50
2009/04/23 13:58:47.5    -109   -140     10    178    179 217.8   3.3  34340  292.63 0854.50
2009/04/23 13:58:47.6     -11   -145    144    146    205 184.5  50.0  34344  292.71 0854.50
2009/04/23 13:58:47.7     -68    -82     58    107    121 219.6  30.8  34310  292.13 0854.50
2009/04/23 13:58:47.8    -143   -143     95    203    224 224.9  27.1  34288  291.74 0854.50
2009/04/23 13:58:47.9     -39    -67    146     78    165 210.7  69.6  34312  292.15 0854.50
2009/04/23 13:58:48.0     -36     26    152     45    158 306.0  83.3  34326  292.40 0854.50
2009/04/23 13:58:48.1    -105    -81    144    133    196 232.3  52.5  34306  292.06 0854.50
2009/04/23 13:58:48.2     -64    -35    170     74    185 241.1  75.3  34306  292.05 0854.50
2009/04/23 13:58:48.3      -5    -85    118     86    146 183.6  60.5  34300  291.95 0854.50
2009/04/23 13:58:48.4     -34    -72    111     80    136 205.3  60.6  34296  291.88 0854.50
2009/04/23 13:58:48.5     -31     34     99     47    109 317.7  72.9  34314  292.20 0854.50
2009/04/23 13:58:48.6      60     49     86     78    116  50.5  52.7  34312  292.17 0854.50
2009/04/23 13:58:48.7      59     87     85    106    135  34.3  43.3  34288  291.74 0854.50
2009/04/23 13:58:48.8     -10     35    106     37    112 343.1  81.2  34320  292.30 0854.50
2009/04/23 13:58:48.9     -96     47     83    108    136 296.2  41.7  34318  292.27 0854.50
2009/04/23 13:58:49.0     -46      1     55     47     72 271.7  55.4  34320  292.29 0854.50
2009/04/23 13:58:49.1    -166   -231    209    285    353 215.8  39.9  34272  291.47 0854.50
2009/04/23 13:58:49.2    -160   -187    173    247    301 220.5  38.5  34238  290.88 0854.50
2009/04/23 13:58:49.3     -41   -225    192    229    298 190.5  44.1  34234  290.83 0854.50
2009/04/23 13:58:49.4     -85   -153     88    176    196 209.2  28.5  34232  290.81 0854.50
2009/04/23 13:58:49.5    -102   -121     30    159    162 220.3  10.8  34238  290.89 0854.50
2009/04/23 13:58:49.6     -82    -84     25    118    121 224.5  12.2  34254  291.18 0854.50
2009/04/23 13:58:49.7     -77   -123     28    146    149 212.1  11.1  34234  290.84 0854.50
2009/04/23 13:58:49.8      24   -124    -16    127    129 168.9  -7.3  34236  290.87 0854.50
2009/04/23 13:58:49.9       4   -135      6    136    137 178.2   2.9  34240  290.94 0854.50
2009/04/23 13:58:50.0      35    -41     41     54     67 139.5  40.7  34236  290.87 0854.50
2009/04/23 13:58:50.1      27    -39     19     48     51 145.7  22.0  34250  291.11 0854.50
2009/04/23 13:58:50.2       0    -52    -16     53     56 180.9 -17.6  34246  291.03 0854.50
2009/04/23 13:58:50.3       8    -70     -7     71     72 172.9  -6.2  34246  291.03 0854.50
2009/04/23 13:58:50.4     -71   -120     57    140    151 210.8  23.1  34234  290.82 0854.50
2009/04/23 13:58:50.5    -111   -127     37    169    174 221.2  12.4  34238  290.89 0854.50
2009/04/23 13:58:50.6    -133    -62     65    147    160 244.8  25.3  34246  291.04 0854.50
2009/04/23 13:58:50.7     -62    -29     65     69     94 244.6  49.0  34264  291.35 0854.50
2009/04/23 13:58:50.8      30      0     92     31     97  90.0  81.0  34266  291.38 0854.50
2009/04/23 13:58:50.9      96     -2     38     97    104  91.7  22.0  34256  291.21 0854.50
2009/04/23 13:58:51.0     101      0     64    102    120  90.0  35.5  34262  291.32 0854.50
2009/04/23 13:58:51.1      86    -47     98     99    139 118.9  50.0  34266  291.38 0854.50
2009/04/23 13:58:51.2      68    -99     89    121    150 145.7  39.7  34266  291.38 0854.50
2009/04/23 13:58:51.3      80    -79     64    113    129 134.6  31.9  34262  291.32 0854.50
2009/04/23 13:58:51.4     121    -36    101    127    162 106.9  42.7  34264  291.33 0854.50
2009/04/23 13:58:51.5      87      0     91     88    126  90.4  50.7  34266  291.37 0854.50
2009/04/23 13:58:51.6     125     54     88    137    162  66.5  35.6  34278  291.59 0854.50
2009/04/23 13:58:51.7     165     85     44    186    192  62.5  13.5  34318  292.27 0854.50
2009/04/23 13:58:51.8      65    124      6    141    142  27.6   2.8  34300  291.95 0854.50
2009/04/23 13:58:51.9      87    128     26    155    158  34.3   9.5  34312  292.15 0854.50
2009/04/23 13:58:52.0     -16    112     59    114    128 351.5  29.2  34280  291.60 0854.50
2009/04/23 13:58:52.1      -8    114     66    115    132 355.5  32.4  34272  291.49 0854.50
2009/04/23 13:58:52.2     -16     50     44     53     68 341.7  43.8  34264  291.33 0854.50
2009/04/23 13:58:52.3      -6    122      1    123    124 356.9   0.8  34256  291.20 0854.50
2009/04/23 13:58:52.4     -34    123     18    128    130 344.4   8.0  34246  291.04 0854.50
2009/04/23 13:58:52.5     -22    161     17    163    164 352.0   6.1  34256  291.21 0854.50
2009/04/23 13:58:52.6      -5    166      8    167    168 358.2   2.9  34260  291.26 0854.50
2009/04/23 13:58:52.7      39     99    -22    107    110  21.8 -11.9  34264  291.33 0854.50
2009/04/23 13:58:52.8      80     55     75     98    123  55.4  41.6  34252  291.15 0854.50
2009/04/23 13:58:52.9     -62      1    117     63    132 271.7  68.9  34270  291.45 0854.50
2009/04/23 13:58:53.0    -226     27     78    228    242 277.0  18.9  34270  291.43 0854.50
2009/04/23 13:58:53.1    -278    -15    -37    279    282 266.7  -7.7  34262  291.31 0854.50
2009/04/23 13:58:53.2     -89     58     97    107    144 303.3  47.5  34266  291.37 0854.50
2009/04/23 13:58:53.3     -66    -12     89     68    112 259.4  58.5  34264  291.35 0854.50
2009/04/23 13:58:53.4     -78    -44    145     90    170 240.7  65.1  34264  291.33 0854.50
2009/04/23 13:58:53.5     -23     10    170     26    171 293.5  90.0  34264  291.35 0854.50
2009/04/23 13:58:53.6      69     70    121     99    156  44.5  56.4  34254  291.18 0854.50
2009/04/23 13:58:53.7      92     92      1    131    132  45.0   0.8  34238  290.91 0854.50
2009/04/23 13:58:53.8      27     69     -2     75     76  21.9  -2.2  34242  290.98 0854.50
2009/04/23 13:58:53.9     -27    -69     99     75    124 201.8  59.0  34260  291.26 0854.50
2009/04/23 13:58:54.0     -83     -3    150     84    171 267.9  68.3  34250  291.11 0854.50
2009/04/23 13:58:54.1       8    -57     80     58     98 171.1  60.5  34248  291.06 0854.50
2009/04/23 13:58:54.2       0   -115     74    116    137 180.4  35.6  34238  290.91 0854.50
2009/04/23 13:58:54.3      64     51     52     82     97  51.4  35.5  34242  290.96 0854.50
2009/04/23 13:58:54.4       0    -60    194     61    203 179.1  82.0  34258  291.25 0854.50
2009/04/23 13:58:54.5     110    -32    114    115    161 106.4  50.0  34264  291.35 0854.50
2009/04/23 13:58:54.6      95     17     -3     97     98  79.4  -2.2  34266  291.38 0854.50
2009/04/23 13:58:54.7     -22     12     -1     26     27 298.9  -2.2  34266  291.38 0854.50
2009/04/23 13:58:54.8     -99    -43     54    108    120 246.5  28.7  34246  291.03 0854.50
2009/04/23 13:58:54.9    -134    -74     93    154    179 241.1  34.0  34252  291.13 0854.50
2009/04/23 13:58:55.0      93    -43    130    103    165 115.2  57.7  34242  290.98 0854.50
2009/04/23 13:58:55.1      46   -180    174    186    254 165.5  47.9  34228  290.71 0854.50
2009/04/23 13:58:55.2      15   -219    260    220    340 176.0  55.6  34220  290.58 0854.50
2009/04/23 13:58:55.3      47   -265    193    270    331 169.8  39.1  34228  290.73 0854.50
2009/04/23 13:58:55.4      25   -404    151    405    432 176.4  21.5  34228  290.72 0854.51
2009/04/23 13:58:55.5     -88   -397     21    407    408 192.5   3.0  34224  290.67 0854.51
2009/04/23 13:58:55.6    -184   -407    -34    447    449 204.3  -4.4  34224  290.67 0854.51
2009/04/23 13:58:55.7     -32   -353     19    355    356 185.3   3.1  34224  290.67 0854.51
2009/04/23 13:58:55.8    -101   -265   -109    284    304 201.0 -26.4  34220  290.59 0854.51
2009/04/23 13:58:55.9    -129   -188    -99    229    249 214.5 -29.5  34230  290.76 0854.51
2009/04/23 13:58:56.0    -187   -121    -98    223    243 237.1 -29.5  34228  290.71 0854.51
2009/04/23 13:58:56.1    -100   -301    101    318    334 198.5  17.7  34222  290.61 0854.51
2009/04/23 13:58:56.2     -22   -297     31    298    300 184.4   6.1  34220  290.59 0854.51
2009/04/23 13:58:56.3     -26   -282     -6    284    285 185.3  -1.3  34226  290.70 0854.51
2009/04/23 13:58:56.4      26   -283     44    285    289 174.7   8.9  34228  290.73 0854.51
2009/04/23 13:58:56.5     176   -284     82    335    345 148.3  13.8  34214  290.50 0854.51
2009/04/23 13:58:56.6     154   -226    127    274    302 145.8  26.6  34212  290.46 0854.51
2009/04/23 13:58:56.7     113   -150    114    189    220 143.0  33.7  34204  290.33 0854.51
2009/04/23 13:58:56.8      57   -183     51    192    199 162.6  15.0  34210  290.41 0854.51
2009/04/23 13:58:56.9      -1   -125     24    126    129 180.5  11.0  34220  290.58 0854.51
2009/04/23 13:58:57.0     108    -22     -2    111    112 101.5  -1.3  34224  290.65 0854.51
2009/04/23 13:58:57.1     -30     -8    -18     32     36 254.9 -37.9  34226  290.69 0854.51
2009/04/23 13:58:57.2    -140    115     71    182    195 309.5  22.0  34222  290.62 0854.51
2009/04/23 13:58:57.3    -123    166     83    207    223 323.5  23.0  34222  290.64 0854.51
2009/04/23 13:58:57.4     -57    -19     90     61    108 251.8  63.2  34228  290.74 0854.47
2009/04/23 13:58:57.5      94   -134      0    164    165 144.8  -0.3  34222  290.64 0854.47
2009/04/23 13:58:57.6     155    -99    151    185    238 122.6  43.5  34220  290.58 0854.47
2009/04/23 13:58:57.7     -54     18     99     57    114 288.6  67.2  34236  290.87 0854.47
2009/04/23 13:58:57.8      74   -102    182    127    221 143.9  62.1  34212  290.47 0854.47
2009/04/23 13:58:57.9     -32   -376    339    378    507 184.9  46.5  34192  290.13 0854.47
2009/04/23 13:58:58.0      55   -166    296    176    344 161.5  66.5  34200  290.24 0854.47
2009/04/23 13:58:58.1       0   -376    142    377    402 180.1  21.6  34198  290.20 0854.47
2009/04/23 13:58:58.2     123   -527    146    542    562 166.9  15.1  34198  290.21 0854.47
2009/04/23 13:58:58.3     -15   -397    -36    398    400 182.2  -5.2  34202  290.30 0854.47
2009/04/23 13:58:58.4     -53   -326    -32    331    333 189.3  -5.6  34218  290.55 0854.47
2009/04/23 13:58:58.5     -61   -174   -138    185    230 199.6 -44.8  34214  290.50 0854.47
2009/04/23 13:58:58.6    -131     -5   -164    132    210 267.4 -61.3  34206  290.36 0854.47
2009/04/23 13:58:58.7     -67    -17    172     70    185 255.8  77.0  34216  290.52 0854.47
2009/04/23 13:58:58.8    -124     32    219    129    254 284.6  66.8  34238  290.89 0854.47
2009/04/23 13:58:58.9     -22     -6    176     23    177 253.2  90.0  34238  290.89 0854.47
2009/04/23 13:58:59.0     -17    -33     85     38     93 207.2  74.5  34248  291.08 0854.47
2009/04/23 13:58:59.1     -10    -63    107     64    124 189.8  66.7  34252  291.15 0854.47
2009/04/23 13:58:59.2     -93   -208     31    228    231 204.1   7.8  34232  290.81 0854.47
2009/04/23 13:58:59.3    -214   -227    -52    312    317 223.3  -9.6  34206  290.34 0854.47
2009/04/23 13:58:59.4    -249   -166    -21    300    301 236.3  -4.1  34210  290.42 0854.41
2009/04/23 13:58:59.5    -278   -176     66    330    337 237.6  11.3  34218  290.54 0854.41
2009/04/23 13:58:59.6    -325   -218     91    392    403 236.1  13.1  34220  290.60 0854.41
2009/04/23 13:58:59.7    -182   -153    242    238    339 230.0  50.4  34220  290.59 0854.41
2009/04/23 13:58:59.8     -67     -3    290     68    297 267.4  86.9  34232  290.78 0854.41
2009/04/23 13:58:59.9     -20    -45    204     50    210 203.6  86.7  34252  291.13 0854.41
2009/04/23 13:59:00.0     -62   -304    232    311    388 191.6  40.4  34194  290.16 0854.41
2009/04/23 13:59:00.1    -152   -281    188    320    371 208.5  33.3  34192  290.10 0854.41
2009/04/23 13:59:00.2    -121   -246    192    275    335 206.1  38.4  34190  290.09 0854.41
2009/04/23 13:59:00.3     -55   -260    221    266    345 192.0  43.8  34194  290.14 0854.41
2009/04/23 13:59:00.4     -84   -241    210    256    331 199.2  43.7  34206  290.36 0854.41
2009/04/23 13:59:00.5    -136   -288    175    319    363 205.4  31.3  34198  290.23 0854.41
2009/04/23 13:59:00.6    -149   -332    144    365    392 204.2  22.8  34200  290.25 0854.41
2009/04/23 13:59:00.7    -184   -281    129    337    360 213.2  22.0  34202  290.27 0854.41
2009/04/23 13:59:00.8    -163   -296    112    338    357 208.9  18.4  34194  290.15 0854.41
2009/04/23 13:59:00.9    -267   -359    159    448    475 216.7  20.4  34186  290.00 0854.41
2009/04/23 13:59:01.0    -228   -357    209    424    472 212.6  28.2  34190  290.07 0854.41
2009/04/23 13:59:01.1    -278   -164    165    323    362 239.4  29.2  34200  290.25 0854.41
2009/04/23 13:59:01.2    -215     18    103    216    239 274.8  27.3  34204  290.31 0854.41
2009/04/23 13:59:01.3    -208    -62    175    218    279 253.4  42.8  34220  290.59 0854.41
2009/04/23 13:59:01.4    -274     16    141    275    309 273.4  29.3  34218  290.54 0854.44
2009/04/23 13:59:01.5    -299    110    -64    319    326 290.2 -11.5  34176  289.85 0854.44
2009/04/23 13:59:01.6    -296    121    -55    320    325 292.3  -9.9  34172  289.78 0854.44
2009/04/23 13:59:01.7    -251    109     -3    274    275 293.6  -0.7  34176  289.83 0854.44
2009/04/23 13:59:01.8    -282    -12      0    283    284 267.4   0.0  34172  289.76 0854.44
2009/04/23 13:59:01.9    -239      0    -46    240    245 270.0 -10.9  34176  289.83 0854.44
2009/04/23 13:59:02.0    -217     86      4    234    235 291.8   1.2  34176  289.83 0854.44
2009/04/23 13:59:02.1    -237     43   -104    241    262 280.4 -29.0  34172  289.76 0854.44
2009/04/23 13:59:02.2    -251     38    -96    254    271 278.8 -26.1  34174  289.81 0854.44
2009/04/23 13:59:02.3    -275     38    -99    278    296 278.0 -19.7  34178  289.88 0854.44
2009/04/23 13:59:02.4    -286     92    -93    301    315 287.9 -22.2  34178  289.86 0854.44
2009/04/23 13:59:02.5    -276    105   -116    296    317 290.8 -26.9  34178  289.86 0854.44
2009/04/23 13:59:02.6    -317    129   -116    343    362 292.2 -23.5  34182  289.94 0854.44
2009/04/23 13:59:02.7    -336     88   -147    348    377 284.8 -28.6  34180  289.91 0854.44
2009/04/23 13:59:02.8    -301    140    -29    333    335 295.0  -5.1  34188  290.04 0854.44
2009/04/23 13:59:02.9    -235    -35   -158    238    285 261.4 -40.9  34184  289.97 0854.44
2009/04/23 13:59:03.0    -159     44   -232    166    285 285.5 -65.2  34188  290.05 0854.44
2009/04/23 13:59:03.1     -12     -3   -185     13    185 254.9 -90.0  34204  290.33 0854.44
2009/04/23 13:59:03.2    -137    -54    -99    148    178 248.2 -41.4  34190  290.08 0854.44
2009/04/23 13:59:03.3    -240     48    -64    245    254 281.4 -14.7  34188  290.05 0854.44
2009/04/23 13:59:03.4    -233    128    -47    267    272 298.9 -10.1  34192  290.12 0854.43
2009/04/23 13:59:03.5    -307    -87   -147    320    352 254.1 -30.8  34204  290.33 0854.43
2009/04/23 13:59:03.6    -151   -138   -217    205    298 227.6 -56.5  34218  290.56 0854.43
2009/04/23 13:59:03.7      75     38    -23     85     89  62.9 -15.5  34224  290.67 0854.43
2009/04/23 13:59:03.8     100    124     80    160    178  38.7  28.5  34222  290.62 0854.43
2009/04/23 13:59:03.9     200    140     95    245    262  54.9  22.3  34224  290.66 0854.43
2009/04/23 13:59:04.0     302     51    273    307    410  80.3  46.3  34242  290.96 0854.43
2009/04/23 13:59:04.1     400    -79    346    408    534 101.2  44.7  34248  291.08 0854.43
2009/04/23 13:59:04.2     306    206    298    369    474  56.0  43.1  34272  291.48 0854.43
2009/04/23 13:59:04.3     109     77    233    134    268  54.9  67.7  34254  291.17 0854.43
2009/04/23 13:59:04.4     277    130    206    307    369  64.8  37.0  34256  291.20 0854.39
2009/04/23 13:59:04.5     251    138    132    287    315  61.2  26.3  34236  290.87 0854.39
2009/04/23 13:59:04.6     284     37    249    287    379  82.5  45.6  34230  290.76 0854.39
2009/04/23 13:59:04.7     -73    165    255    181    312 335.9  61.2  34238  290.90 0854.39
2009/04/23 13:59:04.8     -35    -35    270     50    274 225.0  90.0  34234  290.84 0854.39
2009/04/23 13:59:04.9     100    -63    172    119    209 122.4  62.4  34218  290.55 0854.39
2009/04/23 13:59:05.0     235     47    107    240    262  78.6  25.3  34198  290.20 0854.39
2009/04/23 13:59:05.1     -97    222    179    243    301 336.3  39.7  34204  290.32 0854.39
2009/04/23 13:59:05.2     -60    297     47    304    308 348.4   8.9  34216  290.51 0854.39
2009/04/23 13:59:05.3      17    340     75    341    350   2.9  12.5  34216  290.52 0854.39
2009/04/23 13:59:05.4      71    241    183    252    311  16.5  39.5  34200  290.24 0854.39
2009/04/23 13:59:05.5     141     61    198    154    250  66.4  58.2  34234  290.82 0854.39
2009/04/23 13:59:05.6      56     63    184     85    202  41.9  73.8  34288  291.76 0854.39
2009/04/23 13:59:05.7      29     24    222     38    225  50.5  90.0  34254  291.16 0854.39
2009/04/23 13:59:05.8     -88   -171    279    193    339 207.2  62.1  34238  290.90 0854.39
2009/04/23 13:59:05.9    -112   -219    284    247    376 207.2  54.6  34254  291.17 0854.39
2009/04/23 13:59:06.0     -87     16    209     89    227 281.0  75.5  34236  290.87 0854.39
2009/04/23 13:59:06.1    -146   -162    173    219    279 222.1  42.4  34222  290.63 0854.39
2009/04/23 13:59:06.3    -273   -167     20    321    322 238.5   3.6  34216  290.51 0854.39
2009/04/23 13:59:06.4     -92    -88    123    128    177 226.0  48.7  34220  290.58 0854.39
2009/04/23 13:59:06.5    -126   -320    226    345    412 201.6  36.5  34218  290.55 0854.37
2009/04/23 13:59:06.5    -241   -174    215    298    367 234.1  39.5  34218  290.57 0854.37
2009/04/23 13:59:06.6    -187   -272    137    331    358 214.6  23.7  34240  290.93 0854.37
2009/04/23 13:59:06.8    -220   -194    -11    294    295 228.6  -2.2  34232  290.78 0854.37
2009/04/23 13:59:06.9     -59   -243    157    251    296 193.8  35.5  34216  290.51 0854.37
2009/04/23 13:59:07.0      17   -169    111    170    203 174.0  36.0  34226  290.69 0854.37
2009/04/23 13:59:07.1     -47    -50    110     69    129 223.3  64.7  34242  290.96 0854.37
2009/04/23 13:59:07.2    -257    -38     50    260    265 261.4  11.0  34250  291.09 0854.37
2009/04/23 13:59:07.3    -214   -135    -18    253    254 237.8  -4.1  34238  290.90 0854.37
2009/04/23 13:59:07.4    -260      6     46    261    266 271.5  10.1  34248  291.07 0854.37
2009/04/23 13:59:07.5    -203    -54    -11    211    212 255.0  -3.1  34228  290.74 0854.37
2009/04/23 13:59:07.6    -190   -119    124    225    256 238.0  31.4  34228  290.73 0854.37
2009/04/23 13:59:07.7    -300   -191    104    356    371 237.5  16.3  34234  290.84 0854.37
2009/04/23 13:59:07.8    -313   -143   -128    345    367 245.5 -25.5  34204  290.33 0854.37
2009/04/23 13:59:07.9    -176     -1    -56    177    185 269.6 -23.0  34188  290.04 0854.37
2009/04/23 13:59:08.0    -151   -134    167    203    262 228.4  43.7  34218  290.56 0854.37
2009/04/23 13:59:08.1    -340   -142    101    369    383 247.3  15.3  34230  290.76 0854.37
2009/04/23 13:59:08.2    -274    -99     81    292    304 250.1  15.6  34228  290.73 0854.37
2009/04/23 13:59:08.3    -337    -42     91    340    352 262.8  15.0  34254  291.18 0854.37
2009/04/23 13:59:08.4    -320    -94    -69    334    342 253.5 -11.8  34232  290.81 0854.37
2009/04/23 13:59:08.5    -318   -153   -105    353    368 244.3 -21.6  34200  290.25 0854.35
2009/04/23 13:59:08.6    -296   -140    -99    328    343 244.6 -16.8  34210  290.42 0854.35
2009/04/23 13:59:08.7    -208   -170    -81    269    280 230.7 -21.8  34220  290.58 0854.35
2009/04/23 13:59:08.8    -238   -151    -56    283    289 237.6 -11.3  34224  290.66 0854.35
2009/04/23 13:59:08.9     -96   -339     89    353    365 195.8  14.2  34230  290.77 0854.35
2009/04/23 13:59:09.0    -188   -257    169    319    361 216.1  30.3  34232  290.79 0854.35
2009/04/23 13:59:09.1     -95   -230    110    249    272 202.5  25.2  34234  290.82 0854.35
2009/04/23 13:59:09.2     -57   -121     80    134    156 205.3  34.0  34238  290.89 0854.35
2009/04/23 13:59:09.3     -32   -122    121    127    175 195.1  48.7  34242  290.98 0854.35
2009/04/23 13:59:09.4     -52   -123    148    134    199 203.2  53.3  34254  291.18 0854.35
2009/04/23 13:59:09.5     -93    -30    -23     98    101 251.8 -13.4  34254  291.18 0854.35
2009/04/23 13:59:09.6     -94   -116     30    150    154 219.2  11.6  34250  291.09 0854.35
2009/04/23 13:59:09.7    -230     -7     63    231    240 268.1  15.3  34242  290.97 0854.35
2009/04/23 13:59:09.8    -276    -33    -87    279    292 263.0 -22.3  34260  291.27 0854.35
2009/04/23 13:59:09.9    -408     53     12    412    413 277.5   1.7  34240  290.92 0854.35
2009/04/23 13:59:10.0    -468     43   -114    471    485 275.3 -13.7  34222  290.64 0854.35
2009/04/23 13:59:10.1    -608   -205    -36    642    644 251.3  -3.3  34200  290.25 0854.35
2009/04/23 13:59:10.2    -628   -127    -35    641    643 258.5  -3.2  34176  289.84 0854.35
2009/04/23 13:59:10.3    -658   -261   -139    709    723 248.3 -11.1  34176  289.84 0854.35
2009/04/23 13:59:10.4    -660   -299   -171    725    745 245.6 -13.3  34176  289.85 0854.35
2009/04/23 13:59:10.5    -707   -256   -160    753    770 250.1 -12.0  34186  290.02 0854.35
2009/04/23 13:59:10.6    -657   -272   -184    712    736 247.5 -14.5  34192  290.10 0854.35
2009/04/23 13:59:10.7    -564   -104    -73    574    579 259.5  -7.3  34196  290.19 0854.35
2009/04/23 13:59:10.8    -634   -245   -189    680    705 248.8 -20.1  34198  290.20 0854.35
2009/04/23 13:59:10.9    -610   -173    -82    635    641 254.1  -7.4  34230  290.76 0854.35
2009/04/23 13:59:11.0    -589   -264    -25    646    647 245.8  -2.2  34206  290.35 0854.35
2009/04/23 13:59:11.1    -646   -112   -188    656    683 260.1 -16.0  34190  290.07 0854.35
2009/04/23 13:59:11.2    -645    -80   -215    651    686 262.9 -18.3  34192  290.12 0854.35
2009/04/23 13:59:11.3    -687    -96   -200    694    722 262.0 -20.8  34202  290.28 0854.35
2009/04/23 13:59:11.4    -643   -104   -199    652    681 260.8 -21.8  34200  290.24 0854.35
2009/04/23 13:59:11.5    -627    -53   -193    630    658 265.1 -22.1  34198  290.23 0854.35
2009/04/23 13:59:11.6    -623   -114   -190    634    662 259.6 -16.7  34196  290.18 0854.35
2009/04/23 13:59:11.7    -487    -13   -151    488    510 268.4 -22.1  34200  290.25 0854.35
2009/04/23 13:59:11.8    -417    205   -208    465    509 296.2 -30.1  34198  290.20 0854.35
2009/04/23 13:59:11.9    -418    116   -132    434    454 285.6 -16.9  34188  290.04 0854.35
2009/04/23 13:59:12.0    -345    121   -196    366    415 289.4 -35.0  34194  290.16 0854.35
2009/04/23 13:59:12.1    -352     83   -180    362    404 283.3 -32.6  34198  290.21 0854.35
2009/04/23 13:59:12.2    -443    118   -161    459    486 285.0 -24.4  34198  290.23 0854.35
2009/04/23 13:59:12.3    -398    125   -203    418    464 287.5 -31.8  34200  290.24 0854.35
2009/04/23 13:59:12.4    -299    116   -219    321    388 291.3 -42.0  34204  290.32 0854.35
2009/04/23 13:59:12.5    -276     14   -238    277    365 273.0 -49.5  34194  290.15 0854.35
2009/04/23 13:59:12.6    -440    -39   -287    442    527 264.9 -40.4  34198  290.22 0854.35
2009/04/23 13:59:12.7    -430      0   -230    431    488 270.0 -34.7  34202  290.27 0854.35
2009/04/23 13:59:12.8    -448     69   -198    454    495 278.8 -29.5  34194  290.15 0854.35
2009/04/23 13:59:12.9    -444    116   -115    459    474 284.7 -14.1  34214  290.49 0854.35
2009/04/23 13:59:13.0    -383    115   -200    401    448 286.8 -32.8  34214  290.48 0854.35
2009/04/23 13:59:13.1    -393    140   -199    418    462 289.6 -31.7  34204  290.33 0854.35
2009/04/23 13:59:13.2    -346      7   -179    347    390 271.2 -33.8  34218  290.55 0854.35
2009/04/23 13:59:13.3    -251     -1   -144    252    290 269.6 -36.8  34218  290.54 0854.35
2009/04/23 13:59:13.4    -251     12   -181    252    310 272.8 -43.7  34210  290.41 0854.35
2009/04/23 13:59:13.5    -247    139   -153    284    322 299.5 -35.1  34246  291.02 0854.35
2009/04/23 13:59:13.6     -27    159     -7    162    163 350.2  -2.8  34240  290.92 0854.35
2009/04/23 13:59:13.7    -250    106     27    272    274 293.1   5.7  34228  290.71 0854.35
2009/04/23 13:59:13.8    -362     83   -153    372    402 283.0 -28.1  34204  290.32 0854.35
2009/04/23 13:59:13.9    -339     42   -169    342    381 277.2 -32.5  34206  290.35 0854.35
2009/04/23 13:59:14.0    -382    100   -257    395    471 284.7 -40.6  34200  290.26 0854.35
2009/04/23 13:59:14.1    -283    119   -212    308    373 292.8 -42.2  34204  290.32 0854.35
2009/04/23 13:59:14.2    -287      7   -230    288    368 271.5 -47.3  34208  290.40 0854.35
2009/04/23 13:59:14.3    -208      2   -223    209    305 270.8 -56.5  34220  290.59 0854.35
2009/04/23 13:59:14.4     -85     40   -235     95    253 295.3 -81.5  34220  290.58 0854.35
2009/04/23 13:59:14.5      32      9   -173     34    176  73.2 -90.0  34222  290.64 0854.35
2009/04/23 13:59:14.6       4    -56   -189     57    197 175.5 -87.2  34234  290.82 0854.35
2009/04/23 13:59:14.7     -67    -18   -208     70    219 254.9 -85.6  34234  290.84 0854.35
2009/04/23 13:59:14.8      39   -117   -170    124    210 161.3 -64.9  34238  290.89 0854.35
2009/04/23 13:59:14.9      71      5   -154     72    170  85.6 -77.5  34250  291.09 0854.35
2009/04/23 13:59:15.0      78   -119   -145    143    203 146.6 -54.5  34228  290.74 0854.35
2009/04/23 13:59:15.1     188    -88   -114    208    237 115.2 -35.7  34212  290.45 0854.35
2009/04/23 13:59:15.2     102   -145    -58    178    188 144.8 -18.1  34212  290.47 0854.35
2009/04/23 13:59:15.3     103   -246   -145    267    303 157.3 -35.4  34232  290.80 0854.35
2009/04/23 13:59:15.4     117   -331    -99    352    365 160.5 -20.3  34220  290.59 0854.35
2009/04/23 13:59:15.5     130   -229    -90    264    278 150.4 -23.8  34232  290.80 0854.35
2009/04/23 13:59:15.6     168   -297    -99    342    356 150.5 -21.0  34240  290.94 0854.35
2009/04/23 13:59:15.7     114   -344    179    363    404 161.5  28.2  34238  290.88 0854.35
2009/04/23 13:59:15.8     124   -353    252    375    451 160.6  37.3  34230  290.77 0854.35
2009/04/23 13:59:15.9     148   -365    210    394    446 157.9  30.3  34238  290.89 0854.35
2009/04/23 13:59:16.0     238   -284    183    371    413 140.1  28.2  34230  290.76 0854.35
2009/04/23 13:59:16.1     316   -228    164    390    423 125.9  24.2  34230  290.77 0854.35
2009/04/23 13:59:16.2     310   -192    127    365    387 121.8  19.2  34234  290.83 0854.35
2009/04/23 13:59:16.3     295   -190    149    352    382 122.8  24.3  34242  290.96 0854.35
2009/04/23 13:59:16.4     274   -201     73    340    348 126.3  12.2  34234  290.84 0854.35
2009/04/23 13:59:16.5     225   -115    149    253    293 117.1  33.4  34238  290.88 0854.36
2009/04/23 13:59:16.6     181   -175    185    253    313 134.0  39.9  34248  291.07 0854.36
2009/04/23 13:59:16.7     196   -228    143    301    333 139.4  27.3  34236  290.85 0854.36
2009/04/23 13:59:16.8     257   -213    140    335    363 129.7  23.9  34236  290.86 0854.36
2009/04/23 13:59:16.9     251    -51    214    257    334 101.5  44.0  34236  290.87 0854.36
2009/04/23 13:59:17.0     233    -24    135    235    271  96.1  32.4  34232  290.80 0854.36
2009/04/23 13:59:17.1      28     85    111     90    142  18.3  56.4  34236  290.86 0854.36
2009/04/23 13:59:17.2      -5     70     -9     71     72 355.5  -7.3  34238  290.89 0854.36
2009/04/23 13:59:17.3     -36     29     41     47     62 308.6  46.9  34242  290.96 0854.36
2009/04/23 13:59:17.4       9     32     43     34     54  16.9  57.5  34248  291.08 0854.36
2009/04/23 13:59:17.5     156    -74     53    173    181 115.5  17.1  34244  290.99 0854.36
2009/04/23 13:59:17.6      96    -58    -78    113    137 121.1 -42.4  34244  290.99 0854.36
2009/04/23 13:59:17.7     147     43    -54    154    164  73.6 -19.4  34238  290.89 0854.36
2009/04/23 13:59:17.8     126    -12    153    127    198  95.7  56.3  34242  290.96 0854.36
2009/04/23 13:59:17.9       2    -94    174     95    198 178.2  69.1  34254  291.18 0854.36
2009/04/23 13:59:18.0       8   -113    198    114    228 175.5  67.5  34252  291.15 0854.36
2009/04/23 13:59:18.1      43   -227    242    232    335 169.3  51.3  34240  290.93 0854.36
2009/04/23 13:59:18.2    -152   -408    254    436    504 200.4  32.9  34262  291.30 0854.36
2009/04/23 13:59:18.3    -264   -282    100    387    400 223.0  14.6  34270  291.45 0854.36
2009/04/23 13:59:18.4    -236   -395     98    461    472 210.9  12.0  34242  290.98 0854.36
2009/04/23 13:59:18.5    -217   -256    124    336    358 220.3  21.1  34258  291.22 0854.32
2009/04/23 13:59:18.6    -144   -202    133    249    282 215.6  30.3  34244  291.00 0854.32
2009/04/23 13:59:18.7     -43   -301    316    305    439 188.1  51.2  34246  291.03 0854.32
2009/04/23 13:59:18.8    -164   -322    235    362    431 207.1  36.0  34240  290.92 0854.32
2009/04/23 13:59:18.9    -136   -256    125    291    316 208.0  24.8  34270  291.43 0854.32
2009/04/23 13:59:19.0    -100   -276    127    294    320 200.1  24.8  34250  291.09 0854.32
2009/04/23 13:59:19.1     -53   -262    199    268    333 191.6  40.2  34258  291.22 0854.32
2009/04/23 13:59:19.2    -202   -277    117    343    363 216.1  18.9  34256  291.20 0854.32
2009/04/23 13:59:19.3    -173   -331     80    374    383 207.7  12.2  34254  291.18 0854.32
2009/04/23 13:59:19.4    -243   -321     98    403    415 217.1  13.7  34242  290.97 0854.32
2009/04/23 13:59:19.5     -92   -353    296    365    469 194.7  43.1  34240  290.94 0854.32
2009/04/23 13:59:19.6     -75   -499    137    505    524 188.6  15.2  34224  290.66 0854.32
2009/04/23 13:59:19.7       8   -649    165    650    671 179.3  14.3  34226  290.70 0854.32
2009/04/23 13:59:19.8     110   -629    109    639    649 170.0   9.7  34220  290.60 0854.32
2009/04/23 13:59:19.9     149   -675     56    692    695 167.5   4.7  34218  290.55 0854.32
2009/04/23 13:59:20.0      92   -668     34    675    676 172.1   2.9  34214  290.48 0854.32
2009/04/23 13:59:20.1     113   -699    116    709    719 170.8   9.3  34216  290.52 0854.32
2009/04/23 13:59:20.2     160   -614     87    635    641 165.4   7.8  34212  290.45 0854.32
2009/04/23 13:59:20.3     113   -558    171    570    596 168.5  16.7  34218  290.56 0854.32
2009/04/23 13:59:20.4     121   -542    194    556    590 167.4  19.3  34216  290.51 0854.32
2009/04/23 13:59:20.5     139   -507    235    526    576 164.6  25.8  34204  290.33 0854.35
2009/04/23 13:59:20.6     231   -490    206    542    579 154.7  22.0  34206  290.36 0854.35
2009/04/23 13:59:20.7      90   -469    226    478    528 169.1  27.1  34200  290.25 0854.35
2009/04/23 13:59:20.8     -13   -483    288    484    563 181.6  33.5  34212  290.46 0854.35
2009/04/23 13:59:20.9      43   -570    348    572    669 175.7  34.2  34208  290.38 0854.35
2009/04/23 13:59:21.0    -143   -453    465    476    665 197.5  49.4  34230  290.76 0854.35
2009/04/23 13:59:21.1      75   -337    441    346    560 167.4  57.9  34222  290.64 0854.35
2009/04/23 13:59:21.2     -11   -328    354    329    483 182.0  52.3  34222  290.61 0854.35
2009/04/23 13:59:21.3     130   -425    336    445    557 163.0  40.8  34218  290.55 0854.35
2009/04/23 13:59:21.4      81   -573    242    579    627 171.9  24.1  34210  290.42 0854.35
2009/04/23 13:59:21.5     218   -531    186    575    605 157.7  17.9  34220  290.59 0854.35
2009/04/23 13:59:21.6     323   -451    145    555    574 144.4  14.7  34222  290.63 0854.35
2009/04/23 13:59:21.7     245   -373    105    447    460 146.7  13.2  34230  290.77 0854.35
2009/04/23 13:59:21.8     245   -419    230    486    537 149.7  27.1  34212  290.46 0854.35
2009/04/23 13:59:21.9      37   -474    252    476    538 175.5  30.2  34206  290.35 0854.35
2009/04/23 13:59:22.0     104   -512    201    523    560 168.4  22.1  34218  290.57 0854.35
2009/04/23 13:59:22.1       4   -416    144    417    442 179.4  19.1  34220  290.60 0854.35
2009/04/23 13:59:22.2      50   -463    218    466    514 173.8  26.9  34220  290.59 0854.35
2009/04/23 13:59:22.3     292   -422    387    514    643 145.3  40.7  34212  290.47 0854.35
2009/04/23 13:59:22.4     211   -449    475    497    687 154.8  48.6  34216  290.52 0854.35
2009/04/23 13:59:22.5      96   -477    459    487    669 168.6  48.2  34208  290.40 0854.35
2009/04/23 13:59:22.6       0   -401    393    402    562 180.0  49.4  34216  290.52 0854.35
2009/04/23 13:59:22.7     157   -426    383    455    594 159.7  44.3  34220  290.58 0854.35
2009/04/23 13:59:22.8     163   -520    326    546    635 162.6  33.7  34218  290.54 0854.35
2009/04/23 13:59:22.9      96   -395    359    407    542 166.3  45.9  34212  290.47 0854.35
2009/04/23 13:59:23.0     140   -413    497    437    661 161.3  54.3  34230  290.76 0854.35
2009/04/23 13:59:23.1    -298   -279    410    409    579 226.9  50.1  34226  290.70 0854.35
2009/04/23 13:59:23.2     183   -268    269    325    421 145.7  43.8  34222  290.62 0854.35
2009/04/23 13:59:23.3     125   -133    321    183    369 136.8  67.7  34226  290.68 0854.35
2009/04/23 13:59:23.4     217     36    305    220    376  80.5  60.6  34228  290.71 0854.35
2009/04/23 13:59:23.5      59   -126    217    140    258 155.1  64.4  34222  290.64 0854.35
2009/04/23 13:59:23.6     326    100    181    342    386  72.9  30.2  34224  290.67 0854.35
2009/04/23 13:59:23.7     203     10    216    204    297  87.0  52.1  34230  290.76 0854.35
2009/04/23 13:59:23.8      10     19    140     22    141  27.2  90.0  34246  291.04 0854.35
2009/04/23 13:59:23.9      -3     47    195     48    200 355.5  86.4  34238  290.89 0854.35
2009/04/23 13:59:24.0     -83   -119    305    146    338 214.7  72.8  34226  290.68 0854.35
2009/04/23 13:59:24.1     -64     67    219     94    238 316.3  75.5  34238  290.89 0854.35
2009/04/23 13:59:24.2      -3     18    194     19    194 348.4  90.0  34244  291.01 0854.35
2009/04/23 13:59:24.3     -53     -8    237     54    243 261.2  87.5  34240  290.94 0854.35
2009/04/23 13:59:24.4     -88   -244    263    260    369 199.8  50.2  34228  290.71 0854.35
2009/04/23 13:59:24.5     -59   -179    148    189    240 198.3  42.0  34218  290.57 0854.36
2009/04/23 13:59:24.6    -103   -350    339    365    498 196.4  47.8  34220  290.58 0854.36
2009/04/23 13:59:24.7    -402   -443    374    599    706 222.2  34.9  34234  290.83 0854.36
2009/04/23 13:59:24.8    -499   -221    241    546    596 246.1  25.3  34232  290.78 0854.36
2009/04/23 13:59:24.9    -240   -177    239    299    382 233.6  42.9  34234  290.83 0854.36
2009/04/23 13:59:25.0    -286    -81    188    298    352 254.1  35.3  34234  290.84 0854.36
2009/04/23 13:59:25.1    -381     69    138    388    411 280.3  20.4  34226  290.70 0854.36
2009/04/23 13:59:25.2    -391     94    120    403    421 283.6  16.7  34238  290.90 0854.36
2009/04/23 13:59:25.3    -278   -219    182    354    398 231.8  29.3  34234  290.84 0854.36
2009/04/23 13:59:25.4    -442      3    153    443    469 270.5  19.1  34236  290.87 0854.36
2009/04/23 13:59:25.5    -376     53     11    380    381 278.1   1.7  34240  290.93 0854.36
2009/04/23 13:59:25.6    -443     13     21    444    445 271.7   2.8  34242  290.97 0854.36
2009/04/23 13:59:25.7    -418    -91    -86    429    438 257.6 -11.3  34224  290.67 0854.36
2009/04/23 13:59:25.8    -529     -8    -83    530    537 269.1  -9.0  34216  290.53 0854.36
2009/04/23 13:59:25.9    -642    -42   -130    644    657 266.2 -11.5  34246  291.03 0854.36
2009/04/23 13:59:26.0    -535     42     40    537    539 274.6   4.3  34238  290.91 0854.36
2009/04/23 13:59:26.1    -325     21     98    326    341 273.7  16.8  34244  291.00 0854.36
2009/04/23 13:59:26.2    -388     55     56    393    398 278.1   8.2  34244  291.00 0854.36
2009/04/23 13:59:26.3    -609    155    179    629    654 284.3  15.9  34278  291.59 0854.36
2009/04/23 13:59:26.4    -433    119     24    450    451 285.4   3.1  34248  291.06 0854.36
2009/04/23 13:59:26.5    -401    -28    188    402    443 266.0  27.1  34270  291.43 0854.36
2009/04/23 13:59:26.6    -331    -35    -74    333    342 263.9 -12.5  34234  290.84 0854.36
2009/04/23 13:59:26.7    -533      0    -55    534    537 270.0  -5.9  34232  290.79 0854.36
2009/04/23 13:59:26.8    -852   -271   -223    895    923 252.3 -14.0  34232  290.80 0854.36
2009/04/23 13:59:26.9    -515   -429   -158    671    690 230.2 -13.3  34244  290.99 0854.36
2009/04/23 13:59:27.0    -678   -117   -193    689    715 260.2 -20.4  34226  290.69 0854.36
2009/04/23 13:59:27.1    -544   -137    -66    561    565 255.8  -6.8  34248  291.08 0854.36
2009/04/23 13:59:27.2    -631    -36     55    633    636 266.7   5.0  34258  291.23 0854.36
2009/04/23 13:59:27.3    -563    -30     39    564    566 266.9   4.0  34264  291.33 0854.36
2009/04/23 13:59:27.4    -496    -96     13    506    507 259.0   1.5  34272  291.46 0854.36
2009/04/23 13:59:27.5    -369   -194     66    418    424 242.2   9.0  34266  291.38 0854.38
2009/04/23 13:59:27.6    -525   -158    -35    549    551 253.2  -3.7  34262  291.31 0854.38
2009/04/23 13:59:27.7    -420   -226     23    477    478 241.7   2.8  34266  291.37 0854.38
2009/04/23 13:59:27.8    -395   -172    -23    431    432 246.5  -3.1  34276  291.55 0854.38
2009/04/23 13:59:27.9    -447   -352     -7    569    570 231.8  -0.7  34250  291.09 0854.38
2009/04/23 13:59:28.0    -322   -449    -30    553    554 215.7  -3.2  34224  290.65 0854.38
2009/04/23 13:59:28.1    -120   -562   -159    575    597 192.1 -15.5  34230  290.76 0854.38
2009/04/23 13:59:28.2      48   -523   -149    526    547 174.7 -15.9  34230  290.75 0854.38
2009/04/23 13:59:28.3      62   -397    -99    402    415 171.1 -13.9  34226  290.68 0854.38
2009/04/23 13:59:28.4      98   -393     20    405    406 166.0   2.9  34236  290.87 0854.38
2009/04/23 13:59:28.5    -102   -323    121    339    359 197.5  20.4  34246  291.03 0854.38
2009/04/23 13:59:28.6    -104   -268    123    288    313 201.2  24.5  34252  291.12 0854.38
2009/04/23 13:59:28.7     -21   -305     53    306    311 184.0   9.9  34260  291.26 0854.38
2009/04/23 13:59:28.8      51   -255    -29    261    263 168.5  -6.5  34242  290.95 0854.38
2009/04/23 13:59:28.9      63   -250    112    259    282 165.7  24.9  34238  290.90 0854.38
2009/04/23 13:59:29.0      41   -336    195    339    391 172.9  32.6  34254  291.17 0854.38
2009/04/23 13:59:29.1     -76   -225    225    238    327 198.7  48.4  34252  291.12 0854.38
2009/04/23 13:59:29.2     120   -106    192    161    250 131.4  56.1  34254  291.16 0854.38
2009/04/23 13:59:29.3     181   -430    338    467    576 157.1  39.5  34244  290.99 0854.38
2009/04/23 13:59:29.4     126   -380    290    401    494 161.6  39.5  34240  290.93 0854.38
2009/04/23 13:59:29.5     136   -409    300    432    525 161.5  38.1  34228  290.74 0854.36
2009/04/23 13:59:29.6      94   -522    237    531    581 169.8  25.8  34226  290.69 0854.36
2009/04/23 13:59:29.7     -20   -461    188    462    498 182.6  23.5  34232  290.78 0854.36
2009/04/23 13:59:29.8     135   -200    267    242    360 145.9  53.3  34238  290.90 0854.36
2009/04/23 13:59:29.9     -62   -348    212    354    412 190.1  33.7  34234  290.84 0854.36
2009/04/23 13:59:30.0      69   -274    193    283    342 165.7  37.7  34246  291.04 0854.36
2009/04/23 13:59:30.1      -3   -187    181    188    260 181.1  49.0  34246  291.02 0854.36
2009/04/23 13:59:30.2     -19   -138    173    140    222 188.0  56.6  34256  291.20 0854.36
2009/04/23 13:59:30.3     -57   -120    136    134    190 205.5  50.1  34252  291.13 0854.36
2009/04/23 13:59:30.4     -96   -138    142    169    220 215.0  44.1  34248  291.06 0854.36
2009/04/23 13:59:30.5     -93   -128     92    159    183 216.1  32.7  34246  291.04 0854.36
2009/04/23 13:59:30.6     -97    -95    103    137    171 225.6  40.9  34244  290.99 0854.36
2009/04/23 13:59:30.7     -25   -136     48    139    148 190.7  19.2  34240  290.94 0854.36
2009/04/23 13:59:30.8     -69   -154    141    169    220 204.1  43.8  34236  290.86 0854.36
2009/04/23 13:59:30.9    -154    -92    167    180    245 239.1  47.7  34258  291.25 0854.36
2009/04/23 13:59:31.0    -249   -137    -18    285    286 241.2  -3.7  34254  291.17 0854.36
2009/04/23 13:59:31.1    -129   -327     -1    352    353 201.6  -0.3  34244  291.01 0854.36
2009/04/23 13:59:31.2     -49   -231     37    237    240 192.0   9.0  34260  291.27 0854.36
2009/04/23 13:59:31.4    -117    -51    179    128    220 246.5  60.8  34260  291.26 0854.36
2009/04/23 13:59:31.4     -86   -157    234    179    294 208.7  58.7  34276  291.55 0854.36
2009/04/23 13:59:31.5     -39   -284    325    287    433 188.0  54.2  34272  291.49 0854.35
2009/04/23 13:59:31.6     -52   -197    304    204    366 195.1  63.1  34266  291.36 0854.35
2009/04/23 13:59:31.7     -39   -129    245    135    279 196.9  68.8  34260  291.26 0854.35
2009/04/23 13:59:31.8      42    -33    106     54    118 127.8  70.8  34266  291.37 0854.35
2009/04/23 13:59:31.9     167   -165    231    236    330 134.7  49.7  34238  290.88 0854.35
2009/04/23 13:59:32.0      71   -191    158    204    258 159.5  41.7  34264  291.33 0854.35
2009/04/23 13:59:32.1     188    -21    147    190    240  96.6  41.7  34250  291.09 0854.35
2009/04/23 13:59:32.2       8    -13    110     16    111 147.5  90.0  34258  291.25 0854.35
2009/04/23 13:59:32.3    -140     24     68    143    158 279.7  27.0  34262  291.30 0854.35
2009/04/23 13:59:32.4    -154    -82     42    175    181 242.0  13.7  34262  291.32 0854.35
2009/04/23 13:59:32.6    -187    -64    -42    198    203 250.9 -12.2  34262  291.32 0854.35
2009/04/23 13:59:32.6    -239      0    -64    240    249 269.9 -15.0  34286  291.72 0854.35
2009/04/23 13:59:32.7    -286     85     46    299    303 286.6   8.8  34282  291.63 0854.35
2009/04/23 13:59:32.9    -331     99     89    346    358 286.6  14.4  34282  291.64 0854.35
2009/04/23 13:59:33.0    -325     19     99    326    341 273.5  17.0  34298  291.91 0854.35
2009/04/23 13:59:33.0    -237    -78    189    250    313 251.6  40.9  34284  291.68 0854.35
2009/04/23 13:59:33.2     -65   -138    185    153    240 205.3  56.3  34282  291.66 0854.35
2009/04/23 13:59:33.3     -86   -338    268    349    440 194.4  41.5  34282  291.65 0854.35
2009/04/23 13:59:33.4    -135   -245    268    280    387 208.9  48.7  34284  291.69 0854.35
2009/04/23 13:59:33.5    -135   -198    164    240    290 214.3  37.6  34292  291.80 0854.35
2009/04/23 13:59:33.6      70   -243    255    253    359 163.9  50.1  34250  291.09 0854.35
2009/04/23 13:59:33.7       0   -456    164    457    485 180.0  20.4  34262  291.32 0854.35
2009/04/23 13:59:33.8      52   -217     52    224    231 166.4  13.2  34228  290.74 0854.35
2009/04/23 13:59:33.9     -61    -96     13    114    115 212.5   6.9  34248  291.08 0854.35
2009/04/23 13:59:34.0     -95     14    -65     97    116 278.8 -40.9  34242  290.98 0854.35
2009/04/23 13:59:34.1     -22      3    -49     23     54 279.7 -77.5  34252  291.15 0854.35
2009/04/23 13:59:34.2      18     -3    -32     19     37 101.5 -69.1  34252  291.15 0854.35
2009/04/23 13:59:34.3      77    -44     43     89     98 119.8  27.8  34246  291.03 0854.35
2009/04/23 13:59:34.4      98     17     13    100    101  79.9   7.5  34242  290.98 0854.35
2009/04/23 13:59:34.5     102      2     18    103    105  88.7  10.1  34242  290.98 0854.35
2009/04/23 13:59:34.6      97     -3      2     98     99  92.1   1.2  34240  290.92 0854.35
2009/04/23 13:59:34.7      97    -44     61    107    123 114.4  32.9  34240  290.94 0854.35
2009/04/23 13:59:34.8      67    -66      9     95     96 134.6   5.4  34236  290.86 0854.35
2009/04/23 13:59:34.9      24   -113     -4    116    117 168.0  -2.2  34226  290.70 0854.35
2009/04/23 13:59:35.0     -46   -122    -47    131    140 200.9 -19.7  34224  290.65 0854.35
2009/04/23 13:59:35.1     -81    -64    -13    104    105 231.8  -7.3  34220  290.60 0854.35
2009/04/23 13:59:35.2    -164     19      0    166    167 276.6  -0.3  34234  290.84 0854.35
2009/04/23 13:59:35.3    -132     10     53    133    143 274.4  23.0  34234  290.82 0854.35
2009/04/23 13:59:35.4    -110     35     70    116    135 287.7  34.4  34244  290.99 0854.35
2009/04/23 13:59:35.5     -58      6    103     59    118 276.1  67.7  34242  290.96 0854.35
2009/04/23 13:59:35.6      58    -54     78     80    111 133.2  50.0  34242  290.98 0854.36
2009/04/23 13:59:35.7     -88   -145    197    170    260 211.2  55.0  34226  290.68 0854.36
2009/04/23 13:59:35.8    -203   -324    166    383    417 212.1  24.9  34230  290.77 0854.36
2009/04/23 13:59:35.9    -259   -277    102    380    394 223.1  15.0  34244  291.00 0854.36
2009/04/23 13:59:36.0     -61   -391    208    396    447 188.9  30.0  34228  290.72 0854.36
2009/04/23 13:59:36.1     -63   -285    230    292    371 192.5  42.2  34228  290.72 0854.36
2009/04/23 13:59:36.2     -59    -92     59    110    124 212.6  30.8  34248  291.06 0854.36
2009/04/23 13:59:36.3       3    -57    121     58    134 176.4  72.8  34242  290.98 0854.36
2009/04/23 13:59:36.4       0     35    144     36    148 359.1  85.9  34240  290.94 0854.36
2009/04/23 13:59:36.5      74    -15    125     76    146 101.5  65.7  34236  290.86 0854.36
2009/04/23 13:59:36.6     -18    189    118    190    223 354.4  35.2  34246  291.04 0854.36
2009/04/23 13:59:36.7    -174    126     74    216    229 306.0  18.9  34270  291.45 0854.36
2009/04/23 13:59:36.8      75     24    216     79    229  71.8  79.2  34296  291.89 0854.36
2009/04/23 13:59:36.9     108     59    268    124    295  61.1  73.5  34324  292.35 0854.36
2009/04/23 13:59:37.0      70     37    201     80    216  62.0  77.1  34294  291.84 0854.36
2009/04/23 13:59:37.1     -56   -102    212    117    242 209.0  68.8  34276  291.55 0854.36
2009/04/23 13:59:37.2      54   -135    243    146    283 158.1  66.4  34246  291.02 0854.36
2009/04/23 13:59:37.3     -87   -268    321    282    427 198.0  54.3  34268  291.42 0854.36
2009/04/23 13:59:37.4    -224   -290    235    367    435 217.8  35.6  34272  291.48 0854.36
2009/04/23 13:59:37.5    -120   -311    198    334    388 201.2  33.5  34268  291.40 0854.36
2009/04/23 13:59:37.6     -64   -253    310    262    405 194.3  55.6  34268  291.40 0854.37
2009/04/23 13:59:37.7     -75   -246    181    258    315 196.9  38.5  34270  291.44 0854.37
2009/04/23 13:59:37.8    -196   -162    155    255    298 230.5  34.2  34272  291.48 0854.37
2009/04/23 13:59:37.9     -14   -223    132    224    260 183.8  33.4  34272  291.48 0854.37
2009/04/23 13:59:38.0    -138   -309    118    339    358 204.1  20.0  34268  291.42 0854.37
2009/04/23 13:59:38.1    -107   -260     32    282    284 202.3   6.5  34234  290.83 0854.37
2009/04/23 13:59:38.2    -126   -173    115    215    243 216.1  30.3  34252  291.12 0854.37
2009/04/23 13:59:38.3     -66   -277      8    285    286 193.6   1.6  34254  291.16 0854.37
2009/04/23 13:59:38.4      61    -39    214     73    226 122.5  81.2  34262  291.30 0854.37
2009/04/23 13:59:38.5     115   -309    248    330    412 159.6  40.7  34240  290.93 0854.37
2009/04/23 13:59:38.6      80   -339    193    349    398 166.6  31.4  34218  290.54 0854.37
2009/04/23 13:59:38.7     215   -391    221    447    498 151.2  28.2  34216  290.52 0854.37
2009/04/23 13:59:38.8     295   -356    236    463    519 140.4  29.2  34214  290.49 0854.37
2009/04/23 13:59:38.9     162   -195    114    254    278 140.3  25.9  34218  290.54 0854.37
2009/04/23 13:59:39.0      -3   -266    115    267    290 180.7  25.1  34222  290.63 0854.37
2009/04/23 13:59:39.1     -83   -233     22    248    250 199.8   5.2  34220  290.59 0854.37
2009/04/23 13:59:39.2    -100   -278    158    296    335 200.0  30.6  34228  290.71 0854.37
2009/04/23 13:59:39.3      -5   -275      0    276    277 181.1   0.0  34224  290.66 0854.37
2009/04/23 13:59:39.4     -77   -276    191    287    344 195.6  36.7  34224  290.65 0854.37
2009/04/23 13:59:39.5      -1    -84    158     85    179 180.9  69.3  34236  290.87 0854.37
2009/04/23 13:59:39.6     101    156     22    187    189  33.0   6.9  34258  291.25 0854.38
2009/04/23 13:59:39.7     244    107    -68    267    276  66.3 -14.4  34266  291.36 0854.38
2009/04/23 13:59:39.8     253    114    -32    278    280  65.6  -6.7  34258  291.24 0854.38
2009/04/23 13:59:39.9     298    122   -153    323    357  67.7 -31.6  34258  291.23 0854.38
2009/04/23 13:59:40.0     238    183   -104    301    319  52.5 -19.1  34286  291.72 0854.38
2009/04/23 13:59:40.1     185    186    -72    263    273  44.9 -15.4  34256  291.19 0854.38
2009/04/23 13:59:40.2     149    201     59    251    258  36.5  13.2  34262  291.31 0854.38
2009/04/23 13:59:40.3      62    111    137    128    187  29.4  52.2  34266  291.37 0854.38
2009/04/23 13:59:40.4       0     61    107     62    123   0.0  66.8  34280  291.60 0854.38
2009/04/23 13:59:40.5     -80     63    132    103    167 308.2  57.9  34266  291.37 0854.38
2009/04/23 13:59:40.6    -214     65    106    224    247 286.9  27.2  34260  291.26 0854.38
2009/04/23 13:59:40.7    -205    -74     91    219    237 250.1  24.1  34248  291.06 0854.38
2009/04/23 13:59:40.8    -163      0      5    164    165 270.0   1.8  34256  291.20 0854.38
2009/04/23 13:59:40.9    -142     71    -44    159    166 296.6 -15.5  34258  291.23 0854.38
2009/04/23 13:59:41.0    -250   -105    -64    272    280 247.2 -13.4  34254  291.16 0854.38
2009/04/23 13:59:41.1    -296     71   -104    305    323 283.5 -18.8  34262  291.29 0854.38
2009/04/23 13:59:41.2    -240     53   -122    246    274 282.6 -32.6  34250  291.10 0854.38
2009/04/23 13:59:41.3    -163    116   -152    201    252 305.5 -45.1  34250  291.10 0854.38
2009/04/23 13:59:41.4    -199    187    -85    274    287 313.2 -17.3  34246  291.02 0854.38
2009/04/23 13:59:41.5    -160    100    -52    189    197 302.0 -15.5  34242  290.96 0854.38
2009/04/23 13:59:41.6    -173    216     33    278    281 321.3   6.9  34248  291.07 0854.39
2009/04/23 13:59:41.7    -100    163     43    192    197 328.4  12.9  34258  291.23 0854.39
2009/04/23 13:59:41.8    -106    340    121    357    378 342.6  18.8  34244  291.00 0854.39
2009/04/23 13:59:41.9     -30    496    109    497    509 356.5  12.4  34276  291.54 0854.39
2009/04/23 13:59:42.0    -168    311     55    354    359 331.6   8.9  34260  291.27 0854.39
2009/04/23 13:59:42.1    -113    332     77    351    360 341.1  12.4  34280  291.62 0854.39
2009/04/23 13:59:42.2    -132    362    141    386    410 340.0  20.9  34308  292.09 0854.39
2009/04/23 13:59:42.3    -122    256    150    284    321 334.5  30.2  34292  291.82 0854.39
2009/04/23 13:59:42.4    -107    148    219    183    285 324.2  56.3  34270  291.44 0854.39
2009/04/23 13:59:42.5     -72    216    255    228    342 341.5  53.7  34274  291.51 0854.39
2009/04/23 13:59:42.6     -99    193    194    218    291 332.8  46.2  34264  291.33 0854.39
2009/04/23 13:59:42.7     -49     59    163     77    180 320.3  72.9  34274  291.52 0854.39
2009/04/23 13:59:42.8     -37    -17    154     41    159 244.6  85.2  34252  291.15 0854.39
2009/04/23 13:59:42.9    -146     36    104    151    183 284.2  37.8  34262  291.30 0854.39
2009/04/23 13:59:43.0     -57    -19     97     61    114 251.4  64.7  34266  291.37 0854.39
2009/04/23 13:59:43.1      71    -33     82     79    113 115.3  50.7  34250  291.09 0854.39
2009/04/23 13:59:43.2     153    -72    107    170    200 115.4  35.2  34242  290.96 0854.39
2009/04/23 13:59:43.3      35   -142    131    147    196 166.2  46.4  34246  291.04 0854.39
2009/04/23 13:59:43.4      46   -187    133    193    234 166.2  37.8  34252  291.15 0854.39
2009/04/23 13:59:43.5      68   -174    154    187    242 158.6  43.7  34248  291.08 0854.39
2009/04/23 13:59:43.6      36   -181    164    185    247 168.7  46.2  34242  290.98 0854.39
2009/04/23 13:59:43.7      -3   -359    324    360    484 180.6  46.6  34232  290.80 0854.39
2009/04/23 13:59:43.8      94   -345    153    358    389 164.7  24.6  34218  290.55 0854.39
2009/04/23 13:59:43.9     148   -275    145    313    344 151.7  26.9  34214  290.50 0854.39
2009/04/23 13:59:44.0      64    -52    181     83    199 129.5  73.8  34232  290.79 0854.39
2009/04/23 13:59:44.1     -40    -86    156     95    182 204.9  65.7  34230  290.77 0854.39
2009/04/23 13:59:44.2      91    -53    147    106    181 120.2  60.6  34230  290.75 0854.39
2009/04/23 13:59:44.3     198    -94    173    220    279 115.3  42.0  34228  290.71 0854.39
2009/04/23 13:59:44.4     296   -101    105    313    331 109.0  18.6  34232  290.78 0854.39
2009/04/23 13:59:44.5     234   -204     96    311    326 131.1  17.2  34230  290.76 0854.39
2009/04/23 13:59:44.6     151   -279    -30    318    320 151.5  -5.5  34232  290.80 0854.39
2009/04/23 13:59:44.7     138   -174    -72    223    235 141.5 -17.9  34232  290.79 0854.39
2009/04/23 13:59:44.8     107   -320   -118    338    358 161.4 -24.5  34230  290.77 0854.39
2009/04/23 13:59:44.9     143   -261   -183    298    349 151.1 -39.2  34228  290.72 0854.39
2009/04/23 13:59:45.0     166   -245   -115    297    318 145.8 -26.7  34232  290.78 0854.39
2009/04/23 13:59:45.1       2   -171    -65    172    183 179.3 -25.9  34230  290.75 0854.39
2009/04/23 13:59:45.2      38   -222     42    226    230 170.2  10.6  34240  290.92 0854.39
2009/04/23 13:59:45.3      68   -143    162    159    226 154.6  50.4  34238  290.91 0854.39
2009/04/23 13:59:45.4     104    -67    128    124    178 122.9  50.9  34240  290.94 0854.39
2009/04/23 13:59:45.5      77   -106    149    132    199 144.0  54.0  34238  290.91 0854.39
2009/04/23 13:59:45.6      78   -138    171    159    233 150.6  52.2  34232  290.81 0854.42
2009/04/23 13:59:45.7     206   -170    235    268    356 129.6  45.8  34238  290.91 0854.42
2009/04/23 13:59:45.8     109   -348    340    365    498 162.5  47.9  34224  290.67 0854.42
2009/04/23 13:59:45.9     117   -341    342    361    497 161.0  48.4  34220  290.58 0854.42
2009/04/23 13:59:46.0       0    -56    247     57    253 180.0  87.5  34226  290.69 0854.42
2009/04/23 13:59:46.1     142   -409    107    434    448 160.8  13.9  34228  290.72 0854.42
2009/04/23 13:59:46.2     178   -465    -35    499    501 159.0  -4.1  34230  290.76 0854.42
2009/04/23 13:59:46.3     281   -406    -66    495    500 145.3  -7.7  34232  290.78 0854.42
2009/04/23 13:59:46.4     259   -388    113    467    481 146.3  13.7  34210  290.42 0854.42
2009/04/23 13:59:46.5      50   -352    -45    356    359 171.8  -7.3  34214  290.50 0854.42
2009/04/23 13:59:46.6     190   -298   -128    354    376 147.4 -25.2  34228  290.71 0854.42
2009/04/23 13:59:46.7     222   -266    -98    347    360 140.2 -20.5  34232  290.81 0854.42
2009/04/23 13:59:46.8     154   -305    -13    342    343 153.2  -2.2  34224  290.66 0854.42
2009/04/23 13:59:46.9     281   -143     29    316    318 117.0   5.3  34196  290.19 0854.42
2009/04/23 13:59:47.0     -16   -116    133    118    177 188.0  53.7  34230  290.75 0854.42
2009/04/23 13:59:47.1      19   -198     68    199    211 174.4  18.9  34228  290.74 0854.42
2009/04/23 13:59:47.2     -23   -250      0    252    253 185.3   0.0  34236  290.85 0854.42
2009/04/23 13:59:47.3     -20   -369     24    370    371 183.2   3.7  34224  290.67 0854.42
2009/04/23 13:59:47.4     215   -406    -59    460    464 152.0  -7.3  34224  290.67 0854.42
2009/04/23 13:59:47.5     393   -415   -113    572    584 136.6 -11.2  34210  290.41 0854.42
2009/04/23 13:59:47.6      64   -457   -237    462    519 172.0 -33.7  34222  290.61 0854.43
2009/04/23 13:59:47.7     -41   -297   -129    301    327 188.0 -29.0  34222  290.61 0854.43
2009/04/23 13:59:47.8    -171   -171      3    243    244 225.0   0.7  34228  290.73 0854.43
2009/04/23 13:59:47.9    -400   -284    -27    491    492 234.6  -3.2  34234  290.83 0854.43
2009/04/23 13:59:48.0    -363   -202   -126    416    435 240.9 -16.9  34232  290.80 0854.43
2009/04/23 13:59:48.1    -316   -145    -99    348    362 245.3 -15.9  34246  291.03 0854.43
2009/04/23 13:59:48.2    -291   -250      6    384    385 229.4   1.0  34244  291.01 0854.43
2009/04/23 13:59:48.3    -233   -465   -127    521    537 206.6 -13.7  34228  290.72 0854.43
2009/04/23 13:59:48.4    -517   -285   -113    591    602 241.2 -10.9  34220  290.59 0854.43
2009/04/23 13:59:48.5    -297   -173   -115    344    362 239.8 -23.6  34226  290.69 0854.43
2009/04/23 13:59:48.6     -55   -271    193    277    337 191.6  38.4  34238  290.88 0854.44
2009/04/23 13:59:48.7     -71   -327    220    335    400 192.3  36.4  34236  290.86 0854.44
2009/04/23 13:59:48.8     145   -156    227    214    311 137.0  51.9  34238  290.90 0854.44
2009/04/23 13:59:48.9      11   -136    128    137    187 175.1  47.9  34238  290.91 0854.44
2009/04/23 13:59:49.0       0    -94    101     95    138 180.5  52.1  34230  290.75 0854.44
2009/04/23 13:59:49.1      15   -169    123    170    209 174.7  39.5  34224  290.67 0854.44
2009/04/23 13:59:49.2     252   -109    274    275    388 113.5  50.0  34228  290.74 0854.44
2009/04/23 13:59:49.3     320   -109    215    339    401 108.8  35.5  34230  290.77 0854.44
2009/04/23 13:59:49.4     237   -181    135    299    328 127.3  26.0  34226  290.70 0854.44
2009/04/23 13:59:49.5     339   -133    232    365    432 111.5  35.5  34214  290.50 0854.44
2009/04/23 13:59:49.6     429   -200    353    474    591 115.0  40.4  34214  290.48 0854.44
2009/04/23 13:59:49.7     338   -125    319    361    481 110.4  46.1  34222  290.63 0854.44
2009/04/23 13:59:49.8     126   -455    319    473    570 164.5  37.3  34216  290.52 0854.44
2009/04/23 13:59:49.9      78   -371    320    380    496 168.1  44.3  34218  290.56 0854.44
2009/04/23 13:59:50.0      95   -249    303    267    403 159.1  54.3  34226  290.69 0854.44
2009/04/23 13:59:50.1      15   -198    289    199    350 175.6  62.4  34224  290.65 0854.44
2009/04/23 13:59:50.2     411    -49    424    414    592  96.8  50.7  34228  290.72 0854.44
2009/04/23 13:59:50.3     518     23    364    519    633  87.4  38.5  34226  290.70 0854.44
2009/04/23 13:59:50.4     417     98    292    429    518  76.8  37.4  34226  290.68 0854.44
2009/04/23 13:59:50.5     198    -39    311    202    370 101.2  64.3  34218  290.54 0854.44
2009/04/23 13:59:50.6     123     96    219    157    269  52.2  60.6  34228  290.71 0854.43
2009/04/23 13:59:50.7     -54     49    164     74    179 312.2  74.0  34244  290.99 0854.43
2009/04/23 13:59:50.8     -84     30    102     90    136 290.0  54.2  34242  290.98 0854.43
2009/04/23 13:59:50.9    -110     -7     79    111    136 266.1  39.1  34234  290.82 0854.43
2009/04/23 13:59:51.0    -344    -55    -19    349    350 260.8  -3.1  34240  290.94 0854.43
2009/04/23 13:59:51.1    -199   -125    105    236    258 237.8  25.3  34232  290.80 0854.43
2009/04/23 13:59:51.2     -90   -164    132    188    229 208.7  38.6  34230  290.75 0854.43
2009/04/23 13:59:51.3    -123   -181    251    219    333 214.2  54.6  34236  290.85 0854.43
2009/04/23 13:59:51.4    -158   -133    116    207    237 230.0  31.6  34244  290.99 0854.43
2009/04/23 13:59:51.5    -122   -178     42    217    222 214.5  11.0  34234  290.84 0854.43
2009/04/23 13:59:51.6     -50   -391    242    395    463 187.3  34.4  34224  290.67 0854.43
2009/04/23 13:59:51.7      -2   -254    134    255    288 180.5  29.8  34250  291.09 0854.43
2009/04/23 13:59:51.8    -189    -75    -52    204    211 248.3 -14.3  34248  291.06 0854.43
2009/04/23 13:59:51.9    -207    -96     92    229    246 245.2  23.0  34262  291.29 0854.43
2009/04/23 13:59:52.0    -329   -155     43    364    367 244.7   6.8  34262  291.32 0854.43
2009/04/23 13:59:52.1    -342   -146     33    373    375 246.8   5.2  34254  291.18 0854.43
2009/04/23 13:59:52.2    -218   -108     26    244    246 243.6   6.1  34244  291.00 0854.43
2009/04/23 13:59:52.3    -155      4    170    156    230 271.7  52.5  34260  291.26 0854.43
2009/04/23 13:59:52.4    -235    166     47    288    292 305.3   9.3  34252  291.14 0854.43
2009/04/23 13:59:52.5    -159    329      4    366    367 334.1   0.7  34250  291.11 0854.43
2009/04/23 13:59:52.6    -124    252     29    282    284 333.7   5.9  34250  291.09 0854.45
2009/04/23 13:59:52.7     -72    217     11    229    230 341.5   2.8  34246  291.04 0854.45
2009/04/23 13:59:52.8      58    180     72    190    203  17.8  21.5  34248  291.06 0854.45
2009/04/23 13:59:52.9      14      3    135     15    135  74.9  90.0  34258  291.23 0854.45
2009/04/23 13:59:53.0      -2     37    123     38    128 355.5  82.7  34262  291.32 0854.45
2009/04/23 13:59:53.1      -8   -120    155    121    196 184.0  58.2  34242  290.96 0854.45
2009/04/23 13:59:53.2     -15   -197    212    198    290 184.4  52.2  34242  290.97 0854.45
2009/04/23 13:59:53.3     -97   -225    186    246    308 203.4  40.9  34236  290.87 0854.45
2009/04/23 13:59:53.4     -53   -290    228    295    372 190.5  41.6  34228  290.71 0854.45
2009/04/23 13:59:53.5    -102   -215     99    239    258 205.4  23.6  34236  290.85 0854.45
2009/04/23 13:59:53.6     -96   -310     92    325    338 197.2  15.9  34240  290.94 0854.45
2009/04/23 13:59:53.7    -144   -281    285    316    425 207.2  46.8  34244  291.00 0854.45
2009/04/23 13:59:53.8      -4     -7    186      9    186 212.5  90.0  34256  291.21 0854.45
2009/04/23 13:59:53.9     112    135    234    176    292  39.9  59.4  34278  291.56 0854.45
2009/04/23 13:59:54.0     193    122    179    229    290  57.8  42.0  34276  291.53 0854.45
2009/04/23 13:59:54.1     137    -16    181    139    228  97.0  58.5  34280  291.60 0854.45
2009/04/23 13:59:54.2      43     22    140     49    148  62.9  80.7  34294  291.84 0854.45
2009/04/23 13:59:54.3      31     -6    149     32    152 101.4  89.0  34278  291.59 0854.45
2009/04/23 13:59:54.4      24    -14     98     29    102 120.7  83.3  34278  291.59 0854.45
2009/04/23 13:59:54.5     -73   -282    255    292    387 194.5  45.6  34278  291.56 0854.45
2009/04/23 13:59:54.6    -144   -189    258    238    351 217.4  52.5  34280  291.61 0854.44
2009/04/23 13:59:54.7     -19   -178    151    180    234 186.2  44.3  34286  291.72 0854.44
2009/04/23 13:59:54.8     -98   -104    120    144    187 223.2  43.8  34284  291.69 0854.44
2009/04/23 13:59:54.9     -88    121    119    150    191 323.9  42.7  34288  291.76 0854.44
2009/04/23 13:59:55.0     -51    159     37    167    172 342.2  12.6  34290  291.79 0854.44
2009/04/23 13:59:55.1    -138    303    148    333    364 335.5  25.6  34318  292.27 0854.44
2009/04/23 13:59:55.2    -135    325    172    352    391 337.4  28.1  34326  292.39 0854.44
2009/04/23 13:59:55.3    -129    294    130    322    347 336.3  23.1  34314  292.19 0854.44
2009/04/23 13:59:55.4      26    342    168    343    381   4.4  27.9  34284  291.69 0854.44
2009/04/23 13:59:55.5     173    160    211    236    316  47.3  46.5  34292  291.82 0854.44
2009/04/23 13:59:55.6     -23     68    149     72    165 341.3  72.4  34302  291.98 0854.44
2009/04/23 13:59:55.7    -196    195    244    277    369 314.9  45.8  34322  292.31 0854.44
2009/04/23 13:59:55.8    -130    253    230    285    366 332.8  43.1  34320  292.29 0854.44
2009/04/23 13:59:55.9    -114    239    168    265    313 334.5  35.3  34316  292.21 0854.44
2009/04/23 13:59:56.0     -30    197     86    200    217 351.3  24.9  34278  291.57 0854.44
2009/04/23 13:59:56.1     -42    139    205    146    251 343.0  61.5  34286  291.72 0854.44
2009/04/23 13:59:56.2     -19    143    173    145    225 352.4  56.3  34260  291.26 0854.44
2009/04/23 13:59:56.3      -3    222     82    223    237 359.1  21.0  34268  291.39 0854.44
2009/04/23 13:59:56.4     -45    150    100    157    186 343.1  35.5  34264  291.33 0854.44
2009/04/23 13:59:56.5      79    197    106    213    237  21.8  28.2  34262  291.32 0854.44
2009/04/23 13:59:56.6       4    244     57    245    252   1.0  13.2  34282  291.63 0854.45
2009/04/23 13:59:56.7     -24    227     59    229    237 353.8  14.5  34276  291.53 0854.45
2009/04/23 13:59:56.8     -26    215     79    217    230 352.9  20.7  34292  291.83 0854.45
2009/04/23 13:59:56.9     -36    220     47    224    230 350.7  12.0  34290  291.77 0854.45
2009/04/23 13:59:57.0     -48    199     49    205    211 346.4  13.5  34294  291.84 0854.45
2009/04/23 13:59:57.1     -35    208     49    212    218 350.3  13.2  34298  291.91 0854.45
2009/04/23 13:59:57.2     -38    210     55    214    222 349.5  14.5  34312  292.17 0854.45
2009/04/23 13:59:57.3      27    176     67    179    191   8.9  21.5  34332  292.49 0854.45
2009/04/23 13:59:57.4     -38    201    110    205    232 349.1  30.8  34360  292.97 0854.45
2009/04/23 13:59:57.5     -12    161     69    162    176 355.6  24.3  34336  292.56 0854.45
2009/04/23 13:59:57.6     -62    178      9    189    190 340.6   2.9  34326  292.40 0854.45
2009/04/23 13:59:57.7     -53    125    -46    137    145 336.8 -18.7  34328  292.44 0854.45
2009/04/23 13:59:57.8     -91    125    -19    155    157 323.9  -7.2  34322  292.32 0854.45
2009/04/23 13:59:57.9     -44    125     15    133    134 340.4   6.5  34338  292.59 0854.45
2009/04/23 13:59:58.0      39    151     20    157    159  14.7   7.5  34334  292.52 0854.45
2009/04/23 13:59:58.1      42    161     71    167    181  14.7  24.3  34362  293.02 0854.45
2009/04/23 13:59:58.2       7    169    110    170    202   2.6  35.7  34370  293.15 0854.45
2009/04/23 13:59:58.3      66     53     93     85    125  51.4  52.2  34370  293.14 0854.45
2009/04/23 13:59:58.4       0     33     81     34     87   0.9  76.6  34388  293.44 0854.45
2009/04/23 13:59:58.5     -48     -3     94     49    106 265.7  70.4  34398  293.62 0854.45
2009/04/23 13:59:58.6     -44     -3     59     45     74 265.6  58.5  34394  293.55 0854.45
2009/04/23 13:59:58.7     -27     81     75     86    114 341.7  45.8  34376  293.24 0854.45
2009/04/23 13:59:58.8    -175     76    -78    191    206 293.5 -27.8  34348  292.78 0854.45
2009/04/23 13:59:58.9    -194     73    -61    208    216 290.6 -21.0  34340  292.64 0854.45
2009/04/23 13:59:59.0    -166     73   -100    182    207 294.0 -35.8  34346  292.75 0854.45
2009/04/23 13:59:59.1    -167     61    -67    178    190 290.2 -25.7  34364  293.05 0854.45
2009/04/23 13:59:59.2    -163    145     -8    219    220 311.6  -2.3  34370  293.14 0854.45
2009/04/23 13:59:59.3    -122    137     66    184    195 318.3  20.4  34368  293.12 0854.45
2009/04/23 13:59:59.5    -111    154     54    190    198 324.2  16.0  34364  293.04 0854.45
2009/04/23 13:59:59.6    -153    197    -88    250    266 322.2 -19.4  34294  291.85 0854.45
2009/04/23 13:59:59.7     -22    219     43    221    226 354.2  11.0  34320  292.29 0854.45
2009/04/23 13:59:59.8      27    101    126    105    164  15.2  56.1  34334  292.52 0854.45
